<?xml version="1.0" encoding="UTF-8"?><gpx version="1.1" creator="Garmin Explore App" xmlns="http://www.topografix.com/GPX/1/1" xmlns:adv="http://www.garmin.com/xmlschemas/AdventuresExtensions/v1" xmlns:gpxtpx="http://www.garmin.com/xmlschemas/TrackPointExtension/v1" xmlns:gpxtrx="http://www.garmin.com/xmlschemas/GpxExtensions/v3" xmlns:gpxx="http://www.garmin.com/xmlschemas/GpxExtensions/v3" xmlns:trp="http://www.garmin.com/xmlschemas/TripExtensions/v1" xmlns:wptx1="http://www.garmin.com/xmlschemas/WaypointExtension/v1" xmlns:xsi="http://www.w3.org/2001/XMLSchema-instance" xsi:schemaLocation="http://www.topografix.com/GPX/1/1 http://www.topografix.com/GPX/1/1/gpx.xsd http://www.garmin.com/xmlschemas/WaypointExtension/v1 http://www8.garmin.com/xmlschemas/WaypointExtensionv1.xsd http://www.garmin.com/xmlschemas/TrackPointExtension/v1 http://www.garmin.com/xmlschemas/TrackPointExtensionv1.xsd http://www.garmin.com/xmlschemas/GpxExtensions/v3 http://www8.garmin.com/xmlschemas/GpxExtensionsv3.xsd http://www.garmin.com/xmlschemas/ActivityExtension/v1 http://www8.garmin.com/xmlschemas/ActivityExtensionv1.xsd http://www.garmin.com/xmlschemas/AdventuresExtensions/v1 http://www8.garmin.com/xmlschemas/AdventuresExtensionv1.xsd http://www.garmin.com/xmlschemas/PressureExtension/v1 http://www.garmin.com/xmlschemas/PressureExtensionv1.xsd"><metadata><name>Мика-2026-08-20 133157.gpx</name><link href="http://www.garmin.com"><text>Garmin International</text></link><time>2026-08-20T10:42:17.377Z</time></metadata><trk><name><![CDATA[Мика-2026-08-20 13:31:57]]></name><extensions><gpxx:TrackExtension xmlns:gpxx="http://www.garmin.com/xmlschemas/GpxExtensions/v3"><gpxx:DisplayColor>Red</gpxx:DisplayColor></gpxx:TrackExtension></extensions><trkseg><trkpt lat="59.40539360046387" lon="34.70937252044678"><time>2026-08-17T11:59:27.000Z</time><extensions/></trkpt><trkpt lat="59.40539360046387" lon="34.70937252044678"><time>2026-08-17T11:59:57.000Z</time><extensions/></trkpt><trkpt lat="59.40539360046387" lon="34.70937252044678"><time>2026-08-17T12:00:27.000Z</time><extensions/></trkpt><trkpt lat="59.40539360046387" lon="34.70937252044678"><time>2026-08-17T12:00:57.000Z</time><extensions/></trkpt><trkpt lat="59.40539360046387" lon="34.70937252044678"><time>2026-08-17T12:01:27.000Z</time><extensions/></trkpt><trkpt lat="59.40539360046387" lon="34.70937252044678"><time>2026-08-17T12:01:57.000Z</time><extensions/></trkpt><trkpt lat="59.40539360046387" lon="34.70937252044678"><time>2026-08-17T12:02:27.000Z</time><extensions/></trkpt><trkpt lat="59.40539360046387" lon="34.70937252044678"><time>2026-08-17T12:02:57.000Z</time><extensions/></trkpt><trkpt lat="59.40539360046387" lon="34.70937252044678"><time>2026-08-17T12:03:27.000Z</time><extensions/></trkpt><trkpt lat="59.40539360046387" lon="34.70937252044678"><time>2026-08-17T12:03:57.000Z</time><extensions/></trkpt><trkpt lat="59.40539360046387" lon="34.70937252044678"><time>2026-08-17T12:04:27.000Z</time><extensions/></trkpt><trkpt lat="59.40539360046387" lon="34.70937252044678"><time>2026-08-17T12:04:57.000Z</time><extensions/></trkpt><trkpt lat="59.40539360046387" lon="34.70937252044678"><time>2026-08-17T12:05:27.000Z</time><extensions/></trkpt><trkpt lat="59.40537214279175" lon="34.70935106277466"><time>2026-08-17T12:05:30.000Z</time><extensions/></trkpt><trkpt lat="59.40526485443115" lon="34.70924377441406"><time>2026-08-17T12:05:35.000Z</time><extensions/></trkpt><trkpt lat="59.40524339675903" lon="34.709200859069824"><time>2026-08-17T12:05:37.000Z</time><extensions/></trkpt><trkpt lat="59.405221939086914" lon="34.70913648605347"><time>2026-08-17T12:05:42.000Z</time><extensions/></trkpt><trkpt lat="59.40515756607056" lon="34.70881462097168"><time>2026-08-17T12:06:05.000Z</time><extensions/></trkpt><trkpt lat="59.40513610839844" lon="34.70877170562744"><time>2026-08-17T12:06:10.000Z</time><extensions/></trkpt><trkpt lat="59.40513610839844" lon="34.708707332611084"><time>2026-08-17T12:06:12.000Z</time><extensions/></trkpt><trkpt lat="59.40513610839844" lon="34.70862150192261"><time>2026-08-17T12:06:15.000Z</time><extensions/></trkpt><trkpt lat="59.40515756607056" lon="34.70855712890625"><time>2026-08-17T12:06:20.000Z</time><extensions/></trkpt><trkpt lat="59.405179023742676" lon="34.708449840545654"><time>2026-08-17T12:06:25.000Z</time><extensions/></trkpt><trkpt lat="59.405179023742676" lon="34.7083854675293"><time>2026-08-17T12:06:27.000Z</time><extensions/></trkpt><trkpt lat="59.405179023742676" lon="34.70832109451294"><time>2026-08-17T12:06:30.000Z</time><extensions/></trkpt><trkpt lat="59.405179023742676" lon="34.7082781791687"><time>2026-08-17T12:06:32.000Z</time><extensions/></trkpt><trkpt lat="59.405200481414795" lon="34.708213806152344"><time>2026-08-17T12:06:35.000Z</time><extensions/></trkpt><trkpt lat="59.405200481414795" lon="34.708149433135986"><time>2026-08-17T12:06:37.000Z</time><extensions/></trkpt><trkpt lat="59.405221939086914" lon="34.70810651779175"><time>2026-08-17T12:07:07.000Z</time><extensions/></trkpt><trkpt lat="59.405221939086914" lon="34.70812797546387"><time>2026-08-17T12:07:12.000Z</time><extensions/></trkpt><trkpt lat="59.405221939086914" lon="34.70810651779175"><time>2026-08-17T12:07:22.000Z</time><extensions/></trkpt><trkpt lat="59.40524339675903" lon="34.707677364349365"><time>2026-08-17T12:07:37.000Z</time><extensions/></trkpt><trkpt lat="59.40526485443115" lon="34.70754861831665"><time>2026-08-17T12:07:45.000Z</time><extensions/></trkpt><trkpt lat="59.40526485443115" lon="34.707462787628174"><time>2026-08-17T12:07:47.000Z</time><extensions/></trkpt><trkpt lat="59.40526485443115" lon="34.707419872283936"><time>2026-08-17T12:08:17.000Z</time><extensions/></trkpt><trkpt lat="59.40537214279175" lon="34.70707654953003"><time>2026-08-17T12:08:45.000Z</time><extensions/></trkpt><trkpt lat="59.40539360046387" lon="34.70703363418579"><time>2026-08-17T12:08:47.000Z</time><extensions/></trkpt><trkpt lat="59.40539360046387" lon="34.70699071884155"><time>2026-08-17T12:08:50.000Z</time><extensions/></trkpt><trkpt lat="59.405479431152344" lon="34.706690311431885"><time>2026-08-17T12:09:05.000Z</time><extensions/></trkpt><trkpt lat="59.405479431152344" lon="34.70662593841553"><time>2026-08-17T12:09:10.000Z</time><extensions/></trkpt><trkpt lat="59.40550088882446" lon="34.706432819366455"><time>2026-08-17T12:09:15.000Z</time><extensions/></trkpt><trkpt lat="59.40552234649658" lon="34.70632553100586"><time>2026-08-17T12:09:20.000Z</time><extensions/></trkpt><trkpt lat="59.40552234649658" lon="34.706218242645264"><time>2026-08-17T12:09:22.000Z</time><extensions/></trkpt><trkpt lat="59.40556526184082" lon="34.70576763153076"><time>2026-08-17T12:09:42.000Z</time><extensions/></trkpt><trkpt lat="59.40558671951294" lon="34.70538139343262"><time>2026-08-17T12:09:57.000Z</time><extensions/></trkpt><trkpt lat="59.40562963485718" lon="34.705166816711426"><time>2026-08-17T12:10:05.000Z</time><extensions/></trkpt><trkpt lat="59.40562963485718" lon="34.70512390136719"><time>2026-08-17T12:10:07.000Z</time><extensions/></trkpt><trkpt lat="59.4056510925293" lon="34.70505952835083"><time>2026-08-17T12:10:10.000Z</time><extensions/></trkpt><trkpt lat="59.405672550201416" lon="34.70499515533447"><time>2026-08-17T12:10:12.000Z</time><extensions/></trkpt><trkpt lat="59.405672550201416" lon="34.70499515533447"><time>2026-08-17T12:10:15.000Z</time><extensions/></trkpt><trkpt lat="59.405672550201416" lon="34.70497369766235"><time>2026-08-17T12:10:37.000Z</time><extensions/></trkpt><trkpt lat="59.405672550201416" lon="34.70497369766235"><time>2026-08-17T12:11:05.000Z</time><extensions/></trkpt><trkpt lat="59.405672550201416" lon="34.704952239990234"><time>2026-08-17T12:11:07.000Z</time><extensions/></trkpt><trkpt lat="59.405672550201416" lon="34.70486640930176"><time>2026-08-17T12:11:10.000Z</time><extensions/></trkpt><trkpt lat="59.405694007873535" lon="34.70482349395752"><time>2026-08-17T12:11:12.000Z</time><extensions/></trkpt><trkpt lat="59.405715465545654" lon="34.70475912094116"><time>2026-08-17T12:11:15.000Z</time><extensions/></trkpt><trkpt lat="59.40573692321777" lon="34.704694747924805"><time>2026-08-17T12:11:17.000Z</time><extensions/></trkpt><trkpt lat="59.40573692321777" lon="34.704651832580566"><time>2026-08-17T12:11:20.000Z</time><extensions/></trkpt><trkpt lat="59.40575838088989" lon="34.70460891723633"><time>2026-08-17T12:11:25.000Z</time><extensions/></trkpt><trkpt lat="59.40577983856201" lon="34.70452308654785"><time>2026-08-17T12:11:27.000Z</time><extensions/></trkpt><trkpt lat="59.40582275390625" lon="34.70450162887573"><time>2026-08-17T12:11:30.000Z</time><extensions/></trkpt><trkpt lat="59.40582275390625" lon="34.70448017120361"><time>2026-08-17T12:11:32.000Z</time><extensions/></trkpt><trkpt lat="59.40582275390625" lon="34.70439434051514"><time>2026-08-17T12:11:35.000Z</time><extensions/></trkpt><trkpt lat="59.40584421157837" lon="34.70432996749878"><time>2026-08-17T12:11:37.000Z</time><extensions/></trkpt><trkpt lat="59.40586566925049" lon="34.70426559448242"><time>2026-08-17T12:11:40.000Z</time><extensions/></trkpt><trkpt lat="59.40588712692261" lon="34.704201221466064"><time>2026-08-17T12:11:42.000Z</time><extensions/></trkpt><trkpt lat="59.40590858459473" lon="34.70411539077759"><time>2026-08-17T12:11:47.000Z</time><extensions/></trkpt><trkpt lat="59.405930042266846" lon="34.70409393310547"><time>2026-08-17T12:11:50.000Z</time><extensions/></trkpt><trkpt lat="59.405951499938965" lon="34.70402956008911"><time>2026-08-17T12:11:52.000Z</time><extensions/></trkpt><trkpt lat="59.405972957611084" lon="34.703922271728516"><time>2026-08-17T12:12:02.000Z</time><extensions/></trkpt><trkpt lat="59.4059944152832" lon="34.70385789871216"><time>2026-08-17T12:12:05.000Z</time><extensions/></trkpt><trkpt lat="59.40601587295532" lon="34.7037935256958"><time>2026-08-17T12:12:07.000Z</time><extensions/></trkpt><trkpt lat="59.40605878829956" lon="34.703664779663086"><time>2026-08-17T12:12:15.000Z</time><extensions/></trkpt><trkpt lat="59.40608024597168" lon="34.70360040664673"><time>2026-08-17T12:12:17.000Z</time><extensions/></trkpt><trkpt lat="59.4061017036438" lon="34.70353603363037"><time>2026-08-17T12:12:20.000Z</time><extensions/></trkpt><trkpt lat="59.4061017036438" lon="34.703471660614014"><time>2026-08-17T12:12:22.000Z</time><extensions/></trkpt><trkpt lat="59.40612316131592" lon="34.703407287597656"><time>2026-08-17T12:12:25.000Z</time><extensions/></trkpt><trkpt lat="59.40614461898804" lon="34.7033429145813"><time>2026-08-17T12:12:27.000Z</time><extensions/></trkpt><trkpt lat="59.40614461898804" lon="34.70329999923706"><time>2026-08-17T12:12:30.000Z</time><extensions/></trkpt><trkpt lat="59.406166076660156" lon="34.7032356262207"><time>2026-08-17T12:12:32.000Z</time><extensions/></trkpt><trkpt lat="59.406166076660156" lon="34.70314979553223"><time>2026-08-17T12:12:35.000Z</time><extensions/></trkpt><trkpt lat="59.406230449676514" lon="34.70276355743408"><time>2026-08-17T12:12:50.000Z</time><extensions/></trkpt><trkpt lat="59.40629482269287" lon="34.70239877700806"><time>2026-08-17T12:13:05.000Z</time><extensions/></trkpt><trkpt lat="59.40638065338135" lon="34.70203399658203"><time>2026-08-17T12:13:20.000Z</time><extensions/></trkpt><trkpt lat="59.406466484069824" lon="34.70160484313965"><time>2026-08-17T12:13:37.000Z</time><extensions/></trkpt><trkpt lat="59.4065523147583" lon="34.701218605041504"><time>2026-08-17T12:13:55.000Z</time><extensions/></trkpt><trkpt lat="59.40663814544678" lon="34.70083236694336"><time>2026-08-17T12:14:12.000Z</time><extensions/></trkpt><trkpt lat="59.406702518463135" lon="34.70053195953369"><time>2026-08-17T12:14:25.000Z</time><extensions/></trkpt><trkpt lat="59.406723976135254" lon="34.70048904418945"><time>2026-08-17T12:14:27.000Z</time><extensions/></trkpt><trkpt lat="59.406723976135254" lon="34.70040321350098"><time>2026-08-17T12:14:30.000Z</time><extensions/></trkpt><trkpt lat="59.40674543380737" lon="34.70033884048462"><time>2026-08-17T12:14:32.000Z</time><extensions/></trkpt><trkpt lat="59.40674543380737" lon="34.70027446746826"><time>2026-08-17T12:14:35.000Z</time><extensions/></trkpt><trkpt lat="59.40683126449585" lon="34.699866771698"><time>2026-08-17T12:14:52.000Z</time><extensions/></trkpt><trkpt lat="59.40685272216797" lon="34.6997594833374"><time>2026-08-17T12:14:57.000Z</time><extensions/></trkpt><trkpt lat="59.40689563751221" lon="34.69963073730469"><time>2026-08-17T12:15:02.000Z</time><extensions/></trkpt><trkpt lat="59.406917095184326" lon="34.69956636428833"><time>2026-08-17T12:15:05.000Z</time><extensions/></trkpt><trkpt lat="59.406917095184326" lon="34.69950199127197"><time>2026-08-17T12:15:07.000Z</time><extensions/></trkpt><trkpt lat="59.406938552856445" lon="34.699459075927734"><time>2026-08-17T12:15:10.000Z</time><extensions/></trkpt><trkpt lat="59.406938552856445" lon="34.69939470291138"><time>2026-08-17T12:15:12.000Z</time><extensions/></trkpt><trkpt lat="59.40704584121704" lon="34.69900846481323"><time>2026-08-17T12:15:30.000Z</time><extensions/></trkpt><trkpt lat="59.40715312957764" lon="34.698686599731445"><time>2026-08-17T12:15:45.000Z</time><extensions/></trkpt><trkpt lat="59.407174587249756" lon="34.69864368438721"><time>2026-08-17T12:15:47.000Z</time><extensions/></trkpt><trkpt lat="59.407196044921875" lon="34.69860076904297"><time>2026-08-17T12:15:50.000Z</time><extensions/></trkpt><trkpt lat="59.407196044921875" lon="34.69853639602661"><time>2026-08-17T12:15:52.000Z</time><extensions/></trkpt><trkpt lat="59.407217502593994" lon="34.69849348068237"><time>2026-08-17T12:15:55.000Z</time><extensions/></trkpt><trkpt lat="59.40723896026611" lon="34.698429107666016"><time>2026-08-17T12:15:57.000Z</time><extensions/></trkpt><trkpt lat="59.40736770629883" lon="34.69812870025635"><time>2026-08-17T12:16:15.000Z</time><extensions/></trkpt><trkpt lat="59.407432079315186" lon="34.697957038879395"><time>2026-08-17T12:16:27.000Z</time><extensions/></trkpt><trkpt lat="59.407474994659424" lon="34.69789266586304"><time>2026-08-17T12:16:30.000Z</time><extensions/></trkpt><trkpt lat="59.40749645233154" lon="34.69782829284668"><time>2026-08-17T12:16:32.000Z</time><extensions/></trkpt><trkpt lat="59.40762519836426" lon="34.697442054748535"><time>2026-08-17T12:16:55.000Z</time><extensions/></trkpt><trkpt lat="59.40775394439697" lon="34.69727039337158"><time>2026-08-17T12:17:15.000Z</time><extensions/></trkpt><trkpt lat="59.40777540206909" lon="34.69724893569946"><time>2026-08-17T12:17:17.000Z</time><extensions/></trkpt><trkpt lat="59.40779685974121" lon="34.697227478027344"><time>2026-08-17T12:17:20.000Z</time><extensions/></trkpt><trkpt lat="59.40779685974121" lon="34.697184562683105"><time>2026-08-17T12:17:22.000Z</time><extensions/></trkpt><trkpt lat="59.40783977508545" lon="34.697163105010986"><time>2026-08-17T12:17:27.000Z</time><extensions/></trkpt><trkpt lat="59.40786123275757" lon="34.69714164733887"><time>2026-08-17T12:17:30.000Z</time><extensions/></trkpt><trkpt lat="59.40788269042969" lon="34.69703435897827"><time>2026-08-17T12:17:55.000Z</time><extensions/></trkpt><trkpt lat="59.40790414810181" lon="34.696948528289795"><time>2026-08-17T12:17:57.000Z</time><extensions/></trkpt><trkpt lat="59.40790414810181" lon="34.69699144363403"><time>2026-08-17T12:18:00.000Z</time><extensions/></trkpt><trkpt lat="59.40790414810181" lon="34.69701290130615"><time>2026-08-17T12:18:20.000Z</time><extensions/></trkpt><trkpt lat="59.407925605773926" lon="34.69688415527344"><time>2026-08-17T12:18:25.000Z</time><extensions/></trkpt><trkpt lat="59.407947063446045" lon="34.69675540924072"><time>2026-08-17T12:18:27.000Z</time><extensions/></trkpt><trkpt lat="59.40798997879028" lon="34.69651937484741"><time>2026-08-17T12:18:35.000Z</time><extensions/></trkpt><trkpt lat="59.40798997879028" lon="34.696433544158936"><time>2026-08-17T12:18:37.000Z</time><extensions/></trkpt><trkpt lat="59.4080114364624" lon="34.69634771347046"><time>2026-08-17T12:18:42.000Z</time><extensions/></trkpt><trkpt lat="59.40798997879028" lon="34.69630479812622"><time>2026-08-17T12:18:45.000Z</time><extensions/></trkpt><trkpt lat="59.40798997879028" lon="34.69634771347046"><time>2026-08-17T12:18:47.000Z</time><extensions/></trkpt><trkpt lat="59.40798997879028" lon="34.69649791717529"><time>2026-08-17T12:19:17.000Z</time><extensions/></trkpt><trkpt lat="59.40798997879028" lon="34.69651937484741"><time>2026-08-17T12:19:35.000Z</time><extensions/></trkpt><trkpt lat="59.40798997879028" lon="34.696476459503174"><time>2026-08-17T12:20:00.000Z</time><extensions/></trkpt><trkpt lat="59.4080114364624" lon="34.69634771347046"><time>2026-08-17T12:20:02.000Z</time><extensions/></trkpt><trkpt lat="59.40803289413452" lon="34.69613313674927"><time>2026-08-17T12:20:10.000Z</time><extensions/></trkpt><trkpt lat="59.40803289413452" lon="34.69604730606079"><time>2026-08-17T12:20:12.000Z</time><extensions/></trkpt><trkpt lat="59.40805435180664" lon="34.695961475372314"><time>2026-08-17T12:20:15.000Z</time><extensions/></trkpt><trkpt lat="59.40809726715088" lon="34.69578981399536"><time>2026-08-17T12:20:17.000Z</time><extensions/></trkpt><trkpt lat="59.40809726715088" lon="34.69566106796265"><time>2026-08-17T12:20:20.000Z</time><extensions/></trkpt><trkpt lat="59.40809726715088" lon="34.69574689865112"><time>2026-08-17T12:20:22.000Z</time><extensions/></trkpt><trkpt lat="59.408118724823" lon="34.695682525634766"><time>2026-08-17T12:20:30.000Z</time><extensions/></trkpt><trkpt lat="59.40814018249512" lon="34.69553232192993"><time>2026-08-17T12:20:32.000Z</time><extensions/></trkpt><trkpt lat="59.40814018249512" lon="34.695467948913574"><time>2026-08-17T12:20:35.000Z</time><extensions/></trkpt><trkpt lat="59.40814018249512" lon="34.695425033569336"><time>2026-08-17T12:20:37.000Z</time><extensions/></trkpt><trkpt lat="59.408161640167236" lon="34.69525337219238"><time>2026-08-17T12:20:42.000Z</time><extensions/></trkpt><trkpt lat="59.408161640167236" lon="34.69508171081543"><time>2026-08-17T12:20:45.000Z</time><extensions/></trkpt><trkpt lat="59.408161640167236" lon="34.69499588012695"><time>2026-08-17T12:20:47.000Z</time><extensions/></trkpt><trkpt lat="59.408183097839355" lon="34.694974422454834"><time>2026-08-17T12:21:10.000Z</time><extensions/></trkpt><trkpt lat="59.40824747085571" lon="34.69450235366821"><time>2026-08-17T12:21:17.000Z</time><extensions/></trkpt><trkpt lat="59.40831184387207" lon="34.69400882720947"><time>2026-08-17T12:21:45.000Z</time><extensions/></trkpt><trkpt lat="59.40835475921631" lon="34.69390153884888"><time>2026-08-17T12:21:50.000Z</time><extensions/></trkpt><trkpt lat="59.40835475921631" lon="34.69385862350464"><time>2026-08-17T12:21:55.000Z</time><extensions/></trkpt><trkpt lat="59.40837621688843" lon="34.693708419799805"><time>2026-08-17T12:21:57.000Z</time><extensions/></trkpt><trkpt lat="59.40839767456055" lon="34.69357967376709"><time>2026-08-17T12:22:00.000Z</time><extensions/></trkpt><trkpt lat="59.40839767456055" lon="34.69349384307861"><time>2026-08-17T12:22:05.000Z</time><extensions/></trkpt><trkpt lat="59.408419132232666" lon="34.693429470062256"><time>2026-08-17T12:22:07.000Z</time><extensions/></trkpt><trkpt lat="59.408440589904785" lon="34.693214893341064"><time>2026-08-17T12:22:25.000Z</time><extensions/></trkpt><trkpt lat="59.408462047576904" lon="34.69308614730835"><time>2026-08-17T12:22:32.000Z</time><extensions/></trkpt><trkpt lat="59.408462047576904" lon="34.692978858947754"><time>2026-08-17T12:22:37.000Z</time><extensions/></trkpt><trkpt lat="59.40848350524902" lon="34.69287157058716"><time>2026-08-17T12:22:40.000Z</time><extensions/></trkpt><trkpt lat="59.40848350524902" lon="34.69282865524292"><time>2026-08-17T12:22:42.000Z</time><extensions/></trkpt><trkpt lat="59.40850496292114" lon="34.6928071975708"><time>2026-08-17T12:22:47.000Z</time><extensions/></trkpt><trkpt lat="59.40852642059326" lon="34.692678451538086"><time>2026-08-17T12:22:57.000Z</time><extensions/></trkpt><trkpt lat="59.40859079360962" lon="34.692442417144775"><time>2026-08-17T12:23:00.000Z</time><extensions/></trkpt><trkpt lat="59.40861225128174" lon="34.69237804412842"><time>2026-08-17T12:23:02.000Z</time><extensions/></trkpt><trkpt lat="59.40863370895386" lon="34.69231367111206"><time>2026-08-17T12:23:05.000Z</time><extensions/></trkpt><trkpt lat="59.40865516662598" lon="34.692227840423584"><time>2026-08-17T12:23:07.000Z</time><extensions/></trkpt><trkpt lat="59.40874099731445" lon="34.691948890686035"><time>2026-08-17T12:23:37.000Z</time><extensions/></trkpt><trkpt lat="59.40876245498657" lon="34.69188451766968"><time>2026-08-17T12:23:42.000Z</time><extensions/></trkpt><trkpt lat="59.40880537033081" lon="34.691734313964844"><time>2026-08-17T12:23:45.000Z</time><extensions/></trkpt><trkpt lat="59.40884828567505" lon="34.691712856292725"><time>2026-08-17T12:23:47.000Z</time><extensions/></trkpt><trkpt lat="59.40886974334717" lon="34.691712856292725"><time>2026-08-17T12:23:50.000Z</time><extensions/></trkpt><trkpt lat="59.40889120101929" lon="34.69164848327637"><time>2026-08-17T12:23:52.000Z</time><extensions/></trkpt><trkpt lat="59.40889120101929" lon="34.69151973724365"><time>2026-08-17T12:23:55.000Z</time><extensions/></trkpt><trkpt lat="59.40889120101929" lon="34.691433906555176"><time>2026-08-17T12:23:57.000Z</time><extensions/></trkpt><trkpt lat="59.40889120101929" lon="34.69132661819458"><time>2026-08-17T12:24:02.000Z</time><extensions/></trkpt><trkpt lat="59.408912658691406" lon="34.69115495681763"><time>2026-08-17T12:24:12.000Z</time><extensions/></trkpt><trkpt lat="59.408955574035645" lon="34.6908974647522"><time>2026-08-17T12:24:17.000Z</time><extensions/></trkpt><trkpt lat="59.409019947052" lon="34.690725803375244"><time>2026-08-17T12:24:22.000Z</time><extensions/></trkpt><trkpt lat="59.408977031707764" lon="34.690961837768555"><time>2026-08-17T12:24:30.000Z</time><extensions/></trkpt><trkpt lat="59.408912658691406" lon="34.691219329833984"><time>2026-08-17T12:24:32.000Z</time><extensions/></trkpt><trkpt lat="59.408955574035645" lon="34.69106912612915"><time>2026-08-17T12:24:50.000Z</time><extensions/></trkpt><trkpt lat="59.408977031707764" lon="34.690940380096436"><time>2026-08-17T12:24:52.000Z</time><extensions/></trkpt><trkpt lat="59.408955574035645" lon="34.69106912612915"><time>2026-08-17T12:24:57.000Z</time><extensions/></trkpt><trkpt lat="59.408912658691406" lon="34.691176414489746"><time>2026-08-17T12:25:00.000Z</time><extensions/></trkpt><trkpt lat="59.408934116363525" lon="34.69113349914551"><time>2026-08-17T12:25:15.000Z</time><extensions/></trkpt><trkpt lat="59.408934116363525" lon="34.69111204147339"><time>2026-08-17T12:25:32.000Z</time><extensions/></trkpt><trkpt lat="59.40904140472412" lon="34.690704345703125"><time>2026-08-17T12:25:37.000Z</time><extensions/></trkpt><trkpt lat="59.40908432006836" lon="34.69031810760498"><time>2026-08-17T12:25:52.000Z</time><extensions/></trkpt><trkpt lat="59.40908432006836" lon="34.690210819244385"><time>2026-08-17T12:26:07.000Z</time><extensions/></trkpt><trkpt lat="59.4091272354126" lon="34.69008207321167"><time>2026-08-17T12:26:10.000Z</time><extensions/></trkpt><trkpt lat="59.40914869308472" lon="34.69003915786743"><time>2026-08-17T12:26:12.000Z</time><extensions/></trkpt><trkpt lat="59.409191608428955" lon="34.689974784851074"><time>2026-08-17T12:26:15.000Z</time><extensions/></trkpt><trkpt lat="59.409213066101074" lon="34.6898889541626"><time>2026-08-17T12:26:17.000Z</time><extensions/></trkpt><trkpt lat="59.40925598144531" lon="34.68982458114624"><time>2026-08-17T12:26:20.000Z</time><extensions/></trkpt><trkpt lat="59.40929889678955" lon="34.689674377441406"><time>2026-08-17T12:26:25.000Z</time><extensions/></trkpt><trkpt lat="59.40932035446167" lon="34.68958854675293"><time>2026-08-17T12:26:27.000Z</time><extensions/></trkpt><trkpt lat="59.40929889678955" lon="34.689738750457764"><time>2026-08-17T12:26:35.000Z</time><extensions/></trkpt><trkpt lat="59.40925598144531" lon="34.6898889541626"><time>2026-08-17T12:26:37.000Z</time><extensions/></trkpt><trkpt lat="59.40927743911743" lon="34.68982458114624"><time>2026-08-17T12:26:40.000Z</time><extensions/></trkpt><trkpt lat="59.40929889678955" lon="34.68976020812988"><time>2026-08-17T12:26:47.000Z</time><extensions/></trkpt><trkpt lat="59.40936326980591" lon="34.68956708908081"><time>2026-08-17T12:26:50.000Z</time><extensions/></trkpt><trkpt lat="59.40938472747803" lon="34.689459800720215"><time>2026-08-17T12:26:52.000Z</time><extensions/></trkpt><trkpt lat="59.40940618515015" lon="34.68937397003174"><time>2026-08-17T12:27:00.000Z</time><extensions/></trkpt><trkpt lat="59.409449100494385" lon="34.68930959701538"><time>2026-08-17T12:27:02.000Z</time><extensions/></trkpt><trkpt lat="59.40949201583862" lon="34.689223766326904"><time>2026-08-17T12:27:10.000Z</time><extensions/></trkpt><trkpt lat="59.40953493118286" lon="34.689180850982666"><time>2026-08-17T12:27:17.000Z</time><extensions/></trkpt><trkpt lat="59.4095778465271" lon="34.68903064727783"><time>2026-08-17T12:27:20.000Z</time><extensions/></trkpt><trkpt lat="59.40959930419922" lon="34.68890190124512"><time>2026-08-17T12:27:22.000Z</time><extensions/></trkpt><trkpt lat="59.40959930419922" lon="34.688966274261475"><time>2026-08-17T12:27:25.000Z</time><extensions/></trkpt><trkpt lat="59.40959930419922" lon="34.68905210494995"><time>2026-08-17T12:27:37.000Z</time><extensions/></trkpt><trkpt lat="59.40955638885498" lon="34.68911647796631"><time>2026-08-17T12:27:40.000Z</time><extensions/></trkpt><trkpt lat="59.40953493118286" lon="34.689202308654785"><time>2026-08-17T12:27:42.000Z</time><extensions/></trkpt><trkpt lat="59.40951347351074" lon="34.689202308654785"><time>2026-08-17T12:27:55.000Z</time><extensions/></trkpt><trkpt lat="59.40949201583862" lon="34.689202308654785"><time>2026-08-17T12:27:57.000Z</time><extensions/></trkpt><trkpt lat="59.40951347351074" lon="34.68915939331055"><time>2026-08-17T12:28:15.000Z</time><extensions/></trkpt><trkpt lat="59.40955638885498" lon="34.688987731933594"><time>2026-08-17T12:28:17.000Z</time><extensions/></trkpt><trkpt lat="59.40959930419922" lon="34.68881607055664"><time>2026-08-17T12:28:20.000Z</time><extensions/></trkpt><trkpt lat="59.40964221954346" lon="34.6887731552124"><time>2026-08-17T12:28:22.000Z</time><extensions/></trkpt><trkpt lat="59.409685134887695" lon="34.68883752822876"><time>2026-08-17T12:28:25.000Z</time><extensions/></trkpt><trkpt lat="59.409685134887695" lon="34.688880443573"><time>2026-08-17T12:28:27.000Z</time><extensions/></trkpt><trkpt lat="59.40959930419922" lon="34.688923358917236"><time>2026-08-17T12:28:32.000Z</time><extensions/></trkpt><trkpt lat="59.40959930419922" lon="34.688687324523926"><time>2026-08-17T12:28:35.000Z</time><extensions/></trkpt><trkpt lat="59.40959930419922" lon="34.68853712081909"><time>2026-08-17T12:28:37.000Z</time><extensions/></trkpt><trkpt lat="59.40959930419922" lon="34.68851566314697"><time>2026-08-17T12:28:40.000Z</time><extensions/></trkpt><trkpt lat="59.40962076187134" lon="34.688472747802734"><time>2026-08-17T12:28:42.000Z</time><extensions/></trkpt><trkpt lat="59.40959930419922" lon="34.688429832458496"><time>2026-08-17T12:28:45.000Z</time><extensions/></trkpt><trkpt lat="59.40959930419922" lon="34.68830108642578"><time>2026-08-17T12:28:47.000Z</time><extensions/></trkpt><trkpt lat="59.4095778465271" lon="34.688193798065186"><time>2026-08-17T12:28:50.000Z</time><extensions/></trkpt><trkpt lat="59.40955638885498" lon="34.68815088272095"><time>2026-08-17T12:28:52.000Z</time><extensions/></trkpt><trkpt lat="59.40955638885498" lon="34.68804359436035"><time>2026-08-17T12:28:55.000Z</time><extensions/></trkpt><trkpt lat="59.40955638885498" lon="34.687957763671875"><time>2026-08-17T12:28:57.000Z</time><extensions/></trkpt><trkpt lat="59.40953493118286" lon="34.68752861022949"><time>2026-08-17T12:29:12.000Z</time><extensions/></trkpt><trkpt lat="59.40955638885498" lon="34.68752861022949"><time>2026-08-17T12:29:25.000Z</time><extensions/></trkpt><trkpt lat="59.40955638885498" lon="34.687485694885254"><time>2026-08-17T12:29:27.000Z</time><extensions/></trkpt><trkpt lat="59.40953493118286" lon="34.68737840652466"><time>2026-08-17T12:29:30.000Z</time><extensions/></trkpt><trkpt lat="59.40953493118286" lon="34.68735694885254"><time>2026-08-17T12:29:32.000Z</time><extensions/></trkpt><trkpt lat="59.40949201583862" lon="34.68737840652466"><time>2026-08-17T12:29:35.000Z</time><extensions/></trkpt><trkpt lat="59.409470558166504" lon="34.68739986419678"><time>2026-08-17T12:29:37.000Z</time><extensions/></trkpt><trkpt lat="59.40953493118286" lon="34.687206745147705"><time>2026-08-17T12:29:45.000Z</time><extensions/></trkpt><trkpt lat="59.40953493118286" lon="34.68709945678711"><time>2026-08-17T12:29:47.000Z</time><extensions/></trkpt><trkpt lat="59.40955638885498" lon="34.686970710754395"><time>2026-08-17T12:29:52.000Z</time><extensions/></trkpt><trkpt lat="59.40955638885498" lon="34.686734676361084"><time>2026-08-17T12:29:55.000Z</time><extensions/></trkpt><trkpt lat="59.40955638885498" lon="34.68660593032837"><time>2026-08-17T12:29:57.000Z</time><extensions/></trkpt><trkpt lat="59.4095778465271" lon="34.68652009963989"><time>2026-08-17T12:30:02.000Z</time><extensions/></trkpt><trkpt lat="59.4095778465271" lon="34.686434268951416"><time>2026-08-17T12:30:07.000Z</time><extensions/></trkpt><trkpt lat="59.40955638885498" lon="34.68636989593506"><time>2026-08-17T12:30:12.000Z</time><extensions/></trkpt><trkpt lat="59.40953493118286" lon="34.686455726623535"><time>2026-08-17T12:30:17.000Z</time><extensions/></trkpt><trkpt lat="59.40955638885498" lon="34.68649864196777"><time>2026-08-17T12:30:20.000Z</time><extensions/></trkpt><trkpt lat="59.40955638885498" lon="34.6864128112793"><time>2026-08-17T12:30:22.000Z</time><extensions/></trkpt><trkpt lat="59.40951347351074" lon="34.6863055229187"><time>2026-08-17T12:30:25.000Z</time><extensions/></trkpt><trkpt lat="59.40951347351074" lon="34.686219692230225"><time>2026-08-17T12:30:27.000Z</time><extensions/></trkpt><trkpt lat="59.409449100494385" lon="34.68609094619751"><time>2026-08-17T12:30:40.000Z</time><extensions/></trkpt><trkpt lat="59.409427642822266" lon="34.685962200164795"><time>2026-08-17T12:30:42.000Z</time><extensions/></trkpt><trkpt lat="59.409449100494385" lon="34.68600511550903"><time>2026-08-17T12:30:45.000Z</time><extensions/></trkpt><trkpt lat="59.409427642822266" lon="34.685940742492676"><time>2026-08-17T12:30:52.000Z</time><extensions/></trkpt><trkpt lat="59.40938472747803" lon="34.68583345413208"><time>2026-08-17T12:30:55.000Z</time><extensions/></trkpt><trkpt lat="59.40929889678955" lon="34.68566179275513"><time>2026-08-17T12:31:02.000Z</time><extensions/></trkpt><trkpt lat="59.40927743911743" lon="34.68555450439453"><time>2026-08-17T12:31:10.000Z</time><extensions/></trkpt><trkpt lat="59.40923452377319" lon="34.685447216033936"><time>2026-08-17T12:31:12.000Z</time><extensions/></trkpt><trkpt lat="59.409170150756836" lon="34.6852970123291"><time>2026-08-17T12:31:20.000Z</time><extensions/></trkpt><trkpt lat="59.409170150756836" lon="34.68514680862427"><time>2026-08-17T12:31:30.000Z</time><extensions/></trkpt><trkpt lat="59.4091272354126" lon="34.68514680862427"><time>2026-08-17T12:31:32.000Z</time><extensions/></trkpt><trkpt lat="59.4091272354126" lon="34.68503952026367"><time>2026-08-17T12:31:35.000Z</time><extensions/></trkpt><trkpt lat="59.40908432006836" lon="34.684975147247314"><time>2026-08-17T12:31:42.000Z</time><extensions/></trkpt><trkpt lat="59.40906286239624" lon="34.68486785888672"><time>2026-08-17T12:31:45.000Z</time><extensions/></trkpt><trkpt lat="59.40904140472412" lon="34.684739112854004"><time>2026-08-17T12:31:47.000Z</time><extensions/></trkpt><trkpt lat="59.409019947052" lon="34.68467473983765"><time>2026-08-17T12:31:50.000Z</time><extensions/></trkpt><trkpt lat="59.408977031707764" lon="34.68454599380493"><time>2026-08-17T12:31:55.000Z</time><extensions/></trkpt><trkpt lat="59.40884828567505" lon="34.684245586395264"><time>2026-08-17T12:32:17.000Z</time><extensions/></trkpt><trkpt lat="59.40886974334717" lon="34.684202671051025"><time>2026-08-17T12:32:20.000Z</time><extensions/></trkpt><trkpt lat="59.40880537033081" lon="34.68409538269043"><time>2026-08-17T12:32:25.000Z</time><extensions/></trkpt><trkpt lat="59.40876245498657" lon="34.68403100967407"><time>2026-08-17T12:32:27.000Z</time><extensions/></trkpt><trkpt lat="59.40874099731445" lon="34.683988094329834"><time>2026-08-17T12:32:30.000Z</time><extensions/></trkpt><trkpt lat="59.408698081970215" lon="34.68392372131348"><time>2026-08-17T12:32:32.000Z</time><extensions/></trkpt><trkpt lat="59.408676624298096" lon="34.68385934829712"><time>2026-08-17T12:32:40.000Z</time><extensions/></trkpt><trkpt lat="59.408698081970215" lon="34.68379497528076"><time>2026-08-17T12:32:42.000Z</time><extensions/></trkpt><trkpt lat="59.408676624298096" lon="34.68379497528076"><time>2026-08-17T12:32:50.000Z</time><extensions/></trkpt><trkpt lat="59.40863370895386" lon="34.68377351760864"><time>2026-08-17T12:32:52.000Z</time><extensions/></trkpt><trkpt lat="59.40861225128174" lon="34.68375205993652"><time>2026-08-17T12:32:57.000Z</time><extensions/></trkpt><trkpt lat="59.4085693359375" lon="34.68375205993652"><time>2026-08-17T12:33:00.000Z</time><extensions/></trkpt><trkpt lat="59.40854787826538" lon="34.68375205993652"><time>2026-08-17T12:33:02.000Z</time><extensions/></trkpt><trkpt lat="59.40854787826538" lon="34.683730602264404"><time>2026-08-17T12:33:05.000Z</time><extensions/></trkpt><trkpt lat="59.40852642059326" lon="34.68364477157593"><time>2026-08-17T12:33:07.000Z</time><extensions/></trkpt><trkpt lat="59.40850496292114" lon="34.683687686920166"><time>2026-08-17T12:33:10.000Z</time><extensions/></trkpt><trkpt lat="59.40848350524902" lon="34.683730602264404"><time>2026-08-17T12:33:12.000Z</time><extensions/></trkpt><trkpt lat="59.408440589904785" lon="34.68379497528076"><time>2026-08-17T12:33:15.000Z</time><extensions/></trkpt><trkpt lat="59.408419132232666" lon="34.683837890625"><time>2026-08-17T12:33:17.000Z</time><extensions/></trkpt><trkpt lat="59.40848350524902" lon="34.683687686920166"><time>2026-08-17T12:33:20.000Z</time><extensions/></trkpt><trkpt lat="59.40848350524902" lon="34.68355894088745"><time>2026-08-17T12:33:22.000Z</time><extensions/></trkpt><trkpt lat="59.40852642059326" lon="34.68358039855957"><time>2026-08-17T12:33:35.000Z</time><extensions/></trkpt><trkpt lat="59.40854787826538" lon="34.68364477157593"><time>2026-08-17T12:34:05.000Z</time><extensions/></trkpt><trkpt lat="59.4085693359375" lon="34.68364477157593"><time>2026-08-17T12:34:17.000Z</time><extensions/></trkpt><trkpt lat="59.40854787826538" lon="34.68364477157593"><time>2026-08-17T12:34:47.000Z</time><extensions/></trkpt><trkpt lat="59.40848350524902" lon="34.68358039855957"><time>2026-08-17T12:34:50.000Z</time><extensions/></trkpt><trkpt lat="59.408419132232666" lon="34.683451652526855"><time>2026-08-17T12:34:55.000Z</time><extensions/></trkpt><trkpt lat="59.40835475921631" lon="34.68336582183838"><time>2026-08-17T12:34:57.000Z</time><extensions/></trkpt><trkpt lat="59.40826892852783" lon="34.683237075805664"><time>2026-08-17T12:35:05.000Z</time><extensions/></trkpt><trkpt lat="59.40826892852783" lon="34.683194160461426"><time>2026-08-17T12:35:15.000Z</time><extensions/></trkpt><trkpt lat="59.40835475921631" lon="34.6832799911499"><time>2026-08-17T12:35:20.000Z</time><extensions/></trkpt><trkpt lat="59.40829038619995" lon="34.683237075805664"><time>2026-08-17T12:35:25.000Z</time><extensions/></trkpt><trkpt lat="59.408204555511475" lon="34.68310832977295"><time>2026-08-17T12:35:27.000Z</time><extensions/></trkpt><trkpt lat="59.40814018249512" lon="34.68300104141235"><time>2026-08-17T12:35:30.000Z</time><extensions/></trkpt><trkpt lat="59.408118724823" lon="34.68302249908447"><time>2026-08-17T12:35:32.000Z</time><extensions/></trkpt><trkpt lat="59.40814018249512" lon="34.68302249908447"><time>2026-08-17T12:35:37.000Z</time><extensions/></trkpt><trkpt lat="59.408118724823" lon="34.68291521072388"><time>2026-08-17T12:35:40.000Z</time><extensions/></trkpt><trkpt lat="59.40805435180664" lon="34.68287229537964"><time>2026-08-17T12:35:42.000Z</time><extensions/></trkpt><trkpt lat="59.40805435180664" lon="34.68278646469116"><time>2026-08-17T12:35:52.000Z</time><extensions/></trkpt><trkpt lat="59.4080114364624" lon="34.682722091674805"><time>2026-08-17T12:35:57.000Z</time><extensions/></trkpt><trkpt lat="59.407968521118164" lon="34.68265771865845"><time>2026-08-17T12:36:00.000Z</time><extensions/></trkpt><trkpt lat="59.407925605773926" lon="34.68263626098633"><time>2026-08-17T12:36:02.000Z</time><extensions/></trkpt><trkpt lat="59.40788269042969" lon="34.68259334564209"><time>2026-08-17T12:36:07.000Z</time><extensions/></trkpt><trkpt lat="59.40788269042969" lon="34.68257188796997"><time>2026-08-17T12:36:10.000Z</time><extensions/></trkpt><trkpt lat="59.40783977508545" lon="34.682486057281494"><time>2026-08-17T12:36:27.000Z</time><extensions/></trkpt><trkpt lat="59.40779685974121" lon="34.68242168426514"><time>2026-08-17T12:36:30.000Z</time><extensions/></trkpt><trkpt lat="59.40775394439697" lon="34.68235731124878"><time>2026-08-17T12:36:32.000Z</time><extensions/></trkpt><trkpt lat="59.40773248672485" lon="34.68231439590454"><time>2026-08-17T12:36:35.000Z</time><extensions/></trkpt><trkpt lat="59.40758228302002" lon="34.68212127685547"><time>2026-08-17T12:36:57.000Z</time><extensions/></trkpt><trkpt lat="59.40764665603638" lon="34.682207107543945"><time>2026-08-17T12:37:00.000Z</time><extensions/></trkpt><trkpt lat="59.407711029052734" lon="34.68229293823242"><time>2026-08-17T12:37:02.000Z</time><extensions/></trkpt><trkpt lat="59.407689571380615" lon="34.682228565216064"><time>2026-08-17T12:37:15.000Z</time><extensions/></trkpt><trkpt lat="59.407711029052734" lon="34.682228565216064"><time>2026-08-17T12:37:30.000Z</time><extensions/></trkpt><trkpt lat="59.40773248672485" lon="34.68229293823242"><time>2026-08-17T12:37:32.000Z</time><extensions/></trkpt><trkpt lat="59.40779685974121" lon="34.68235731124878"><time>2026-08-17T12:37:35.000Z</time><extensions/></trkpt><trkpt lat="59.40777540206909" lon="34.68235731124878"><time>2026-08-17T12:37:37.000Z</time><extensions/></trkpt><trkpt lat="59.40775394439697" lon="34.6822714805603"><time>2026-08-17T12:37:40.000Z</time><extensions/></trkpt><trkpt lat="59.40775394439697" lon="34.68216419219971"><time>2026-08-17T12:37:42.000Z</time><extensions/></trkpt><trkpt lat="59.40775394439697" lon="34.682185649871826"><time>2026-08-17T12:37:52.000Z</time><extensions/></trkpt><trkpt lat="59.40775394439697" lon="34.682185649871826"><time>2026-08-17T12:38:02.000Z</time><extensions/></trkpt><trkpt lat="59.40775394439697" lon="34.6822714805603"><time>2026-08-17T12:38:32.000Z</time><extensions/></trkpt><trkpt lat="59.407711029052734" lon="34.682207107543945"><time>2026-08-17T12:39:00.000Z</time><extensions/></trkpt><trkpt lat="59.407711029052734" lon="34.682228565216064"><time>2026-08-17T12:39:30.000Z</time><extensions/></trkpt><trkpt lat="59.407711029052734" lon="34.682228565216064"><time>2026-08-17T12:40:00.000Z</time><extensions/></trkpt><trkpt lat="59.40764665603638" lon="34.68207836151123"><time>2026-08-17T12:40:25.000Z</time><extensions/></trkpt><trkpt lat="59.40760374069214" lon="34.68207836151123"><time>2026-08-17T12:40:27.000Z</time><extensions/></trkpt><trkpt lat="59.4075608253479" lon="34.681971073150635"><time>2026-08-17T12:40:30.000Z</time><extensions/></trkpt><trkpt lat="59.40751791000366" lon="34.68186378479004"><time>2026-08-17T12:40:32.000Z</time><extensions/></trkpt><trkpt lat="59.40751791000366" lon="34.68186378479004"><time>2026-08-17T12:40:35.000Z</time><extensions/></trkpt><trkpt lat="59.407432079315186" lon="34.68179941177368"><time>2026-08-17T12:40:37.000Z</time><extensions/></trkpt><trkpt lat="59.40734624862671" lon="34.68167066574097"><time>2026-08-17T12:40:40.000Z</time><extensions/></trkpt><trkpt lat="59.407196044921875" lon="34.6813702583313"><time>2026-08-17T12:40:50.000Z</time><extensions/></trkpt><trkpt lat="59.40706729888916" lon="34.68117713928223"><time>2026-08-17T12:40:55.000Z</time><extensions/></trkpt><trkpt lat="59.40702438354492" lon="34.68115568161011"><time>2026-08-17T12:40:57.000Z</time><extensions/></trkpt><trkpt lat="59.40704584121704" lon="34.68111276626587"><time>2026-08-17T12:41:00.000Z</time><extensions/></trkpt><trkpt lat="59.40708875656128" lon="34.68100547790527"><time>2026-08-17T12:41:02.000Z</time><extensions/></trkpt><trkpt lat="59.40713167190552" lon="34.68106985092163"><time>2026-08-17T12:41:05.000Z</time><extensions/></trkpt><trkpt lat="59.40713167190552" lon="34.681198596954346"><time>2026-08-17T12:41:07.000Z</time><extensions/></trkpt><trkpt lat="59.40704584121704" lon="34.681198596954346"><time>2026-08-17T12:41:10.000Z</time><extensions/></trkpt><trkpt lat="59.40702438354492" lon="34.6812629699707"><time>2026-08-17T12:41:12.000Z</time><extensions/></trkpt><trkpt lat="59.40708875656128" lon="34.68111276626587"><time>2026-08-17T12:41:15.000Z</time><extensions/></trkpt><trkpt lat="59.40708875656128" lon="34.680941104888916"><time>2026-08-17T12:41:17.000Z</time><extensions/></trkpt><trkpt lat="59.4071102142334" lon="34.68083381652832"><time>2026-08-17T12:41:20.000Z</time><extensions/></trkpt><trkpt lat="59.40715312957764" lon="34.68076944351196"><time>2026-08-17T12:41:22.000Z</time><extensions/></trkpt><trkpt lat="59.4071102142334" lon="34.68089818954468"><time>2026-08-17T12:41:30.000Z</time><extensions/></trkpt><trkpt lat="59.40708875656128" lon="34.680984020233154"><time>2026-08-17T12:41:32.000Z</time><extensions/></trkpt><trkpt lat="59.40706729888916" lon="34.68087673187256"><time>2026-08-17T12:41:35.000Z</time><extensions/></trkpt><trkpt lat="59.40706729888916" lon="34.68076944351196"><time>2026-08-17T12:41:37.000Z</time><extensions/></trkpt><trkpt lat="59.40706729888916" lon="34.680683612823486"><time>2026-08-17T12:41:40.000Z</time><extensions/></trkpt><trkpt lat="59.40704584121704" lon="34.68059778213501"><time>2026-08-17T12:41:42.000Z</time><extensions/></trkpt><trkpt lat="59.40706729888916" lon="34.680490493774414"><time>2026-08-17T12:41:45.000Z</time><extensions/></trkpt><trkpt lat="59.4071102142334" lon="34.68053340911865"><time>2026-08-17T12:41:50.000Z</time><extensions/></trkpt><trkpt lat="59.4071102142334" lon="34.68057632446289"><time>2026-08-17T12:41:52.000Z</time><extensions/></trkpt><trkpt lat="59.40704584121704" lon="34.68053340911865"><time>2026-08-17T12:42:02.000Z</time><extensions/></trkpt><trkpt lat="59.40704584121704" lon="34.68040466308594"><time>2026-08-17T12:42:05.000Z</time><extensions/></trkpt><trkpt lat="59.40702438354492" lon="34.68031883239746"><time>2026-08-17T12:42:07.000Z</time><extensions/></trkpt><trkpt lat="59.40702438354492" lon="34.680211544036865"><time>2026-08-17T12:42:10.000Z</time><extensions/></trkpt><trkpt lat="59.40702438354492" lon="34.68016862869263"><time>2026-08-17T12:42:32.000Z</time><extensions/></trkpt><trkpt lat="59.4070029258728" lon="34.679975509643555"><time>2026-08-17T12:42:35.000Z</time><extensions/></trkpt><trkpt lat="59.406981468200684" lon="34.67984676361084"><time>2026-08-17T12:42:37.000Z</time><extensions/></trkpt><trkpt lat="59.406981468200684" lon="34.679696559906006"><time>2026-08-17T12:42:40.000Z</time><extensions/></trkpt><trkpt lat="59.406960010528564" lon="34.67958927154541"><time>2026-08-17T12:42:42.000Z</time><extensions/></trkpt><trkpt lat="59.406981468200684" lon="34.679460525512695"><time>2026-08-17T12:42:50.000Z</time><extensions/></trkpt><trkpt lat="59.406960010528564" lon="34.679460525512695"><time>2026-08-17T12:43:07.000Z</time><extensions/></trkpt><trkpt lat="59.406960010528564" lon="34.67954635620117"><time>2026-08-17T12:43:10.000Z</time><extensions/></trkpt><trkpt lat="59.406917095184326" lon="34.67961072921753"><time>2026-08-17T12:43:12.000Z</time><extensions/></trkpt><trkpt lat="59.406917095184326" lon="34.67956781387329"><time>2026-08-17T12:43:15.000Z</time><extensions/></trkpt><trkpt lat="59.406917095184326" lon="34.67958927154541"><time>2026-08-17T12:43:17.000Z</time><extensions/></trkpt><trkpt lat="59.406938552856445" lon="34.67961072921753"><time>2026-08-17T12:43:20.000Z</time><extensions/></trkpt><trkpt lat="59.406917095184326" lon="34.67954635620117"><time>2026-08-17T12:43:25.000Z</time><extensions/></trkpt><trkpt lat="59.406960010528564" lon="34.679460525512695"><time>2026-08-17T12:43:32.000Z</time><extensions/></trkpt><trkpt lat="59.4070029258728" lon="34.67933177947998"><time>2026-08-17T12:43:35.000Z</time><extensions/></trkpt><trkpt lat="59.4070029258728" lon="34.679245948791504"><time>2026-08-17T12:43:37.000Z</time><extensions/></trkpt><trkpt lat="59.4070029258728" lon="34.679203033447266"><time>2026-08-17T12:43:40.000Z</time><extensions/></trkpt><trkpt lat="59.40702438354492" lon="34.67911720275879"><time>2026-08-17T12:43:42.000Z</time><extensions/></trkpt><trkpt lat="59.40702438354492" lon="34.67905282974243"><time>2026-08-17T12:43:45.000Z</time><extensions/></trkpt><trkpt lat="59.40706729888916" lon="34.67900991439819"><time>2026-08-17T12:43:47.000Z</time><extensions/></trkpt><trkpt lat="59.40704584121704" lon="34.678988456726074"><time>2026-08-17T12:44:00.000Z</time><extensions/></trkpt><trkpt lat="59.4070029258728" lon="34.67907428741455"><time>2026-08-17T12:44:20.000Z</time><extensions/></trkpt><trkpt lat="59.406960010528564" lon="34.67907428741455"><time>2026-08-17T12:44:22.000Z</time><extensions/></trkpt><trkpt lat="59.406938552856445" lon="34.67909574508667"><time>2026-08-17T12:44:25.000Z</time><extensions/></trkpt><trkpt lat="59.406938552856445" lon="34.67905282974243"><time>2026-08-17T12:44:27.000Z</time><extensions/></trkpt><trkpt lat="59.406917095184326" lon="34.678988456726074"><time>2026-08-17T12:44:30.000Z</time><extensions/></trkpt><trkpt lat="59.406938552856445" lon="34.678966999053955"><time>2026-08-17T12:44:32.000Z</time><extensions/></trkpt><trkpt lat="59.406981468200684" lon="34.678988456726074"><time>2026-08-17T12:44:40.000Z</time><extensions/></trkpt><trkpt lat="59.4070029258728" lon="34.67905282974243"><time>2026-08-17T12:44:42.000Z</time><extensions/></trkpt><trkpt lat="59.406981468200684" lon="34.67911720275879"><time>2026-08-17T12:45:12.000Z</time><extensions/></trkpt><trkpt lat="59.406981468200684" lon="34.67909574508667"><time>2026-08-17T12:45:42.000Z</time><extensions/></trkpt><trkpt lat="59.4070029258728" lon="34.67909574508667"><time>2026-08-17T12:46:12.000Z</time><extensions/></trkpt><trkpt lat="59.4070029258728" lon="34.67909574508667"><time>2026-08-17T12:46:42.000Z</time><extensions/></trkpt><trkpt lat="59.4070029258728" lon="34.67916011810303"><time>2026-08-17T12:47:02.000Z</time><extensions/></trkpt><trkpt lat="59.40702438354492" lon="34.679203033447266"><time>2026-08-17T12:47:05.000Z</time><extensions/></trkpt><trkpt lat="59.40704584121704" lon="34.679224491119385"><time>2026-08-17T12:47:07.000Z</time><extensions/></trkpt><trkpt lat="59.40706729888916" lon="34.67926740646362"><time>2026-08-17T12:47:10.000Z</time><extensions/></trkpt><trkpt lat="59.40702438354492" lon="34.679245948791504"><time>2026-08-17T12:47:12.000Z</time><extensions/></trkpt><trkpt lat="59.40704584121704" lon="34.679224491119385"><time>2026-08-17T12:47:42.000Z</time><extensions/></trkpt><trkpt lat="59.40702438354492" lon="34.67909574508667"><time>2026-08-17T12:47:50.000Z</time><extensions/></trkpt><trkpt lat="59.40704584121704" lon="34.67892408370972"><time>2026-08-17T12:47:52.000Z</time><extensions/></trkpt><trkpt lat="59.40706729888916" lon="34.67881679534912"><time>2026-08-17T12:47:55.000Z</time><extensions/></trkpt><trkpt lat="59.40708875656128" lon="34.678709506988525"><time>2026-08-17T12:47:57.000Z</time><extensions/></trkpt><trkpt lat="59.4071102142334" lon="34.678688049316406"><time>2026-08-17T12:48:00.000Z</time><extensions/></trkpt><trkpt lat="59.40713167190552" lon="34.67864513397217"><time>2026-08-17T12:48:02.000Z</time><extensions/></trkpt><trkpt lat="59.407196044921875" lon="34.67858076095581"><time>2026-08-17T12:48:10.000Z</time><extensions/></trkpt><trkpt lat="59.407217502593994" lon="34.67851638793945"><time>2026-08-17T12:48:12.000Z</time><extensions/></trkpt><trkpt lat="59.40726041793823" lon="34.678452014923096"><time>2026-08-17T12:48:15.000Z</time><extensions/></trkpt><trkpt lat="59.40726041793823" lon="34.67840909957886"><time>2026-08-17T12:48:17.000Z</time><extensions/></trkpt><trkpt lat="59.40726041793823" lon="34.67838764190674"><time>2026-08-17T12:48:25.000Z</time><extensions/></trkpt><trkpt lat="59.40734624862671" lon="34.678194522857666"><time>2026-08-17T12:48:35.000Z</time><extensions/></trkpt><trkpt lat="59.40736770629883" lon="34.67828035354614"><time>2026-08-17T12:48:37.000Z</time><extensions/></trkpt><trkpt lat="59.40738916397095" lon="34.67825889587402"><time>2026-08-17T12:48:40.000Z</time><extensions/></trkpt><trkpt lat="59.407410621643066" lon="34.678237438201904"><time>2026-08-17T12:48:42.000Z</time><extensions/></trkpt><trkpt lat="59.40738916397095" lon="34.678237438201904"><time>2026-08-17T12:48:45.000Z</time><extensions/></trkpt><trkpt lat="59.40730333328247" lon="34.67828035354614"><time>2026-08-17T12:48:47.000Z</time><extensions/></trkpt><trkpt lat="59.40732479095459" lon="34.678215980529785"><time>2026-08-17T12:48:52.000Z</time><extensions/></trkpt><trkpt lat="59.40736770629883" lon="34.67808723449707"><time>2026-08-17T12:48:55.000Z</time><extensions/></trkpt><trkpt lat="59.407410621643066" lon="34.67802286148071"><time>2026-08-17T12:48:57.000Z</time><extensions/></trkpt><trkpt lat="59.407453536987305" lon="34.67791557312012"><time>2026-08-17T12:49:05.000Z</time><extensions/></trkpt><trkpt lat="59.407453536987305" lon="34.677743911743164"><time>2026-08-17T12:49:07.000Z</time><extensions/></trkpt><trkpt lat="59.407432079315186" lon="34.67761516571045"><time>2026-08-17T12:49:10.000Z</time><extensions/></trkpt><trkpt lat="59.407432079315186" lon="34.67750787734985"><time>2026-08-17T12:49:25.000Z</time><extensions/></trkpt><trkpt lat="59.407432079315186" lon="34.67755079269409"><time>2026-08-17T12:49:27.000Z</time><extensions/></trkpt><trkpt lat="59.407410621643066" lon="34.67740058898926"><time>2026-08-17T12:49:35.000Z</time><extensions/></trkpt><trkpt lat="59.40738916397095" lon="34.6773362159729"><time>2026-08-17T12:49:37.000Z</time><extensions/></trkpt><trkpt lat="59.407410621643066" lon="34.67727184295654"><time>2026-08-17T12:49:42.000Z</time><extensions/></trkpt><trkpt lat="59.407410621643066" lon="34.67742204666138"><time>2026-08-17T12:49:55.000Z</time><extensions/></trkpt><trkpt lat="59.40738916397095" lon="34.67737913131714"><time>2026-08-17T12:50:02.000Z</time><extensions/></trkpt><trkpt lat="59.40738916397095" lon="34.677250385284424"><time>2026-08-17T12:50:05.000Z</time><extensions/></trkpt><trkpt lat="59.40738916397095" lon="34.67716455459595"><time>2026-08-17T12:50:07.000Z</time><extensions/></trkpt><trkpt lat="59.40732479095459" lon="34.6767783164978"><time>2026-08-17T12:50:20.000Z</time><extensions/></trkpt><trkpt lat="59.40734624862671" lon="34.676713943481445"><time>2026-08-17T12:50:22.000Z</time><extensions/></trkpt><trkpt lat="59.40734624862671" lon="34.676713943481445"><time>2026-08-17T12:50:30.000Z</time><extensions/></trkpt><trkpt lat="59.40732479095459" lon="34.67667102813721"><time>2026-08-17T12:50:32.000Z</time><extensions/></trkpt><trkpt lat="59.40734624862671" lon="34.676756858825684"><time>2026-08-17T12:50:37.000Z</time><extensions/></trkpt><trkpt lat="59.40732479095459" lon="34.67682123184204"><time>2026-08-17T12:50:45.000Z</time><extensions/></trkpt><trkpt lat="59.40728187561035" lon="34.6767783164978"><time>2026-08-17T12:50:50.000Z</time><extensions/></trkpt><trkpt lat="59.40726041793823" lon="34.676713943481445"><time>2026-08-17T12:50:52.000Z</time><extensions/></trkpt><trkpt lat="59.40723896026611" lon="34.67662811279297"><time>2026-08-17T12:50:55.000Z</time><extensions/></trkpt><trkpt lat="59.40723896026611" lon="34.67656373977661"><time>2026-08-17T12:50:57.000Z</time><extensions/></trkpt><trkpt lat="59.407217502593994" lon="34.67652082443237"><time>2026-08-17T12:51:00.000Z</time><extensions/></trkpt><trkpt lat="59.407196044921875" lon="34.676477909088135"><time>2026-08-17T12:51:02.000Z</time><extensions/></trkpt><trkpt lat="59.407174587249756" lon="34.676456451416016"><time>2026-08-17T12:51:05.000Z</time><extensions/></trkpt><trkpt lat="59.40715312957764" lon="34.67641353607178"><time>2026-08-17T12:51:07.000Z</time><extensions/></trkpt><trkpt lat="59.407196044921875" lon="34.6764349937439"><time>2026-08-17T12:51:10.000Z</time><extensions/></trkpt><trkpt lat="59.40715312957764" lon="34.67639207839966"><time>2026-08-17T12:51:22.000Z</time><extensions/></trkpt><trkpt lat="59.40706729888916" lon="34.67626333236694"><time>2026-08-17T12:51:25.000Z</time><extensions/></trkpt><trkpt lat="59.4070029258728" lon="34.67617750167847"><time>2026-08-17T12:51:27.000Z</time><extensions/></trkpt><trkpt lat="59.406960010528564" lon="34.67613458633423"><time>2026-08-17T12:51:30.000Z</time><extensions/></trkpt><trkpt lat="59.406917095184326" lon="34.676005840301514"><time>2026-08-17T12:51:40.000Z</time><extensions/></trkpt><trkpt lat="59.40685272216797" lon="34.675984382629395"><time>2026-08-17T12:51:42.000Z</time><extensions/></trkpt><trkpt lat="59.40676689147949" lon="34.67592000961304"><time>2026-08-17T12:52:00.000Z</time><extensions/></trkpt><trkpt lat="59.40683126449585" lon="34.675962924957275"><time>2026-08-17T12:52:02.000Z</time><extensions/></trkpt><trkpt lat="59.40689563751221" lon="34.67607021331787"><time>2026-08-17T12:52:05.000Z</time><extensions/></trkpt><trkpt lat="59.406917095184326" lon="34.67611312866211"><time>2026-08-17T12:52:07.000Z</time><extensions/></trkpt><trkpt lat="59.40687417984009" lon="34.67607021331787"><time>2026-08-17T12:52:15.000Z</time><extensions/></trkpt><trkpt lat="59.40680980682373" lon="34.67602729797363"><time>2026-08-17T12:52:17.000Z</time><extensions/></trkpt><trkpt lat="59.40674543380737" lon="34.67602729797363"><time>2026-08-17T12:52:20.000Z</time><extensions/></trkpt><trkpt lat="59.406723976135254" lon="34.676005840301514"><time>2026-08-17T12:52:22.000Z</time><extensions/></trkpt><trkpt lat="59.406702518463135" lon="34.675941467285156"><time>2026-08-17T12:52:25.000Z</time><extensions/></trkpt><trkpt lat="59.40659523010254" lon="34.675941467285156"><time>2026-08-17T12:52:35.000Z</time><extensions/></trkpt><trkpt lat="59.4065523147583" lon="34.675941467285156"><time>2026-08-17T12:52:37.000Z</time><extensions/></trkpt><trkpt lat="59.4065523147583" lon="34.675962924957275"><time>2026-08-17T12:52:52.000Z</time><extensions/></trkpt><trkpt lat="59.40650939941406" lon="34.675962924957275"><time>2026-08-17T12:52:55.000Z</time><extensions/></trkpt><trkpt lat="59.40648794174194" lon="34.676005840301514"><time>2026-08-17T12:52:57.000Z</time><extensions/></trkpt><trkpt lat="59.40627336502075" lon="34.67611312866211"><time>2026-08-17T12:53:30.000Z</time><extensions/></trkpt><trkpt lat="59.40627336502075" lon="34.67613458633423"><time>2026-08-17T12:54:00.000Z</time><extensions/></trkpt><trkpt lat="59.40627336502075" lon="34.67613458633423"><time>2026-08-17T12:54:02.000Z</time><extensions/></trkpt><trkpt lat="59.40627336502075" lon="34.67613458633423"><time>2026-08-17T12:54:32.000Z</time><extensions/></trkpt><trkpt lat="59.40629482269287" lon="34.676241874694824"><time>2026-08-17T12:54:42.000Z</time><extensions/></trkpt><trkpt lat="59.406230449676514" lon="34.676241874694824"><time>2026-08-17T12:54:45.000Z</time><extensions/></trkpt><trkpt lat="59.406208992004395" lon="34.676241874694824"><time>2026-08-17T12:54:47.000Z</time><extensions/></trkpt><trkpt lat="59.406230449676514" lon="34.676198959350586"><time>2026-08-17T12:54:50.000Z</time><extensions/></trkpt><trkpt lat="59.406187534332275" lon="34.67628479003906"><time>2026-08-17T12:54:57.000Z</time><extensions/></trkpt><trkpt lat="59.406166076660156" lon="34.6763277053833"><time>2026-08-17T12:55:00.000Z</time><extensions/></trkpt><trkpt lat="59.40612316131592" lon="34.6763277053833"><time>2026-08-17T12:55:02.000Z</time><extensions/></trkpt><trkpt lat="59.40608024597168" lon="34.67637062072754"><time>2026-08-17T12:55:05.000Z</time><extensions/></trkpt><trkpt lat="59.40603733062744" lon="34.67641353607178"><time>2026-08-17T12:55:07.000Z</time><extensions/></trkpt><trkpt lat="59.40603733062744" lon="34.67637062072754"><time>2026-08-17T12:55:12.000Z</time><extensions/></trkpt><trkpt lat="59.40608024597168" lon="34.67630624771118"><time>2026-08-17T12:55:15.000Z</time><extensions/></trkpt><trkpt lat="59.40612316131592" lon="34.67628479003906"><time>2026-08-17T12:55:17.000Z</time><extensions/></trkpt><trkpt lat="59.40605878829956" lon="34.67634916305542"><time>2026-08-17T12:55:35.000Z</time><extensions/></trkpt><trkpt lat="59.4059944152832" lon="34.67639207839966"><time>2026-08-17T12:55:37.000Z</time><extensions/></trkpt><trkpt lat="59.405951499938965" lon="34.6764349937439"><time>2026-08-17T12:55:40.000Z</time><extensions/></trkpt><trkpt lat="59.405930042266846" lon="34.676499366760254"><time>2026-08-17T12:55:42.000Z</time><extensions/></trkpt><trkpt lat="59.40588712692261" lon="34.67652082443237"><time>2026-08-17T12:55:45.000Z</time><extensions/></trkpt><trkpt lat="59.40584421157837" lon="34.676499366760254"><time>2026-08-17T12:55:47.000Z</time><extensions/></trkpt><trkpt lat="59.40582275390625" lon="34.6764349937439"><time>2026-08-17T12:55:50.000Z</time><extensions/></trkpt><trkpt lat="59.40580129623413" lon="34.676477909088135"><time>2026-08-17T12:55:52.000Z</time><extensions/></trkpt><trkpt lat="59.40573692321777" lon="34.676499366760254"><time>2026-08-17T12:55:55.000Z</time><extensions/></trkpt><trkpt lat="59.40580129623413" lon="34.67652082443237"><time>2026-08-17T12:56:00.000Z</time><extensions/></trkpt><trkpt lat="59.40573692321777" lon="34.67654228210449"><time>2026-08-17T12:56:05.000Z</time><extensions/></trkpt><trkpt lat="59.405672550201416" lon="34.67656373977661"><time>2026-08-17T12:56:10.000Z</time><extensions/></trkpt><trkpt lat="59.40562963485718" lon="34.67656373977661"><time>2026-08-17T12:56:12.000Z</time><extensions/></trkpt><trkpt lat="59.40560817718506" lon="34.67654228210449"><time>2026-08-17T12:56:15.000Z</time><extensions/></trkpt><trkpt lat="59.40558671951294" lon="34.67641353607178"><time>2026-08-17T12:56:22.000Z</time><extensions/></trkpt><trkpt lat="59.4055438041687" lon="34.67637062072754"><time>2026-08-17T12:56:25.000Z</time><extensions/></trkpt><trkpt lat="59.40552234649658" lon="34.67639207839966"><time>2026-08-17T12:56:27.000Z</time><extensions/></trkpt><trkpt lat="59.40550088882446" lon="34.6764349937439"><time>2026-08-17T12:56:47.000Z</time><extensions/></trkpt><trkpt lat="59.405457973480225" lon="34.67641353607178"><time>2026-08-17T12:56:50.000Z</time><extensions/></trkpt><trkpt lat="59.405436515808105" lon="34.67630624771118"><time>2026-08-17T12:57:12.000Z</time><extensions/></trkpt><trkpt lat="59.405436515808105" lon="34.676241874694824"><time>2026-08-17T12:57:22.000Z</time><extensions/></trkpt><trkpt lat="59.40539360046387" lon="34.676220417022705"><time>2026-08-17T12:57:25.000Z</time><extensions/></trkpt><trkpt lat="59.40537214279175" lon="34.676241874694824"><time>2026-08-17T12:57:27.000Z</time><extensions/></trkpt><trkpt lat="59.40528631210327" lon="34.67617750167847"><time>2026-08-17T12:57:30.000Z</time><extensions/></trkpt><trkpt lat="59.40526485443115" lon="34.67615604400635"><time>2026-08-17T12:57:32.000Z</time><extensions/></trkpt><trkpt lat="59.40507173538208" lon="34.675962924957275"><time>2026-08-17T12:57:45.000Z</time><extensions/></trkpt><trkpt lat="59.40502882003784" lon="34.67592000961304"><time>2026-08-17T12:57:47.000Z</time><extensions/></trkpt><trkpt lat="59.4049859046936" lon="34.6758770942688"><time>2026-08-17T12:57:50.000Z</time><extensions/></trkpt><trkpt lat="59.404942989349365" lon="34.67583417892456"><time>2026-08-17T12:57:52.000Z</time><extensions/></trkpt><trkpt lat="59.404964447021484" lon="34.67583417892456"><time>2026-08-17T12:57:55.000Z</time><extensions/></trkpt><trkpt lat="59.4049859046936" lon="34.67589855194092"><time>2026-08-17T12:57:57.000Z</time><extensions/></trkpt><trkpt lat="59.4050931930542" lon="34.676005840301514"><time>2026-08-17T12:58:00.000Z</time><extensions/></trkpt><trkpt lat="59.405179023742676" lon="34.67609167098999"><time>2026-08-17T12:58:02.000Z</time><extensions/></trkpt><trkpt lat="59.40524339675903" lon="34.67607021331787"><time>2026-08-17T12:58:12.000Z</time><extensions/></trkpt><trkpt lat="59.40528631210327" lon="34.67609167098999"><time>2026-08-17T12:58:15.000Z</time><extensions/></trkpt><trkpt lat="59.40532922744751" lon="34.67613458633423"><time>2026-08-17T12:58:17.000Z</time><extensions/></trkpt><trkpt lat="59.405415058135986" lon="34.676198959350586"><time>2026-08-17T12:58:20.000Z</time><extensions/></trkpt><trkpt lat="59.405415058135986" lon="34.676220417022705"><time>2026-08-17T12:58:25.000Z</time><extensions/></trkpt><trkpt lat="59.40537214279175" lon="34.676220417022705"><time>2026-08-17T12:58:30.000Z</time><extensions/></trkpt><trkpt lat="59.40526485443115" lon="34.67617750167847"><time>2026-08-17T12:58:32.000Z</time><extensions/></trkpt><trkpt lat="59.405200481414795" lon="34.67615604400635"><time>2026-08-17T12:58:35.000Z</time><extensions/></trkpt><trkpt lat="59.405179023742676" lon="34.67613458633423"><time>2026-08-17T12:58:50.000Z</time><extensions/></trkpt><trkpt lat="59.405200481414795" lon="34.67613458633423"><time>2026-08-17T12:59:20.000Z</time><extensions/></trkpt><trkpt lat="59.40511465072632" lon="34.67607021331787"><time>2026-08-17T12:59:27.000Z</time><extensions/></trkpt><trkpt lat="59.40487861633301" lon="34.676005840301514"><time>2026-08-17T12:59:35.000Z</time><extensions/></trkpt><trkpt lat="59.40487861633301" lon="34.675941467285156"><time>2026-08-17T12:59:37.000Z</time><extensions/></trkpt><trkpt lat="59.40487861633301" lon="34.6758770942688"><time>2026-08-17T12:59:42.000Z</time><extensions/></trkpt><trkpt lat="59.40485715866089" lon="34.67581272125244"><time>2026-08-17T12:59:45.000Z</time><extensions/></trkpt><trkpt lat="59.40483570098877" lon="34.675726890563965"><time>2026-08-17T12:59:47.000Z</time><extensions/></trkpt><trkpt lat="59.40481424331665" lon="34.67564105987549"><time>2026-08-17T12:59:50.000Z</time><extensions/></trkpt><trkpt lat="59.40477132797241" lon="34.67559814453125"><time>2026-08-17T12:59:55.000Z</time><extensions/></trkpt><trkpt lat="59.40477132797241" lon="34.67551231384277"><time>2026-08-17T12:59:57.000Z</time><extensions/></trkpt><trkpt lat="59.40481424331665" lon="34.67561960220337"><time>2026-08-17T13:00:00.000Z</time><extensions/></trkpt><trkpt lat="59.40485715866089" lon="34.6757698059082"><time>2026-08-17T13:00:02.000Z</time><extensions/></trkpt><trkpt lat="59.40487861633301" lon="34.67579126358032"><time>2026-08-17T13:00:05.000Z</time><extensions/></trkpt><trkpt lat="59.40487861633301" lon="34.675748348236084"><time>2026-08-17T13:00:10.000Z</time><extensions/></trkpt><trkpt lat="59.40490007400513" lon="34.675705432891846"><time>2026-08-17T13:00:12.000Z</time><extensions/></trkpt><trkpt lat="59.40483570098877" lon="34.675705432891846"><time>2026-08-17T13:00:15.000Z</time><extensions/></trkpt><trkpt lat="59.40477132797241" lon="34.67551231384277"><time>2026-08-17T13:00:17.000Z</time><extensions/></trkpt><trkpt lat="59.404728412628174" lon="34.67534065246582"><time>2026-08-17T13:00:20.000Z</time><extensions/></trkpt><trkpt lat="59.404685497283936" lon="34.67506170272827"><time>2026-08-17T13:00:50.000Z</time><extensions/></trkpt><trkpt lat="59.404706954956055" lon="34.67501878738403"><time>2026-08-17T13:01:05.000Z</time><extensions/></trkpt><trkpt lat="59.404728412628174" lon="34.67516899108887"><time>2026-08-17T13:01:10.000Z</time><extensions/></trkpt><trkpt lat="59.404685497283936" lon="34.67501878738403"><time>2026-08-17T13:01:15.000Z</time><extensions/></trkpt><trkpt lat="59.404664039611816" lon="34.6748685836792"><time>2026-08-17T13:01:17.000Z</time><extensions/></trkpt><trkpt lat="59.4046425819397" lon="34.674718379974365"><time>2026-08-17T13:01:20.000Z</time><extensions/></trkpt><trkpt lat="59.404664039611816" lon="34.674696922302246"><time>2026-08-17T13:01:22.000Z</time><extensions/></trkpt><trkpt lat="59.404685497283936" lon="34.67482566833496"><time>2026-08-17T13:01:27.000Z</time><extensions/></trkpt><trkpt lat="59.404706954956055" lon="34.67484712600708"><time>2026-08-17T13:01:30.000Z</time><extensions/></trkpt><trkpt lat="59.404664039611816" lon="34.674718379974365"><time>2026-08-17T13:01:32.000Z</time><extensions/></trkpt><trkpt lat="59.40459966659546" lon="34.67461109161377"><time>2026-08-17T13:01:35.000Z</time><extensions/></trkpt><trkpt lat="59.40457820892334" lon="34.674503803253174"><time>2026-08-17T13:01:37.000Z</time><extensions/></trkpt><trkpt lat="59.40455675125122" lon="34.6744179725647"><time>2026-08-17T13:01:40.000Z</time><extensions/></trkpt><trkpt lat="59.4045352935791" lon="34.67433214187622"><time>2026-08-17T13:01:47.000Z</time><extensions/></trkpt><trkpt lat="59.40451383590698" lon="34.67428922653198"><time>2026-08-17T13:01:50.000Z</time><extensions/></trkpt><trkpt lat="59.40449237823486" lon="34.67433214187622"><time>2026-08-17T13:01:52.000Z</time><extensions/></trkpt><trkpt lat="59.40449237823486" lon="34.67439651489258"><time>2026-08-17T13:01:55.000Z</time><extensions/></trkpt><trkpt lat="59.4045352935791" lon="34.67439651489258"><time>2026-08-17T13:01:57.000Z</time><extensions/></trkpt><trkpt lat="59.40455675125122" lon="34.6743106842041"><time>2026-08-17T13:02:00.000Z</time><extensions/></trkpt><trkpt lat="59.40455675125122" lon="34.674224853515625"><time>2026-08-17T13:02:02.000Z</time><extensions/></trkpt><trkpt lat="59.4045352935791" lon="34.67418193817139"><time>2026-08-17T13:02:05.000Z</time><extensions/></trkpt><trkpt lat="59.40451383590698" lon="34.67409610748291"><time>2026-08-17T13:02:07.000Z</time><extensions/></trkpt><trkpt lat="59.4045352935791" lon="34.67403173446655"><time>2026-08-17T13:02:10.000Z</time><extensions/></trkpt><trkpt lat="59.40455675125122" lon="34.67405319213867"><time>2026-08-17T13:02:12.000Z</time><extensions/></trkpt><trkpt lat="59.4045352935791" lon="34.67383861541748"><time>2026-08-17T13:02:17.000Z</time><extensions/></trkpt><trkpt lat="59.40451383590698" lon="34.673752784729004"><time>2026-08-17T13:02:20.000Z</time><extensions/></trkpt><trkpt lat="59.4045352935791" lon="34.673709869384766"><time>2026-08-17T13:02:22.000Z</time><extensions/></trkpt><trkpt lat="59.4045352935791" lon="34.67364549636841"><time>2026-08-17T13:02:25.000Z</time><extensions/></trkpt><trkpt lat="59.4045352935791" lon="34.67358112335205"><time>2026-08-17T13:02:27.000Z</time><extensions/></trkpt><trkpt lat="59.404470920562744" lon="34.67353820800781"><time>2026-08-17T13:02:32.000Z</time><extensions/></trkpt><trkpt lat="59.404470920562744" lon="34.673495292663574"><time>2026-08-17T13:02:35.000Z</time><extensions/></trkpt><trkpt lat="59.404449462890625" lon="34.67355966567993"><time>2026-08-17T13:02:37.000Z</time><extensions/></trkpt><trkpt lat="59.404470920562744" lon="34.67368841171265"><time>2026-08-17T13:02:40.000Z</time><extensions/></trkpt><trkpt lat="59.40451383590698" lon="34.67383861541748"><time>2026-08-17T13:02:42.000Z</time><extensions/></trkpt><trkpt lat="59.404470920562744" lon="34.67381715774536"><time>2026-08-17T13:02:55.000Z</time><extensions/></trkpt><trkpt lat="59.404449462890625" lon="34.67381715774536"><time>2026-08-17T13:02:57.000Z</time><extensions/></trkpt><trkpt lat="59.40449237823486" lon="34.6738600730896"><time>2026-08-17T13:03:25.000Z</time><extensions/></trkpt><trkpt lat="59.40449237823486" lon="34.6738600730896"><time>2026-08-17T13:03:40.000Z</time><extensions/></trkpt><trkpt lat="59.40449237823486" lon="34.67379570007324"><time>2026-08-17T13:03:42.000Z</time><extensions/></trkpt><trkpt lat="59.404428005218506" lon="34.67368841171265"><time>2026-08-17T13:03:45.000Z</time><extensions/></trkpt><trkpt lat="59.40438508987427" lon="34.67358112335205"><time>2026-08-17T13:03:47.000Z</time><extensions/></trkpt><trkpt lat="59.40434217453003" lon="34.673495292663574"><time>2026-08-17T13:03:50.000Z</time><extensions/></trkpt><trkpt lat="59.40432071685791" lon="34.67351675033569"><time>2026-08-17T13:03:52.000Z</time><extensions/></trkpt><trkpt lat="59.40429925918579" lon="34.673495292663574"><time>2026-08-17T13:04:22.000Z</time><extensions/></trkpt><trkpt lat="59.40427780151367" lon="34.673473834991455"><time>2026-08-17T13:04:25.000Z</time><extensions/></trkpt><trkpt lat="59.404234886169434" lon="34.67338800430298"><time>2026-08-17T13:04:27.000Z</time><extensions/></trkpt><trkpt lat="59.404191970825195" lon="34.67332363128662"><time>2026-08-17T13:04:30.000Z</time><extensions/></trkpt><trkpt lat="59.404170513153076" lon="34.673259258270264"><time>2026-08-17T13:04:42.000Z</time><extensions/></trkpt><trkpt lat="59.4040846824646" lon="34.673194885253906"><time>2026-08-17T13:04:45.000Z</time><extensions/></trkpt><trkpt lat="59.40402030944824" lon="34.67308759689331"><time>2026-08-17T13:04:52.000Z</time><extensions/></trkpt><trkpt lat="59.40404176712036" lon="34.67304468154907"><time>2026-08-17T13:04:55.000Z</time><extensions/></trkpt><trkpt lat="59.40402030944824" lon="34.673001766204834"><time>2026-08-17T13:04:57.000Z</time><extensions/></trkpt><trkpt lat="59.403977394104004" lon="34.672980308532715"><time>2026-08-17T13:05:00.000Z</time><extensions/></trkpt><trkpt lat="59.403934478759766" lon="34.67293739318848"><time>2026-08-17T13:05:02.000Z</time><extensions/></trkpt><trkpt lat="59.40389156341553" lon="34.67293739318848"><time>2026-08-17T13:05:15.000Z</time><extensions/></trkpt><trkpt lat="59.40382719039917" lon="34.67291593551636"><time>2026-08-17T13:05:17.000Z</time><extensions/></trkpt><trkpt lat="59.40378427505493" lon="34.67287302017212"><time>2026-08-17T13:05:20.000Z</time><extensions/></trkpt><trkpt lat="59.40374135971069" lon="34.67280864715576"><time>2026-08-17T13:05:22.000Z</time><extensions/></trkpt><trkpt lat="59.40374135971069" lon="34.67278718948364"><time>2026-08-17T13:05:25.000Z</time><extensions/></trkpt><trkpt lat="59.40376281738281" lon="34.672744274139404"><time>2026-08-17T13:05:27.000Z</time><extensions/></trkpt><trkpt lat="59.403719902038574" lon="34.672744274139404"><time>2026-08-17T13:05:42.000Z</time><extensions/></trkpt><trkpt lat="59.403676986694336" lon="34.672722816467285"><time>2026-08-17T13:05:45.000Z</time><extensions/></trkpt><trkpt lat="59.40365552902222" lon="34.67263698577881"><time>2026-08-17T13:05:50.000Z</time><extensions/></trkpt><trkpt lat="59.4036340713501" lon="34.67259407043457"><time>2026-08-17T13:05:52.000Z</time><extensions/></trkpt><trkpt lat="59.40354824066162" lon="34.672486782073975"><time>2026-08-17T13:06:05.000Z</time><extensions/></trkpt><trkpt lat="59.4035267829895" lon="34.67252969741821"><time>2026-08-17T13:06:10.000Z</time><extensions/></trkpt><trkpt lat="59.40354824066162" lon="34.67257261276245"><time>2026-08-17T13:06:12.000Z</time><extensions/></trkpt><trkpt lat="59.40350532531738" lon="34.672508239746094"><time>2026-08-17T13:06:17.000Z</time><extensions/></trkpt><trkpt lat="59.403462409973145" lon="34.672443866729736"><time>2026-08-17T13:06:20.000Z</time><extensions/></trkpt><trkpt lat="59.40335512161255" lon="34.67218637466431"><time>2026-08-17T13:06:30.000Z</time><extensions/></trkpt><trkpt lat="59.40333366394043" lon="34.67214345932007"><time>2026-08-17T13:06:55.000Z</time><extensions/></trkpt><trkpt lat="59.40331220626831" lon="34.67205762863159"><time>2026-08-17T13:06:57.000Z</time><extensions/></trkpt><trkpt lat="59.40329074859619" lon="34.671993255615234"><time>2026-08-17T13:07:02.000Z</time><extensions/></trkpt><trkpt lat="59.40324783325195" lon="34.67192888259888"><time>2026-08-17T13:07:05.000Z</time><extensions/></trkpt><trkpt lat="59.403204917907715" lon="34.6718430519104"><time>2026-08-17T13:07:15.000Z</time><extensions/></trkpt><trkpt lat="59.403183460235596" lon="34.671735763549805"><time>2026-08-17T13:07:17.000Z</time><extensions/></trkpt><trkpt lat="59.40316200256348" lon="34.67162847518921"><time>2026-08-17T13:07:20.000Z</time><extensions/></trkpt><trkpt lat="59.40309762954712" lon="34.671456813812256"><time>2026-08-17T13:07:40.000Z</time><extensions/></trkpt><trkpt lat="59.40309762954712" lon="34.6712851524353"><time>2026-08-17T13:08:02.000Z</time><extensions/></trkpt><trkpt lat="59.403076171875" lon="34.67113494873047"><time>2026-08-17T13:08:05.000Z</time><extensions/></trkpt><trkpt lat="59.403076171875" lon="34.67102766036987"><time>2026-08-17T13:08:07.000Z</time><extensions/></trkpt><trkpt lat="59.403076171875" lon="34.6709418296814"><time>2026-08-17T13:08:12.000Z</time><extensions/></trkpt><trkpt lat="59.40305471420288" lon="34.67087745666504"><time>2026-08-17T13:08:15.000Z</time><extensions/></trkpt><trkpt lat="59.403076171875" lon="34.670963287353516"><time>2026-08-17T13:08:27.000Z</time><extensions/></trkpt><trkpt lat="59.40309762954712" lon="34.671220779418945"><time>2026-08-17T13:08:30.000Z</time><extensions/></trkpt><trkpt lat="59.40311908721924" lon="34.671263694763184"><time>2026-08-17T13:08:32.000Z</time><extensions/></trkpt><trkpt lat="59.40311908721924" lon="34.671263694763184"><time>2026-08-17T13:08:42.000Z</time><extensions/></trkpt><trkpt lat="59.40311908721924" lon="34.671263694763184"><time>2026-08-17T13:09:12.000Z</time><extensions/></trkpt><trkpt lat="59.40316200256348" lon="34.67132806777954"><time>2026-08-17T13:09:22.000Z</time><extensions/></trkpt><trkpt lat="59.40329074859619" lon="34.67141389846802"><time>2026-08-17T13:09:32.000Z</time><extensions/></trkpt><trkpt lat="59.40329074859619" lon="34.671478271484375"><time>2026-08-17T13:09:35.000Z</time><extensions/></trkpt><trkpt lat="59.40329074859619" lon="34.67152118682861"><time>2026-08-17T13:09:37.000Z</time><extensions/></trkpt><trkpt lat="59.40326929092407" lon="34.67134952545166"><time>2026-08-17T13:09:40.000Z</time><extensions/></trkpt><trkpt lat="59.40324783325195" lon="34.671199321746826"><time>2026-08-17T13:09:42.000Z</time><extensions/></trkpt><trkpt lat="59.40316200256348" lon="34.67081308364868"><time>2026-08-17T13:09:50.000Z</time><extensions/></trkpt><trkpt lat="59.403183460235596" lon="34.67079162597656"><time>2026-08-17T13:09:52.000Z</time><extensions/></trkpt><trkpt lat="59.40314054489136" lon="34.67081308364868"><time>2026-08-17T13:09:55.000Z</time><extensions/></trkpt><trkpt lat="59.40311908721924" lon="34.6708345413208"><time>2026-08-17T13:09:57.000Z</time><extensions/></trkpt><trkpt lat="59.40309762954712" lon="34.67079162597656"><time>2026-08-17T13:10:00.000Z</time><extensions/></trkpt><trkpt lat="59.403076171875" lon="34.670727252960205"><time>2026-08-17T13:10:02.000Z</time><extensions/></trkpt><trkpt lat="59.403076171875" lon="34.67064142227173"><time>2026-08-17T13:10:05.000Z</time><extensions/></trkpt><trkpt lat="59.403076171875" lon="34.67055559158325"><time>2026-08-17T13:10:07.000Z</time><extensions/></trkpt><trkpt lat="59.403076171875" lon="34.670491218566895"><time>2026-08-17T13:10:10.000Z</time><extensions/></trkpt><trkpt lat="59.40305471420288" lon="34.67040538787842"><time>2026-08-17T13:10:12.000Z</time><extensions/></trkpt><trkpt lat="59.40305471420288" lon="34.67031955718994"><time>2026-08-17T13:10:15.000Z</time><extensions/></trkpt><trkpt lat="59.40303325653076" lon="34.670233726501465"><time>2026-08-17T13:10:17.000Z</time><extensions/></trkpt><trkpt lat="59.40301179885864" lon="34.67014789581299"><time>2026-08-17T13:10:20.000Z</time><extensions/></trkpt><trkpt lat="59.40301179885864" lon="34.67004060745239"><time>2026-08-17T13:10:22.000Z</time><extensions/></trkpt><trkpt lat="59.402968883514404" lon="34.6699333190918"><time>2026-08-17T13:10:25.000Z</time><extensions/></trkpt><trkpt lat="59.402925968170166" lon="34.66984748840332"><time>2026-08-17T13:10:27.000Z</time><extensions/></trkpt><trkpt lat="59.402947425842285" lon="34.6698260307312"><time>2026-08-17T13:10:30.000Z</time><extensions/></trkpt><trkpt lat="59.40299034118652" lon="34.66989040374756"><time>2026-08-17T13:10:32.000Z</time><extensions/></trkpt><trkpt lat="59.40303325653076" lon="34.67004060745239"><time>2026-08-17T13:10:35.000Z</time><extensions/></trkpt><trkpt lat="59.40305471420288" lon="34.67016935348511"><time>2026-08-17T13:10:37.000Z</time><extensions/></trkpt><trkpt lat="59.40303325653076" lon="34.67010498046875"><time>2026-08-17T13:10:45.000Z</time><extensions/></trkpt><trkpt lat="59.40301179885864" lon="34.67001914978027"><time>2026-08-17T13:10:47.000Z</time><extensions/></trkpt><trkpt lat="59.40299034118652" lon="34.669976234436035"><time>2026-08-17T13:10:50.000Z</time><extensions/></trkpt><trkpt lat="59.402947425842285" lon="34.66991186141968"><time>2026-08-17T13:10:52.000Z</time><extensions/></trkpt><trkpt lat="59.40290451049805" lon="34.66980457305908"><time>2026-08-17T13:10:55.000Z</time><extensions/></trkpt><trkpt lat="59.402925968170166" lon="34.669740200042725"><time>2026-08-17T13:10:57.000Z</time><extensions/></trkpt><trkpt lat="59.402947425842285" lon="34.669697284698486"><time>2026-08-17T13:11:00.000Z</time><extensions/></trkpt><trkpt lat="59.402968883514404" lon="34.66963291168213"><time>2026-08-17T13:11:02.000Z</time><extensions/></trkpt><trkpt lat="59.402925968170166" lon="34.66963291168213"><time>2026-08-17T13:11:05.000Z</time><extensions/></trkpt><trkpt lat="59.40286159515381" lon="34.66967582702637"><time>2026-08-17T13:11:07.000Z</time><extensions/></trkpt><trkpt lat="59.40279722213745" lon="34.66965436935425"><time>2026-08-17T13:11:10.000Z</time><extensions/></trkpt><trkpt lat="59.402732849121094" lon="34.66965436935425"><time>2026-08-17T13:11:12.000Z</time><extensions/></trkpt><trkpt lat="59.402668476104736" lon="34.66956853866577"><time>2026-08-17T13:11:20.000Z</time><extensions/></trkpt><trkpt lat="59.40256118774414" lon="34.669461250305176"><time>2026-08-17T13:11:25.000Z</time><extensions/></trkpt><trkpt lat="59.40249681472778" lon="34.6693754196167"><time>2026-08-17T13:11:27.000Z</time><extensions/></trkpt><trkpt lat="59.40253973007202" lon="34.66941833496094"><time>2026-08-17T13:11:40.000Z</time><extensions/></trkpt><trkpt lat="59.40258264541626" lon="34.66943979263306"><time>2026-08-17T13:11:42.000Z</time><extensions/></trkpt><trkpt lat="59.4026255607605" lon="34.669504165649414"><time>2026-08-17T13:11:50.000Z</time><extensions/></trkpt><trkpt lat="59.4026255607605" lon="34.66954708099365"><time>2026-08-17T13:12:02.000Z</time><extensions/></trkpt><trkpt lat="59.40256118774414" lon="34.66958999633789"><time>2026-08-17T13:12:20.000Z</time><extensions/></trkpt><trkpt lat="59.40249681472778" lon="34.66954708099365"><time>2026-08-17T13:12:25.000Z</time><extensions/></trkpt><trkpt lat="59.40249681472778" lon="34.66958999633789"><time>2026-08-17T13:12:32.000Z</time><extensions/></trkpt><trkpt lat="59.40253973007202" lon="34.66952562332153"><time>2026-08-17T13:12:35.000Z</time><extensions/></trkpt><trkpt lat="59.40256118774414" lon="34.669461250305176"><time>2026-08-17T13:12:37.000Z</time><extensions/></trkpt><trkpt lat="59.402475357055664" lon="34.66935396194458"><time>2026-08-17T13:12:40.000Z</time><extensions/></trkpt><trkpt lat="59.40249681472778" lon="34.66931104660034"><time>2026-08-17T13:12:42.000Z</time><extensions/></trkpt><trkpt lat="59.40249681472778" lon="34.6692681312561"><time>2026-08-17T13:12:45.000Z</time><extensions/></trkpt><trkpt lat="59.40253973007202" lon="34.669203758239746"><time>2026-08-17T13:12:47.000Z</time><extensions/></trkpt><trkpt lat="59.40249681472778" lon="34.66916084289551"><time>2026-08-17T13:12:50.000Z</time><extensions/></trkpt><trkpt lat="59.402475357055664" lon="34.66911792755127"><time>2026-08-17T13:12:52.000Z</time><extensions/></trkpt><trkpt lat="59.40241098403931" lon="34.66907501220703"><time>2026-08-17T13:12:55.000Z</time><extensions/></trkpt><trkpt lat="59.40238952636719" lon="34.66913938522339"><time>2026-08-17T13:12:57.000Z</time><extensions/></trkpt><trkpt lat="59.40230369567871" lon="34.66907501220703"><time>2026-08-17T13:13:00.000Z</time><extensions/></trkpt><trkpt lat="59.40226078033447" lon="34.668989181518555"><time>2026-08-17T13:13:05.000Z</time><extensions/></trkpt><trkpt lat="59.402217864990234" lon="34.66890335083008"><time>2026-08-17T13:13:07.000Z</time><extensions/></trkpt><trkpt lat="59.402196407318115" lon="34.669010639190674"><time>2026-08-17T13:13:10.000Z</time><extensions/></trkpt><trkpt lat="59.402196407318115" lon="34.66913938522339"><time>2026-08-17T13:13:12.000Z</time><extensions/></trkpt><trkpt lat="59.40223932266235" lon="34.669203758239746"><time>2026-08-17T13:13:15.000Z</time><extensions/></trkpt><trkpt lat="59.40230369567871" lon="34.669225215911865"><time>2026-08-17T13:13:17.000Z</time><extensions/></trkpt><trkpt lat="59.40236806869507" lon="34.669225215911865"><time>2026-08-17T13:13:20.000Z</time><extensions/></trkpt><trkpt lat="59.402475357055664" lon="34.66935396194458"><time>2026-08-17T13:13:22.000Z</time><extensions/></trkpt><trkpt lat="59.40260410308838" lon="34.669482707977295"><time>2026-08-17T13:13:25.000Z</time><extensions/></trkpt><trkpt lat="59.40258264541626" lon="34.669461250305176"><time>2026-08-17T13:13:55.000Z</time><extensions/></trkpt><trkpt lat="59.40258264541626" lon="34.669461250305176"><time>2026-08-17T13:13:57.000Z</time><extensions/></trkpt><trkpt lat="59.40249681472778" lon="34.6693754196167"><time>2026-08-17T13:14:17.000Z</time><extensions/></trkpt><trkpt lat="59.402475357055664" lon="34.66933250427246"><time>2026-08-17T13:14:25.000Z</time><extensions/></trkpt><trkpt lat="59.40249681472778" lon="34.6693754196167"><time>2026-08-17T13:14:27.000Z</time><extensions/></trkpt><trkpt lat="59.40249681472778" lon="34.66935396194458"><time>2026-08-17T13:14:35.000Z</time><extensions/></trkpt><trkpt lat="59.40241098403931" lon="34.66928958892822"><time>2026-08-17T13:14:37.000Z</time><extensions/></trkpt><trkpt lat="59.40228223800659" lon="34.66909646987915"><time>2026-08-17T13:15:02.000Z</time><extensions/></trkpt><trkpt lat="59.40232515335083" lon="34.66918230056763"><time>2026-08-17T13:15:07.000Z</time><extensions/></trkpt><trkpt lat="59.40230369567871" lon="34.66913938522339"><time>2026-08-17T13:15:10.000Z</time><extensions/></trkpt><trkpt lat="59.40223932266235" lon="34.66905355453491"><time>2026-08-17T13:15:12.000Z</time><extensions/></trkpt><trkpt lat="59.402174949645996" lon="34.6689248085022"><time>2026-08-17T13:15:25.000Z</time><extensions/></trkpt><trkpt lat="59.40213203430176" lon="34.66886043548584"><time>2026-08-17T13:15:27.000Z</time><extensions/></trkpt><trkpt lat="59.40211057662964" lon="34.6688175201416"><time>2026-08-17T13:15:30.000Z</time><extensions/></trkpt><trkpt lat="59.4020676612854" lon="34.66877460479736"><time>2026-08-17T13:15:32.000Z</time><extensions/></trkpt><trkpt lat="59.40204620361328" lon="34.66864585876465"><time>2026-08-17T13:15:47.000Z</time><extensions/></trkpt><trkpt lat="59.40211057662964" lon="34.668753147125244"><time>2026-08-17T13:15:55.000Z</time><extensions/></trkpt><trkpt lat="59.40215349197388" lon="34.66883897781372"><time>2026-08-17T13:15:57.000Z</time><extensions/></trkpt><trkpt lat="59.40215349197388" lon="34.66877460479736"><time>2026-08-17T13:16:02.000Z</time><extensions/></trkpt><trkpt lat="59.40213203430176" lon="34.668731689453125"><time>2026-08-17T13:16:05.000Z</time><extensions/></trkpt><trkpt lat="59.40208911895752" lon="34.66868877410889"><time>2026-08-17T13:16:07.000Z</time><extensions/></trkpt><trkpt lat="59.4020676612854" lon="34.66864585876465"><time>2026-08-17T13:16:10.000Z</time><extensions/></trkpt><trkpt lat="59.40202474594116" lon="34.66862440109253"><time>2026-08-17T13:16:12.000Z</time><extensions/></trkpt><trkpt lat="59.401960372924805" lon="34.66858148574829"><time>2026-08-17T13:16:27.000Z</time><extensions/></trkpt><trkpt lat="59.401938915252686" lon="34.66853857040405"><time>2026-08-17T13:16:50.000Z</time><extensions/></trkpt><trkpt lat="59.40183162689209" lon="34.66853857040405"><time>2026-08-17T13:16:55.000Z</time><extensions/></trkpt><trkpt lat="59.40178871154785" lon="34.66856002807617"><time>2026-08-17T13:16:57.000Z</time><extensions/></trkpt><trkpt lat="59.40174579620361" lon="34.66862440109253"><time>2026-08-17T13:17:00.000Z</time><extensions/></trkpt><trkpt lat="59.401702880859375" lon="34.66860294342041"><time>2026-08-17T13:17:02.000Z</time><extensions/></trkpt><trkpt lat="59.40174579620361" lon="34.66843128204346"><time>2026-08-17T13:17:07.000Z</time><extensions/></trkpt><trkpt lat="59.40176725387573" lon="34.668474197387695"><time>2026-08-17T13:17:10.000Z</time><extensions/></trkpt><trkpt lat="59.401724338531494" lon="34.668452739715576"><time>2026-08-17T13:17:22.000Z</time><extensions/></trkpt><trkpt lat="59.401724338531494" lon="34.668474197387695"><time>2026-08-17T13:17:37.000Z</time><extensions/></trkpt><trkpt lat="59.401724338531494" lon="34.668495655059814"><time>2026-08-17T13:17:57.000Z</time><extensions/></trkpt><trkpt lat="59.401724338531494" lon="34.668474197387695"><time>2026-08-17T13:18:25.000Z</time><extensions/></trkpt><trkpt lat="59.4016170501709" lon="34.66832399368286"><time>2026-08-17T13:18:30.000Z</time><extensions/></trkpt><trkpt lat="59.40157413482666" lon="34.668259620666504"><time>2026-08-17T13:18:32.000Z</time><extensions/></trkpt><trkpt lat="59.40155267715454" lon="34.668216705322266"><time>2026-08-17T13:18:35.000Z</time><extensions/></trkpt><trkpt lat="59.40155267715454" lon="34.66813087463379"><time>2026-08-17T13:18:45.000Z</time><extensions/></trkpt><trkpt lat="59.4015097618103" lon="34.66806650161743"><time>2026-08-17T13:18:47.000Z</time><extensions/></trkpt><trkpt lat="59.401488304138184" lon="34.668002128601074"><time>2026-08-17T13:18:50.000Z</time><extensions/></trkpt><trkpt lat="59.401445388793945" lon="34.667980670928955"><time>2026-08-17T13:18:57.000Z</time><extensions/></trkpt><trkpt lat="59.401466846466064" lon="34.66810941696167"><time>2026-08-17T13:19:15.000Z</time><extensions/></trkpt><trkpt lat="59.401466846466064" lon="34.66804504394531"><time>2026-08-17T13:19:30.000Z</time><extensions/></trkpt><trkpt lat="59.401445388793945" lon="34.66793775558472"><time>2026-08-17T13:19:32.000Z</time><extensions/></trkpt><trkpt lat="59.40140247344971" lon="34.667809009552"><time>2026-08-17T13:19:35.000Z</time><extensions/></trkpt><trkpt lat="59.40133810043335" lon="34.66753005981445"><time>2026-08-17T13:19:45.000Z</time><extensions/></trkpt><trkpt lat="59.40131664276123" lon="34.66744422912598"><time>2026-08-17T13:19:47.000Z</time><extensions/></trkpt><trkpt lat="59.40131664276123" lon="34.6673583984375"><time>2026-08-17T13:19:50.000Z</time><extensions/></trkpt><trkpt lat="59.40127372741699" lon="34.66733694076538"><time>2026-08-17T13:19:52.000Z</time><extensions/></trkpt><trkpt lat="59.40129518508911" lon="34.6673583984375"><time>2026-08-17T13:20:00.000Z</time><extensions/></trkpt><trkpt lat="59.40127372741699" lon="34.66729402542114"><time>2026-08-17T13:20:02.000Z</time><extensions/></trkpt><trkpt lat="59.40127372741699" lon="34.66718673706055"><time>2026-08-17T13:20:05.000Z</time><extensions/></trkpt><trkpt lat="59.401209354400635" lon="34.66714382171631"><time>2026-08-17T13:20:35.000Z</time><extensions/></trkpt><trkpt lat="59.401209354400635" lon="34.66705799102783"><time>2026-08-17T13:20:37.000Z</time><extensions/></trkpt><trkpt lat="59.401187896728516" lon="34.666972160339355"><time>2026-08-17T13:20:40.000Z</time><extensions/></trkpt><trkpt lat="59.401187896728516" lon="34.66688632965088"><time>2026-08-17T13:20:42.000Z</time><extensions/></trkpt><trkpt lat="59.401187896728516" lon="34.666950702667236"><time>2026-08-17T13:20:47.000Z</time><extensions/></trkpt><trkpt lat="59.401187896728516" lon="34.666907787323"><time>2026-08-17T13:21:00.000Z</time><extensions/></trkpt><trkpt lat="59.40114498138428" lon="34.66677904129028"><time>2026-08-17T13:21:02.000Z</time><extensions/></trkpt><trkpt lat="59.40112352371216" lon="34.666736125946045"><time>2026-08-17T13:21:05.000Z</time><extensions/></trkpt><trkpt lat="59.40114498138428" lon="34.666714668273926"><time>2026-08-17T13:21:07.000Z</time><extensions/></trkpt><trkpt lat="59.40112352371216" lon="34.66667175292969"><time>2026-08-17T13:21:10.000Z</time><extensions/></trkpt><trkpt lat="59.40110206604004" lon="34.66658592224121"><time>2026-08-17T13:21:15.000Z</time><extensions/></trkpt><trkpt lat="59.40110206604004" lon="34.666500091552734"><time>2026-08-17T13:21:17.000Z</time><extensions/></trkpt><trkpt lat="59.40103769302368" lon="34.66628551483154"><time>2026-08-17T13:21:30.000Z</time><extensions/></trkpt><trkpt lat="59.40101623535156" lon="34.66617822647095"><time>2026-08-17T13:21:32.000Z</time><extensions/></trkpt><trkpt lat="59.40101623535156" lon="34.66617822647095"><time>2026-08-17T13:22:00.000Z</time><extensions/></trkpt><trkpt lat="59.40103769302368" lon="34.666242599487305"><time>2026-08-17T13:22:02.000Z</time><extensions/></trkpt><trkpt lat="59.4010591506958" lon="34.66615676879883"><time>2026-08-17T13:22:20.000Z</time><extensions/></trkpt><trkpt lat="59.4010591506958" lon="34.666221141815186"><time>2026-08-17T13:22:32.000Z</time><extensions/></trkpt><trkpt lat="59.4010591506958" lon="34.666242599487305"><time>2026-08-17T13:23:02.000Z</time><extensions/></trkpt><trkpt lat="59.4010591506958" lon="34.666242599487305"><time>2026-08-17T13:23:32.000Z</time><extensions/></trkpt><trkpt lat="59.4010591506958" lon="34.66615676879883"><time>2026-08-17T13:23:47.000Z</time><extensions/></trkpt><trkpt lat="59.40101623535156" lon="34.665985107421875"><time>2026-08-17T13:24:10.000Z</time><extensions/></trkpt><trkpt lat="59.40099477767944" lon="34.66592073440552"><time>2026-08-17T13:24:12.000Z</time><extensions/></trkpt><trkpt lat="59.400951862335205" lon="34.665770530700684"><time>2026-08-17T13:24:37.000Z</time><extensions/></trkpt><trkpt lat="59.40088748931885" lon="34.66559886932373"><time>2026-08-17T13:24:40.000Z</time><extensions/></trkpt><trkpt lat="59.40084457397461" lon="34.665513038635254"><time>2026-08-17T13:24:42.000Z</time><extensions/></trkpt><trkpt lat="59.40078020095825" lon="34.66540575027466"><time>2026-08-17T13:24:50.000Z</time><extensions/></trkpt><trkpt lat="59.400715827941895" lon="34.66516971588135"><time>2026-08-17T13:25:05.000Z</time><extensions/></trkpt><trkpt lat="59.40075874328613" lon="34.66529846191406"><time>2026-08-17T13:25:10.000Z</time><extensions/></trkpt><trkpt lat="59.40082311630249" lon="34.665470123291016"><time>2026-08-17T13:25:12.000Z</time><extensions/></trkpt><trkpt lat="59.40086603164673" lon="34.665491580963135"><time>2026-08-17T13:25:15.000Z</time><extensions/></trkpt><trkpt lat="59.40084457397461" lon="34.665470123291016"><time>2026-08-17T13:25:20.000Z</time><extensions/></trkpt><trkpt lat="59.40082311630249" lon="34.66542720794678"><time>2026-08-17T13:25:22.000Z</time><extensions/></trkpt><trkpt lat="59.40080165863037" lon="34.6653413772583"><time>2026-08-17T13:25:47.000Z</time><extensions/></trkpt><trkpt lat="59.40078020095825" lon="34.665255546569824"><time>2026-08-17T13:25:50.000Z</time><extensions/></trkpt><trkpt lat="59.40075874328613" lon="34.665234088897705"><time>2026-08-17T13:25:52.000Z</time><extensions/></trkpt><trkpt lat="59.400737285614014" lon="34.66516971588135"><time>2026-08-17T13:25:55.000Z</time><extensions/></trkpt><trkpt lat="59.4006085395813" lon="34.66484785079956"><time>2026-08-17T13:26:12.000Z</time><extensions/></trkpt><trkpt lat="59.40062999725342" lon="34.66480493545532"><time>2026-08-17T13:26:20.000Z</time><extensions/></trkpt><trkpt lat="59.40062999725342" lon="34.66482639312744"><time>2026-08-17T13:26:25.000Z</time><extensions/></trkpt><trkpt lat="59.40062999725342" lon="34.6648907661438"><time>2026-08-17T13:26:27.000Z</time><extensions/></trkpt><trkpt lat="59.40065145492554" lon="34.665019512176514"><time>2026-08-17T13:26:30.000Z</time><extensions/></trkpt><trkpt lat="59.40065145492554" lon="34.665019512176514"><time>2026-08-17T13:26:35.000Z</time><extensions/></trkpt><trkpt lat="59.40062999725342" lon="34.664955139160156"><time>2026-08-17T13:26:37.000Z</time><extensions/></trkpt><trkpt lat="59.40058708190918" lon="34.66486930847168"><time>2026-08-17T13:26:40.000Z</time><extensions/></trkpt><trkpt lat="59.40056562423706" lon="34.66484785079956"><time>2026-08-17T13:26:42.000Z</time><extensions/></trkpt><trkpt lat="59.40056562423706" lon="34.664719104766846"><time>2026-08-17T13:26:57.000Z</time><extensions/></trkpt><trkpt lat="59.40056562423706" lon="34.66465473175049"><time>2026-08-17T13:27:00.000Z</time><extensions/></trkpt><trkpt lat="59.40054416656494" lon="34.66465473175049"><time>2026-08-17T13:27:05.000Z</time><extensions/></trkpt><trkpt lat="59.40054416656494" lon="34.664719104766846"><time>2026-08-17T13:27:10.000Z</time><extensions/></trkpt><trkpt lat="59.40054416656494" lon="34.66465473175049"><time>2026-08-17T13:27:15.000Z</time><extensions/></trkpt><trkpt lat="59.40054416656494" lon="34.66454744338989"><time>2026-08-17T13:27:17.000Z</time><extensions/></trkpt><trkpt lat="59.40056562423706" lon="34.664483070373535"><time>2026-08-17T13:27:20.000Z</time><extensions/></trkpt><trkpt lat="59.40056562423706" lon="34.66439723968506"><time>2026-08-17T13:27:22.000Z</time><extensions/></trkpt><trkpt lat="59.40056562423706" lon="34.66431140899658"><time>2026-08-17T13:27:25.000Z</time><extensions/></trkpt><trkpt lat="59.40056562423706" lon="34.664225578308105"><time>2026-08-17T13:27:27.000Z</time><extensions/></trkpt><trkpt lat="59.40054416656494" lon="34.66413974761963"><time>2026-08-17T13:27:30.000Z</time><extensions/></trkpt><trkpt lat="59.40056562423706" lon="34.66405391693115"><time>2026-08-17T13:27:32.000Z</time><extensions/></trkpt><trkpt lat="59.40058708190918" lon="34.66405391693115"><time>2026-08-17T13:27:35.000Z</time><extensions/></trkpt><trkpt lat="59.40058708190918" lon="34.66409683227539"><time>2026-08-17T13:27:37.000Z</time><extensions/></trkpt><trkpt lat="59.40058708190918" lon="34.66413974761963"><time>2026-08-17T13:27:40.000Z</time><extensions/></trkpt><trkpt lat="59.40056562423706" lon="34.66416120529175"><time>2026-08-17T13:27:42.000Z</time><extensions/></trkpt><trkpt lat="59.40052270889282" lon="34.664268493652344"><time>2026-08-17T13:27:45.000Z</time><extensions/></trkpt><trkpt lat="59.40052270889282" lon="34.6643328666687"><time>2026-08-17T13:27:47.000Z</time><extensions/></trkpt><trkpt lat="59.40052270889282" lon="34.66431140899658"><time>2026-08-17T13:27:55.000Z</time><extensions/></trkpt><trkpt lat="59.4005012512207" lon="34.66437578201294"><time>2026-08-17T13:28:25.000Z</time><extensions/></trkpt><trkpt lat="59.40052270889282" lon="34.66437578201294"><time>2026-08-17T13:28:37.000Z</time><extensions/></trkpt><trkpt lat="59.40052270889282" lon="34.66435432434082"><time>2026-08-17T13:28:40.000Z</time><extensions/></trkpt><trkpt lat="59.4005012512207" lon="34.66439723968506"><time>2026-08-17T13:29:10.000Z</time><extensions/></trkpt><trkpt lat="59.4005012512207" lon="34.66435432434082"><time>2026-08-17T13:29:17.000Z</time><extensions/></trkpt><trkpt lat="59.40054416656494" lon="34.664247035980225"><time>2026-08-17T13:29:20.000Z</time><extensions/></trkpt><trkpt lat="59.40058708190918" lon="34.66413974761963"><time>2026-08-17T13:29:22.000Z</time><extensions/></trkpt><trkpt lat="59.40062999725342" lon="34.664011001586914"><time>2026-08-17T13:29:25.000Z</time><extensions/></trkpt><trkpt lat="59.400737285614014" lon="34.66368913650513"><time>2026-08-17T13:29:37.000Z</time><extensions/></trkpt><trkpt lat="59.40075874328613" lon="34.66353893280029"><time>2026-08-17T13:30:07.000Z</time><extensions/></trkpt><trkpt lat="59.400737285614014" lon="34.6634316444397"><time>2026-08-17T13:30:10.000Z</time><extensions/></trkpt><trkpt lat="59.400694370269775" lon="34.66334581375122"><time>2026-08-17T13:30:12.000Z</time><extensions/></trkpt><trkpt lat="59.400715827941895" lon="34.663238525390625"><time>2026-08-17T13:30:15.000Z</time><extensions/></trkpt><trkpt lat="59.40075874328613" lon="34.663238525390625"><time>2026-08-17T13:30:17.000Z</time><extensions/></trkpt><trkpt lat="59.40075874328613" lon="34.662959575653076"><time>2026-08-17T13:30:35.000Z</time><extensions/></trkpt><trkpt lat="59.400737285614014" lon="34.66289520263672"><time>2026-08-17T13:30:37.000Z</time><extensions/></trkpt><trkpt lat="59.400737285614014" lon="34.66289520263672"><time>2026-08-17T13:30:40.000Z</time><extensions/></trkpt><trkpt lat="59.400715827941895" lon="34.66285228729248"><time>2026-08-17T13:30:42.000Z</time><extensions/></trkpt><trkpt lat="59.400737285614014" lon="34.662766456604004"><time>2026-08-17T13:31:05.000Z</time><extensions/></trkpt><trkpt lat="59.40075874328613" lon="34.66285228729248"><time>2026-08-17T13:31:07.000Z</time><extensions/></trkpt><trkpt lat="59.40075874328613" lon="34.6628737449646"><time>2026-08-17T13:31:25.000Z</time><extensions/></trkpt><trkpt lat="59.40078020095825" lon="34.66291666030884"><time>2026-08-17T13:31:35.000Z</time><extensions/></trkpt><trkpt lat="59.40078020095825" lon="34.66283082962036"><time>2026-08-17T13:31:57.000Z</time><extensions/></trkpt><trkpt lat="59.400737285614014" lon="34.66268062591553"><time>2026-08-17T13:32:05.000Z</time><extensions/></trkpt><trkpt lat="59.400694370269775" lon="34.66259479522705"><time>2026-08-17T13:32:10.000Z</time><extensions/></trkpt><trkpt lat="59.40058708190918" lon="34.66238021850586"><time>2026-08-17T13:32:20.000Z</time><extensions/></trkpt><trkpt lat="59.40062999725342" lon="34.66240167617798"><time>2026-08-17T13:32:22.000Z</time><extensions/></trkpt><trkpt lat="59.40058708190918" lon="34.66238021850586"><time>2026-08-17T13:32:30.000Z</time><extensions/></trkpt><trkpt lat="59.40056562423706" lon="34.66229438781738"><time>2026-08-17T13:32:32.000Z</time><extensions/></trkpt><trkpt lat="59.40054416656494" lon="34.662230014801025"><time>2026-08-17T13:32:35.000Z</time><extensions/></trkpt><trkpt lat="59.40054416656494" lon="34.66229438781738"><time>2026-08-17T13:32:42.000Z</time><extensions/></trkpt><trkpt lat="59.4005012512207" lon="34.662272930145264"><time>2026-08-17T13:32:55.000Z</time><extensions/></trkpt><trkpt lat="59.400479793548584" lon="34.662208557128906"><time>2026-08-17T13:32:57.000Z</time><extensions/></trkpt><trkpt lat="59.40035104751587" lon="34.66190814971924"><time>2026-08-17T13:33:27.000Z</time><extensions/></trkpt><trkpt lat="59.40032958984375" lon="34.66182231903076"><time>2026-08-17T13:33:30.000Z</time><extensions/></trkpt><trkpt lat="59.40032958984375" lon="34.661757946014404"><time>2026-08-17T13:33:37.000Z</time><extensions/></trkpt><trkpt lat="59.40030813217163" lon="34.66169357299805"><time>2026-08-17T13:33:40.000Z</time><extensions/></trkpt><trkpt lat="59.40026521682739" lon="34.66156482696533"><time>2026-08-17T13:33:42.000Z</time><extensions/></trkpt><trkpt lat="59.400200843811035" lon="34.66139316558838"><time>2026-08-17T13:33:45.000Z</time><extensions/></trkpt><trkpt lat="59.40013647079468" lon="34.66128587722778"><time>2026-08-17T13:33:47.000Z</time><extensions/></trkpt><trkpt lat="59.40002918243408" lon="34.66107130050659"><time>2026-08-17T13:33:55.000Z</time><extensions/></trkpt><trkpt lat="59.4000506401062" lon="34.66107130050659"><time>2026-08-17T13:33:57.000Z</time><extensions/></trkpt><trkpt lat="59.40011501312256" lon="34.66117858886719"><time>2026-08-17T13:34:00.000Z</time><extensions/></trkpt><trkpt lat="59.40024375915527" lon="34.66154336929321"><time>2026-08-17T13:34:05.000Z</time><extensions/></trkpt><trkpt lat="59.400222301483154" lon="34.661500453948975"><time>2026-08-17T13:34:07.000Z</time><extensions/></trkpt><trkpt lat="59.400222301483154" lon="34.6614146232605"><time>2026-08-17T13:34:10.000Z</time><extensions/></trkpt><trkpt lat="59.400222301483154" lon="34.66137170791626"><time>2026-08-17T13:34:12.000Z</time><extensions/></trkpt><trkpt lat="59.400179386138916" lon="34.66128587722778"><time>2026-08-17T13:34:17.000Z</time><extensions/></trkpt><trkpt lat="59.40011501312256" lon="34.66120004653931"><time>2026-08-17T13:34:27.000Z</time><extensions/></trkpt><trkpt lat="59.400179386138916" lon="34.6613073348999"><time>2026-08-17T13:34:35.000Z</time><extensions/></trkpt><trkpt lat="59.4001579284668" lon="34.66128587722778"><time>2026-08-17T13:35:05.000Z</time><extensions/></trkpt><trkpt lat="59.4001579284668" lon="34.66128587722778"><time>2026-08-17T13:35:07.000Z</time><extensions/></trkpt><trkpt lat="59.4001579284668" lon="34.66128587722778"><time>2026-08-17T13:35:10.000Z</time><extensions/></trkpt><trkpt lat="59.40013647079468" lon="34.6613073348999"><time>2026-08-17T13:35:40.000Z</time><extensions/></trkpt><trkpt lat="59.4001579284668" lon="34.66128587722778"><time>2026-08-17T13:36:10.000Z</time><extensions/></trkpt><trkpt lat="59.4001579284668" lon="34.661264419555664"><time>2026-08-17T13:36:40.000Z</time><extensions/></trkpt><trkpt lat="59.4001579284668" lon="34.661264419555664"><time>2026-08-17T13:37:10.000Z</time><extensions/></trkpt><trkpt lat="59.40013647079468" lon="34.66120004653931"><time>2026-08-17T13:37:40.000Z</time><extensions/></trkpt><trkpt lat="59.40011501312256" lon="34.66115713119507"><time>2026-08-17T13:37:52.000Z</time><extensions/></trkpt><trkpt lat="59.4000506401062" lon="34.66109275817871"><time>2026-08-17T13:37:55.000Z</time><extensions/></trkpt><trkpt lat="59.40002918243408" lon="34.66102838516235"><time>2026-08-17T13:37:57.000Z</time><extensions/></trkpt><trkpt lat="59.399986267089844" lon="34.661006927490234"><time>2026-08-17T13:38:00.000Z</time><extensions/></trkpt><trkpt lat="59.399943351745605" lon="34.660985469818115"><time>2026-08-17T13:38:02.000Z</time><extensions/></trkpt><trkpt lat="59.399921894073486" lon="34.661006927490234"><time>2026-08-17T13:38:07.000Z</time><extensions/></trkpt><trkpt lat="59.39985752105713" lon="34.6608567237854"><time>2026-08-17T13:38:15.000Z</time><extensions/></trkpt><trkpt lat="59.39987897872925" lon="34.660770893096924"><time>2026-08-17T13:38:17.000Z</time><extensions/></trkpt><trkpt lat="59.39985752105713" lon="34.660727977752686"><time>2026-08-17T13:38:32.000Z</time><extensions/></trkpt><trkpt lat="59.39983606338501" lon="34.660727977752686"><time>2026-08-17T13:38:47.000Z</time><extensions/></trkpt><trkpt lat="59.39985752105713" lon="34.660749435424805"><time>2026-08-17T13:39:12.000Z</time><extensions/></trkpt><trkpt lat="59.39981460571289" lon="34.66079235076904"><time>2026-08-17T13:39:15.000Z</time><extensions/></trkpt><trkpt lat="59.39977169036865" lon="34.660749435424805"><time>2026-08-17T13:39:17.000Z</time><extensions/></trkpt><trkpt lat="59.399707317352295" lon="34.66068506240845"><time>2026-08-17T13:39:25.000Z</time><extensions/></trkpt><trkpt lat="59.39966440200806" lon="34.66066360473633"><time>2026-08-17T13:39:27.000Z</time><extensions/></trkpt><trkpt lat="59.39964294433594" lon="34.66059923171997"><time>2026-08-17T13:39:30.000Z</time><extensions/></trkpt><trkpt lat="59.39962148666382" lon="34.66053485870361"><time>2026-08-17T13:39:32.000Z</time><extensions/></trkpt><trkpt lat="59.39951419830322" lon="34.6604061126709"><time>2026-08-17T13:39:50.000Z</time><extensions/></trkpt><trkpt lat="59.399471282958984" lon="34.66038465499878"><time>2026-08-17T13:39:52.000Z</time><extensions/></trkpt><trkpt lat="59.39934253692627" lon="34.66032028198242"><time>2026-08-17T13:40:00.000Z</time><extensions/></trkpt><trkpt lat="59.39927816390991" lon="34.660277366638184"><time>2026-08-17T13:40:30.000Z</time><extensions/></trkpt><trkpt lat="59.39927816390991" lon="34.660277366638184"><time>2026-08-17T13:40:47.000Z</time><extensions/></trkpt><trkpt lat="59.399192333221436" lon="34.660234451293945"><time>2026-08-17T13:40:52.000Z</time><extensions/></trkpt><trkpt lat="59.399213790893555" lon="34.660234451293945"><time>2026-08-17T13:40:55.000Z</time><extensions/></trkpt><trkpt lat="59.399235248565674" lon="34.660234451293945"><time>2026-08-17T13:40:57.000Z</time><extensions/></trkpt><trkpt lat="59.39925670623779" lon="34.660255908966064"><time>2026-08-17T13:41:00.000Z</time><extensions/></trkpt><trkpt lat="59.39927816390991" lon="34.660255908966064"><time>2026-08-17T13:41:02.000Z</time><extensions/></trkpt><trkpt lat="59.39932107925415" lon="34.660212993621826"><time>2026-08-17T13:41:32.000Z</time><extensions/></trkpt><trkpt lat="59.39929962158203" lon="34.660234451293945"><time>2026-08-17T13:41:37.000Z</time><extensions/></trkpt><trkpt lat="59.399213790893555" lon="34.66019153594971"><time>2026-08-17T13:41:42.000Z</time><extensions/></trkpt><trkpt lat="59.3991494178772" lon="34.66017007827759"><time>2026-08-17T13:41:45.000Z</time><extensions/></trkpt><trkpt lat="59.39910650253296" lon="34.66014862060547"><time>2026-08-17T13:42:00.000Z</time><extensions/></trkpt><trkpt lat="59.39902067184448" lon="34.66010570526123"><time>2026-08-17T13:42:07.000Z</time><extensions/></trkpt><trkpt lat="59.39891338348389" lon="34.66008424758911"><time>2026-08-17T13:42:12.000Z</time><extensions/></trkpt><trkpt lat="59.39887046813965" lon="34.66010570526123"><time>2026-08-17T13:42:15.000Z</time><extensions/></trkpt><trkpt lat="59.39887046813965" lon="34.66004133224487"><time>2026-08-17T13:42:17.000Z</time><extensions/></trkpt><trkpt lat="59.39891338348389" lon="34.659976959228516"><time>2026-08-17T13:42:20.000Z</time><extensions/></trkpt><trkpt lat="59.39891338348389" lon="34.65993404388428"><time>2026-08-17T13:42:22.000Z</time><extensions/></trkpt><trkpt lat="59.39880609512329" lon="34.66006278991699"><time>2026-08-17T13:42:30.000Z</time><extensions/></trkpt><trkpt lat="59.398698806762695" lon="34.66017007827759"><time>2026-08-17T13:42:32.000Z</time><extensions/></trkpt><trkpt lat="59.39865589141846" lon="34.660212993621826"><time>2026-08-17T13:42:42.000Z</time><extensions/></trkpt><trkpt lat="59.3985915184021" lon="34.660255908966064"><time>2026-08-17T13:42:50.000Z</time><extensions/></trkpt><trkpt lat="59.39857006072998" lon="34.66032028198242"><time>2026-08-17T13:42:52.000Z</time><extensions/></trkpt><trkpt lat="59.39850568771362" lon="34.6604061126709"><time>2026-08-17T13:43:00.000Z</time><extensions/></trkpt><trkpt lat="59.398462772369385" lon="34.6604061126709"><time>2026-08-17T13:43:02.000Z</time><extensions/></trkpt><trkpt lat="59.398441314697266" lon="34.6604061126709"><time>2026-08-17T13:43:05.000Z</time><extensions/></trkpt><trkpt lat="59.39841985702515" lon="34.660470485687256"><time>2026-08-17T13:43:10.000Z</time><extensions/></trkpt><trkpt lat="59.39835548400879" lon="34.660513401031494"><time>2026-08-17T13:43:12.000Z</time><extensions/></trkpt><trkpt lat="59.39826965332031" lon="34.66053485870361"><time>2026-08-17T13:43:20.000Z</time><extensions/></trkpt><trkpt lat="59.39826965332031" lon="34.66057777404785"><time>2026-08-17T13:43:22.000Z</time><extensions/></trkpt><trkpt lat="59.39831256866455" lon="34.66053485870361"><time>2026-08-17T13:43:30.000Z</time><extensions/></trkpt><trkpt lat="59.39835548400879" lon="34.660513401031494"><time>2026-08-17T13:43:32.000Z</time><extensions/></trkpt><trkpt lat="59.398441314697266" lon="34.66036319732666"><time>2026-08-17T13:44:02.000Z</time><extensions/></trkpt><trkpt lat="59.398441314697266" lon="34.66042757034302"><time>2026-08-17T13:44:05.000Z</time><extensions/></trkpt><trkpt lat="59.39837694168091" lon="34.660491943359375"><time>2026-08-17T13:44:12.000Z</time><extensions/></trkpt><trkpt lat="59.39833402633667" lon="34.660513401031494"><time>2026-08-17T13:44:15.000Z</time><extensions/></trkpt><trkpt lat="59.39829111099243" lon="34.66059923171997"><time>2026-08-17T13:44:25.000Z</time><extensions/></trkpt><trkpt lat="59.398205280303955" lon="34.660727977752686"><time>2026-08-17T13:44:32.000Z</time><extensions/></trkpt><trkpt lat="59.39816236495972" lon="34.660749435424805"><time>2026-08-17T13:44:50.000Z</time><extensions/></trkpt><trkpt lat="59.39807653427124" lon="34.6608567237854"><time>2026-08-17T13:44:52.000Z</time><extensions/></trkpt><trkpt lat="59.39801216125488" lon="34.660964012145996"><time>2026-08-17T13:44:55.000Z</time><extensions/></trkpt><trkpt lat="59.397947788238525" lon="34.66107130050659"><time>2026-08-17T13:44:57.000Z</time><extensions/></trkpt><trkpt lat="59.39786195755005" lon="34.66115713119507"><time>2026-08-17T13:45:07.000Z</time><extensions/></trkpt><trkpt lat="59.39781904220581" lon="34.66111421585083"><time>2026-08-17T13:45:10.000Z</time><extensions/></trkpt><trkpt lat="59.39779758453369" lon="34.66115713119507"><time>2026-08-17T13:45:15.000Z</time><extensions/></trkpt><trkpt lat="59.39777612686157" lon="34.66120004653931"><time>2026-08-17T13:45:17.000Z</time><extensions/></trkpt><trkpt lat="59.397733211517334" lon="34.661221504211426"><time>2026-08-17T13:45:20.000Z</time><extensions/></trkpt><trkpt lat="59.397711753845215" lon="34.661264419555664"><time>2026-08-17T13:45:22.000Z</time><extensions/></trkpt><trkpt lat="59.397690296173096" lon="34.66128587722778"><time>2026-08-17T13:45:27.000Z</time><extensions/></trkpt><trkpt lat="59.39760446548462" lon="34.66135025024414"><time>2026-08-17T13:45:32.000Z</time><extensions/></trkpt><trkpt lat="59.397475719451904" lon="34.66143608093262"><time>2026-08-17T13:46:02.000Z</time><extensions/></trkpt><trkpt lat="59.39738988876343" lon="34.66143608093262"><time>2026-08-17T13:46:07.000Z</time><extensions/></trkpt><trkpt lat="59.39738988876343" lon="34.66139316558838"><time>2026-08-17T13:46:10.000Z</time><extensions/></trkpt><trkpt lat="59.39736843109131" lon="34.66135025024414"><time>2026-08-17T13:46:12.000Z</time><extensions/></trkpt><trkpt lat="59.39738988876343" lon="34.6614146232605"><time>2026-08-17T13:46:15.000Z</time><extensions/></trkpt><trkpt lat="59.397475719451904" lon="34.66139316558838"><time>2026-08-17T13:46:17.000Z</time><extensions/></trkpt><trkpt lat="59.39751863479614" lon="34.66135025024414"><time>2026-08-17T13:46:20.000Z</time><extensions/></trkpt><trkpt lat="59.39754009246826" lon="34.66135025024414"><time>2026-08-17T13:46:32.000Z</time><extensions/></trkpt><trkpt lat="59.39754009246826" lon="34.66132879257202"><time>2026-08-17T13:47:02.000Z</time><extensions/></trkpt><trkpt lat="59.39749717712402" lon="34.66137170791626"><time>2026-08-17T13:47:10.000Z</time><extensions/></trkpt><trkpt lat="59.39736843109131" lon="34.661478996276855"><time>2026-08-17T13:47:15.000Z</time><extensions/></trkpt><trkpt lat="59.39732551574707" lon="34.661521911621094"><time>2026-08-17T13:47:17.000Z</time><extensions/></trkpt><trkpt lat="59.39732551574707" lon="34.661457538604736"><time>2026-08-17T13:47:47.000Z</time><extensions/></trkpt><trkpt lat="59.397239685058594" lon="34.66156482696533"><time>2026-08-17T13:47:50.000Z</time><extensions/></trkpt><trkpt lat="59.39711093902588" lon="34.661757946014404"><time>2026-08-17T13:47:55.000Z</time><extensions/></trkpt><trkpt lat="59.39704656600952" lon="34.66184377670288"><time>2026-08-17T13:47:57.000Z</time><extensions/></trkpt><trkpt lat="59.39700365066528" lon="34.66192960739136"><time>2026-08-17T13:48:00.000Z</time><extensions/></trkpt><trkpt lat="59.396960735321045" lon="34.661993980407715"><time>2026-08-17T13:48:02.000Z</time><extensions/></trkpt><trkpt lat="59.39681053161621" lon="34.662208557128906"><time>2026-08-17T13:48:10.000Z</time><extensions/></trkpt><trkpt lat="59.39678907394409" lon="34.66214418411255"><time>2026-08-17T13:48:12.000Z</time><extensions/></trkpt><trkpt lat="59.39676761627197" lon="34.662208557128906"><time>2026-08-17T13:48:30.000Z</time><extensions/></trkpt><trkpt lat="59.39678907394409" lon="34.6623158454895"><time>2026-08-17T13:48:32.000Z</time><extensions/></trkpt><trkpt lat="59.39676761627197" lon="34.66240167617798"><time>2026-08-17T13:48:35.000Z</time><extensions/></trkpt><trkpt lat="59.39674615859985" lon="34.66235876083374"><time>2026-08-17T13:48:37.000Z</time><extensions/></trkpt><trkpt lat="59.39676761627197" lon="34.662466049194336"><time>2026-08-17T13:48:47.000Z</time><extensions/></trkpt><trkpt lat="59.39674615859985" lon="34.662508964538574"><time>2026-08-17T13:48:50.000Z</time><extensions/></trkpt><trkpt lat="59.396724700927734" lon="34.662466049194336"><time>2026-08-17T13:48:52.000Z</time><extensions/></trkpt><trkpt lat="59.39674615859985" lon="34.66238021850586"><time>2026-08-17T13:48:55.000Z</time><extensions/></trkpt><trkpt lat="59.39659595489502" lon="34.66207981109619"><time>2026-08-17T13:49:07.000Z</time><extensions/></trkpt><trkpt lat="59.39661741256714" lon="34.66216564178467"><time>2026-08-17T13:49:10.000Z</time><extensions/></trkpt><trkpt lat="59.396681785583496" lon="34.662251472473145"><time>2026-08-17T13:49:12.000Z</time><extensions/></trkpt><trkpt lat="59.396724700927734" lon="34.662230014801025"><time>2026-08-17T13:49:15.000Z</time><extensions/></trkpt><trkpt lat="59.396724700927734" lon="34.66210126876831"><time>2026-08-17T13:49:17.000Z</time><extensions/></trkpt><trkpt lat="59.396703243255615" lon="34.66205835342407"><time>2026-08-17T13:49:20.000Z</time><extensions/></trkpt><trkpt lat="59.396703243255615" lon="34.661972522735596"><time>2026-08-17T13:49:22.000Z</time><extensions/></trkpt><trkpt lat="59.39674615859985" lon="34.66214418411255"><time>2026-08-17T13:49:27.000Z</time><extensions/></trkpt><trkpt lat="59.39676761627197" lon="34.662208557128906"><time>2026-08-17T13:49:30.000Z</time><extensions/></trkpt><trkpt lat="59.39674615859985" lon="34.662230014801025"><time>2026-08-17T13:49:32.000Z</time><extensions/></trkpt><trkpt lat="59.39676761627197" lon="34.66216564178467"><time>2026-08-17T13:49:35.000Z</time><extensions/></trkpt><trkpt lat="59.39676761627197" lon="34.66212272644043"><time>2026-08-17T13:49:37.000Z</time><extensions/></trkpt><trkpt lat="59.396703243255615" lon="34.66210126876831"><time>2026-08-17T13:49:50.000Z</time><extensions/></trkpt><trkpt lat="59.396681785583496" lon="34.66214418411255"><time>2026-08-17T13:49:57.000Z</time><extensions/></trkpt><trkpt lat="59.396681785583496" lon="34.66212272644043"><time>2026-08-17T13:50:12.000Z</time><extensions/></trkpt><trkpt lat="59.39674615859985" lon="34.66207981109619"><time>2026-08-17T13:50:20.000Z</time><extensions/></trkpt><trkpt lat="59.396724700927734" lon="34.66212272644043"><time>2026-08-17T13:50:25.000Z</time><extensions/></trkpt><trkpt lat="59.39674615859985" lon="34.66216564178467"><time>2026-08-17T13:50:30.000Z</time><extensions/></trkpt><trkpt lat="59.396724700927734" lon="34.66212272644043"><time>2026-08-17T13:50:32.000Z</time><extensions/></trkpt><trkpt lat="59.396724700927734" lon="34.662272930145264"><time>2026-08-17T13:50:50.000Z</time><extensions/></trkpt><trkpt lat="59.396703243255615" lon="34.66240167617798"><time>2026-08-17T13:50:57.000Z</time><extensions/></trkpt><trkpt lat="59.39666032791138" lon="34.662487506866455"><time>2026-08-17T13:51:00.000Z</time><extensions/></trkpt><trkpt lat="59.396681785583496" lon="34.66255187988281"><time>2026-08-17T13:51:02.000Z</time><extensions/></trkpt><trkpt lat="59.396681785583496" lon="34.662466049194336"><time>2026-08-17T13:51:05.000Z</time><extensions/></trkpt><trkpt lat="59.396703243255615" lon="34.66240167617798"><time>2026-08-17T13:51:07.000Z</time><extensions/></trkpt><trkpt lat="59.396703243255615" lon="34.6623158454895"><time>2026-08-17T13:51:30.000Z</time><extensions/></trkpt><trkpt lat="59.39674615859985" lon="34.662272930145264"><time>2026-08-17T13:51:32.000Z</time><extensions/></trkpt><trkpt lat="59.39674615859985" lon="34.66235876083374"><time>2026-08-17T13:51:35.000Z</time><extensions/></trkpt><trkpt lat="59.396724700927734" lon="34.662466049194336"><time>2026-08-17T13:51:57.000Z</time><extensions/></trkpt><trkpt lat="59.396703243255615" lon="34.66255187988281"><time>2026-08-17T13:52:05.000Z</time><extensions/></trkpt><trkpt lat="59.396681785583496" lon="34.66261625289917"><time>2026-08-17T13:52:07.000Z</time><extensions/></trkpt><trkpt lat="59.39661741256714" lon="34.66268062591553"><time>2026-08-17T13:52:10.000Z</time><extensions/></trkpt><trkpt lat="59.3965744972229" lon="34.662744998931885"><time>2026-08-17T13:52:12.000Z</time><extensions/></trkpt><trkpt lat="59.39655303955078" lon="34.662766456604004"><time>2026-08-17T13:52:35.000Z</time><extensions/></trkpt><trkpt lat="59.39651012420654" lon="34.66280937194824"><time>2026-08-17T13:52:37.000Z</time><extensions/></trkpt><trkpt lat="59.396445751190186" lon="34.66285228729248"><time>2026-08-17T13:52:40.000Z</time><extensions/></trkpt><trkpt lat="59.39640283584595" lon="34.66289520263672"><time>2026-08-17T13:52:42.000Z</time><extensions/></trkpt><trkpt lat="59.39635992050171" lon="34.662981033325195"><time>2026-08-17T13:52:50.000Z</time><extensions/></trkpt><trkpt lat="59.39631700515747" lon="34.663023948669434"><time>2026-08-17T13:52:52.000Z</time><extensions/></trkpt><trkpt lat="59.39629554748535" lon="34.66308832168579"><time>2026-08-17T13:52:55.000Z</time><extensions/></trkpt><trkpt lat="59.39631700515747" lon="34.663002490997314"><time>2026-08-17T13:53:05.000Z</time><extensions/></trkpt><trkpt lat="59.39631700515747" lon="34.66293811798096"><time>2026-08-17T13:53:35.000Z</time><extensions/></trkpt><trkpt lat="59.39629554748535" lon="34.66293811798096"><time>2026-08-17T13:53:42.000Z</time><extensions/></trkpt><trkpt lat="59.39629554748535" lon="34.663002490997314"><time>2026-08-17T13:53:57.000Z</time><extensions/></trkpt><trkpt lat="59.39631700515747" lon="34.662959575653076"><time>2026-08-17T13:54:27.000Z</time><extensions/></trkpt><trkpt lat="59.39629554748535" lon="34.662981033325195"><time>2026-08-17T13:54:30.000Z</time><extensions/></trkpt><trkpt lat="59.396231174468994" lon="34.66304540634155"><time>2026-08-17T13:54:50.000Z</time><extensions/></trkpt><trkpt lat="59.39616680145264" lon="34.66313123703003"><time>2026-08-17T13:54:57.000Z</time><extensions/></trkpt><trkpt lat="59.39614534378052" lon="34.66319561004639"><time>2026-08-17T13:55:00.000Z</time><extensions/></trkpt><trkpt lat="59.39608097076416" lon="34.663259983062744"><time>2026-08-17T13:55:05.000Z</time><extensions/></trkpt><trkpt lat="59.39603805541992" lon="34.66328144073486"><time>2026-08-17T13:55:07.000Z</time><extensions/></trkpt><trkpt lat="59.39603805541992" lon="34.663259983062744"><time>2026-08-17T13:55:10.000Z</time><extensions/></trkpt><trkpt lat="59.3960165977478" lon="34.663217067718506"><time>2026-08-17T13:55:12.000Z</time><extensions/></trkpt><trkpt lat="59.395952224731445" lon="34.66319561004639"><time>2026-08-17T13:55:37.000Z</time><extensions/></trkpt><trkpt lat="59.39588785171509" lon="34.66304540634155"><time>2026-08-17T13:55:45.000Z</time><extensions/></trkpt><trkpt lat="59.39588785171509" lon="34.662981033325195"><time>2026-08-17T13:55:47.000Z</time><extensions/></trkpt><trkpt lat="59.39588785171509" lon="34.6628737449646"><time>2026-08-17T13:55:50.000Z</time><extensions/></trkpt><trkpt lat="59.39586639404297" lon="34.66289520263672"><time>2026-08-17T13:55:52.000Z</time><extensions/></trkpt><trkpt lat="59.39588785171509" lon="34.662959575653076"><time>2026-08-17T13:55:55.000Z</time><extensions/></trkpt><trkpt lat="59.39588785171509" lon="34.66315269470215"><time>2026-08-17T13:55:57.000Z</time><extensions/></trkpt><trkpt lat="59.395952224731445" lon="34.663259983062744"><time>2026-08-17T13:56:00.000Z</time><extensions/></trkpt><trkpt lat="59.395930767059326" lon="34.66336727142334"><time>2026-08-17T13:56:02.000Z</time><extensions/></trkpt><trkpt lat="59.39590930938721" lon="34.663453102111816"><time>2026-08-17T13:56:05.000Z</time><extensions/></trkpt><trkpt lat="59.39588785171509" lon="34.663517475128174"><time>2026-08-17T13:56:07.000Z</time><extensions/></trkpt><trkpt lat="59.39582347869873" lon="34.663517475128174"><time>2026-08-17T13:56:12.000Z</time><extensions/></trkpt><trkpt lat="59.39586639404297" lon="34.663453102111816"><time>2026-08-17T13:56:15.000Z</time><extensions/></trkpt><trkpt lat="59.395930767059326" lon="34.66336727142334"><time>2026-08-17T13:56:17.000Z</time><extensions/></trkpt><trkpt lat="59.39588785171509" lon="34.66336727142334"><time>2026-08-17T13:56:25.000Z</time><extensions/></trkpt><trkpt lat="59.39582347869873" lon="34.663474559783936"><time>2026-08-17T13:56:55.000Z</time><extensions/></trkpt><trkpt lat="59.39578056335449" lon="34.66353893280029"><time>2026-08-17T13:56:57.000Z</time><extensions/></trkpt><trkpt lat="59.39575910568237" lon="34.66362476348877"><time>2026-08-17T13:57:00.000Z</time><extensions/></trkpt><trkpt lat="59.39575910568237" lon="34.66360330581665"><time>2026-08-17T13:57:20.000Z</time><extensions/></trkpt><trkpt lat="59.39580202102661" lon="34.66364622116089"><time>2026-08-17T13:57:22.000Z</time><extensions/></trkpt><trkpt lat="59.39582347869873" lon="34.66366767883301"><time>2026-08-17T13:57:25.000Z</time><extensions/></trkpt><trkpt lat="59.39584493637085" lon="34.66362476348877"><time>2026-08-17T13:57:27.000Z</time><extensions/></trkpt><trkpt lat="59.39580202102661" lon="34.66362476348877"><time>2026-08-17T13:57:30.000Z</time><extensions/></trkpt><trkpt lat="59.39578056335449" lon="34.66368913650513"><time>2026-08-17T13:57:32.000Z</time><extensions/></trkpt><trkpt lat="59.395694732666016" lon="34.663753509521484"><time>2026-08-17T13:57:35.000Z</time><extensions/></trkpt><trkpt lat="59.39565181732178" lon="34.663732051849365"><time>2026-08-17T13:57:52.000Z</time><extensions/></trkpt><trkpt lat="59.3956732749939" lon="34.66368913650513"><time>2026-08-17T13:57:55.000Z</time><extensions/></trkpt><trkpt lat="59.395694732666016" lon="34.66364622116089"><time>2026-08-17T13:57:57.000Z</time><extensions/></trkpt><trkpt lat="59.3956732749939" lon="34.66362476348877"><time>2026-08-17T13:58:17.000Z</time><extensions/></trkpt><trkpt lat="59.39565181732178" lon="34.663710594177246"><time>2026-08-17T13:58:25.000Z</time><extensions/></trkpt><trkpt lat="59.3956732749939" lon="34.66379642486572"><time>2026-08-17T13:58:27.000Z</time><extensions/></trkpt><trkpt lat="59.39565181732178" lon="34.66390371322632"><time>2026-08-17T13:58:30.000Z</time><extensions/></trkpt><trkpt lat="59.39560890197754" lon="34.66394662857056"><time>2026-08-17T13:58:32.000Z</time><extensions/></trkpt><trkpt lat="59.39560890197754" lon="34.664011001586914"><time>2026-08-17T13:58:35.000Z</time><extensions/></trkpt><trkpt lat="59.3955659866333" lon="34.664011001586914"><time>2026-08-17T13:58:37.000Z</time><extensions/></trkpt><trkpt lat="59.39550161361694" lon="34.663989543914795"><time>2026-08-17T13:58:45.000Z</time><extensions/></trkpt><trkpt lat="59.395480155944824" lon="34.66405391693115"><time>2026-08-17T13:58:47.000Z</time><extensions/></trkpt><trkpt lat="59.395437240600586" lon="34.66411828994751"><time>2026-08-17T13:58:50.000Z</time><extensions/></trkpt><trkpt lat="59.395437240600586" lon="34.66403245925903"><time>2026-08-17T13:58:52.000Z</time><extensions/></trkpt><trkpt lat="59.395437240600586" lon="34.66390371322632"><time>2026-08-17T13:58:55.000Z</time><extensions/></trkpt><trkpt lat="59.395458698272705" lon="34.6637749671936"><time>2026-08-17T13:58:57.000Z</time><extensions/></trkpt><trkpt lat="59.39541578292847" lon="34.6637749671936"><time>2026-08-17T13:59:02.000Z</time><extensions/></trkpt><trkpt lat="59.39532995223999" lon="34.663732051849365"><time>2026-08-17T13:59:05.000Z</time><extensions/></trkpt><trkpt lat="59.39532995223999" lon="34.663753509521484"><time>2026-08-17T13:59:12.000Z</time><extensions/></trkpt><trkpt lat="59.39530849456787" lon="34.663710594177246"><time>2026-08-17T13:59:15.000Z</time><extensions/></trkpt><trkpt lat="59.395244121551514" lon="34.66366767883301"><time>2026-08-17T13:59:20.000Z</time><extensions/></trkpt><trkpt lat="59.395201206207275" lon="34.66362476348877"><time>2026-08-17T13:59:22.000Z</time><extensions/></trkpt><trkpt lat="59.39513683319092" lon="34.66358184814453"><time>2026-08-17T13:59:25.000Z</time><extensions/></trkpt><trkpt lat="59.39507246017456" lon="34.663517475128174"><time>2026-08-17T13:59:27.000Z</time><extensions/></trkpt><trkpt lat="59.39513683319092" lon="34.66356039047241"><time>2026-08-17T13:59:45.000Z</time><extensions/></trkpt><trkpt lat="59.395222663879395" lon="34.66364622116089"><time>2026-08-17T13:59:47.000Z</time><extensions/></trkpt><trkpt lat="59.395201206207275" lon="34.66358184814453"><time>2026-08-17T13:59:50.000Z</time><extensions/></trkpt><trkpt lat="59.395201206207275" lon="34.66358184814453"><time>2026-08-17T13:59:52.000Z</time><extensions/></trkpt><trkpt lat="59.395201206207275" lon="34.663710594177246"><time>2026-08-17T13:59:55.000Z</time><extensions/></trkpt><trkpt lat="59.395201206207275" lon="34.66383934020996"><time>2026-08-17T13:59:57.000Z</time><extensions/></trkpt><trkpt lat="59.395201206207275" lon="34.66394662857056"><time>2026-08-17T14:00:00.000Z</time><extensions/></trkpt><trkpt lat="59.395201206207275" lon="34.66407537460327"><time>2026-08-17T14:00:02.000Z</time><extensions/></trkpt><trkpt lat="59.395201206207275" lon="34.66418266296387"><time>2026-08-17T14:00:05.000Z</time><extensions/></trkpt><trkpt lat="59.395201206207275" lon="34.664225578308105"><time>2026-08-17T14:00:07.000Z</time><extensions/></trkpt><trkpt lat="59.395201206207275" lon="34.66411828994751"><time>2026-08-17T14:00:17.000Z</time><extensions/></trkpt><trkpt lat="59.39515829086304" lon="34.663989543914795"><time>2026-08-17T14:00:32.000Z</time><extensions/></trkpt><trkpt lat="59.39515829086304" lon="34.6638822555542"><time>2026-08-17T14:00:35.000Z</time><extensions/></trkpt><trkpt lat="59.39513683319092" lon="34.66379642486572"><time>2026-08-17T14:00:37.000Z</time><extensions/></trkpt><trkpt lat="59.3951153755188" lon="34.66368913650513"><time>2026-08-17T14:00:40.000Z</time><extensions/></trkpt><trkpt lat="59.3951153755188" lon="34.66360330581665"><time>2026-08-17T14:00:42.000Z</time><extensions/></trkpt><trkpt lat="59.395179748535156" lon="34.66353893280029"><time>2026-08-17T14:00:47.000Z</time><extensions/></trkpt><trkpt lat="59.395244121551514" lon="34.6634316444397"><time>2026-08-17T14:00:52.000Z</time><extensions/></trkpt><trkpt lat="59.39530849456787" lon="34.66341018676758"><time>2026-08-17T14:00:55.000Z</time><extensions/></trkpt><trkpt lat="59.39535140991211" lon="34.663474559783936"><time>2026-08-17T14:00:57.000Z</time><extensions/></trkpt><trkpt lat="59.39537286758423" lon="34.66358184814453"><time>2026-08-17T14:01:00.000Z</time><extensions/></trkpt><trkpt lat="59.39530849456787" lon="34.66364622116089"><time>2026-08-17T14:01:02.000Z</time><extensions/></trkpt><trkpt lat="59.395244121551514" lon="34.66364622116089"><time>2026-08-17T14:01:05.000Z</time><extensions/></trkpt><trkpt lat="59.39515829086304" lon="34.66358184814453"><time>2026-08-17T14:01:07.000Z</time><extensions/></trkpt><trkpt lat="59.394943714141846" lon="34.66338872909546"><time>2026-08-17T14:01:15.000Z</time><extensions/></trkpt><trkpt lat="59.394729137420654" lon="34.66328144073486"><time>2026-08-17T14:01:27.000Z</time><extensions/></trkpt><trkpt lat="59.39475059509277" lon="34.66336727142334"><time>2026-08-17T14:01:30.000Z</time><extensions/></trkpt><trkpt lat="59.39479351043701" lon="34.663496017456055"><time>2026-08-17T14:01:35.000Z</time><extensions/></trkpt><trkpt lat="59.39477205276489" lon="34.663517475128174"><time>2026-08-17T14:01:37.000Z</time><extensions/></trkpt><trkpt lat="59.39479351043701" lon="34.663453102111816"><time>2026-08-17T14:01:40.000Z</time><extensions/></trkpt><trkpt lat="59.39481496810913" lon="34.66336727142334"><time>2026-08-17T14:01:42.000Z</time><extensions/></trkpt><trkpt lat="59.39485788345337" lon="34.66334581375122"><time>2026-08-17T14:01:45.000Z</time><extensions/></trkpt><trkpt lat="59.39481496810913" lon="34.66336727142334"><time>2026-08-17T14:01:50.000Z</time><extensions/></trkpt><trkpt lat="59.39485788345337" lon="34.66336727142334"><time>2026-08-17T14:02:10.000Z</time><extensions/></trkpt><trkpt lat="59.39485788345337" lon="34.66336727142334"><time>2026-08-17T14:02:22.000Z</time><extensions/></trkpt><trkpt lat="59.39485788345337" lon="34.66334581375122"><time>2026-08-17T14:02:30.000Z</time><extensions/></trkpt><trkpt lat="59.39479351043701" lon="34.6633243560791"><time>2026-08-17T14:02:32.000Z</time><extensions/></trkpt><trkpt lat="59.39475059509277" lon="34.66330289840698"><time>2026-08-17T14:02:35.000Z</time><extensions/></trkpt><trkpt lat="59.394686222076416" lon="34.66328144073486"><time>2026-08-17T14:02:37.000Z</time><extensions/></trkpt><trkpt lat="59.394686222076416" lon="34.663259983062744"><time>2026-08-17T14:02:40.000Z</time><extensions/></trkpt><trkpt lat="59.394707679748535" lon="34.663259983062744"><time>2026-08-17T14:02:45.000Z</time><extensions/></trkpt><trkpt lat="59.394729137420654" lon="34.663238525390625"><time>2026-08-17T14:02:47.000Z</time><extensions/></trkpt><trkpt lat="59.39475059509277" lon="34.66330289840698"><time>2026-08-17T14:02:55.000Z</time><extensions/></trkpt><trkpt lat="59.39475059509277" lon="34.663259983062744"><time>2026-08-17T14:03:00.000Z</time><extensions/></trkpt><trkpt lat="59.39477205276489" lon="34.663238525390625"><time>2026-08-17T14:03:02.000Z</time><extensions/></trkpt><trkpt lat="59.39475059509277" lon="34.6633243560791"><time>2026-08-17T14:03:10.000Z</time><extensions/></trkpt><trkpt lat="59.394707679748535" lon="34.66334581375122"><time>2026-08-17T14:03:12.000Z</time><extensions/></trkpt><trkpt lat="59.394686222076416" lon="34.6633243560791"><time>2026-08-17T14:03:15.000Z</time><extensions/></trkpt><trkpt lat="59.3946647644043" lon="34.66328144073486"><time>2026-08-17T14:03:17.000Z</time><extensions/></trkpt><trkpt lat="59.39462184906006" lon="34.663217067718506"><time>2026-08-17T14:03:22.000Z</time><extensions/></trkpt><trkpt lat="59.39457893371582" lon="34.66328144073486"><time>2026-08-17T14:03:25.000Z</time><extensions/></trkpt><trkpt lat="59.39453601837158" lon="34.66330289840698"><time>2026-08-17T14:03:27.000Z</time><extensions/></trkpt><trkpt lat="59.394471645355225" lon="34.663238525390625"><time>2026-08-17T14:03:30.000Z</time><extensions/></trkpt><trkpt lat="59.394428730010986" lon="34.663259983062744"><time>2026-08-17T14:03:32.000Z</time><extensions/></trkpt><trkpt lat="59.39440727233887" lon="34.663238525390625"><time>2026-08-17T14:03:35.000Z</time><extensions/></trkpt><trkpt lat="59.39440727233887" lon="34.663238525390625"><time>2026-08-17T14:03:37.000Z</time><extensions/></trkpt><trkpt lat="59.394493103027344" lon="34.66328144073486"><time>2026-08-17T14:03:40.000Z</time><extensions/></trkpt><trkpt lat="59.3945574760437" lon="34.6633243560791"><time>2026-08-17T14:03:42.000Z</time><extensions/></trkpt><trkpt lat="59.39451456069946" lon="34.663259983062744"><time>2026-08-17T14:03:57.000Z</time><extensions/></trkpt><trkpt lat="59.394450187683105" lon="34.663217067718506"><time>2026-08-17T14:04:00.000Z</time><extensions/></trkpt><trkpt lat="59.394428730010986" lon="34.66319561004639"><time>2026-08-17T14:04:02.000Z</time><extensions/></trkpt><trkpt lat="59.39438581466675" lon="34.66315269470215"><time>2026-08-17T14:04:07.000Z</time><extensions/></trkpt><trkpt lat="59.394428730010986" lon="34.66319561004639"><time>2026-08-17T14:04:20.000Z</time><extensions/></trkpt><trkpt lat="59.39436435699463" lon="34.66315269470215"><time>2026-08-17T14:04:22.000Z</time><extensions/></trkpt><trkpt lat="59.39432144165039" lon="34.66310977935791"><time>2026-08-17T14:04:32.000Z</time><extensions/></trkpt><trkpt lat="59.39434289932251" lon="34.66317415237427"><time>2026-08-17T14:04:40.000Z</time><extensions/></trkpt><trkpt lat="59.39438581466675" lon="34.663238525390625"><time>2026-08-17T14:04:42.000Z</time><extensions/></trkpt><trkpt lat="59.39432144165039" lon="34.66313123703003"><time>2026-08-17T14:05:00.000Z</time><extensions/></trkpt><trkpt lat="59.39429998397827" lon="34.66308832168579"><time>2026-08-17T14:05:02.000Z</time><extensions/></trkpt><trkpt lat="59.39427852630615" lon="34.66304540634155"><time>2026-08-17T14:05:05.000Z</time><extensions/></trkpt><trkpt lat="59.39425706863403" lon="34.663002490997314"><time>2026-08-17T14:05:07.000Z</time><extensions/></trkpt><trkpt lat="59.39427852630615" lon="34.66308832168579"><time>2026-08-17T14:05:12.000Z</time><extensions/></trkpt><trkpt lat="59.39436435699463" lon="34.66317415237427"><time>2026-08-17T14:05:15.000Z</time><extensions/></trkpt><trkpt lat="59.394428730010986" lon="34.663217067718506"><time>2026-08-17T14:05:17.000Z</time><extensions/></trkpt><trkpt lat="59.39451456069946" lon="34.663259983062744"><time>2026-08-17T14:05:25.000Z</time><extensions/></trkpt><trkpt lat="59.39451456069946" lon="34.66336727142334"><time>2026-08-17T14:05:30.000Z</time><extensions/></trkpt><trkpt lat="59.39453601837158" lon="34.66330289840698"><time>2026-08-17T14:05:32.000Z</time><extensions/></trkpt><trkpt lat="59.3945574760437" lon="34.66341018676758"><time>2026-08-17T14:05:47.000Z</time><extensions/></trkpt><trkpt lat="59.39460039138794" lon="34.663517475128174"><time>2026-08-17T14:05:50.000Z</time><extensions/></trkpt><trkpt lat="59.39462184906006" lon="34.66362476348877"><time>2026-08-17T14:05:52.000Z</time><extensions/></trkpt><trkpt lat="59.39462184906006" lon="34.6637749671936"><time>2026-08-17T14:05:55.000Z</time><extensions/></trkpt><trkpt lat="59.39462184906006" lon="34.66364622116089"><time>2026-08-17T14:06:00.000Z</time><extensions/></trkpt><trkpt lat="59.39462184906006" lon="34.66353893280029"><time>2026-08-17T14:06:02.000Z</time><extensions/></trkpt><trkpt lat="59.39464330673218" lon="34.66356039047241"><time>2026-08-17T14:06:05.000Z</time><extensions/></trkpt><trkpt lat="59.3946647644043" lon="34.66360330581665"><time>2026-08-17T14:06:07.000Z</time><extensions/></trkpt><trkpt lat="59.394707679748535" lon="34.66360330581665"><time>2026-08-17T14:06:20.000Z</time><extensions/></trkpt><trkpt lat="59.394729137420654" lon="34.66368913650513"><time>2026-08-17T14:06:22.000Z</time><extensions/></trkpt><trkpt lat="59.394729137420654" lon="34.66362476348877"><time>2026-08-17T14:06:25.000Z</time><extensions/></trkpt><trkpt lat="59.39475059509277" lon="34.663517475128174"><time>2026-08-17T14:06:27.000Z</time><extensions/></trkpt><trkpt lat="59.394686222076416" lon="34.66366767883301"><time>2026-08-17T14:06:37.000Z</time><extensions/></trkpt><trkpt lat="59.39464330673218" lon="34.66383934020996"><time>2026-08-17T14:06:40.000Z</time><extensions/></trkpt><trkpt lat="59.39462184906006" lon="34.663968086242676"><time>2026-08-17T14:06:42.000Z</time><extensions/></trkpt><trkpt lat="59.39457893371582" lon="34.664011001586914"><time>2026-08-17T14:06:47.000Z</time><extensions/></trkpt><trkpt lat="59.39457893371582" lon="34.66409683227539"><time>2026-08-17T14:06:50.000Z</time><extensions/></trkpt><trkpt lat="59.3945574760437" lon="34.66416120529175"><time>2026-08-17T14:06:52.000Z</time><extensions/></trkpt><trkpt lat="59.39453601837158" lon="34.664225578308105"><time>2026-08-17T14:06:55.000Z</time><extensions/></trkpt><trkpt lat="59.394493103027344" lon="34.664247035980225"><time>2026-08-17T14:06:57.000Z</time><extensions/></trkpt><trkpt lat="59.394471645355225" lon="34.664268493652344"><time>2026-08-17T14:07:00.000Z</time><extensions/></trkpt><trkpt lat="59.394450187683105" lon="34.66435432434082"><time>2026-08-17T14:07:02.000Z</time><extensions/></trkpt><trkpt lat="59.394450187683105" lon="34.66431140899658"><time>2026-08-17T14:07:05.000Z</time><extensions/></trkpt><trkpt lat="59.394493103027344" lon="34.664268493652344"><time>2026-08-17T14:07:07.000Z</time><extensions/></trkpt><trkpt lat="59.39451456069946" lon="34.66418266296387"><time>2026-08-17T14:07:10.000Z</time><extensions/></trkpt><trkpt lat="59.3945574760437" lon="34.66413974761963"><time>2026-08-17T14:07:12.000Z</time><extensions/></trkpt><trkpt lat="59.39457893371582" lon="34.664247035980225"><time>2026-08-17T14:07:15.000Z</time><extensions/></trkpt><trkpt lat="59.39460039138794" lon="34.6643328666687"><time>2026-08-17T14:07:17.000Z</time><extensions/></trkpt><trkpt lat="59.39462184906006" lon="34.66439723968506"><time>2026-08-17T14:07:20.000Z</time><extensions/></trkpt><trkpt lat="59.39460039138794" lon="34.66441869735718"><time>2026-08-17T14:07:25.000Z</time><extensions/></trkpt><trkpt lat="59.39457893371582" lon="34.66437578201294"><time>2026-08-17T14:07:27.000Z</time><extensions/></trkpt><trkpt lat="59.39453601837158" lon="34.6643328666687"><time>2026-08-17T14:07:30.000Z</time><extensions/></trkpt><trkpt lat="59.39453601837158" lon="34.66428995132446"><time>2026-08-17T14:07:32.000Z</time><extensions/></trkpt><trkpt lat="59.39453601837158" lon="34.66435432434082"><time>2026-08-17T14:07:35.000Z</time><extensions/></trkpt><trkpt lat="59.39453601837158" lon="34.6644401550293"><time>2026-08-17T14:07:37.000Z</time><extensions/></trkpt><trkpt lat="59.394493103027344" lon="34.66452598571777"><time>2026-08-17T14:07:40.000Z</time><extensions/></trkpt><trkpt lat="59.394471645355225" lon="34.66461181640625"><time>2026-08-17T14:07:42.000Z</time><extensions/></trkpt><trkpt lat="59.39451456069946" lon="34.664483070373535"><time>2026-08-17T14:08:00.000Z</time><extensions/></trkpt><trkpt lat="59.39451456069946" lon="34.664461612701416"><time>2026-08-17T14:08:17.000Z</time><extensions/></trkpt><trkpt lat="59.39451456069946" lon="34.664461612701416"><time>2026-08-17T14:08:35.000Z</time><extensions/></trkpt><trkpt lat="59.394493103027344" lon="34.6644401550293"><time>2026-08-17T14:09:02.000Z</time><extensions/></trkpt><trkpt lat="59.394471645355225" lon="34.66441869735718"><time>2026-08-17T14:09:05.000Z</time><extensions/></trkpt><trkpt lat="59.394428730010986" lon="34.664247035980225"><time>2026-08-17T14:09:20.000Z</time><extensions/></trkpt><trkpt lat="59.394428730010986" lon="34.66413974761963"><time>2026-08-17T14:09:22.000Z</time><extensions/></trkpt><trkpt lat="59.39440727233887" lon="34.66411828994751"><time>2026-08-17T14:09:25.000Z</time><extensions/></trkpt><trkpt lat="59.39436435699463" lon="34.66416120529175"><time>2026-08-17T14:09:27.000Z</time><extensions/></trkpt><trkpt lat="59.39434289932251" lon="34.66411828994751"><time>2026-08-17T14:09:30.000Z</time><extensions/></trkpt><trkpt lat="59.39432144165039" lon="34.66416120529175"><time>2026-08-17T14:09:40.000Z</time><extensions/></trkpt><trkpt lat="59.39434289932251" lon="34.664225578308105"><time>2026-08-17T14:09:42.000Z</time><extensions/></trkpt><trkpt lat="59.39432144165039" lon="34.664268493652344"><time>2026-08-17T14:09:45.000Z</time><extensions/></trkpt><trkpt lat="59.39429998397827" lon="34.6643328666687"><time>2026-08-17T14:09:47.000Z</time><extensions/></trkpt><trkpt lat="59.39425706863403" lon="34.66435432434082"><time>2026-08-17T14:09:50.000Z</time><extensions/></trkpt><trkpt lat="59.394235610961914" lon="34.66439723968506"><time>2026-08-17T14:09:52.000Z</time><extensions/></trkpt><trkpt lat="59.394214153289795" lon="34.66441869735718"><time>2026-08-17T14:09:55.000Z</time><extensions/></trkpt><trkpt lat="59.39417123794556" lon="34.6644401550293"><time>2026-08-17T14:09:57.000Z</time><extensions/></trkpt><trkpt lat="59.39412832260132" lon="34.66441869735718"><time>2026-08-17T14:10:00.000Z</time><extensions/></trkpt><trkpt lat="59.3941068649292" lon="34.664461612701416"><time>2026-08-17T14:10:02.000Z</time><extensions/></trkpt><trkpt lat="59.39408540725708" lon="34.6644401550293"><time>2026-08-17T14:10:05.000Z</time><extensions/></trkpt><trkpt lat="59.3941068649292" lon="34.6644401550293"><time>2026-08-17T14:10:07.000Z</time><extensions/></trkpt><trkpt lat="59.39412832260132" lon="34.6644401550293"><time>2026-08-17T14:10:10.000Z</time><extensions/></trkpt><trkpt lat="59.39417123794556" lon="34.6644401550293"><time>2026-08-17T14:10:15.000Z</time><extensions/></trkpt><trkpt lat="59.394235610961914" lon="34.6644401550293"><time>2026-08-17T14:10:17.000Z</time><extensions/></trkpt><trkpt lat="59.39425706863403" lon="34.66439723968506"><time>2026-08-17T14:10:20.000Z</time><extensions/></trkpt><trkpt lat="59.39425706863403" lon="34.66439723968506"><time>2026-08-17T14:10:32.000Z</time><extensions/></trkpt><trkpt lat="59.394235610961914" lon="34.66441869735718"><time>2026-08-17T14:11:00.000Z</time><extensions/></trkpt><trkpt lat="59.394235610961914" lon="34.6644401550293"><time>2026-08-17T14:11:07.000Z</time><extensions/></trkpt><trkpt lat="59.394214153289795" lon="34.664504528045654"><time>2026-08-17T14:11:15.000Z</time><extensions/></trkpt><trkpt lat="59.394214153289795" lon="34.66456890106201"><time>2026-08-17T14:11:17.000Z</time><extensions/></trkpt><trkpt lat="59.39417123794556" lon="34.66459035873413"><time>2026-08-17T14:11:32.000Z</time><extensions/></trkpt><trkpt lat="59.39417123794556" lon="34.66467618942261"><time>2026-08-17T14:11:35.000Z</time><extensions/></trkpt><trkpt lat="59.39417123794556" lon="34.664740562438965"><time>2026-08-17T14:11:37.000Z</time><extensions/></trkpt><trkpt lat="59.39412832260132" lon="34.664762020111084"><time>2026-08-17T14:11:40.000Z</time><extensions/></trkpt><trkpt lat="59.39408540725708" lon="34.664740562438965"><time>2026-08-17T14:11:45.000Z</time><extensions/></trkpt><trkpt lat="59.39406394958496" lon="34.664719104766846"><time>2026-08-17T14:11:47.000Z</time><extensions/></trkpt><trkpt lat="59.393956661224365" lon="34.6647834777832"><time>2026-08-17T14:11:52.000Z</time><extensions/></trkpt><trkpt lat="59.393935203552246" lon="34.6647834777832"><time>2026-08-17T14:11:55.000Z</time><extensions/></trkpt><trkpt lat="59.39389228820801" lon="34.664740562438965"><time>2026-08-17T14:11:57.000Z</time><extensions/></trkpt><trkpt lat="59.39391374588013" lon="34.66461181640625"><time>2026-08-17T14:12:07.000Z</time><extensions/></trkpt><trkpt lat="59.393935203552246" lon="34.664719104766846"><time>2026-08-17T14:12:10.000Z</time><extensions/></trkpt><trkpt lat="59.393978118896484" lon="34.66491222381592"><time>2026-08-17T14:12:12.000Z</time><extensions/></trkpt><trkpt lat="59.393956661224365" lon="34.66504096984863"><time>2026-08-17T14:12:15.000Z</time><extensions/></trkpt><trkpt lat="59.39387083053589" lon="34.66519117355347"><time>2026-08-17T14:12:20.000Z</time><extensions/></trkpt><trkpt lat="59.39382791519165" lon="34.665212631225586"><time>2026-08-17T14:12:22.000Z</time><extensions/></trkpt><trkpt lat="59.39382791519165" lon="34.6653413772583"><time>2026-08-17T14:12:30.000Z</time><extensions/></trkpt><trkpt lat="59.39384937286377" lon="34.66540575027466"><time>2026-08-17T14:12:32.000Z</time><extensions/></trkpt><trkpt lat="59.39389228820801" lon="34.6654486656189"><time>2026-08-17T14:12:35.000Z</time><extensions/></trkpt><trkpt lat="59.393935203552246" lon="34.665470123291016"><time>2026-08-17T14:12:37.000Z</time><extensions/></trkpt><trkpt lat="59.393978118896484" lon="34.665491580963135"><time>2026-08-17T14:12:40.000Z</time><extensions/></trkpt><trkpt lat="59.39402103424072" lon="34.6654486656189"><time>2026-08-17T14:12:42.000Z</time><extensions/></trkpt><trkpt lat="59.39404249191284" lon="34.66540575027466"><time>2026-08-17T14:12:45.000Z</time><extensions/></trkpt><trkpt lat="59.39404249191284" lon="34.66529846191406"><time>2026-08-17T14:12:47.000Z</time><extensions/></trkpt><trkpt lat="59.39404249191284" lon="34.665212631225586"><time>2026-08-17T14:12:50.000Z</time><extensions/></trkpt><trkpt lat="59.3939995765686" lon="34.665234088897705"><time>2026-08-17T14:12:52.000Z</time><extensions/></trkpt><trkpt lat="59.3939995765686" lon="34.66529846191406"><time>2026-08-17T14:12:55.000Z</time><extensions/></trkpt><trkpt lat="59.393956661224365" lon="34.66542720794678"><time>2026-08-17T14:12:57.000Z</time><extensions/></trkpt><trkpt lat="59.39391374588013" lon="34.66568470001221"><time>2026-08-17T14:13:05.000Z</time><extensions/></trkpt><trkpt lat="59.393935203552246" lon="34.665749073028564"><time>2026-08-17T14:13:07.000Z</time><extensions/></trkpt><trkpt lat="59.393935203552246" lon="34.66587781906128"><time>2026-08-17T14:13:10.000Z</time><extensions/></trkpt><trkpt lat="59.39391374588013" lon="34.665963649749756"><time>2026-08-17T14:13:12.000Z</time><extensions/></trkpt><trkpt lat="59.393935203552246" lon="34.665963649749756"><time>2026-08-17T14:13:15.000Z</time><extensions/></trkpt><trkpt lat="59.393935203552246" lon="34.666006565093994"><time>2026-08-17T14:13:25.000Z</time><extensions/></trkpt><trkpt lat="59.39387083053589" lon="34.66602802276611"><time>2026-08-17T14:13:30.000Z</time><extensions/></trkpt><trkpt lat="59.39387083053589" lon="34.665985107421875"><time>2026-08-17T14:13:32.000Z</time><extensions/></trkpt><trkpt lat="59.39389228820801" lon="34.66604948043823"><time>2026-08-17T14:13:37.000Z</time><extensions/></trkpt><trkpt lat="59.393956661224365" lon="34.66607093811035"><time>2026-08-17T14:13:40.000Z</time><extensions/></trkpt><trkpt lat="59.3939995765686" lon="34.66615676879883"><time>2026-08-17T14:13:42.000Z</time><extensions/></trkpt><trkpt lat="59.39402103424072" lon="34.666264057159424"><time>2026-08-17T14:13:45.000Z</time><extensions/></trkpt><trkpt lat="59.39402103424072" lon="34.66632843017578"><time>2026-08-17T14:13:47.000Z</time><extensions/></trkpt><trkpt lat="59.39404249191284" lon="34.66630697250366"><time>2026-08-17T14:13:50.000Z</time><extensions/></trkpt><trkpt lat="59.39404249191284" lon="34.666264057159424"><time>2026-08-17T14:13:52.000Z</time><extensions/></trkpt><trkpt lat="59.39404249191284" lon="34.66637134552002"><time>2026-08-17T14:13:57.000Z</time><extensions/></trkpt><trkpt lat="59.39406394958496" lon="34.66643571853638"><time>2026-08-17T14:14:00.000Z</time><extensions/></trkpt><trkpt lat="59.39402103424072" lon="34.666457176208496"><time>2026-08-17T14:14:05.000Z</time><extensions/></trkpt><trkpt lat="59.393978118896484" lon="34.666500091552734"><time>2026-08-17T14:14:35.000Z</time><extensions/></trkpt><trkpt lat="59.393978118896484" lon="34.666500091552734"><time>2026-08-17T14:14:47.000Z</time><extensions/></trkpt><trkpt lat="59.39406394958496" lon="34.66654300689697"><time>2026-08-17T14:15:17.000Z</time><extensions/></trkpt><trkpt lat="59.39408540725708" lon="34.66652154922485"><time>2026-08-17T14:15:47.000Z</time><extensions/></trkpt><trkpt lat="59.39408540725708" lon="34.66652154922485"><time>2026-08-17T14:16:17.000Z</time><extensions/></trkpt><trkpt lat="59.39408540725708" lon="34.66652154922485"><time>2026-08-17T14:16:47.000Z</time><extensions/></trkpt><trkpt lat="59.3941068649292" lon="34.666500091552734"><time>2026-08-17T14:17:17.000Z</time><extensions/></trkpt><trkpt lat="59.3941068649292" lon="34.666500091552734"><time>2026-08-17T14:17:47.000Z</time><extensions/></trkpt><trkpt lat="59.3941068649292" lon="34.666500091552734"><time>2026-08-17T14:18:17.000Z</time><extensions/></trkpt><trkpt lat="59.39412832260132" lon="34.66658592224121"><time>2026-08-17T14:18:25.000Z</time><extensions/></trkpt><trkpt lat="59.39412832260132" lon="34.66667175292969"><time>2026-08-17T14:18:27.000Z</time><extensions/></trkpt><trkpt lat="59.3941068649292" lon="34.66677904129028"><time>2026-08-17T14:18:30.000Z</time><extensions/></trkpt><trkpt lat="59.3941068649292" lon="34.66686487197876"><time>2026-08-17T14:18:35.000Z</time><extensions/></trkpt><trkpt lat="59.3941068649292" lon="34.66692924499512"><time>2026-08-17T14:18:37.000Z</time><extensions/></trkpt><trkpt lat="59.39414978027344" lon="34.66692924499512"><time>2026-08-17T14:18:45.000Z</time><extensions/></trkpt><trkpt lat="59.394235610961914" lon="34.667015075683594"><time>2026-08-17T14:18:57.000Z</time><extensions/></trkpt><trkpt lat="59.39427852630615" lon="34.66712236404419"><time>2026-08-17T14:19:00.000Z</time><extensions/></trkpt><trkpt lat="59.39425706863403" lon="34.66718673706055"><time>2026-08-17T14:19:02.000Z</time><extensions/></trkpt><trkpt lat="59.394214153289795" lon="34.66718673706055"><time>2026-08-17T14:19:05.000Z</time><extensions/></trkpt><trkpt lat="59.394214153289795" lon="34.66737985610962"><time>2026-08-17T14:19:15.000Z</time><extensions/></trkpt><trkpt lat="59.394214153289795" lon="34.667465686798096"><time>2026-08-17T14:19:17.000Z</time><extensions/></trkpt><trkpt lat="59.394235610961914" lon="34.667508602142334"><time>2026-08-17T14:19:20.000Z</time><extensions/></trkpt><trkpt lat="59.394235610961914" lon="34.66755151748657"><time>2026-08-17T14:19:22.000Z</time><extensions/></trkpt><trkpt lat="59.394192695617676" lon="34.66744422912598"><time>2026-08-17T14:19:30.000Z</time><extensions/></trkpt><trkpt lat="59.39414978027344" lon="34.6673583984375"><time>2026-08-17T14:19:32.000Z</time><extensions/></trkpt><trkpt lat="59.39412832260132" lon="34.6673583984375"><time>2026-08-17T14:19:35.000Z</time><extensions/></trkpt><trkpt lat="59.3941068649292" lon="34.66742277145386"><time>2026-08-17T14:19:37.000Z</time><extensions/></trkpt><trkpt lat="59.39408540725708" lon="34.66744422912598"><time>2026-08-17T14:19:40.000Z</time><extensions/></trkpt><trkpt lat="59.39404249191284" lon="34.66742277145386"><time>2026-08-17T14:19:42.000Z</time><extensions/></trkpt><trkpt lat="59.39404249191284" lon="34.66733694076538"><time>2026-08-17T14:19:45.000Z</time><extensions/></trkpt><trkpt lat="59.39406394958496" lon="34.66729402542114"><time>2026-08-17T14:19:47.000Z</time><extensions/></trkpt><trkpt lat="59.39412832260132" lon="34.66729402542114"><time>2026-08-17T14:19:50.000Z</time><extensions/></trkpt><trkpt lat="59.394192695617676" lon="34.66733694076538"><time>2026-08-17T14:19:52.000Z</time><extensions/></trkpt><trkpt lat="59.394235610961914" lon="34.66742277145386"><time>2026-08-17T14:19:55.000Z</time><extensions/></trkpt><trkpt lat="59.39429998397827" lon="34.667487144470215"><time>2026-08-17T14:19:57.000Z</time><extensions/></trkpt><trkpt lat="59.39434289932251" lon="34.66755151748657"><time>2026-08-17T14:20:00.000Z</time><extensions/></trkpt><trkpt lat="59.39436435699463" lon="34.66761589050293"><time>2026-08-17T14:20:02.000Z</time><extensions/></trkpt><trkpt lat="59.39438581466675" lon="34.667723178863525"><time>2026-08-17T14:20:05.000Z</time><extensions/></trkpt><trkpt lat="59.39438581466675" lon="34.66783046722412"><time>2026-08-17T14:20:07.000Z</time><extensions/></trkpt><trkpt lat="59.39436435699463" lon="34.66789484024048"><time>2026-08-17T14:20:10.000Z</time><extensions/></trkpt><trkpt lat="59.39434289932251" lon="34.6679162979126"><time>2026-08-17T14:20:12.000Z</time><extensions/></trkpt><trkpt lat="59.39432144165039" lon="34.667959213256836"><time>2026-08-17T14:20:15.000Z</time><extensions/></trkpt><trkpt lat="59.39432144165039" lon="34.668002128601074"><time>2026-08-17T14:20:20.000Z</time><extensions/></trkpt><trkpt lat="59.39429998397827" lon="34.66808795928955"><time>2026-08-17T14:20:25.000Z</time><extensions/></trkpt><trkpt lat="59.39429998397827" lon="34.66817378997803"><time>2026-08-17T14:20:27.000Z</time><extensions/></trkpt><trkpt lat="59.39432144165039" lon="34.66828107833862"><time>2026-08-17T14:20:30.000Z</time><extensions/></trkpt><trkpt lat="59.39436435699463" lon="34.66834545135498"><time>2026-08-17T14:20:32.000Z</time><extensions/></trkpt><trkpt lat="59.39440727233887" lon="34.66832399368286"><time>2026-08-17T14:20:35.000Z</time><extensions/></trkpt><trkpt lat="59.39438581466675" lon="34.6683669090271"><time>2026-08-17T14:20:37.000Z</time><extensions/></trkpt><trkpt lat="59.39440727233887" lon="34.66832399368286"><time>2026-08-17T14:20:47.000Z</time><extensions/></trkpt><trkpt lat="59.394450187683105" lon="34.66815233230591"><time>2026-08-17T14:20:50.000Z</time><extensions/></trkpt><trkpt lat="59.394471645355225" lon="34.66806650161743"><time>2026-08-17T14:20:52.000Z</time><extensions/></trkpt><trkpt lat="59.394450187683105" lon="34.667980670928955"><time>2026-08-17T14:20:55.000Z</time><extensions/></trkpt><trkpt lat="59.394450187683105" lon="34.66789484024048"><time>2026-08-17T14:20:57.000Z</time><extensions/></trkpt><trkpt lat="59.394428730010986" lon="34.66785192489624"><time>2026-08-17T14:21:00.000Z</time><extensions/></trkpt><trkpt lat="59.39438581466675" lon="34.66787338256836"><time>2026-08-17T14:21:17.000Z</time><extensions/></trkpt><trkpt lat="59.39438581466675" lon="34.66783046722412"><time>2026-08-17T14:21:22.000Z</time><extensions/></trkpt><trkpt lat="59.39434289932251" lon="34.66765880584717"><time>2026-08-17T14:21:30.000Z</time><extensions/></trkpt><trkpt lat="59.39436435699463" lon="34.66755151748657"><time>2026-08-17T14:21:32.000Z</time><extensions/></trkpt><trkpt lat="59.39436435699463" lon="34.667487144470215"><time>2026-08-17T14:21:35.000Z</time><extensions/></trkpt><trkpt lat="59.39434289932251" lon="34.66737985610962"><time>2026-08-17T14:21:37.000Z</time><extensions/></trkpt><trkpt lat="59.39436435699463" lon="34.667465686798096"><time>2026-08-17T14:21:45.000Z</time><extensions/></trkpt><trkpt lat="59.39438581466675" lon="34.66757297515869"><time>2026-08-17T14:21:47.000Z</time><extensions/></trkpt><trkpt lat="59.394428730010986" lon="34.66759443283081"><time>2026-08-17T14:21:55.000Z</time><extensions/></trkpt><trkpt lat="59.394450187683105" lon="34.66765880584717"><time>2026-08-17T14:21:57.000Z</time><extensions/></trkpt><trkpt lat="59.394471645355225" lon="34.667723178863525"><time>2026-08-17T14:22:00.000Z</time><extensions/></trkpt><trkpt lat="59.394450187683105" lon="34.66778755187988"><time>2026-08-17T14:22:02.000Z</time><extensions/></trkpt><trkpt lat="59.39440727233887" lon="34.66778755187988"><time>2026-08-17T14:22:07.000Z</time><extensions/></trkpt><trkpt lat="59.39434289932251" lon="34.66785192489624"><time>2026-08-17T14:22:10.000Z</time><extensions/></trkpt><trkpt lat="59.39412832260132" lon="34.668002128601074"><time>2026-08-17T14:22:25.000Z</time><extensions/></trkpt><trkpt lat="59.3941068649292" lon="34.668002128601074"><time>2026-08-17T14:22:27.000Z</time><extensions/></trkpt><trkpt lat="59.39408540725708" lon="34.667959213256836"><time>2026-08-17T14:22:30.000Z</time><extensions/></trkpt><trkpt lat="59.3941068649292" lon="34.66793775558472"><time>2026-08-17T14:22:32.000Z</time><extensions/></trkpt><trkpt lat="59.39404249191284" lon="34.6679162979126"><time>2026-08-17T14:22:45.000Z</time><extensions/></trkpt><trkpt lat="59.3939995765686" lon="34.66787338256836"><time>2026-08-17T14:22:47.000Z</time><extensions/></trkpt><trkpt lat="59.3939995765686" lon="34.66783046722412"><time>2026-08-17T14:22:50.000Z</time><extensions/></trkpt><trkpt lat="59.3939995765686" lon="34.667766094207764"><time>2026-08-17T14:22:52.000Z</time><extensions/></trkpt><trkpt lat="59.393978118896484" lon="34.667723178863525"><time>2026-08-17T14:22:55.000Z</time><extensions/></trkpt><trkpt lat="59.393935203552246" lon="34.66789484024048"><time>2026-08-17T14:23:12.000Z</time><extensions/></trkpt><trkpt lat="59.39389228820801" lon="34.668002128601074"><time>2026-08-17T14:23:15.000Z</time><extensions/></trkpt><trkpt lat="59.39384937286377" lon="34.66804504394531"><time>2026-08-17T14:23:17.000Z</time><extensions/></trkpt><trkpt lat="59.39380645751953" lon="34.66802358627319"><time>2026-08-17T14:23:22.000Z</time><extensions/></trkpt><trkpt lat="59.39378499984741" lon="34.667959213256836"><time>2026-08-17T14:23:27.000Z</time><extensions/></trkpt><trkpt lat="59.39376354217529" lon="34.66789484024048"><time>2026-08-17T14:23:30.000Z</time><extensions/></trkpt><trkpt lat="59.39376354217529" lon="34.66787338256836"><time>2026-08-17T14:23:32.000Z</time><extensions/></trkpt><trkpt lat="59.393742084503174" lon="34.66787338256836"><time>2026-08-17T14:23:35.000Z</time><extensions/></trkpt><trkpt lat="59.393699169158936" lon="34.66785192489624"><time>2026-08-17T14:23:37.000Z</time><extensions/></trkpt><trkpt lat="59.393677711486816" lon="34.66783046722412"><time>2026-08-17T14:23:40.000Z</time><extensions/></trkpt><trkpt lat="59.3936562538147" lon="34.66785192489624"><time>2026-08-17T14:23:42.000Z</time><extensions/></trkpt><trkpt lat="59.39363479614258" lon="34.66789484024048"><time>2026-08-17T14:23:45.000Z</time><extensions/></trkpt><trkpt lat="59.39361333847046" lon="34.66793775558472"><time>2026-08-17T14:23:47.000Z</time><extensions/></trkpt><trkpt lat="59.39359188079834" lon="34.667959213256836"><time>2026-08-17T14:23:50.000Z</time><extensions/></trkpt><trkpt lat="59.39357042312622" lon="34.668002128601074"><time>2026-08-17T14:23:52.000Z</time><extensions/></trkpt><trkpt lat="59.39357042312622" lon="34.66804504394531"><time>2026-08-17T14:23:55.000Z</time><extensions/></trkpt><trkpt lat="59.39359188079834" lon="34.66815233230591"><time>2026-08-17T14:23:57.000Z</time><extensions/></trkpt><trkpt lat="59.3935489654541" lon="34.66815233230591"><time>2026-08-17T14:24:17.000Z</time><extensions/></trkpt><trkpt lat="59.39357042312622" lon="34.66804504394531"><time>2026-08-17T14:24:25.000Z</time><extensions/></trkpt><trkpt lat="59.3935489654541" lon="34.6679162979126"><time>2026-08-17T14:24:27.000Z</time><extensions/></trkpt><trkpt lat="59.39352750778198" lon="34.667809009552"><time>2026-08-17T14:24:30.000Z</time><extensions/></trkpt><trkpt lat="59.393484592437744" lon="34.667701721191406"><time>2026-08-17T14:24:32.000Z</time><extensions/></trkpt><trkpt lat="59.39350605010986" lon="34.66763734817505"><time>2026-08-17T14:24:35.000Z</time><extensions/></trkpt><trkpt lat="59.39350605010986" lon="34.66759443283081"><time>2026-08-17T14:24:42.000Z</time><extensions/></trkpt><trkpt lat="59.393484592437744" lon="34.66744422912598"><time>2026-08-17T14:24:57.000Z</time><extensions/></trkpt><trkpt lat="59.393441677093506" lon="34.66740131378174"><time>2026-08-17T14:25:00.000Z</time><extensions/></trkpt><trkpt lat="59.39339876174927" lon="34.66740131378174"><time>2026-08-17T14:25:02.000Z</time><extensions/></trkpt><trkpt lat="59.39337730407715" lon="34.6673583984375"><time>2026-08-17T14:25:05.000Z</time><extensions/></trkpt><trkpt lat="59.39331293106079" lon="34.66729402542114"><time>2026-08-17T14:25:07.000Z</time><extensions/></trkpt><trkpt lat="59.39331293106079" lon="34.667229652404785"><time>2026-08-17T14:25:10.000Z</time><extensions/></trkpt><trkpt lat="59.39333438873291" lon="34.66718673706055"><time>2026-08-17T14:25:12.000Z</time><extensions/></trkpt><trkpt lat="59.39335584640503" lon="34.66710090637207"><time>2026-08-17T14:25:15.000Z</time><extensions/></trkpt><trkpt lat="59.39333438873291" lon="34.66707944869995"><time>2026-08-17T14:25:17.000Z</time><extensions/></trkpt><trkpt lat="59.39333438873291" lon="34.66712236404419"><time>2026-08-17T14:25:20.000Z</time><extensions/></trkpt><trkpt lat="59.39329147338867" lon="34.66692924499512"><time>2026-08-17T14:25:25.000Z</time><extensions/></trkpt><trkpt lat="59.393248558044434" lon="34.66686487197876"><time>2026-08-17T14:25:27.000Z</time><extensions/></trkpt><trkpt lat="59.393205642700195" lon="34.66686487197876"><time>2026-08-17T14:25:30.000Z</time><extensions/></trkpt><trkpt lat="59.393184185028076" lon="34.66682195663452"><time>2026-08-17T14:25:32.000Z</time><extensions/></trkpt><trkpt lat="59.39314126968384" lon="34.6668004989624"><time>2026-08-17T14:25:35.000Z</time><extensions/></trkpt><trkpt lat="59.39316272735596" lon="34.6668004989624"><time>2026-08-17T14:25:37.000Z</time><extensions/></trkpt><trkpt lat="59.39316272735596" lon="34.6668004989624"><time>2026-08-17T14:25:40.000Z</time><extensions/></trkpt><trkpt lat="59.39311981201172" lon="34.66688632965088"><time>2026-08-17T14:25:45.000Z</time><extensions/></trkpt><trkpt lat="59.39314126968384" lon="34.667015075683594"><time>2026-08-17T14:25:47.000Z</time><extensions/></trkpt><trkpt lat="59.393205642700195" lon="34.66710090637207"><time>2026-08-17T14:25:50.000Z</time><extensions/></trkpt><trkpt lat="59.393248558044434" lon="34.66714382171631"><time>2026-08-17T14:25:52.000Z</time><extensions/></trkpt><trkpt lat="59.39329147338867" lon="34.667251110076904"><time>2026-08-17T14:25:55.000Z</time><extensions/></trkpt><trkpt lat="59.39335584640503" lon="34.66733694076538"><time>2026-08-17T14:25:57.000Z</time><extensions/></trkpt><trkpt lat="59.39337730407715" lon="34.66740131378174"><time>2026-08-17T14:26:27.000Z</time><extensions/></trkpt><trkpt lat="59.39337730407715" lon="34.66740131378174"><time>2026-08-17T14:26:35.000Z</time><extensions/></trkpt><trkpt lat="59.39335584640503" lon="34.6673583984375"><time>2026-08-17T14:26:37.000Z</time><extensions/></trkpt><trkpt lat="59.39331293106079" lon="34.66731548309326"><time>2026-08-17T14:26:40.000Z</time><extensions/></trkpt><trkpt lat="59.39331293106079" lon="34.66737985610962"><time>2026-08-17T14:26:55.000Z</time><extensions/></trkpt><trkpt lat="59.393227100372314" lon="34.66742277145386"><time>2026-08-17T14:27:07.000Z</time><extensions/></trkpt><trkpt lat="59.393205642700195" lon="34.66737985610962"><time>2026-08-17T14:27:37.000Z</time><extensions/></trkpt><trkpt lat="59.39316272735596" lon="34.6673583984375"><time>2026-08-17T14:27:40.000Z</time><extensions/></trkpt><trkpt lat="59.39316272735596" lon="34.667229652404785"><time>2026-08-17T14:27:45.000Z</time><extensions/></trkpt><trkpt lat="59.39314126968384" lon="34.667208194732666"><time>2026-08-17T14:27:47.000Z</time><extensions/></trkpt><trkpt lat="59.39311981201172" lon="34.66718673706055"><time>2026-08-17T14:27:50.000Z</time><extensions/></trkpt><trkpt lat="59.39307689666748" lon="34.66718673706055"><time>2026-08-17T14:27:52.000Z</time><extensions/></trkpt><trkpt lat="59.39305543899536" lon="34.66716527938843"><time>2026-08-17T14:27:55.000Z</time><extensions/></trkpt><trkpt lat="59.39303398132324" lon="34.66710090637207"><time>2026-08-17T14:27:57.000Z</time><extensions/></trkpt><trkpt lat="59.39305543899536" lon="34.66705799102783"><time>2026-08-17T14:28:00.000Z</time><extensions/></trkpt><trkpt lat="59.39307689666748" lon="34.667015075683594"><time>2026-08-17T14:28:02.000Z</time><extensions/></trkpt><trkpt lat="59.39305543899536" lon="34.666950702667236"><time>2026-08-17T14:28:05.000Z</time><extensions/></trkpt><trkpt lat="59.39305543899536" lon="34.666907787323"><time>2026-08-17T14:28:07.000Z</time><extensions/></trkpt><trkpt lat="59.39303398132324" lon="34.66686487197876"><time>2026-08-17T14:28:10.000Z</time><extensions/></trkpt><trkpt lat="59.39303398132324" lon="34.66703653335571"><time>2026-08-17T14:28:15.000Z</time><extensions/></trkpt><trkpt lat="59.39305543899536" lon="34.66714382171631"><time>2026-08-17T14:28:17.000Z</time><extensions/></trkpt><trkpt lat="59.39307689666748" lon="34.66718673706055"><time>2026-08-17T14:28:20.000Z</time><extensions/></trkpt><trkpt lat="59.392991065979004" lon="34.66718673706055"><time>2026-08-17T14:28:42.000Z</time><extensions/></trkpt><trkpt lat="59.392948150634766" lon="34.66707944869995"><time>2026-08-17T14:28:45.000Z</time><extensions/></trkpt><trkpt lat="59.392948150634766" lon="34.667015075683594"><time>2026-08-17T14:28:47.000Z</time><extensions/></trkpt><trkpt lat="59.39290523529053" lon="34.666950702667236"><time>2026-08-17T14:28:52.000Z</time><extensions/></trkpt><trkpt lat="59.39286231994629" lon="34.66682195663452"><time>2026-08-17T14:29:00.000Z</time><extensions/></trkpt><trkpt lat="59.39284086227417" lon="34.66677904129028"><time>2026-08-17T14:29:02.000Z</time><extensions/></trkpt><trkpt lat="59.39281940460205" lon="34.66667175292969"><time>2026-08-17T14:29:05.000Z</time><extensions/></trkpt><trkpt lat="59.39284086227417" lon="34.66660737991333"><time>2026-08-17T14:29:07.000Z</time><extensions/></trkpt><trkpt lat="59.39284086227417" lon="34.66667175292969"><time>2026-08-17T14:29:10.000Z</time><extensions/></trkpt><trkpt lat="59.39286231994629" lon="34.66656446456909"><time>2026-08-17T14:29:20.000Z</time><extensions/></trkpt><trkpt lat="59.39284086227417" lon="34.666478633880615"><time>2026-08-17T14:29:22.000Z</time><extensions/></trkpt><trkpt lat="59.39286231994629" lon="34.66652154922485"><time>2026-08-17T14:29:27.000Z</time><extensions/></trkpt><trkpt lat="59.39288377761841" lon="34.66652154922485"><time>2026-08-17T14:29:30.000Z</time><extensions/></trkpt><trkpt lat="59.39288377761841" lon="34.666500091552734"><time>2026-08-17T14:29:40.000Z</time><extensions/></trkpt><trkpt lat="59.39286231994629" lon="34.66652154922485"><time>2026-08-17T14:29:42.000Z</time><extensions/></trkpt><trkpt lat="59.39284086227417" lon="34.666500091552734"><time>2026-08-17T14:29:45.000Z</time><extensions/></trkpt><trkpt lat="59.39281940460205" lon="34.66643571853638"><time>2026-08-17T14:29:47.000Z</time><extensions/></trkpt><trkpt lat="59.39277648925781" lon="34.66643571853638"><time>2026-08-17T14:29:50.000Z</time><extensions/></trkpt><trkpt lat="59.39275503158569" lon="34.66643571853638"><time>2026-08-17T14:29:52.000Z</time><extensions/></trkpt><trkpt lat="59.392733573913574" lon="34.66641426086426"><time>2026-08-17T14:29:55.000Z</time><extensions/></trkpt><trkpt lat="59.392733573913574" lon="34.66637134552002"><time>2026-08-17T14:29:57.000Z</time><extensions/></trkpt><trkpt lat="59.392733573913574" lon="34.666264057159424"><time>2026-08-17T14:30:10.000Z</time><extensions/></trkpt><trkpt lat="59.39277648925781" lon="34.666221141815186"><time>2026-08-17T14:30:40.000Z</time><extensions/></trkpt><trkpt lat="59.392733573913574" lon="34.66602802276611"><time>2026-08-17T14:30:47.000Z</time><extensions/></trkpt><trkpt lat="59.392733573913574" lon="34.666006565093994"><time>2026-08-17T14:31:00.000Z</time><extensions/></trkpt><trkpt lat="59.392733573913574" lon="34.666006565093994"><time>2026-08-17T14:31:10.000Z</time><extensions/></trkpt><trkpt lat="59.392712116241455" lon="34.6658992767334"><time>2026-08-17T14:31:40.000Z</time><extensions/></trkpt><trkpt lat="59.392690658569336" lon="34.66587781906128"><time>2026-08-17T14:32:10.000Z</time><extensions/></trkpt><trkpt lat="59.392690658569336" lon="34.66587781906128"><time>2026-08-17T14:32:30.000Z</time><extensions/></trkpt><trkpt lat="59.39262628555298" lon="34.665963649749756"><time>2026-08-17T14:32:57.000Z</time><extensions/></trkpt><trkpt lat="59.3926477432251" lon="34.666006565093994"><time>2026-08-17T14:33:05.000Z</time><extensions/></trkpt><trkpt lat="59.39258337020874" lon="34.66609239578247"><time>2026-08-17T14:33:17.000Z</time><extensions/></trkpt><trkpt lat="59.3925404548645" lon="34.66613531112671"><time>2026-08-17T14:33:20.000Z</time><extensions/></trkpt><trkpt lat="59.39251899719238" lon="34.66617822647095"><time>2026-08-17T14:33:22.000Z</time><extensions/></trkpt><trkpt lat="59.392476081848145" lon="34.66615676879883"><time>2026-08-17T14:33:25.000Z</time><extensions/></trkpt><trkpt lat="59.392454624176025" lon="34.66607093811035"><time>2026-08-17T14:33:27.000Z</time><extensions/></trkpt><trkpt lat="59.392433166503906" lon="34.66602802276611"><time>2026-08-17T14:33:30.000Z</time><extensions/></trkpt><trkpt lat="59.39241170883179" lon="34.665985107421875"><time>2026-08-17T14:33:32.000Z</time><extensions/></trkpt><trkpt lat="59.39232587814331" lon="34.66604948043823"><time>2026-08-17T14:33:42.000Z</time><extensions/></trkpt><trkpt lat="59.39228296279907" lon="34.66609239578247"><time>2026-08-17T14:33:45.000Z</time><extensions/></trkpt><trkpt lat="59.392240047454834" lon="34.66609239578247"><time>2026-08-17T14:33:47.000Z</time><extensions/></trkpt><trkpt lat="59.392197132110596" lon="34.66607093811035"><time>2026-08-17T14:33:50.000Z</time><extensions/></trkpt><trkpt lat="59.392218589782715" lon="34.666006565093994"><time>2026-08-17T14:34:00.000Z</time><extensions/></trkpt><trkpt lat="59.392240047454834" lon="34.6658992767334"><time>2026-08-17T14:34:02.000Z</time><extensions/></trkpt><trkpt lat="59.392240047454834" lon="34.66581344604492"><time>2026-08-17T14:34:05.000Z</time><extensions/></trkpt><trkpt lat="59.392218589782715" lon="34.665727615356445"><time>2026-08-17T14:34:07.000Z</time><extensions/></trkpt><trkpt lat="59.39215421676636" lon="34.665706157684326"><time>2026-08-17T14:34:15.000Z</time><extensions/></trkpt><trkpt lat="59.39213275909424" lon="34.665770530700684"><time>2026-08-17T14:34:17.000Z</time><extensions/></trkpt><trkpt lat="59.39206838607788" lon="34.66585636138916"><time>2026-08-17T14:34:20.000Z</time><extensions/></trkpt><trkpt lat="59.39200401306152" lon="34.66583490371704"><time>2026-08-17T14:34:22.000Z</time><extensions/></trkpt><trkpt lat="59.391982555389404" lon="34.6657919883728"><time>2026-08-17T14:34:25.000Z</time><extensions/></trkpt><trkpt lat="59.39206838607788" lon="34.665727615356445"><time>2026-08-17T14:34:35.000Z</time><extensions/></trkpt><trkpt lat="59.39206838607788" lon="34.665727615356445"><time>2026-08-17T14:34:37.000Z</time><extensions/></trkpt><trkpt lat="59.39204692840576" lon="34.66566324234009"><time>2026-08-17T14:34:40.000Z</time><extensions/></trkpt><trkpt lat="59.39200401306152" lon="34.665706157684326"><time>2026-08-17T14:34:42.000Z</time><extensions/></trkpt><trkpt lat="59.391982555389404" lon="34.665770530700684"><time>2026-08-17T14:34:45.000Z</time><extensions/></trkpt><trkpt lat="59.391961097717285" lon="34.66585636138916"><time>2026-08-17T14:34:47.000Z</time><extensions/></trkpt><trkpt lat="59.39191818237305" lon="34.66592073440552"><time>2026-08-17T14:34:50.000Z</time><extensions/></trkpt><trkpt lat="59.39187526702881" lon="34.665963649749756"><time>2026-08-17T14:34:52.000Z</time><extensions/></trkpt><trkpt lat="59.39185380935669" lon="34.665963649749756"><time>2026-08-17T14:34:55.000Z</time><extensions/></trkpt><trkpt lat="59.39183235168457" lon="34.66592073440552"><time>2026-08-17T14:34:57.000Z</time><extensions/></trkpt><trkpt lat="59.39185380935669" lon="34.66587781906128"><time>2026-08-17T14:35:00.000Z</time><extensions/></trkpt><trkpt lat="59.391939640045166" lon="34.66594219207764"><time>2026-08-17T14:35:02.000Z</time><extensions/></trkpt><trkpt lat="59.39200401306152" lon="34.666006565093994"><time>2026-08-17T14:35:05.000Z</time><extensions/></trkpt><trkpt lat="59.39202547073364" lon="34.66607093811035"><time>2026-08-17T14:35:07.000Z</time><extensions/></trkpt><trkpt lat="59.39202547073364" lon="34.66617822647095"><time>2026-08-17T14:35:10.000Z</time><extensions/></trkpt><trkpt lat="59.39211130142212" lon="34.66658592224121"><time>2026-08-17T14:35:25.000Z</time><extensions/></trkpt><trkpt lat="59.39211130142212" lon="34.666714668273926"><time>2026-08-17T14:35:35.000Z</time><extensions/></trkpt><trkpt lat="59.39206838607788" lon="34.66682195663452"><time>2026-08-17T14:35:37.000Z</time><extensions/></trkpt><trkpt lat="59.39204692840576" lon="34.66686487197876"><time>2026-08-17T14:35:40.000Z</time><extensions/></trkpt><trkpt lat="59.39200401306152" lon="34.66684341430664"><time>2026-08-17T14:35:42.000Z</time><extensions/></trkpt><trkpt lat="59.391982555389404" lon="34.66686487197876"><time>2026-08-17T14:35:45.000Z</time><extensions/></trkpt><trkpt lat="59.391982555389404" lon="34.66682195663452"><time>2026-08-17T14:35:47.000Z</time><extensions/></trkpt><trkpt lat="59.391961097717285" lon="34.66677904129028"><time>2026-08-17T14:35:50.000Z</time><extensions/></trkpt><trkpt lat="59.391939640045166" lon="34.6668004989624"><time>2026-08-17T14:35:52.000Z</time><extensions/></trkpt><trkpt lat="59.39189672470093" lon="34.66688632965088"><time>2026-08-17T14:35:55.000Z</time><extensions/></trkpt><trkpt lat="59.39187526702881" lon="34.666972160339355"><time>2026-08-17T14:35:57.000Z</time><extensions/></trkpt><trkpt lat="59.39191818237305" lon="34.666993618011475"><time>2026-08-17T14:36:00.000Z</time><extensions/></trkpt><trkpt lat="59.391982555389404" lon="34.66703653335571"><time>2026-08-17T14:36:02.000Z</time><extensions/></trkpt><trkpt lat="59.39206838607788" lon="34.66707944869995"><time>2026-08-17T14:36:05.000Z</time><extensions/></trkpt><trkpt lat="59.39213275909424" lon="34.667015075683594"><time>2026-08-17T14:36:07.000Z</time><extensions/></trkpt><trkpt lat="59.39206838607788" lon="34.66688632965088"><time>2026-08-17T14:36:30.000Z</time><extensions/></trkpt><trkpt lat="59.39208984375" lon="34.66684341430664"><time>2026-08-17T14:36:32.000Z</time><extensions/></trkpt><trkpt lat="59.39211130142212" lon="34.6668004989624"><time>2026-08-17T14:37:02.000Z</time><extensions/></trkpt><trkpt lat="59.39211130142212" lon="34.6668004989624"><time>2026-08-17T14:37:07.000Z</time><extensions/></trkpt><trkpt lat="59.39208984375" lon="34.6668004989624"><time>2026-08-17T14:37:37.000Z</time><extensions/></trkpt><trkpt lat="59.39211130142212" lon="34.66677904129028"><time>2026-08-17T14:38:07.000Z</time><extensions/></trkpt><trkpt lat="59.39204692840576" lon="34.66677904129028"><time>2026-08-17T14:38:20.000Z</time><extensions/></trkpt><trkpt lat="59.391982555389404" lon="34.66677904129028"><time>2026-08-17T14:38:25.000Z</time><extensions/></trkpt><trkpt lat="59.391961097717285" lon="34.66677904129028"><time>2026-08-17T14:38:27.000Z</time><extensions/></trkpt><trkpt lat="59.39185380935669" lon="34.666714668273926"><time>2026-08-17T14:38:37.000Z</time><extensions/></trkpt><trkpt lat="59.39183235168457" lon="34.66669321060181"><time>2026-08-17T14:38:40.000Z</time><extensions/></trkpt><trkpt lat="59.39183235168457" lon="34.66662883758545"><time>2026-08-17T14:38:42.000Z</time><extensions/></trkpt><trkpt lat="59.39178943634033" lon="34.66665029525757"><time>2026-08-17T14:38:47.000Z</time><extensions/></trkpt><trkpt lat="59.391746520996094" lon="34.66667175292969"><time>2026-08-17T14:38:50.000Z</time><extensions/></trkpt><trkpt lat="59.391682147979736" lon="34.666736125946045"><time>2026-08-17T14:39:02.000Z</time><extensions/></trkpt><trkpt lat="59.391703605651855" lon="34.66684341430664"><time>2026-08-17T14:39:15.000Z</time><extensions/></trkpt><trkpt lat="59.391682147979736" lon="34.66692924499512"><time>2026-08-17T14:39:17.000Z</time><extensions/></trkpt><trkpt lat="59.3916392326355" lon="34.66692924499512"><time>2026-08-17T14:39:20.000Z</time><extensions/></trkpt><trkpt lat="59.39159631729126" lon="34.666972160339355"><time>2026-08-17T14:39:22.000Z</time><extensions/></trkpt><trkpt lat="59.39157485961914" lon="34.66707944869995"><time>2026-08-17T14:39:25.000Z</time><extensions/></trkpt><trkpt lat="59.3915319442749" lon="34.66705799102783"><time>2026-08-17T14:39:27.000Z</time><extensions/></trkpt><trkpt lat="59.39151048660278" lon="34.666993618011475"><time>2026-08-17T14:39:30.000Z</time><extensions/></trkpt><trkpt lat="59.3915319442749" lon="34.666950702667236"><time>2026-08-17T14:39:32.000Z</time><extensions/></trkpt><trkpt lat="59.3915319442749" lon="34.666907787323"><time>2026-08-17T14:39:35.000Z</time><extensions/></trkpt><trkpt lat="59.39155340194702" lon="34.66686487197876"><time>2026-08-17T14:39:37.000Z</time><extensions/></trkpt><trkpt lat="59.39155340194702" lon="34.66684341430664"><time>2026-08-17T14:39:40.000Z</time><extensions/></trkpt><trkpt lat="59.39159631729126" lon="34.66686487197876"><time>2026-08-17T14:39:57.000Z</time><extensions/></trkpt><trkpt lat="59.39157485961914" lon="34.66684341430664"><time>2026-08-17T14:40:20.000Z</time><extensions/></trkpt><trkpt lat="59.39155340194702" lon="34.66682195663452"><time>2026-08-17T14:40:22.000Z</time><extensions/></trkpt><trkpt lat="59.3915319442749" lon="34.666907787323"><time>2026-08-17T14:40:45.000Z</time><extensions/></trkpt><trkpt lat="59.391489028930664" lon="34.66686487197876"><time>2026-08-17T14:40:47.000Z</time><extensions/></trkpt><trkpt lat="59.391446113586426" lon="34.66682195663452"><time>2026-08-17T14:40:50.000Z</time><extensions/></trkpt><trkpt lat="59.39142465591431" lon="34.666736125946045"><time>2026-08-17T14:40:52.000Z</time><extensions/></trkpt><trkpt lat="59.39138174057007" lon="34.666736125946045"><time>2026-08-17T14:40:55.000Z</time><extensions/></trkpt><trkpt lat="59.39136028289795" lon="34.66677904129028"><time>2026-08-17T14:40:57.000Z</time><extensions/></trkpt><trkpt lat="59.39133882522583" lon="34.66686487197876"><time>2026-08-17T14:41:00.000Z</time><extensions/></trkpt><trkpt lat="59.39129590988159" lon="34.666950702667236"><time>2026-08-17T14:41:02.000Z</time><extensions/></trkpt><trkpt lat="59.39129590988159" lon="34.666993618011475"><time>2026-08-17T14:41:05.000Z</time><extensions/></trkpt><trkpt lat="59.39131736755371" lon="34.66703653335571"><time>2026-08-17T14:41:07.000Z</time><extensions/></trkpt><trkpt lat="59.39136028289795" lon="34.666993618011475"><time>2026-08-17T14:41:10.000Z</time><extensions/></trkpt><trkpt lat="59.39140319824219" lon="34.666993618011475"><time>2026-08-17T14:41:12.000Z</time><extensions/></trkpt><trkpt lat="59.39142465591431" lon="34.666993618011475"><time>2026-08-17T14:41:15.000Z</time><extensions/></trkpt><trkpt lat="59.391446113586426" lon="34.667015075683594"><time>2026-08-17T14:41:27.000Z</time><extensions/></trkpt><trkpt lat="59.391446113586426" lon="34.667015075683594"><time>2026-08-17T14:41:57.000Z</time><extensions/></trkpt><trkpt lat="59.391446113586426" lon="34.666993618011475"><time>2026-08-17T14:42:07.000Z</time><extensions/></trkpt><trkpt lat="59.391446113586426" lon="34.666993618011475"><time>2026-08-17T14:42:37.000Z</time><extensions/></trkpt><trkpt lat="59.39140319824219" lon="34.666993618011475"><time>2026-08-17T14:42:50.000Z</time><extensions/></trkpt><trkpt lat="59.39127445220947" lon="34.666950702667236"><time>2026-08-17T14:43:07.000Z</time><extensions/></trkpt><trkpt lat="59.39125299453735" lon="34.66707944869995"><time>2026-08-17T14:43:12.000Z</time><extensions/></trkpt><trkpt lat="59.39125299453735" lon="34.66718673706055"><time>2026-08-17T14:43:15.000Z</time><extensions/></trkpt><trkpt lat="59.391231536865234" lon="34.66731548309326"><time>2026-08-17T14:43:20.000Z</time><extensions/></trkpt><trkpt lat="59.391210079193115" lon="34.6673583984375"><time>2026-08-17T14:43:45.000Z</time><extensions/></trkpt><trkpt lat="59.391188621520996" lon="34.66740131378174"><time>2026-08-17T14:43:47.000Z</time><extensions/></trkpt><trkpt lat="59.391188621520996" lon="34.66742277145386"><time>2026-08-17T14:43:52.000Z</time><extensions/></trkpt><trkpt lat="59.39116716384888" lon="34.66733694076538"><time>2026-08-17T14:43:55.000Z</time><extensions/></trkpt><trkpt lat="59.39114570617676" lon="34.6673583984375"><time>2026-08-17T14:43:57.000Z</time><extensions/></trkpt><trkpt lat="59.39112424850464" lon="34.667465686798096"><time>2026-08-17T14:44:05.000Z</time><extensions/></trkpt><trkpt lat="59.39103841781616" lon="34.66761589050293"><time>2026-08-17T14:44:12.000Z</time><extensions/></trkpt><trkpt lat="59.390974044799805" lon="34.667766094207764"><time>2026-08-17T14:44:20.000Z</time><extensions/></trkpt><trkpt lat="59.390931129455566" lon="34.66793775558472"><time>2026-08-17T14:44:30.000Z</time><extensions/></trkpt><trkpt lat="59.39090967178345" lon="34.66802358627319"><time>2026-08-17T14:44:40.000Z</time><extensions/></trkpt><trkpt lat="59.39086675643921" lon="34.668002128601074"><time>2026-08-17T14:44:42.000Z</time><extensions/></trkpt><trkpt lat="59.39080238342285" lon="34.667959213256836"><time>2026-08-17T14:44:45.000Z</time><extensions/></trkpt><trkpt lat="59.39078092575073" lon="34.668002128601074"><time>2026-08-17T14:44:47.000Z</time><extensions/></trkpt><trkpt lat="59.39078092575073" lon="34.66806650161743"><time>2026-08-17T14:44:50.000Z</time><extensions/></trkpt><trkpt lat="59.39080238342285" lon="34.66815233230591"><time>2026-08-17T14:44:52.000Z</time><extensions/></trkpt><trkpt lat="59.39078092575073" lon="34.668216705322266"><time>2026-08-17T14:44:55.000Z</time><extensions/></trkpt><trkpt lat="59.390738010406494" lon="34.66830253601074"><time>2026-08-17T14:44:57.000Z</time><extensions/></trkpt><trkpt lat="59.39065217971802" lon="34.66834545135498"><time>2026-08-17T14:45:00.000Z</time><extensions/></trkpt><trkpt lat="59.39060926437378" lon="34.6683669090271"><time>2026-08-17T14:45:02.000Z</time><extensions/></trkpt><trkpt lat="59.39060926437378" lon="34.668259620666504"><time>2026-08-17T14:45:05.000Z</time><extensions/></trkpt><trkpt lat="59.3906307220459" lon="34.66815233230591"><time>2026-08-17T14:45:07.000Z</time><extensions/></trkpt><trkpt lat="59.39067363739014" lon="34.66810941696167"><time>2026-08-17T14:45:10.000Z</time><extensions/></trkpt><trkpt lat="59.390716552734375" lon="34.66802358627319"><time>2026-08-17T14:45:15.000Z</time><extensions/></trkpt><trkpt lat="59.39075946807861" lon="34.667959213256836"><time>2026-08-17T14:45:17.000Z</time><extensions/></trkpt><trkpt lat="59.39080238342285" lon="34.66787338256836"><time>2026-08-17T14:45:20.000Z</time><extensions/></trkpt><trkpt lat="59.39086675643921" lon="34.66789484024048"><time>2026-08-17T14:45:22.000Z</time><extensions/></trkpt><trkpt lat="59.39082384109497" lon="34.667980670928955"><time>2026-08-17T14:45:25.000Z</time><extensions/></trkpt><trkpt lat="59.39084529876709" lon="34.66808795928955"><time>2026-08-17T14:45:27.000Z</time><extensions/></trkpt><trkpt lat="59.390931129455566" lon="34.66806650161743"><time>2026-08-17T14:45:30.000Z</time><extensions/></trkpt><trkpt lat="59.39090967178345" lon="34.667959213256836"><time>2026-08-17T14:45:32.000Z</time><extensions/></trkpt><trkpt lat="59.39090967178345" lon="34.668002128601074"><time>2026-08-17T14:45:40.000Z</time><extensions/></trkpt><trkpt lat="59.39088821411133" lon="34.66810941696167"><time>2026-08-17T14:45:42.000Z</time><extensions/></trkpt><trkpt lat="59.39084529876709" lon="34.668238162994385"><time>2026-08-17T14:45:45.000Z</time><extensions/></trkpt><trkpt lat="59.39080238342285" lon="34.66834545135498"><time>2026-08-17T14:45:47.000Z</time><extensions/></trkpt><trkpt lat="59.39075946807861" lon="34.66843128204346"><time>2026-08-17T14:45:50.000Z</time><extensions/></trkpt><trkpt lat="59.390695095062256" lon="34.668474197387695"><time>2026-08-17T14:45:52.000Z</time><extensions/></trkpt><trkpt lat="59.39067363739014" lon="34.668474197387695"><time>2026-08-17T14:45:55.000Z</time><extensions/></trkpt><trkpt lat="59.39060926437378" lon="34.668517112731934"><time>2026-08-17T14:45:57.000Z</time><extensions/></trkpt><trkpt lat="59.39056634902954" lon="34.66843128204346"><time>2026-08-17T14:46:00.000Z</time><extensions/></trkpt><trkpt lat="59.39056634902954" lon="34.66832399368286"><time>2026-08-17T14:46:07.000Z</time><extensions/></trkpt><trkpt lat="59.39058780670166" lon="34.668259620666504"><time>2026-08-17T14:46:10.000Z</time><extensions/></trkpt><trkpt lat="59.39058780670166" lon="34.66815233230591"><time>2026-08-17T14:46:12.000Z</time><extensions/></trkpt><trkpt lat="59.39060926437378" lon="34.66804504394531"><time>2026-08-17T14:46:15.000Z</time><extensions/></trkpt><trkpt lat="59.39065217971802" lon="34.66802358627319"><time>2026-08-17T14:46:17.000Z</time><extensions/></trkpt><trkpt lat="59.39065217971802" lon="34.667959213256836"><time>2026-08-17T14:46:22.000Z</time><extensions/></trkpt><trkpt lat="59.390695095062256" lon="34.66793775558472"><time>2026-08-17T14:46:25.000Z</time><extensions/></trkpt><trkpt lat="59.39075946807861" lon="34.667959213256836"><time>2026-08-17T14:46:27.000Z</time><extensions/></trkpt><trkpt lat="59.39067363739014" lon="34.66815233230591"><time>2026-08-17T14:46:30.000Z</time><extensions/></trkpt><trkpt lat="59.39060926437378" lon="34.668259620666504"><time>2026-08-17T14:46:32.000Z</time><extensions/></trkpt><trkpt lat="59.39058780670166" lon="34.66832399368286"><time>2026-08-17T14:46:35.000Z</time><extensions/></trkpt><trkpt lat="59.39054489135742" lon="34.66840982437134"><time>2026-08-17T14:46:37.000Z</time><extensions/></trkpt><trkpt lat="59.3905234336853" lon="34.66853857040405"><time>2026-08-17T14:46:40.000Z</time><extensions/></trkpt><trkpt lat="59.390501976013184" lon="34.66864585876465"><time>2026-08-17T14:46:42.000Z</time><extensions/></trkpt><trkpt lat="59.390501976013184" lon="34.668753147125244"><time>2026-08-17T14:46:45.000Z</time><extensions/></trkpt><trkpt lat="59.390459060668945" lon="34.6688175201416"><time>2026-08-17T14:46:47.000Z</time><extensions/></trkpt><trkpt lat="59.39041614532471" lon="34.66886043548584"><time>2026-08-17T14:46:50.000Z</time><extensions/></trkpt><trkpt lat="59.39037322998047" lon="34.66890335083008"><time>2026-08-17T14:46:52.000Z</time><extensions/></trkpt><trkpt lat="59.39033031463623" lon="34.66886043548584"><time>2026-08-17T14:46:55.000Z</time><extensions/></trkpt><trkpt lat="59.39030885696411" lon="34.66886043548584"><time>2026-08-17T14:46:57.000Z</time><extensions/></trkpt><trkpt lat="59.39028739929199" lon="34.66883897781372"><time>2026-08-17T14:47:00.000Z</time><extensions/></trkpt><trkpt lat="59.39026594161987" lon="34.6688175201416"><time>2026-08-17T14:47:30.000Z</time><extensions/></trkpt><trkpt lat="59.39026594161987" lon="34.6688175201416"><time>2026-08-17T14:47:52.000Z</time><extensions/></trkpt><trkpt lat="59.390244483947754" lon="34.66886043548584"><time>2026-08-17T14:47:57.000Z</time><extensions/></trkpt><trkpt lat="59.390244483947754" lon="34.668967723846436"><time>2026-08-17T14:48:00.000Z</time><extensions/></trkpt><trkpt lat="59.39028739929199" lon="34.668989181518555"><time>2026-08-17T14:48:02.000Z</time><extensions/></trkpt><trkpt lat="59.39026594161987" lon="34.66909646987915"><time>2026-08-17T14:48:05.000Z</time><extensions/></trkpt><trkpt lat="59.39026594161987" lon="34.669203758239746"><time>2026-08-17T14:48:07.000Z</time><extensions/></trkpt><trkpt lat="59.39026594161987" lon="34.6693754196167"><time>2026-08-17T14:48:15.000Z</time><extensions/></trkpt><trkpt lat="59.390223026275635" lon="34.6693754196167"><time>2026-08-17T14:48:17.000Z</time><extensions/></trkpt><trkpt lat="59.390223026275635" lon="34.6693754196167"><time>2026-08-17T14:48:20.000Z</time><extensions/></trkpt><trkpt lat="59.390244483947754" lon="34.66941833496094"><time>2026-08-17T14:48:22.000Z</time><extensions/></trkpt><trkpt lat="59.39026594161987" lon="34.669482707977295"><time>2026-08-17T14:48:25.000Z</time><extensions/></trkpt><trkpt lat="59.39028739929199" lon="34.66954708099365"><time>2026-08-17T14:48:27.000Z</time><extensions/></trkpt><trkpt lat="59.39033031463623" lon="34.66963291168213"><time>2026-08-17T14:48:30.000Z</time><extensions/></trkpt><trkpt lat="59.39037322998047" lon="34.669718742370605"><time>2026-08-17T14:48:32.000Z</time><extensions/></trkpt><trkpt lat="59.39039468765259" lon="34.669697284698486"><time>2026-08-17T14:48:35.000Z</time><extensions/></trkpt><trkpt lat="59.39037322998047" lon="34.66958999633789"><time>2026-08-17T14:48:37.000Z</time><extensions/></trkpt><trkpt lat="59.39039468765259" lon="34.66963291168213"><time>2026-08-17T14:48:42.000Z</time><extensions/></trkpt><trkpt lat="59.39041614532471" lon="34.66980457305908"><time>2026-08-17T14:48:45.000Z</time><extensions/></trkpt><trkpt lat="59.39035177230835" lon="34.66986894607544"><time>2026-08-17T14:48:47.000Z</time><extensions/></trkpt><trkpt lat="59.39026594161987" lon="34.66980457305908"><time>2026-08-17T14:48:50.000Z</time><extensions/></trkpt><trkpt lat="59.390201568603516" lon="34.669718742370605"><time>2026-08-17T14:48:52.000Z</time><extensions/></trkpt><trkpt lat="59.39015865325928" lon="34.669697284698486"><time>2026-08-17T14:48:55.000Z</time><extensions/></trkpt><trkpt lat="59.39013719558716" lon="34.669740200042725"><time>2026-08-17T14:48:57.000Z</time><extensions/></trkpt><trkpt lat="59.39009428024292" lon="34.669761657714844"><time>2026-08-17T14:49:00.000Z</time><extensions/></trkpt><trkpt lat="59.3900728225708" lon="34.669740200042725"><time>2026-08-17T14:49:02.000Z</time><extensions/></trkpt><trkpt lat="59.39005136489868" lon="34.6698260307312"><time>2026-08-17T14:49:10.000Z</time><extensions/></trkpt><trkpt lat="59.39002990722656" lon="34.66989040374756"><time>2026-08-17T14:49:12.000Z</time><extensions/></trkpt><trkpt lat="59.39002990722656" lon="34.6699333190918"><time>2026-08-17T14:49:15.000Z</time><extensions/></trkpt><trkpt lat="59.39002990722656" lon="34.67001914978027"><time>2026-08-17T14:49:17.000Z</time><extensions/></trkpt><trkpt lat="59.39000844955444" lon="34.67010498046875"><time>2026-08-17T14:49:20.000Z</time><extensions/></trkpt><trkpt lat="59.39005136489868" lon="34.67014789581299"><time>2026-08-17T14:49:22.000Z</time><extensions/></trkpt><trkpt lat="59.39005136489868" lon="34.670233726501465"><time>2026-08-17T14:49:27.000Z</time><extensions/></trkpt><trkpt lat="59.39002990722656" lon="34.67036247253418"><time>2026-08-17T14:49:30.000Z</time><extensions/></trkpt><trkpt lat="59.389986991882324" lon="34.6703839302063"><time>2026-08-17T14:49:32.000Z</time><extensions/></trkpt><trkpt lat="59.38992261886597" lon="34.67034101486206"><time>2026-08-17T14:49:35.000Z</time><extensions/></trkpt><trkpt lat="59.38987970352173" lon="34.670255184173584"><time>2026-08-17T14:49:37.000Z</time><extensions/></trkpt><trkpt lat="59.38983678817749" lon="34.670233726501465"><time>2026-08-17T14:49:40.000Z</time><extensions/></trkpt><trkpt lat="59.389965534210205" lon="34.67019081115723"><time>2026-08-17T14:50:02.000Z</time><extensions/></trkpt><trkpt lat="59.389965534210205" lon="34.67016935348511"><time>2026-08-17T14:50:32.000Z</time><extensions/></trkpt><trkpt lat="59.389965534210205" lon="34.67016935348511"><time>2026-08-17T14:50:35.000Z</time><extensions/></trkpt><trkpt lat="59.38992261886597" lon="34.670212268829346"><time>2026-08-17T14:50:47.000Z</time><extensions/></trkpt><trkpt lat="59.38987970352173" lon="34.67031955718994"><time>2026-08-17T14:50:50.000Z</time><extensions/></trkpt><trkpt lat="59.38985824584961" lon="34.6703839302063"><time>2026-08-17T14:50:52.000Z</time><extensions/></trkpt><trkpt lat="59.38981533050537" lon="34.67036247253418"><time>2026-08-17T14:50:55.000Z</time><extensions/></trkpt><trkpt lat="59.38979387283325" lon="34.67029809951782"><time>2026-08-17T14:50:57.000Z</time><extensions/></trkpt><trkpt lat="59.389729499816895" lon="34.67034101486206"><time>2026-08-17T14:51:05.000Z</time><extensions/></trkpt><trkpt lat="59.389686584472656" lon="34.67036247253418"><time>2026-08-17T14:51:07.000Z</time><extensions/></trkpt><trkpt lat="59.389686584472656" lon="34.670448303222656"><time>2026-08-17T14:51:10.000Z</time><extensions/></trkpt><trkpt lat="59.389729499816895" lon="34.67053413391113"><time>2026-08-17T14:51:12.000Z</time><extensions/></trkpt><trkpt lat="59.389708042144775" lon="34.67059850692749"><time>2026-08-17T14:51:15.000Z</time><extensions/></trkpt><trkpt lat="59.38966512680054" lon="34.67061996459961"><time>2026-08-17T14:51:17.000Z</time><extensions/></trkpt><trkpt lat="59.38957929611206" lon="34.67064142227173"><time>2026-08-17T14:51:20.000Z</time><extensions/></trkpt><trkpt lat="59.38960075378418" lon="34.670705795288086"><time>2026-08-17T14:51:22.000Z</time><extensions/></trkpt><trkpt lat="59.38964366912842" lon="34.67068433761597"><time>2026-08-17T14:51:25.000Z</time><extensions/></trkpt><trkpt lat="59.389686584472656" lon="34.67059850692749"><time>2026-08-17T14:51:27.000Z</time><extensions/></trkpt><trkpt lat="59.38966512680054" lon="34.67053413391113"><time>2026-08-17T14:51:30.000Z</time><extensions/></trkpt><trkpt lat="59.3896222114563" lon="34.67053413391113"><time>2026-08-17T14:51:32.000Z</time><extensions/></trkpt><trkpt lat="59.38957929611206" lon="34.670512676239014"><time>2026-08-17T14:51:35.000Z</time><extensions/></trkpt><trkpt lat="59.38955783843994" lon="34.67040538787842"><time>2026-08-17T14:51:37.000Z</time><extensions/></trkpt><trkpt lat="59.3895149230957" lon="34.67042684555054"><time>2026-08-17T14:51:55.000Z</time><extensions/></trkpt><trkpt lat="59.3895149230957" lon="34.67036247253418"><time>2026-08-17T14:51:57.000Z</time><extensions/></trkpt><trkpt lat="59.3895149230957" lon="34.67031955718994"><time>2026-08-17T14:52:00.000Z</time><extensions/></trkpt><trkpt lat="59.3895149230957" lon="34.670233726501465"><time>2026-08-17T14:52:02.000Z</time><extensions/></trkpt><trkpt lat="59.389493465423584" lon="34.670233726501465"><time>2026-08-17T14:52:05.000Z</time><extensions/></trkpt><trkpt lat="59.389450550079346" lon="34.67029809951782"><time>2026-08-17T14:52:07.000Z</time><extensions/></trkpt><trkpt lat="59.389450550079346" lon="34.67042684555054"><time>2026-08-17T14:52:10.000Z</time><extensions/></trkpt><trkpt lat="59.38942909240723" lon="34.670512676239014"><time>2026-08-17T14:52:12.000Z</time><extensions/></trkpt><trkpt lat="59.38936471939087" lon="34.67057704925537"><time>2026-08-17T14:52:15.000Z</time><extensions/></trkpt><trkpt lat="59.38932180404663" lon="34.67057704925537"><time>2026-08-17T14:52:17.000Z</time><extensions/></trkpt><trkpt lat="59.38936471939087" lon="34.67053413391113"><time>2026-08-17T14:52:22.000Z</time><extensions/></trkpt><trkpt lat="59.38938617706299" lon="34.670512676239014"><time>2026-08-17T14:52:25.000Z</time><extensions/></trkpt><trkpt lat="59.38940763473511" lon="34.670491218566895"><time>2026-08-17T14:52:27.000Z</time><extensions/></trkpt><trkpt lat="59.38938617706299" lon="34.67055559158325"><time>2026-08-17T14:52:40.000Z</time><extensions/></trkpt><trkpt lat="59.38934326171875" lon="34.67066287994385"><time>2026-08-17T14:52:42.000Z</time><extensions/></trkpt><trkpt lat="59.38930034637451" lon="34.67068433761597"><time>2026-08-17T14:52:45.000Z</time><extensions/></trkpt><trkpt lat="59.389235973358154" lon="34.670748710632324"><time>2026-08-17T14:52:47.000Z</time><extensions/></trkpt><trkpt lat="59.389193058013916" lon="34.67077016830444"><time>2026-08-17T14:52:50.000Z</time><extensions/></trkpt><trkpt lat="59.38915014266968" lon="34.67077016830444"><time>2026-08-17T14:53:15.000Z</time><extensions/></trkpt><trkpt lat="59.38912868499756" lon="34.67068433761597"><time>2026-08-17T14:53:17.000Z</time><extensions/></trkpt><trkpt lat="59.38912868499756" lon="34.67059850692749"><time>2026-08-17T14:53:20.000Z</time><extensions/></trkpt><trkpt lat="59.38915014266968" lon="34.67055559158325"><time>2026-08-17T14:53:22.000Z</time><extensions/></trkpt><trkpt lat="59.389214515686035" lon="34.67061996459961"><time>2026-08-17T14:53:30.000Z</time><extensions/></trkpt><trkpt lat="59.38925743103027" lon="34.67059850692749"><time>2026-08-17T14:53:32.000Z</time><extensions/></trkpt><trkpt lat="59.38927888870239" lon="34.67059850692749"><time>2026-08-17T14:54:02.000Z</time><extensions/></trkpt><trkpt lat="59.38925743103027" lon="34.67059850692749"><time>2026-08-17T14:54:07.000Z</time><extensions/></trkpt><trkpt lat="59.389214515686035" lon="34.67064142227173"><time>2026-08-17T14:54:10.000Z</time><extensions/></trkpt><trkpt lat="59.389193058013916" lon="34.67066287994385"><time>2026-08-17T14:54:12.000Z</time><extensions/></trkpt><trkpt lat="59.3891716003418" lon="34.67064142227173"><time>2026-08-17T14:54:27.000Z</time><extensions/></trkpt><trkpt lat="59.38915014266968" lon="34.67061996459961"><time>2026-08-17T14:54:37.000Z</time><extensions/></trkpt><trkpt lat="59.38910722732544" lon="34.67061996459961"><time>2026-08-17T14:54:40.000Z</time><extensions/></trkpt><trkpt lat="59.38910722732544" lon="34.67066287994385"><time>2026-08-17T14:54:42.000Z</time><extensions/></trkpt><trkpt lat="59.3890643119812" lon="34.670727252960205"><time>2026-08-17T14:54:45.000Z</time><extensions/></trkpt><trkpt lat="59.388999938964844" lon="34.67077016830444"><time>2026-08-17T14:54:47.000Z</time><extensions/></trkpt><trkpt lat="59.388957023620605" lon="34.67081308364868"><time>2026-08-17T14:54:50.000Z</time><extensions/></trkpt><trkpt lat="59.38891410827637" lon="34.6708345413208"><time>2026-08-17T14:54:52.000Z</time><extensions/></trkpt><trkpt lat="59.38884973526001" lon="34.67087745666504"><time>2026-08-17T14:54:55.000Z</time><extensions/></trkpt><trkpt lat="59.38882827758789" lon="34.67089891433716"><time>2026-08-17T14:54:57.000Z</time><extensions/></trkpt><trkpt lat="59.38878536224365" lon="34.67087745666504"><time>2026-08-17T14:55:00.000Z</time><extensions/></trkpt><trkpt lat="59.38876390457153" lon="34.6708345413208"><time>2026-08-17T14:55:02.000Z</time><extensions/></trkpt><trkpt lat="59.38876390457153" lon="34.67085599899292"><time>2026-08-17T14:55:25.000Z</time><extensions/></trkpt><trkpt lat="59.388720989227295" lon="34.67085599899292"><time>2026-08-17T14:55:27.000Z</time><extensions/></trkpt><trkpt lat="59.388699531555176" lon="34.67081308364868"><time>2026-08-17T14:55:30.000Z</time><extensions/></trkpt><trkpt lat="59.38867807388306" lon="34.67079162597656"><time>2026-08-17T14:55:32.000Z</time><extensions/></trkpt><trkpt lat="59.38865661621094" lon="34.67085599899292"><time>2026-08-17T14:55:35.000Z</time><extensions/></trkpt><trkpt lat="59.38867807388306" lon="34.67092037200928"><time>2026-08-17T14:55:37.000Z</time><extensions/></trkpt><trkpt lat="59.388699531555176" lon="34.670963287353516"><time>2026-08-17T14:55:40.000Z</time><extensions/></trkpt><trkpt lat="59.38878536224365" lon="34.67092037200928"><time>2026-08-17T14:56:00.000Z</time><extensions/></trkpt><trkpt lat="59.38878536224365" lon="34.67089891433716"><time>2026-08-17T14:56:30.000Z</time><extensions/></trkpt><trkpt lat="59.38880681991577" lon="34.67089891433716"><time>2026-08-17T14:56:40.000Z</time><extensions/></trkpt><trkpt lat="59.38882827758789" lon="34.67087745666504"><time>2026-08-17T14:57:10.000Z</time><extensions/></trkpt><trkpt lat="59.38878536224365" lon="34.67087745666504"><time>2026-08-17T14:57:25.000Z</time><extensions/></trkpt><trkpt lat="59.38876390457153" lon="34.67087745666504"><time>2026-08-17T14:57:27.000Z</time><extensions/></trkpt><trkpt lat="59.388699531555176" lon="34.671006202697754"><time>2026-08-17T14:57:35.000Z</time><extensions/></trkpt><trkpt lat="59.38867807388306" lon="34.67104911804199"><time>2026-08-17T14:57:37.000Z</time><extensions/></trkpt><trkpt lat="59.38863515853882" lon="34.67111349105835"><time>2026-08-17T14:57:40.000Z</time><extensions/></trkpt><trkpt lat="59.3886137008667" lon="34.67115640640259"><time>2026-08-17T14:57:42.000Z</time><extensions/></trkpt><trkpt lat="59.38857078552246" lon="34.671199321746826"><time>2026-08-17T14:57:45.000Z</time><extensions/></trkpt><trkpt lat="59.38854932785034" lon="34.671199321746826"><time>2026-08-17T14:57:50.000Z</time><extensions/></trkpt><trkpt lat="59.38852787017822" lon="34.67109203338623"><time>2026-08-17T14:57:57.000Z</time><extensions/></trkpt><trkpt lat="59.38854932785034" lon="34.67107057571411"><time>2026-08-17T14:58:00.000Z</time><extensions/></trkpt><trkpt lat="59.38857078552246" lon="34.67104911804199"><time>2026-08-17T14:58:02.000Z</time><extensions/></trkpt><trkpt lat="59.38859224319458" lon="34.670984745025635"><time>2026-08-17T14:58:05.000Z</time><extensions/></trkpt><trkpt lat="59.38857078552246" lon="34.6709418296814"><time>2026-08-17T14:58:07.000Z</time><extensions/></trkpt><trkpt lat="59.38852787017822" lon="34.6709418296814"><time>2026-08-17T14:58:10.000Z</time><extensions/></trkpt><trkpt lat="59.388484954833984" lon="34.670963287353516"><time>2026-08-17T14:58:12.000Z</time><extensions/></trkpt><trkpt lat="59.388442039489746" lon="34.6709418296814"><time>2026-08-17T14:58:15.000Z</time><extensions/></trkpt><trkpt lat="59.38842058181763" lon="34.6709418296814"><time>2026-08-17T14:58:17.000Z</time><extensions/></trkpt><trkpt lat="59.38842058181763" lon="34.67089891433716"><time>2026-08-17T14:58:20.000Z</time><extensions/></trkpt><trkpt lat="59.38842058181763" lon="34.6708345413208"><time>2026-08-17T14:58:22.000Z</time><extensions/></trkpt><trkpt lat="59.38842058181763" lon="34.670748710632324"><time>2026-08-17T14:58:30.000Z</time><extensions/></trkpt><trkpt lat="59.38837766647339" lon="34.670727252960205"><time>2026-08-17T14:58:32.000Z</time><extensions/></trkpt><trkpt lat="59.38831329345703" lon="34.67081308364868"><time>2026-08-17T14:58:35.000Z</time><extensions/></trkpt><trkpt lat="59.38831329345703" lon="34.6709418296814"><time>2026-08-17T14:58:37.000Z</time><extensions/></trkpt><trkpt lat="59.38833475112915" lon="34.67107057571411"><time>2026-08-17T14:58:40.000Z</time><extensions/></trkpt><trkpt lat="59.38839912414551" lon="34.67117786407471"><time>2026-08-17T14:58:42.000Z</time><extensions/></trkpt><trkpt lat="59.388442039489746" lon="34.671263694763184"><time>2026-08-17T14:58:45.000Z</time><extensions/></trkpt><trkpt lat="59.38837766647339" lon="34.67134952545166"><time>2026-08-17T14:58:55.000Z</time><extensions/></trkpt><trkpt lat="59.38835620880127" lon="34.67137098312378"><time>2026-08-17T14:58:57.000Z</time><extensions/></trkpt><trkpt lat="59.38833475112915" lon="34.67141389846802"><time>2026-08-17T14:59:00.000Z</time><extensions/></trkpt><trkpt lat="59.38831329345703" lon="34.67143535614014"><time>2026-08-17T14:59:02.000Z</time><extensions/></trkpt><trkpt lat="59.38827037811279" lon="34.67143535614014"><time>2026-08-17T14:59:05.000Z</time><extensions/></trkpt><trkpt lat="59.388248920440674" lon="34.67143535614014"><time>2026-08-17T14:59:07.000Z</time><extensions/></trkpt><trkpt lat="59.3881630897522" lon="34.671478271484375"><time>2026-08-17T14:59:17.000Z</time><extensions/></trkpt><trkpt lat="59.388184547424316" lon="34.67162847518921"><time>2026-08-17T14:59:22.000Z</time><extensions/></trkpt><trkpt lat="59.388227462768555" lon="34.67167139053345"><time>2026-08-17T14:59:25.000Z</time><extensions/></trkpt><trkpt lat="59.38827037811279" lon="34.67167139053345"><time>2026-08-17T14:59:27.000Z</time><extensions/></trkpt><trkpt lat="59.38833475112915" lon="34.67162847518921"><time>2026-08-17T14:59:30.000Z</time><extensions/></trkpt><trkpt lat="59.38837766647339" lon="34.67154264450073"><time>2026-08-17T14:59:32.000Z</time><extensions/></trkpt><trkpt lat="59.38837766647339" lon="34.671714305877686"><time>2026-08-17T14:59:40.000Z</time><extensions/></trkpt><trkpt lat="59.38837766647339" lon="34.67180013656616"><time>2026-08-17T14:59:42.000Z</time><extensions/></trkpt><trkpt lat="59.38835620880127" lon="34.67188596725464"><time>2026-08-17T14:59:45.000Z</time><extensions/></trkpt><trkpt lat="59.38831329345703" lon="34.67190742492676"><time>2026-08-17T14:59:47.000Z</time><extensions/></trkpt><trkpt lat="59.388248920440674" lon="34.67190742492676"><time>2026-08-17T14:59:50.000Z</time><extensions/></trkpt><trkpt lat="59.388206005096436" lon="34.671950340270996"><time>2026-08-17T14:59:52.000Z</time><extensions/></trkpt><trkpt lat="59.3881630897522" lon="34.671950340270996"><time>2026-08-17T14:59:55.000Z</time><extensions/></trkpt><trkpt lat="59.3881630897522" lon="34.67188596725464"><time>2026-08-17T14:59:57.000Z</time><extensions/></trkpt><trkpt lat="59.3881630897522" lon="34.67188596725464"><time>2026-08-17T15:00:07.000Z</time><extensions/></trkpt><trkpt lat="59.388206005096436" lon="34.67186450958252"><time>2026-08-17T15:00:17.000Z</time><extensions/></trkpt><trkpt lat="59.388248920440674" lon="34.671950340270996"><time>2026-08-17T15:00:30.000Z</time><extensions/></trkpt><trkpt lat="59.388248920440674" lon="34.67201471328735"><time>2026-08-17T15:00:32.000Z</time><extensions/></trkpt><trkpt lat="59.388184547424316" lon="34.67203617095947"><time>2026-08-17T15:00:42.000Z</time><extensions/></trkpt><trkpt lat="59.38814163208008" lon="34.67203617095947"><time>2026-08-17T15:00:45.000Z</time><extensions/></trkpt><trkpt lat="59.38809871673584" lon="34.671993255615234"><time>2026-08-17T15:00:47.000Z</time><extensions/></trkpt><trkpt lat="59.38807725906372" lon="34.67203617095947"><time>2026-08-17T15:00:50.000Z</time><extensions/></trkpt><trkpt lat="59.3880558013916" lon="34.67207908630371"><time>2026-08-17T15:00:52.000Z</time><extensions/></trkpt><trkpt lat="59.38803434371948" lon="34.67212200164795"><time>2026-08-17T15:00:55.000Z</time><extensions/></trkpt><trkpt lat="59.387991428375244" lon="34.67218637466431"><time>2026-08-17T15:00:57.000Z</time><extensions/></trkpt><trkpt lat="59.387969970703125" lon="34.672229290008545"><time>2026-08-17T15:01:00.000Z</time><extensions/></trkpt><trkpt lat="59.38792705535889" lon="34.67227220535278"><time>2026-08-17T15:01:02.000Z</time><extensions/></trkpt><trkpt lat="59.387948513031006" lon="34.67227220535278"><time>2026-08-17T15:01:10.000Z</time><extensions/></trkpt><trkpt lat="59.387969970703125" lon="34.67218637466431"><time>2026-08-17T15:01:12.000Z</time><extensions/></trkpt><trkpt lat="59.38801288604736" lon="34.67218637466431"><time>2026-08-17T15:01:15.000Z</time><extensions/></trkpt><trkpt lat="59.387991428375244" lon="34.672229290008545"><time>2026-08-17T15:01:17.000Z</time><extensions/></trkpt><trkpt lat="59.387991428375244" lon="34.67205762863159"><time>2026-08-17T15:01:27.000Z</time><extensions/></trkpt><trkpt lat="59.387991428375244" lon="34.67201471328735"><time>2026-08-17T15:01:30.000Z</time><extensions/></trkpt><trkpt lat="59.387991428375244" lon="34.671950340270996"><time>2026-08-17T15:01:32.000Z</time><extensions/></trkpt><trkpt lat="59.387969970703125" lon="34.67186450958252"><time>2026-08-17T15:01:35.000Z</time><extensions/></trkpt><trkpt lat="59.387969970703125" lon="34.67177867889404"><time>2026-08-17T15:01:37.000Z</time><extensions/></trkpt><trkpt lat="59.387948513031006" lon="34.67180013656616"><time>2026-08-17T15:01:40.000Z</time><extensions/></trkpt><trkpt lat="59.38792705535889" lon="34.67186450958252"><time>2026-08-17T15:01:42.000Z</time><extensions/></trkpt><trkpt lat="59.38788414001465" lon="34.671950340270996"><time>2026-08-17T15:01:45.000Z</time><extensions/></trkpt><trkpt lat="59.38788414001465" lon="34.67205762863159"><time>2026-08-17T15:01:47.000Z</time><extensions/></trkpt><trkpt lat="59.38788414001465" lon="34.67216491699219"><time>2026-08-17T15:01:50.000Z</time><extensions/></trkpt><trkpt lat="59.38788414001465" lon="34.672250747680664"><time>2026-08-17T15:01:52.000Z</time><extensions/></trkpt><trkpt lat="59.387948513031006" lon="34.672207832336426"><time>2026-08-17T15:02:02.000Z</time><extensions/></trkpt><trkpt lat="59.387948513031006" lon="34.672229290008545"><time>2026-08-17T15:02:12.000Z</time><extensions/></trkpt><trkpt lat="59.38790559768677" lon="34.67227220535278"><time>2026-08-17T15:02:15.000Z</time><extensions/></trkpt><trkpt lat="59.38790559768677" lon="34.67231512069702"><time>2026-08-17T15:02:17.000Z</time><extensions/></trkpt><trkpt lat="59.38786268234253" lon="34.67235803604126"><time>2026-08-17T15:02:20.000Z</time><extensions/></trkpt><trkpt lat="59.38784122467041" lon="34.6724009513855"><time>2026-08-17T15:02:22.000Z</time><extensions/></trkpt><trkpt lat="59.38781976699829" lon="34.672465324401855"><time>2026-08-17T15:02:25.000Z</time><extensions/></trkpt><trkpt lat="59.38786268234253" lon="34.67237949371338"><time>2026-08-17T15:02:40.000Z</time><extensions/></trkpt><trkpt lat="59.38788414001465" lon="34.67233657836914"><time>2026-08-17T15:02:42.000Z</time><extensions/></trkpt><trkpt lat="59.38790559768677" lon="34.67231512069702"><time>2026-08-17T15:02:55.000Z</time><extensions/></trkpt><trkpt lat="59.38790559768677" lon="34.67231512069702"><time>2026-08-17T15:03:12.000Z</time><extensions/></trkpt><trkpt lat="59.38788414001465" lon="34.67231512069702"><time>2026-08-17T15:03:42.000Z</time><extensions/></trkpt><trkpt lat="59.38788414001465" lon="34.6722936630249"><time>2026-08-17T15:04:12.000Z</time><extensions/></trkpt><trkpt lat="59.38790559768677" lon="34.67227220535278"><time>2026-08-17T15:04:42.000Z</time><extensions/></trkpt><trkpt lat="59.38790559768677" lon="34.67227220535278"><time>2026-08-17T15:05:12.000Z</time><extensions/></trkpt><trkpt lat="59.38790559768677" lon="34.672250747680664"><time>2026-08-17T15:05:42.000Z</time><extensions/></trkpt><trkpt lat="59.38790559768677" lon="34.67227220535278"><time>2026-08-17T15:06:12.000Z</time><extensions/></trkpt><trkpt lat="59.38790559768677" lon="34.672250747680664"><time>2026-08-17T15:06:42.000Z</time><extensions/></trkpt><trkpt lat="59.38790559768677" lon="34.67227220535278"><time>2026-08-17T15:07:12.000Z</time><extensions/></trkpt><trkpt lat="59.38790559768677" lon="34.672250747680664"><time>2026-08-17T15:07:42.000Z</time><extensions/></trkpt><trkpt lat="59.38790559768677" lon="34.672250747680664"><time>2026-08-17T15:08:12.000Z</time><extensions/></trkpt><trkpt lat="59.38790559768677" lon="34.672250747680664"><time>2026-08-17T15:08:42.000Z</time><extensions/></trkpt><trkpt lat="59.38790559768677" lon="34.672250747680664"><time>2026-08-17T15:09:12.000Z</time><extensions/></trkpt><trkpt lat="59.38790559768677" lon="34.672250747680664"><time>2026-08-17T15:09:42.000Z</time><extensions/></trkpt><trkpt lat="59.38790559768677" lon="34.67227220535278"><time>2026-08-17T15:10:12.000Z</time><extensions/></trkpt><trkpt lat="59.38790559768677" lon="34.67227220535278"><time>2026-08-17T15:10:42.000Z</time><extensions/></trkpt><trkpt lat="59.38790559768677" lon="34.67227220535278"><time>2026-08-17T15:11:12.000Z</time><extensions/></trkpt><trkpt lat="59.38790559768677" lon="34.67227220535278"><time>2026-08-17T15:11:42.000Z</time><extensions/></trkpt><trkpt lat="59.38790559768677" lon="34.67227220535278"><time>2026-08-17T15:12:12.000Z</time><extensions/></trkpt><trkpt lat="59.38790559768677" lon="34.672250747680664"><time>2026-08-17T15:12:42.000Z</time><extensions/></trkpt><trkpt lat="59.38790559768677" lon="34.672250747680664"><time>2026-08-17T15:13:12.000Z</time><extensions/></trkpt><trkpt lat="59.38790559768677" lon="34.672250747680664"><time>2026-08-17T15:13:42.000Z</time><extensions/></trkpt><trkpt lat="59.38790559768677" lon="34.672250747680664"><time>2026-08-17T15:14:12.000Z</time><extensions/></trkpt><trkpt lat="59.38790559768677" lon="34.672250747680664"><time>2026-08-17T15:14:42.000Z</time><extensions/></trkpt><trkpt lat="59.38790559768677" lon="34.672250747680664"><time>2026-08-17T15:15:12.000Z</time><extensions/></trkpt><trkpt lat="59.38790559768677" lon="34.67227220535278"><time>2026-08-17T15:15:42.000Z</time><extensions/></trkpt><trkpt lat="59.38790559768677" lon="34.67227220535278"><time>2026-08-17T15:16:12.000Z</time><extensions/></trkpt><trkpt lat="59.38790559768677" lon="34.67227220535278"><time>2026-08-17T15:16:42.000Z</time><extensions/></trkpt><trkpt lat="59.38790559768677" lon="34.67227220535278"><time>2026-08-17T15:17:12.000Z</time><extensions/></trkpt><trkpt lat="59.38790559768677" lon="34.672250747680664"><time>2026-08-17T15:17:42.000Z</time><extensions/></trkpt><trkpt lat="59.38790559768677" lon="34.67227220535278"><time>2026-08-17T15:17:45.000Z</time><extensions/></trkpt><trkpt lat="59.38790559768677" lon="34.6724009513855"><time>2026-08-17T15:17:57.000Z</time><extensions/></trkpt><trkpt lat="59.38788414001465" lon="34.672508239746094"><time>2026-08-17T15:18:00.000Z</time><extensions/></trkpt><trkpt lat="59.38784122467041" lon="34.67257261276245"><time>2026-08-17T15:18:02.000Z</time><extensions/></trkpt><trkpt lat="59.38781976699829" lon="34.67265844345093"><time>2026-08-17T15:18:05.000Z</time><extensions/></trkpt><trkpt lat="59.38779830932617" lon="34.672701358795166"><time>2026-08-17T15:18:07.000Z</time><extensions/></trkpt><trkpt lat="59.38779830932617" lon="34.6728515625"><time>2026-08-17T15:18:17.000Z</time><extensions/></trkpt><trkpt lat="59.38784122467041" lon="34.67293739318848"><time>2026-08-17T15:18:20.000Z</time><extensions/></trkpt><trkpt lat="59.38784122467041" lon="34.67278718948364"><time>2026-08-17T15:18:32.000Z</time><extensions/></trkpt><trkpt lat="59.38781976699829" lon="34.67259407043457"><time>2026-08-17T15:18:35.000Z</time><extensions/></trkpt><trkpt lat="59.38784122467041" lon="34.672465324401855"><time>2026-08-17T15:18:37.000Z</time><extensions/></trkpt><trkpt lat="59.38786268234253" lon="34.67237949371338"><time>2026-08-17T15:18:40.000Z</time><extensions/></trkpt><trkpt lat="59.38788414001465" lon="34.6722936630249"><time>2026-08-17T15:18:42.000Z</time><extensions/></trkpt><trkpt lat="59.38788414001465" lon="34.67233657836914"><time>2026-08-17T15:19:12.000Z</time><extensions/></trkpt><trkpt lat="59.38786268234253" lon="34.672229290008545"><time>2026-08-17T15:19:37.000Z</time><extensions/></trkpt><trkpt lat="59.38788414001465" lon="34.67231512069702"><time>2026-08-17T15:20:07.000Z</time><extensions/></trkpt><trkpt lat="59.38788414001465" lon="34.67231512069702"><time>2026-08-17T15:20:37.000Z</time><extensions/></trkpt><trkpt lat="59.38786268234253" lon="34.67231512069702"><time>2026-08-17T15:21:07.000Z</time><extensions/></trkpt><trkpt lat="59.38779830932617" lon="34.67216491699219"><time>2026-08-17T15:21:35.000Z</time><extensions/></trkpt><trkpt lat="59.387755393981934" lon="34.67212200164795"><time>2026-08-17T15:21:37.000Z</time><extensions/></trkpt><trkpt lat="59.38777685165405" lon="34.67205762863159"><time>2026-08-17T15:21:40.000Z</time><extensions/></trkpt><trkpt lat="59.38779830932617" lon="34.671993255615234"><time>2026-08-17T15:21:42.000Z</time><extensions/></trkpt><trkpt lat="59.38781976699829" lon="34.67190742492676"><time>2026-08-17T15:21:45.000Z</time><extensions/></trkpt><trkpt lat="59.38777685165405" lon="34.6718430519104"><time>2026-08-17T15:21:55.000Z</time><extensions/></trkpt><trkpt lat="59.38777685165405" lon="34.67177867889404"><time>2026-08-17T15:21:57.000Z</time><extensions/></trkpt><trkpt lat="59.38777685165405" lon="34.671692848205566"><time>2026-08-17T15:22:00.000Z</time><extensions/></trkpt><trkpt lat="59.38777685165405" lon="34.67162847518921"><time>2026-08-17T15:22:02.000Z</time><extensions/></trkpt><trkpt lat="59.38777685165405" lon="34.67156410217285"><time>2026-08-17T15:22:05.000Z</time><extensions/></trkpt><trkpt lat="59.38781976699829" lon="34.671499729156494"><time>2026-08-17T15:22:10.000Z</time><extensions/></trkpt><trkpt lat="59.38784122467041" lon="34.67152118682861"><time>2026-08-17T15:22:12.000Z</time><extensions/></trkpt><trkpt lat="59.38784122467041" lon="34.67158555984497"><time>2026-08-17T15:22:15.000Z</time><extensions/></trkpt><trkpt lat="59.38784122467041" lon="34.67167139053345"><time>2026-08-17T15:22:17.000Z</time><extensions/></trkpt><trkpt lat="59.38779830932617" lon="34.671735763549805"><time>2026-08-17T15:22:20.000Z</time><extensions/></trkpt><trkpt lat="59.387755393981934" lon="34.67182159423828"><time>2026-08-17T15:22:22.000Z</time><extensions/></trkpt><trkpt lat="59.387733936309814" lon="34.67186450958252"><time>2026-08-17T15:22:25.000Z</time><extensions/></trkpt><trkpt lat="59.387733936309814" lon="34.67182159423828"><time>2026-08-17T15:22:27.000Z</time><extensions/></trkpt><trkpt lat="59.387712478637695" lon="34.67177867889404"><time>2026-08-17T15:22:30.000Z</time><extensions/></trkpt><trkpt lat="59.38766956329346" lon="34.671757221221924"><time>2026-08-17T15:22:32.000Z</time><extensions/></trkpt><trkpt lat="59.38764810562134" lon="34.67177867889404"><time>2026-08-17T15:22:35.000Z</time><extensions/></trkpt><trkpt lat="59.38762664794922" lon="34.67182159423828"><time>2026-08-17T15:22:37.000Z</time><extensions/></trkpt><trkpt lat="59.3876051902771" lon="34.67188596725464"><time>2026-08-17T15:22:40.000Z</time><extensions/></trkpt><trkpt lat="59.38756227493286" lon="34.67188596725464"><time>2026-08-17T15:22:42.000Z</time><extensions/></trkpt><trkpt lat="59.38758373260498" lon="34.67186450958252"><time>2026-08-17T15:22:45.000Z</time><extensions/></trkpt><trkpt lat="59.38751935958862" lon="34.671993255615234"><time>2026-08-17T15:23:00.000Z</time><extensions/></trkpt><trkpt lat="59.387497901916504" lon="34.67205762863159"><time>2026-08-17T15:23:02.000Z</time><extensions/></trkpt><trkpt lat="59.387454986572266" lon="34.67210054397583"><time>2026-08-17T15:23:05.000Z</time><extensions/></trkpt><trkpt lat="59.387454986572266" lon="34.67207908630371"><time>2026-08-17T15:23:07.000Z</time><extensions/></trkpt><trkpt lat="59.387476444244385" lon="34.671993255615234"><time>2026-08-17T15:23:10.000Z</time><extensions/></trkpt><trkpt lat="59.387476444244385" lon="34.67192888259888"><time>2026-08-17T15:23:12.000Z</time><extensions/></trkpt><trkpt lat="59.387454986572266" lon="34.67182159423828"><time>2026-08-17T15:23:15.000Z</time><extensions/></trkpt><trkpt lat="59.38741207122803" lon="34.6718430519104"><time>2026-08-17T15:23:17.000Z</time><extensions/></trkpt><trkpt lat="59.38736915588379" lon="34.67190742492676"><time>2026-08-17T15:23:20.000Z</time><extensions/></trkpt><trkpt lat="59.38734769821167" lon="34.671950340270996"><time>2026-08-17T15:23:22.000Z</time><extensions/></trkpt><trkpt lat="59.38734769821167" lon="34.67186450958252"><time>2026-08-17T15:23:25.000Z</time><extensions/></trkpt><trkpt lat="59.38730478286743" lon="34.67182159423828"><time>2026-08-17T15:23:27.000Z</time><extensions/></trkpt><trkpt lat="59.38728332519531" lon="34.671757221221924"><time>2026-08-17T15:23:30.000Z</time><extensions/></trkpt><trkpt lat="59.38726186752319" lon="34.671757221221924"><time>2026-08-17T15:23:32.000Z</time><extensions/></trkpt><trkpt lat="59.387218952178955" lon="34.67180013656616"><time>2026-08-17T15:23:35.000Z</time><extensions/></trkpt><trkpt lat="59.387218952178955" lon="34.67186450958252"><time>2026-08-17T15:23:37.000Z</time><extensions/></trkpt><trkpt lat="59.387240409851074" lon="34.671950340270996"><time>2026-08-17T15:23:40.000Z</time><extensions/></trkpt><trkpt lat="59.38726186752319" lon="34.67188596725464"><time>2026-08-17T15:23:42.000Z</time><extensions/></trkpt><trkpt lat="59.38726186752319" lon="34.67177867889404"><time>2026-08-17T15:23:45.000Z</time><extensions/></trkpt><trkpt lat="59.38726186752319" lon="34.67167139053345"><time>2026-08-17T15:23:47.000Z</time><extensions/></trkpt><trkpt lat="59.38730478286743" lon="34.67164993286133"><time>2026-08-17T15:23:50.000Z</time><extensions/></trkpt><trkpt lat="59.38734769821167" lon="34.67156410217285"><time>2026-08-17T15:24:07.000Z</time><extensions/></trkpt><trkpt lat="59.38736915588379" lon="34.671499729156494"><time>2026-08-17T15:24:10.000Z</time><extensions/></trkpt><trkpt lat="59.38739061355591" lon="34.67141389846802"><time>2026-08-17T15:24:12.000Z</time><extensions/></trkpt><trkpt lat="59.38739061355591" lon="34.67130661010742"><time>2026-08-17T15:24:15.000Z</time><extensions/></trkpt><trkpt lat="59.38736915588379" lon="34.671220779418945"><time>2026-08-17T15:24:17.000Z</time><extensions/></trkpt><trkpt lat="59.38734769821167" lon="34.67115640640259"><time>2026-08-17T15:24:20.000Z</time><extensions/></trkpt><trkpt lat="59.38730478286743" lon="34.67117786407471"><time>2026-08-17T15:24:22.000Z</time><extensions/></trkpt><trkpt lat="59.38728332519531" lon="34.671242237091064"><time>2026-08-17T15:24:25.000Z</time><extensions/></trkpt><trkpt lat="59.38726186752319" lon="34.671263694763184"><time>2026-08-17T15:24:27.000Z</time><extensions/></trkpt><trkpt lat="59.387240409851074" lon="34.67115640640259"><time>2026-08-17T15:24:32.000Z</time><extensions/></trkpt><trkpt lat="59.387218952178955" lon="34.67107057571411"><time>2026-08-17T15:24:35.000Z</time><extensions/></trkpt><trkpt lat="59.387197494506836" lon="34.670984745025635"><time>2026-08-17T15:24:37.000Z</time><extensions/></trkpt><trkpt lat="59.387218952178955" lon="34.67089891433716"><time>2026-08-17T15:24:40.000Z</time><extensions/></trkpt><trkpt lat="59.3871545791626" lon="34.67081308364868"><time>2026-08-17T15:25:10.000Z</time><extensions/></trkpt><trkpt lat="59.38711166381836" lon="34.670963287353516"><time>2026-08-17T15:25:35.000Z</time><extensions/></trkpt><trkpt lat="59.38711166381836" lon="34.670963287353516"><time>2026-08-17T15:25:37.000Z</time><extensions/></trkpt><trkpt lat="59.38709020614624" lon="34.671006202697754"><time>2026-08-17T15:26:07.000Z</time><extensions/></trkpt><trkpt lat="59.38709020614624" lon="34.67089891433716"><time>2026-08-17T15:26:15.000Z</time><extensions/></trkpt><trkpt lat="59.387047290802" lon="34.670727252960205"><time>2026-08-17T15:26:30.000Z</time><extensions/></trkpt><trkpt lat="59.387047290802" lon="34.67066287994385"><time>2026-08-17T15:26:35.000Z</time><extensions/></trkpt><trkpt lat="59.38702583312988" lon="34.67059850692749"><time>2026-08-17T15:26:37.000Z</time><extensions/></trkpt><trkpt lat="59.387004375457764" lon="34.670512676239014"><time>2026-08-17T15:26:40.000Z</time><extensions/></trkpt><trkpt lat="59.38702583312988" lon="34.670448303222656"><time>2026-08-17T15:26:42.000Z</time><extensions/></trkpt><trkpt lat="59.387004375457764" lon="34.67040538787842"><time>2026-08-17T15:26:45.000Z</time><extensions/></trkpt><trkpt lat="59.386982917785645" lon="34.67034101486206"><time>2026-08-17T15:26:47.000Z</time><extensions/></trkpt><trkpt lat="59.386961460113525" lon="34.6703839302063"><time>2026-08-17T15:26:50.000Z</time><extensions/></trkpt><trkpt lat="59.38691854476929" lon="34.67040538787842"><time>2026-08-17T15:26:52.000Z</time><extensions/></trkpt><trkpt lat="59.38687562942505" lon="34.67040538787842"><time>2026-08-17T15:26:55.000Z</time><extensions/></trkpt><trkpt lat="59.38683271408081" lon="34.67040538787842"><time>2026-08-17T15:26:57.000Z</time><extensions/></trkpt><trkpt lat="59.38678979873657" lon="34.6703839302063"><time>2026-08-17T15:27:00.000Z</time><extensions/></trkpt><trkpt lat="59.38678979873657" lon="34.67031955718994"><time>2026-08-17T15:27:02.000Z</time><extensions/></trkpt><trkpt lat="59.38681125640869" lon="34.670233726501465"><time>2026-08-17T15:27:05.000Z</time><extensions/></trkpt><trkpt lat="59.38683271408081" lon="34.67016935348511"><time>2026-08-17T15:27:07.000Z</time><extensions/></trkpt><trkpt lat="59.38683271408081" lon="34.67008352279663"><time>2026-08-17T15:27:10.000Z</time><extensions/></trkpt><trkpt lat="59.38685417175293" lon="34.67001914978027"><time>2026-08-17T15:27:12.000Z</time><extensions/></trkpt><trkpt lat="59.38689708709717" lon="34.67001914978027"><time>2026-08-17T15:27:15.000Z</time><extensions/></trkpt><trkpt lat="59.38689708709717" lon="34.67008352279663"><time>2026-08-17T15:27:27.000Z</time><extensions/></trkpt><trkpt lat="59.38685417175293" lon="34.67008352279663"><time>2026-08-17T15:27:30.000Z</time><extensions/></trkpt><trkpt lat="59.38681125640869" lon="34.67004060745239"><time>2026-08-17T15:27:32.000Z</time><extensions/></trkpt><trkpt lat="59.38676834106445" lon="34.669976234436035"><time>2026-08-17T15:27:35.000Z</time><extensions/></trkpt><trkpt lat="59.386725425720215" lon="34.66991186141968"><time>2026-08-17T15:27:37.000Z</time><extensions/></trkpt><trkpt lat="59.38668251037598" lon="34.6699333190918"><time>2026-08-17T15:27:40.000Z</time><extensions/></trkpt><trkpt lat="59.38666105270386" lon="34.66984748840332"><time>2026-08-17T15:28:10.000Z</time><extensions/></trkpt><trkpt lat="59.38666105270386" lon="34.669718742370605"><time>2026-08-17T15:28:12.000Z</time><extensions/></trkpt><trkpt lat="59.38666105270386" lon="34.66965436935425"><time>2026-08-17T15:28:15.000Z</time><extensions/></trkpt><trkpt lat="59.38663959503174" lon="34.66963291168213"><time>2026-08-17T15:28:20.000Z</time><extensions/></trkpt><trkpt lat="59.3865966796875" lon="34.66967582702637"><time>2026-08-17T15:28:22.000Z</time><extensions/></trkpt><trkpt lat="59.38657522201538" lon="34.66963291168213"><time>2026-08-17T15:28:25.000Z</time><extensions/></trkpt><trkpt lat="59.38653230667114" lon="34.66961145401001"><time>2026-08-17T15:28:27.000Z</time><extensions/></trkpt><trkpt lat="59.386467933654785" lon="34.66958999633789"><time>2026-08-17T15:28:30.000Z</time><extensions/></trkpt><trkpt lat="59.386446475982666" lon="34.66963291168213"><time>2026-08-17T15:28:32.000Z</time><extensions/></trkpt><trkpt lat="59.386467933654785" lon="34.669697284698486"><time>2026-08-17T15:28:35.000Z</time><extensions/></trkpt><trkpt lat="59.386467933654785" lon="34.66978311538696"><time>2026-08-17T15:28:40.000Z</time><extensions/></trkpt><trkpt lat="59.386446475982666" lon="34.6698260307312"><time>2026-08-17T15:28:42.000Z</time><extensions/></trkpt><trkpt lat="59.38642501831055" lon="34.669761657714844"><time>2026-08-17T15:28:45.000Z</time><extensions/></trkpt><trkpt lat="59.38640356063843" lon="34.66965436935425"><time>2026-08-17T15:28:47.000Z</time><extensions/></trkpt><trkpt lat="59.38640356063843" lon="34.66956853866577"><time>2026-08-17T15:28:50.000Z</time><extensions/></trkpt><trkpt lat="59.38638210296631" lon="34.66952562332153"><time>2026-08-17T15:28:52.000Z</time><extensions/></trkpt><trkpt lat="59.38636064529419" lon="34.66961145401001"><time>2026-08-17T15:28:55.000Z</time><extensions/></trkpt><trkpt lat="59.38636064529419" lon="34.66967582702637"><time>2026-08-17T15:28:57.000Z</time><extensions/></trkpt><trkpt lat="59.38633918762207" lon="34.669761657714844"><time>2026-08-17T15:29:00.000Z</time><extensions/></trkpt><trkpt lat="59.38631772994995" lon="34.66984748840332"><time>2026-08-17T15:29:02.000Z</time><extensions/></trkpt><trkpt lat="59.38631772994995" lon="34.669954776763916"><time>2026-08-17T15:29:05.000Z</time><extensions/></trkpt><trkpt lat="59.38631772994995" lon="34.67004060745239"><time>2026-08-17T15:29:07.000Z</time><extensions/></trkpt><trkpt lat="59.38631772994995" lon="34.67012643814087"><time>2026-08-17T15:29:10.000Z</time><extensions/></trkpt><trkpt lat="59.38633918762207" lon="34.67008352279663"><time>2026-08-17T15:29:12.000Z</time><extensions/></trkpt><trkpt lat="59.38631772994995" lon="34.67001914978027"><time>2026-08-17T15:29:20.000Z</time><extensions/></trkpt><trkpt lat="59.38629627227783" lon="34.66991186141968"><time>2026-08-17T15:29:22.000Z</time><extensions/></trkpt><trkpt lat="59.38627481460571" lon="34.66980457305908"><time>2026-08-17T15:29:25.000Z</time><extensions/></trkpt><trkpt lat="59.38627481460571" lon="34.669697284698486"><time>2026-08-17T15:29:27.000Z</time><extensions/></trkpt><trkpt lat="59.386210441589355" lon="34.66958999633789"><time>2026-08-17T15:29:45.000Z</time><extensions/></trkpt><trkpt lat="59.38616752624512" lon="34.66952562332153"><time>2026-08-17T15:29:47.000Z</time><extensions/></trkpt><trkpt lat="59.38612461090088" lon="34.669504165649414"><time>2026-08-17T15:29:50.000Z</time><extensions/></trkpt><trkpt lat="59.38608169555664" lon="34.66943979263306"><time>2026-08-17T15:29:52.000Z</time><extensions/></trkpt><trkpt lat="59.38608169555664" lon="34.66935396194458"><time>2026-08-17T15:30:07.000Z</time><extensions/></trkpt><trkpt lat="59.38610315322876" lon="34.66931104660034"><time>2026-08-17T15:30:17.000Z</time><extensions/></trkpt><trkpt lat="59.386146068573" lon="34.669246673583984"><time>2026-08-17T15:30:35.000Z</time><extensions/></trkpt><trkpt lat="59.38616752624512" lon="34.669203758239746"><time>2026-08-17T15:30:37.000Z</time><extensions/></trkpt><trkpt lat="59.38616752624512" lon="34.669246673583984"><time>2026-08-17T15:30:52.000Z</time><extensions/></trkpt><trkpt lat="59.386231899261475" lon="34.669246673583984"><time>2026-08-17T15:31:22.000Z</time><extensions/></trkpt><trkpt lat="59.38629627227783" lon="34.669203758239746"><time>2026-08-17T15:31:25.000Z</time><extensions/></trkpt><trkpt lat="59.38631772994995" lon="34.66916084289551"><time>2026-08-17T15:31:27.000Z</time><extensions/></trkpt><trkpt lat="59.38627481460571" lon="34.66909646987915"><time>2026-08-17T15:31:30.000Z</time><extensions/></trkpt><trkpt lat="59.386253356933594" lon="34.66903209686279"><time>2026-08-17T15:31:32.000Z</time><extensions/></trkpt><trkpt lat="59.386231899261475" lon="34.668967723846436"><time>2026-08-17T15:31:35.000Z</time><extensions/></trkpt><trkpt lat="59.386188983917236" lon="34.66890335083008"><time>2026-08-17T15:31:37.000Z</time><extensions/></trkpt><trkpt lat="59.386146068573" lon="34.66890335083008"><time>2026-08-17T15:31:40.000Z</time><extensions/></trkpt><trkpt lat="59.386146068573" lon="34.668946266174316"><time>2026-08-17T15:31:42.000Z</time><extensions/></trkpt><trkpt lat="59.386188983917236" lon="34.669010639190674"><time>2026-08-17T15:31:45.000Z</time><extensions/></trkpt><trkpt lat="59.38627481460571" lon="34.66903209686279"><time>2026-08-17T15:31:47.000Z</time><extensions/></trkpt><trkpt lat="59.38633918762207" lon="34.66909646987915"><time>2026-08-17T15:31:50.000Z</time><extensions/></trkpt><trkpt lat="59.38640356063843" lon="34.66916084289551"><time>2026-08-17T15:31:52.000Z</time><extensions/></trkpt><trkpt lat="59.386489391326904" lon="34.66918230056763"><time>2026-08-17T15:31:55.000Z</time><extensions/></trkpt><trkpt lat="59.38653230667114" lon="34.66913938522339"><time>2026-08-17T15:31:57.000Z</time><extensions/></trkpt><trkpt lat="59.38655376434326" lon="34.66911792755127"><time>2026-08-17T15:32:00.000Z</time><extensions/></trkpt><trkpt lat="59.38657522201538" lon="34.66909646987915"><time>2026-08-17T15:32:02.000Z</time><extensions/></trkpt><trkpt lat="59.38663959503174" lon="34.66909646987915"><time>2026-08-17T15:32:05.000Z</time><extensions/></trkpt><trkpt lat="59.38666105270386" lon="34.66913938522339"><time>2026-08-17T15:32:07.000Z</time><extensions/></trkpt><trkpt lat="59.386703968048096" lon="34.669203758239746"><time>2026-08-17T15:32:22.000Z</time><extensions/></trkpt><trkpt lat="59.386725425720215" lon="34.66911792755127"><time>2026-08-17T15:32:25.000Z</time><extensions/></trkpt><trkpt lat="59.386725425720215" lon="34.669010639190674"><time>2026-08-17T15:32:27.000Z</time><extensions/></trkpt><trkpt lat="59.38668251037598" lon="34.668967723846436"><time>2026-08-17T15:32:30.000Z</time><extensions/></trkpt><trkpt lat="59.38661813735962" lon="34.6689248085022"><time>2026-08-17T15:32:32.000Z</time><extensions/></trkpt><trkpt lat="59.38657522201538" lon="34.6688175201416"><time>2026-08-17T15:32:35.000Z</time><extensions/></trkpt><trkpt lat="59.38657522201538" lon="34.668710231781006"><time>2026-08-17T15:32:37.000Z</time><extensions/></trkpt><trkpt lat="59.38661813735962" lon="34.66868877410889"><time>2026-08-17T15:32:40.000Z</time><extensions/></trkpt><trkpt lat="59.38663959503174" lon="34.66866731643677"><time>2026-08-17T15:32:42.000Z</time><extensions/></trkpt><trkpt lat="59.38668251037598" lon="34.66858148574829"><time>2026-08-17T15:32:47.000Z</time><extensions/></trkpt><trkpt lat="59.386725425720215" lon="34.66858148574829"><time>2026-08-17T15:32:50.000Z</time><extensions/></trkpt><trkpt lat="59.386746883392334" lon="34.66860294342041"><time>2026-08-17T15:32:52.000Z</time><extensions/></trkpt><trkpt lat="59.386725425720215" lon="34.66860294342041"><time>2026-08-17T15:32:55.000Z</time><extensions/></trkpt><trkpt lat="59.386725425720215" lon="34.66864585876465"><time>2026-08-17T15:32:57.000Z</time><extensions/></trkpt><trkpt lat="59.38678979873657" lon="34.66864585876465"><time>2026-08-17T15:33:02.000Z</time><extensions/></trkpt><trkpt lat="59.38685417175293" lon="34.66868877410889"><time>2026-08-17T15:33:05.000Z</time><extensions/></trkpt><trkpt lat="59.38687562942505" lon="34.66864585876465"><time>2026-08-17T15:33:07.000Z</time><extensions/></trkpt><trkpt lat="59.38691854476929" lon="34.66862440109253"><time>2026-08-17T15:33:10.000Z</time><extensions/></trkpt><trkpt lat="59.38689708709717" lon="34.66856002807617"><time>2026-08-17T15:33:12.000Z</time><extensions/></trkpt><trkpt lat="59.38689708709717" lon="34.66858148574829"><time>2026-08-17T15:33:20.000Z</time><extensions/></trkpt><trkpt lat="59.38691854476929" lon="34.66866731643677"><time>2026-08-17T15:33:22.000Z</time><extensions/></trkpt><trkpt lat="59.386961460113525" lon="34.668710231781006"><time>2026-08-17T15:33:25.000Z</time><extensions/></trkpt><trkpt lat="59.386982917785645" lon="34.668731689453125"><time>2026-08-17T15:33:27.000Z</time><extensions/></trkpt><trkpt lat="59.386961460113525" lon="34.668753147125244"><time>2026-08-17T15:33:35.000Z</time><extensions/></trkpt><trkpt lat="59.386940002441406" lon="34.66877460479736"><time>2026-08-17T15:34:02.000Z</time><extensions/></trkpt><trkpt lat="59.386940002441406" lon="34.66877460479736"><time>2026-08-17T15:34:07.000Z</time><extensions/></trkpt><trkpt lat="59.38691854476929" lon="34.66879606246948"><time>2026-08-17T15:34:37.000Z</time><extensions/></trkpt><trkpt lat="59.387047290802" lon="34.66862440109253"><time>2026-08-17T15:34:45.000Z</time><extensions/></trkpt><trkpt lat="59.38709020614624" lon="34.668517112731934"><time>2026-08-17T15:34:52.000Z</time><extensions/></trkpt><trkpt lat="59.387197494506836" lon="34.66853857040405"><time>2026-08-17T15:34:57.000Z</time><extensions/></trkpt><trkpt lat="59.3871545791626" lon="34.66858148574829"><time>2026-08-17T15:35:00.000Z</time><extensions/></trkpt><trkpt lat="59.38713312149048" lon="34.66856002807617"><time>2026-08-17T15:35:02.000Z</time><extensions/></trkpt><trkpt lat="59.38711166381836" lon="34.668474197387695"><time>2026-08-17T15:35:05.000Z</time><extensions/></trkpt><trkpt lat="59.38711166381836" lon="34.66838836669922"><time>2026-08-17T15:35:07.000Z</time><extensions/></trkpt><trkpt lat="59.3871545791626" lon="34.66834545135498"><time>2026-08-17T15:35:10.000Z</time><extensions/></trkpt><trkpt lat="59.38717603683472" lon="34.668259620666504"><time>2026-08-17T15:35:12.000Z</time><extensions/></trkpt><trkpt lat="59.387197494506836" lon="34.66817378997803"><time>2026-08-17T15:35:15.000Z</time><extensions/></trkpt><trkpt lat="59.387240409851074" lon="34.66815233230591"><time>2026-08-17T15:35:17.000Z</time><extensions/></trkpt><trkpt lat="59.38728332519531" lon="34.66815233230591"><time>2026-08-17T15:35:20.000Z</time><extensions/></trkpt><trkpt lat="59.38730478286743" lon="34.668216705322266"><time>2026-08-17T15:35:22.000Z</time><extensions/></trkpt><trkpt lat="59.38732624053955" lon="34.66828107833862"><time>2026-08-17T15:35:25.000Z</time><extensions/></trkpt><trkpt lat="59.38734769821167" lon="34.66832399368286"><time>2026-08-17T15:35:27.000Z</time><extensions/></trkpt><trkpt lat="59.38739061355591" lon="34.66832399368286"><time>2026-08-17T15:35:35.000Z</time><extensions/></trkpt><trkpt lat="59.38743352890015" lon="34.66830253601074"><time>2026-08-17T15:35:37.000Z</time><extensions/></trkpt><trkpt lat="59.387454986572266" lon="34.66834545135498"><time>2026-08-17T15:35:40.000Z</time><extensions/></trkpt><trkpt lat="59.387476444244385" lon="34.66840982437134"><time>2026-08-17T15:35:42.000Z</time><extensions/></trkpt><trkpt lat="59.387497901916504" lon="34.668474197387695"><time>2026-08-17T15:35:45.000Z</time><extensions/></trkpt><trkpt lat="59.38754081726074" lon="34.66856002807617"><time>2026-08-17T15:35:47.000Z</time><extensions/></trkpt><trkpt lat="59.38751935958862" lon="34.66862440109253"><time>2026-08-17T15:35:50.000Z</time><extensions/></trkpt><trkpt lat="59.387476444244385" lon="34.66862440109253"><time>2026-08-17T15:35:52.000Z</time><extensions/></trkpt><trkpt lat="59.38743352890015" lon="34.66856002807617"><time>2026-08-17T15:35:55.000Z</time><extensions/></trkpt><trkpt lat="59.387454986572266" lon="34.668452739715576"><time>2026-08-17T15:35:57.000Z</time><extensions/></trkpt><trkpt lat="59.387454986572266" lon="34.66828107833862"><time>2026-08-17T15:36:00.000Z</time><extensions/></trkpt><trkpt lat="59.387497901916504" lon="34.66817378997803"><time>2026-08-17T15:36:02.000Z</time><extensions/></trkpt><trkpt lat="59.38754081726074" lon="34.66810941696167"><time>2026-08-17T15:36:05.000Z</time><extensions/></trkpt><trkpt lat="59.38758373260498" lon="34.66810941696167"><time>2026-08-17T15:36:07.000Z</time><extensions/></trkpt><trkpt lat="59.38758373260498" lon="34.66793775558472"><time>2026-08-17T15:36:22.000Z</time><extensions/></trkpt><trkpt lat="59.38756227493286" lon="34.66787338256836"><time>2026-08-17T15:36:25.000Z</time><extensions/></trkpt><trkpt lat="59.38756227493286" lon="34.66778755187988"><time>2026-08-17T15:36:27.000Z</time><extensions/></trkpt><trkpt lat="59.3876051902771" lon="34.667744636535645"><time>2026-08-17T15:36:30.000Z</time><extensions/></trkpt><trkpt lat="59.38764810562134" lon="34.66778755187988"><time>2026-08-17T15:36:32.000Z</time><extensions/></trkpt><trkpt lat="59.38766956329346" lon="34.66785192489624"><time>2026-08-17T15:36:35.000Z</time><extensions/></trkpt><trkpt lat="59.38766956329346" lon="34.66793775558472"><time>2026-08-17T15:36:37.000Z</time><extensions/></trkpt><trkpt lat="59.387691020965576" lon="34.668002128601074"><time>2026-08-17T15:36:40.000Z</time><extensions/></trkpt><trkpt lat="59.387691020965576" lon="34.668002128601074"><time>2026-08-17T15:37:07.000Z</time><extensions/></trkpt><trkpt lat="59.387712478637695" lon="34.66806650161743"><time>2026-08-17T15:37:22.000Z</time><extensions/></trkpt><trkpt lat="59.38779830932617" lon="34.66806650161743"><time>2026-08-17T15:37:32.000Z</time><extensions/></trkpt><trkpt lat="59.38777685165405" lon="34.66808795928955"><time>2026-08-17T15:37:55.000Z</time><extensions/></trkpt><trkpt lat="59.38779830932617" lon="34.66806650161743"><time>2026-08-17T15:38:00.000Z</time><extensions/></trkpt><trkpt lat="59.38781976699829" lon="34.66806650161743"><time>2026-08-17T15:38:02.000Z</time><extensions/></trkpt><trkpt lat="59.38784122467041" lon="34.66813087463379"><time>2026-08-17T15:38:05.000Z</time><extensions/></trkpt><trkpt lat="59.38786268234253" lon="34.66815233230591"><time>2026-08-17T15:38:07.000Z</time><extensions/></trkpt><trkpt lat="59.38790559768677" lon="34.66817378997803"><time>2026-08-17T15:38:10.000Z</time><extensions/></trkpt><trkpt lat="59.38792705535889" lon="34.66813087463379"><time>2026-08-17T15:38:12.000Z</time><extensions/></trkpt><trkpt lat="59.38790559768677" lon="34.66802358627319"><time>2026-08-17T15:38:17.000Z</time><extensions/></trkpt><trkpt lat="59.38786268234253" lon="34.667980670928955"><time>2026-08-17T15:38:20.000Z</time><extensions/></trkpt><trkpt lat="59.38786268234253" lon="34.667980670928955"><time>2026-08-17T15:38:22.000Z</time><extensions/></trkpt><trkpt lat="59.38786268234253" lon="34.668002128601074"><time>2026-08-17T15:38:32.000Z</time><extensions/></trkpt><trkpt lat="59.38788414001465" lon="34.667980670928955"><time>2026-08-17T15:38:37.000Z</time><extensions/></trkpt><trkpt lat="59.38788414001465" lon="34.6679162979126"><time>2026-08-17T15:38:40.000Z</time><extensions/></trkpt><trkpt lat="59.38790559768677" lon="34.66785192489624"><time>2026-08-17T15:38:42.000Z</time><extensions/></trkpt><trkpt lat="59.38788414001465" lon="34.66778755187988"><time>2026-08-17T15:38:45.000Z</time><extensions/></trkpt><trkpt lat="59.38786268234253" lon="34.667744636535645"><time>2026-08-17T15:38:47.000Z</time><extensions/></trkpt><trkpt lat="59.38786268234253" lon="34.667744636535645"><time>2026-08-17T15:38:52.000Z</time><extensions/></trkpt><trkpt lat="59.38786268234253" lon="34.66778755187988"><time>2026-08-17T15:38:55.000Z</time><extensions/></trkpt><trkpt lat="59.38790559768677" lon="34.667809009552"><time>2026-08-17T15:38:57.000Z</time><extensions/></trkpt><trkpt lat="59.387948513031006" lon="34.667809009552"><time>2026-08-17T15:39:00.000Z</time><extensions/></trkpt><trkpt lat="59.387969970703125" lon="34.66785192489624"><time>2026-08-17T15:39:02.000Z</time><extensions/></trkpt><trkpt lat="59.38801288604736" lon="34.667766094207764"><time>2026-08-17T15:39:07.000Z</time><extensions/></trkpt><trkpt lat="59.3880558013916" lon="34.667766094207764"><time>2026-08-17T15:39:10.000Z</time><extensions/></trkpt><trkpt lat="59.3880558013916" lon="34.66768026351929"><time>2026-08-17T15:39:15.000Z</time><extensions/></trkpt><trkpt lat="59.38809871673584" lon="34.66759443283081"><time>2026-08-17T15:39:22.000Z</time><extensions/></trkpt><trkpt lat="59.38814163208008" lon="34.66757297515869"><time>2026-08-17T15:39:25.000Z</time><extensions/></trkpt><trkpt lat="59.3881630897522" lon="34.66757297515869"><time>2026-08-17T15:39:27.000Z</time><extensions/></trkpt><trkpt lat="59.388206005096436" lon="34.66755151748657"><time>2026-08-17T15:39:30.000Z</time><extensions/></trkpt><trkpt lat="59.388248920440674" lon="34.66753005981445"><time>2026-08-17T15:39:32.000Z</time><extensions/></trkpt><trkpt lat="59.38827037811279" lon="34.667508602142334"><time>2026-08-17T15:39:35.000Z</time><extensions/></trkpt><trkpt lat="59.388248920440674" lon="34.667487144470215"><time>2026-08-17T15:39:42.000Z</time><extensions/></trkpt><trkpt lat="59.388227462768555" lon="34.667487144470215"><time>2026-08-17T15:39:45.000Z</time><extensions/></trkpt><trkpt lat="59.388248920440674" lon="34.66744422912598"><time>2026-08-17T15:39:47.000Z</time><extensions/></trkpt><trkpt lat="59.38829183578491" lon="34.6673583984375"><time>2026-08-17T15:39:50.000Z</time><extensions/></trkpt><trkpt lat="59.38831329345703" lon="34.66727256774902"><time>2026-08-17T15:39:52.000Z</time><extensions/></trkpt><trkpt lat="59.38837766647339" lon="34.667208194732666"><time>2026-08-17T15:39:57.000Z</time><extensions/></trkpt><trkpt lat="59.38839912414551" lon="34.66716527938843"><time>2026-08-17T15:40:00.000Z</time><extensions/></trkpt><trkpt lat="59.38839912414551" lon="34.66712236404419"><time>2026-08-17T15:40:02.000Z</time><extensions/></trkpt><trkpt lat="59.388442039489746" lon="34.66716527938843"><time>2026-08-17T15:40:05.000Z</time><extensions/></trkpt><trkpt lat="59.388442039489746" lon="34.66727256774902"><time>2026-08-17T15:40:10.000Z</time><extensions/></trkpt><trkpt lat="59.38842058181763" lon="34.66733694076538"><time>2026-08-17T15:40:12.000Z</time><extensions/></trkpt><trkpt lat="59.388442039489746" lon="34.66740131378174"><time>2026-08-17T15:40:15.000Z</time><extensions/></trkpt><trkpt lat="59.388463497161865" lon="34.667465686798096"><time>2026-08-17T15:40:17.000Z</time><extensions/></trkpt><trkpt lat="59.388484954833984" lon="34.66755151748657"><time>2026-08-17T15:40:20.000Z</time><extensions/></trkpt><trkpt lat="59.388484954833984" lon="34.66759443283081"><time>2026-08-17T15:40:22.000Z</time><extensions/></trkpt><trkpt lat="59.3885064125061" lon="34.66761589050293"><time>2026-08-17T15:40:25.000Z</time><extensions/></trkpt><trkpt lat="59.38852787017822" lon="34.66765880584717"><time>2026-08-17T15:40:27.000Z</time><extensions/></trkpt><trkpt lat="59.3885064125061" lon="34.667723178863525"><time>2026-08-17T15:40:30.000Z</time><extensions/></trkpt><trkpt lat="59.38852787017822" lon="34.667766094207764"><time>2026-08-17T15:40:32.000Z</time><extensions/></trkpt><trkpt lat="59.38857078552246" lon="34.667744636535645"><time>2026-08-17T15:40:35.000Z</time><extensions/></trkpt><trkpt lat="59.3886137008667" lon="34.66768026351929"><time>2026-08-17T15:40:37.000Z</time><extensions/></trkpt><trkpt lat="59.3886137008667" lon="34.66761589050293"><time>2026-08-17T15:40:40.000Z</time><extensions/></trkpt><trkpt lat="59.38859224319458" lon="34.667508602142334"><time>2026-08-17T15:40:42.000Z</time><extensions/></trkpt><trkpt lat="59.38852787017822" lon="34.66742277145386"><time>2026-08-17T15:40:45.000Z</time><extensions/></trkpt><trkpt lat="59.388463497161865" lon="34.66731548309326"><time>2026-08-17T15:40:47.000Z</time><extensions/></trkpt><trkpt lat="59.388484954833984" lon="34.667251110076904"><time>2026-08-17T15:40:50.000Z</time><extensions/></trkpt><trkpt lat="59.38854932785034" lon="34.66712236404419"><time>2026-08-17T15:40:55.000Z</time><extensions/></trkpt><trkpt lat="59.38854932785034" lon="34.66712236404419"><time>2026-08-17T15:41:07.000Z</time><extensions/></trkpt><trkpt lat="59.38852787017822" lon="34.66712236404419"><time>2026-08-17T15:41:37.000Z</time><extensions/></trkpt><trkpt lat="59.38854932785034" lon="34.66703653335571"><time>2026-08-17T15:41:40.000Z</time><extensions/></trkpt><trkpt lat="59.38859224319458" lon="34.667015075683594"><time>2026-08-17T15:41:42.000Z</time><extensions/></trkpt><trkpt lat="59.3886137008667" lon="34.666993618011475"><time>2026-08-17T15:41:45.000Z</time><extensions/></trkpt><trkpt lat="59.38863515853882" lon="34.66692924499512"><time>2026-08-17T15:41:47.000Z</time><extensions/></trkpt><trkpt lat="59.38865661621094" lon="34.66684341430664"><time>2026-08-17T15:41:50.000Z</time><extensions/></trkpt><trkpt lat="59.3886137008667" lon="34.6668004989624"><time>2026-08-17T15:41:52.000Z</time><extensions/></trkpt><trkpt lat="59.3886137008667" lon="34.66665029525757"><time>2026-08-17T15:42:00.000Z</time><extensions/></trkpt><trkpt lat="59.38863515853882" lon="34.66656446456909"><time>2026-08-17T15:42:02.000Z</time><extensions/></trkpt><trkpt lat="59.38867807388306" lon="34.66658592224121"><time>2026-08-17T15:42:05.000Z</time><extensions/></trkpt><trkpt lat="59.388720989227295" lon="34.66660737991333"><time>2026-08-17T15:42:07.000Z</time><extensions/></trkpt><trkpt lat="59.38878536224365" lon="34.66667175292969"><time>2026-08-17T15:42:10.000Z</time><extensions/></trkpt><trkpt lat="59.38880681991577" lon="34.666757583618164"><time>2026-08-17T15:42:12.000Z</time><extensions/></trkpt><trkpt lat="59.38882827758789" lon="34.66677904129028"><time>2026-08-17T15:42:15.000Z</time><extensions/></trkpt><trkpt lat="59.38884973526001" lon="34.666757583618164"><time>2026-08-17T15:42:17.000Z</time><extensions/></trkpt><trkpt lat="59.38891410827637" lon="34.66677904129028"><time>2026-08-17T15:42:20.000Z</time><extensions/></trkpt><trkpt lat="59.388957023620605" lon="34.66684341430664"><time>2026-08-17T15:42:22.000Z</time><extensions/></trkpt><trkpt lat="59.388935565948486" lon="34.66692924499512"><time>2026-08-17T15:42:25.000Z</time><extensions/></trkpt><trkpt lat="59.38889265060425" lon="34.666972160339355"><time>2026-08-17T15:42:27.000Z</time><extensions/></trkpt><trkpt lat="59.38891410827637" lon="34.66703653335571"><time>2026-08-17T15:42:30.000Z</time><extensions/></trkpt><trkpt lat="59.388978481292725" lon="34.66707944869995"><time>2026-08-17T15:42:32.000Z</time><extensions/></trkpt><trkpt lat="59.38902139663696" lon="34.66716527938843"><time>2026-08-17T15:42:35.000Z</time><extensions/></trkpt><trkpt lat="59.3890643119812" lon="34.667208194732666"><time>2026-08-17T15:42:37.000Z</time><extensions/></trkpt><trkpt lat="59.38910722732544" lon="34.66729402542114"><time>2026-08-17T15:42:40.000Z</time><extensions/></trkpt><trkpt lat="59.38912868499756" lon="34.6673583984375"><time>2026-08-17T15:42:42.000Z</time><extensions/></trkpt><trkpt lat="59.3891716003418" lon="34.66731548309326"><time>2026-08-17T15:42:45.000Z</time><extensions/></trkpt><trkpt lat="59.389214515686035" lon="34.66729402542114"><time>2026-08-17T15:42:47.000Z</time><extensions/></trkpt><trkpt lat="59.38927888870239" lon="34.66729402542114"><time>2026-08-17T15:42:50.000Z</time><extensions/></trkpt><trkpt lat="59.38927888870239" lon="34.667251110076904"><time>2026-08-17T15:42:52.000Z</time><extensions/></trkpt><trkpt lat="59.389235973358154" lon="34.66718673706055"><time>2026-08-17T15:42:55.000Z</time><extensions/></trkpt><trkpt lat="59.389193058013916" lon="34.66712236404419"><time>2026-08-17T15:42:57.000Z</time><extensions/></trkpt><trkpt lat="59.38912868499756" lon="34.66707944869995"><time>2026-08-17T15:43:00.000Z</time><extensions/></trkpt><trkpt lat="59.3891716003418" lon="34.66703653335571"><time>2026-08-17T15:43:05.000Z</time><extensions/></trkpt><trkpt lat="59.389214515686035" lon="34.667015075683594"><time>2026-08-17T15:43:07.000Z</time><extensions/></trkpt><trkpt lat="59.38925743103027" lon="34.667015075683594"><time>2026-08-17T15:43:10.000Z</time><extensions/></trkpt><trkpt lat="59.38930034637451" lon="34.667015075683594"><time>2026-08-17T15:43:12.000Z</time><extensions/></trkpt><trkpt lat="59.38936471939087" lon="34.666972160339355"><time>2026-08-17T15:43:15.000Z</time><extensions/></trkpt><trkpt lat="59.38940763473511" lon="34.666972160339355"><time>2026-08-17T15:43:17.000Z</time><extensions/></trkpt><trkpt lat="59.38936471939087" lon="34.66705799102783"><time>2026-08-17T15:43:20.000Z</time><extensions/></trkpt><trkpt lat="59.38932180404663" lon="34.66712236404419"><time>2026-08-17T15:43:22.000Z</time><extensions/></trkpt><trkpt lat="59.38930034637451" lon="34.66705799102783"><time>2026-08-17T15:43:25.000Z</time><extensions/></trkpt><trkpt lat="59.38925743103027" lon="34.667015075683594"><time>2026-08-17T15:43:27.000Z</time><extensions/></trkpt><trkpt lat="59.389235973358154" lon="34.666950702667236"><time>2026-08-17T15:43:30.000Z</time><extensions/></trkpt><trkpt lat="59.389235973358154" lon="34.66686487197876"><time>2026-08-17T15:43:32.000Z</time><extensions/></trkpt><trkpt lat="59.38925743103027" lon="34.666757583618164"><time>2026-08-17T15:43:35.000Z</time><extensions/></trkpt><trkpt lat="59.38930034637451" lon="34.666714668273926"><time>2026-08-17T15:43:37.000Z</time><extensions/></trkpt><trkpt lat="59.38932180404663" lon="34.66677904129028"><time>2026-08-17T15:43:40.000Z</time><extensions/></trkpt><trkpt lat="59.38940763473511" lon="34.66686487197876"><time>2026-08-17T15:44:02.000Z</time><extensions/></trkpt><trkpt lat="59.38942909240723" lon="34.6668004989624"><time>2026-08-17T15:44:05.000Z</time><extensions/></trkpt><trkpt lat="59.389472007751465" lon="34.666714668273926"><time>2026-08-17T15:44:07.000Z</time><extensions/></trkpt><trkpt lat="59.38955783843994" lon="34.66660737991333"><time>2026-08-17T15:44:20.000Z</time><extensions/></trkpt><trkpt lat="59.389493465423584" lon="34.66658592224121"><time>2026-08-17T15:44:22.000Z</time><extensions/></trkpt><trkpt lat="59.389493465423584" lon="34.666478633880615"><time>2026-08-17T15:44:25.000Z</time><extensions/></trkpt><trkpt lat="59.389493465423584" lon="34.66637134552002"><time>2026-08-17T15:44:27.000Z</time><extensions/></trkpt><trkpt lat="59.3895149230957" lon="34.66628551483154"><time>2026-08-17T15:44:30.000Z</time><extensions/></trkpt><trkpt lat="59.38955783843994" lon="34.66628551483154"><time>2026-08-17T15:44:32.000Z</time><extensions/></trkpt><trkpt lat="59.38955783843994" lon="34.66632843017578"><time>2026-08-17T15:44:35.000Z</time><extensions/></trkpt><trkpt lat="59.38955783843994" lon="34.66639280319214"><time>2026-08-17T15:44:37.000Z</time><extensions/></trkpt><trkpt lat="59.38955783843994" lon="34.66639280319214"><time>2026-08-17T15:44:57.000Z</time><extensions/></trkpt><trkpt lat="59.38955783843994" lon="34.666457176208496"><time>2026-08-17T15:45:25.000Z</time><extensions/></trkpt><trkpt lat="59.389686584472656" lon="34.666478633880615"><time>2026-08-17T15:45:47.000Z</time><extensions/></trkpt><trkpt lat="59.38966512680054" lon="34.66652154922485"><time>2026-08-17T15:45:50.000Z</time><extensions/></trkpt><trkpt lat="59.38964366912842" lon="34.66656446456909"><time>2026-08-17T15:45:52.000Z</time><extensions/></trkpt><trkpt lat="59.38966512680054" lon="34.6663498878479"><time>2026-08-17T15:46:00.000Z</time><extensions/></trkpt><trkpt lat="59.389708042144775" lon="34.666221141815186"><time>2026-08-17T15:46:02.000Z</time><extensions/></trkpt><trkpt lat="59.389708042144775" lon="34.66617822647095"><time>2026-08-17T15:46:05.000Z</time><extensions/></trkpt><trkpt lat="59.389708042144775" lon="34.666221141815186"><time>2026-08-17T15:46:07.000Z</time><extensions/></trkpt><trkpt lat="59.38977241516113" lon="34.666221141815186"><time>2026-08-17T15:46:10.000Z</time><extensions/></trkpt><trkpt lat="59.38981533050537" lon="34.666199684143066"><time>2026-08-17T15:46:12.000Z</time><extensions/></trkpt><trkpt lat="59.38981533050537" lon="34.666264057159424"><time>2026-08-17T15:46:15.000Z</time><extensions/></trkpt><trkpt lat="59.38983678817749" lon="34.66630697250366"><time>2026-08-17T15:46:17.000Z</time><extensions/></trkpt><trkpt lat="59.38987970352173" lon="34.66632843017578"><time>2026-08-17T15:46:20.000Z</time><extensions/></trkpt><trkpt lat="59.38990116119385" lon="34.6663498878479"><time>2026-08-17T15:46:22.000Z</time><extensions/></trkpt><trkpt lat="59.38992261886597" lon="34.6663498878479"><time>2026-08-17T15:46:25.000Z</time><extensions/></trkpt><trkpt lat="59.389944076538086" lon="34.6663498878479"><time>2026-08-17T15:46:27.000Z</time><extensions/></trkpt><trkpt lat="59.389986991882324" lon="34.66632843017578"><time>2026-08-17T15:46:30.000Z</time><extensions/></trkpt><trkpt lat="59.389986991882324" lon="34.66628551483154"><time>2026-08-17T15:46:32.000Z</time><extensions/></trkpt><trkpt lat="59.39000844955444" lon="34.666242599487305"><time>2026-08-17T15:46:35.000Z</time><extensions/></trkpt><trkpt lat="59.389965534210205" lon="34.66639280319214"><time>2026-08-17T15:46:50.000Z</time><extensions/></trkpt><trkpt lat="59.389986991882324" lon="34.66643571853638"><time>2026-08-17T15:46:52.000Z</time><extensions/></trkpt><trkpt lat="59.39002990722656" lon="34.66641426086426"><time>2026-08-17T15:46:55.000Z</time><extensions/></trkpt><trkpt lat="59.39005136489868" lon="34.66639280319214"><time>2026-08-17T15:46:57.000Z</time><extensions/></trkpt><trkpt lat="59.39009428024292" lon="34.66643571853638"><time>2026-08-17T15:47:00.000Z</time><extensions/></trkpt><trkpt lat="59.39011573791504" lon="34.666457176208496"><time>2026-08-17T15:47:02.000Z</time><extensions/></trkpt><trkpt lat="59.39015865325928" lon="34.666457176208496"><time>2026-08-17T15:47:05.000Z</time><extensions/></trkpt><trkpt lat="59.3901801109314" lon="34.66643571853638"><time>2026-08-17T15:47:07.000Z</time><extensions/></trkpt><trkpt lat="59.390201568603516" lon="34.66639280319214"><time>2026-08-17T15:47:10.000Z</time><extensions/></trkpt><trkpt lat="59.390201568603516" lon="34.66630697250366"><time>2026-08-17T15:47:12.000Z</time><extensions/></trkpt><trkpt lat="59.390201568603516" lon="34.66628551483154"><time>2026-08-17T15:47:15.000Z</time><extensions/></trkpt><trkpt lat="59.3901801109314" lon="34.666242599487305"><time>2026-08-17T15:47:17.000Z</time><extensions/></trkpt><trkpt lat="59.3901801109314" lon="34.666264057159424"><time>2026-08-17T15:47:20.000Z</time><extensions/></trkpt><trkpt lat="59.39015865325928" lon="34.666264057159424"><time>2026-08-17T15:47:45.000Z</time><extensions/></trkpt><trkpt lat="59.390201568603516" lon="34.666199684143066"><time>2026-08-17T15:47:47.000Z</time><extensions/></trkpt><trkpt lat="59.390244483947754" lon="34.66611385345459"><time>2026-08-17T15:47:50.000Z</time><extensions/></trkpt><trkpt lat="59.39026594161987" lon="34.66613531112671"><time>2026-08-17T15:47:52.000Z</time><extensions/></trkpt><trkpt lat="59.390244483947754" lon="34.66617822647095"><time>2026-08-17T15:47:55.000Z</time><extensions/></trkpt><trkpt lat="59.390223026275635" lon="34.66615676879883"><time>2026-08-17T15:47:57.000Z</time><extensions/></trkpt><trkpt lat="59.390201568603516" lon="34.66604948043823"><time>2026-08-17T15:48:00.000Z</time><extensions/></trkpt><trkpt lat="59.3901801109314" lon="34.665963649749756"><time>2026-08-17T15:48:02.000Z</time><extensions/></trkpt><trkpt lat="59.3901801109314" lon="34.6658992767334"><time>2026-08-17T15:48:05.000Z</time><extensions/></trkpt><trkpt lat="59.390201568603516" lon="34.66583490371704"><time>2026-08-17T15:48:07.000Z</time><extensions/></trkpt><trkpt lat="59.390201568603516" lon="34.665770530700684"><time>2026-08-17T15:48:10.000Z</time><extensions/></trkpt><trkpt lat="59.390223026275635" lon="34.665727615356445"><time>2026-08-17T15:48:12.000Z</time><extensions/></trkpt><trkpt lat="59.390223026275635" lon="34.66568470001221"><time>2026-08-17T15:48:15.000Z</time><extensions/></trkpt><trkpt lat="59.390201568603516" lon="34.66562032699585"><time>2026-08-17T15:48:17.000Z</time><extensions/></trkpt><trkpt lat="59.390201568603516" lon="34.66555595397949"><time>2026-08-17T15:48:20.000Z</time><extensions/></trkpt><trkpt lat="59.390244483947754" lon="34.665513038635254"><time>2026-08-17T15:48:22.000Z</time><extensions/></trkpt><trkpt lat="59.39026594161987" lon="34.66553449630737"><time>2026-08-17T15:48:25.000Z</time><extensions/></trkpt><trkpt lat="59.39030885696411" lon="34.66555595397949"><time>2026-08-17T15:48:27.000Z</time><extensions/></trkpt><trkpt lat="59.39030885696411" lon="34.66559886932373"><time>2026-08-17T15:48:30.000Z</time><extensions/></trkpt><trkpt lat="59.39028739929199" lon="34.66559886932373"><time>2026-08-17T15:48:32.000Z</time><extensions/></trkpt><trkpt lat="59.39026594161987" lon="34.66562032699585"><time>2026-08-17T15:48:35.000Z</time><extensions/></trkpt><trkpt lat="59.390244483947754" lon="34.66564178466797"><time>2026-08-17T15:48:37.000Z</time><extensions/></trkpt><trkpt lat="59.390201568603516" lon="34.665706157684326"><time>2026-08-17T15:48:40.000Z</time><extensions/></trkpt><trkpt lat="59.3901801109314" lon="34.66568470001221"><time>2026-08-17T15:48:42.000Z</time><extensions/></trkpt><trkpt lat="59.390201568603516" lon="34.66568470001221"><time>2026-08-17T15:48:45.000Z</time><extensions/></trkpt><trkpt lat="59.3901801109314" lon="34.66564178466797"><time>2026-08-17T15:48:47.000Z</time><extensions/></trkpt><trkpt lat="59.3901801109314" lon="34.665491580963135"><time>2026-08-17T15:49:00.000Z</time><extensions/></trkpt><trkpt lat="59.390201568603516" lon="34.66542720794678"><time>2026-08-17T15:49:02.000Z</time><extensions/></trkpt><trkpt lat="59.390244483947754" lon="34.66531991958618"><time>2026-08-17T15:49:05.000Z</time><extensions/></trkpt><trkpt lat="59.39026594161987" lon="34.665234088897705"><time>2026-08-17T15:49:07.000Z</time><extensions/></trkpt><trkpt lat="59.390244483947754" lon="34.665255546569824"><time>2026-08-17T15:49:10.000Z</time><extensions/></trkpt><trkpt lat="59.390223026275635" lon="34.66529846191406"><time>2026-08-17T15:49:12.000Z</time><extensions/></trkpt><trkpt lat="59.390201568603516" lon="34.6653413772583"><time>2026-08-17T15:49:15.000Z</time><extensions/></trkpt><trkpt lat="59.3901801109314" lon="34.66527700424194"><time>2026-08-17T15:49:17.000Z</time><extensions/></trkpt><trkpt lat="59.39013719558716" lon="34.665234088897705"><time>2026-08-17T15:49:20.000Z</time><extensions/></trkpt><trkpt lat="59.39011573791504" lon="34.665255546569824"><time>2026-08-17T15:49:22.000Z</time><extensions/></trkpt><trkpt lat="59.39013719558716" lon="34.66531991958618"><time>2026-08-17T15:49:25.000Z</time><extensions/></trkpt><trkpt lat="59.39015865325928" lon="34.66540575027466"><time>2026-08-17T15:49:27.000Z</time><extensions/></trkpt><trkpt lat="59.390201568603516" lon="34.66540575027466"><time>2026-08-17T15:49:50.000Z</time><extensions/></trkpt><trkpt lat="59.390201568603516" lon="34.66540575027466"><time>2026-08-17T15:50:02.000Z</time><extensions/></trkpt><trkpt lat="59.390201568603516" lon="34.66540575027466"><time>2026-08-17T15:50:10.000Z</time><extensions/></trkpt><trkpt lat="59.390201568603516" lon="34.6654486656189"><time>2026-08-17T15:50:40.000Z</time><extensions/></trkpt><trkpt lat="59.390201568603516" lon="34.66542720794678"><time>2026-08-17T15:50:42.000Z</time><extensions/></trkpt><trkpt lat="59.390201568603516" lon="34.66531991958618"><time>2026-08-17T15:50:45.000Z</time><extensions/></trkpt><trkpt lat="59.3901801109314" lon="34.665234088897705"><time>2026-08-17T15:50:47.000Z</time><extensions/></trkpt><trkpt lat="59.39015865325928" lon="34.66519117355347"><time>2026-08-17T15:50:50.000Z</time><extensions/></trkpt><trkpt lat="59.39013719558716" lon="34.66519117355347"><time>2026-08-17T15:50:52.000Z</time><extensions/></trkpt><trkpt lat="59.39005136489868" lon="34.66519117355347"><time>2026-08-17T15:51:05.000Z</time><extensions/></trkpt><trkpt lat="59.39000844955444" lon="34.66516971588135"><time>2026-08-17T15:51:07.000Z</time><extensions/></trkpt><trkpt lat="59.389986991882324" lon="34.66510534286499"><time>2026-08-17T15:51:10.000Z</time><extensions/></trkpt><trkpt lat="59.389944076538086" lon="34.66510534286499"><time>2026-08-17T15:51:12.000Z</time><extensions/></trkpt><trkpt lat="59.38992261886597" lon="34.66506242752075"><time>2026-08-17T15:51:15.000Z</time><extensions/></trkpt><trkpt lat="59.38987970352173" lon="34.66504096984863"><time>2026-08-17T15:51:17.000Z</time><extensions/></trkpt><trkpt lat="59.38983678817749" lon="34.66504096984863"><time>2026-08-17T15:51:20.000Z</time><extensions/></trkpt><trkpt lat="59.38981533050537" lon="34.664955139160156"><time>2026-08-17T15:51:22.000Z</time><extensions/></trkpt><trkpt lat="59.38985824584961" lon="34.66484785079956"><time>2026-08-17T15:51:25.000Z</time><extensions/></trkpt><trkpt lat="59.38987970352173" lon="34.6647834777832"><time>2026-08-17T15:51:27.000Z</time><extensions/></trkpt><trkpt lat="59.38992261886597" lon="34.664719104766846"><time>2026-08-17T15:51:30.000Z</time><extensions/></trkpt><trkpt lat="59.389965534210205" lon="34.66463327407837"><time>2026-08-17T15:51:32.000Z</time><extensions/></trkpt><trkpt lat="59.389986991882324" lon="34.66454744338989"><time>2026-08-17T15:51:35.000Z</time><extensions/></trkpt><trkpt lat="59.389944076538086" lon="34.664483070373535"><time>2026-08-17T15:51:40.000Z</time><extensions/></trkpt><trkpt lat="59.38992261886597" lon="34.664483070373535"><time>2026-08-17T15:51:42.000Z</time><extensions/></trkpt><trkpt lat="59.38987970352173" lon="34.664504528045654"><time>2026-08-17T15:51:52.000Z</time><extensions/></trkpt><trkpt lat="59.38981533050537" lon="34.66452598571777"><time>2026-08-17T15:52:00.000Z</time><extensions/></trkpt><trkpt lat="59.38981533050537" lon="34.664461612701416"><time>2026-08-17T15:52:02.000Z</time><extensions/></trkpt><trkpt lat="59.38981533050537" lon="34.66439723968506"><time>2026-08-17T15:52:05.000Z</time><extensions/></trkpt><trkpt lat="59.38979387283325" lon="34.6643328666687"><time>2026-08-17T15:52:07.000Z</time><extensions/></trkpt><trkpt lat="59.38983678817749" lon="34.66428995132446"><time>2026-08-17T15:52:10.000Z</time><extensions/></trkpt><trkpt lat="59.38983678817749" lon="34.66428995132446"><time>2026-08-17T15:52:12.000Z</time><extensions/></trkpt><trkpt lat="59.38977241516113" lon="34.66428995132446"><time>2026-08-17T15:52:15.000Z</time><extensions/></trkpt><trkpt lat="59.389750957489014" lon="34.664247035980225"><time>2026-08-17T15:52:17.000Z</time><extensions/></trkpt><trkpt lat="59.389750957489014" lon="34.664204120635986"><time>2026-08-17T15:52:20.000Z</time><extensions/></trkpt><trkpt lat="59.38977241516113" lon="34.66416120529175"><time>2026-08-17T15:52:22.000Z</time><extensions/></trkpt><trkpt lat="59.38977241516113" lon="34.66409683227539"><time>2026-08-17T15:52:25.000Z</time><extensions/></trkpt><trkpt lat="59.389750957489014" lon="34.66407537460327"><time>2026-08-17T15:52:27.000Z</time><extensions/></trkpt><trkpt lat="59.389729499816895" lon="34.66405391693115"><time>2026-08-17T15:52:30.000Z</time><extensions/></trkpt><trkpt lat="59.389708042144775" lon="34.664011001586914"><time>2026-08-17T15:52:32.000Z</time><extensions/></trkpt><trkpt lat="59.389686584472656" lon="34.664011001586914"><time>2026-08-17T15:52:35.000Z</time><extensions/></trkpt><trkpt lat="59.389686584472656" lon="34.66405391693115"><time>2026-08-17T15:52:37.000Z</time><extensions/></trkpt><trkpt lat="59.389686584472656" lon="34.663968086242676"><time>2026-08-17T15:52:45.000Z</time><extensions/></trkpt><trkpt lat="59.389708042144775" lon="34.66392517089844"><time>2026-08-17T15:52:47.000Z</time><extensions/></trkpt><trkpt lat="59.389708042144775" lon="34.66379642486572"><time>2026-08-17T15:53:07.000Z</time><extensions/></trkpt><trkpt lat="59.389729499816895" lon="34.6638822555542"><time>2026-08-17T15:53:10.000Z</time><extensions/></trkpt><trkpt lat="59.389750957489014" lon="34.66390371322632"><time>2026-08-17T15:53:12.000Z</time><extensions/></trkpt><trkpt lat="59.389729499816895" lon="34.66403245925903"><time>2026-08-17T15:53:42.000Z</time><extensions/></trkpt><trkpt lat="59.389729499816895" lon="34.66403245925903"><time>2026-08-17T15:53:52.000Z</time><extensions/></trkpt><trkpt lat="59.389729499816895" lon="34.66403245925903"><time>2026-08-17T15:54:07.000Z</time><extensions/></trkpt><trkpt lat="59.389729499816895" lon="34.663968086242676"><time>2026-08-17T15:54:15.000Z</time><extensions/></trkpt><trkpt lat="59.38977241516113" lon="34.6638822555542"><time>2026-08-17T15:54:17.000Z</time><extensions/></trkpt><trkpt lat="59.38977241516113" lon="34.6637749671936"><time>2026-08-17T15:54:20.000Z</time><extensions/></trkpt><trkpt lat="59.38979387283325" lon="34.66392517089844"><time>2026-08-17T15:54:25.000Z</time><extensions/></trkpt><trkpt lat="59.389750957489014" lon="34.663968086242676"><time>2026-08-17T15:54:27.000Z</time><extensions/></trkpt><trkpt lat="59.389729499816895" lon="34.66390371322632"><time>2026-08-17T15:54:30.000Z</time><extensions/></trkpt><trkpt lat="59.389708042144775" lon="34.66379642486572"><time>2026-08-17T15:54:32.000Z</time><extensions/></trkpt><trkpt lat="59.38964366912842" lon="34.66368913650513"><time>2026-08-17T15:54:37.000Z</time><extensions/></trkpt><trkpt lat="59.38953638076782" lon="34.66366767883301"><time>2026-08-17T15:54:45.000Z</time><extensions/></trkpt><trkpt lat="59.389493465423584" lon="34.66362476348877"><time>2026-08-17T15:54:47.000Z</time><extensions/></trkpt><trkpt lat="59.389450550079346" lon="34.66356039047241"><time>2026-08-17T15:54:50.000Z</time><extensions/></trkpt><trkpt lat="59.38940763473511" lon="34.66353893280029"><time>2026-08-17T15:54:55.000Z</time><extensions/></trkpt><trkpt lat="59.38940763473511" lon="34.66356039047241"><time>2026-08-17T15:55:05.000Z</time><extensions/></trkpt><trkpt lat="59.389450550079346" lon="34.66362476348877"><time>2026-08-17T15:55:07.000Z</time><extensions/></trkpt><trkpt lat="59.389493465423584" lon="34.66366767883301"><time>2026-08-17T15:55:10.000Z</time><extensions/></trkpt><trkpt lat="59.389493465423584" lon="34.663710594177246"><time>2026-08-17T15:55:12.000Z</time><extensions/></trkpt><trkpt lat="59.389472007751465" lon="34.66379642486572"><time>2026-08-17T15:55:15.000Z</time><extensions/></trkpt><trkpt lat="59.38942909240723" lon="34.66383934020996"><time>2026-08-17T15:55:17.000Z</time><extensions/></trkpt><trkpt lat="59.38938617706299" lon="34.66383934020996"><time>2026-08-17T15:55:20.000Z</time><extensions/></trkpt><trkpt lat="59.38936471939087" lon="34.66383934020996"><time>2026-08-17T15:55:22.000Z</time><extensions/></trkpt><trkpt lat="59.38932180404663" lon="34.66386079788208"><time>2026-08-17T15:55:25.000Z</time><extensions/></trkpt><trkpt lat="59.38932180404663" lon="34.66390371322632"><time>2026-08-17T15:55:30.000Z</time><extensions/></trkpt><trkpt lat="59.38934326171875" lon="34.66386079788208"><time>2026-08-17T15:55:37.000Z</time><extensions/></trkpt><trkpt lat="59.38932180404663" lon="34.66379642486572"><time>2026-08-17T15:55:40.000Z</time><extensions/></trkpt><trkpt lat="59.38927888870239" lon="34.6637749671936"><time>2026-08-17T15:55:42.000Z</time><extensions/></trkpt><trkpt lat="59.38925743103027" lon="34.66381788253784"><time>2026-08-17T15:55:45.000Z</time><extensions/></trkpt><trkpt lat="59.389214515686035" lon="34.66383934020996"><time>2026-08-17T15:55:47.000Z</time><extensions/></trkpt><trkpt lat="59.389193058013916" lon="34.6637749671936"><time>2026-08-17T15:55:50.000Z</time><extensions/></trkpt><trkpt lat="59.389214515686035" lon="34.66368913650513"><time>2026-08-17T15:55:52.000Z</time><extensions/></trkpt><trkpt lat="59.3891716003418" lon="34.663517475128174"><time>2026-08-17T15:56:07.000Z</time><extensions/></trkpt><trkpt lat="59.38915014266968" lon="34.663474559783936"><time>2026-08-17T15:56:10.000Z</time><extensions/></trkpt><trkpt lat="59.38910722732544" lon="34.663496017456055"><time>2026-08-17T15:56:12.000Z</time><extensions/></trkpt><trkpt lat="59.3890643119812" lon="34.663496017456055"><time>2026-08-17T15:56:15.000Z</time><extensions/></trkpt><trkpt lat="59.38904285430908" lon="34.663474559783936"><time>2026-08-17T15:56:17.000Z</time><extensions/></trkpt><trkpt lat="59.38902139663696" lon="34.66338872909546"><time>2026-08-17T15:56:20.000Z</time><extensions/></trkpt><trkpt lat="59.388999938964844" lon="34.66330289840698"><time>2026-08-17T15:56:22.000Z</time><extensions/></trkpt><trkpt lat="59.388978481292725" lon="34.66330289840698"><time>2026-08-17T15:56:25.000Z</time><extensions/></trkpt><trkpt lat="59.388957023620605" lon="34.66330289840698"><time>2026-08-17T15:56:27.000Z</time><extensions/></trkpt><trkpt lat="59.388978481292725" lon="34.66328144073486"><time>2026-08-17T15:56:30.000Z</time><extensions/></trkpt><trkpt lat="59.38904285430908" lon="34.66328144073486"><time>2026-08-17T15:56:32.000Z</time><extensions/></trkpt><trkpt lat="59.38904285430908" lon="34.6633243560791"><time>2026-08-17T15:56:35.000Z</time><extensions/></trkpt><trkpt lat="59.38902139663696" lon="34.6634316444397"><time>2026-08-17T15:56:37.000Z</time><extensions/></trkpt><trkpt lat="59.388978481292725" lon="34.663496017456055"><time>2026-08-17T15:56:40.000Z</time><extensions/></trkpt><trkpt lat="59.38891410827637" lon="34.663496017456055"><time>2026-08-17T15:56:42.000Z</time><extensions/></trkpt><trkpt lat="59.388742446899414" lon="34.66364622116089"><time>2026-08-17T15:56:52.000Z</time><extensions/></trkpt><trkpt lat="59.388720989227295" lon="34.663710594177246"><time>2026-08-17T15:56:55.000Z</time><extensions/></trkpt><trkpt lat="59.388699531555176" lon="34.663732051849365"><time>2026-08-17T15:56:57.000Z</time><extensions/></trkpt><trkpt lat="59.38876390457153" lon="34.66362476348877"><time>2026-08-17T15:57:02.000Z</time><extensions/></trkpt><trkpt lat="59.38884973526001" lon="34.66356039047241"><time>2026-08-17T15:57:05.000Z</time><extensions/></trkpt><trkpt lat="59.38891410827637" lon="34.663474559783936"><time>2026-08-17T15:57:07.000Z</time><extensions/></trkpt><trkpt lat="59.388935565948486" lon="34.663496017456055"><time>2026-08-17T15:57:12.000Z</time><extensions/></trkpt><trkpt lat="59.388935565948486" lon="34.66353893280029"><time>2026-08-17T15:57:15.000Z</time><extensions/></trkpt><trkpt lat="59.38891410827637" lon="34.66362476348877"><time>2026-08-17T15:57:17.000Z</time><extensions/></trkpt><trkpt lat="59.38889265060425" lon="34.663753509521484"><time>2026-08-17T15:57:30.000Z</time><extensions/></trkpt><trkpt lat="59.38889265060425" lon="34.66383934020996"><time>2026-08-17T15:57:32.000Z</time><extensions/></trkpt><trkpt lat="59.38889265060425" lon="34.66394662857056"><time>2026-08-17T15:57:35.000Z</time><extensions/></trkpt><trkpt lat="59.38889265060425" lon="34.66403245925903"><time>2026-08-17T15:57:37.000Z</time><extensions/></trkpt><trkpt lat="59.38884973526001" lon="34.66413974761963"><time>2026-08-17T15:57:40.000Z</time><extensions/></trkpt><trkpt lat="59.38880681991577" lon="34.66418266296387"><time>2026-08-17T15:57:42.000Z</time><extensions/></trkpt><trkpt lat="59.38876390457153" lon="34.66418266296387"><time>2026-08-17T15:57:45.000Z</time><extensions/></trkpt><trkpt lat="59.388742446899414" lon="34.66416120529175"><time>2026-08-17T15:57:47.000Z</time><extensions/></trkpt><trkpt lat="59.388720989227295" lon="34.66407537460327"><time>2026-08-17T15:57:50.000Z</time><extensions/></trkpt><trkpt lat="59.388699531555176" lon="34.663989543914795"><time>2026-08-17T15:57:52.000Z</time><extensions/></trkpt><trkpt lat="59.388699531555176" lon="34.66392517089844"><time>2026-08-17T15:57:55.000Z</time><extensions/></trkpt><trkpt lat="59.38880681991577" lon="34.663989543914795"><time>2026-08-17T15:58:12.000Z</time><extensions/></trkpt><trkpt lat="59.38884973526001" lon="34.66409683227539"><time>2026-08-17T15:58:15.000Z</time><extensions/></trkpt><trkpt lat="59.38887119293213" lon="34.66416120529175"><time>2026-08-17T15:58:17.000Z</time><extensions/></trkpt><trkpt lat="59.38891410827637" lon="34.664225578308105"><time>2026-08-17T15:58:20.000Z</time><extensions/></trkpt><trkpt lat="59.38891410827637" lon="34.664268493652344"><time>2026-08-17T15:58:22.000Z</time><extensions/></trkpt><trkpt lat="59.38889265060425" lon="34.66428995132446"><time>2026-08-17T15:58:25.000Z</time><extensions/></trkpt><trkpt lat="59.38887119293213" lon="34.66435432434082"><time>2026-08-17T15:58:27.000Z</time><extensions/></trkpt><trkpt lat="59.38891410827637" lon="34.66439723968506"><time>2026-08-17T15:58:35.000Z</time><extensions/></trkpt><trkpt lat="59.388935565948486" lon="34.66441869735718"><time>2026-08-17T15:58:37.000Z</time><extensions/></trkpt><trkpt lat="59.388957023620605" lon="34.664461612701416"><time>2026-08-17T15:58:40.000Z</time><extensions/></trkpt><trkpt lat="59.388935565948486" lon="34.664504528045654"><time>2026-08-17T15:58:42.000Z</time><extensions/></trkpt><trkpt lat="59.38891410827637" lon="34.66454744338989"><time>2026-08-17T15:58:45.000Z</time><extensions/></trkpt><trkpt lat="59.38889265060425" lon="34.66456890106201"><time>2026-08-17T15:58:47.000Z</time><extensions/></trkpt><trkpt lat="59.38884973526001" lon="34.66461181640625"><time>2026-08-17T15:58:50.000Z</time><extensions/></trkpt><trkpt lat="59.38880681991577" lon="34.66461181640625"><time>2026-08-17T15:58:52.000Z</time><extensions/></trkpt><trkpt lat="59.38876390457153" lon="34.66456890106201"><time>2026-08-17T15:58:55.000Z</time><extensions/></trkpt><trkpt lat="59.388742446899414" lon="34.66452598571777"><time>2026-08-17T15:58:57.000Z</time><extensions/></trkpt><trkpt lat="59.38867807388306" lon="34.664461612701416"><time>2026-08-17T15:59:15.000Z</time><extensions/></trkpt><trkpt lat="59.388699531555176" lon="34.66431140899658"><time>2026-08-17T15:59:40.000Z</time><extensions/></trkpt><trkpt lat="59.388699531555176" lon="34.66431140899658"><time>2026-08-17T15:59:57.000Z</time><extensions/></trkpt><trkpt lat="59.388699531555176" lon="34.66431140899658"><time>2026-08-17T16:00:02.000Z</time><extensions/></trkpt><trkpt lat="59.38863515853882" lon="34.66435432434082"><time>2026-08-17T16:00:05.000Z</time><extensions/></trkpt><trkpt lat="59.3886137008667" lon="34.66437578201294"><time>2026-08-17T16:00:07.000Z</time><extensions/></trkpt><trkpt lat="59.38857078552246" lon="34.66441869735718"><time>2026-08-17T16:00:10.000Z</time><extensions/></trkpt><trkpt lat="59.38852787017822" lon="34.6644401550293"><time>2026-08-17T16:00:12.000Z</time><extensions/></trkpt><trkpt lat="59.388463497161865" lon="34.66441869735718"><time>2026-08-17T16:00:15.000Z</time><extensions/></trkpt><trkpt lat="59.388442039489746" lon="34.66437578201294"><time>2026-08-17T16:00:17.000Z</time><extensions/></trkpt><trkpt lat="59.38839912414551" lon="34.66437578201294"><time>2026-08-17T16:00:20.000Z</time><extensions/></trkpt><trkpt lat="59.38835620880127" lon="34.66437578201294"><time>2026-08-17T16:00:22.000Z</time><extensions/></trkpt><trkpt lat="59.38839912414551" lon="34.66439723968506"><time>2026-08-17T16:00:27.000Z</time><extensions/></trkpt><trkpt lat="59.38839912414551" lon="34.664461612701416"><time>2026-08-17T16:00:30.000Z</time><extensions/></trkpt><trkpt lat="59.38837766647339" lon="34.66452598571777"><time>2026-08-17T16:00:32.000Z</time><extensions/></trkpt><trkpt lat="59.38837766647339" lon="34.66463327407837"><time>2026-08-17T16:00:35.000Z</time><extensions/></trkpt><trkpt lat="59.38839912414551" lon="34.66469764709473"><time>2026-08-17T16:00:37.000Z</time><extensions/></trkpt><trkpt lat="59.38842058181763" lon="34.664719104766846"><time>2026-08-17T16:00:40.000Z</time><extensions/></trkpt><trkpt lat="59.38837766647339" lon="34.66469764709473"><time>2026-08-17T16:00:57.000Z</time><extensions/></trkpt><trkpt lat="59.38833475112915" lon="34.664719104766846"><time>2026-08-17T16:01:00.000Z</time><extensions/></trkpt><trkpt lat="59.38829183578491" lon="34.6647834777832"><time>2026-08-17T16:01:02.000Z</time><extensions/></trkpt><trkpt lat="59.388248920440674" lon="34.66480493545532"><time>2026-08-17T16:01:05.000Z</time><extensions/></trkpt><trkpt lat="59.388206005096436" lon="34.6647834777832"><time>2026-08-17T16:01:07.000Z</time><extensions/></trkpt><trkpt lat="59.388206005096436" lon="34.664740562438965"><time>2026-08-17T16:01:10.000Z</time><extensions/></trkpt><trkpt lat="59.388184547424316" lon="34.664740562438965"><time>2026-08-17T16:01:15.000Z</time><extensions/></trkpt><trkpt lat="59.38814163208008" lon="34.664762020111084"><time>2026-08-17T16:01:17.000Z</time><extensions/></trkpt><trkpt lat="59.38812017440796" lon="34.66482639312744"><time>2026-08-17T16:01:20.000Z</time><extensions/></trkpt><trkpt lat="59.38809871673584" lon="34.66486930847168"><time>2026-08-17T16:01:22.000Z</time><extensions/></trkpt><trkpt lat="59.38803434371948" lon="34.66486930847168"><time>2026-08-17T16:01:25.000Z</time><extensions/></trkpt><trkpt lat="59.387991428375244" lon="34.6648907661438"><time>2026-08-17T16:01:37.000Z</time><extensions/></trkpt><trkpt lat="59.387948513031006" lon="34.6648907661438"><time>2026-08-17T16:01:40.000Z</time><extensions/></trkpt><trkpt lat="59.38790559768677" lon="34.6648907661438"><time>2026-08-17T16:01:42.000Z</time><extensions/></trkpt><trkpt lat="59.38790559768677" lon="34.66480493545532"><time>2026-08-17T16:01:45.000Z</time><extensions/></trkpt><trkpt lat="59.38788414001465" lon="34.664719104766846"><time>2026-08-17T16:01:47.000Z</time><extensions/></trkpt><trkpt lat="59.38790559768677" lon="34.66463327407837"><time>2026-08-17T16:01:50.000Z</time><extensions/></trkpt><trkpt lat="59.38792705535889" lon="34.66454744338989"><time>2026-08-17T16:01:52.000Z</time><extensions/></trkpt><trkpt lat="59.38792705535889" lon="34.664483070373535"><time>2026-08-17T16:01:55.000Z</time><extensions/></trkpt><trkpt lat="59.38792705535889" lon="34.66439723968506"><time>2026-08-17T16:01:57.000Z</time><extensions/></trkpt><trkpt lat="59.38790559768677" lon="34.6643328666687"><time>2026-08-17T16:02:00.000Z</time><extensions/></trkpt><trkpt lat="59.38790559768677" lon="34.664247035980225"><time>2026-08-17T16:02:02.000Z</time><extensions/></trkpt><trkpt lat="59.38788414001465" lon="34.664204120635986"><time>2026-08-17T16:02:05.000Z</time><extensions/></trkpt><trkpt lat="59.38786268234253" lon="34.66418266296387"><time>2026-08-17T16:02:07.000Z</time><extensions/></trkpt><trkpt lat="59.38779830932617" lon="34.66416120529175"><time>2026-08-17T16:02:10.000Z</time><extensions/></trkpt><trkpt lat="59.38777685165405" lon="34.66416120529175"><time>2026-08-17T16:02:12.000Z</time><extensions/></trkpt><trkpt lat="59.387712478637695" lon="34.664204120635986"><time>2026-08-17T16:02:15.000Z</time><extensions/></trkpt><trkpt lat="59.387691020965576" lon="34.664204120635986"><time>2026-08-17T16:02:17.000Z</time><extensions/></trkpt><trkpt lat="59.38766956329346" lon="34.66418266296387"><time>2026-08-17T16:02:20.000Z</time><extensions/></trkpt><trkpt lat="59.38762664794922" lon="34.664204120635986"><time>2026-08-17T16:02:22.000Z</time><extensions/></trkpt><trkpt lat="59.38758373260498" lon="34.664225578308105"><time>2026-08-17T16:02:25.000Z</time><extensions/></trkpt><trkpt lat="59.38756227493286" lon="34.664204120635986"><time>2026-08-17T16:02:27.000Z</time><extensions/></trkpt><trkpt lat="59.38758373260498" lon="34.66411828994751"><time>2026-08-17T16:02:30.000Z</time><extensions/></trkpt><trkpt lat="59.3876051902771" lon="34.66405391693115"><time>2026-08-17T16:02:32.000Z</time><extensions/></trkpt><trkpt lat="59.3876051902771" lon="34.664011001586914"><time>2026-08-17T16:02:35.000Z</time><extensions/></trkpt><trkpt lat="59.38764810562134" lon="34.66409683227539"><time>2026-08-17T16:02:40.000Z</time><extensions/></trkpt><trkpt lat="59.387712478637695" lon="34.66416120529175"><time>2026-08-17T16:02:42.000Z</time><extensions/></trkpt><trkpt lat="59.38777685165405" lon="34.66413974761963"><time>2026-08-17T16:02:45.000Z</time><extensions/></trkpt><trkpt lat="59.38781976699829" lon="34.66413974761963"><time>2026-08-17T16:02:47.000Z</time><extensions/></trkpt><trkpt lat="59.38781976699829" lon="34.66413974761963"><time>2026-08-17T16:03:00.000Z</time><extensions/></trkpt><trkpt lat="59.38781976699829" lon="34.664225578308105"><time>2026-08-17T16:03:30.000Z</time><extensions/></trkpt><trkpt lat="59.38779830932617" lon="34.664247035980225"><time>2026-08-17T16:03:40.000Z</time><extensions/></trkpt><trkpt lat="59.38777685165405" lon="34.664225578308105"><time>2026-08-17T16:03:42.000Z</time><extensions/></trkpt><trkpt lat="59.387712478637695" lon="34.66416120529175"><time>2026-08-17T16:03:52.000Z</time><extensions/></trkpt><trkpt lat="59.38766956329346" lon="34.66413974761963"><time>2026-08-17T16:03:57.000Z</time><extensions/></trkpt><trkpt lat="59.38764810562134" lon="34.66418266296387"><time>2026-08-17T16:04:02.000Z</time><extensions/></trkpt><trkpt lat="59.38758373260498" lon="34.66439723968506"><time>2026-08-17T16:04:15.000Z</time><extensions/></trkpt><trkpt lat="59.38758373260498" lon="34.6644401550293"><time>2026-08-17T16:04:17.000Z</time><extensions/></trkpt><trkpt lat="59.38758373260498" lon="34.664461612701416"><time>2026-08-17T16:04:22.000Z</time><extensions/></trkpt><trkpt lat="59.38758373260498" lon="34.66454744338989"><time>2026-08-17T16:04:25.000Z</time><extensions/></trkpt><trkpt lat="59.38756227493286" lon="34.66459035873413"><time>2026-08-17T16:04:27.000Z</time><extensions/></trkpt><trkpt lat="59.38754081726074" lon="34.66463327407837"><time>2026-08-17T16:04:30.000Z</time><extensions/></trkpt><trkpt lat="59.38751935958862" lon="34.66463327407837"><time>2026-08-17T16:04:32.000Z</time><extensions/></trkpt><trkpt lat="59.387454986572266" lon="34.66465473175049"><time>2026-08-17T16:04:35.000Z</time><extensions/></trkpt><trkpt lat="59.38743352890015" lon="34.66467618942261"><time>2026-08-17T16:04:37.000Z</time><extensions/></trkpt><trkpt lat="59.38736915588379" lon="34.66463327407837"><time>2026-08-17T16:04:40.000Z</time><extensions/></trkpt><trkpt lat="59.38739061355591" lon="34.66459035873413"><time>2026-08-17T16:04:42.000Z</time><extensions/></trkpt><trkpt lat="59.387454986572266" lon="34.66461181640625"><time>2026-08-17T16:04:45.000Z</time><extensions/></trkpt><trkpt lat="59.387476444244385" lon="34.664719104766846"><time>2026-08-17T16:04:47.000Z</time><extensions/></trkpt><trkpt lat="59.387497901916504" lon="34.66484785079956"><time>2026-08-17T16:04:50.000Z</time><extensions/></trkpt><trkpt lat="59.387497901916504" lon="34.664976596832275"><time>2026-08-17T16:04:52.000Z</time><extensions/></trkpt><trkpt lat="59.387476444244385" lon="34.66510534286499"><time>2026-08-17T16:05:00.000Z</time><extensions/></trkpt><trkpt lat="59.387454986572266" lon="34.665470123291016"><time>2026-08-17T16:05:10.000Z</time><extensions/></trkpt><trkpt lat="59.387454986572266" lon="34.66555595397949"><time>2026-08-17T16:05:12.000Z</time><extensions/></trkpt><trkpt lat="59.387454986572266" lon="34.66564178466797"><time>2026-08-17T16:05:15.000Z</time><extensions/></trkpt><trkpt lat="59.387454986572266" lon="34.665491580963135"><time>2026-08-17T16:05:30.000Z</time><extensions/></trkpt><trkpt lat="59.38741207122803" lon="34.66536283493042"><time>2026-08-17T16:05:42.000Z</time><extensions/></trkpt><trkpt lat="59.38736915588379" lon="34.6653413772583"><time>2026-08-17T16:05:45.000Z</time><extensions/></trkpt><trkpt lat="59.38734769821167" lon="34.66527700424194"><time>2026-08-17T16:05:47.000Z</time><extensions/></trkpt><trkpt lat="59.38732624053955" lon="34.665255546569824"><time>2026-08-17T16:05:50.000Z</time><extensions/></trkpt><trkpt lat="59.38730478286743" lon="34.665234088897705"><time>2026-08-17T16:05:52.000Z</time><extensions/></trkpt><trkpt lat="59.38726186752319" lon="34.665212631225586"><time>2026-08-17T16:05:55.000Z</time><extensions/></trkpt><trkpt lat="59.387218952178955" lon="34.66519117355347"><time>2026-08-17T16:05:57.000Z</time><extensions/></trkpt><trkpt lat="59.387197494506836" lon="34.66519117355347"><time>2026-08-17T16:06:00.000Z</time><extensions/></trkpt><trkpt lat="59.3871545791626" lon="34.66504096984863"><time>2026-08-17T16:06:12.000Z</time><extensions/></trkpt><trkpt lat="59.38713312149048" lon="34.66508388519287"><time>2026-08-17T16:06:22.000Z</time><extensions/></trkpt><trkpt lat="59.38713312149048" lon="34.66519117355347"><time>2026-08-17T16:06:25.000Z</time><extensions/></trkpt><trkpt lat="59.38713312149048" lon="34.66529846191406"><time>2026-08-17T16:06:27.000Z</time><extensions/></trkpt><trkpt lat="59.38713312149048" lon="34.66536283493042"><time>2026-08-17T16:06:30.000Z</time><extensions/></trkpt><trkpt lat="59.38709020614624" lon="34.66540575027466"><time>2026-08-17T16:06:35.000Z</time><extensions/></trkpt><trkpt lat="59.387047290802" lon="34.66542720794678"><time>2026-08-17T16:06:37.000Z</time><extensions/></trkpt><trkpt lat="59.387004375457764" lon="34.66538429260254"><time>2026-08-17T16:06:40.000Z</time><extensions/></trkpt><trkpt lat="59.386961460113525" lon="34.66531991958618"><time>2026-08-17T16:06:42.000Z</time><extensions/></trkpt><trkpt lat="59.386940002441406" lon="34.665234088897705"><time>2026-08-17T16:06:45.000Z</time><extensions/></trkpt><trkpt lat="59.386940002441406" lon="34.66514825820923"><time>2026-08-17T16:06:47.000Z</time><extensions/></trkpt><trkpt lat="59.386961460113525" lon="34.66510534286499"><time>2026-08-17T16:06:50.000Z</time><extensions/></trkpt><trkpt lat="59.38691854476929" lon="34.66514825820923"><time>2026-08-17T16:06:52.000Z</time><extensions/></trkpt><trkpt lat="59.38691854476929" lon="34.665212631225586"><time>2026-08-17T16:06:55.000Z</time><extensions/></trkpt><trkpt lat="59.386940002441406" lon="34.66519117355347"><time>2026-08-17T16:06:57.000Z</time><extensions/></trkpt><trkpt lat="59.386961460113525" lon="34.66516971588135"><time>2026-08-17T16:07:00.000Z</time><extensions/></trkpt><trkpt lat="59.386961460113525" lon="34.66514825820923"><time>2026-08-17T16:07:02.000Z</time><extensions/></trkpt><trkpt lat="59.387004375457764" lon="34.66510534286499"><time>2026-08-17T16:07:27.000Z</time><extensions/></trkpt><trkpt lat="59.387004375457764" lon="34.66510534286499"><time>2026-08-17T16:07:42.000Z</time><extensions/></trkpt><trkpt lat="59.387004375457764" lon="34.66510534286499"><time>2026-08-17T16:07:52.000Z</time><extensions/></trkpt><trkpt lat="59.386940002441406" lon="34.66512680053711"><time>2026-08-17T16:07:55.000Z</time><extensions/></trkpt><trkpt lat="59.38689708709717" lon="34.66512680053711"><time>2026-08-17T16:07:57.000Z</time><extensions/></trkpt><trkpt lat="59.38685417175293" lon="34.66514825820923"><time>2026-08-17T16:08:00.000Z</time><extensions/></trkpt><trkpt lat="59.38683271408081" lon="34.66519117355347"><time>2026-08-17T16:08:02.000Z</time><extensions/></trkpt><trkpt lat="59.38678979873657" lon="34.665234088897705"><time>2026-08-17T16:08:05.000Z</time><extensions/></trkpt><trkpt lat="59.38676834106445" lon="34.66527700424194"><time>2026-08-17T16:08:07.000Z</time><extensions/></trkpt><trkpt lat="59.38663959503174" lon="34.66531991958618"><time>2026-08-17T16:08:12.000Z</time><extensions/></trkpt><trkpt lat="59.38661813735962" lon="34.665234088897705"><time>2026-08-17T16:08:15.000Z</time><extensions/></trkpt><trkpt lat="59.38663959503174" lon="34.66516971588135"><time>2026-08-17T16:08:17.000Z</time><extensions/></trkpt><trkpt lat="59.3865966796875" lon="34.665255546569824"><time>2026-08-17T16:08:22.000Z</time><extensions/></trkpt><trkpt lat="59.38655376434326" lon="34.66527700424194"><time>2026-08-17T16:08:25.000Z</time><extensions/></trkpt><trkpt lat="59.38651084899902" lon="34.66531991958618"><time>2026-08-17T16:08:27.000Z</time><extensions/></trkpt><trkpt lat="59.38642501831055" lon="34.66536283493042"><time>2026-08-17T16:08:42.000Z</time><extensions/></trkpt><trkpt lat="59.38640356063843" lon="34.66542720794678"><time>2026-08-17T16:08:45.000Z</time><extensions/></trkpt><trkpt lat="59.38638210296631" lon="34.665513038635254"><time>2026-08-17T16:08:47.000Z</time><extensions/></trkpt><trkpt lat="59.38636064529419" lon="34.66562032699585"><time>2026-08-17T16:08:50.000Z</time><extensions/></trkpt><trkpt lat="59.38633918762207" lon="34.665706157684326"><time>2026-08-17T16:08:52.000Z</time><extensions/></trkpt><trkpt lat="59.38627481460571" lon="34.665749073028564"><time>2026-08-17T16:08:55.000Z</time><extensions/></trkpt><trkpt lat="59.386253356933594" lon="34.665727615356445"><time>2026-08-17T16:08:57.000Z</time><extensions/></trkpt><trkpt lat="59.386188983917236" lon="34.665706157684326"><time>2026-08-17T16:09:00.000Z</time><extensions/></trkpt><trkpt lat="59.386210441589355" lon="34.66566324234009"><time>2026-08-17T16:09:02.000Z</time><extensions/></trkpt><trkpt lat="59.386210441589355" lon="34.66557741165161"><time>2026-08-17T16:09:05.000Z</time><extensions/></trkpt><trkpt lat="59.38616752624512" lon="34.66557741165161"><time>2026-08-17T16:09:07.000Z</time><extensions/></trkpt><trkpt lat="59.38612461090088" lon="34.66553449630737"><time>2026-08-17T16:09:10.000Z</time><extensions/></trkpt><trkpt lat="59.386188983917236" lon="34.665513038635254"><time>2026-08-17T16:09:12.000Z</time><extensions/></trkpt><trkpt lat="59.386188983917236" lon="34.66542720794678"><time>2026-08-17T16:09:15.000Z</time><extensions/></trkpt><trkpt lat="59.386188983917236" lon="34.66538429260254"><time>2026-08-17T16:09:17.000Z</time><extensions/></trkpt><trkpt lat="59.38616752624512" lon="34.6653413772583"><time>2026-08-17T16:09:20.000Z</time><extensions/></trkpt><trkpt lat="59.386146068573" lon="34.66531991958618"><time>2026-08-17T16:09:22.000Z</time><extensions/></trkpt><trkpt lat="59.38616752624512" lon="34.66538429260254"><time>2026-08-17T16:09:32.000Z</time><extensions/></trkpt><trkpt lat="59.386210441589355" lon="34.665470123291016"><time>2026-08-17T16:09:35.000Z</time><extensions/></trkpt><trkpt lat="59.386231899261475" lon="34.66553449630737"><time>2026-08-17T16:09:37.000Z</time><extensions/></trkpt><trkpt lat="59.386231899261475" lon="34.66553449630737"><time>2026-08-17T16:09:57.000Z</time><extensions/></trkpt><trkpt lat="59.386231899261475" lon="34.66553449630737"><time>2026-08-17T16:10:10.000Z</time><extensions/></trkpt><trkpt lat="59.386231899261475" lon="34.66564178466797"><time>2026-08-17T16:10:40.000Z</time><extensions/></trkpt><trkpt lat="59.386188983917236" lon="34.665727615356445"><time>2026-08-17T16:10:45.000Z</time><extensions/></trkpt><trkpt lat="59.386188983917236" lon="34.6657919883728"><time>2026-08-17T16:10:47.000Z</time><extensions/></trkpt><trkpt lat="59.386146068573" lon="34.66583490371704"><time>2026-08-17T16:10:50.000Z</time><extensions/></trkpt><trkpt lat="59.38612461090088" lon="34.66585636138916"><time>2026-08-17T16:10:52.000Z</time><extensions/></trkpt><trkpt lat="59.38610315322876" lon="34.66583490371704"><time>2026-08-17T16:11:22.000Z</time><extensions/></trkpt><trkpt lat="59.38608169555664" lon="34.6657919883728"><time>2026-08-17T16:11:50.000Z</time><extensions/></trkpt><trkpt lat="59.38606023788452" lon="34.66568470001221"><time>2026-08-17T16:11:52.000Z</time><extensions/></trkpt><trkpt lat="59.3860387802124" lon="34.66559886932373"><time>2026-08-17T16:11:55.000Z</time><extensions/></trkpt><trkpt lat="59.3860387802124" lon="34.66553449630737"><time>2026-08-17T16:11:57.000Z</time><extensions/></trkpt><trkpt lat="59.38601732254028" lon="34.66536283493042"><time>2026-08-17T16:12:27.000Z</time><extensions/></trkpt><trkpt lat="59.385952949523926" lon="34.66542720794678"><time>2026-08-17T16:12:42.000Z</time><extensions/></trkpt><trkpt lat="59.38586711883545" lon="34.665513038635254"><time>2026-08-17T16:12:45.000Z</time><extensions/></trkpt><trkpt lat="59.38582420349121" lon="34.665513038635254"><time>2026-08-17T16:12:47.000Z</time><extensions/></trkpt><trkpt lat="59.38578128814697" lon="34.66542720794678"><time>2026-08-17T16:12:52.000Z</time><extensions/></trkpt><trkpt lat="59.385738372802734" lon="34.665470123291016"><time>2026-08-17T16:13:07.000Z</time><extensions/></trkpt><trkpt lat="59.385695457458496" lon="34.66555595397949"><time>2026-08-17T16:13:10.000Z</time><extensions/></trkpt><trkpt lat="59.38565254211426" lon="34.66559886932373"><time>2026-08-17T16:13:12.000Z</time><extensions/></trkpt><trkpt lat="59.38560962677002" lon="34.66568470001221"><time>2026-08-17T16:13:15.000Z</time><extensions/></trkpt><trkpt lat="59.38556671142578" lon="34.6657919883728"><time>2026-08-17T16:13:17.000Z</time><extensions/></trkpt><trkpt lat="59.38554525375366" lon="34.6657919883728"><time>2026-08-17T16:13:20.000Z</time><extensions/></trkpt><trkpt lat="59.385437965393066" lon="34.6657919883728"><time>2026-08-17T16:13:25.000Z</time><extensions/></trkpt><trkpt lat="59.38537359237671" lon="34.66585636138916"><time>2026-08-17T16:13:27.000Z</time><extensions/></trkpt><trkpt lat="59.38539505004883" lon="34.66594219207764"><time>2026-08-17T16:13:30.000Z</time><extensions/></trkpt><trkpt lat="59.385437965393066" lon="34.66594219207764"><time>2026-08-17T16:13:32.000Z</time><extensions/></trkpt><trkpt lat="59.38541650772095" lon="34.66602802276611"><time>2026-08-17T16:13:37.000Z</time><extensions/></trkpt><trkpt lat="59.38541650772095" lon="34.66613531112671"><time>2026-08-17T16:13:40.000Z</time><extensions/></trkpt><trkpt lat="59.38537359237671" lon="34.666242599487305"><time>2026-08-17T16:13:42.000Z</time><extensions/></trkpt><trkpt lat="59.38535213470459" lon="34.66632843017578"><time>2026-08-17T16:13:45.000Z</time><extensions/></trkpt><trkpt lat="59.38530921936035" lon="34.66641426086426"><time>2026-08-17T16:13:47.000Z</time><extensions/></trkpt><trkpt lat="59.38528776168823" lon="34.666457176208496"><time>2026-08-17T16:13:50.000Z</time><extensions/></trkpt><trkpt lat="59.38528776168823" lon="34.66639280319214"><time>2026-08-17T16:13:52.000Z</time><extensions/></trkpt><trkpt lat="59.38528776168823" lon="34.66630697250366"><time>2026-08-17T16:13:55.000Z</time><extensions/></trkpt><trkpt lat="59.38526630401611" lon="34.666221141815186"><time>2026-08-17T16:13:57.000Z</time><extensions/></trkpt><trkpt lat="59.385201930999756" lon="34.66611385345459"><time>2026-08-17T16:14:05.000Z</time><extensions/></trkpt><trkpt lat="59.385201930999756" lon="34.66602802276611"><time>2026-08-17T16:14:15.000Z</time><extensions/></trkpt><trkpt lat="59.385201930999756" lon="34.665963649749756"><time>2026-08-17T16:14:17.000Z</time><extensions/></trkpt><trkpt lat="59.38515901565552" lon="34.66585636138916"><time>2026-08-17T16:14:25.000Z</time><extensions/></trkpt><trkpt lat="59.38511610031128" lon="34.66587781906128"><time>2026-08-17T16:14:27.000Z</time><extensions/></trkpt><trkpt lat="59.38511610031128" lon="34.665963649749756"><time>2026-08-17T16:14:35.000Z</time><extensions/></trkpt><trkpt lat="59.3851375579834" lon="34.66604948043823"><time>2026-08-17T16:14:37.000Z</time><extensions/></trkpt><trkpt lat="59.38518047332764" lon="34.66607093811035"><time>2026-08-17T16:14:40.000Z</time><extensions/></trkpt><trkpt lat="59.385201930999756" lon="34.66609239578247"><time>2026-08-17T16:14:42.000Z</time><extensions/></trkpt><trkpt lat="59.385244846343994" lon="34.66604948043823"><time>2026-08-17T16:14:45.000Z</time><extensions/></trkpt><trkpt lat="59.38528776168823" lon="34.665985107421875"><time>2026-08-17T16:14:55.000Z</time><extensions/></trkpt><trkpt lat="59.38528776168823" lon="34.665963649749756"><time>2026-08-17T16:14:57.000Z</time><extensions/></trkpt><trkpt lat="59.38526630401611" lon="34.66592073440552"><time>2026-08-17T16:15:05.000Z</time><extensions/></trkpt><trkpt lat="59.38528776168823" lon="34.66585636138916"><time>2026-08-17T16:15:07.000Z</time><extensions/></trkpt><trkpt lat="59.38530921936035" lon="34.6657919883728"><time>2026-08-17T16:15:10.000Z</time><extensions/></trkpt><trkpt lat="59.38530921936035" lon="34.665706157684326"><time>2026-08-17T16:15:12.000Z</time><extensions/></trkpt><trkpt lat="59.38526630401611" lon="34.6657919883728"><time>2026-08-17T16:15:17.000Z</time><extensions/></trkpt><trkpt lat="59.385223388671875" lon="34.665727615356445"><time>2026-08-17T16:15:20.000Z</time><extensions/></trkpt><trkpt lat="59.385244846343994" lon="34.66562032699585"><time>2026-08-17T16:15:22.000Z</time><extensions/></trkpt><trkpt lat="59.385223388671875" lon="34.66553449630737"><time>2026-08-17T16:15:25.000Z</time><extensions/></trkpt><trkpt lat="59.385201930999756" lon="34.665470123291016"><time>2026-08-17T16:15:27.000Z</time><extensions/></trkpt><trkpt lat="59.38518047332764" lon="34.66540575027466"><time>2026-08-17T16:15:30.000Z</time><extensions/></trkpt><trkpt lat="59.385201930999756" lon="34.6653413772583"><time>2026-08-17T16:15:32.000Z</time><extensions/></trkpt><trkpt lat="59.385223388671875" lon="34.66529846191406"><time>2026-08-17T16:15:35.000Z</time><extensions/></trkpt><trkpt lat="59.385201930999756" lon="34.6653413772583"><time>2026-08-17T16:15:40.000Z</time><extensions/></trkpt><trkpt lat="59.385201930999756" lon="34.66538429260254"><time>2026-08-17T16:15:42.000Z</time><extensions/></trkpt><trkpt lat="59.385244846343994" lon="34.665491580963135"><time>2026-08-17T16:15:47.000Z</time><extensions/></trkpt><trkpt lat="59.38526630401611" lon="34.665706157684326"><time>2026-08-17T16:15:50.000Z</time><extensions/></trkpt><trkpt lat="59.38535213470459" lon="34.665749073028564"><time>2026-08-17T16:15:52.000Z</time><extensions/></trkpt><trkpt lat="59.38541650772095" lon="34.66564178466797"><time>2026-08-17T16:15:55.000Z</time><extensions/></trkpt><trkpt lat="59.385480880737305" lon="34.66555595397949"><time>2026-08-17T16:15:57.000Z</time><extensions/></trkpt><trkpt lat="59.385459423065186" lon="34.66553449630737"><time>2026-08-17T16:16:00.000Z</time><extensions/></trkpt><trkpt lat="59.385502338409424" lon="34.66555595397949"><time>2026-08-17T16:16:02.000Z</time><extensions/></trkpt><trkpt lat="59.38552379608154" lon="34.66553449630737"><time>2026-08-17T16:16:05.000Z</time><extensions/></trkpt><trkpt lat="59.38552379608154" lon="34.665491580963135"><time>2026-08-17T16:16:07.000Z</time><extensions/></trkpt><trkpt lat="59.3855881690979" lon="34.665470123291016"><time>2026-08-17T16:16:10.000Z</time><extensions/></trkpt><trkpt lat="59.38565254211426" lon="34.66553449630737"><time>2026-08-17T16:16:12.000Z</time><extensions/></trkpt><trkpt lat="59.385738372802734" lon="34.66553449630737"><time>2026-08-17T16:16:15.000Z</time><extensions/></trkpt><trkpt lat="59.38578128814697" lon="34.665470123291016"><time>2026-08-17T16:16:17.000Z</time><extensions/></trkpt><trkpt lat="59.385695457458496" lon="34.665513038635254"><time>2026-08-17T16:16:27.000Z</time><extensions/></trkpt><trkpt lat="59.38560962677002" lon="34.665491580963135"><time>2026-08-17T16:16:30.000Z</time><extensions/></trkpt><trkpt lat="59.38556671142578" lon="34.6653413772583"><time>2026-08-17T16:16:32.000Z</time><extensions/></trkpt><trkpt lat="59.385502338409424" lon="34.66519117355347"><time>2026-08-17T16:16:35.000Z</time><extensions/></trkpt><trkpt lat="59.38552379608154" lon="34.66519117355347"><time>2026-08-17T16:16:37.000Z</time><extensions/></trkpt><trkpt lat="59.38552379608154" lon="34.66510534286499"><time>2026-08-17T16:16:40.000Z</time><extensions/></trkpt><trkpt lat="59.38552379608154" lon="34.665019512176514"><time>2026-08-17T16:16:42.000Z</time><extensions/></trkpt><trkpt lat="59.38552379608154" lon="34.664976596832275"><time>2026-08-17T16:16:45.000Z</time><extensions/></trkpt><trkpt lat="59.38554525375366" lon="34.664998054504395"><time>2026-08-17T16:16:47.000Z</time><extensions/></trkpt><trkpt lat="59.385502338409424" lon="34.66480493545532"><time>2026-08-17T16:16:57.000Z</time><extensions/></trkpt><trkpt lat="59.38554525375366" lon="34.664762020111084"><time>2026-08-17T16:17:00.000Z</time><extensions/></trkpt><trkpt lat="59.38556671142578" lon="34.664719104766846"><time>2026-08-17T16:17:02.000Z</time><extensions/></trkpt><trkpt lat="59.3855881690979" lon="34.66461181640625"><time>2026-08-17T16:17:05.000Z</time><extensions/></trkpt><trkpt lat="59.38556671142578" lon="34.66452598571777"><time>2026-08-17T16:17:07.000Z</time><extensions/></trkpt><trkpt lat="59.38556671142578" lon="34.66437578201294"><time>2026-08-17T16:17:20.000Z</time><extensions/></trkpt><trkpt lat="59.3855881690979" lon="34.664225578308105"><time>2026-08-17T16:17:35.000Z</time><extensions/></trkpt><trkpt lat="59.3855881690979" lon="34.66413974761963"><time>2026-08-17T16:17:37.000Z</time><extensions/></trkpt><trkpt lat="59.38556671142578" lon="34.66405391693115"><time>2026-08-17T16:17:40.000Z</time><extensions/></trkpt><trkpt lat="59.38556671142578" lon="34.664011001586914"><time>2026-08-17T16:17:42.000Z</time><extensions/></trkpt><trkpt lat="59.38556671142578" lon="34.66411828994751"><time>2026-08-17T16:17:47.000Z</time><extensions/></trkpt><trkpt lat="59.38556671142578" lon="34.664268493652344"><time>2026-08-17T16:17:50.000Z</time><extensions/></trkpt><trkpt lat="59.38554525375366" lon="34.66437578201294"><time>2026-08-17T16:17:52.000Z</time><extensions/></trkpt><trkpt lat="59.38552379608154" lon="34.664461612701416"><time>2026-08-17T16:17:55.000Z</time><extensions/></trkpt><trkpt lat="59.385502338409424" lon="34.66441869735718"><time>2026-08-17T16:18:10.000Z</time><extensions/></trkpt><trkpt lat="59.38552379608154" lon="34.66441869735718"><time>2026-08-17T16:18:40.000Z</time><extensions/></trkpt><trkpt lat="59.38552379608154" lon="34.66441869735718"><time>2026-08-17T16:18:50.000Z</time><extensions/></trkpt><trkpt lat="59.38554525375366" lon="34.6644401550293"><time>2026-08-17T16:19:00.000Z</time><extensions/></trkpt><trkpt lat="59.38554525375366" lon="34.664483070373535"><time>2026-08-17T16:19:10.000Z</time><extensions/></trkpt><trkpt lat="59.38552379608154" lon="34.66452598571777"><time>2026-08-17T16:19:12.000Z</time><extensions/></trkpt><trkpt lat="59.38552379608154" lon="34.66456890106201"><time>2026-08-17T16:19:15.000Z</time><extensions/></trkpt><trkpt lat="59.38552379608154" lon="34.66461181640625"><time>2026-08-17T16:19:17.000Z</time><extensions/></trkpt><trkpt lat="59.38554525375366" lon="34.66461181640625"><time>2026-08-17T16:19:20.000Z</time><extensions/></trkpt><trkpt lat="59.38556671142578" lon="34.66463327407837"><time>2026-08-17T16:19:22.000Z</time><extensions/></trkpt><trkpt lat="59.38560962677002" lon="34.66467618942261"><time>2026-08-17T16:19:27.000Z</time><extensions/></trkpt><trkpt lat="59.38565254211426" lon="34.66463327407837"><time>2026-08-17T16:19:32.000Z</time><extensions/></trkpt><trkpt lat="59.38565254211426" lon="34.66467618942261"><time>2026-08-17T16:19:45.000Z</time><extensions/></trkpt><trkpt lat="59.385695457458496" lon="34.66459035873413"><time>2026-08-17T16:19:47.000Z</time><extensions/></trkpt><trkpt lat="59.38565254211426" lon="34.66459035873413"><time>2026-08-17T16:20:10.000Z</time><extensions/></trkpt><trkpt lat="59.38565254211426" lon="34.66456890106201"><time>2026-08-17T16:20:40.000Z</time><extensions/></trkpt><trkpt lat="59.38565254211426" lon="34.66456890106201"><time>2026-08-17T16:20:42.000Z</time><extensions/></trkpt><trkpt lat="59.38565254211426" lon="34.66456890106201"><time>2026-08-17T16:21:12.000Z</time><extensions/></trkpt><trkpt lat="59.38575983047485" lon="34.664483070373535"><time>2026-08-17T16:21:32.000Z</time><extensions/></trkpt><trkpt lat="59.38580274581909" lon="34.664461612701416"><time>2026-08-17T16:21:35.000Z</time><extensions/></trkpt><trkpt lat="59.38584566116333" lon="34.66441869735718"><time>2026-08-17T16:21:37.000Z</time><extensions/></trkpt><trkpt lat="59.38588857650757" lon="34.66439723968506"><time>2026-08-17T16:21:40.000Z</time><extensions/></trkpt><trkpt lat="59.38586711883545" lon="34.66439723968506"><time>2026-08-17T16:22:10.000Z</time><extensions/></trkpt><trkpt lat="59.38588857650757" lon="34.6643328666687"><time>2026-08-17T16:22:17.000Z</time><extensions/></trkpt><trkpt lat="59.385952949523926" lon="34.66416120529175"><time>2026-08-17T16:22:37.000Z</time><extensions/></trkpt><trkpt lat="59.385995864868164" lon="34.66409683227539"><time>2026-08-17T16:22:40.000Z</time><extensions/></trkpt><trkpt lat="59.38601732254028" lon="34.66405391693115"><time>2026-08-17T16:22:42.000Z</time><extensions/></trkpt><trkpt lat="59.38601732254028" lon="34.66405391693115"><time>2026-08-17T16:22:45.000Z</time><extensions/></trkpt><trkpt lat="59.385995864868164" lon="34.66407537460327"><time>2026-08-17T16:22:47.000Z</time><extensions/></trkpt><trkpt lat="59.3860387802124" lon="34.663989543914795"><time>2026-08-17T16:22:55.000Z</time><extensions/></trkpt><trkpt lat="59.38606023788452" lon="34.66390371322632"><time>2026-08-17T16:22:57.000Z</time><extensions/></trkpt><trkpt lat="59.38606023788452" lon="34.66381788253784"><time>2026-08-17T16:23:00.000Z</time><extensions/></trkpt><trkpt lat="59.38608169555664" lon="34.663753509521484"><time>2026-08-17T16:23:02.000Z</time><extensions/></trkpt><trkpt lat="59.38610315322876" lon="34.66366767883301"><time>2026-08-17T16:23:05.000Z</time><extensions/></trkpt><trkpt lat="59.38610315322876" lon="34.66358184814453"><time>2026-08-17T16:23:07.000Z</time><extensions/></trkpt><trkpt lat="59.38608169555664" lon="34.663474559783936"><time>2026-08-17T16:23:15.000Z</time><extensions/></trkpt><trkpt lat="59.38606023788452" lon="34.663517475128174"><time>2026-08-17T16:23:20.000Z</time><extensions/></trkpt><trkpt lat="59.38608169555664" lon="34.6634316444397"><time>2026-08-17T16:23:25.000Z</time><extensions/></trkpt><trkpt lat="59.38612461090088" lon="34.6633243560791"><time>2026-08-17T16:23:27.000Z</time><extensions/></trkpt><trkpt lat="59.38616752624512" lon="34.663238525390625"><time>2026-08-17T16:23:30.000Z</time><extensions/></trkpt><trkpt lat="59.386210441589355" lon="34.66315269470215"><time>2026-08-17T16:23:32.000Z</time><extensions/></trkpt><trkpt lat="59.386231899261475" lon="34.66308832168579"><time>2026-08-17T16:23:35.000Z</time><extensions/></trkpt><trkpt lat="59.386210441589355" lon="34.66310977935791"><time>2026-08-17T16:23:37.000Z</time><extensions/></trkpt><trkpt lat="59.386188983917236" lon="34.66317415237427"><time>2026-08-17T16:23:40.000Z</time><extensions/></trkpt><trkpt lat="59.38616752624512" lon="34.663238525390625"><time>2026-08-17T16:23:42.000Z</time><extensions/></trkpt><trkpt lat="59.38616752624512" lon="34.663217067718506"><time>2026-08-17T16:23:50.000Z</time><extensions/></trkpt><trkpt lat="59.386146068573" lon="34.66315269470215"><time>2026-08-17T16:23:52.000Z</time><extensions/></trkpt><trkpt lat="59.386146068573" lon="34.66308832168579"><time>2026-08-17T16:23:55.000Z</time><extensions/></trkpt><trkpt lat="59.38612461090088" lon="34.662981033325195"><time>2026-08-17T16:23:57.000Z</time><extensions/></trkpt><trkpt lat="59.38612461090088" lon="34.66289520263672"><time>2026-08-17T16:24:00.000Z</time><extensions/></trkpt><trkpt lat="59.38616752624512" lon="34.66285228729248"><time>2026-08-17T16:24:02.000Z</time><extensions/></trkpt><trkpt lat="59.386210441589355" lon="34.66283082962036"><time>2026-08-17T16:24:05.000Z</time><extensions/></trkpt><trkpt lat="59.386231899261475" lon="34.662766456604004"><time>2026-08-17T16:24:07.000Z</time><extensions/></trkpt><trkpt lat="59.38627481460571" lon="34.66265916824341"><time>2026-08-17T16:24:12.000Z</time><extensions/></trkpt><trkpt lat="59.38629627227783" lon="34.66261625289917"><time>2026-08-17T16:24:15.000Z</time><extensions/></trkpt><trkpt lat="59.38629627227783" lon="34.66257333755493"><time>2026-08-17T16:24:17.000Z</time><extensions/></trkpt><trkpt lat="59.386253356933594" lon="34.66257333755493"><time>2026-08-17T16:24:20.000Z</time><extensions/></trkpt><trkpt lat="59.386231899261475" lon="34.66253042221069"><time>2026-08-17T16:24:22.000Z</time><extensions/></trkpt><trkpt lat="59.386210441589355" lon="34.66257333755493"><time>2026-08-17T16:24:25.000Z</time><extensions/></trkpt><trkpt lat="59.386188983917236" lon="34.66259479522705"><time>2026-08-17T16:24:27.000Z</time><extensions/></trkpt><trkpt lat="59.386188983917236" lon="34.662487506866455"><time>2026-08-17T16:24:32.000Z</time><extensions/></trkpt><trkpt lat="59.386188983917236" lon="34.6624231338501"><time>2026-08-17T16:24:35.000Z</time><extensions/></trkpt><trkpt lat="59.38616752624512" lon="34.662466049194336"><time>2026-08-17T16:24:37.000Z</time><extensions/></trkpt><trkpt lat="59.386146068573" lon="34.662487506866455"><time>2026-08-17T16:24:40.000Z</time><extensions/></trkpt><trkpt lat="59.38612461090088" lon="34.662487506866455"><time>2026-08-17T16:24:42.000Z</time><extensions/></trkpt><trkpt lat="59.386188983917236" lon="34.662508964538574"><time>2026-08-17T16:24:52.000Z</time><extensions/></trkpt><trkpt lat="59.386188983917236" lon="34.662508964538574"><time>2026-08-17T16:25:22.000Z</time><extensions/></trkpt><trkpt lat="59.386188983917236" lon="34.66244459152222"><time>2026-08-17T16:25:40.000Z</time><extensions/></trkpt><trkpt lat="59.386210441589355" lon="34.66235876083374"><time>2026-08-17T16:25:42.000Z</time><extensions/></trkpt><trkpt lat="59.386188983917236" lon="34.662272930145264"><time>2026-08-17T16:25:45.000Z</time><extensions/></trkpt><trkpt lat="59.386188983917236" lon="34.662208557128906"><time>2026-08-17T16:25:47.000Z</time><extensions/></trkpt><trkpt lat="59.386210441589355" lon="34.66216564178467"><time>2026-08-17T16:25:50.000Z</time><extensions/></trkpt><trkpt lat="59.386231899261475" lon="34.66212272644043"><time>2026-08-17T16:25:52.000Z</time><extensions/></trkpt><trkpt lat="59.386210441589355" lon="34.66214418411255"><time>2026-08-17T16:25:57.000Z</time><extensions/></trkpt><trkpt lat="59.386146068573" lon="34.66216564178467"><time>2026-08-17T16:26:00.000Z</time><extensions/></trkpt><trkpt lat="59.38612461090088" lon="34.66212272644043"><time>2026-08-17T16:26:02.000Z</time><extensions/></trkpt><trkpt lat="59.38610315322876" lon="34.66210126876831"><time>2026-08-17T16:26:05.000Z</time><extensions/></trkpt><trkpt lat="59.38606023788452" lon="34.66205835342407"><time>2026-08-17T16:26:07.000Z</time><extensions/></trkpt><trkpt lat="59.38606023788452" lon="34.66203689575195"><time>2026-08-17T16:26:10.000Z</time><extensions/></trkpt><trkpt lat="59.3860387802124" lon="34.661993980407715"><time>2026-08-17T16:26:12.000Z</time><extensions/></trkpt><trkpt lat="59.3860387802124" lon="34.66195106506348"><time>2026-08-17T16:26:27.000Z</time><extensions/></trkpt><trkpt lat="59.3860387802124" lon="34.661993980407715"><time>2026-08-17T16:26:35.000Z</time><extensions/></trkpt><trkpt lat="59.38608169555664" lon="34.662015438079834"><time>2026-08-17T16:26:37.000Z</time><extensions/></trkpt><trkpt lat="59.38610315322876" lon="34.66203689575195"><time>2026-08-17T16:26:40.000Z</time><extensions/></trkpt><trkpt lat="59.386146068573" lon="34.66205835342407"><time>2026-08-17T16:26:42.000Z</time><extensions/></trkpt><trkpt lat="59.38612461090088" lon="34.66203689575195"><time>2026-08-17T16:27:02.000Z</time><extensions/></trkpt><trkpt lat="59.38612461090088" lon="34.66205835342407"><time>2026-08-17T16:27:12.000Z</time><extensions/></trkpt><trkpt lat="59.386188983917236" lon="34.662208557128906"><time>2026-08-17T16:27:20.000Z</time><extensions/></trkpt><trkpt lat="59.386188983917236" lon="34.662272930145264"><time>2026-08-17T16:27:22.000Z</time><extensions/></trkpt><trkpt lat="59.386210441589355" lon="34.66233730316162"><time>2026-08-17T16:27:27.000Z</time><extensions/></trkpt><trkpt lat="59.38627481460571" lon="34.66244459152222"><time>2026-08-17T16:27:35.000Z</time><extensions/></trkpt><trkpt lat="59.38629627227783" lon="34.6624231338501"><time>2026-08-17T16:27:37.000Z</time><extensions/></trkpt><trkpt lat="59.38633918762207" lon="34.66240167617798"><time>2026-08-17T16:27:40.000Z</time><extensions/></trkpt><trkpt lat="59.38636064529419" lon="34.6624231338501"><time>2026-08-17T16:27:42.000Z</time><extensions/></trkpt><trkpt lat="59.38638210296631" lon="34.662487506866455"><time>2026-08-17T16:27:45.000Z</time><extensions/></trkpt><trkpt lat="59.38642501831055" lon="34.66244459152222"><time>2026-08-17T16:28:00.000Z</time><extensions/></trkpt><trkpt lat="59.386446475982666" lon="34.6624231338501"><time>2026-08-17T16:28:02.000Z</time><extensions/></trkpt><trkpt lat="59.386467933654785" lon="34.6624231338501"><time>2026-08-17T16:28:05.000Z</time><extensions/></trkpt><trkpt lat="59.386467933654785" lon="34.66235876083374"><time>2026-08-17T16:28:07.000Z</time><extensions/></trkpt><trkpt lat="59.386467933654785" lon="34.66229438781738"><time>2026-08-17T16:28:10.000Z</time><extensions/></trkpt><trkpt lat="59.386489391326904" lon="34.662208557128906"><time>2026-08-17T16:28:12.000Z</time><extensions/></trkpt><trkpt lat="59.38651084899902" lon="34.66216564178467"><time>2026-08-17T16:28:15.000Z</time><extensions/></trkpt><trkpt lat="59.38651084899902" lon="34.66210126876831"><time>2026-08-17T16:28:17.000Z</time><extensions/></trkpt><trkpt lat="59.38651084899902" lon="34.66205835342407"><time>2026-08-17T16:28:20.000Z</time><extensions/></trkpt><trkpt lat="59.386489391326904" lon="34.662015438079834"><time>2026-08-17T16:28:22.000Z</time><extensions/></trkpt><trkpt lat="59.38651084899902" lon="34.66190814971924"><time>2026-08-17T16:28:35.000Z</time><extensions/></trkpt><trkpt lat="59.38653230667114" lon="34.661865234375"><time>2026-08-17T16:28:37.000Z</time><extensions/></trkpt><trkpt lat="59.38657522201538" lon="34.66180086135864"><time>2026-08-17T16:28:42.000Z</time><extensions/></trkpt><trkpt lat="59.3865966796875" lon="34.661715030670166"><time>2026-08-17T16:28:45.000Z</time><extensions/></trkpt><trkpt lat="59.3865966796875" lon="34.66167211532593"><time>2026-08-17T16:28:47.000Z</time><extensions/></trkpt><trkpt lat="59.38661813735962" lon="34.661715030670166"><time>2026-08-17T16:28:52.000Z</time><extensions/></trkpt><trkpt lat="59.38661813735962" lon="34.66177940368652"><time>2026-08-17T16:28:55.000Z</time><extensions/></trkpt><trkpt lat="59.38663959503174" lon="34.66184377670288"><time>2026-08-17T16:28:57.000Z</time><extensions/></trkpt><trkpt lat="59.38666105270386" lon="34.66190814971924"><time>2026-08-17T16:29:00.000Z</time><extensions/></trkpt><trkpt lat="59.386703968048096" lon="34.662015438079834"><time>2026-08-17T16:29:05.000Z</time><extensions/></trkpt><trkpt lat="59.386746883392334" lon="34.66212272644043"><time>2026-08-17T16:29:07.000Z</time><extensions/></trkpt><trkpt lat="59.38676834106445" lon="34.662230014801025"><time>2026-08-17T16:29:10.000Z</time><extensions/></trkpt><trkpt lat="59.386746883392334" lon="34.66229438781738"><time>2026-08-17T16:29:12.000Z</time><extensions/></trkpt><trkpt lat="59.386725425720215" lon="34.66235876083374"><time>2026-08-17T16:29:15.000Z</time><extensions/></trkpt><trkpt lat="59.38666105270386" lon="34.662466049194336"><time>2026-08-17T16:29:22.000Z</time><extensions/></trkpt><trkpt lat="59.38661813735962" lon="34.66238021850586"><time>2026-08-17T16:29:25.000Z</time><extensions/></trkpt><trkpt lat="59.38661813735962" lon="34.66233730316162"><time>2026-08-17T16:29:40.000Z</time><extensions/></trkpt><trkpt lat="59.38663959503174" lon="34.662272930145264"><time>2026-08-17T16:29:42.000Z</time><extensions/></trkpt><trkpt lat="59.38668251037598" lon="34.662208557128906"><time>2026-08-17T16:29:50.000Z</time><extensions/></trkpt><trkpt lat="59.386703968048096" lon="34.66212272644043"><time>2026-08-17T16:29:57.000Z</time><extensions/></trkpt><trkpt lat="59.38676834106445" lon="34.66212272644043"><time>2026-08-17T16:30:00.000Z</time><extensions/></trkpt><trkpt lat="59.38678979873657" lon="34.662208557128906"><time>2026-08-17T16:30:25.000Z</time><extensions/></trkpt><trkpt lat="59.38681125640869" lon="34.66229438781738"><time>2026-08-17T16:30:27.000Z</time><extensions/></trkpt><trkpt lat="59.38685417175293" lon="34.662272930145264"><time>2026-08-17T16:30:30.000Z</time><extensions/></trkpt><trkpt lat="59.38687562942505" lon="34.662230014801025"><time>2026-08-17T16:30:32.000Z</time><extensions/></trkpt><trkpt lat="59.38691854476929" lon="34.66218709945679"><time>2026-08-17T16:30:35.000Z</time><extensions/></trkpt><trkpt lat="59.386961460113525" lon="34.66214418411255"><time>2026-08-17T16:30:37.000Z</time><extensions/></trkpt><trkpt lat="59.386982917785645" lon="34.66207981109619"><time>2026-08-17T16:30:40.000Z</time><extensions/></trkpt><trkpt lat="59.38702583312988" lon="34.66205835342407"><time>2026-08-17T16:30:57.000Z</time><extensions/></trkpt><trkpt lat="59.38706874847412" lon="34.66203689575195"><time>2026-08-17T16:31:00.000Z</time><extensions/></trkpt><trkpt lat="59.38709020614624" lon="34.66203689575195"><time>2026-08-17T16:31:02.000Z</time><extensions/></trkpt><trkpt lat="59.38711166381836" lon="34.661972522735596"><time>2026-08-17T16:31:05.000Z</time><extensions/></trkpt><trkpt lat="59.3871545791626" lon="34.661993980407715"><time>2026-08-17T16:31:07.000Z</time><extensions/></trkpt><trkpt lat="59.387197494506836" lon="34.66203689575195"><time>2026-08-17T16:31:10.000Z</time><extensions/></trkpt><trkpt lat="59.387218952178955" lon="34.662015438079834"><time>2026-08-17T16:31:12.000Z</time><extensions/></trkpt><trkpt lat="59.38726186752319" lon="34.661993980407715"><time>2026-08-17T16:31:15.000Z</time><extensions/></trkpt><trkpt lat="59.38726186752319" lon="34.662015438079834"><time>2026-08-17T16:31:17.000Z</time><extensions/></trkpt><trkpt lat="59.38726186752319" lon="34.66207981109619"><time>2026-08-17T16:31:20.000Z</time><extensions/></trkpt><trkpt lat="59.38726186752319" lon="34.66214418411255"><time>2026-08-17T16:31:22.000Z</time><extensions/></trkpt><trkpt lat="59.38728332519531" lon="34.66207981109619"><time>2026-08-17T16:31:25.000Z</time><extensions/></trkpt><trkpt lat="59.38730478286743" lon="34.66203689575195"><time>2026-08-17T16:31:27.000Z</time><extensions/></trkpt><trkpt lat="59.38732624053955" lon="34.662015438079834"><time>2026-08-17T16:31:30.000Z</time><extensions/></trkpt><trkpt lat="59.38730478286743" lon="34.661993980407715"><time>2026-08-17T16:31:32.000Z</time><extensions/></trkpt><trkpt lat="59.38732624053955" lon="34.66195106506348"><time>2026-08-17T16:31:47.000Z</time><extensions/></trkpt><trkpt lat="59.38734769821167" lon="34.66190814971924"><time>2026-08-17T16:31:50.000Z</time><extensions/></trkpt><trkpt lat="59.38739061355591" lon="34.66192960739136"><time>2026-08-17T16:31:52.000Z</time><extensions/></trkpt><trkpt lat="59.38743352890015" lon="34.66192960739136"><time>2026-08-17T16:31:55.000Z</time><extensions/></trkpt><trkpt lat="59.387454986572266" lon="34.66192960739136"><time>2026-08-17T16:31:57.000Z</time><extensions/></trkpt><trkpt lat="59.38751935958862" lon="34.66192960739136"><time>2026-08-17T16:32:02.000Z</time><extensions/></trkpt><trkpt lat="59.38756227493286" lon="34.66192960739136"><time>2026-08-17T16:32:05.000Z</time><extensions/></trkpt><trkpt lat="59.3876051902771" lon="34.66195106506348"><time>2026-08-17T16:32:07.000Z</time><extensions/></trkpt><trkpt lat="59.38764810562134" lon="34.66190814971924"><time>2026-08-17T16:32:10.000Z</time><extensions/></trkpt><trkpt lat="59.387691020965576" lon="34.66188669204712"><time>2026-08-17T16:32:12.000Z</time><extensions/></trkpt><trkpt lat="59.387691020965576" lon="34.66182231903076"><time>2026-08-17T16:32:15.000Z</time><extensions/></trkpt><trkpt lat="59.38766956329346" lon="34.66182231903076"><time>2026-08-17T16:32:17.000Z</time><extensions/></trkpt><trkpt lat="59.38762664794922" lon="34.66182231903076"><time>2026-08-17T16:32:20.000Z</time><extensions/></trkpt><trkpt lat="59.38756227493286" lon="34.661865234375"><time>2026-08-17T16:32:35.000Z</time><extensions/></trkpt><trkpt lat="59.38754081726074" lon="34.661972522735596"><time>2026-08-17T16:32:37.000Z</time><extensions/></trkpt><trkpt lat="59.38754081726074" lon="34.66207981109619"><time>2026-08-17T16:32:40.000Z</time><extensions/></trkpt><trkpt lat="59.38754081726074" lon="34.66216564178467"><time>2026-08-17T16:32:42.000Z</time><extensions/></trkpt><trkpt lat="59.387497901916504" lon="34.66229438781738"><time>2026-08-17T16:32:47.000Z</time><extensions/></trkpt><trkpt lat="59.38743352890015" lon="34.6624231338501"><time>2026-08-17T16:33:00.000Z</time><extensions/></trkpt><trkpt lat="59.38741207122803" lon="34.66244459152222"><time>2026-08-17T16:33:02.000Z</time><extensions/></trkpt><trkpt lat="59.38743352890015" lon="34.66244459152222"><time>2026-08-17T16:33:05.000Z</time><extensions/></trkpt><trkpt lat="59.387476444244385" lon="34.66244459152222"><time>2026-08-17T16:33:07.000Z</time><extensions/></trkpt><trkpt lat="59.38754081726074" lon="34.6624231338501"><time>2026-08-17T16:33:10.000Z</time><extensions/></trkpt><trkpt lat="59.38758373260498" lon="34.6623158454895"><time>2026-08-17T16:33:12.000Z</time><extensions/></trkpt><trkpt lat="59.38762664794922" lon="34.66218709945679"><time>2026-08-17T16:33:15.000Z</time><extensions/></trkpt><trkpt lat="59.38766956329346" lon="34.66207981109619"><time>2026-08-17T16:33:17.000Z</time><extensions/></trkpt><trkpt lat="59.387712478637695" lon="34.66210126876831"><time>2026-08-17T16:33:20.000Z</time><extensions/></trkpt><trkpt lat="59.387755393981934" lon="34.66205835342407"><time>2026-08-17T16:33:22.000Z</time><extensions/></trkpt><trkpt lat="59.38784122467041" lon="34.66210126876831"><time>2026-08-17T16:33:30.000Z</time><extensions/></trkpt><trkpt lat="59.38786268234253" lon="34.661993980407715"><time>2026-08-17T16:33:37.000Z</time><extensions/></trkpt><trkpt lat="59.38786268234253" lon="34.661865234375"><time>2026-08-17T16:33:40.000Z</time><extensions/></trkpt><trkpt lat="59.38790559768677" lon="34.66180086135864"><time>2026-08-17T16:33:42.000Z</time><extensions/></trkpt><trkpt lat="59.387948513031006" lon="34.661715030670166"><time>2026-08-17T16:33:45.000Z</time><extensions/></trkpt><trkpt lat="59.3880558013916" lon="34.6614146232605"><time>2026-08-17T16:33:55.000Z</time><extensions/></trkpt><trkpt lat="59.387991428375244" lon="34.661478996276855"><time>2026-08-17T16:33:57.000Z</time><extensions/></trkpt><trkpt lat="59.387991428375244" lon="34.661478996276855"><time>2026-08-17T16:34:05.000Z</time><extensions/></trkpt><trkpt lat="59.387969970703125" lon="34.66162919998169"><time>2026-08-17T16:34:07.000Z</time><extensions/></trkpt><trkpt lat="59.387969970703125" lon="34.661865234375"><time>2026-08-17T16:34:10.000Z</time><extensions/></trkpt><trkpt lat="59.387969970703125" lon="34.66207981109619"><time>2026-08-17T16:34:12.000Z</time><extensions/></trkpt><trkpt lat="59.387948513031006" lon="34.66229438781738"><time>2026-08-17T16:34:15.000Z</time><extensions/></trkpt><trkpt lat="59.387991428375244" lon="34.66235876083374"><time>2026-08-17T16:34:17.000Z</time><extensions/></trkpt><trkpt lat="59.38803434371948" lon="34.6623158454895"><time>2026-08-17T16:34:20.000Z</time><extensions/></trkpt><trkpt lat="59.38807725906372" lon="34.6623158454895"><time>2026-08-17T16:34:22.000Z</time><extensions/></trkpt><trkpt lat="59.38812017440796" lon="34.66235876083374"><time>2026-08-17T16:34:25.000Z</time><extensions/></trkpt><trkpt lat="59.38814163208008" lon="34.6624231338501"><time>2026-08-17T16:34:27.000Z</time><extensions/></trkpt><trkpt lat="59.388184547424316" lon="34.66238021850586"><time>2026-08-17T16:34:30.000Z</time><extensions/></trkpt><trkpt lat="59.3881630897522" lon="34.662466049194336"><time>2026-08-17T16:34:32.000Z</time><extensions/></trkpt><trkpt lat="59.388184547424316" lon="34.662487506866455"><time>2026-08-17T16:34:35.000Z</time><extensions/></trkpt><trkpt lat="59.388227462768555" lon="34.662487506866455"><time>2026-08-17T16:34:37.000Z</time><extensions/></trkpt><trkpt lat="59.38827037811279" lon="34.662466049194336"><time>2026-08-17T16:34:40.000Z</time><extensions/></trkpt><trkpt lat="59.38833475112915" lon="34.66240167617798"><time>2026-08-17T16:34:42.000Z</time><extensions/></trkpt><trkpt lat="59.38835620880127" lon="34.66233730316162"><time>2026-08-17T16:34:45.000Z</time><extensions/></trkpt><trkpt lat="59.38831329345703" lon="34.66240167617798"><time>2026-08-17T16:34:50.000Z</time><extensions/></trkpt><trkpt lat="59.38827037811279" lon="34.66244459152222"><time>2026-08-17T16:34:52.000Z</time><extensions/></trkpt><trkpt lat="59.388248920440674" lon="34.66240167617798"><time>2026-08-17T16:34:55.000Z</time><extensions/></trkpt><trkpt lat="59.388206005096436" lon="34.66233730316162"><time>2026-08-17T16:34:57.000Z</time><extensions/></trkpt><trkpt lat="59.388184547424316" lon="34.662230014801025"><time>2026-08-17T16:35:00.000Z</time><extensions/></trkpt><trkpt lat="59.388184547424316" lon="34.66218709945679"><time>2026-08-17T16:35:02.000Z</time><extensions/></trkpt><trkpt lat="59.388248920440674" lon="34.662208557128906"><time>2026-08-17T16:35:05.000Z</time><extensions/></trkpt><trkpt lat="59.38831329345703" lon="34.662251472473145"><time>2026-08-17T16:35:07.000Z</time><extensions/></trkpt><trkpt lat="59.38837766647339" lon="34.662230014801025"><time>2026-08-17T16:35:10.000Z</time><extensions/></trkpt><trkpt lat="59.388442039489746" lon="34.662230014801025"><time>2026-08-17T16:35:12.000Z</time><extensions/></trkpt><trkpt lat="59.388484954833984" lon="34.66229438781738"><time>2026-08-17T16:35:15.000Z</time><extensions/></trkpt><trkpt lat="59.38852787017822" lon="34.6623158454895"><time>2026-08-17T16:35:17.000Z</time><extensions/></trkpt><trkpt lat="59.3886137008667" lon="34.66233730316162"><time>2026-08-17T16:35:20.000Z</time><extensions/></trkpt><trkpt lat="59.38880681991577" lon="34.66238021850586"><time>2026-08-17T16:35:30.000Z</time><extensions/></trkpt><trkpt lat="59.38878536224365" lon="34.6623158454895"><time>2026-08-17T16:35:32.000Z</time><extensions/></trkpt><trkpt lat="59.388742446899414" lon="34.662251472473145"><time>2026-08-17T16:35:35.000Z</time><extensions/></trkpt><trkpt lat="59.38865661621094" lon="34.662230014801025"><time>2026-08-17T16:35:37.000Z</time><extensions/></trkpt><trkpt lat="59.38857078552246" lon="34.66214418411255"><time>2026-08-17T16:35:40.000Z</time><extensions/></trkpt><trkpt lat="59.38854932785034" lon="34.661993980407715"><time>2026-08-17T16:35:42.000Z</time><extensions/></trkpt><trkpt lat="59.38857078552246" lon="34.66188669204712"><time>2026-08-17T16:35:45.000Z</time><extensions/></trkpt><trkpt lat="59.38859224319458" lon="34.661757946014404"><time>2026-08-17T16:35:47.000Z</time><extensions/></trkpt><trkpt lat="59.38852787017822" lon="34.66180086135864"><time>2026-08-17T16:35:52.000Z</time><extensions/></trkpt><trkpt lat="59.38852787017822" lon="34.66180086135864"><time>2026-08-17T16:35:55.000Z</time><extensions/></trkpt><trkpt lat="59.38857078552246" lon="34.661757946014404"><time>2026-08-17T16:35:57.000Z</time><extensions/></trkpt><trkpt lat="59.3886137008667" lon="34.661715030670166"><time>2026-08-17T16:36:00.000Z</time><extensions/></trkpt><trkpt lat="59.38865661621094" lon="34.66165065765381"><time>2026-08-17T16:36:02.000Z</time><extensions/></trkpt><trkpt lat="59.388742446899414" lon="34.66160774230957"><time>2026-08-17T16:36:17.000Z</time><extensions/></trkpt><trkpt lat="59.38878536224365" lon="34.66158628463745"><time>2026-08-17T16:36:20.000Z</time><extensions/></trkpt><trkpt lat="59.38882827758789" lon="34.661521911621094"><time>2026-08-17T16:36:22.000Z</time><extensions/></trkpt><trkpt lat="59.38891410827637" lon="34.66137170791626"><time>2026-08-17T16:36:35.000Z</time><extensions/></trkpt><trkpt lat="59.38884973526001" lon="34.66135025024414"><time>2026-08-17T16:36:37.000Z</time><extensions/></trkpt><trkpt lat="59.38880681991577" lon="34.66135025024414"><time>2026-08-17T16:36:40.000Z</time><extensions/></trkpt><trkpt lat="59.38880681991577" lon="34.66128587722778"><time>2026-08-17T16:36:42.000Z</time><extensions/></trkpt><trkpt lat="59.38884973526001" lon="34.66128587722778"><time>2026-08-17T16:36:45.000Z</time><extensions/></trkpt><trkpt lat="59.38891410827637" lon="34.661264419555664"><time>2026-08-17T16:36:47.000Z</time><extensions/></trkpt><trkpt lat="59.388957023620605" lon="34.661242961883545"><time>2026-08-17T16:36:50.000Z</time><extensions/></trkpt><trkpt lat="59.38904285430908" lon="34.661221504211426"><time>2026-08-17T16:37:02.000Z</time><extensions/></trkpt><trkpt lat="59.3890643119812" lon="34.66120004653931"><time>2026-08-17T16:37:05.000Z</time><extensions/></trkpt><trkpt lat="59.38910722732544" lon="34.66117858886719"><time>2026-08-17T16:37:07.000Z</time><extensions/></trkpt><trkpt lat="59.38915014266968" lon="34.66113567352295"><time>2026-08-17T16:37:10.000Z</time><extensions/></trkpt><trkpt lat="59.38915014266968" lon="34.66107130050659"><time>2026-08-17T16:37:12.000Z</time><extensions/></trkpt><trkpt lat="59.389193058013916" lon="34.66102838516235"><time>2026-08-17T16:37:15.000Z</time><extensions/></trkpt><trkpt lat="59.3891716003418" lon="34.66113567352295"><time>2026-08-17T16:37:20.000Z</time><extensions/></trkpt><trkpt lat="59.3891716003418" lon="34.661221504211426"><time>2026-08-17T16:37:22.000Z</time><extensions/></trkpt><trkpt lat="59.3891716003418" lon="34.66128587722778"><time>2026-08-17T16:37:30.000Z</time><extensions/></trkpt><trkpt lat="59.389235973358154" lon="34.66135025024414"><time>2026-08-17T16:37:35.000Z</time><extensions/></trkpt><trkpt lat="59.389214515686035" lon="34.6613073348999"><time>2026-08-17T16:38:00.000Z</time><extensions/></trkpt><trkpt lat="59.389214515686035" lon="34.661264419555664"><time>2026-08-17T16:38:20.000Z</time><extensions/></trkpt><trkpt lat="59.38927888870239" lon="34.661221504211426"><time>2026-08-17T16:38:32.000Z</time><extensions/></trkpt><trkpt lat="59.389235973358154" lon="34.661221504211426"><time>2026-08-17T16:39:02.000Z</time><extensions/></trkpt><trkpt lat="59.38932180404663" lon="34.66113567352295"><time>2026-08-17T16:39:32.000Z</time><extensions/></trkpt><trkpt lat="59.38942909240723" lon="34.66111421585083"><time>2026-08-17T16:39:42.000Z</time><extensions/></trkpt><trkpt lat="59.389472007751465" lon="34.66109275817871"><time>2026-08-17T16:39:45.000Z</time><extensions/></trkpt><trkpt lat="59.389493465423584" lon="34.66104984283447"><time>2026-08-17T16:39:47.000Z</time><extensions/></trkpt><trkpt lat="59.3895149230957" lon="34.661006927490234"><time>2026-08-17T16:39:50.000Z</time><extensions/></trkpt><trkpt lat="59.38953638076782" lon="34.660964012145996"><time>2026-08-17T16:39:52.000Z</time><extensions/></trkpt><trkpt lat="59.38957929611206" lon="34.661006927490234"><time>2026-08-17T16:39:55.000Z</time><extensions/></trkpt><trkpt lat="59.3895149230957" lon="34.661006927490234"><time>2026-08-17T16:40:02.000Z</time><extensions/></trkpt><trkpt lat="59.389493465423584" lon="34.66094255447388"><time>2026-08-17T16:40:05.000Z</time><extensions/></trkpt><trkpt lat="59.389450550079346" lon="34.66092109680176"><time>2026-08-17T16:40:07.000Z</time><extensions/></trkpt><trkpt lat="59.389450550079346" lon="34.66094255447388"><time>2026-08-17T16:40:37.000Z</time><extensions/></trkpt><trkpt lat="59.389493465423584" lon="34.661221504211426"><time>2026-08-17T16:40:52.000Z</time><extensions/></trkpt><trkpt lat="59.389472007751465" lon="34.66117858886719"><time>2026-08-17T16:40:57.000Z</time><extensions/></trkpt><trkpt lat="59.389472007751465" lon="34.66104984283447"><time>2026-08-17T16:41:00.000Z</time><extensions/></trkpt><trkpt lat="59.389450550079346" lon="34.660985469818115"><time>2026-08-17T16:41:02.000Z</time><extensions/></trkpt><trkpt lat="59.389450550079346" lon="34.660985469818115"><time>2026-08-17T16:41:10.000Z</time><extensions/></trkpt><trkpt lat="59.389472007751465" lon="34.660985469818115"><time>2026-08-17T16:41:40.000Z</time><extensions/></trkpt><trkpt lat="59.389472007751465" lon="34.66094255447388"><time>2026-08-17T16:42:02.000Z</time><extensions/></trkpt><trkpt lat="59.3895149230957" lon="34.6608567237854"><time>2026-08-17T16:42:05.000Z</time><extensions/></trkpt><trkpt lat="59.38955783843994" lon="34.66081380844116"><time>2026-08-17T16:42:07.000Z</time><extensions/></trkpt><trkpt lat="59.38957929611206" lon="34.660749435424805"><time>2026-08-17T16:42:10.000Z</time><extensions/></trkpt><trkpt lat="59.38960075378418" lon="34.66066360473633"><time>2026-08-17T16:42:12.000Z</time><extensions/></trkpt><trkpt lat="59.3896222114563" lon="34.66064214706421"><time>2026-08-17T16:42:15.000Z</time><extensions/></trkpt><trkpt lat="59.38966512680054" lon="34.66062068939209"><time>2026-08-17T16:42:17.000Z</time><extensions/></trkpt><trkpt lat="59.38983678817749" lon="34.66053485870361"><time>2026-08-17T16:42:40.000Z</time><extensions/></trkpt><trkpt lat="59.38983678817749" lon="34.660470485687256"><time>2026-08-17T16:42:42.000Z</time><extensions/></trkpt><trkpt lat="59.38987970352173" lon="34.66053485870361"><time>2026-08-17T16:42:50.000Z</time><extensions/></trkpt><trkpt lat="59.38990116119385" lon="34.66055631637573"><time>2026-08-17T16:42:52.000Z</time><extensions/></trkpt><trkpt lat="59.38985824584961" lon="34.66055631637573"><time>2026-08-17T16:43:15.000Z</time><extensions/></trkpt><trkpt lat="59.38985824584961" lon="34.66055631637573"><time>2026-08-17T16:43:37.000Z</time><extensions/></trkpt><trkpt lat="59.38983678817749" lon="34.66055631637573"><time>2026-08-17T16:44:07.000Z</time><extensions/></trkpt><trkpt lat="59.38983678817749" lon="34.66055631637573"><time>2026-08-17T16:44:37.000Z</time><extensions/></trkpt><trkpt lat="59.38987970352173" lon="34.660513401031494"><time>2026-08-17T16:44:47.000Z</time><extensions/></trkpt><trkpt lat="59.38990116119385" lon="34.660470485687256"><time>2026-08-17T16:44:50.000Z</time><extensions/></trkpt><trkpt lat="59.38992261886597" lon="34.6604061126709"><time>2026-08-17T16:44:52.000Z</time><extensions/></trkpt><trkpt lat="59.389944076538086" lon="34.66038465499878"><time>2026-08-17T16:44:55.000Z</time><extensions/></trkpt><trkpt lat="59.389986991882324" lon="34.66038465499878"><time>2026-08-17T16:45:00.000Z</time><extensions/></trkpt><trkpt lat="59.39002990722656" lon="34.66042757034302"><time>2026-08-17T16:45:02.000Z</time><extensions/></trkpt><trkpt lat="59.39005136489868" lon="34.66038465499878"><time>2026-08-17T16:45:05.000Z</time><extensions/></trkpt><trkpt lat="59.3900728225708" lon="34.66034173965454"><time>2026-08-17T16:45:07.000Z</time><extensions/></trkpt><trkpt lat="59.39011573791504" lon="34.6602988243103"><time>2026-08-17T16:45:10.000Z</time><extensions/></trkpt><trkpt lat="59.39013719558716" lon="34.660277366638184"><time>2026-08-17T16:45:12.000Z</time><extensions/></trkpt><trkpt lat="59.39013719558716" lon="34.660255908966064"><time>2026-08-17T16:45:15.000Z</time><extensions/></trkpt><trkpt lat="59.39011573791504" lon="34.66017007827759"><time>2026-08-17T16:45:20.000Z</time><extensions/></trkpt><trkpt lat="59.39013719558716" lon="34.66010570526123"><time>2026-08-17T16:45:22.000Z</time><extensions/></trkpt><trkpt lat="59.39015865325928" lon="34.66014862060547"><time>2026-08-17T16:45:25.000Z</time><extensions/></trkpt><trkpt lat="59.390201568603516" lon="34.66014862060547"><time>2026-08-17T16:45:27.000Z</time><extensions/></trkpt><trkpt lat="59.390223026275635" lon="34.66014862060547"><time>2026-08-17T16:45:30.000Z</time><extensions/></trkpt><trkpt lat="59.39026594161987" lon="34.66014862060547"><time>2026-08-17T16:45:32.000Z</time><extensions/></trkpt><trkpt lat="59.39028739929199" lon="34.66019153594971"><time>2026-08-17T16:45:35.000Z</time><extensions/></trkpt><trkpt lat="59.39028739929199" lon="34.660255908966064"><time>2026-08-17T16:45:37.000Z</time><extensions/></trkpt><trkpt lat="59.39033031463623" lon="34.660234451293945"><time>2026-08-17T16:45:40.000Z</time><extensions/></trkpt><trkpt lat="59.39035177230835" lon="34.66017007827759"><time>2026-08-17T16:45:42.000Z</time><extensions/></trkpt><trkpt lat="59.39037322998047" lon="34.66014862060547"><time>2026-08-17T16:45:45.000Z</time><extensions/></trkpt><trkpt lat="59.39037322998047" lon="34.66010570526123"><time>2026-08-17T16:45:47.000Z</time><extensions/></trkpt><trkpt lat="59.39037322998047" lon="34.66004133224487"><time>2026-08-17T16:46:17.000Z</time><extensions/></trkpt><trkpt lat="59.3905234336853" lon="34.65986967086792"><time>2026-08-17T16:46:47.000Z</time><extensions/></trkpt><trkpt lat="59.39056634902954" lon="34.659740924835205"><time>2026-08-17T16:46:52.000Z</time><extensions/></trkpt><trkpt lat="59.39058780670166" lon="34.65989112854004"><time>2026-08-17T16:46:57.000Z</time><extensions/></trkpt><trkpt lat="59.39054489135742" lon="34.659976959228516"><time>2026-08-17T16:47:00.000Z</time><extensions/></trkpt><trkpt lat="59.3905234336853" lon="34.66004133224487"><time>2026-08-17T16:47:02.000Z</time><extensions/></trkpt><trkpt lat="59.3905234336853" lon="34.66004133224487"><time>2026-08-17T16:47:05.000Z</time><extensions/></trkpt><trkpt lat="59.390501976013184" lon="34.65991258621216"><time>2026-08-17T16:47:07.000Z</time><extensions/></trkpt><trkpt lat="59.390501976013184" lon="34.659740924835205"><time>2026-08-17T16:47:10.000Z</time><extensions/></trkpt><trkpt lat="59.39054489135742" lon="34.65963363647461"><time>2026-08-17T16:47:12.000Z</time><extensions/></trkpt><trkpt lat="59.39056634902954" lon="34.659483432769775"><time>2026-08-17T16:47:15.000Z</time><extensions/></trkpt><trkpt lat="59.39058780670166" lon="34.65941905975342"><time>2026-08-17T16:47:17.000Z</time><extensions/></trkpt><trkpt lat="59.3906307220459" lon="34.65933322906494"><time>2026-08-17T16:47:20.000Z</time><extensions/></trkpt><trkpt lat="59.390695095062256" lon="34.65931177139282"><time>2026-08-17T16:47:22.000Z</time><extensions/></trkpt><trkpt lat="59.39067363739014" lon="34.659247398376465"><time>2026-08-17T16:47:25.000Z</time><extensions/></trkpt><trkpt lat="59.3906307220459" lon="34.65914011001587"><time>2026-08-17T16:47:27.000Z</time><extensions/></trkpt><trkpt lat="59.39060926437378" lon="34.65905427932739"><time>2026-08-17T16:47:30.000Z</time><extensions/></trkpt><trkpt lat="59.39058780670166" lon="34.659011363983154"><time>2026-08-17T16:47:32.000Z</time><extensions/></trkpt><trkpt lat="59.39058780670166" lon="34.65890407562256"><time>2026-08-17T16:47:35.000Z</time><extensions/></trkpt><trkpt lat="59.39054489135742" lon="34.6588397026062"><time>2026-08-17T16:47:37.000Z</time><extensions/></trkpt><trkpt lat="59.39060926437378" lon="34.65881824493408"><time>2026-08-17T16:47:45.000Z</time><extensions/></trkpt><trkpt lat="59.39067363739014" lon="34.65892553329468"><time>2026-08-17T16:47:47.000Z</time><extensions/></trkpt><trkpt lat="59.390738010406494" lon="34.659011363983154"><time>2026-08-17T16:47:50.000Z</time><extensions/></trkpt><trkpt lat="59.39082384109497" lon="34.65903282165527"><time>2026-08-17T16:47:52.000Z</time><extensions/></trkpt><trkpt lat="59.39088821411133" lon="34.65905427932739"><time>2026-08-17T16:47:55.000Z</time><extensions/></trkpt><trkpt lat="59.39090967178345" lon="34.65909719467163"><time>2026-08-17T16:47:57.000Z</time><extensions/></trkpt><trkpt lat="59.390931129455566" lon="34.65914011001587"><time>2026-08-17T16:48:00.000Z</time><extensions/></trkpt><trkpt lat="59.390931129455566" lon="34.65920448303223"><time>2026-08-17T16:48:02.000Z</time><extensions/></trkpt><trkpt lat="59.39088821411133" lon="34.65911865234375"><time>2026-08-17T16:48:05.000Z</time><extensions/></trkpt><trkpt lat="59.39088821411133" lon="34.65907573699951"><time>2026-08-17T16:48:07.000Z</time><extensions/></trkpt><trkpt lat="59.39084529876709" lon="34.659011363983154"><time>2026-08-17T16:48:10.000Z</time><extensions/></trkpt><trkpt lat="59.39086675643921" lon="34.65905427932739"><time>2026-08-17T16:48:12.000Z</time><extensions/></trkpt><trkpt lat="59.39086675643921" lon="34.65916156768799"><time>2026-08-17T16:48:15.000Z</time><extensions/></trkpt><trkpt lat="59.39086675643921" lon="34.65931177139282"><time>2026-08-17T16:48:17.000Z</time><extensions/></trkpt><trkpt lat="59.39084529876709" lon="34.659483432769775"><time>2026-08-17T16:48:20.000Z</time><extensions/></trkpt><trkpt lat="59.39082384109497" lon="34.65963363647461"><time>2026-08-17T16:48:22.000Z</time><extensions/></trkpt><trkpt lat="59.39075946807861" lon="34.660019874572754"><time>2026-08-17T16:48:30.000Z</time><extensions/></trkpt><trkpt lat="59.39075946807861" lon="34.66017007827759"><time>2026-08-17T16:48:32.000Z</time><extensions/></trkpt><trkpt lat="59.39067363739014" lon="34.660234451293945"><time>2026-08-17T16:48:35.000Z</time><extensions/></trkpt><trkpt lat="59.39065217971802" lon="34.66014862060547"><time>2026-08-17T16:48:37.000Z</time><extensions/></trkpt><trkpt lat="59.39060926437378" lon="34.66017007827759"><time>2026-08-17T16:48:40.000Z</time><extensions/></trkpt><trkpt lat="59.39058780670166" lon="34.66004133224487"><time>2026-08-17T16:48:45.000Z</time><extensions/></trkpt><trkpt lat="59.39058780670166" lon="34.65986967086792"><time>2026-08-17T16:48:47.000Z</time><extensions/></trkpt><trkpt lat="59.39054489135742" lon="34.659719467163086"><time>2026-08-17T16:48:55.000Z</time><extensions/></trkpt><trkpt lat="59.3905234336853" lon="34.65954780578613"><time>2026-08-17T16:48:57.000Z</time><extensions/></trkpt><trkpt lat="59.39060926437378" lon="34.65941905975342"><time>2026-08-17T16:49:00.000Z</time><extensions/></trkpt><trkpt lat="59.3906307220459" lon="34.659225940704346"><time>2026-08-17T16:49:02.000Z</time><extensions/></trkpt><trkpt lat="59.39058780670166" lon="34.65918302536011"><time>2026-08-17T16:49:05.000Z</time><extensions/></trkpt><trkpt lat="59.39056634902954" lon="34.65905427932739"><time>2026-08-17T16:49:07.000Z</time><extensions/></trkpt><trkpt lat="59.39054489135742" lon="34.65888261795044"><time>2026-08-17T16:49:10.000Z</time><extensions/></trkpt><trkpt lat="59.39056634902954" lon="34.65879678726196"><time>2026-08-17T16:49:12.000Z</time><extensions/></trkpt><trkpt lat="59.39060926437378" lon="34.658732414245605"><time>2026-08-17T16:49:15.000Z</time><extensions/></trkpt><trkpt lat="59.3906307220459" lon="34.65862512588501"><time>2026-08-17T16:49:17.000Z</time><extensions/></trkpt><trkpt lat="59.39058780670166" lon="34.65860366821289"><time>2026-08-17T16:49:20.000Z</time><extensions/></trkpt><trkpt lat="59.39056634902954" lon="34.65856075286865"><time>2026-08-17T16:49:22.000Z</time><extensions/></trkpt><trkpt lat="59.39054489135742" lon="34.658474922180176"><time>2026-08-17T16:49:35.000Z</time><extensions/></trkpt><trkpt lat="59.390480518341064" lon="34.65841054916382"><time>2026-08-17T16:49:37.000Z</time><extensions/></trkpt><trkpt lat="59.390480518341064" lon="34.658517837524414"><time>2026-08-17T16:49:42.000Z</time><extensions/></trkpt><trkpt lat="59.390480518341064" lon="34.65862512588501"><time>2026-08-17T16:49:45.000Z</time><extensions/></trkpt><trkpt lat="59.390459060668945" lon="34.658517837524414"><time>2026-08-17T16:49:50.000Z</time><extensions/></trkpt><trkpt lat="59.39041614532471" lon="34.65843200683594"><time>2026-08-17T16:49:52.000Z</time><extensions/></trkpt><trkpt lat="59.39039468765259" lon="34.65830326080322"><time>2026-08-17T16:49:55.000Z</time><extensions/></trkpt><trkpt lat="59.39030885696411" lon="34.658217430114746"><time>2026-08-17T16:49:57.000Z</time><extensions/></trkpt><trkpt lat="59.39026594161987" lon="34.65811014175415"><time>2026-08-17T16:50:00.000Z</time><extensions/></trkpt><trkpt lat="59.390201568603516" lon="34.65804576873779"><time>2026-08-17T16:50:02.000Z</time><extensions/></trkpt><trkpt lat="59.390201568603516" lon="34.65811014175415"><time>2026-08-17T16:50:10.000Z</time><extensions/></trkpt><trkpt lat="59.390201568603516" lon="34.65806722640991"><time>2026-08-17T16:50:12.000Z</time><extensions/></trkpt><trkpt lat="59.3901801109314" lon="34.6579384803772"><time>2026-08-17T16:50:15.000Z</time><extensions/></trkpt><trkpt lat="59.39011573791504" lon="34.65787410736084"><time>2026-08-17T16:50:17.000Z</time><extensions/></trkpt><trkpt lat="59.39015865325928" lon="34.657723903656006"><time>2026-08-17T16:50:22.000Z</time><extensions/></trkpt><trkpt lat="59.3901801109314" lon="34.65761661529541"><time>2026-08-17T16:50:25.000Z</time><extensions/></trkpt><trkpt lat="59.39026594161987" lon="34.65755224227905"><time>2026-08-17T16:50:27.000Z</time><extensions/></trkpt><trkpt lat="59.39028739929199" lon="34.65757369995117"><time>2026-08-17T16:50:30.000Z</time><extensions/></trkpt><trkpt lat="59.39028739929199" lon="34.65770244598389"><time>2026-08-17T16:50:32.000Z</time><extensions/></trkpt><trkpt lat="59.390244483947754" lon="34.65785264968872"><time>2026-08-17T16:50:35.000Z</time><extensions/></trkpt><trkpt lat="59.390201568603516" lon="34.65789556503296"><time>2026-08-17T16:50:37.000Z</time><extensions/></trkpt><trkpt lat="59.39013719558716" lon="34.65785264968872"><time>2026-08-17T16:50:40.000Z</time><extensions/></trkpt><trkpt lat="59.39009428024292" lon="34.65778827667236"><time>2026-08-17T16:50:42.000Z</time><extensions/></trkpt><trkpt lat="59.39005136489868" lon="34.65780973434448"><time>2026-08-17T16:50:45.000Z</time><extensions/></trkpt><trkpt lat="59.39002990722656" lon="34.6578311920166"><time>2026-08-17T16:50:47.000Z</time><extensions/></trkpt><trkpt lat="59.39009428024292" lon="34.6578311920166"><time>2026-08-17T16:50:50.000Z</time><extensions/></trkpt><trkpt lat="59.39015865325928" lon="34.65789556503296"><time>2026-08-17T16:50:52.000Z</time><extensions/></trkpt><trkpt lat="59.39013719558716" lon="34.65787410736084"><time>2026-08-17T16:50:55.000Z</time><extensions/></trkpt><trkpt lat="59.39011573791504" lon="34.65785264968872"><time>2026-08-17T16:50:57.000Z</time><extensions/></trkpt><trkpt lat="59.39002990722656" lon="34.65778827667236"><time>2026-08-17T16:51:00.000Z</time><extensions/></trkpt><trkpt lat="59.389965534210205" lon="34.657723903656006"><time>2026-08-17T16:51:02.000Z</time><extensions/></trkpt><trkpt lat="59.38992261886597" lon="34.657723903656006"><time>2026-08-17T16:51:05.000Z</time><extensions/></trkpt><trkpt lat="59.38990116119385" lon="34.65765953063965"><time>2026-08-17T16:51:10.000Z</time><extensions/></trkpt><trkpt lat="59.38990116119385" lon="34.65761661529541"><time>2026-08-17T16:51:12.000Z</time><extensions/></trkpt><trkpt lat="59.389944076538086" lon="34.65765953063965"><time>2026-08-17T16:51:15.000Z</time><extensions/></trkpt><trkpt lat="59.39000844955444" lon="34.657723903656006"><time>2026-08-17T16:51:17.000Z</time><extensions/></trkpt><trkpt lat="59.39009428024292" lon="34.65778827667236"><time>2026-08-17T16:51:47.000Z</time><extensions/></trkpt><trkpt lat="59.39005136489868" lon="34.65778827667236"><time>2026-08-17T16:51:57.000Z</time><extensions/></trkpt><trkpt lat="59.389986991882324" lon="34.657766819000244"><time>2026-08-17T16:52:00.000Z</time><extensions/></trkpt><trkpt lat="59.38992261886597" lon="34.657723903656006"><time>2026-08-17T16:52:02.000Z</time><extensions/></trkpt><trkpt lat="59.38985824584961" lon="34.65765953063965"><time>2026-08-17T16:52:05.000Z</time><extensions/></trkpt><trkpt lat="59.38979387283325" lon="34.65757369995117"><time>2026-08-17T16:52:35.000Z</time><extensions/></trkpt><trkpt lat="59.389729499816895" lon="34.65755224227905"><time>2026-08-17T16:52:45.000Z</time><extensions/></trkpt><trkpt lat="59.389686584472656" lon="34.65755224227905"><time>2026-08-17T16:52:47.000Z</time><extensions/></trkpt><trkpt lat="59.3896222114563" lon="34.657530784606934"><time>2026-08-17T16:52:50.000Z</time><extensions/></trkpt><trkpt lat="59.38960075378418" lon="34.65755224227905"><time>2026-08-17T16:52:52.000Z</time><extensions/></trkpt><trkpt lat="59.38960075378418" lon="34.65759515762329"><time>2026-08-17T16:52:55.000Z</time><extensions/></trkpt><trkpt lat="59.38955783843994" lon="34.65761661529541"><time>2026-08-17T16:52:57.000Z</time><extensions/></trkpt><trkpt lat="59.389493465423584" lon="34.65763807296753"><time>2026-08-17T16:53:00.000Z</time><extensions/></trkpt><trkpt lat="59.389472007751465" lon="34.65755224227905"><time>2026-08-17T16:53:02.000Z</time><extensions/></trkpt><trkpt lat="59.3895149230957" lon="34.657509326934814"><time>2026-08-17T16:53:05.000Z</time><extensions/></trkpt><trkpt lat="59.389493465423584" lon="34.65744495391846"><time>2026-08-17T16:53:07.000Z</time><extensions/></trkpt><trkpt lat="59.3895149230957" lon="34.65744495391846"><time>2026-08-17T16:53:12.000Z</time><extensions/></trkpt><trkpt lat="59.38957929611206" lon="34.657466411590576"><time>2026-08-17T16:53:15.000Z</time><extensions/></trkpt><trkpt lat="59.3895149230957" lon="34.657466411590576"><time>2026-08-17T16:53:20.000Z</time><extensions/></trkpt><trkpt lat="59.38953638076782" lon="34.657487869262695"><time>2026-08-17T16:53:27.000Z</time><extensions/></trkpt><trkpt lat="59.3895149230957" lon="34.65755224227905"><time>2026-08-17T16:53:30.000Z</time><extensions/></trkpt><trkpt lat="59.38942909240723" lon="34.65742349624634"><time>2026-08-17T16:53:37.000Z</time><extensions/></trkpt><trkpt lat="59.38938617706299" lon="34.65742349624634"><time>2026-08-17T16:53:40.000Z</time><extensions/></trkpt><trkpt lat="59.38940763473511" lon="34.657487869262695"><time>2026-08-17T16:53:42.000Z</time><extensions/></trkpt><trkpt lat="59.38940763473511" lon="34.65757369995117"><time>2026-08-17T16:53:45.000Z</time><extensions/></trkpt><trkpt lat="59.38934326171875" lon="34.65759515762329"><time>2026-08-17T16:53:47.000Z</time><extensions/></trkpt><trkpt lat="59.38930034637451" lon="34.657745361328125"><time>2026-08-17T16:53:50.000Z</time><extensions/></trkpt><trkpt lat="59.389235973358154" lon="34.65780973434448"><time>2026-08-17T16:53:52.000Z</time><extensions/></trkpt><trkpt lat="59.389193058013916" lon="34.657766819000244"><time>2026-08-17T16:53:55.000Z</time><extensions/></trkpt><trkpt lat="59.38915014266968" lon="34.65768098831177"><time>2026-08-17T16:53:57.000Z</time><extensions/></trkpt><trkpt lat="59.38912868499756" lon="34.65770244598389"><time>2026-08-17T16:54:00.000Z</time><extensions/></trkpt><trkpt lat="59.3891716003418" lon="34.657766819000244"><time>2026-08-17T16:54:02.000Z</time><extensions/></trkpt><trkpt lat="59.389193058013916" lon="34.65785264968872"><time>2026-08-17T16:54:05.000Z</time><extensions/></trkpt><trkpt lat="59.389235973358154" lon="34.6578311920166"><time>2026-08-17T16:54:07.000Z</time><extensions/></trkpt><trkpt lat="59.38936471939087" lon="34.65778827667236"><time>2026-08-17T16:54:10.000Z</time><extensions/></trkpt><trkpt lat="59.389450550079346" lon="34.657766819000244"><time>2026-08-17T16:54:12.000Z</time><extensions/></trkpt><trkpt lat="59.389472007751465" lon="34.657723903656006"><time>2026-08-17T16:54:15.000Z</time><extensions/></trkpt><trkpt lat="59.389493465423584" lon="34.65765953063965"><time>2026-08-17T16:54:17.000Z</time><extensions/></trkpt><trkpt lat="59.389493465423584" lon="34.657723903656006"><time>2026-08-17T16:54:47.000Z</time><extensions/></trkpt><trkpt lat="59.3895149230957" lon="34.657723903656006"><time>2026-08-17T16:55:12.000Z</time><extensions/></trkpt><trkpt lat="59.38955783843994" lon="34.65770244598389"><time>2026-08-17T16:55:42.000Z</time><extensions/></trkpt><trkpt lat="59.38955783843994" lon="34.657766819000244"><time>2026-08-17T16:56:07.000Z</time><extensions/></trkpt><trkpt lat="59.38955783843994" lon="34.65780973434448"><time>2026-08-17T16:56:10.000Z</time><extensions/></trkpt><trkpt lat="59.38955783843994" lon="34.657766819000244"><time>2026-08-17T16:56:12.000Z</time><extensions/></trkpt><trkpt lat="59.38957929611206" lon="34.657723903656006"><time>2026-08-17T16:56:15.000Z</time><extensions/></trkpt><trkpt lat="59.38960075378418" lon="34.65768098831177"><time>2026-08-17T16:56:17.000Z</time><extensions/></trkpt><trkpt lat="59.38966512680054" lon="34.65768098831177"><time>2026-08-17T16:56:25.000Z</time><extensions/></trkpt><trkpt lat="59.3896222114563" lon="34.65768098831177"><time>2026-08-17T16:56:30.000Z</time><extensions/></trkpt><trkpt lat="59.38955783843994" lon="34.65768098831177"><time>2026-08-17T16:57:00.000Z</time><extensions/></trkpt><trkpt lat="59.38955783843994" lon="34.65768098831177"><time>2026-08-17T16:57:25.000Z</time><extensions/></trkpt><trkpt lat="59.38955783843994" lon="34.657723903656006"><time>2026-08-17T16:57:52.000Z</time><extensions/></trkpt><trkpt lat="59.38953638076782" lon="34.657723903656006"><time>2026-08-17T16:57:55.000Z</time><extensions/></trkpt><trkpt lat="59.3895149230957" lon="34.657723903656006"><time>2026-08-17T16:57:57.000Z</time><extensions/></trkpt><trkpt lat="59.389493465423584" lon="34.65778827667236"><time>2026-08-17T16:58:00.000Z</time><extensions/></trkpt><trkpt lat="59.389493465423584" lon="34.65785264968872"><time>2026-08-17T16:58:02.000Z</time><extensions/></trkpt><trkpt lat="59.3895149230957" lon="34.6579384803772"><time>2026-08-17T16:58:05.000Z</time><extensions/></trkpt><trkpt lat="59.38955783843994" lon="34.658002853393555"><time>2026-08-17T16:58:07.000Z</time><extensions/></trkpt><trkpt lat="59.38957929611206" lon="34.65811014175415"><time>2026-08-17T16:58:10.000Z</time><extensions/></trkpt><trkpt lat="59.38957929611206" lon="34.65819597244263"><time>2026-08-17T16:58:12.000Z</time><extensions/></trkpt><trkpt lat="59.38960075378418" lon="34.65808868408203"><time>2026-08-17T16:58:25.000Z</time><extensions/></trkpt><trkpt lat="59.38966512680054" lon="34.65811014175415"><time>2026-08-17T16:58:30.000Z</time><extensions/></trkpt><trkpt lat="59.389686584472656" lon="34.65808868408203"><time>2026-08-17T16:58:32.000Z</time><extensions/></trkpt><trkpt lat="59.38966512680054" lon="34.658024311065674"><time>2026-08-17T16:58:40.000Z</time><extensions/></trkpt><trkpt lat="59.38964366912842" lon="34.65791702270508"><time>2026-08-17T16:58:42.000Z</time><extensions/></trkpt><trkpt lat="59.38960075378418" lon="34.65787410736084"><time>2026-08-17T16:58:45.000Z</time><extensions/></trkpt><trkpt lat="59.3896222114563" lon="34.658024311065674"><time>2026-08-17T16:58:52.000Z</time><extensions/></trkpt><trkpt lat="59.38966512680054" lon="34.65819597244263"><time>2026-08-17T16:58:55.000Z</time><extensions/></trkpt><trkpt lat="59.38966512680054" lon="34.65832471847534"><time>2026-08-17T16:58:57.000Z</time><extensions/></trkpt><trkpt lat="59.389686584472656" lon="34.6583890914917"><time>2026-08-17T16:59:00.000Z</time><extensions/></trkpt><trkpt lat="59.389708042144775" lon="34.658496379852295"><time>2026-08-17T16:59:02.000Z</time><extensions/></trkpt><trkpt lat="59.389729499816895" lon="34.65856075286865"><time>2026-08-17T16:59:05.000Z</time><extensions/></trkpt><trkpt lat="59.389729499816895" lon="34.65864658355713"><time>2026-08-17T16:59:07.000Z</time><extensions/></trkpt><trkpt lat="59.389708042144775" lon="34.65864658355713"><time>2026-08-17T16:59:10.000Z</time><extensions/></trkpt><trkpt lat="59.38966512680054" lon="34.65858221054077"><time>2026-08-17T16:59:12.000Z</time><extensions/></trkpt><trkpt lat="59.3896222114563" lon="34.658517837524414"><time>2026-08-17T16:59:15.000Z</time><extensions/></trkpt><trkpt lat="59.38960075378418" lon="34.65841054916382"><time>2026-08-17T16:59:17.000Z</time><extensions/></trkpt><trkpt lat="59.38955783843994" lon="34.65815305709839"><time>2026-08-17T16:59:22.000Z</time><extensions/></trkpt><trkpt lat="59.38953638076782" lon="34.65813159942627"><time>2026-08-17T16:59:30.000Z</time><extensions/></trkpt><trkpt lat="59.3895149230957" lon="34.65817451477051"><time>2026-08-17T16:59:32.000Z</time><extensions/></trkpt><trkpt lat="59.389493465423584" lon="34.65819597244263"><time>2026-08-17T16:59:35.000Z</time><extensions/></trkpt><trkpt lat="59.389450550079346" lon="34.65817451477051"><time>2026-08-17T16:59:42.000Z</time><extensions/></trkpt><trkpt lat="59.38942909240723" lon="34.65811014175415"><time>2026-08-17T16:59:45.000Z</time><extensions/></trkpt><trkpt lat="59.38942909240723" lon="34.658024311065674"><time>2026-08-17T16:59:47.000Z</time><extensions/></trkpt><trkpt lat="59.389450550079346" lon="34.6579384803772"><time>2026-08-17T16:59:50.000Z</time><extensions/></trkpt><trkpt lat="59.389472007751465" lon="34.65789556503296"><time>2026-08-17T16:59:52.000Z</time><extensions/></trkpt><trkpt lat="59.38942909240723" lon="34.65780973434448"><time>2026-08-17T17:00:07.000Z</time><extensions/></trkpt><trkpt lat="59.389450550079346" lon="34.65778827667236"><time>2026-08-17T17:00:27.000Z</time><extensions/></trkpt><trkpt lat="59.38942909240723" lon="34.65780973434448"><time>2026-08-17T17:00:42.000Z</time><extensions/></trkpt><trkpt lat="59.38942909240723" lon="34.657766819000244"><time>2026-08-17T17:00:47.000Z</time><extensions/></trkpt><trkpt lat="59.38938617706299" lon="34.65778827667236"><time>2026-08-17T17:00:55.000Z</time><extensions/></trkpt><trkpt lat="59.38930034637451" lon="34.6578311920166"><time>2026-08-17T17:01:00.000Z</time><extensions/></trkpt><trkpt lat="59.38925743103027" lon="34.65787410736084"><time>2026-08-17T17:01:02.000Z</time><extensions/></trkpt><trkpt lat="59.389214515686035" lon="34.6579384803772"><time>2026-08-17T17:01:05.000Z</time><extensions/></trkpt><trkpt lat="59.3891716003418" lon="34.6579384803772"><time>2026-08-17T17:01:07.000Z</time><extensions/></trkpt><trkpt lat="59.38912868499756" lon="34.65787410736084"><time>2026-08-17T17:01:10.000Z</time><extensions/></trkpt><trkpt lat="59.38910722732544" lon="34.65787410736084"><time>2026-08-17T17:01:12.000Z</time><extensions/></trkpt><trkpt lat="59.38908576965332" lon="34.6578311920166"><time>2026-08-17T17:01:15.000Z</time><extensions/></trkpt><trkpt lat="59.38908576965332" lon="34.65787410736084"><time>2026-08-17T17:01:35.000Z</time><extensions/></trkpt><trkpt lat="59.3890643119812" lon="34.65787410736084"><time>2026-08-17T17:01:47.000Z</time><extensions/></trkpt><trkpt lat="59.38902139663696" lon="34.657745361328125"><time>2026-08-17T17:01:50.000Z</time><extensions/></trkpt><trkpt lat="59.388935565948486" lon="34.65768098831177"><time>2026-08-17T17:01:52.000Z</time><extensions/></trkpt><trkpt lat="59.38887119293213" lon="34.65765953063965"><time>2026-08-17T17:01:55.000Z</time><extensions/></trkpt><trkpt lat="59.38882827758789" lon="34.65765953063965"><time>2026-08-17T17:01:57.000Z</time><extensions/></trkpt><trkpt lat="59.38876390457153" lon="34.65768098831177"><time>2026-08-17T17:02:00.000Z</time><extensions/></trkpt><trkpt lat="59.388699531555176" lon="34.657723903656006"><time>2026-08-17T17:02:05.000Z</time><extensions/></trkpt><trkpt lat="59.38878536224365" lon="34.65765953063965"><time>2026-08-17T17:02:15.000Z</time><extensions/></trkpt><trkpt lat="59.38884973526001" lon="34.65763807296753"><time>2026-08-17T17:02:17.000Z</time><extensions/></trkpt><trkpt lat="59.38891410827637" lon="34.65757369995117"><time>2026-08-17T17:02:20.000Z</time><extensions/></trkpt><trkpt lat="59.38891410827637" lon="34.657509326934814"><time>2026-08-17T17:02:22.000Z</time><extensions/></trkpt><trkpt lat="59.38889265060425" lon="34.657466411590576"><time>2026-08-17T17:02:25.000Z</time><extensions/></trkpt><trkpt lat="59.38891410827637" lon="34.657466411590576"><time>2026-08-17T17:02:30.000Z</time><extensions/></trkpt><trkpt lat="59.38891410827637" lon="34.65740203857422"><time>2026-08-17T17:02:32.000Z</time><extensions/></trkpt><trkpt lat="59.388935565948486" lon="34.65731620788574"><time>2026-08-17T17:02:35.000Z</time><extensions/></trkpt><trkpt lat="59.38891410827637" lon="34.6573805809021"><time>2026-08-17T17:03:05.000Z</time><extensions/></trkpt><trkpt lat="59.38891410827637" lon="34.65742349624634"><time>2026-08-17T17:03:12.000Z</time><extensions/></trkpt><trkpt lat="59.38891410827637" lon="34.65742349624634"><time>2026-08-17T17:03:22.000Z</time><extensions/></trkpt><trkpt lat="59.38891410827637" lon="34.65735912322998"><time>2026-08-17T17:03:30.000Z</time><extensions/></trkpt><trkpt lat="59.388957023620605" lon="34.657273292541504"><time>2026-08-17T17:03:32.000Z</time><extensions/></trkpt><trkpt lat="59.388935565948486" lon="34.65718746185303"><time>2026-08-17T17:03:35.000Z</time><extensions/></trkpt><trkpt lat="59.38889265060425" lon="34.65710163116455"><time>2026-08-17T17:03:37.000Z</time><extensions/></trkpt><trkpt lat="59.38887119293213" lon="34.65712308883667"><time>2026-08-17T17:03:40.000Z</time><extensions/></trkpt><trkpt lat="59.38884973526001" lon="34.65718746185303"><time>2026-08-17T17:03:42.000Z</time><extensions/></trkpt><trkpt lat="59.38889265060425" lon="34.65718746185303"><time>2026-08-17T17:03:45.000Z</time><extensions/></trkpt><trkpt lat="59.388957023620605" lon="34.65718746185303"><time>2026-08-17T17:03:47.000Z</time><extensions/></trkpt><trkpt lat="59.388999938964844" lon="34.65705871582031"><time>2026-08-17T17:03:50.000Z</time><extensions/></trkpt><trkpt lat="59.388978481292725" lon="34.656972885131836"><time>2026-08-17T17:03:52.000Z</time><extensions/></trkpt><trkpt lat="59.38902139663696" lon="34.65695142745972"><time>2026-08-17T17:03:55.000Z</time><extensions/></trkpt><trkpt lat="59.38904285430908" lon="34.65688705444336"><time>2026-08-17T17:03:57.000Z</time><extensions/></trkpt><trkpt lat="59.38908576965332" lon="34.65680122375488"><time>2026-08-17T17:04:00.000Z</time><extensions/></trkpt><trkpt lat="59.38908576965332" lon="34.656758308410645"><time>2026-08-17T17:04:02.000Z</time><extensions/></trkpt><trkpt lat="59.38912868499756" lon="34.656736850738525"><time>2026-08-17T17:04:05.000Z</time><extensions/></trkpt><trkpt lat="59.3891716003418" lon="34.656758308410645"><time>2026-08-17T17:04:07.000Z</time><extensions/></trkpt><trkpt lat="59.389193058013916" lon="34.656822681427"><time>2026-08-17T17:04:10.000Z</time><extensions/></trkpt><trkpt lat="59.3891716003418" lon="34.65688705444336"><time>2026-08-17T17:04:12.000Z</time><extensions/></trkpt><trkpt lat="59.389214515686035" lon="34.65690851211548"><time>2026-08-17T17:04:17.000Z</time><extensions/></trkpt><trkpt lat="59.389235973358154" lon="34.6569299697876"><time>2026-08-17T17:04:20.000Z</time><extensions/></trkpt><trkpt lat="59.38925743103027" lon="34.65695142745972"><time>2026-08-17T17:04:22.000Z</time><extensions/></trkpt><trkpt lat="59.38927888870239" lon="34.65686559677124"><time>2026-08-17T17:04:25.000Z</time><extensions/></trkpt><trkpt lat="59.38930034637451" lon="34.656779766082764"><time>2026-08-17T17:04:27.000Z</time><extensions/></trkpt><trkpt lat="59.38932180404663" lon="34.65667247772217"><time>2026-08-17T17:04:30.000Z</time><extensions/></trkpt><trkpt lat="59.38930034637451" lon="34.65658664703369"><time>2026-08-17T17:04:32.000Z</time><extensions/></trkpt><trkpt lat="59.38932180404663" lon="34.656500816345215"><time>2026-08-17T17:04:35.000Z</time><extensions/></trkpt><trkpt lat="59.38936471939087" lon="34.65641498565674"><time>2026-08-17T17:04:37.000Z</time><extensions/></trkpt><trkpt lat="59.38934326171875" lon="34.65632915496826"><time>2026-08-17T17:04:40.000Z</time><extensions/></trkpt><trkpt lat="59.38938617706299" lon="34.65628623962402"><time>2026-08-17T17:04:42.000Z</time><extensions/></trkpt><trkpt lat="59.38938617706299" lon="34.65620040893555"><time>2026-08-17T17:04:45.000Z</time><extensions/></trkpt><trkpt lat="59.38936471939087" lon="34.65611457824707"><time>2026-08-17T17:04:47.000Z</time><extensions/></trkpt><trkpt lat="59.38936471939087" lon="34.65605020523071"><time>2026-08-17T17:04:50.000Z</time><extensions/></trkpt><trkpt lat="59.38934326171875" lon="34.655964374542236"><time>2026-08-17T17:04:52.000Z</time><extensions/></trkpt><trkpt lat="59.38934326171875" lon="34.65587854385376"><time>2026-08-17T17:04:55.000Z</time><extensions/></trkpt><trkpt lat="59.38932180404663" lon="34.6558141708374"><time>2026-08-17T17:04:57.000Z</time><extensions/></trkpt><trkpt lat="59.38934326171875" lon="34.65585708618164"><time>2026-08-17T17:05:00.000Z</time><extensions/></trkpt><trkpt lat="59.38934326171875" lon="34.655921459198"><time>2026-08-17T17:05:02.000Z</time><extensions/></trkpt><trkpt lat="59.38932180404663" lon="34.655964374542236"><time>2026-08-17T17:05:05.000Z</time><extensions/></trkpt><trkpt lat="59.38925743103027" lon="34.655921459198"><time>2026-08-17T17:05:07.000Z</time><extensions/></trkpt><trkpt lat="59.38925743103027" lon="34.655964374542236"><time>2026-08-17T17:05:10.000Z</time><extensions/></trkpt><trkpt lat="59.389214515686035" lon="34.655985832214355"><time>2026-08-17T17:05:12.000Z</time><extensions/></trkpt><trkpt lat="59.389193058013916" lon="34.655985832214355"><time>2026-08-17T17:05:15.000Z</time><extensions/></trkpt><trkpt lat="59.3891716003418" lon="34.655964374542236"><time>2026-08-17T17:05:17.000Z</time><extensions/></trkpt><trkpt lat="59.38912868499756" lon="34.655921459198"><time>2026-08-17T17:05:20.000Z</time><extensions/></trkpt><trkpt lat="59.38912868499756" lon="34.656028747558594"><time>2026-08-17T17:05:27.000Z</time><extensions/></trkpt><trkpt lat="59.38915014266968" lon="34.65605020523071"><time>2026-08-17T17:05:35.000Z</time><extensions/></trkpt><trkpt lat="59.389193058013916" lon="34.65611457824707"><time>2026-08-17T17:05:37.000Z</time><extensions/></trkpt><trkpt lat="59.38925743103027" lon="34.65615749359131"><time>2026-08-17T17:05:40.000Z</time><extensions/></trkpt><trkpt lat="59.38932180404663" lon="34.65617895126343"><time>2026-08-17T17:05:42.000Z</time><extensions/></trkpt><trkpt lat="59.389472007751465" lon="34.65632915496826"><time>2026-08-17T17:05:52.000Z</time><extensions/></trkpt><trkpt lat="59.389493465423584" lon="34.6563720703125"><time>2026-08-17T17:05:55.000Z</time><extensions/></trkpt><trkpt lat="59.38953638076782" lon="34.65635061264038"><time>2026-08-17T17:05:57.000Z</time><extensions/></trkpt><trkpt lat="59.38953638076782" lon="34.65630769729614"><time>2026-08-17T17:06:00.000Z</time><extensions/></trkpt><trkpt lat="59.38955783843994" lon="34.656264781951904"><time>2026-08-17T17:06:02.000Z</time><extensions/></trkpt><trkpt lat="59.38955783843994" lon="34.65620040893555"><time>2026-08-17T17:06:05.000Z</time><extensions/></trkpt><trkpt lat="59.38955783843994" lon="34.65613603591919"><time>2026-08-17T17:06:07.000Z</time><extensions/></trkpt><trkpt lat="59.38953638076782" lon="34.65605020523071"><time>2026-08-17T17:06:10.000Z</time><extensions/></trkpt><trkpt lat="59.38953638076782" lon="34.655964374542236"><time>2026-08-17T17:06:12.000Z</time><extensions/></trkpt><trkpt lat="59.38955783843994" lon="34.65585708618164"><time>2026-08-17T17:06:15.000Z</time><extensions/></trkpt><trkpt lat="59.38955783843994" lon="34.655749797821045"><time>2026-08-17T17:06:17.000Z</time><extensions/></trkpt><trkpt lat="59.38957929611206" lon="34.65564250946045"><time>2026-08-17T17:06:20.000Z</time><extensions/></trkpt><trkpt lat="59.38960075378418" lon="34.65553522109985"><time>2026-08-17T17:06:22.000Z</time><extensions/></trkpt><trkpt lat="59.3896222114563" lon="34.65542793273926"><time>2026-08-17T17:06:25.000Z</time><extensions/></trkpt><trkpt lat="59.3896222114563" lon="34.65532064437866"><time>2026-08-17T17:06:27.000Z</time><extensions/></trkpt><trkpt lat="59.38960075378418" lon="34.65540647506714"><time>2026-08-17T17:06:35.000Z</time><extensions/></trkpt><trkpt lat="59.38955783843994" lon="34.65557813644409"><time>2026-08-17T17:06:37.000Z</time><extensions/></trkpt><trkpt lat="59.389493465423584" lon="34.65566396713257"><time>2026-08-17T17:06:40.000Z</time><extensions/></trkpt><trkpt lat="59.389450550079346" lon="34.655749797821045"><time>2026-08-17T17:06:42.000Z</time><extensions/></trkpt><trkpt lat="59.38940763473511" lon="34.6558141708374"><time>2026-08-17T17:06:45.000Z</time><extensions/></trkpt><trkpt lat="59.389450550079346" lon="34.65590000152588"><time>2026-08-17T17:06:47.000Z</time><extensions/></trkpt><trkpt lat="59.38953638076782" lon="34.655985832214355"><time>2026-08-17T17:06:50.000Z</time><extensions/></trkpt><trkpt lat="59.38960075378418" lon="34.655985832214355"><time>2026-08-17T17:06:52.000Z</time><extensions/></trkpt><trkpt lat="59.38964366912842" lon="34.655921459198"><time>2026-08-17T17:06:55.000Z</time><extensions/></trkpt><trkpt lat="59.38960075378418" lon="34.65587854385376"><time>2026-08-17T17:06:57.000Z</time><extensions/></trkpt><trkpt lat="59.38953638076782" lon="34.65590000152588"><time>2026-08-17T17:07:00.000Z</time><extensions/></trkpt><trkpt lat="59.38942909240723" lon="34.655921459198"><time>2026-08-17T17:07:02.000Z</time><extensions/></trkpt><trkpt lat="59.38932180404663" lon="34.65587854385376"><time>2026-08-17T17:07:05.000Z</time><extensions/></trkpt><trkpt lat="59.38927888870239" lon="34.65594291687012"><time>2026-08-17T17:07:07.000Z</time><extensions/></trkpt><trkpt lat="59.38925743103027" lon="34.65585708618164"><time>2026-08-17T17:07:10.000Z</time><extensions/></trkpt><trkpt lat="59.389214515686035" lon="34.655771255493164"><time>2026-08-17T17:07:12.000Z</time><extensions/></trkpt><trkpt lat="59.3891716003418" lon="34.655728340148926"><time>2026-08-17T17:07:22.000Z</time><extensions/></trkpt><trkpt lat="59.38910722732544" lon="34.65568542480469"><time>2026-08-17T17:07:27.000Z</time><extensions/></trkpt><trkpt lat="59.38910722732544" lon="34.65564250946045"><time>2026-08-17T17:07:30.000Z</time><extensions/></trkpt><trkpt lat="59.38912868499756" lon="34.655749797821045"><time>2026-08-17T17:07:37.000Z</time><extensions/></trkpt><trkpt lat="59.38912868499756" lon="34.65585708618164"><time>2026-08-17T17:07:40.000Z</time><extensions/></trkpt><trkpt lat="59.38910722732544" lon="34.65590000152588"><time>2026-08-17T17:07:42.000Z</time><extensions/></trkpt><trkpt lat="59.3890643119812" lon="34.65594291687012"><time>2026-08-17T17:07:45.000Z</time><extensions/></trkpt><trkpt lat="59.3890643119812" lon="34.655985832214355"><time>2026-08-17T17:07:47.000Z</time><extensions/></trkpt><trkpt lat="59.38902139663696" lon="34.655964374542236"><time>2026-08-17T17:07:50.000Z</time><extensions/></trkpt><trkpt lat="59.388999938964844" lon="34.65590000152588"><time>2026-08-17T17:07:52.000Z</time><extensions/></trkpt><trkpt lat="59.388978481292725" lon="34.65587854385376"><time>2026-08-17T17:07:55.000Z</time><extensions/></trkpt><trkpt lat="59.388957023620605" lon="34.65587854385376"><time>2026-08-17T17:08:10.000Z</time><extensions/></trkpt><trkpt lat="59.38891410827637" lon="34.65587854385376"><time>2026-08-17T17:08:12.000Z</time><extensions/></trkpt><trkpt lat="59.38887119293213" lon="34.6558141708374"><time>2026-08-17T17:08:15.000Z</time><extensions/></trkpt><trkpt lat="59.38884973526001" lon="34.65583562850952"><time>2026-08-17T17:08:17.000Z</time><extensions/></trkpt><trkpt lat="59.38882827758789" lon="34.65587854385376"><time>2026-08-17T17:08:22.000Z</time><extensions/></trkpt><trkpt lat="59.38880681991577" lon="34.655964374542236"><time>2026-08-17T17:08:25.000Z</time><extensions/></trkpt><trkpt lat="59.38876390457153" lon="34.656007289886475"><time>2026-08-17T17:08:27.000Z</time><extensions/></trkpt><trkpt lat="59.388699531555176" lon="34.65605020523071"><time>2026-08-17T17:08:30.000Z</time><extensions/></trkpt><trkpt lat="59.38865661621094" lon="34.656028747558594"><time>2026-08-17T17:08:32.000Z</time><extensions/></trkpt><trkpt lat="59.38865661621094" lon="34.65594291687012"><time>2026-08-17T17:08:35.000Z</time><extensions/></trkpt><trkpt lat="59.38865661621094" lon="34.65585708618164"><time>2026-08-17T17:08:37.000Z</time><extensions/></trkpt><trkpt lat="59.38865661621094" lon="34.655749797821045"><time>2026-08-17T17:08:40.000Z</time><extensions/></trkpt><trkpt lat="59.38865661621094" lon="34.65564250946045"><time>2026-08-17T17:08:42.000Z</time><extensions/></trkpt><trkpt lat="59.38865661621094" lon="34.65553522109985"><time>2026-08-17T17:08:45.000Z</time><extensions/></trkpt><trkpt lat="59.38865661621094" lon="34.65544939041138"><time>2026-08-17T17:08:47.000Z</time><extensions/></trkpt><trkpt lat="59.38859224319458" lon="34.65557813644409"><time>2026-08-17T17:09:02.000Z</time><extensions/></trkpt><trkpt lat="59.38854932785034" lon="34.65566396713257"><time>2026-08-17T17:09:05.000Z</time><extensions/></trkpt><trkpt lat="59.388463497161865" lon="34.65570688247681"><time>2026-08-17T17:09:10.000Z</time><extensions/></trkpt><trkpt lat="59.388442039489746" lon="34.65568542480469"><time>2026-08-17T17:09:12.000Z</time><extensions/></trkpt><trkpt lat="59.38839912414551" lon="34.65570688247681"><time>2026-08-17T17:09:15.000Z</time><extensions/></trkpt><trkpt lat="59.38835620880127" lon="34.65570688247681"><time>2026-08-17T17:09:17.000Z</time><extensions/></trkpt><trkpt lat="59.38837766647339" lon="34.65568542480469"><time>2026-08-17T17:09:20.000Z</time><extensions/></trkpt><trkpt lat="59.38837766647339" lon="34.65564250946045"><time>2026-08-17T17:09:22.000Z</time><extensions/></trkpt><trkpt lat="59.38837766647339" lon="34.65557813644409"><time>2026-08-17T17:09:25.000Z</time><extensions/></trkpt><trkpt lat="59.38833475112915" lon="34.65544939041138"><time>2026-08-17T17:09:32.000Z</time><extensions/></trkpt><trkpt lat="59.38831329345703" lon="34.65538501739502"><time>2026-08-17T17:09:35.000Z</time><extensions/></trkpt><trkpt lat="59.388248920440674" lon="34.65529918670654"><time>2026-08-17T17:09:40.000Z</time><extensions/></trkpt><trkpt lat="59.388206005096436" lon="34.65532064437866"><time>2026-08-17T17:09:42.000Z</time><extensions/></trkpt><trkpt lat="59.388184547424316" lon="34.65544939041138"><time>2026-08-17T17:09:45.000Z</time><extensions/></trkpt><trkpt lat="59.38814163208008" lon="34.65553522109985"><time>2026-08-17T17:09:47.000Z</time><extensions/></trkpt><trkpt lat="59.3881630897522" lon="34.65553522109985"><time>2026-08-17T17:09:50.000Z</time><extensions/></trkpt><trkpt lat="59.388227462768555" lon="34.65540647506714"><time>2026-08-17T17:09:52.000Z</time><extensions/></trkpt><trkpt lat="59.38833475112915" lon="34.655470848083496"><time>2026-08-17T17:09:55.000Z</time><extensions/></trkpt><trkpt lat="59.38837766647339" lon="34.65555667877197"><time>2026-08-17T17:09:57.000Z</time><extensions/></trkpt><trkpt lat="59.38835620880127" lon="34.65566396713257"><time>2026-08-17T17:10:00.000Z</time><extensions/></trkpt><trkpt lat="59.38831329345703" lon="34.655771255493164"><time>2026-08-17T17:10:02.000Z</time><extensions/></trkpt><trkpt lat="59.38827037811279" lon="34.655749797821045"><time>2026-08-17T17:10:05.000Z</time><extensions/></trkpt><trkpt lat="59.388248920440674" lon="34.65579271316528"><time>2026-08-17T17:10:07.000Z</time><extensions/></trkpt><trkpt lat="59.388248920440674" lon="34.65590000152588"><time>2026-08-17T17:10:15.000Z</time><extensions/></trkpt><trkpt lat="59.388227462768555" lon="34.65594291687012"><time>2026-08-17T17:10:17.000Z</time><extensions/></trkpt><trkpt lat="59.388184547424316" lon="34.656007289886475"><time>2026-08-17T17:10:20.000Z</time><extensions/></trkpt><trkpt lat="59.38814163208008" lon="34.65605020523071"><time>2026-08-17T17:10:22.000Z</time><extensions/></trkpt><trkpt lat="59.38812017440796" lon="34.65607166290283"><time>2026-08-17T17:10:25.000Z</time><extensions/></trkpt><trkpt lat="59.38807725906372" lon="34.65605020523071"><time>2026-08-17T17:10:27.000Z</time><extensions/></trkpt><trkpt lat="59.3880558013916" lon="34.65605020523071"><time>2026-08-17T17:10:30.000Z</time><extensions/></trkpt><trkpt lat="59.38807725906372" lon="34.655964374542236"><time>2026-08-17T17:10:32.000Z</time><extensions/></trkpt><trkpt lat="59.38809871673584" lon="34.65585708618164"><time>2026-08-17T17:10:35.000Z</time><extensions/></trkpt><trkpt lat="59.38812017440796" lon="34.655771255493164"><time>2026-08-17T17:10:37.000Z</time><extensions/></trkpt><trkpt lat="59.38809871673584" lon="34.6558141708374"><time>2026-08-17T17:10:42.000Z</time><extensions/></trkpt><trkpt lat="59.3880558013916" lon="34.656028747558594"><time>2026-08-17T17:10:45.000Z</time><extensions/></trkpt><trkpt lat="59.38803434371948" lon="34.65617895126343"><time>2026-08-17T17:10:47.000Z</time><extensions/></trkpt><trkpt lat="59.38801288604736" lon="34.65635061264038"><time>2026-08-17T17:10:52.000Z</time><extensions/></trkpt><trkpt lat="59.387969970703125" lon="34.65639352798462"><time>2026-08-17T17:10:57.000Z</time><extensions/></trkpt><trkpt lat="59.387969970703125" lon="34.65645790100098"><time>2026-08-17T17:11:00.000Z</time><extensions/></trkpt><trkpt lat="59.387991428375244" lon="34.656500816345215"><time>2026-08-17T17:11:02.000Z</time><extensions/></trkpt><trkpt lat="59.387969970703125" lon="34.65641498565674"><time>2026-08-17T17:11:05.000Z</time><extensions/></trkpt><trkpt lat="59.387991428375244" lon="34.656264781951904"><time>2026-08-17T17:11:12.000Z</time><extensions/></trkpt><trkpt lat="59.387991428375244" lon="34.656221866607666"><time>2026-08-17T17:11:15.000Z</time><extensions/></trkpt><trkpt lat="59.387991428375244" lon="34.65617895126343"><time>2026-08-17T17:11:17.000Z</time><extensions/></trkpt><trkpt lat="59.387991428375244" lon="34.656221866607666"><time>2026-08-17T17:11:20.000Z</time><extensions/></trkpt><trkpt lat="59.387991428375244" lon="34.65628623962402"><time>2026-08-17T17:11:22.000Z</time><extensions/></trkpt><trkpt lat="59.387969970703125" lon="34.65654373168945"><time>2026-08-17T17:11:42.000Z</time><extensions/></trkpt><trkpt lat="59.387969970703125" lon="34.65645790100098"><time>2026-08-17T17:11:55.000Z</time><extensions/></trkpt><trkpt lat="59.387969970703125" lon="34.6563720703125"><time>2026-08-17T17:11:57.000Z</time><extensions/></trkpt><trkpt lat="59.387991428375244" lon="34.656264781951904"><time>2026-08-17T17:12:00.000Z</time><extensions/></trkpt><trkpt lat="59.387991428375244" lon="34.65617895126343"><time>2026-08-17T17:12:30.000Z</time><extensions/></trkpt><trkpt lat="59.387991428375244" lon="34.656221866607666"><time>2026-08-17T17:12:57.000Z</time><extensions/></trkpt><trkpt lat="59.38790559768677" lon="34.656264781951904"><time>2026-08-17T17:13:20.000Z</time><extensions/></trkpt><trkpt lat="59.38786268234253" lon="34.656264781951904"><time>2026-08-17T17:13:22.000Z</time><extensions/></trkpt><trkpt lat="59.38779830932617" lon="34.656264781951904"><time>2026-08-17T17:13:25.000Z</time><extensions/></trkpt><trkpt lat="59.38777685165405" lon="34.656243324279785"><time>2026-08-17T17:13:27.000Z</time><extensions/></trkpt><trkpt lat="59.387733936309814" lon="34.656221866607666"><time>2026-08-17T17:13:30.000Z</time><extensions/></trkpt><trkpt lat="59.387733936309814" lon="34.656264781951904"><time>2026-08-17T17:13:32.000Z</time><extensions/></trkpt><trkpt lat="59.387712478637695" lon="34.656243324279785"><time>2026-08-17T17:13:35.000Z</time><extensions/></trkpt><trkpt lat="59.387691020965576" lon="34.656264781951904"><time>2026-08-17T17:13:37.000Z</time><extensions/></trkpt><trkpt lat="59.38762664794922" lon="34.65617895126343"><time>2026-08-17T17:13:47.000Z</time><extensions/></trkpt><trkpt lat="59.38762664794922" lon="34.65613603591919"><time>2026-08-17T17:13:50.000Z</time><extensions/></trkpt><trkpt lat="59.38764810562134" lon="34.655985832214355"><time>2026-08-17T17:13:55.000Z</time><extensions/></trkpt><trkpt lat="59.38764810562134" lon="34.655921459198"><time>2026-08-17T17:13:57.000Z</time><extensions/></trkpt><trkpt lat="59.38764810562134" lon="34.65587854385376"><time>2026-08-17T17:14:00.000Z</time><extensions/></trkpt><trkpt lat="59.38764810562134" lon="34.65594291687012"><time>2026-08-17T17:14:02.000Z</time><extensions/></trkpt><trkpt lat="59.38762664794922" lon="34.65609312057495"><time>2026-08-17T17:14:05.000Z</time><extensions/></trkpt><trkpt lat="59.3876051902771" lon="34.65615749359131"><time>2026-08-17T17:14:07.000Z</time><extensions/></trkpt><trkpt lat="59.38756227493286" lon="34.65613603591919"><time>2026-08-17T17:14:10.000Z</time><extensions/></trkpt><trkpt lat="59.38756227493286" lon="34.65611457824707"><time>2026-08-17T17:14:40.000Z</time><extensions/></trkpt><trkpt lat="59.38756227493286" lon="34.65611457824707"><time>2026-08-17T17:14:45.000Z</time><extensions/></trkpt><trkpt lat="59.38756227493286" lon="34.65613603591919"><time>2026-08-17T17:14:50.000Z</time><extensions/></trkpt><trkpt lat="59.38756227493286" lon="34.65617895126343"><time>2026-08-17T17:14:57.000Z</time><extensions/></trkpt><trkpt lat="59.38754081726074" lon="34.656243324279785"><time>2026-08-17T17:15:00.000Z</time><extensions/></trkpt><trkpt lat="59.387497901916504" lon="34.65628623962402"><time>2026-08-17T17:15:05.000Z</time><extensions/></trkpt><trkpt lat="59.387454986572266" lon="34.656264781951904"><time>2026-08-17T17:15:07.000Z</time><extensions/></trkpt><trkpt lat="59.38739061355591" lon="34.65635061264038"><time>2026-08-17T17:15:15.000Z</time><extensions/></trkpt><trkpt lat="59.38739061355591" lon="34.65641498565674"><time>2026-08-17T17:15:17.000Z</time><extensions/></trkpt><trkpt lat="59.38739061355591" lon="34.65641498565674"><time>2026-08-17T17:15:20.000Z</time><extensions/></trkpt><trkpt lat="59.38734769821167" lon="34.65632915496826"><time>2026-08-17T17:15:32.000Z</time><extensions/></trkpt><trkpt lat="59.38730478286743" lon="34.65628623962402"><time>2026-08-17T17:15:35.000Z</time><extensions/></trkpt><trkpt lat="59.38726186752319" lon="34.656264781951904"><time>2026-08-17T17:15:37.000Z</time><extensions/></trkpt><trkpt lat="59.387197494506836" lon="34.656264781951904"><time>2026-08-17T17:15:47.000Z</time><extensions/></trkpt><trkpt lat="59.38717603683472" lon="34.65632915496826"><time>2026-08-17T17:15:50.000Z</time><extensions/></trkpt><trkpt lat="59.3871545791626" lon="34.65630769729614"><time>2026-08-17T17:16:02.000Z</time><extensions/></trkpt><trkpt lat="59.38713312149048" lon="34.65615749359131"><time>2026-08-17T17:16:10.000Z</time><extensions/></trkpt><trkpt lat="59.38709020614624" lon="34.65617895126343"><time>2026-08-17T17:16:12.000Z</time><extensions/></trkpt><trkpt lat="59.38706874847412" lon="34.656221866607666"><time>2026-08-17T17:16:15.000Z</time><extensions/></trkpt><trkpt lat="59.38706874847412" lon="34.65620040893555"><time>2026-08-17T17:16:17.000Z</time><extensions/></trkpt><trkpt lat="59.38706874847412" lon="34.6563720703125"><time>2026-08-17T17:16:27.000Z</time><extensions/></trkpt><trkpt lat="59.387004375457764" lon="34.6563720703125"><time>2026-08-17T17:16:32.000Z</time><extensions/></trkpt><trkpt lat="59.386982917785645" lon="34.65641498565674"><time>2026-08-17T17:16:35.000Z</time><extensions/></trkpt><trkpt lat="59.386940002441406" lon="34.65643644332886"><time>2026-08-17T17:16:37.000Z</time><extensions/></trkpt><trkpt lat="59.38691854476929" lon="34.65643644332886"><time>2026-08-17T17:16:40.000Z</time><extensions/></trkpt><trkpt lat="59.38687562942505" lon="34.65643644332886"><time>2026-08-17T17:16:42.000Z</time><extensions/></trkpt><trkpt lat="59.38685417175293" lon="34.65645790100098"><time>2026-08-17T17:16:45.000Z</time><extensions/></trkpt><trkpt lat="59.38681125640869" lon="34.656479358673096"><time>2026-08-17T17:16:47.000Z</time><extensions/></trkpt><trkpt lat="59.38678979873657" lon="34.65662956237793"><time>2026-08-17T17:17:02.000Z</time><extensions/></trkpt><trkpt lat="59.38676834106445" lon="34.65669393539429"><time>2026-08-17T17:17:05.000Z</time><extensions/></trkpt><trkpt lat="59.386746883392334" lon="34.656715393066406"><time>2026-08-17T17:17:07.000Z</time><extensions/></trkpt><trkpt lat="59.386703968048096" lon="34.656779766082764"><time>2026-08-17T17:17:15.000Z</time><extensions/></trkpt><trkpt lat="59.38666105270386" lon="34.656822681427"><time>2026-08-17T17:17:17.000Z</time><extensions/></trkpt><trkpt lat="59.38663959503174" lon="34.656758308410645"><time>2026-08-17T17:17:20.000Z</time><extensions/></trkpt><trkpt lat="59.38661813735962" lon="34.65662956237793"><time>2026-08-17T17:17:25.000Z</time><extensions/></trkpt><trkpt lat="59.38661813735962" lon="34.65658664703369"><time>2026-08-17T17:17:27.000Z</time><extensions/></trkpt><trkpt lat="59.3865966796875" lon="34.65656518936157"><time>2026-08-17T17:17:30.000Z</time><extensions/></trkpt><trkpt lat="59.3865966796875" lon="34.656522274017334"><time>2026-08-17T17:17:32.000Z</time><extensions/></trkpt><trkpt lat="59.38661813735962" lon="34.65656518936157"><time>2026-08-17T17:17:52.000Z</time><extensions/></trkpt><trkpt lat="59.38657522201538" lon="34.65654373168945"><time>2026-08-17T17:17:55.000Z</time><extensions/></trkpt><trkpt lat="59.38655376434326" lon="34.656479358673096"><time>2026-08-17T17:17:57.000Z</time><extensions/></trkpt><trkpt lat="59.38651084899902" lon="34.656479358673096"><time>2026-08-17T17:18:00.000Z</time><extensions/></trkpt><trkpt lat="59.386489391326904" lon="34.656522274017334"><time>2026-08-17T17:18:02.000Z</time><extensions/></trkpt><trkpt lat="59.386467933654785" lon="34.65656518936157"><time>2026-08-17T17:18:05.000Z</time><extensions/></trkpt><trkpt lat="59.386489391326904" lon="34.65645790100098"><time>2026-08-17T17:18:25.000Z</time><extensions/></trkpt><trkpt lat="59.38651084899902" lon="34.65641498565674"><time>2026-08-17T17:18:27.000Z</time><extensions/></trkpt><trkpt lat="59.386467933654785" lon="34.65639352798462"><time>2026-08-17T17:18:30.000Z</time><extensions/></trkpt><trkpt lat="59.38642501831055" lon="34.6563720703125"><time>2026-08-17T17:18:32.000Z</time><extensions/></trkpt><trkpt lat="59.38640356063843" lon="34.65630769729614"><time>2026-08-17T17:18:35.000Z</time><extensions/></trkpt><trkpt lat="59.38640356063843" lon="34.656264781951904"><time>2026-08-17T17:18:37.000Z</time><extensions/></trkpt><trkpt lat="59.38642501831055" lon="34.65620040893555"><time>2026-08-17T17:18:40.000Z</time><extensions/></trkpt><trkpt lat="59.38642501831055" lon="34.65611457824707"><time>2026-08-17T17:18:42.000Z</time><extensions/></trkpt><trkpt lat="59.38640356063843" lon="34.65605020523071"><time>2026-08-17T17:18:45.000Z</time><extensions/></trkpt><trkpt lat="59.38638210296631" lon="34.655985832214355"><time>2026-08-17T17:18:47.000Z</time><extensions/></trkpt><trkpt lat="59.38640356063843" lon="34.65607166290283"><time>2026-08-17T17:18:50.000Z</time><extensions/></trkpt><trkpt lat="59.38640356063843" lon="34.65615749359131"><time>2026-08-17T17:18:52.000Z</time><extensions/></trkpt><trkpt lat="59.38636064529419" lon="34.65617895126343"><time>2026-08-17T17:18:55.000Z</time><extensions/></trkpt><trkpt lat="59.38636064529419" lon="34.656243324279785"><time>2026-08-17T17:18:57.000Z</time><extensions/></trkpt><trkpt lat="59.38636064529419" lon="34.65632915496826"><time>2026-08-17T17:19:00.000Z</time><extensions/></trkpt><trkpt lat="59.38633918762207" lon="34.65628623962402"><time>2026-08-17T17:19:05.000Z</time><extensions/></trkpt><trkpt lat="59.38631772994995" lon="34.656264781951904"><time>2026-08-17T17:19:07.000Z</time><extensions/></trkpt><trkpt lat="59.38627481460571" lon="34.65628623962402"><time>2026-08-17T17:19:10.000Z</time><extensions/></trkpt><trkpt lat="59.386253356933594" lon="34.656264781951904"><time>2026-08-17T17:19:12.000Z</time><extensions/></trkpt><trkpt lat="59.38627481460571" lon="34.65632915496826"><time>2026-08-17T17:19:17.000Z</time><extensions/></trkpt><trkpt lat="59.386253356933594" lon="34.656243324279785"><time>2026-08-17T17:19:40.000Z</time><extensions/></trkpt><trkpt lat="59.386210441589355" lon="34.656221866607666"><time>2026-08-17T17:19:42.000Z</time><extensions/></trkpt><trkpt lat="59.386188983917236" lon="34.656243324279785"><time>2026-08-17T17:19:45.000Z</time><extensions/></trkpt><trkpt lat="59.38616752624512" lon="34.656264781951904"><time>2026-08-17T17:19:47.000Z</time><extensions/></trkpt><trkpt lat="59.38616752624512" lon="34.656243324279785"><time>2026-08-17T17:19:50.000Z</time><extensions/></trkpt><trkpt lat="59.38616752624512" lon="34.65620040893555"><time>2026-08-17T17:19:52.000Z</time><extensions/></trkpt><trkpt lat="59.386146068573" lon="34.656243324279785"><time>2026-08-17T17:19:57.000Z</time><extensions/></trkpt><trkpt lat="59.38612461090088" lon="34.65632915496826"><time>2026-08-17T17:20:00.000Z</time><extensions/></trkpt><trkpt lat="59.38610315322876" lon="34.65639352798462"><time>2026-08-17T17:20:02.000Z</time><extensions/></trkpt><trkpt lat="59.38608169555664" lon="34.65641498565674"><time>2026-08-17T17:20:05.000Z</time><extensions/></trkpt><trkpt lat="59.38608169555664" lon="34.65645790100098"><time>2026-08-17T17:20:10.000Z</time><extensions/></trkpt><trkpt lat="59.38608169555664" lon="34.656522274017334"><time>2026-08-17T17:20:12.000Z</time><extensions/></trkpt><trkpt lat="59.38608169555664" lon="34.65660810470581"><time>2026-08-17T17:20:15.000Z</time><extensions/></trkpt><trkpt lat="59.38606023788452" lon="34.65667247772217"><time>2026-08-17T17:20:17.000Z</time><extensions/></trkpt><trkpt lat="59.3860387802124" lon="34.656715393066406"><time>2026-08-17T17:20:20.000Z</time><extensions/></trkpt><trkpt lat="59.38601732254028" lon="34.656758308410645"><time>2026-08-17T17:20:22.000Z</time><extensions/></trkpt><trkpt lat="59.38606023788452" lon="34.656779766082764"><time>2026-08-17T17:20:52.000Z</time><extensions/></trkpt><trkpt lat="59.38608169555664" lon="34.656779766082764"><time>2026-08-17T17:20:55.000Z</time><extensions/></trkpt><trkpt lat="59.38608169555664" lon="34.65667247772217"><time>2026-08-17T17:20:57.000Z</time><extensions/></trkpt><trkpt lat="59.3860387802124" lon="34.65667247772217"><time>2026-08-17T17:21:00.000Z</time><extensions/></trkpt><trkpt lat="59.38601732254028" lon="34.656715393066406"><time>2026-08-17T17:21:02.000Z</time><extensions/></trkpt><trkpt lat="59.385974407196045" lon="34.656715393066406"><time>2026-08-17T17:21:12.000Z</time><extensions/></trkpt><trkpt lat="59.38593149185181" lon="34.656758308410645"><time>2026-08-17T17:21:15.000Z</time><extensions/></trkpt><trkpt lat="59.38593149185181" lon="34.656779766082764"><time>2026-08-17T17:21:17.000Z</time><extensions/></trkpt><trkpt lat="59.38588857650757" lon="34.65688705444336"><time>2026-08-17T17:21:22.000Z</time><extensions/></trkpt><trkpt lat="59.38586711883545" lon="34.6569299697876"><time>2026-08-17T17:21:25.000Z</time><extensions/></trkpt><trkpt lat="59.38584566116333" lon="34.6569299697876"><time>2026-08-17T17:21:27.000Z</time><extensions/></trkpt><trkpt lat="59.38580274581909" lon="34.65690851211548"><time>2026-08-17T17:21:30.000Z</time><extensions/></trkpt><trkpt lat="59.38580274581909" lon="34.65686559677124"><time>2026-08-17T17:21:32.000Z</time><extensions/></trkpt><trkpt lat="59.38578128814697" lon="34.65680122375488"><time>2026-08-17T17:21:35.000Z</time><extensions/></trkpt><trkpt lat="59.38578128814697" lon="34.656779766082764"><time>2026-08-17T17:21:37.000Z</time><extensions/></trkpt><trkpt lat="59.38582420349121" lon="34.65667247772217"><time>2026-08-17T17:21:45.000Z</time><extensions/></trkpt><trkpt lat="59.38580274581909" lon="34.65667247772217"><time>2026-08-17T17:21:55.000Z</time><extensions/></trkpt><trkpt lat="59.385738372802734" lon="34.656736850738525"><time>2026-08-17T17:21:57.000Z</time><extensions/></trkpt><trkpt lat="59.38567399978638" lon="34.656779766082764"><time>2026-08-17T17:22:05.000Z</time><extensions/></trkpt><trkpt lat="59.38565254211426" lon="34.656822681427"><time>2026-08-17T17:22:07.000Z</time><extensions/></trkpt><trkpt lat="59.38563108444214" lon="34.65680122375488"><time>2026-08-17T17:22:10.000Z</time><extensions/></trkpt><trkpt lat="59.38563108444214" lon="34.656758308410645"><time>2026-08-17T17:22:12.000Z</time><extensions/></trkpt><trkpt lat="59.38565254211426" lon="34.656715393066406"><time>2026-08-17T17:22:32.000Z</time><extensions/></trkpt><trkpt lat="59.38563108444214" lon="34.656758308410645"><time>2026-08-17T17:22:55.000Z</time><extensions/></trkpt><trkpt lat="59.38563108444214" lon="34.656779766082764"><time>2026-08-17T17:22:57.000Z</time><extensions/></trkpt><trkpt lat="59.3855881690979" lon="34.656736850738525"><time>2026-08-17T17:23:10.000Z</time><extensions/></trkpt><trkpt lat="59.38556671142578" lon="34.65667247772217"><time>2026-08-17T17:23:40.000Z</time><extensions/></trkpt><trkpt lat="59.3855881690979" lon="34.65667247772217"><time>2026-08-17T17:24:10.000Z</time><extensions/></trkpt><trkpt lat="59.38560962677002" lon="34.65669393539429"><time>2026-08-17T17:24:27.000Z</time><extensions/></trkpt><trkpt lat="59.38567399978638" lon="34.65662956237793"><time>2026-08-17T17:24:37.000Z</time><extensions/></trkpt><trkpt lat="59.385716915130615" lon="34.65654373168945"><time>2026-08-17T17:24:45.000Z</time><extensions/></trkpt><trkpt lat="59.385738372802734" lon="34.656500816345215"><time>2026-08-17T17:24:47.000Z</time><extensions/></trkpt><trkpt lat="59.38575983047485" lon="34.65643644332886"><time>2026-08-17T17:24:55.000Z</time><extensions/></trkpt><trkpt lat="59.385738372802734" lon="34.65639352798462"><time>2026-08-17T17:24:57.000Z</time><extensions/></trkpt><trkpt lat="59.385716915130615" lon="34.65630769729614"><time>2026-08-17T17:25:00.000Z</time><extensions/></trkpt><trkpt lat="59.385716915130615" lon="34.656264781951904"><time>2026-08-17T17:25:02.000Z</time><extensions/></trkpt><trkpt lat="59.385738372802734" lon="34.656264781951904"><time>2026-08-17T17:25:05.000Z</time><extensions/></trkpt><trkpt lat="59.385716915130615" lon="34.656221866607666"><time>2026-08-17T17:25:15.000Z</time><extensions/></trkpt><trkpt lat="59.385716915130615" lon="34.65615749359131"><time>2026-08-17T17:25:17.000Z</time><extensions/></trkpt><trkpt lat="59.38575983047485" lon="34.65613603591919"><time>2026-08-17T17:25:22.000Z</time><extensions/></trkpt><trkpt lat="59.38578128814697" lon="34.65609312057495"><time>2026-08-17T17:25:25.000Z</time><extensions/></trkpt><trkpt lat="59.38578128814697" lon="34.65605020523071"><time>2026-08-17T17:25:27.000Z</time><extensions/></trkpt><trkpt lat="59.38578128814697" lon="34.65609312057495"><time>2026-08-17T17:25:30.000Z</time><extensions/></trkpt><trkpt lat="59.38575983047485" lon="34.65611457824707"><time>2026-08-17T17:25:32.000Z</time><extensions/></trkpt><trkpt lat="59.38575983047485" lon="34.65609312057495"><time>2026-08-17T17:25:57.000Z</time><extensions/></trkpt><trkpt lat="59.38578128814697" lon="34.65609312057495"><time>2026-08-17T17:26:00.000Z</time><extensions/></trkpt><trkpt lat="59.38584566116333" lon="34.65609312057495"><time>2026-08-17T17:26:15.000Z</time><extensions/></trkpt><trkpt lat="59.38584566116333" lon="34.656028747558594"><time>2026-08-17T17:26:45.000Z</time><extensions/></trkpt><trkpt lat="59.38582420349121" lon="34.656007289886475"><time>2026-08-17T17:26:47.000Z</time><extensions/></trkpt><trkpt lat="59.38580274581909" lon="34.65568542480469"><time>2026-08-17T17:27:00.000Z</time><extensions/></trkpt><trkpt lat="59.38580274581909" lon="34.65559959411621"><time>2026-08-17T17:27:05.000Z</time><extensions/></trkpt><trkpt lat="59.38580274581909" lon="34.65553522109985"><time>2026-08-17T17:27:07.000Z</time><extensions/></trkpt><trkpt lat="59.38582420349121" lon="34.65538501739502"><time>2026-08-17T17:27:20.000Z</time><extensions/></trkpt><trkpt lat="59.38582420349121" lon="34.65532064437866"><time>2026-08-17T17:27:22.000Z</time><extensions/></trkpt><trkpt lat="59.38582420349121" lon="34.65538501739502"><time>2026-08-17T17:27:32.000Z</time><extensions/></trkpt><trkpt lat="59.38580274581909" lon="34.65540647506714"><time>2026-08-17T17:27:35.000Z</time><extensions/></trkpt><trkpt lat="59.38575983047485" lon="34.65542793273926"><time>2026-08-17T17:27:37.000Z</time><extensions/></trkpt><trkpt lat="59.385738372802734" lon="34.6553635597229"><time>2026-08-17T17:27:40.000Z</time><extensions/></trkpt><trkpt lat="59.385738372802734" lon="34.65532064437866"><time>2026-08-17T17:27:42.000Z</time><extensions/></trkpt><trkpt lat="59.385716915130615" lon="34.655256271362305"><time>2026-08-17T17:27:45.000Z</time><extensions/></trkpt><trkpt lat="59.385716915130615" lon="34.655234813690186"><time>2026-08-17T17:27:47.000Z</time><extensions/></trkpt><trkpt lat="59.385716915130615" lon="34.6553635597229"><time>2026-08-17T17:27:55.000Z</time><extensions/></trkpt><trkpt lat="59.385738372802734" lon="34.65529918670654"><time>2026-08-17T17:28:00.000Z</time><extensions/></trkpt><trkpt lat="59.38575983047485" lon="34.655213356018066"><time>2026-08-17T17:28:12.000Z</time><extensions/></trkpt><trkpt lat="59.385738372802734" lon="34.65512752532959"><time>2026-08-17T17:28:22.000Z</time><extensions/></trkpt><trkpt lat="59.385738372802734" lon="34.655213356018066"><time>2026-08-17T17:29:05.000Z</time><extensions/></trkpt><trkpt lat="59.385738372802734" lon="34.655213356018066"><time>2026-08-17T17:29:22.000Z</time><extensions/></trkpt><trkpt lat="59.38575983047485" lon="34.655213356018066"><time>2026-08-17T17:29:52.000Z</time><extensions/></trkpt><trkpt lat="59.385738372802734" lon="34.655256271362305"><time>2026-08-17T17:30:05.000Z</time><extensions/></trkpt><trkpt lat="59.385738372802734" lon="34.65542793273926"><time>2026-08-17T17:30:17.000Z</time><extensions/></trkpt><trkpt lat="59.38575983047485" lon="34.65553522109985"><time>2026-08-17T17:30:22.000Z</time><extensions/></trkpt><trkpt lat="59.38582420349121" lon="34.65570688247681"><time>2026-08-17T17:30:52.000Z</time><extensions/></trkpt><trkpt lat="59.385952949523926" lon="34.65570688247681"><time>2026-08-17T17:31:22.000Z</time><extensions/></trkpt><trkpt lat="59.385995864868164" lon="34.65568542480469"><time>2026-08-17T17:31:37.000Z</time><extensions/></trkpt><trkpt lat="59.3860387802124" lon="34.65570688247681"><time>2026-08-17T17:31:40.000Z</time><extensions/></trkpt><trkpt lat="59.38606023788452" lon="34.65570688247681"><time>2026-08-17T17:31:42.000Z</time><extensions/></trkpt><trkpt lat="59.38610315322876" lon="34.65568542480469"><time>2026-08-17T17:31:45.000Z</time><extensions/></trkpt><trkpt lat="59.386146068573" lon="34.65564250946045"><time>2026-08-17T17:31:47.000Z</time><extensions/></trkpt><trkpt lat="59.386210441589355" lon="34.65564250946045"><time>2026-08-17T17:31:50.000Z</time><extensions/></trkpt><trkpt lat="59.386231899261475" lon="34.65559959411621"><time>2026-08-17T17:31:52.000Z</time><extensions/></trkpt><trkpt lat="59.38627481460571" lon="34.65559959411621"><time>2026-08-17T17:32:05.000Z</time><extensions/></trkpt><trkpt lat="59.386253356933594" lon="34.65564250946045"><time>2026-08-17T17:32:07.000Z</time><extensions/></trkpt><trkpt lat="59.386253356933594" lon="34.65562105178833"><time>2026-08-17T17:32:37.000Z</time><extensions/></trkpt><trkpt lat="59.386253356933594" lon="34.65557813644409"><time>2026-08-17T17:32:40.000Z</time><extensions/></trkpt><trkpt lat="59.386231899261475" lon="34.65532064437866"><time>2026-08-17T17:32:45.000Z</time><extensions/></trkpt><trkpt lat="59.386231899261475" lon="34.655234813690186"><time>2026-08-17T17:32:47.000Z</time><extensions/></trkpt><trkpt lat="59.386231899261475" lon="34.65512752532959"><time>2026-08-17T17:32:50.000Z</time><extensions/></trkpt><trkpt lat="59.386210441589355" lon="34.65508460998535"><time>2026-08-17T17:32:52.000Z</time><extensions/></trkpt><trkpt lat="59.386210441589355" lon="34.655020236968994"><time>2026-08-17T17:32:55.000Z</time><extensions/></trkpt><trkpt lat="59.386210441589355" lon="34.65495586395264"><time>2026-08-17T17:32:57.000Z</time><extensions/></trkpt><trkpt lat="59.386210441589355" lon="34.65489149093628"><time>2026-08-17T17:33:00.000Z</time><extensions/></trkpt><trkpt lat="59.386231899261475" lon="34.6549129486084"><time>2026-08-17T17:33:02.000Z</time><extensions/></trkpt><trkpt lat="59.386253356933594" lon="34.65489149093628"><time>2026-08-17T17:33:05.000Z</time><extensions/></trkpt><trkpt lat="59.38629627227783" lon="34.65484857559204"><time>2026-08-17T17:33:07.000Z</time><extensions/></trkpt><trkpt lat="59.38631772994995" lon="34.65489149093628"><time>2026-08-17T17:33:10.000Z</time><extensions/></trkpt><trkpt lat="59.38636064529419" lon="34.654998779296875"><time>2026-08-17T17:33:12.000Z</time><extensions/></trkpt><trkpt lat="59.38640356063843" lon="34.654998779296875"><time>2026-08-17T17:33:15.000Z</time><extensions/></trkpt><trkpt lat="59.386446475982666" lon="34.65504169464111"><time>2026-08-17T17:33:17.000Z</time><extensions/></trkpt><trkpt lat="59.38642501831055" lon="34.655020236968994"><time>2026-08-17T17:33:25.000Z</time><extensions/></trkpt><trkpt lat="59.38642501831055" lon="34.65495586395264"><time>2026-08-17T17:33:27.000Z</time><extensions/></trkpt><trkpt lat="59.38642501831055" lon="34.65489149093628"><time>2026-08-17T17:33:30.000Z</time><extensions/></trkpt><trkpt lat="59.38642501831055" lon="34.65482711791992"><time>2026-08-17T17:33:32.000Z</time><extensions/></trkpt><trkpt lat="59.386446475982666" lon="34.654784202575684"><time>2026-08-17T17:33:35.000Z</time><extensions/></trkpt><trkpt lat="59.386446475982666" lon="34.654741287231445"><time>2026-08-17T17:33:37.000Z</time><extensions/></trkpt><trkpt lat="59.386467933654785" lon="34.65469837188721"><time>2026-08-17T17:33:40.000Z</time><extensions/></trkpt><trkpt lat="59.386467933654785" lon="34.65461254119873"><time>2026-08-17T17:33:42.000Z</time><extensions/></trkpt><trkpt lat="59.38640356063843" lon="34.65456962585449"><time>2026-08-17T17:33:50.000Z</time><extensions/></trkpt><trkpt lat="59.38638210296631" lon="34.65454816818237"><time>2026-08-17T17:33:52.000Z</time><extensions/></trkpt><trkpt lat="59.38633918762207" lon="34.65456962585449"><time>2026-08-17T17:33:55.000Z</time><extensions/></trkpt><trkpt lat="59.38631772994995" lon="34.65463399887085"><time>2026-08-17T17:33:57.000Z</time><extensions/></trkpt><trkpt lat="59.38629627227783" lon="34.654719829559326"><time>2026-08-17T17:34:00.000Z</time><extensions/></trkpt><trkpt lat="59.38629627227783" lon="34.65484857559204"><time>2026-08-17T17:34:02.000Z</time><extensions/></trkpt><trkpt lat="59.38636064529419" lon="34.65495586395264"><time>2026-08-17T17:34:05.000Z</time><extensions/></trkpt><trkpt lat="59.38642501831055" lon="34.655020236968994"><time>2026-08-17T17:34:07.000Z</time><extensions/></trkpt><trkpt lat="59.386467933654785" lon="34.65508460998535"><time>2026-08-17T17:34:10.000Z</time><extensions/></trkpt><trkpt lat="59.386489391326904" lon="34.65512752532959"><time>2026-08-17T17:34:12.000Z</time><extensions/></trkpt><trkpt lat="59.38651084899902" lon="34.65519189834595"><time>2026-08-17T17:34:15.000Z</time><extensions/></trkpt><trkpt lat="59.386489391326904" lon="34.655256271362305"><time>2026-08-17T17:34:17.000Z</time><extensions/></trkpt><trkpt lat="59.386467933654785" lon="34.6553635597229"><time>2026-08-17T17:34:20.000Z</time><extensions/></trkpt><trkpt lat="59.386467933654785" lon="34.65544939041138"><time>2026-08-17T17:34:22.000Z</time><extensions/></trkpt><trkpt lat="59.386446475982666" lon="34.65553522109985"><time>2026-08-17T17:34:25.000Z</time><extensions/></trkpt><trkpt lat="59.386467933654785" lon="34.65570688247681"><time>2026-08-17T17:34:35.000Z</time><extensions/></trkpt><trkpt lat="59.38653230667114" lon="34.655749797821045"><time>2026-08-17T17:34:37.000Z</time><extensions/></trkpt><trkpt lat="59.38653230667114" lon="34.65579271316528"><time>2026-08-17T17:34:40.000Z</time><extensions/></trkpt><trkpt lat="59.38655376434326" lon="34.655749797821045"><time>2026-08-17T17:34:42.000Z</time><extensions/></trkpt><trkpt lat="59.38657522201538" lon="34.65559959411621"><time>2026-08-17T17:34:45.000Z</time><extensions/></trkpt><trkpt lat="59.38657522201538" lon="34.65542793273926"><time>2026-08-17T17:34:47.000Z</time><extensions/></trkpt><trkpt lat="59.38655376434326" lon="34.655277729034424"><time>2026-08-17T17:34:50.000Z</time><extensions/></trkpt><trkpt lat="59.3865966796875" lon="34.65517044067383"><time>2026-08-17T17:34:52.000Z</time><extensions/></trkpt><trkpt lat="59.38661813735962" lon="34.65510606765747"><time>2026-08-17T17:34:55.000Z</time><extensions/></trkpt><trkpt lat="59.38661813735962" lon="34.65495586395264"><time>2026-08-17T17:34:57.000Z</time><extensions/></trkpt><trkpt lat="59.3865966796875" lon="34.654784202575684"><time>2026-08-17T17:35:00.000Z</time><extensions/></trkpt><trkpt lat="59.3865966796875" lon="34.65465545654297"><time>2026-08-17T17:35:02.000Z</time><extensions/></trkpt><trkpt lat="59.3865966796875" lon="34.654741287231445"><time>2026-08-17T17:35:07.000Z</time><extensions/></trkpt><trkpt lat="59.3865966796875" lon="34.65459108352661"><time>2026-08-17T17:35:12.000Z</time><extensions/></trkpt><trkpt lat="59.38661813735962" lon="34.65456962585449"><time>2026-08-17T17:35:15.000Z</time><extensions/></trkpt><trkpt lat="59.38663959503174" lon="34.65461254119873"><time>2026-08-17T17:35:37.000Z</time><extensions/></trkpt><trkpt lat="59.38666105270386" lon="34.65463399887085"><time>2026-08-17T17:35:47.000Z</time><extensions/></trkpt><trkpt lat="59.38668251037598" lon="34.654719829559326"><time>2026-08-17T17:35:52.000Z</time><extensions/></trkpt><trkpt lat="59.386703968048096" lon="34.6548056602478"><time>2026-08-17T17:35:55.000Z</time><extensions/></trkpt><trkpt lat="59.386746883392334" lon="34.65484857559204"><time>2026-08-17T17:35:57.000Z</time><extensions/></trkpt><trkpt lat="59.38676834106445" lon="34.65482711791992"><time>2026-08-17T17:36:00.000Z</time><extensions/></trkpt><trkpt lat="59.38681125640869" lon="34.65482711791992"><time>2026-08-17T17:36:02.000Z</time><extensions/></trkpt><trkpt lat="59.38683271408081" lon="34.65487003326416"><time>2026-08-17T17:36:05.000Z</time><extensions/></trkpt><trkpt lat="59.38687562942505" lon="34.65487003326416"><time>2026-08-17T17:36:07.000Z</time><extensions/></trkpt><trkpt lat="59.38689708709717" lon="34.65493440628052"><time>2026-08-17T17:36:10.000Z</time><extensions/></trkpt><trkpt lat="59.386940002441406" lon="34.65489149093628"><time>2026-08-17T17:36:15.000Z</time><extensions/></trkpt><trkpt lat="59.38691854476929" lon="34.65495586395264"><time>2026-08-17T17:36:30.000Z</time><extensions/></trkpt><trkpt lat="59.38691854476929" lon="34.655020236968994"><time>2026-08-17T17:36:32.000Z</time><extensions/></trkpt><trkpt lat="59.38691854476929" lon="34.65508460998535"><time>2026-08-17T17:36:35.000Z</time><extensions/></trkpt><trkpt lat="59.386940002441406" lon="34.65510606765747"><time>2026-08-17T17:36:37.000Z</time><extensions/></trkpt><trkpt lat="59.386940002441406" lon="34.65506315231323"><time>2026-08-17T17:36:40.000Z</time><extensions/></trkpt><trkpt lat="59.386961460113525" lon="34.654998779296875"><time>2026-08-17T17:36:42.000Z</time><extensions/></trkpt><trkpt lat="59.387004375457764" lon="34.655020236968994"><time>2026-08-17T17:36:45.000Z</time><extensions/></trkpt><trkpt lat="59.387047290802" lon="34.655020236968994"><time>2026-08-17T17:36:47.000Z</time><extensions/></trkpt><trkpt lat="59.38706874847412" lon="34.65504169464111"><time>2026-08-17T17:36:50.000Z</time><extensions/></trkpt><trkpt lat="59.38709020614624" lon="34.65508460998535"><time>2026-08-17T17:36:52.000Z</time><extensions/></trkpt><trkpt lat="59.38711166381836" lon="34.65510606765747"><time>2026-08-17T17:36:55.000Z</time><extensions/></trkpt><trkpt lat="59.38713312149048" lon="34.65512752532959"><time>2026-08-17T17:36:57.000Z</time><extensions/></trkpt><trkpt lat="59.38713312149048" lon="34.655213356018066"><time>2026-08-17T17:37:00.000Z</time><extensions/></trkpt><trkpt lat="59.38713312149048" lon="34.655256271362305"><time>2026-08-17T17:37:02.000Z</time><extensions/></trkpt><trkpt lat="59.3871545791626" lon="34.65529918670654"><time>2026-08-17T17:37:05.000Z</time><extensions/></trkpt><trkpt lat="59.3871545791626" lon="34.65534210205078"><time>2026-08-17T17:37:10.000Z</time><extensions/></trkpt><trkpt lat="59.38713312149048" lon="34.65532064437866"><time>2026-08-17T17:37:12.000Z</time><extensions/></trkpt><trkpt lat="59.3871545791626" lon="34.65519189834595"><time>2026-08-17T17:37:22.000Z</time><extensions/></trkpt><trkpt lat="59.38717603683472" lon="34.65508460998535"><time>2026-08-17T17:37:25.000Z</time><extensions/></trkpt><trkpt lat="59.387218952178955" lon="34.654998779296875"><time>2026-08-17T17:37:27.000Z</time><extensions/></trkpt><trkpt lat="59.387240409851074" lon="34.654977321624756"><time>2026-08-17T17:37:30.000Z</time><extensions/></trkpt><trkpt lat="59.38728332519531" lon="34.65495586395264"><time>2026-08-17T17:37:32.000Z</time><extensions/></trkpt><trkpt lat="59.38732624053955" lon="34.65493440628052"><time>2026-08-17T17:37:35.000Z</time><extensions/></trkpt><trkpt lat="59.38734769821167" lon="34.65489149093628"><time>2026-08-17T17:37:37.000Z</time><extensions/></trkpt><trkpt lat="59.38736915588379" lon="34.6549129486084"><time>2026-08-17T17:37:40.000Z</time><extensions/></trkpt><trkpt lat="59.38739061355591" lon="34.65493440628052"><time>2026-08-17T17:37:42.000Z</time><extensions/></trkpt><trkpt lat="59.387476444244385" lon="34.65484857559204"><time>2026-08-17T17:37:50.000Z</time><extensions/></trkpt><trkpt lat="59.387497901916504" lon="34.654784202575684"><time>2026-08-17T17:37:52.000Z</time><extensions/></trkpt><trkpt lat="59.38751935958862" lon="34.65469837188721"><time>2026-08-17T17:37:55.000Z</time><extensions/></trkpt><trkpt lat="59.38756227493286" lon="34.65469837188721"><time>2026-08-17T17:38:02.000Z</time><extensions/></trkpt><trkpt lat="59.3876051902771" lon="34.654762744903564"><time>2026-08-17T17:38:05.000Z</time><extensions/></trkpt><trkpt lat="59.3876051902771" lon="34.65482711791992"><time>2026-08-17T17:38:07.000Z</time><extensions/></trkpt><trkpt lat="59.38764810562134" lon="34.65467691421509"><time>2026-08-17T17:38:17.000Z</time><extensions/></trkpt><trkpt lat="59.38764810562134" lon="34.65461254119873"><time>2026-08-17T17:38:20.000Z</time><extensions/></trkpt><trkpt lat="59.38766956329346" lon="34.654526710510254"><time>2026-08-17T17:38:22.000Z</time><extensions/></trkpt><trkpt lat="59.38762664794922" lon="34.654526710510254"><time>2026-08-17T17:38:25.000Z</time><extensions/></trkpt><trkpt lat="59.3876051902771" lon="34.654483795166016"><time>2026-08-17T17:38:27.000Z</time><extensions/></trkpt><trkpt lat="59.38764810562134" lon="34.654526710510254"><time>2026-08-17T17:38:37.000Z</time><extensions/></trkpt><trkpt lat="59.387691020965576" lon="34.654505252838135"><time>2026-08-17T17:38:40.000Z</time><extensions/></trkpt><trkpt lat="59.387691020965576" lon="34.654483795166016"><time>2026-08-17T17:38:42.000Z</time><extensions/></trkpt><trkpt lat="59.387712478637695" lon="34.654483795166016"><time>2026-08-17T17:38:45.000Z</time><extensions/></trkpt><trkpt lat="59.38779830932617" lon="34.6544623374939"><time>2026-08-17T17:38:57.000Z</time><extensions/></trkpt><trkpt lat="59.38784122467041" lon="34.65444087982178"><time>2026-08-17T17:39:27.000Z</time><extensions/></trkpt><trkpt lat="59.38792705535889" lon="34.6544623374939"><time>2026-08-17T17:39:32.000Z</time><extensions/></trkpt><trkpt lat="59.387969970703125" lon="34.65441942214966"><time>2026-08-17T17:39:35.000Z</time><extensions/></trkpt><trkpt lat="59.38801288604736" lon="34.65444087982178"><time>2026-08-17T17:39:37.000Z</time><extensions/></trkpt><trkpt lat="59.38801288604736" lon="34.654505252838135"><time>2026-08-17T17:39:55.000Z</time><extensions/></trkpt><trkpt lat="59.3880558013916" lon="34.654505252838135"><time>2026-08-17T17:39:57.000Z</time><extensions/></trkpt><trkpt lat="59.38807725906372" lon="34.65454816818237"><time>2026-08-17T17:40:00.000Z</time><extensions/></trkpt><trkpt lat="59.38812017440796" lon="34.65456962585449"><time>2026-08-17T17:40:02.000Z</time><extensions/></trkpt><trkpt lat="59.3881630897522" lon="34.65454816818237"><time>2026-08-17T17:40:05.000Z</time><extensions/></trkpt><trkpt lat="59.388184547424316" lon="34.654505252838135"><time>2026-08-17T17:40:15.000Z</time><extensions/></trkpt><trkpt lat="59.388227462768555" lon="34.654526710510254"><time>2026-08-17T17:40:17.000Z</time><extensions/></trkpt><trkpt lat="59.388248920440674" lon="34.65456962585449"><time>2026-08-17T17:40:20.000Z</time><extensions/></trkpt><trkpt lat="59.38827037811279" lon="34.65461254119873"><time>2026-08-17T17:40:22.000Z</time><extensions/></trkpt><trkpt lat="59.388248920440674" lon="34.65456962585449"><time>2026-08-17T17:40:50.000Z</time><extensions/></trkpt><trkpt lat="59.38829183578491" lon="34.65454816818237"><time>2026-08-17T17:41:00.000Z</time><extensions/></trkpt><trkpt lat="59.38835620880127" lon="34.65456962585449"><time>2026-08-17T17:41:05.000Z</time><extensions/></trkpt><trkpt lat="59.38839912414551" lon="34.65454816818237"><time>2026-08-17T17:41:07.000Z</time><extensions/></trkpt><trkpt lat="59.388442039489746" lon="34.654483795166016"><time>2026-08-17T17:41:15.000Z</time><extensions/></trkpt><trkpt lat="59.388484954833984" lon="34.654505252838135"><time>2026-08-17T17:41:27.000Z</time><extensions/></trkpt><trkpt lat="59.38854932785034" lon="34.6544623374939"><time>2026-08-17T17:41:35.000Z</time><extensions/></trkpt><trkpt lat="59.38857078552246" lon="34.65437650680542"><time>2026-08-17T17:41:37.000Z</time><extensions/></trkpt><trkpt lat="59.3886137008667" lon="34.65433359146118"><time>2026-08-17T17:41:40.000Z</time><extensions/></trkpt><trkpt lat="59.38863515853882" lon="34.654269218444824"><time>2026-08-17T17:41:42.000Z</time><extensions/></trkpt><trkpt lat="59.38867807388306" lon="34.65418338775635"><time>2026-08-17T17:41:45.000Z</time><extensions/></trkpt><trkpt lat="59.38867807388306" lon="34.65411901473999"><time>2026-08-17T17:41:47.000Z</time><extensions/></trkpt><trkpt lat="59.38867807388306" lon="34.65405464172363"><time>2026-08-17T17:41:50.000Z</time><extensions/></trkpt><trkpt lat="59.38865661621094" lon="34.653990268707275"><time>2026-08-17T17:41:52.000Z</time><extensions/></trkpt><trkpt lat="59.38867807388306" lon="34.65394735336304"><time>2026-08-17T17:41:55.000Z</time><extensions/></trkpt><trkpt lat="59.388699531555176" lon="34.65392589569092"><time>2026-08-17T17:41:57.000Z</time><extensions/></trkpt><trkpt lat="59.388720989227295" lon="34.65386152267456"><time>2026-08-17T17:42:00.000Z</time><extensions/></trkpt><trkpt lat="59.388742446899414" lon="34.6537971496582"><time>2026-08-17T17:42:02.000Z</time><extensions/></trkpt><trkpt lat="59.38876390457153" lon="34.653754234313965"><time>2026-08-17T17:42:05.000Z</time><extensions/></trkpt><trkpt lat="59.38878536224365" lon="34.653732776641846"><time>2026-08-17T17:42:07.000Z</time><extensions/></trkpt><trkpt lat="59.38882827758789" lon="34.65368986129761"><time>2026-08-17T17:42:10.000Z</time><extensions/></trkpt><trkpt lat="59.38884973526001" lon="34.65362548828125"><time>2026-08-17T17:42:15.000Z</time><extensions/></trkpt><trkpt lat="59.38887119293213" lon="34.65356111526489"><time>2026-08-17T17:42:17.000Z</time><extensions/></trkpt><trkpt lat="59.38889265060425" lon="34.653496742248535"><time>2026-08-17T17:42:20.000Z</time><extensions/></trkpt><trkpt lat="59.38884973526001" lon="34.65360403060913"><time>2026-08-17T17:42:32.000Z</time><extensions/></trkpt><trkpt lat="59.38889265060425" lon="34.653496742248535"><time>2026-08-17T17:42:40.000Z</time><extensions/></trkpt><trkpt lat="59.388935565948486" lon="34.65343236923218"><time>2026-08-17T17:42:42.000Z</time><extensions/></trkpt><trkpt lat="59.388957023620605" lon="34.65338945388794"><time>2026-08-17T17:42:45.000Z</time><extensions/></trkpt><trkpt lat="59.388978481292725" lon="34.6533465385437"><time>2026-08-17T17:42:55.000Z</time><extensions/></trkpt><trkpt lat="59.388978481292725" lon="34.65332508087158"><time>2026-08-17T17:43:07.000Z</time><extensions/></trkpt><trkpt lat="59.38902139663696" lon="34.653239250183105"><time>2026-08-17T17:43:10.000Z</time><extensions/></trkpt><trkpt lat="59.3890643119812" lon="34.65315341949463"><time>2026-08-17T17:43:12.000Z</time><extensions/></trkpt><trkpt lat="59.38910722732544" lon="34.65308904647827"><time>2026-08-17T17:43:15.000Z</time><extensions/></trkpt><trkpt lat="59.389193058013916" lon="34.652981758117676"><time>2026-08-17T17:43:25.000Z</time><extensions/></trkpt><trkpt lat="59.389214515686035" lon="34.6528959274292"><time>2026-08-17T17:43:37.000Z</time><extensions/></trkpt><trkpt lat="59.38925743103027" lon="34.6527886390686"><time>2026-08-17T17:43:45.000Z</time><extensions/></trkpt><trkpt lat="59.38927888870239" lon="34.652724266052246"><time>2026-08-17T17:43:47.000Z</time><extensions/></trkpt><trkpt lat="59.38934326171875" lon="34.65270280838013"><time>2026-08-17T17:43:50.000Z</time><extensions/></trkpt><trkpt lat="59.38938617706299" lon="34.652724266052246"><time>2026-08-17T17:43:52.000Z</time><extensions/></trkpt><trkpt lat="59.38936471939087" lon="34.65270280838013"><time>2026-08-17T17:43:55.000Z</time><extensions/></trkpt><trkpt lat="59.38930034637451" lon="34.65270280838013"><time>2026-08-17T17:43:57.000Z</time><extensions/></trkpt><trkpt lat="59.38925743103027" lon="34.652767181396484"><time>2026-08-17T17:44:00.000Z</time><extensions/></trkpt><trkpt lat="59.38925743103027" lon="34.65268135070801"><time>2026-08-17T17:44:05.000Z</time><extensions/></trkpt><trkpt lat="59.38927888870239" lon="34.65259552001953"><time>2026-08-17T17:44:07.000Z</time><extensions/></trkpt><trkpt lat="59.38927888870239" lon="34.65229511260986"><time>2026-08-17T17:44:17.000Z</time><extensions/></trkpt><trkpt lat="59.38930034637451" lon="34.652230739593506"><time>2026-08-17T17:44:22.000Z</time><extensions/></trkpt><trkpt lat="59.38930034637451" lon="34.65220928192139"><time>2026-08-17T17:44:25.000Z</time><extensions/></trkpt><trkpt lat="59.38927888870239" lon="34.65210199356079"><time>2026-08-17T17:44:30.000Z</time><extensions/></trkpt><trkpt lat="59.38927888870239" lon="34.65214490890503"><time>2026-08-17T17:44:37.000Z</time><extensions/></trkpt><trkpt lat="59.38927888870239" lon="34.65212345123291"><time>2026-08-17T17:44:45.000Z</time><extensions/></trkpt><trkpt lat="59.38925743103027" lon="34.65218782424927"><time>2026-08-17T17:45:05.000Z</time><extensions/></trkpt><trkpt lat="59.38925743103027" lon="34.652273654937744"><time>2026-08-17T17:45:17.000Z</time><extensions/></trkpt><trkpt lat="59.38925743103027" lon="34.652273654937744"><time>2026-08-17T17:45:47.000Z</time><extensions/></trkpt><trkpt lat="59.38925743103027" lon="34.6523380279541"><time>2026-08-17T17:45:55.000Z</time><extensions/></trkpt><trkpt lat="59.38932180404663" lon="34.65235948562622"><time>2026-08-17T17:45:57.000Z</time><extensions/></trkpt><trkpt lat="59.38936471939087" lon="34.65231657028198"><time>2026-08-17T17:46:00.000Z</time><extensions/></trkpt><trkpt lat="59.38938617706299" lon="34.652273654937744"><time>2026-08-17T17:46:02.000Z</time><extensions/></trkpt><trkpt lat="59.389450550079346" lon="34.65231657028198"><time>2026-08-17T17:46:05.000Z</time><extensions/></trkpt><trkpt lat="59.3895149230957" lon="34.65231657028198"><time>2026-08-17T17:46:07.000Z</time><extensions/></trkpt><trkpt lat="59.38953638076782" lon="34.65229511260986"><time>2026-08-17T17:46:20.000Z</time><extensions/></trkpt><trkpt lat="59.38957929611206" lon="34.65231657028198"><time>2026-08-17T17:46:22.000Z</time><extensions/></trkpt><trkpt lat="59.38960075378418" lon="34.65231657028198"><time>2026-08-17T17:46:35.000Z</time><extensions/></trkpt><trkpt lat="59.38953638076782" lon="34.65231657028198"><time>2026-08-17T17:46:45.000Z</time><extensions/></trkpt><trkpt lat="59.389493465423584" lon="34.65231657028198"><time>2026-08-17T17:46:47.000Z</time><extensions/></trkpt><trkpt lat="59.389472007751465" lon="34.65229511260986"><time>2026-08-17T17:47:05.000Z</time><extensions/></trkpt><trkpt lat="59.38953638076782" lon="34.65229511260986"><time>2026-08-17T17:47:07.000Z</time><extensions/></trkpt><trkpt lat="59.38957929611206" lon="34.65229511260986"><time>2026-08-17T17:47:10.000Z</time><extensions/></trkpt><trkpt lat="59.389750957489014" lon="34.65229511260986"><time>2026-08-17T17:47:30.000Z</time><extensions/></trkpt><trkpt lat="59.389708042144775" lon="34.65229511260986"><time>2026-08-17T17:47:40.000Z</time><extensions/></trkpt><trkpt lat="59.389750957489014" lon="34.65229511260986"><time>2026-08-17T17:47:42.000Z</time><extensions/></trkpt><trkpt lat="59.389729499816895" lon="34.65229511260986"><time>2026-08-17T17:47:52.000Z</time><extensions/></trkpt><trkpt lat="59.389729499816895" lon="34.65229511260986"><time>2026-08-17T17:48:05.000Z</time><extensions/></trkpt><trkpt lat="59.389750957489014" lon="34.65229511260986"><time>2026-08-17T17:48:12.000Z</time><extensions/></trkpt><trkpt lat="59.38979387283325" lon="34.652273654937744"><time>2026-08-17T17:48:15.000Z</time><extensions/></trkpt><trkpt lat="59.38983678817749" lon="34.652252197265625"><time>2026-08-17T17:48:17.000Z</time><extensions/></trkpt><trkpt lat="59.38987970352173" lon="34.652252197265625"><time>2026-08-17T17:48:20.000Z</time><extensions/></trkpt><trkpt lat="59.3900728225708" lon="34.65220928192139"><time>2026-08-17T17:48:50.000Z</time><extensions/></trkpt><trkpt lat="59.39013719558716" lon="34.65216636657715"><time>2026-08-17T17:49:05.000Z</time><extensions/></trkpt><trkpt lat="59.3901801109314" lon="34.65214490890503"><time>2026-08-17T17:49:12.000Z</time><extensions/></trkpt><trkpt lat="59.390223026275635" lon="34.65214490890503"><time>2026-08-17T17:49:15.000Z</time><extensions/></trkpt><trkpt lat="59.390244483947754" lon="34.65216636657715"><time>2026-08-17T17:49:17.000Z</time><extensions/></trkpt><trkpt lat="59.390244483947754" lon="34.65214490890503"><time>2026-08-17T17:49:25.000Z</time><extensions/></trkpt><trkpt lat="59.39028739929199" lon="34.65214490890503"><time>2026-08-17T17:49:35.000Z</time><extensions/></trkpt><trkpt lat="59.390501976013184" lon="34.65212345123291"><time>2026-08-17T17:50:00.000Z</time><extensions/></trkpt><trkpt lat="59.39065217971802" lon="34.65205907821655"><time>2026-08-17T17:50:30.000Z</time><extensions/></trkpt><trkpt lat="59.39067363739014" lon="34.652016162872314"><time>2026-08-17T17:50:42.000Z</time><extensions/></trkpt><trkpt lat="59.39067363739014" lon="34.651973247528076"><time>2026-08-17T17:50:45.000Z</time><extensions/></trkpt><trkpt lat="59.390738010406494" lon="34.65195178985596"><time>2026-08-17T17:50:50.000Z</time><extensions/></trkpt><trkpt lat="59.39078092575073" lon="34.65193033218384"><time>2026-08-17T17:50:52.000Z</time><extensions/></trkpt><trkpt lat="59.39080238342285" lon="34.651973247528076"><time>2026-08-17T17:50:55.000Z</time><extensions/></trkpt><trkpt lat="59.39082384109497" lon="34.651994705200195"><time>2026-08-17T17:50:57.000Z</time><extensions/></trkpt><trkpt lat="59.39084529876709" lon="34.651973247528076"><time>2026-08-17T17:51:00.000Z</time><extensions/></trkpt><trkpt lat="59.39086675643921" lon="34.651994705200195"><time>2026-08-17T17:51:02.000Z</time><extensions/></trkpt><trkpt lat="59.39090967178345" lon="34.652016162872314"><time>2026-08-17T17:51:15.000Z</time><extensions/></trkpt><trkpt lat="59.39090967178345" lon="34.65193033218384"><time>2026-08-17T17:51:17.000Z</time><extensions/></trkpt><trkpt lat="59.39088821411133" lon="34.65190887451172"><time>2026-08-17T17:51:20.000Z</time><extensions/></trkpt><trkpt lat="59.39090967178345" lon="34.65190887451172"><time>2026-08-17T17:51:25.000Z</time><extensions/></trkpt><trkpt lat="59.390952587127686" lon="34.651973247528076"><time>2026-08-17T17:51:45.000Z</time><extensions/></trkpt><trkpt lat="59.390952587127686" lon="34.651973247528076"><time>2026-08-17T17:51:57.000Z</time><extensions/></trkpt><trkpt lat="59.390931129455566" lon="34.651973247528076"><time>2026-08-17T17:52:27.000Z</time><extensions/></trkpt><trkpt lat="59.39090967178345" lon="34.651973247528076"><time>2026-08-17T17:52:57.000Z</time><extensions/></trkpt><trkpt lat="59.390931129455566" lon="34.65190887451172"><time>2026-08-17T17:53:00.000Z</time><extensions/></trkpt><trkpt lat="59.390931129455566" lon="34.65184450149536"><time>2026-08-17T17:53:02.000Z</time><extensions/></trkpt><trkpt lat="59.390931129455566" lon="34.651758670806885"><time>2026-08-17T17:53:05.000Z</time><extensions/></trkpt><trkpt lat="59.390931129455566" lon="34.65169429779053"><time>2026-08-17T17:53:07.000Z</time><extensions/></trkpt><trkpt lat="59.390931129455566" lon="34.65165138244629"><time>2026-08-17T17:53:12.000Z</time><extensions/></trkpt><trkpt lat="59.390995502471924" lon="34.651522636413574"><time>2026-08-17T17:53:42.000Z</time><extensions/></trkpt><trkpt lat="59.39101696014404" lon="34.651479721069336"><time>2026-08-17T17:53:45.000Z</time><extensions/></trkpt><trkpt lat="59.39103841781616" lon="34.6514368057251"><time>2026-08-17T17:53:50.000Z</time><extensions/></trkpt><trkpt lat="59.39103841781616" lon="34.65137243270874"><time>2026-08-17T17:53:52.000Z</time><extensions/></trkpt><trkpt lat="59.39101696014404" lon="34.651286602020264"><time>2026-08-17T17:54:15.000Z</time><extensions/></trkpt><trkpt lat="59.39103841781616" lon="34.65120077133179"><time>2026-08-17T17:54:17.000Z</time><extensions/></trkpt><trkpt lat="59.39105987548828" lon="34.65113639831543"><time>2026-08-17T17:54:20.000Z</time><extensions/></trkpt><trkpt lat="59.3910813331604" lon="34.65107202529907"><time>2026-08-17T17:54:22.000Z</time><extensions/></trkpt><trkpt lat="59.39110279083252" lon="34.65105056762695"><time>2026-08-17T17:54:25.000Z</time><extensions/></trkpt><trkpt lat="59.39112424850464" lon="34.651007652282715"><time>2026-08-17T17:54:27.000Z</time><extensions/></trkpt><trkpt lat="59.39114570617676" lon="34.65094327926636"><time>2026-08-17T17:54:32.000Z</time><extensions/></trkpt><trkpt lat="59.39114570617676" lon="34.65094327926636"><time>2026-08-17T17:54:45.000Z</time><extensions/></trkpt><trkpt lat="59.39114570617676" lon="34.65090036392212"><time>2026-08-17T17:54:55.000Z</time><extensions/></trkpt><trkpt lat="59.39116716384888" lon="34.65081453323364"><time>2026-08-17T17:55:00.000Z</time><extensions/></trkpt><trkpt lat="59.391188621520996" lon="34.65079307556152"><time>2026-08-17T17:55:02.000Z</time><extensions/></trkpt><trkpt lat="59.39114570617676" lon="34.65083599090576"><time>2026-08-17T17:55:07.000Z</time><extensions/></trkpt><trkpt lat="59.39110279083252" lon="34.65081453323364"><time>2026-08-17T17:55:10.000Z</time><extensions/></trkpt><trkpt lat="59.39110279083252" lon="34.650750160217285"><time>2026-08-17T17:55:12.000Z</time><extensions/></trkpt><trkpt lat="59.39110279083252" lon="34.65068578720093"><time>2026-08-17T17:55:15.000Z</time><extensions/></trkpt><trkpt lat="59.39112424850464" lon="34.65066432952881"><time>2026-08-17T17:55:17.000Z</time><extensions/></trkpt><trkpt lat="59.39116716384888" lon="34.65064287185669"><time>2026-08-17T17:55:20.000Z</time><extensions/></trkpt><trkpt lat="59.391188621520996" lon="34.65059995651245"><time>2026-08-17T17:55:22.000Z</time><extensions/></trkpt><trkpt lat="59.391188621520996" lon="34.65057849884033"><time>2026-08-17T17:55:25.000Z</time><extensions/></trkpt><trkpt lat="59.39116716384888" lon="34.650535583496094"><time>2026-08-17T17:55:27.000Z</time><extensions/></trkpt><trkpt lat="59.391188621520996" lon="34.650492668151855"><time>2026-08-17T17:55:30.000Z</time><extensions/></trkpt><trkpt lat="59.39114570617676" lon="34.650514125823975"><time>2026-08-17T17:55:35.000Z</time><extensions/></trkpt><trkpt lat="59.39112424850464" lon="34.65055704116821"><time>2026-08-17T17:55:37.000Z</time><extensions/></trkpt><trkpt lat="59.3910813331604" lon="34.65055704116821"><time>2026-08-17T17:55:40.000Z</time><extensions/></trkpt><trkpt lat="59.3910813331604" lon="34.650514125823975"><time>2026-08-17T17:55:42.000Z</time><extensions/></trkpt><trkpt lat="59.3910813331604" lon="34.65044975280762"><time>2026-08-17T17:55:45.000Z</time><extensions/></trkpt><trkpt lat="59.39105987548828" lon="34.6504282951355"><time>2026-08-17T17:55:47.000Z</time><extensions/></trkpt><trkpt lat="59.39105987548828" lon="34.65036392211914"><time>2026-08-17T17:55:50.000Z</time><extensions/></trkpt><trkpt lat="59.39103841781616" lon="34.6503210067749"><time>2026-08-17T17:55:52.000Z</time><extensions/></trkpt><trkpt lat="59.39103841781616" lon="34.650256633758545"><time>2026-08-17T17:55:55.000Z</time><extensions/></trkpt><trkpt lat="59.39101696014404" lon="34.65029954910278"><time>2026-08-17T17:56:17.000Z</time><extensions/></trkpt><trkpt lat="59.39103841781616" lon="34.65021371841431"><time>2026-08-17T17:56:20.000Z</time><extensions/></trkpt><trkpt lat="59.39103841781616" lon="34.65014934539795"><time>2026-08-17T17:56:22.000Z</time><extensions/></trkpt><trkpt lat="59.39105987548828" lon="34.65010643005371"><time>2026-08-17T17:56:25.000Z</time><extensions/></trkpt><trkpt lat="59.39105987548828" lon="34.65004205703735"><time>2026-08-17T17:56:27.000Z</time><extensions/></trkpt><trkpt lat="59.390995502471924" lon="34.649977684020996"><time>2026-08-17T17:56:45.000Z</time><extensions/></trkpt><trkpt lat="59.390974044799805" lon="34.64995622634888"><time>2026-08-17T17:56:47.000Z</time><extensions/></trkpt><trkpt lat="59.390952587127686" lon="34.64969873428345"><time>2026-08-17T17:57:17.000Z</time><extensions/></trkpt><trkpt lat="59.390952587127686" lon="34.64959144592285"><time>2026-08-17T17:57:40.000Z</time><extensions/></trkpt><trkpt lat="59.39088821411133" lon="34.64939832687378"><time>2026-08-17T17:58:10.000Z</time><extensions/></trkpt><trkpt lat="59.39088821411133" lon="34.64937686920166"><time>2026-08-17T17:58:22.000Z</time><extensions/></trkpt><trkpt lat="59.39086675643921" lon="34.64933395385742"><time>2026-08-17T17:58:27.000Z</time><extensions/></trkpt><trkpt lat="59.39086675643921" lon="34.649248123168945"><time>2026-08-17T17:58:30.000Z</time><extensions/></trkpt><trkpt lat="59.39082384109497" lon="34.64909791946411"><time>2026-08-17T17:59:00.000Z</time><extensions/></trkpt><trkpt lat="59.39084529876709" lon="34.64911937713623"><time>2026-08-17T17:59:22.000Z</time><extensions/></trkpt><trkpt lat="59.39084529876709" lon="34.64911937713623"><time>2026-08-17T17:59:27.000Z</time><extensions/></trkpt><trkpt lat="59.39084529876709" lon="34.64914083480835"><time>2026-08-17T17:59:57.000Z</time><extensions/></trkpt><trkpt lat="59.39084529876709" lon="34.64914083480835"><time>2026-08-17T18:00:27.000Z</time><extensions/></trkpt><trkpt lat="59.39084529876709" lon="34.64914083480835"><time>2026-08-17T18:00:57.000Z</time><extensions/></trkpt><trkpt lat="59.39084529876709" lon="34.64911937713623"><time>2026-08-17T18:01:27.000Z</time><extensions/></trkpt><trkpt lat="59.39084529876709" lon="34.64911937713623"><time>2026-08-17T18:01:57.000Z</time><extensions/></trkpt><trkpt lat="59.39084529876709" lon="34.64911937713623"><time>2026-08-17T18:02:27.000Z</time><extensions/></trkpt><trkpt lat="59.39084529876709" lon="34.64907646179199"><time>2026-08-17T18:02:57.000Z</time><extensions/></trkpt><trkpt lat="59.39084529876709" lon="34.649033546447754"><time>2026-08-17T18:03:00.000Z</time><extensions/></trkpt><trkpt lat="59.390738010406494" lon="34.648990631103516"><time>2026-08-17T18:03:17.000Z</time><extensions/></trkpt><trkpt lat="59.390716552734375" lon="34.64905500411987"><time>2026-08-17T18:03:20.000Z</time><extensions/></trkpt><trkpt lat="59.39067363739014" lon="34.64905500411987"><time>2026-08-17T18:03:22.000Z</time><extensions/></trkpt><trkpt lat="59.39065217971802" lon="34.649033546447754"><time>2026-08-17T18:03:25.000Z</time><extensions/></trkpt><trkpt lat="59.3906307220459" lon="34.648990631103516"><time>2026-08-17T18:03:27.000Z</time><extensions/></trkpt><trkpt lat="59.39058780670166" lon="34.6489691734314"><time>2026-08-17T18:03:30.000Z</time><extensions/></trkpt><trkpt lat="59.39056634902954" lon="34.64892625808716"><time>2026-08-17T18:03:32.000Z</time><extensions/></trkpt><trkpt lat="59.39054489135742" lon="34.6488618850708"><time>2026-08-17T18:03:35.000Z</time><extensions/></trkpt><trkpt lat="59.39054489135742" lon="34.6489691734314"><time>2026-08-17T18:03:42.000Z</time><extensions/></trkpt><trkpt lat="59.39054489135742" lon="34.64905500411987"><time>2026-08-17T18:03:45.000Z</time><extensions/></trkpt><trkpt lat="59.390501976013184" lon="34.64911937713623"><time>2026-08-17T18:03:47.000Z</time><extensions/></trkpt><trkpt lat="59.390480518341064" lon="34.64914083480835"><time>2026-08-17T18:03:50.000Z</time><extensions/></trkpt><trkpt lat="59.39037322998047" lon="34.64916229248047"><time>2026-08-17T18:04:05.000Z</time><extensions/></trkpt><trkpt lat="59.39035177230835" lon="34.64911937713623"><time>2026-08-17T18:04:07.000Z</time><extensions/></trkpt><trkpt lat="59.39037322998047" lon="34.64916229248047"><time>2026-08-17T18:04:37.000Z</time><extensions/></trkpt><trkpt lat="59.39037322998047" lon="34.64916229248047"><time>2026-08-17T18:04:42.000Z</time><extensions/></trkpt><trkpt lat="59.39037322998047" lon="34.64916229248047"><time>2026-08-17T18:05:02.000Z</time><extensions/></trkpt><trkpt lat="59.39033031463623" lon="34.64916229248047"><time>2026-08-17T18:05:25.000Z</time><extensions/></trkpt><trkpt lat="59.39028739929199" lon="34.64914083480835"><time>2026-08-17T18:05:27.000Z</time><extensions/></trkpt><trkpt lat="59.390244483947754" lon="34.64914083480835"><time>2026-08-17T18:05:30.000Z</time><extensions/></trkpt><trkpt lat="59.390223026275635" lon="34.64916229248047"><time>2026-08-17T18:05:32.000Z</time><extensions/></trkpt><trkpt lat="59.390201568603516" lon="34.64911937713623"><time>2026-08-17T18:05:35.000Z</time><extensions/></trkpt><trkpt lat="59.39015865325928" lon="34.64916229248047"><time>2026-08-17T18:05:42.000Z</time><extensions/></trkpt><trkpt lat="59.39011573791504" lon="34.64920520782471"><time>2026-08-17T18:05:45.000Z</time><extensions/></trkpt><trkpt lat="59.3900728225708" lon="34.649269580841064"><time>2026-08-17T18:05:47.000Z</time><extensions/></trkpt><trkpt lat="59.39005136489868" lon="34.649269580841064"><time>2026-08-17T18:05:50.000Z</time><extensions/></trkpt><trkpt lat="59.39000844955444" lon="34.649291038513184"><time>2026-08-17T18:05:52.000Z</time><extensions/></trkpt><trkpt lat="59.389986991882324" lon="34.6493124961853"><time>2026-08-17T18:05:55.000Z</time><extensions/></trkpt><trkpt lat="59.389965534210205" lon="34.649269580841064"><time>2026-08-17T18:05:57.000Z</time><extensions/></trkpt><trkpt lat="59.389944076538086" lon="34.64935541152954"><time>2026-08-17T18:06:02.000Z</time><extensions/></trkpt><trkpt lat="59.38992261886597" lon="34.6494197845459"><time>2026-08-17T18:06:05.000Z</time><extensions/></trkpt><trkpt lat="59.38987970352173" lon="34.649527072906494"><time>2026-08-17T18:06:10.000Z</time><extensions/></trkpt><trkpt lat="59.38985824584961" lon="34.64954853057861"><time>2026-08-17T18:06:12.000Z</time><extensions/></trkpt><trkpt lat="59.38990116119385" lon="34.64961290359497"><time>2026-08-17T18:06:20.000Z</time><extensions/></trkpt><trkpt lat="59.38990116119385" lon="34.64963436126709"><time>2026-08-17T18:06:37.000Z</time><extensions/></trkpt><trkpt lat="59.38979387283325" lon="34.649741649627686"><time>2026-08-17T18:06:45.000Z</time><extensions/></trkpt><trkpt lat="59.38977241516113" lon="34.64969873428345"><time>2026-08-17T18:06:47.000Z</time><extensions/></trkpt><trkpt lat="59.38977241516113" lon="34.64963436126709"><time>2026-08-17T18:06:50.000Z</time><extensions/></trkpt><trkpt lat="59.389750957489014" lon="34.64963436126709"><time>2026-08-17T18:06:52.000Z</time><extensions/></trkpt><trkpt lat="59.389708042144775" lon="34.64967727661133"><time>2026-08-17T18:06:55.000Z</time><extensions/></trkpt><trkpt lat="59.389686584472656" lon="34.64969873428345"><time>2026-08-17T18:06:57.000Z</time><extensions/></trkpt><trkpt lat="59.3896222114563" lon="34.649784564971924"><time>2026-08-17T18:07:27.000Z</time><extensions/></trkpt><trkpt lat="59.38957929611206" lon="34.64982748031616"><time>2026-08-17T18:07:30.000Z</time><extensions/></trkpt><trkpt lat="59.389450550079346" lon="34.6498703956604"><time>2026-08-17T18:07:40.000Z</time><extensions/></trkpt><trkpt lat="59.38940763473511" lon="34.649784564971924"><time>2026-08-17T18:07:47.000Z</time><extensions/></trkpt><trkpt lat="59.38938617706299" lon="34.649720191955566"><time>2026-08-17T18:07:50.000Z</time><extensions/></trkpt><trkpt lat="59.38940763473511" lon="34.64969873428345"><time>2026-08-17T18:07:52.000Z</time><extensions/></trkpt><trkpt lat="59.38942909240723" lon="34.64967727661133"><time>2026-08-17T18:07:55.000Z</time><extensions/></trkpt><trkpt lat="59.389450550079346" lon="34.64961290359497"><time>2026-08-17T18:07:57.000Z</time><extensions/></trkpt><trkpt lat="59.389472007751465" lon="34.64954853057861"><time>2026-08-17T18:08:00.000Z</time><extensions/></trkpt><trkpt lat="59.389472007751465" lon="34.649484157562256"><time>2026-08-17T18:08:02.000Z</time><extensions/></trkpt><trkpt lat="59.389472007751465" lon="34.6494197845459"><time>2026-08-17T18:08:05.000Z</time><extensions/></trkpt><trkpt lat="59.389472007751465" lon="34.64935541152954"><time>2026-08-17T18:08:07.000Z</time><extensions/></trkpt><trkpt lat="59.389472007751465" lon="34.64937686920166"><time>2026-08-17T18:08:10.000Z</time><extensions/></trkpt><trkpt lat="59.38942909240723" lon="34.64939832687378"><time>2026-08-17T18:08:12.000Z</time><extensions/></trkpt><trkpt lat="59.38934326171875" lon="34.6493124961853"><time>2026-08-17T18:08:42.000Z</time><extensions/></trkpt><trkpt lat="59.38932180404663" lon="34.64935541152954"><time>2026-08-17T18:08:45.000Z</time><extensions/></trkpt><trkpt lat="59.38927888870239" lon="34.64939832687378"><time>2026-08-17T18:08:57.000Z</time><extensions/></trkpt><trkpt lat="59.38925743103027" lon="34.64944124221802"><time>2026-08-17T18:09:00.000Z</time><extensions/></trkpt><trkpt lat="59.389235973358154" lon="34.649484157562256"><time>2026-08-17T18:09:02.000Z</time><extensions/></trkpt><trkpt lat="59.389193058013916" lon="34.649505615234375"><time>2026-08-17T18:09:05.000Z</time><extensions/></trkpt><trkpt lat="59.389193058013916" lon="34.64946269989014"><time>2026-08-17T18:09:07.000Z</time><extensions/></trkpt><trkpt lat="59.389193058013916" lon="34.64944124221802"><time>2026-08-17T18:09:10.000Z</time><extensions/></trkpt><trkpt lat="59.389193058013916" lon="34.64937686920166"><time>2026-08-17T18:09:12.000Z</time><extensions/></trkpt><trkpt lat="59.38915014266968" lon="34.64933395385742"><time>2026-08-17T18:09:15.000Z</time><extensions/></trkpt><trkpt lat="59.3891716003418" lon="34.6493124961853"><time>2026-08-17T18:09:17.000Z</time><extensions/></trkpt><trkpt lat="59.3891716003418" lon="34.649269580841064"><time>2026-08-17T18:09:20.000Z</time><extensions/></trkpt><trkpt lat="59.38915014266968" lon="34.649226665496826"><time>2026-08-17T18:09:50.000Z</time><extensions/></trkpt><trkpt lat="59.38912868499756" lon="34.649248123168945"><time>2026-08-17T18:10:07.000Z</time><extensions/></trkpt><trkpt lat="59.38910722732544" lon="34.649226665496826"><time>2026-08-17T18:10:10.000Z</time><extensions/></trkpt><trkpt lat="59.38908576965332" lon="34.649248123168945"><time>2026-08-17T18:10:40.000Z</time><extensions/></trkpt><trkpt lat="59.38902139663696" lon="34.6489691734314"><time>2026-08-17T18:11:07.000Z</time><extensions/></trkpt><trkpt lat="59.38904285430908" lon="34.648776054382324"><time>2026-08-17T18:11:37.000Z</time><extensions/></trkpt><trkpt lat="59.38902139663696" lon="34.64879751205444"><time>2026-08-17T18:12:07.000Z</time><extensions/></trkpt><trkpt lat="59.388999938964844" lon="34.64879751205444"><time>2026-08-17T18:12:12.000Z</time><extensions/></trkpt><trkpt lat="59.388978481292725" lon="34.64869022369385"><time>2026-08-17T18:12:17.000Z</time><extensions/></trkpt><trkpt lat="59.388935565948486" lon="34.64862585067749"><time>2026-08-17T18:12:20.000Z</time><extensions/></trkpt><trkpt lat="59.388935565948486" lon="34.64856147766113"><time>2026-08-17T18:12:22.000Z</time><extensions/></trkpt><trkpt lat="59.38891410827637" lon="34.648518562316895"><time>2026-08-17T18:12:25.000Z</time><extensions/></trkpt><trkpt lat="59.38891410827637" lon="34.64856147766113"><time>2026-08-17T18:12:32.000Z</time><extensions/></trkpt><trkpt lat="59.38889265060425" lon="34.64864730834961"><time>2026-08-17T18:12:35.000Z</time><extensions/></trkpt><trkpt lat="59.38887119293213" lon="34.64869022369385"><time>2026-08-17T18:12:37.000Z</time><extensions/></trkpt><trkpt lat="59.38878536224365" lon="34.64858293533325"><time>2026-08-17T18:12:52.000Z</time><extensions/></trkpt><trkpt lat="59.38876390457153" lon="34.64858293533325"><time>2026-08-17T18:13:05.000Z</time><extensions/></trkpt><trkpt lat="59.388742446899414" lon="34.64866876602173"><time>2026-08-17T18:13:07.000Z</time><extensions/></trkpt><trkpt lat="59.388699531555176" lon="34.64866876602173"><time>2026-08-17T18:13:12.000Z</time><extensions/></trkpt><trkpt lat="59.38867807388306" lon="34.64871168136597"><time>2026-08-17T18:13:15.000Z</time><extensions/></trkpt><trkpt lat="59.3886137008667" lon="34.64864730834961"><time>2026-08-17T18:13:45.000Z</time><extensions/></trkpt><trkpt lat="59.38857078552246" lon="34.64856147766113"><time>2026-08-17T18:14:12.000Z</time><extensions/></trkpt><trkpt lat="59.388484954833984" lon="34.64836835861206"><time>2026-08-17T18:14:37.000Z</time><extensions/></trkpt><trkpt lat="59.38839912414551" lon="34.64813232421875"><time>2026-08-17T18:15:07.000Z</time><extensions/></trkpt><trkpt lat="59.38837766647339" lon="34.64808940887451"><time>2026-08-17T18:15:22.000Z</time><extensions/></trkpt><trkpt lat="59.38837766647339" lon="34.64813232421875"><time>2026-08-17T18:15:27.000Z</time><extensions/></trkpt><trkpt lat="59.38835620880127" lon="34.64808940887451"><time>2026-08-17T18:15:35.000Z</time><extensions/></trkpt><trkpt lat="59.38835620880127" lon="34.64804649353027"><time>2026-08-17T18:15:37.000Z</time><extensions/></trkpt><trkpt lat="59.38833475112915" lon="34.647982120513916"><time>2026-08-17T18:15:40.000Z</time><extensions/></trkpt><trkpt lat="59.38833475112915" lon="34.64793920516968"><time>2026-08-17T18:15:42.000Z</time><extensions/></trkpt><trkpt lat="59.38835620880127" lon="34.647982120513916"><time>2026-08-17T18:16:00.000Z</time><extensions/></trkpt><trkpt lat="59.38837766647339" lon="34.64806795120239"><time>2026-08-17T18:16:02.000Z</time><extensions/></trkpt><trkpt lat="59.38835620880127" lon="34.64811086654663"><time>2026-08-17T18:16:07.000Z</time><extensions/></trkpt><trkpt lat="59.38829183578491" lon="34.64806795120239"><time>2026-08-17T18:16:35.000Z</time><extensions/></trkpt><trkpt lat="59.38829183578491" lon="34.648003578186035"><time>2026-08-17T18:17:05.000Z</time><extensions/></trkpt><trkpt lat="59.388227462768555" lon="34.64813232421875"><time>2026-08-17T18:17:35.000Z</time><extensions/></trkpt><trkpt lat="59.388227462768555" lon="34.64815378189087"><time>2026-08-17T18:17:37.000Z</time><extensions/></trkpt><trkpt lat="59.38812017440796" lon="34.6483039855957"><time>2026-08-17T18:18:07.000Z</time><extensions/></trkpt><trkpt lat="59.38809871673584" lon="34.64834690093994"><time>2026-08-17T18:18:10.000Z</time><extensions/></trkpt><trkpt lat="59.38807725906372" lon="34.64838981628418"><time>2026-08-17T18:18:12.000Z</time><extensions/></trkpt><trkpt lat="59.38809871673584" lon="34.6484112739563"><time>2026-08-17T18:18:15.000Z</time><extensions/></trkpt><trkpt lat="59.38812017440796" lon="34.6484112739563"><time>2026-08-17T18:18:17.000Z</time><extensions/></trkpt><trkpt lat="59.38807725906372" lon="34.64843273162842"><time>2026-08-17T18:18:47.000Z</time><extensions/></trkpt><trkpt lat="59.38801288604736" lon="34.648475646972656"><time>2026-08-17T18:19:05.000Z</time><extensions/></trkpt><trkpt lat="59.387991428375244" lon="34.64871168136597"><time>2026-08-17T18:19:27.000Z</time><extensions/></trkpt><trkpt lat="59.38790559768677" lon="34.648754596710205"><time>2026-08-17T18:19:50.000Z</time><extensions/></trkpt><trkpt lat="59.38788414001465" lon="34.64879751205444"><time>2026-08-17T18:19:52.000Z</time><extensions/></trkpt><trkpt lat="59.38786268234253" lon="34.64884042739868"><time>2026-08-17T18:19:55.000Z</time><extensions/></trkpt><trkpt lat="59.38781976699829" lon="34.6488618850708"><time>2026-08-17T18:19:57.000Z</time><extensions/></trkpt><trkpt lat="59.387712478637695" lon="34.64879751205444"><time>2026-08-17T18:20:10.000Z</time><extensions/></trkpt><trkpt lat="59.387691020965576" lon="34.648754596710205"><time>2026-08-17T18:20:12.000Z</time><extensions/></trkpt><trkpt lat="59.38764810562134" lon="34.64884042739868"><time>2026-08-17T18:20:25.000Z</time><extensions/></trkpt><trkpt lat="59.3876051902771" lon="34.6488618850708"><time>2026-08-17T18:20:27.000Z</time><extensions/></trkpt><trkpt lat="59.38758373260498" lon="34.64888334274292"><time>2026-08-17T18:20:30.000Z</time><extensions/></trkpt><trkpt lat="59.38754081726074" lon="34.64888334274292"><time>2026-08-17T18:20:37.000Z</time><extensions/></trkpt><trkpt lat="59.38756227493286" lon="34.64894771575928"><time>2026-08-17T18:20:42.000Z</time><extensions/></trkpt><trkpt lat="59.38756227493286" lon="34.6489691734314"><time>2026-08-17T18:20:45.000Z</time><extensions/></trkpt><trkpt lat="59.38754081726074" lon="34.64894771575928"><time>2026-08-17T18:20:47.000Z</time><extensions/></trkpt><trkpt lat="59.38751935958862" lon="34.64894771575928"><time>2026-08-17T18:20:50.000Z</time><extensions/></trkpt><trkpt lat="59.387476444244385" lon="34.64892625808716"><time>2026-08-17T18:20:52.000Z</time><extensions/></trkpt><trkpt lat="59.38743352890015" lon="34.64894771575928"><time>2026-08-17T18:20:55.000Z</time><extensions/></trkpt><trkpt lat="59.38741207122803" lon="34.64894771575928"><time>2026-08-17T18:20:57.000Z</time><extensions/></trkpt><trkpt lat="59.38741207122803" lon="34.64888334274292"><time>2026-08-17T18:21:00.000Z</time><extensions/></trkpt><trkpt lat="59.38734769821167" lon="34.64879751205444"><time>2026-08-17T18:21:17.000Z</time><extensions/></trkpt><trkpt lat="59.38734769821167" lon="34.64888334274292"><time>2026-08-17T18:21:20.000Z</time><extensions/></trkpt><trkpt lat="59.38732624053955" lon="34.64890480041504"><time>2026-08-17T18:21:22.000Z</time><extensions/></trkpt><trkpt lat="59.38732624053955" lon="34.64894771575928"><time>2026-08-17T18:21:27.000Z</time><extensions/></trkpt><trkpt lat="59.38736915588379" lon="34.649033546447754"><time>2026-08-17T18:21:57.000Z</time><extensions/></trkpt><trkpt lat="59.38736915588379" lon="34.6489691734314"><time>2026-08-17T18:22:05.000Z</time><extensions/></trkpt><trkpt lat="59.38732624053955" lon="34.64888334274292"><time>2026-08-17T18:22:07.000Z</time><extensions/></trkpt><trkpt lat="59.38732624053955" lon="34.64879751205444"><time>2026-08-17T18:22:10.000Z</time><extensions/></trkpt><trkpt lat="59.38728332519531" lon="34.64864730834961"><time>2026-08-17T18:22:27.000Z</time><extensions/></trkpt><trkpt lat="59.38726186752319" lon="34.64860439300537"><time>2026-08-17T18:22:30.000Z</time><extensions/></trkpt><trkpt lat="59.387240409851074" lon="34.64856147766113"><time>2026-08-17T18:22:32.000Z</time><extensions/></trkpt><trkpt lat="59.387218952178955" lon="34.648540019989014"><time>2026-08-17T18:22:35.000Z</time><extensions/></trkpt><trkpt lat="59.387218952178955" lon="34.648497104644775"><time>2026-08-17T18:22:37.000Z</time><extensions/></trkpt><trkpt lat="59.387197494506836" lon="34.648475646972656"><time>2026-08-17T18:22:40.000Z</time><extensions/></trkpt><trkpt lat="59.38717603683472" lon="34.64845418930054"><time>2026-08-17T18:22:42.000Z</time><extensions/></trkpt><trkpt lat="59.38713312149048" lon="34.648475646972656"><time>2026-08-17T18:22:45.000Z</time><extensions/></trkpt><trkpt lat="59.38711166381836" lon="34.648475646972656"><time>2026-08-17T18:22:47.000Z</time><extensions/></trkpt><trkpt lat="59.38709020614624" lon="34.64834690093994"><time>2026-08-17T18:23:05.000Z</time><extensions/></trkpt><trkpt lat="59.387047290802" lon="34.6483039855957"><time>2026-08-17T18:23:07.000Z</time><extensions/></trkpt><trkpt lat="59.387004375457764" lon="34.64845418930054"><time>2026-08-17T18:23:15.000Z</time><extensions/></trkpt><trkpt lat="59.387004375457764" lon="34.64856147766113"><time>2026-08-17T18:23:17.000Z</time><extensions/></trkpt><trkpt lat="59.386982917785645" lon="34.64860439300537"><time>2026-08-17T18:23:20.000Z</time><extensions/></trkpt><trkpt lat="59.386961460113525" lon="34.64869022369385"><time>2026-08-17T18:23:22.000Z</time><extensions/></trkpt><trkpt lat="59.386961460113525" lon="34.648754596710205"><time>2026-08-17T18:23:25.000Z</time><extensions/></trkpt><trkpt lat="59.386940002441406" lon="34.64879751205444"><time>2026-08-17T18:23:27.000Z</time><extensions/></trkpt><trkpt lat="59.38691854476929" lon="34.64884042739868"><time>2026-08-17T18:23:30.000Z</time><extensions/></trkpt><trkpt lat="59.38689708709717" lon="34.64890480041504"><time>2026-08-17T18:23:32.000Z</time><extensions/></trkpt><trkpt lat="59.38687562942505" lon="34.64888334274292"><time>2026-08-17T18:23:35.000Z</time><extensions/></trkpt><trkpt lat="59.38683271408081" lon="34.648754596710205"><time>2026-08-17T18:23:37.000Z</time><extensions/></trkpt><trkpt lat="59.38685417175293" lon="34.64871168136597"><time>2026-08-17T18:23:40.000Z</time><extensions/></trkpt><trkpt lat="59.38681125640869" lon="34.64866876602173"><time>2026-08-17T18:23:45.000Z</time><extensions/></trkpt><trkpt lat="59.38678979873657" lon="34.64862585067749"><time>2026-08-17T18:23:47.000Z</time><extensions/></trkpt><trkpt lat="59.38676834106445" lon="34.64858293533325"><time>2026-08-17T18:23:50.000Z</time><extensions/></trkpt><trkpt lat="59.386725425720215" lon="34.648540019989014"><time>2026-08-17T18:23:52.000Z</time><extensions/></trkpt><trkpt lat="59.38668251037598" lon="34.648497104644775"><time>2026-08-17T18:23:55.000Z</time><extensions/></trkpt><trkpt lat="59.38663959503174" lon="34.64845418930054"><time>2026-08-17T18:23:57.000Z</time><extensions/></trkpt><trkpt lat="59.3865966796875" lon="34.648475646972656"><time>2026-08-17T18:24:00.000Z</time><extensions/></trkpt><trkpt lat="59.38655376434326" lon="34.648540019989014"><time>2026-08-17T18:24:02.000Z</time><extensions/></trkpt><trkpt lat="59.38655376434326" lon="34.64862585067749"><time>2026-08-17T18:24:05.000Z</time><extensions/></trkpt><trkpt lat="59.38657522201538" lon="34.64869022369385"><time>2026-08-17T18:24:07.000Z</time><extensions/></trkpt><trkpt lat="59.3865966796875" lon="34.64871168136597"><time>2026-08-17T18:24:10.000Z</time><extensions/></trkpt><trkpt lat="59.38655376434326" lon="34.64862585067749"><time>2026-08-17T18:24:15.000Z</time><extensions/></trkpt><trkpt lat="59.38657522201538" lon="34.64856147766113"><time>2026-08-17T18:24:17.000Z</time><extensions/></trkpt><trkpt lat="59.38657522201538" lon="34.648497104644775"><time>2026-08-17T18:24:22.000Z</time><extensions/></trkpt><trkpt lat="59.38651084899902" lon="34.64845418930054"><time>2026-08-17T18:24:25.000Z</time><extensions/></trkpt><trkpt lat="59.386489391326904" lon="34.6484112739563"><time>2026-08-17T18:24:27.000Z</time><extensions/></trkpt><trkpt lat="59.386467933654785" lon="34.6484112739563"><time>2026-08-17T18:24:30.000Z</time><extensions/></trkpt><trkpt lat="59.38642501831055" lon="34.64838981628418"><time>2026-08-17T18:24:32.000Z</time><extensions/></trkpt><trkpt lat="59.38636064529419" lon="34.64845418930054"><time>2026-08-17T18:24:40.000Z</time><extensions/></trkpt><trkpt lat="59.38633918762207" lon="34.648475646972656"><time>2026-08-17T18:24:42.000Z</time><extensions/></trkpt><trkpt lat="59.38629627227783" lon="34.648497104644775"><time>2026-08-17T18:24:45.000Z</time><extensions/></trkpt><trkpt lat="59.38627481460571" lon="34.648540019989014"><time>2026-08-17T18:24:47.000Z</time><extensions/></trkpt><trkpt lat="59.386253356933594" lon="34.64858293533325"><time>2026-08-17T18:24:50.000Z</time><extensions/></trkpt><trkpt lat="59.386210441589355" lon="34.64858293533325"><time>2026-08-17T18:24:52.000Z</time><extensions/></trkpt><trkpt lat="59.386188983917236" lon="34.648518562316895"><time>2026-08-17T18:24:55.000Z</time><extensions/></trkpt><trkpt lat="59.38616752624512" lon="34.648475646972656"><time>2026-08-17T18:24:57.000Z</time><extensions/></trkpt><trkpt lat="59.386146068573" lon="34.64845418930054"><time>2026-08-17T18:25:00.000Z</time><extensions/></trkpt><trkpt lat="59.386146068573" lon="34.64836835861206"><time>2026-08-17T18:25:05.000Z</time><extensions/></trkpt><trkpt lat="59.386188983917236" lon="34.6483039855957"><time>2026-08-17T18:25:07.000Z</time><extensions/></trkpt><trkpt lat="59.386210441589355" lon="34.648239612579346"><time>2026-08-17T18:25:10.000Z</time><extensions/></trkpt><trkpt lat="59.386231899261475" lon="34.64819669723511"><time>2026-08-17T18:25:12.000Z</time><extensions/></trkpt><trkpt lat="59.38627481460571" lon="34.64811086654663"><time>2026-08-17T18:25:17.000Z</time><extensions/></trkpt><trkpt lat="59.386253356933594" lon="34.64806795120239"><time>2026-08-17T18:25:20.000Z</time><extensions/></trkpt><trkpt lat="59.386253356933594" lon="34.64813232421875"><time>2026-08-17T18:25:30.000Z</time><extensions/></trkpt><trkpt lat="59.386188983917236" lon="34.64806795120239"><time>2026-08-17T18:26:00.000Z</time><extensions/></trkpt><trkpt lat="59.38612461090088" lon="34.648003578186035"><time>2026-08-17T18:26:10.000Z</time><extensions/></trkpt><trkpt lat="59.38610315322876" lon="34.647982120513916"><time>2026-08-17T18:26:12.000Z</time><extensions/></trkpt><trkpt lat="59.386146068573" lon="34.64804649353027"><time>2026-08-17T18:26:22.000Z</time><extensions/></trkpt><trkpt lat="59.38612461090088" lon="34.64808940887451"><time>2026-08-17T18:26:35.000Z</time><extensions/></trkpt><trkpt lat="59.385952949523926" lon="34.64806795120239"><time>2026-08-17T18:27:05.000Z</time><extensions/></trkpt><trkpt lat="59.38588857650757" lon="34.64817523956299"><time>2026-08-17T18:27:35.000Z</time><extensions/></trkpt><trkpt lat="59.38586711883545" lon="34.64817523956299"><time>2026-08-17T18:27:57.000Z</time><extensions/></trkpt><trkpt lat="59.38575983047485" lon="34.64813232421875"><time>2026-08-17T18:28:27.000Z</time><extensions/></trkpt><trkpt lat="59.385716915130615" lon="34.64811086654663"><time>2026-08-17T18:28:47.000Z</time><extensions/></trkpt><trkpt lat="59.385738372802734" lon="34.64817523956299"><time>2026-08-17T18:28:50.000Z</time><extensions/></trkpt><trkpt lat="59.385695457458496" lon="34.64819669723511"><time>2026-08-17T18:28:55.000Z</time><extensions/></trkpt><trkpt lat="59.38565254211426" lon="34.648239612579346"><time>2026-08-17T18:28:57.000Z</time><extensions/></trkpt><trkpt lat="59.38560962677002" lon="34.6483039855957"><time>2026-08-17T18:29:17.000Z</time><extensions/></trkpt><trkpt lat="59.3855881690979" lon="34.64843273162842"><time>2026-08-17T18:29:22.000Z</time><extensions/></trkpt><trkpt lat="59.38560962677002" lon="34.648497104644775"><time>2026-08-17T18:29:25.000Z</time><extensions/></trkpt><trkpt lat="59.38560962677002" lon="34.64845418930054"><time>2026-08-17T18:29:27.000Z</time><extensions/></trkpt><trkpt lat="59.38563108444214" lon="34.64834690093994"><time>2026-08-17T18:29:30.000Z</time><extensions/></trkpt><trkpt lat="59.38563108444214" lon="34.648261070251465"><time>2026-08-17T18:29:32.000Z</time><extensions/></trkpt><trkpt lat="59.38563108444214" lon="34.64819669723511"><time>2026-08-17T18:29:35.000Z</time><extensions/></trkpt><trkpt lat="59.38556671142578" lon="34.64817523956299"><time>2026-08-17T18:29:40.000Z</time><extensions/></trkpt><trkpt lat="59.38552379608154" lon="34.64819669723511"><time>2026-08-17T18:29:42.000Z</time><extensions/></trkpt><trkpt lat="59.385502338409424" lon="34.648261070251465"><time>2026-08-17T18:29:45.000Z</time><extensions/></trkpt><trkpt lat="59.385480880737305" lon="34.64832544326782"><time>2026-08-17T18:29:47.000Z</time><extensions/></trkpt><trkpt lat="59.38535213470459" lon="34.64834690093994"><time>2026-08-17T18:30:12.000Z</time><extensions/></trkpt><trkpt lat="59.38533067703247" lon="34.64838981628418"><time>2026-08-17T18:30:15.000Z</time><extensions/></trkpt><trkpt lat="59.38530921936035" lon="34.6484112739563"><time>2026-08-17T18:30:20.000Z</time><extensions/></trkpt><trkpt lat="59.38515901565552" lon="34.64836835861206"><time>2026-08-17T18:30:50.000Z</time><extensions/></trkpt><trkpt lat="59.3851375579834" lon="34.64836835861206"><time>2026-08-17T18:30:57.000Z</time><extensions/></trkpt><trkpt lat="59.38509464263916" lon="34.6484112739563"><time>2026-08-17T18:31:02.000Z</time><extensions/></trkpt><trkpt lat="59.38505172729492" lon="34.64845418930054"><time>2026-08-17T18:31:05.000Z</time><extensions/></trkpt><trkpt lat="59.3850302696228" lon="34.64845418930054"><time>2026-08-17T18:31:07.000Z</time><extensions/></trkpt><trkpt lat="59.384987354278564" lon="34.64843273162842"><time>2026-08-17T18:31:10.000Z</time><extensions/></trkpt><trkpt lat="59.384944438934326" lon="34.64843273162842"><time>2026-08-17T18:31:12.000Z</time><extensions/></trkpt><trkpt lat="59.384965896606445" lon="34.64838981628418"><time>2026-08-17T18:31:15.000Z</time><extensions/></trkpt><trkpt lat="59.384987354278564" lon="34.64832544326782"><time>2026-08-17T18:31:17.000Z</time><extensions/></trkpt><trkpt lat="59.385008811950684" lon="34.648282527923584"><time>2026-08-17T18:31:20.000Z</time><extensions/></trkpt><trkpt lat="59.38505172729492" lon="34.648261070251465"><time>2026-08-17T18:31:22.000Z</time><extensions/></trkpt><trkpt lat="59.38507318496704" lon="34.648261070251465"><time>2026-08-17T18:31:32.000Z</time><extensions/></trkpt><trkpt lat="59.38509464263916" lon="34.64821815490723"><time>2026-08-17T18:31:47.000Z</time><extensions/></trkpt><trkpt lat="59.38511610031128" lon="34.64815378189087"><time>2026-08-17T18:31:50.000Z</time><extensions/></trkpt><trkpt lat="59.3851375579834" lon="34.64806795120239"><time>2026-08-17T18:31:52.000Z</time><extensions/></trkpt><trkpt lat="59.38515901565552" lon="34.647982120513916"><time>2026-08-17T18:31:55.000Z</time><extensions/></trkpt><trkpt lat="59.385201930999756" lon="34.64793920516968"><time>2026-08-17T18:31:57.000Z</time><extensions/></trkpt><trkpt lat="59.385223388671875" lon="34.64789628982544"><time>2026-08-17T18:32:00.000Z</time><extensions/></trkpt><trkpt lat="59.38526630401611" lon="34.6478533744812"><time>2026-08-17T18:32:02.000Z</time><extensions/></trkpt><trkpt lat="59.38526630401611" lon="34.647789001464844"><time>2026-08-17T18:32:07.000Z</time><extensions/></trkpt><trkpt lat="59.38526630401611" lon="34.64770317077637"><time>2026-08-17T18:32:10.000Z</time><extensions/></trkpt><trkpt lat="59.38528776168823" lon="34.64763879776001"><time>2026-08-17T18:32:12.000Z</time><extensions/></trkpt><trkpt lat="59.38528776168823" lon="34.64759588241577"><time>2026-08-17T18:32:15.000Z</time><extensions/></trkpt><trkpt lat="59.38530921936035" lon="34.647510051727295"><time>2026-08-17T18:32:27.000Z</time><extensions/></trkpt><trkpt lat="59.38528776168823" lon="34.647488594055176"><time>2026-08-17T18:32:47.000Z</time><extensions/></trkpt><trkpt lat="59.38530921936035" lon="34.64744567871094"><time>2026-08-17T18:32:57.000Z</time><extensions/></trkpt><trkpt lat="59.38530921936035" lon="34.64735984802246"><time>2026-08-17T18:33:00.000Z</time><extensions/></trkpt><trkpt lat="59.38535213470459" lon="34.6472954750061"><time>2026-08-17T18:33:02.000Z</time><extensions/></trkpt><trkpt lat="59.38541650772095" lon="34.647252559661865"><time>2026-08-17T18:33:05.000Z</time><extensions/></trkpt><trkpt lat="59.385437965393066" lon="34.647252559661865"><time>2026-08-17T18:33:07.000Z</time><extensions/></trkpt><trkpt lat="59.385459423065186" lon="34.64712381362915"><time>2026-08-17T18:33:25.000Z</time><extensions/></trkpt><trkpt lat="59.38541650772095" lon="34.64714527130127"><time>2026-08-17T18:33:27.000Z</time><extensions/></trkpt><trkpt lat="59.38537359237671" lon="34.646995067596436"><time>2026-08-17T18:33:37.000Z</time><extensions/></trkpt><trkpt lat="59.38539505004883" lon="34.6469521522522"><time>2026-08-17T18:33:40.000Z</time><extensions/></trkpt><trkpt lat="59.38541650772095" lon="34.64690923690796"><time>2026-08-17T18:33:42.000Z</time><extensions/></trkpt><trkpt lat="59.385437965393066" lon="34.64682340621948"><time>2026-08-17T18:33:57.000Z</time><extensions/></trkpt><trkpt lat="59.38541650772095" lon="34.646759033203125"><time>2026-08-17T18:34:00.000Z</time><extensions/></trkpt><trkpt lat="59.385437965393066" lon="34.64663028717041"><time>2026-08-17T18:34:05.000Z</time><extensions/></trkpt><trkpt lat="59.38539505004883" lon="34.64656591415405"><time>2026-08-17T18:34:12.000Z</time><extensions/></trkpt><trkpt lat="59.38541650772095" lon="34.64641571044922"><time>2026-08-17T18:34:32.000Z</time><extensions/></trkpt><trkpt lat="59.38541650772095" lon="34.64630842208862"><time>2026-08-17T18:34:57.000Z</time><extensions/></trkpt><trkpt lat="59.385437965393066" lon="34.64609384536743"><time>2026-08-17T18:35:05.000Z</time><extensions/></trkpt><trkpt lat="59.385459423065186" lon="34.64611530303955"><time>2026-08-17T18:35:07.000Z</time><extensions/></trkpt><trkpt lat="59.38552379608154" lon="34.645986557006836"><time>2026-08-17T18:35:37.000Z</time><extensions/></trkpt><trkpt lat="59.3855881690979" lon="34.645986557006836"><time>2026-08-17T18:35:42.000Z</time><extensions/></trkpt><trkpt lat="59.38565254211426" lon="34.64592218399048"><time>2026-08-17T18:35:52.000Z</time><extensions/></trkpt><trkpt lat="59.38567399978638" lon="34.645836353302"><time>2026-08-17T18:35:55.000Z</time><extensions/></trkpt><trkpt lat="59.38567399978638" lon="34.645750522613525"><time>2026-08-17T18:35:57.000Z</time><extensions/></trkpt><trkpt lat="59.385716915130615" lon="34.64555740356445"><time>2026-08-17T18:36:12.000Z</time><extensions/></trkpt><trkpt lat="59.385738372802734" lon="34.645493030548096"><time>2026-08-17T18:36:15.000Z</time><extensions/></trkpt><trkpt lat="59.38575983047485" lon="34.64545011520386"><time>2026-08-17T18:36:17.000Z</time><extensions/></trkpt><trkpt lat="59.38578128814697" lon="34.64542865753174"><time>2026-08-17T18:36:20.000Z</time><extensions/></trkpt><trkpt lat="59.38580274581909" lon="34.64540719985962"><time>2026-08-17T18:36:22.000Z</time><extensions/></trkpt><trkpt lat="59.38584566116333" lon="34.64534282684326"><time>2026-08-17T18:36:27.000Z</time><extensions/></trkpt><trkpt lat="59.38586711883545" lon="34.64532136917114"><time>2026-08-17T18:36:30.000Z</time><extensions/></trkpt><trkpt lat="59.38582420349121" lon="34.64542865753174"><time>2026-08-17T18:37:00.000Z</time><extensions/></trkpt><trkpt lat="59.38582420349121" lon="34.64542865753174"><time>2026-08-17T18:37:02.000Z</time><extensions/></trkpt><trkpt lat="59.38582420349121" lon="34.64542865753174"><time>2026-08-17T18:37:17.000Z</time><extensions/></trkpt><trkpt lat="59.38591003417969" lon="34.64534282684326"><time>2026-08-17T18:37:37.000Z</time><extensions/></trkpt><trkpt lat="59.385974407196045" lon="34.64536428451538"><time>2026-08-17T18:37:45.000Z</time><extensions/></trkpt><trkpt lat="59.385995864868164" lon="34.64532136917114"><time>2026-08-17T18:38:15.000Z</time><extensions/></trkpt><trkpt lat="59.385995864868164" lon="34.64532136917114"><time>2026-08-17T18:38:17.000Z</time><extensions/></trkpt><trkpt lat="59.38601732254028" lon="34.64536428451538"><time>2026-08-17T18:38:35.000Z</time><extensions/></trkpt><trkpt lat="59.38608169555664" lon="34.64542865753174"><time>2026-08-17T18:38:45.000Z</time><extensions/></trkpt><trkpt lat="59.38610315322876" lon="34.64540719985962"><time>2026-08-17T18:39:15.000Z</time><extensions/></trkpt><trkpt lat="59.38612461090088" lon="34.64534282684326"><time>2026-08-17T18:39:27.000Z</time><extensions/></trkpt><trkpt lat="59.38616752624512" lon="34.645235538482666"><time>2026-08-17T18:39:32.000Z</time><extensions/></trkpt><trkpt lat="59.386146068573" lon="34.645278453826904"><time>2026-08-17T18:39:57.000Z</time><extensions/></trkpt><trkpt lat="59.386210441589355" lon="34.64508533477783"><time>2026-08-17T18:40:05.000Z</time><extensions/></trkpt><trkpt lat="59.386253356933594" lon="34.645042419433594"><time>2026-08-17T18:40:07.000Z</time><extensions/></trkpt><trkpt lat="59.38627481460571" lon="34.64508533477783"><time>2026-08-17T18:40:10.000Z</time><extensions/></trkpt><trkpt lat="59.38629627227783" lon="34.64510679244995"><time>2026-08-17T18:40:12.000Z</time><extensions/></trkpt><trkpt lat="59.38631772994995" lon="34.64510679244995"><time>2026-08-17T18:40:15.000Z</time><extensions/></trkpt><trkpt lat="59.38629627227783" lon="34.64512825012207"><time>2026-08-17T18:40:45.000Z</time><extensions/></trkpt><trkpt lat="59.38629627227783" lon="34.64512825012207"><time>2026-08-17T18:40:50.000Z</time><extensions/></trkpt><trkpt lat="59.38631772994995" lon="34.64506387710571"><time>2026-08-17T18:40:52.000Z</time><extensions/></trkpt><trkpt lat="59.38633918762207" lon="34.645020961761475"><time>2026-08-17T18:40:55.000Z</time><extensions/></trkpt><trkpt lat="59.38636064529419" lon="34.644999504089355"><time>2026-08-17T18:40:57.000Z</time><extensions/></trkpt><trkpt lat="59.38636064529419" lon="34.645020961761475"><time>2026-08-17T18:41:00.000Z</time><extensions/></trkpt><trkpt lat="59.38636064529419" lon="34.645020961761475"><time>2026-08-17T18:41:07.000Z</time><extensions/></trkpt><trkpt lat="59.38636064529419" lon="34.645042419433594"><time>2026-08-17T18:41:37.000Z</time><extensions/></trkpt><trkpt lat="59.38640356063843" lon="34.64506387710571"><time>2026-08-17T18:42:07.000Z</time><extensions/></trkpt><trkpt lat="59.38636064529419" lon="34.64521408081055"><time>2026-08-17T18:42:37.000Z</time><extensions/></trkpt><trkpt lat="59.38633918762207" lon="34.64536428451538"><time>2026-08-17T18:42:47.000Z</time><extensions/></trkpt><trkpt lat="59.38633918762207" lon="34.64542865753174"><time>2026-08-17T18:43:02.000Z</time><extensions/></trkpt><trkpt lat="59.38633918762207" lon="34.645493030548096"><time>2026-08-17T18:43:05.000Z</time><extensions/></trkpt><trkpt lat="59.38633918762207" lon="34.645535945892334"><time>2026-08-17T18:43:07.000Z</time><extensions/></trkpt><trkpt lat="59.38633918762207" lon="34.64555740356445"><time>2026-08-17T18:43:10.000Z</time><extensions/></trkpt><trkpt lat="59.38631772994995" lon="34.645729064941406"><time>2026-08-17T18:43:40.000Z</time><extensions/></trkpt><trkpt lat="59.38642501831055" lon="34.64592218399048"><time>2026-08-17T18:44:10.000Z</time><extensions/></trkpt><trkpt lat="59.38642501831055" lon="34.64592218399048"><time>2026-08-17T18:44:40.000Z</time><extensions/></trkpt><trkpt lat="59.38638210296631" lon="34.64592218399048"><time>2026-08-17T18:45:10.000Z</time><extensions/></trkpt><trkpt lat="59.38633918762207" lon="34.64607238769531"><time>2026-08-17T18:45:40.000Z</time><extensions/></trkpt><trkpt lat="59.38631772994995" lon="34.64622259140015"><time>2026-08-17T18:45:50.000Z</time><extensions/></trkpt><trkpt lat="59.38631772994995" lon="34.64643716812134"><time>2026-08-17T18:46:20.000Z</time><extensions/></trkpt><trkpt lat="59.38631772994995" lon="34.646480083465576"><time>2026-08-17T18:46:50.000Z</time><extensions/></trkpt><trkpt lat="59.38636064529419" lon="34.64663028717041"><time>2026-08-17T18:47:20.000Z</time><extensions/></trkpt><trkpt lat="59.38638210296631" lon="34.64660882949829"><time>2026-08-17T18:47:32.000Z</time><extensions/></trkpt><trkpt lat="59.38640356063843" lon="34.64658737182617"><time>2026-08-17T18:48:02.000Z</time><extensions/></trkpt><trkpt lat="59.38642501831055" lon="34.64663028717041"><time>2026-08-17T18:48:32.000Z</time><extensions/></trkpt><trkpt lat="59.386467933654785" lon="34.64671611785889"><time>2026-08-17T18:48:40.000Z</time><extensions/></trkpt><trkpt lat="59.386489391326904" lon="34.64671611785889"><time>2026-08-17T18:48:42.000Z</time><extensions/></trkpt><trkpt lat="59.38651084899902" lon="34.64688777923584"><time>2026-08-17T18:48:55.000Z</time><extensions/></trkpt><trkpt lat="59.386467933654785" lon="34.647016525268555"><time>2026-08-17T18:49:07.000Z</time><extensions/></trkpt><trkpt lat="59.38651084899902" lon="34.647016525268555"><time>2026-08-17T18:49:35.000Z</time><extensions/></trkpt><trkpt lat="59.38651084899902" lon="34.64693069458008"><time>2026-08-17T18:49:37.000Z</time><extensions/></trkpt><trkpt lat="59.38651084899902" lon="34.64682340621948"><time>2026-08-17T18:49:40.000Z</time><extensions/></trkpt><trkpt lat="59.38653230667114" lon="34.646544456481934"><time>2026-08-17T18:50:10.000Z</time><extensions/></trkpt><trkpt lat="59.38653230667114" lon="34.646544456481934"><time>2026-08-17T18:50:12.000Z</time><extensions/></trkpt><trkpt lat="59.38651084899902" lon="34.64656591415405"><time>2026-08-17T18:50:42.000Z</time><extensions/></trkpt><trkpt lat="59.38655376434326" lon="34.646501541137695"><time>2026-08-17T18:51:12.000Z</time><extensions/></trkpt><trkpt lat="59.38661813735962" lon="34.64635133743286"><time>2026-08-17T18:51:42.000Z</time><extensions/></trkpt><trkpt lat="59.38666105270386" lon="34.6463942527771"><time>2026-08-17T18:52:12.000Z</time><extensions/></trkpt><trkpt lat="59.38666105270386" lon="34.646522998809814"><time>2026-08-17T18:52:42.000Z</time><extensions/></trkpt><trkpt lat="59.386703968048096" lon="34.64665174484253"><time>2026-08-17T18:52:55.000Z</time><extensions/></trkpt><trkpt lat="59.386746883392334" lon="34.64660882949829"><time>2026-08-17T18:53:25.000Z</time><extensions/></trkpt><trkpt lat="59.38683271408081" lon="34.64660882949829"><time>2026-08-17T18:53:55.000Z</time><extensions/></trkpt><trkpt lat="59.38683271408081" lon="34.64660882949829"><time>2026-08-17T18:53:57.000Z</time><extensions/></trkpt><trkpt lat="59.38683271408081" lon="34.64665174484253"><time>2026-08-17T18:54:27.000Z</time><extensions/></trkpt><trkpt lat="59.38687562942505" lon="34.64656591415405"><time>2026-08-17T18:54:57.000Z</time><extensions/></trkpt><trkpt lat="59.38689708709717" lon="34.646480083465576"><time>2026-08-17T18:55:27.000Z</time><extensions/></trkpt><trkpt lat="59.38689708709717" lon="34.64656591415405"><time>2026-08-17T18:55:57.000Z</time><extensions/></trkpt><trkpt lat="59.38689708709717" lon="34.64671611785889"><time>2026-08-17T18:56:07.000Z</time><extensions/></trkpt><trkpt lat="59.38687562942505" lon="34.646759033203125"><time>2026-08-17T18:56:17.000Z</time><extensions/></trkpt><trkpt lat="59.38685417175293" lon="34.6468448638916"><time>2026-08-17T18:56:22.000Z</time><extensions/></trkpt><trkpt lat="59.38685417175293" lon="34.64693069458008"><time>2026-08-17T18:56:25.000Z</time><extensions/></trkpt><trkpt lat="59.38685417175293" lon="34.646973609924316"><time>2026-08-17T18:56:27.000Z</time><extensions/></trkpt><trkpt lat="59.38685417175293" lon="34.647016525268555"><time>2026-08-17T18:56:30.000Z</time><extensions/></trkpt><trkpt lat="59.38683271408081" lon="34.64705944061279"><time>2026-08-17T18:56:32.000Z</time><extensions/></trkpt><trkpt lat="59.38683271408081" lon="34.64712381362915"><time>2026-08-17T18:56:37.000Z</time><extensions/></trkpt><trkpt lat="59.38685417175293" lon="34.64716672897339"><time>2026-08-17T18:56:40.000Z</time><extensions/></trkpt><trkpt lat="59.38687562942505" lon="34.64712381362915"><time>2026-08-17T18:57:00.000Z</time><extensions/></trkpt><trkpt lat="59.38689708709717" lon="34.64714527130127"><time>2026-08-17T18:57:02.000Z</time><extensions/></trkpt><trkpt lat="59.386961460113525" lon="34.64720964431763"><time>2026-08-17T18:57:05.000Z</time><extensions/></trkpt><trkpt lat="59.387047290802" lon="34.64731693267822"><time>2026-08-17T18:57:35.000Z</time><extensions/></trkpt><trkpt lat="59.38711166381836" lon="34.64733839035034"><time>2026-08-17T18:58:02.000Z</time><extensions/></trkpt><trkpt lat="59.3871545791626" lon="34.64735984802246"><time>2026-08-17T18:58:07.000Z</time><extensions/></trkpt><trkpt lat="59.38711166381836" lon="34.647531509399414"><time>2026-08-17T18:58:20.000Z</time><extensions/></trkpt><trkpt lat="59.38711166381836" lon="34.64763879776001"><time>2026-08-17T18:58:25.000Z</time><extensions/></trkpt><trkpt lat="59.38711166381836" lon="34.64761734008789"><time>2026-08-17T18:58:27.000Z</time><extensions/></trkpt><trkpt lat="59.38706874847412" lon="34.64766025543213"><time>2026-08-17T18:58:30.000Z</time><extensions/></trkpt><trkpt lat="59.387047290802" lon="34.647746086120605"><time>2026-08-17T18:58:32.000Z</time><extensions/></trkpt><trkpt lat="59.38702583312988" lon="34.64781045913696"><time>2026-08-17T18:58:35.000Z</time><extensions/></trkpt><trkpt lat="59.387004375457764" lon="34.64787483215332"><time>2026-08-17T18:58:37.000Z</time><extensions/></trkpt><trkpt lat="59.387004375457764" lon="34.64781045913696"><time>2026-08-17T18:58:47.000Z</time><extensions/></trkpt><trkpt lat="59.38706874847412" lon="34.647746086120605"><time>2026-08-17T18:58:50.000Z</time><extensions/></trkpt><trkpt lat="59.38711166381836" lon="34.64766025543213"><time>2026-08-17T18:58:52.000Z</time><extensions/></trkpt><trkpt lat="59.38713312149048" lon="34.64766025543213"><time>2026-08-17T18:59:02.000Z</time><extensions/></trkpt><trkpt lat="59.38717603683472" lon="34.64766025543213"><time>2026-08-17T18:59:05.000Z</time><extensions/></trkpt><trkpt lat="59.387218952178955" lon="34.64766025543213"><time>2026-08-17T18:59:07.000Z</time><extensions/></trkpt><trkpt lat="59.38726186752319" lon="34.64761734008789"><time>2026-08-17T18:59:25.000Z</time><extensions/></trkpt><trkpt lat="59.38736915588379" lon="34.64761734008789"><time>2026-08-17T18:59:55.000Z</time><extensions/></trkpt><trkpt lat="59.38741207122803" lon="34.64761734008789"><time>2026-08-17T18:59:57.000Z</time><extensions/></trkpt><trkpt lat="59.38741207122803" lon="34.64766025543213"><time>2026-08-17T19:00:02.000Z</time><extensions/></trkpt><trkpt lat="59.38743352890015" lon="34.64761734008789"><time>2026-08-17T19:00:05.000Z</time><extensions/></trkpt><trkpt lat="59.387454986572266" lon="34.64757442474365"><time>2026-08-17T19:00:07.000Z</time><extensions/></trkpt><trkpt lat="59.387476444244385" lon="34.64746713638306"><time>2026-08-17T19:00:17.000Z</time><extensions/></trkpt><trkpt lat="59.38766956329346" lon="34.64761734008789"><time>2026-08-17T19:00:47.000Z</time><extensions/></trkpt><trkpt lat="59.38766956329346" lon="34.64757442474365"><time>2026-08-17T19:00:55.000Z</time><extensions/></trkpt><trkpt lat="59.38777685165405" lon="34.647531509399414"><time>2026-08-17T19:01:10.000Z</time><extensions/></trkpt><trkpt lat="59.38784122467041" lon="34.64746713638306"><time>2026-08-17T19:01:30.000Z</time><extensions/></trkpt><trkpt lat="59.38779830932617" lon="34.64744567871094"><time>2026-08-17T19:01:32.000Z</time><extensions/></trkpt><trkpt lat="59.38781976699829" lon="34.64746713638306"><time>2026-08-17T19:02:02.000Z</time><extensions/></trkpt><trkpt lat="59.38781976699829" lon="34.64746713638306"><time>2026-08-17T19:02:05.000Z</time><extensions/></trkpt><trkpt lat="59.38784122467041" lon="34.647488594055176"><time>2026-08-17T19:02:35.000Z</time><extensions/></trkpt><trkpt lat="59.38784122467041" lon="34.64746713638306"><time>2026-08-17T19:03:05.000Z</time><extensions/></trkpt><trkpt lat="59.38784122467041" lon="34.647488594055176"><time>2026-08-17T19:03:35.000Z</time><extensions/></trkpt><trkpt lat="59.38786268234253" lon="34.64746713638306"><time>2026-08-17T19:04:05.000Z</time><extensions/></trkpt><trkpt lat="59.38784122467041" lon="34.64746713638306"><time>2026-08-17T19:04:35.000Z</time><extensions/></trkpt><trkpt lat="59.38784122467041" lon="34.64744567871094"><time>2026-08-17T19:05:05.000Z</time><extensions/></trkpt><trkpt lat="59.38784122467041" lon="34.64744567871094"><time>2026-08-17T19:05:35.000Z</time><extensions/></trkpt><trkpt lat="59.38784122467041" lon="34.64744567871094"><time>2026-08-17T19:06:05.000Z</time><extensions/></trkpt><trkpt lat="59.38784122467041" lon="34.64744567871094"><time>2026-08-17T19:06:35.000Z</time><extensions/></trkpt><trkpt lat="59.38784122467041" lon="34.64744567871094"><time>2026-08-17T19:07:05.000Z</time><extensions/></trkpt><trkpt lat="59.38784122467041" lon="34.64744567871094"><time>2026-08-17T19:07:35.000Z</time><extensions/></trkpt><trkpt lat="59.38784122467041" lon="34.64744567871094"><time>2026-08-17T19:08:05.000Z</time><extensions/></trkpt><trkpt lat="59.38790559768677" lon="34.64735984802246"><time>2026-08-17T19:08:27.000Z</time><extensions/></trkpt><trkpt lat="59.38792705535889" lon="34.647252559661865"><time>2026-08-17T19:08:45.000Z</time><extensions/></trkpt><trkpt lat="59.387948513031006" lon="34.64714527130127"><time>2026-08-17T19:08:55.000Z</time><extensions/></trkpt><trkpt lat="59.38803434371948" lon="34.64686632156372"><time>2026-08-17T19:09:25.000Z</time><extensions/></trkpt><trkpt lat="59.38803434371948" lon="34.6468448638916"><time>2026-08-17T19:09:27.000Z</time><extensions/></trkpt><trkpt lat="59.38814163208008" lon="34.646737575531006"><time>2026-08-17T19:09:55.000Z</time><extensions/></trkpt><trkpt lat="59.3881630897522" lon="34.64669466018677"><time>2026-08-17T19:09:57.000Z</time><extensions/></trkpt><trkpt lat="59.388248920440674" lon="34.64671611785889"><time>2026-08-17T19:10:05.000Z</time><extensions/></trkpt><trkpt lat="59.38827037811279" lon="34.64665174484253"><time>2026-08-17T19:10:12.000Z</time><extensions/></trkpt><trkpt lat="59.38833475112915" lon="34.64686632156372"><time>2026-08-17T19:10:37.000Z</time><extensions/></trkpt><trkpt lat="59.388463497161865" lon="34.647037982940674"><time>2026-08-17T19:11:07.000Z</time><extensions/></trkpt><trkpt lat="59.38842058181763" lon="34.64710235595703"><time>2026-08-17T19:11:10.000Z</time><extensions/></trkpt><trkpt lat="59.38842058181763" lon="34.64714527130127"><time>2026-08-17T19:11:12.000Z</time><extensions/></trkpt><trkpt lat="59.388484954833984" lon="34.64705944061279"><time>2026-08-17T19:11:22.000Z</time><extensions/></trkpt><trkpt lat="59.3885064125061" lon="34.647016525268555"><time>2026-08-17T19:11:25.000Z</time><extensions/></trkpt><trkpt lat="59.38859224319458" lon="34.6469521522522"><time>2026-08-17T19:11:32.000Z</time><extensions/></trkpt><trkpt lat="59.388720989227295" lon="34.646973609924316"><time>2026-08-17T19:11:57.000Z</time><extensions/></trkpt><trkpt lat="59.38876390457153" lon="34.6469521522522"><time>2026-08-17T19:12:27.000Z</time><extensions/></trkpt><trkpt lat="59.388720989227295" lon="34.647037982940674"><time>2026-08-17T19:12:45.000Z</time><extensions/></trkpt><trkpt lat="59.388742446899414" lon="34.64708089828491"><time>2026-08-17T19:12:50.000Z</time><extensions/></trkpt><trkpt lat="59.38876390457153" lon="34.64705944061279"><time>2026-08-17T19:12:52.000Z</time><extensions/></trkpt><trkpt lat="59.38878536224365" lon="34.647037982940674"><time>2026-08-17T19:12:55.000Z</time><extensions/></trkpt><trkpt lat="59.38891410827637" lon="34.647037982940674"><time>2026-08-17T19:13:05.000Z</time><extensions/></trkpt><trkpt lat="59.38902139663696" lon="34.64708089828491"><time>2026-08-17T19:13:22.000Z</time><extensions/></trkpt><trkpt lat="59.38904285430908" lon="34.647231101989746"><time>2026-08-17T19:13:52.000Z</time><extensions/></trkpt><trkpt lat="59.3890643119812" lon="34.64733839035034"><time>2026-08-17T19:14:07.000Z</time><extensions/></trkpt><trkpt lat="59.38904285430908" lon="34.64738130569458"><time>2026-08-17T19:14:10.000Z</time><extensions/></trkpt><trkpt lat="59.38915014266968" lon="34.64744567871094"><time>2026-08-17T19:14:40.000Z</time><extensions/></trkpt><trkpt lat="59.389235973358154" lon="34.64746713638306"><time>2026-08-17T19:14:57.000Z</time><extensions/></trkpt><trkpt lat="59.389235973358154" lon="34.64755296707153"><time>2026-08-17T19:15:25.000Z</time><extensions/></trkpt><trkpt lat="59.389235973358154" lon="34.64755296707153"><time>2026-08-17T19:15:32.000Z</time><extensions/></trkpt><trkpt lat="59.38934326171875" lon="34.64755296707153"><time>2026-08-17T19:16:00.000Z</time><extensions/></trkpt><trkpt lat="59.38936471939087" lon="34.647488594055176"><time>2026-08-17T19:16:02.000Z</time><extensions/></trkpt><trkpt lat="59.38940763473511" lon="34.647488594055176"><time>2026-08-17T19:16:05.000Z</time><extensions/></trkpt><trkpt lat="59.389450550079346" lon="34.647488594055176"><time>2026-08-17T19:16:07.000Z</time><extensions/></trkpt><trkpt lat="59.389472007751465" lon="34.64744567871094"><time>2026-08-17T19:16:10.000Z</time><extensions/></trkpt><trkpt lat="59.38942909240723" lon="34.647510051727295"><time>2026-08-17T19:16:22.000Z</time><extensions/></trkpt><trkpt lat="59.38940763473511" lon="34.647510051727295"><time>2026-08-17T19:16:25.000Z</time><extensions/></trkpt><trkpt lat="59.38936471939087" lon="34.64755296707153"><time>2026-08-17T19:16:27.000Z</time><extensions/></trkpt><trkpt lat="59.38934326171875" lon="34.64763879776001"><time>2026-08-17T19:16:30.000Z</time><extensions/></trkpt><trkpt lat="59.38936471939087" lon="34.647724628448486"><time>2026-08-17T19:16:32.000Z</time><extensions/></trkpt><trkpt lat="59.38936471939087" lon="34.647767543792725"><time>2026-08-17T19:16:35.000Z</time><extensions/></trkpt><trkpt lat="59.38940763473511" lon="34.647789001464844"><time>2026-08-17T19:16:42.000Z</time><extensions/></trkpt><trkpt lat="59.38942909240723" lon="34.6478533744812"><time>2026-08-17T19:17:12.000Z</time><extensions/></trkpt><trkpt lat="59.38966512680054" lon="34.64793920516968"><time>2026-08-17T19:17:40.000Z</time><extensions/></trkpt><trkpt lat="59.38964366912842" lon="34.647982120513916"><time>2026-08-17T19:17:42.000Z</time><extensions/></trkpt><trkpt lat="59.38966512680054" lon="34.64787483215332"><time>2026-08-17T19:17:57.000Z</time><extensions/></trkpt><trkpt lat="59.389708042144775" lon="34.64791774749756"><time>2026-08-17T19:18:22.000Z</time><extensions/></trkpt><trkpt lat="59.389708042144775" lon="34.647982120513916"><time>2026-08-17T19:18:25.000Z</time><extensions/></trkpt><trkpt lat="59.389729499816895" lon="34.64804649353027"><time>2026-08-17T19:18:37.000Z</time><extensions/></trkpt><trkpt lat="59.389729499816895" lon="34.64813232421875"><time>2026-08-17T19:18:42.000Z</time><extensions/></trkpt><trkpt lat="59.389686584472656" lon="34.64821815490723"><time>2026-08-17T19:18:47.000Z</time><extensions/></trkpt><trkpt lat="59.389708042144775" lon="34.648239612579346"><time>2026-08-17T19:19:07.000Z</time><extensions/></trkpt><trkpt lat="59.38966512680054" lon="34.648261070251465"><time>2026-08-17T19:19:10.000Z</time><extensions/></trkpt><trkpt lat="59.3896222114563" lon="34.64832544326782"><time>2026-08-17T19:19:32.000Z</time><extensions/></trkpt><trkpt lat="59.38960075378418" lon="34.6483039855957"><time>2026-08-17T19:19:37.000Z</time><extensions/></trkpt><trkpt lat="59.38957929611206" lon="34.6483039855957"><time>2026-08-17T19:19:42.000Z</time><extensions/></trkpt><trkpt lat="59.38953638076782" lon="34.64832544326782"><time>2026-08-17T19:19:45.000Z</time><extensions/></trkpt><trkpt lat="59.3895149230957" lon="34.6483039855957"><time>2026-08-17T19:20:00.000Z</time><extensions/></trkpt><trkpt lat="59.389472007751465" lon="34.64832544326782"><time>2026-08-17T19:20:02.000Z</time><extensions/></trkpt><trkpt lat="59.38940763473511" lon="34.6483039855957"><time>2026-08-17T19:20:32.000Z</time><extensions/></trkpt><trkpt lat="59.38930034637451" lon="34.64832544326782"><time>2026-08-17T19:21:02.000Z</time><extensions/></trkpt><trkpt lat="59.38927888870239" lon="34.6484112739563"><time>2026-08-17T19:21:07.000Z</time><extensions/></trkpt><trkpt lat="59.389235973358154" lon="34.64838981628418"><time>2026-08-17T19:21:22.000Z</time><extensions/></trkpt><trkpt lat="59.389235973358154" lon="34.64838981628418"><time>2026-08-17T19:21:32.000Z</time><extensions/></trkpt><trkpt lat="59.38925743103027" lon="34.64836835861206"><time>2026-08-17T19:21:35.000Z</time><extensions/></trkpt><trkpt lat="59.38934326171875" lon="34.6483039855957"><time>2026-08-17T19:21:52.000Z</time><extensions/></trkpt><trkpt lat="59.38938617706299" lon="34.64819669723511"><time>2026-08-17T19:22:07.000Z</time><extensions/></trkpt><trkpt lat="59.38940763473511" lon="34.648239612579346"><time>2026-08-17T19:22:35.000Z</time><extensions/></trkpt><trkpt lat="59.38938617706299" lon="34.64817523956299"><time>2026-08-17T19:22:37.000Z</time><extensions/></trkpt><trkpt lat="59.38942909240723" lon="34.64815378189087"><time>2026-08-17T19:22:40.000Z</time><extensions/></trkpt><trkpt lat="59.389450550079346" lon="34.64813232421875"><time>2026-08-17T19:22:42.000Z</time><extensions/></trkpt><trkpt lat="59.38955783843994" lon="34.64819669723511"><time>2026-08-17T19:23:07.000Z</time><extensions/></trkpt><trkpt lat="59.38957929611206" lon="34.64821815490723"><time>2026-08-17T19:23:10.000Z</time><extensions/></trkpt><trkpt lat="59.38960075378418" lon="34.64817523956299"><time>2026-08-17T19:23:12.000Z</time><extensions/></trkpt><trkpt lat="59.3896222114563" lon="34.64817523956299"><time>2026-08-17T19:23:15.000Z</time><extensions/></trkpt><trkpt lat="59.38964366912842" lon="34.64819669723511"><time>2026-08-17T19:23:30.000Z</time><extensions/></trkpt><trkpt lat="59.3896222114563" lon="34.64817523956299"><time>2026-08-17T19:23:35.000Z</time><extensions/></trkpt><trkpt lat="59.38960075378418" lon="34.64815378189087"><time>2026-08-17T19:23:50.000Z</time><extensions/></trkpt><trkpt lat="59.389686584472656" lon="34.64808940887451"><time>2026-08-17T19:24:20.000Z</time><extensions/></trkpt><trkpt lat="59.389729499816895" lon="34.64811086654663"><time>2026-08-17T19:24:32.000Z</time><extensions/></trkpt><trkpt lat="59.38981533050537" lon="34.64815378189087"><time>2026-08-17T19:25:02.000Z</time><extensions/></trkpt><trkpt lat="59.389986991882324" lon="34.64815378189087"><time>2026-08-17T19:25:32.000Z</time><extensions/></trkpt><trkpt lat="59.39009428024292" lon="34.64817523956299"><time>2026-08-17T19:25:47.000Z</time><extensions/></trkpt><trkpt lat="59.39009428024292" lon="34.64817523956299"><time>2026-08-17T19:25:50.000Z</time><extensions/></trkpt><trkpt lat="59.39013719558716" lon="34.64821815490723"><time>2026-08-17T19:25:55.000Z</time><extensions/></trkpt><trkpt lat="59.39015865325928" lon="34.648239612579346"><time>2026-08-17T19:25:57.000Z</time><extensions/></trkpt><trkpt lat="59.3901801109314" lon="34.648261070251465"><time>2026-08-17T19:26:27.000Z</time><extensions/></trkpt><trkpt lat="59.39015865325928" lon="34.64821815490723"><time>2026-08-17T19:26:45.000Z</time><extensions/></trkpt><trkpt lat="59.39015865325928" lon="34.64821815490723"><time>2026-08-17T19:27:15.000Z</time><extensions/></trkpt><trkpt lat="59.39015865325928" lon="34.64819669723511"><time>2026-08-17T19:27:45.000Z</time><extensions/></trkpt><trkpt lat="59.3901801109314" lon="34.648239612579346"><time>2026-08-17T19:28:15.000Z</time><extensions/></trkpt><trkpt lat="59.39015865325928" lon="34.64821815490723"><time>2026-08-17T19:28:45.000Z</time><extensions/></trkpt><trkpt lat="59.39015865325928" lon="34.64821815490723"><time>2026-08-17T19:29:15.000Z</time><extensions/></trkpt><trkpt lat="59.39028739929199" lon="34.64834690093994"><time>2026-08-17T19:29:45.000Z</time><extensions/></trkpt><trkpt lat="59.39028739929199" lon="34.64834690093994"><time>2026-08-17T19:29:47.000Z</time><extensions/></trkpt><trkpt lat="59.39030885696411" lon="34.64832544326782"><time>2026-08-17T19:30:17.000Z</time><extensions/></trkpt><trkpt lat="59.39033031463623" lon="34.6483039855957"><time>2026-08-17T19:30:47.000Z</time><extensions/></trkpt><trkpt lat="59.39037322998047" lon="34.64834690093994"><time>2026-08-17T19:31:02.000Z</time><extensions/></trkpt><trkpt lat="59.390501976013184" lon="34.64834690093994"><time>2026-08-17T19:31:07.000Z</time><extensions/></trkpt><trkpt lat="59.39054489135742" lon="34.64838981628418"><time>2026-08-17T19:31:10.000Z</time><extensions/></trkpt><trkpt lat="59.3906307220459" lon="34.648518562316895"><time>2026-08-17T19:31:40.000Z</time><extensions/></trkpt><trkpt lat="59.3906307220459" lon="34.648497104644775"><time>2026-08-17T19:31:42.000Z</time><extensions/></trkpt><trkpt lat="59.390695095062256" lon="34.648475646972656"><time>2026-08-17T19:31:45.000Z</time><extensions/></trkpt><trkpt lat="59.390716552734375" lon="34.648518562316895"><time>2026-08-17T19:31:47.000Z</time><extensions/></trkpt><trkpt lat="59.39075946807861" lon="34.64856147766113"><time>2026-08-17T19:31:50.000Z</time><extensions/></trkpt><trkpt lat="59.39078092575073" lon="34.64858293533325"><time>2026-08-17T19:31:52.000Z</time><extensions/></trkpt><trkpt lat="59.39078092575073" lon="34.648776054382324"><time>2026-08-17T19:32:05.000Z</time><extensions/></trkpt><trkpt lat="59.39078092575073" lon="34.64884042739868"><time>2026-08-17T19:32:07.000Z</time><extensions/></trkpt><trkpt lat="59.39078092575073" lon="34.6488618850708"><time>2026-08-17T19:32:20.000Z</time><extensions/></trkpt><trkpt lat="59.39080238342285" lon="34.64884042739868"><time>2026-08-17T19:32:50.000Z</time><extensions/></trkpt><trkpt lat="59.39080238342285" lon="34.64884042739868"><time>2026-08-17T19:32:55.000Z</time><extensions/></trkpt><trkpt lat="59.39078092575073" lon="34.64890480041504"><time>2026-08-17T19:33:15.000Z</time><extensions/></trkpt><trkpt lat="59.39080238342285" lon="34.64907646179199"><time>2026-08-17T19:33:30.000Z</time><extensions/></trkpt><trkpt lat="59.39082384109497" lon="34.649012088775635"><time>2026-08-17T19:33:32.000Z</time><extensions/></trkpt><trkpt lat="59.39086675643921" lon="34.64894771575928"><time>2026-08-17T19:33:35.000Z</time><extensions/></trkpt><trkpt lat="59.39088821411133" lon="34.64894771575928"><time>2026-08-17T19:33:37.000Z</time><extensions/></trkpt><trkpt lat="59.39090967178345" lon="34.64894771575928"><time>2026-08-17T19:33:40.000Z</time><extensions/></trkpt><trkpt lat="59.390931129455566" lon="34.648990631103516"><time>2026-08-17T19:33:42.000Z</time><extensions/></trkpt><trkpt lat="59.390974044799805" lon="34.64888334274292"><time>2026-08-17T19:33:50.000Z</time><extensions/></trkpt><trkpt lat="59.390995502471924" lon="34.64884042739868"><time>2026-08-17T19:33:52.000Z</time><extensions/></trkpt><trkpt lat="59.39101696014404" lon="34.64881896972656"><time>2026-08-17T19:33:55.000Z</time><extensions/></trkpt><trkpt lat="59.3910813331604" lon="34.64884042739868"><time>2026-08-17T19:34:10.000Z</time><extensions/></trkpt><trkpt lat="59.39114570617676" lon="34.64879751205444"><time>2026-08-17T19:34:40.000Z</time><extensions/></trkpt><trkpt lat="59.39114570617676" lon="34.64881896972656"><time>2026-08-17T19:35:00.000Z</time><extensions/></trkpt><trkpt lat="59.391188621520996" lon="34.64884042739868"><time>2026-08-17T19:35:05.000Z</time><extensions/></trkpt><trkpt lat="59.391210079193115" lon="34.6488618850708"><time>2026-08-17T19:35:07.000Z</time><extensions/></trkpt><trkpt lat="59.39140319824219" lon="34.648776054382324"><time>2026-08-17T19:35:32.000Z</time><extensions/></trkpt><trkpt lat="59.391467571258545" lon="34.648776054382324"><time>2026-08-17T19:35:37.000Z</time><extensions/></trkpt><trkpt lat="59.39155340194702" lon="34.64881896972656"><time>2026-08-17T19:36:00.000Z</time><extensions/></trkpt><trkpt lat="59.39157485961914" lon="34.64890480041504"><time>2026-08-17T19:36:17.000Z</time><extensions/></trkpt><trkpt lat="59.391703605651855" lon="34.649033546447754"><time>2026-08-17T19:36:47.000Z</time><extensions/></trkpt><trkpt lat="59.39176797866821" lon="34.64909791946411"><time>2026-08-17T19:36:57.000Z</time><extensions/></trkpt><trkpt lat="59.39183235168457" lon="34.64920520782471"><time>2026-08-17T19:37:12.000Z</time><extensions/></trkpt><trkpt lat="59.39185380935669" lon="34.649269580841064"><time>2026-08-17T19:37:25.000Z</time><extensions/></trkpt><trkpt lat="59.39187526702881" lon="34.64959144592285"><time>2026-08-17T19:37:55.000Z</time><extensions/></trkpt><trkpt lat="59.391961097717285" lon="34.64982748031616"><time>2026-08-17T19:38:25.000Z</time><extensions/></trkpt><trkpt lat="59.39189672470093" lon="34.64989185333252"><time>2026-08-17T19:38:55.000Z</time><extensions/></trkpt><trkpt lat="59.39189672470093" lon="34.64989185333252"><time>2026-08-17T19:39:00.000Z</time><extensions/></trkpt><trkpt lat="59.39183235168457" lon="34.65014934539795"><time>2026-08-17T19:39:27.000Z</time><extensions/></trkpt><trkpt lat="59.39181089401245" lon="34.650278091430664"><time>2026-08-17T19:39:35.000Z</time><extensions/></trkpt><trkpt lat="59.39181089401245" lon="34.6503210067749"><time>2026-08-17T19:40:05.000Z</time><extensions/></trkpt><trkpt lat="59.39181089401245" lon="34.65029954910278"><time>2026-08-17T19:40:22.000Z</time><extensions/></trkpt><trkpt lat="59.39183235168457" lon="34.65029954910278"><time>2026-08-17T19:40:27.000Z</time><extensions/></trkpt><trkpt lat="59.39183235168457" lon="34.65029954910278"><time>2026-08-17T19:40:57.000Z</time><extensions/></trkpt><trkpt lat="59.39183235168457" lon="34.650514125823975"><time>2026-08-17T19:41:20.000Z</time><extensions/></trkpt><trkpt lat="59.39185380935669" lon="34.65059995651245"><time>2026-08-17T19:41:30.000Z</time><extensions/></trkpt><trkpt lat="59.39189672470093" lon="34.65066432952881"><time>2026-08-17T19:42:00.000Z</time><extensions/></trkpt><trkpt lat="59.391982555389404" lon="34.65079307556152"><time>2026-08-17T19:42:25.000Z</time><extensions/></trkpt><trkpt lat="59.39200401306152" lon="34.650728702545166"><time>2026-08-17T19:42:52.000Z</time><extensions/></trkpt><trkpt lat="59.39202547073364" lon="34.65070724487305"><time>2026-08-17T19:42:55.000Z</time><extensions/></trkpt><trkpt lat="59.39215421676636" lon="34.650535583496094"><time>2026-08-17T19:43:05.000Z</time><extensions/></trkpt><trkpt lat="59.39217567443848" lon="34.650492668151855"><time>2026-08-17T19:43:07.000Z</time><extensions/></trkpt><trkpt lat="59.392197132110596" lon="34.650471210479736"><time>2026-08-17T19:43:10.000Z</time><extensions/></trkpt><trkpt lat="59.39239025115967" lon="34.650256633758545"><time>2026-08-17T19:43:37.000Z</time><extensions/></trkpt><trkpt lat="59.392476081848145" lon="34.65017080307007"><time>2026-08-17T19:43:50.000Z</time><extensions/></trkpt><trkpt lat="59.39256191253662" lon="34.649999141693115"><time>2026-08-17T19:44:20.000Z</time><extensions/></trkpt><trkpt lat="59.39262628555298" lon="34.650020599365234"><time>2026-08-17T19:44:32.000Z</time><extensions/></trkpt><trkpt lat="59.3926477432251" lon="34.649999141693115"><time>2026-08-17T19:44:35.000Z</time><extensions/></trkpt><trkpt lat="59.39286231994629" lon="34.64993476867676"><time>2026-08-17T19:45:02.000Z</time><extensions/></trkpt><trkpt lat="59.392969608306885" lon="34.64982748031616"><time>2026-08-17T19:45:17.000Z</time><extensions/></trkpt><trkpt lat="59.392991065979004" lon="34.64980602264404"><time>2026-08-17T19:45:20.000Z</time><extensions/></trkpt><trkpt lat="59.39303398132324" lon="34.649784564971924"><time>2026-08-17T19:45:22.000Z</time><extensions/></trkpt><trkpt lat="59.39307689666748" lon="34.649741649627686"><time>2026-08-17T19:45:25.000Z</time><extensions/></trkpt><trkpt lat="59.393205642700195" lon="34.64954853057861"><time>2026-08-17T19:45:55.000Z</time><extensions/></trkpt><trkpt lat="59.39339876174927" lon="34.64933395385742"><time>2026-08-17T19:46:20.000Z</time><extensions/></trkpt><trkpt lat="59.393463134765625" lon="34.64918375015259"><time>2026-08-17T19:46:50.000Z</time><extensions/></trkpt><trkpt lat="59.39352750778198" lon="34.64914083480835"><time>2026-08-17T19:47:15.000Z</time><extensions/></trkpt><trkpt lat="59.39352750778198" lon="34.64911937713623"><time>2026-08-17T19:47:37.000Z</time><extensions/></trkpt><trkpt lat="59.39359188079834" lon="34.64909791946411"><time>2026-08-17T19:47:42.000Z</time><extensions/></trkpt><trkpt lat="59.39363479614258" lon="34.649033546447754"><time>2026-08-17T19:48:12.000Z</time><extensions/></trkpt><trkpt lat="59.39363479614258" lon="34.649033546447754"><time>2026-08-17T19:48:15.000Z</time><extensions/></trkpt><trkpt lat="59.39376354217529" lon="34.64918375015259"><time>2026-08-17T19:48:40.000Z</time><extensions/></trkpt><trkpt lat="59.39378499984741" lon="34.649248123168945"><time>2026-08-17T19:48:42.000Z</time><extensions/></trkpt><trkpt lat="59.39378499984741" lon="34.649291038513184"><time>2026-08-17T19:48:47.000Z</time><extensions/></trkpt><trkpt lat="59.39380645751953" lon="34.64935541152954"><time>2026-08-17T19:48:50.000Z</time><extensions/></trkpt><trkpt lat="59.39382791519165" lon="34.64939832687378"><time>2026-08-17T19:48:52.000Z</time><extensions/></trkpt><trkpt lat="59.39384937286377" lon="34.6494197845459"><time>2026-08-17T19:49:07.000Z</time><extensions/></trkpt><trkpt lat="59.39387083053589" lon="34.649484157562256"><time>2026-08-17T19:49:20.000Z</time><extensions/></trkpt><trkpt lat="59.39389228820801" lon="34.64954853057861"><time>2026-08-17T19:49:22.000Z</time><extensions/></trkpt><trkpt lat="59.39404249191284" lon="34.6498703956604"><time>2026-08-17T19:49:47.000Z</time><extensions/></trkpt><trkpt lat="59.39414978027344" lon="34.65017080307007"><time>2026-08-17T19:50:07.000Z</time><extensions/></trkpt><trkpt lat="59.39417123794556" lon="34.65021371841431"><time>2026-08-17T19:50:10.000Z</time><extensions/></trkpt><trkpt lat="59.394192695617676" lon="34.650256633758545"><time>2026-08-17T19:50:12.000Z</time><extensions/></trkpt><trkpt lat="59.39427852630615" lon="34.65040683746338"><time>2026-08-17T19:50:30.000Z</time><extensions/></trkpt><trkpt lat="59.39432144165039" lon="34.650471210479736"><time>2026-08-17T19:50:32.000Z</time><extensions/></trkpt><trkpt lat="59.39434289932251" lon="34.650514125823975"><time>2026-08-17T19:50:35.000Z</time><extensions/></trkpt><trkpt lat="59.394493103027344" lon="34.650771617889404"><time>2026-08-17T19:50:55.000Z</time><extensions/></trkpt><trkpt lat="59.39453601837158" lon="34.65081453323364"><time>2026-08-17T19:51:00.000Z</time><extensions/></trkpt><trkpt lat="59.3945574760437" lon="34.65085744857788"><time>2026-08-17T19:51:02.000Z</time><extensions/></trkpt><trkpt lat="59.39457893371582" lon="34.65090036392212"><time>2026-08-17T19:51:05.000Z</time><extensions/></trkpt><trkpt lat="59.39460039138794" lon="34.65096473693848"><time>2026-08-17T19:51:10.000Z</time><extensions/></trkpt><trkpt lat="59.39462184906006" lon="34.651007652282715"><time>2026-08-17T19:51:12.000Z</time><extensions/></trkpt><trkpt lat="59.39464330673218" lon="34.651029109954834"><time>2026-08-17T19:51:15.000Z</time><extensions/></trkpt><trkpt lat="59.394686222076416" lon="34.65107202529907"><time>2026-08-17T19:51:17.000Z</time><extensions/></trkpt><trkpt lat="59.394707679748535" lon="34.65111494064331"><time>2026-08-17T19:51:20.000Z</time><extensions/></trkpt><trkpt lat="59.394729137420654" lon="34.65113639831543"><time>2026-08-17T19:51:22.000Z</time><extensions/></trkpt><trkpt lat="59.39475059509277" lon="34.65111494064331"><time>2026-08-17T19:51:25.000Z</time><extensions/></trkpt><trkpt lat="59.39481496810913" lon="34.651243686676025"><time>2026-08-17T19:51:35.000Z</time><extensions/></trkpt><trkpt lat="59.39487934112549" lon="34.65137243270874"><time>2026-08-17T19:51:45.000Z</time><extensions/></trkpt><trkpt lat="59.39492225646973" lon="34.65141534805298"><time>2026-08-17T19:51:57.000Z</time><extensions/></trkpt><trkpt lat="59.394965171813965" lon="34.65145826339722"><time>2026-08-17T19:52:00.000Z</time><extensions/></trkpt><trkpt lat="59.394986629486084" lon="34.651501178741455"><time>2026-08-17T19:52:02.000Z</time><extensions/></trkpt><trkpt lat="59.39502954483032" lon="34.651501178741455"><time>2026-08-17T19:52:05.000Z</time><extensions/></trkpt><trkpt lat="59.39505100250244" lon="34.651522636413574"><time>2026-08-17T19:52:12.000Z</time><extensions/></trkpt><trkpt lat="59.39509391784668" lon="34.65158700942993"><time>2026-08-17T19:52:15.000Z</time><extensions/></trkpt><trkpt lat="59.39513683319092" lon="34.65167284011841"><time>2026-08-17T19:52:20.000Z</time><extensions/></trkpt><trkpt lat="59.395201206207275" lon="34.651780128479004"><time>2026-08-17T19:52:32.000Z</time><extensions/></trkpt><trkpt lat="59.39526557922363" lon="34.65184450149536"><time>2026-08-17T19:52:37.000Z</time><extensions/></trkpt><trkpt lat="59.39535140991211" lon="34.651994705200195"><time>2026-08-17T19:52:55.000Z</time><extensions/></trkpt><trkpt lat="59.39537286758423" lon="34.652037620544434"><time>2026-08-17T19:52:57.000Z</time><extensions/></trkpt><trkpt lat="59.39541578292847" lon="34.65205907821655"><time>2026-08-17T19:53:00.000Z</time><extensions/></trkpt><trkpt lat="59.395437240600586" lon="34.65210199356079"><time>2026-08-17T19:53:02.000Z</time><extensions/></trkpt><trkpt lat="59.39560890197754" lon="34.65238094329834"><time>2026-08-17T19:53:30.000Z</time><extensions/></trkpt><trkpt lat="59.39565181732178" lon="34.6524453163147"><time>2026-08-17T19:53:47.000Z</time><extensions/></trkpt><trkpt lat="59.39578056335449" lon="34.6527886390686"><time>2026-08-17T19:54:15.000Z</time><extensions/></trkpt><trkpt lat="59.39580202102661" lon="34.65281009674072"><time>2026-08-17T19:54:17.000Z</time><extensions/></trkpt><trkpt lat="59.39582347869873" lon="34.65287446975708"><time>2026-08-17T19:54:20.000Z</time><extensions/></trkpt><trkpt lat="59.39584493637085" lon="34.65296030044556"><time>2026-08-17T19:54:22.000Z</time><extensions/></trkpt><trkpt lat="59.39588785171509" lon="34.653024673461914"><time>2026-08-17T19:54:45.000Z</time><extensions/></trkpt><trkpt lat="59.39590930938721" lon="34.65306758880615"><time>2026-08-17T19:54:47.000Z</time><extensions/></trkpt><trkpt lat="59.395973682403564" lon="34.65332508087158"><time>2026-08-17T19:55:17.000Z</time><extensions/></trkpt><trkpt lat="59.395995140075684" lon="34.65330362319946"><time>2026-08-17T19:55:40.000Z</time><extensions/></trkpt><trkpt lat="59.3960165977478" lon="34.65336799621582"><time>2026-08-17T19:55:42.000Z</time><extensions/></trkpt><trkpt lat="59.3960165977478" lon="34.6533465385437"><time>2026-08-17T19:55:50.000Z</time><extensions/></trkpt><trkpt lat="59.39603805541992" lon="34.65341091156006"><time>2026-08-17T19:55:57.000Z</time><extensions/></trkpt><trkpt lat="59.39605951309204" lon="34.653475284576416"><time>2026-08-17T19:56:00.000Z</time><extensions/></trkpt><trkpt lat="59.39608097076416" lon="34.65353965759277"><time>2026-08-17T19:56:02.000Z</time><extensions/></trkpt><trkpt lat="59.39610242843628" lon="34.65360403060913"><time>2026-08-17T19:56:05.000Z</time><extensions/></trkpt><trkpt lat="59.39616680145264" lon="34.6537971496582"><time>2026-08-17T19:56:12.000Z</time><extensions/></trkpt><trkpt lat="59.39616680145264" lon="34.65388298034668"><time>2026-08-17T19:56:25.000Z</time><extensions/></trkpt><trkpt lat="59.396188259124756" lon="34.65394735336304"><time>2026-08-17T19:56:27.000Z</time><extensions/></trkpt><trkpt lat="59.396209716796875" lon="34.653968811035156"><time>2026-08-17T19:56:30.000Z</time><extensions/></trkpt><trkpt lat="59.396209716796875" lon="34.65394735336304"><time>2026-08-17T19:56:35.000Z</time><extensions/></trkpt><trkpt lat="59.39627408981323" lon="34.65409755706787"><time>2026-08-17T19:56:55.000Z</time><extensions/></trkpt><trkpt lat="59.39629554748535" lon="34.65418338775635"><time>2026-08-17T19:57:10.000Z</time><extensions/></trkpt><trkpt lat="59.39627408981323" lon="34.65416193008423"><time>2026-08-17T19:57:17.000Z</time><extensions/></trkpt><trkpt lat="59.39625263214111" lon="34.65411901473999"><time>2026-08-17T19:57:27.000Z</time><extensions/></trkpt><trkpt lat="59.39625263214111" lon="34.65411901473999"><time>2026-08-17T19:57:57.000Z</time><extensions/></trkpt><trkpt lat="59.39627408981323" lon="34.65416193008423"><time>2026-08-17T19:58:02.000Z</time><extensions/></trkpt><trkpt lat="59.39631700515747" lon="34.654226303100586"><time>2026-08-17T19:58:05.000Z</time><extensions/></trkpt><trkpt lat="59.39635992050171" lon="34.65433359146118"><time>2026-08-17T19:58:20.000Z</time><extensions/></trkpt><trkpt lat="59.39640283584595" lon="34.65444087982178"><time>2026-08-17T19:58:25.000Z</time><extensions/></trkpt><trkpt lat="59.39638137817383" lon="34.65439796447754"><time>2026-08-17T19:58:37.000Z</time><extensions/></trkpt><trkpt lat="59.39635992050171" lon="34.6543550491333"><time>2026-08-17T19:58:40.000Z</time><extensions/></trkpt><trkpt lat="59.39635992050171" lon="34.65439796447754"><time>2026-08-17T19:58:42.000Z</time><extensions/></trkpt><trkpt lat="59.39640283584595" lon="34.65441942214966"><time>2026-08-17T19:58:45.000Z</time><extensions/></trkpt><trkpt lat="59.396445751190186" lon="34.65444087982178"><time>2026-08-17T19:58:47.000Z</time><extensions/></trkpt><trkpt lat="59.396467208862305" lon="34.654483795166016"><time>2026-08-17T19:58:50.000Z</time><extensions/></trkpt><trkpt lat="59.39651012420654" lon="34.654526710510254"><time>2026-08-17T19:58:52.000Z</time><extensions/></trkpt><trkpt lat="59.396445751190186" lon="34.6544623374939"><time>2026-08-17T19:59:07.000Z</time><extensions/></trkpt><trkpt lat="59.396445751190186" lon="34.654483795166016"><time>2026-08-17T19:59:20.000Z</time><extensions/></trkpt><trkpt lat="59.396467208862305" lon="34.65454816818237"><time>2026-08-17T19:59:22.000Z</time><extensions/></trkpt><trkpt lat="59.39651012420654" lon="34.65456962585449"><time>2026-08-17T19:59:25.000Z</time><extensions/></trkpt><trkpt lat="59.39653158187866" lon="34.65454816818237"><time>2026-08-17T19:59:27.000Z</time><extensions/></trkpt><trkpt lat="59.39655303955078" lon="34.65459108352661"><time>2026-08-17T19:59:37.000Z</time><extensions/></trkpt><trkpt lat="59.3965744972229" lon="34.65465545654297"><time>2026-08-17T19:59:40.000Z</time><extensions/></trkpt><trkpt lat="59.39659595489502" lon="34.65469837188721"><time>2026-08-17T19:59:42.000Z</time><extensions/></trkpt><trkpt lat="59.39661741256714" lon="34.65469837188721"><time>2026-08-17T19:59:45.000Z</time><extensions/></trkpt><trkpt lat="59.39663887023926" lon="34.654741287231445"><time>2026-08-17T19:59:47.000Z</time><extensions/></trkpt><trkpt lat="59.39666032791138" lon="34.654762744903564"><time>2026-08-17T19:59:50.000Z</time><extensions/></trkpt><trkpt lat="59.396681785583496" lon="34.654741287231445"><time>2026-08-17T20:00:00.000Z</time><extensions/></trkpt><trkpt lat="59.396703243255615" lon="34.65482711791992"><time>2026-08-17T20:00:02.000Z</time><extensions/></trkpt><trkpt lat="59.39674615859985" lon="34.65489149093628"><time>2026-08-17T20:00:05.000Z</time><extensions/></trkpt><trkpt lat="59.39678907394409" lon="34.65495586395264"><time>2026-08-17T20:00:07.000Z</time><extensions/></trkpt><trkpt lat="59.39676761627197" lon="34.65493440628052"><time>2026-08-17T20:00:15.000Z</time><extensions/></trkpt><trkpt lat="59.396724700927734" lon="34.6549129486084"><time>2026-08-17T20:00:30.000Z</time><extensions/></trkpt><trkpt lat="59.396703243255615" lon="34.65489149093628"><time>2026-08-17T20:00:52.000Z</time><extensions/></trkpt><trkpt lat="59.396703243255615" lon="34.65489149093628"><time>2026-08-17T20:01:22.000Z</time><extensions/></trkpt><trkpt lat="59.396703243255615" lon="34.65487003326416"><time>2026-08-17T20:01:52.000Z</time><extensions/></trkpt><trkpt lat="59.396703243255615" lon="34.65487003326416"><time>2026-08-17T20:02:22.000Z</time><extensions/></trkpt><trkpt lat="59.396703243255615" lon="34.65487003326416"><time>2026-08-17T20:02:52.000Z</time><extensions/></trkpt><trkpt lat="59.396703243255615" lon="34.65487003326416"><time>2026-08-17T20:03:22.000Z</time><extensions/></trkpt><trkpt lat="59.396724700927734" lon="34.65489149093628"><time>2026-08-17T20:03:52.000Z</time><extensions/></trkpt><trkpt lat="59.396724700927734" lon="34.65489149093628"><time>2026-08-17T20:04:22.000Z</time><extensions/></trkpt><trkpt lat="59.396724700927734" lon="34.65489149093628"><time>2026-08-17T20:04:52.000Z</time><extensions/></trkpt><trkpt lat="59.396724700927734" lon="34.65489149093628"><time>2026-08-17T20:05:22.000Z</time><extensions/></trkpt><trkpt lat="59.39674615859985" lon="34.65495586395264"><time>2026-08-17T20:05:45.000Z</time><extensions/></trkpt><trkpt lat="59.39681053161621" lon="34.65506315231323"><time>2026-08-17T20:05:50.000Z</time><extensions/></trkpt><trkpt lat="59.39685344696045" lon="34.65514898300171"><time>2026-08-17T20:06:00.000Z</time><extensions/></trkpt><trkpt lat="59.39689636230469" lon="34.65514898300171"><time>2026-08-17T20:06:02.000Z</time><extensions/></trkpt><trkpt lat="59.396982192993164" lon="34.65519189834595"><time>2026-08-17T20:06:10.000Z</time><extensions/></trkpt><trkpt lat="59.39704656600952" lon="34.655213356018066"><time>2026-08-17T20:06:17.000Z</time><extensions/></trkpt><trkpt lat="59.39711093902588" lon="34.655256271362305"><time>2026-08-17T20:06:27.000Z</time><extensions/></trkpt><trkpt lat="59.39715385437012" lon="34.655277729034424"><time>2026-08-17T20:06:30.000Z</time><extensions/></trkpt><trkpt lat="59.397239685058594" lon="34.6553635597229"><time>2026-08-17T20:06:40.000Z</time><extensions/></trkpt><trkpt lat="59.39728260040283" lon="34.65542793273926"><time>2026-08-17T20:06:47.000Z</time><extensions/></trkpt><trkpt lat="59.39732551574707" lon="34.65544939041138"><time>2026-08-17T20:06:50.000Z</time><extensions/></trkpt><trkpt lat="59.397454261779785" lon="34.655771255493164"><time>2026-08-17T20:07:20.000Z</time><extensions/></trkpt><trkpt lat="59.397475719451904" lon="34.65583562850952"><time>2026-08-17T20:07:22.000Z</time><extensions/></trkpt><trkpt lat="59.397475719451904" lon="34.65587854385376"><time>2026-08-17T20:07:40.000Z</time><extensions/></trkpt><trkpt lat="59.39751863479614" lon="34.655985832214355"><time>2026-08-17T20:07:45.000Z</time><extensions/></trkpt><trkpt lat="59.39751863479614" lon="34.65605020523071"><time>2026-08-17T20:07:47.000Z</time><extensions/></trkpt><trkpt lat="59.39760446548462" lon="34.65630769729614"><time>2026-08-17T20:08:00.000Z</time><extensions/></trkpt><trkpt lat="59.39762592315674" lon="34.65643644332886"><time>2026-08-17T20:08:07.000Z</time><extensions/></trkpt><trkpt lat="59.39766883850098" lon="34.65658664703369"><time>2026-08-17T20:08:25.000Z</time><extensions/></trkpt><trkpt lat="59.397690296173096" lon="34.65660810470581"><time>2026-08-17T20:08:27.000Z</time><extensions/></trkpt><trkpt lat="59.397711753845215" lon="34.656715393066406"><time>2026-08-17T20:08:40.000Z</time><extensions/></trkpt><trkpt lat="59.397733211517334" lon="34.656822681427"><time>2026-08-17T20:08:42.000Z</time><extensions/></trkpt><trkpt lat="59.39775466918945" lon="34.65690851211548"><time>2026-08-17T20:08:45.000Z</time><extensions/></trkpt><trkpt lat="59.39775466918945" lon="34.656972885131836"><time>2026-08-17T20:08:47.000Z</time><extensions/></trkpt><trkpt lat="59.39777612686157" lon="34.65703725814819"><time>2026-08-17T20:08:57.000Z</time><extensions/></trkpt><trkpt lat="59.39781904220581" lon="34.65710163116455"><time>2026-08-17T20:09:00.000Z</time><extensions/></trkpt><trkpt lat="59.39781904220581" lon="34.65712308883667"><time>2026-08-17T20:09:07.000Z</time><extensions/></trkpt><trkpt lat="59.39784049987793" lon="34.65720891952515"><time>2026-08-17T20:09:10.000Z</time><extensions/></trkpt><trkpt lat="59.39786195755005" lon="34.65729475021362"><time>2026-08-17T20:09:12.000Z</time><extensions/></trkpt><trkpt lat="59.39788341522217" lon="34.65735912322998"><time>2026-08-17T20:09:15.000Z</time><extensions/></trkpt><trkpt lat="59.39790487289429" lon="34.65740203857422"><time>2026-08-17T20:09:17.000Z</time><extensions/></trkpt><trkpt lat="59.397926330566406" lon="34.657509326934814"><time>2026-08-17T20:09:30.000Z</time><extensions/></trkpt><trkpt lat="59.397990703582764" lon="34.65759515762329"><time>2026-08-17T20:09:37.000Z</time><extensions/></trkpt><trkpt lat="59.398033618927" lon="34.65759515762329"><time>2026-08-17T20:09:40.000Z</time><extensions/></trkpt><trkpt lat="59.39805507659912" lon="34.65761661529541"><time>2026-08-17T20:09:42.000Z</time><extensions/></trkpt><trkpt lat="59.39805507659912" lon="34.65765953063965"><time>2026-08-17T20:09:45.000Z</time><extensions/></trkpt><trkpt lat="59.398033618927" lon="34.65763807296753"><time>2026-08-17T20:09:47.000Z</time><extensions/></trkpt><trkpt lat="59.397969245910645" lon="34.65755224227905"><time>2026-08-17T20:09:55.000Z</time><extensions/></trkpt><trkpt lat="59.397969245910645" lon="34.657530784606934"><time>2026-08-17T20:09:57.000Z</time><extensions/></trkpt><trkpt lat="59.397990703582764" lon="34.65759515762329"><time>2026-08-17T20:10:00.000Z</time><extensions/></trkpt><trkpt lat="59.398033618927" lon="34.65765953063965"><time>2026-08-17T20:10:02.000Z</time><extensions/></trkpt><trkpt lat="59.39816236495972" lon="34.657766819000244"><time>2026-08-17T20:10:30.000Z</time><extensions/></trkpt><trkpt lat="59.398205280303955" lon="34.657766819000244"><time>2026-08-17T20:10:32.000Z</time><extensions/></trkpt><trkpt lat="59.398226737976074" lon="34.65778827667236"><time>2026-08-17T20:10:35.000Z</time><extensions/></trkpt><trkpt lat="59.39826965332031" lon="34.65780973434448"><time>2026-08-17T20:10:37.000Z</time><extensions/></trkpt><trkpt lat="59.39829111099243" lon="34.65785264968872"><time>2026-08-17T20:10:55.000Z</time><extensions/></trkpt><trkpt lat="59.39833402633667" lon="34.65789556503296"><time>2026-08-17T20:11:00.000Z</time><extensions/></trkpt><trkpt lat="59.39835548400879" lon="34.6579384803772"><time>2026-08-17T20:11:02.000Z</time><extensions/></trkpt><trkpt lat="59.39839839935303" lon="34.657981395721436"><time>2026-08-17T20:11:05.000Z</time><extensions/></trkpt><trkpt lat="59.39841985702515" lon="34.658002853393555"><time>2026-08-17T20:11:07.000Z</time><extensions/></trkpt><trkpt lat="59.39852714538574" lon="34.65813159942627"><time>2026-08-17T20:11:17.000Z</time><extensions/></trkpt><trkpt lat="59.39852714538574" lon="34.65815305709839"><time>2026-08-17T20:11:22.000Z</time><extensions/></trkpt><trkpt lat="59.39857006072998" lon="34.65819597244263"><time>2026-08-17T20:11:25.000Z</time><extensions/></trkpt><trkpt lat="59.3985915184021" lon="34.658217430114746"><time>2026-08-17T20:11:37.000Z</time><extensions/></trkpt><trkpt lat="59.39863443374634" lon="34.658238887786865"><time>2026-08-17T20:11:45.000Z</time><extensions/></trkpt><trkpt lat="59.398677349090576" lon="34.65830326080322"><time>2026-08-17T20:11:50.000Z</time><extensions/></trkpt><trkpt lat="59.398720264434814" lon="34.65836763381958"><time>2026-08-17T20:11:52.000Z</time><extensions/></trkpt><trkpt lat="59.398720264434814" lon="34.65841054916382"><time>2026-08-17T20:11:55.000Z</time><extensions/></trkpt><trkpt lat="59.39876317977905" lon="34.65845346450806"><time>2026-08-17T20:11:57.000Z</time><extensions/></trkpt><trkpt lat="59.39882755279541" lon="34.65860366821289"><time>2026-08-17T20:12:10.000Z</time><extensions/></trkpt><trkpt lat="59.39884901046753" lon="34.65866804122925"><time>2026-08-17T20:12:12.000Z</time><extensions/></trkpt><trkpt lat="59.39884901046753" lon="34.658710956573486"><time>2026-08-17T20:12:15.000Z</time><extensions/></trkpt><trkpt lat="59.39884901046753" lon="34.658775329589844"><time>2026-08-17T20:12:17.000Z</time><extensions/></trkpt><trkpt lat="59.39887046813965" lon="34.65881824493408"><time>2026-08-17T20:12:20.000Z</time><extensions/></trkpt><trkpt lat="59.39884901046753" lon="34.65886116027832"><time>2026-08-17T20:12:22.000Z</time><extensions/></trkpt><trkpt lat="59.39887046813965" lon="34.65888261795044"><time>2026-08-17T20:12:40.000Z</time><extensions/></trkpt><trkpt lat="59.39887046813965" lon="34.658968448638916"><time>2026-08-17T20:12:42.000Z</time><extensions/></trkpt><trkpt lat="59.39887046813965" lon="34.65903282165527"><time>2026-08-17T20:12:45.000Z</time><extensions/></trkpt><trkpt lat="59.39884901046753" lon="34.65941905975342"><time>2026-08-17T20:13:15.000Z</time><extensions/></trkpt><trkpt lat="59.39887046813965" lon="34.659504890441895"><time>2026-08-17T20:13:17.000Z</time><extensions/></trkpt><trkpt lat="59.39887046813965" lon="34.65959072113037"><time>2026-08-17T20:13:20.000Z</time><extensions/></trkpt><trkpt lat="59.39887046813965" lon="34.65982675552368"><time>2026-08-17T20:13:45.000Z</time><extensions/></trkpt><trkpt lat="59.39889192581177" lon="34.65986967086792"><time>2026-08-17T20:13:50.000Z</time><extensions/></trkpt><trkpt lat="59.3990421295166" lon="34.66010570526123"><time>2026-08-17T20:14:20.000Z</time><extensions/></trkpt><trkpt lat="59.39908504486084" lon="34.66006278991699"><time>2026-08-17T20:14:35.000Z</time><extensions/></trkpt><trkpt lat="59.39912796020508" lon="34.66008424758911"><time>2026-08-17T20:14:37.000Z</time><extensions/></trkpt><trkpt lat="59.3991494178772" lon="34.66008424758911"><time>2026-08-17T20:14:40.000Z</time><extensions/></trkpt><trkpt lat="59.399213790893555" lon="34.66012716293335"><time>2026-08-17T20:14:50.000Z</time><extensions/></trkpt><trkpt lat="59.39929962158203" lon="34.66019153594971"><time>2026-08-17T20:14:55.000Z</time><extensions/></trkpt><trkpt lat="59.39932107925415" lon="34.660212993621826"><time>2026-08-17T20:14:57.000Z</time><extensions/></trkpt><trkpt lat="59.39938545227051" lon="34.660277366638184"><time>2026-08-17T20:15:15.000Z</time><extensions/></trkpt><trkpt lat="59.39934253692627" lon="34.660255908966064"><time>2026-08-17T20:15:17.000Z</time><extensions/></trkpt><trkpt lat="59.39934253692627" lon="34.660234451293945"><time>2026-08-17T20:15:25.000Z</time><extensions/></trkpt><trkpt lat="59.39936399459839" lon="34.660255908966064"><time>2026-08-17T20:15:27.000Z</time><extensions/></trkpt><trkpt lat="59.399449825286865" lon="34.66036319732666"><time>2026-08-17T20:15:42.000Z</time><extensions/></trkpt><trkpt lat="59.399449825286865" lon="34.66034173965454"><time>2026-08-17T20:15:45.000Z</time><extensions/></trkpt><trkpt lat="59.399471282958984" lon="34.66038465499878"><time>2026-08-17T20:15:47.000Z</time><extensions/></trkpt><trkpt lat="59.39953565597534" lon="34.66042757034302"><time>2026-08-17T20:15:52.000Z</time><extensions/></trkpt><trkpt lat="59.39955711364746" lon="34.660470485687256"><time>2026-08-17T20:15:55.000Z</time><extensions/></trkpt><trkpt lat="59.39957857131958" lon="34.660513401031494"><time>2026-08-17T20:15:57.000Z</time><extensions/></trkpt><trkpt lat="59.39962148666382" lon="34.66055631637573"><time>2026-08-17T20:16:00.000Z</time><extensions/></trkpt><trkpt lat="59.39964294433594" lon="34.66057777404785"><time>2026-08-17T20:16:02.000Z</time><extensions/></trkpt><trkpt lat="59.39966440200806" lon="34.66059923171997"><time>2026-08-17T20:16:05.000Z</time><extensions/></trkpt><trkpt lat="59.39981460571289" lon="34.660706520080566"><time>2026-08-17T20:16:27.000Z</time><extensions/></trkpt><trkpt lat="59.39990043640137" lon="34.66089963912964"><time>2026-08-17T20:16:47.000Z</time><extensions/></trkpt><trkpt lat="59.399921894073486" lon="34.66092109680176"><time>2026-08-17T20:16:50.000Z</time><extensions/></trkpt><trkpt lat="59.399964809417725" lon="34.660964012145996"><time>2026-08-17T20:16:52.000Z</time><extensions/></trkpt><trkpt lat="59.40000772476196" lon="34.661006927490234"><time>2026-08-17T20:16:55.000Z</time><extensions/></trkpt><trkpt lat="59.40002918243408" lon="34.66107130050659"><time>2026-08-17T20:16:57.000Z</time><extensions/></trkpt><trkpt lat="59.40007209777832" lon="34.66107130050659"><time>2026-08-17T20:17:00.000Z</time><extensions/></trkpt><trkpt lat="59.40009355545044" lon="34.66113567352295"><time>2026-08-17T20:17:02.000Z</time><extensions/></trkpt><trkpt lat="59.40013647079468" lon="34.66117858886719"><time>2026-08-17T20:17:05.000Z</time><extensions/></trkpt><trkpt lat="59.400179386138916" lon="34.66132879257202"><time>2026-08-17T20:17:35.000Z</time><extensions/></trkpt><trkpt lat="59.400179386138916" lon="34.66132879257202"><time>2026-08-17T20:17:40.000Z</time><extensions/></trkpt><trkpt lat="59.400200843811035" lon="34.66135025024414"><time>2026-08-17T20:17:42.000Z</time><extensions/></trkpt><trkpt lat="59.40024375915527" lon="34.66143608093262"><time>2026-08-17T20:17:45.000Z</time><extensions/></trkpt><trkpt lat="59.40026521682739" lon="34.661521911621094"><time>2026-08-17T20:17:47.000Z</time><extensions/></trkpt><trkpt lat="59.40028667449951" lon="34.66165065765381"><time>2026-08-17T20:17:57.000Z</time><extensions/></trkpt><trkpt lat="59.40032958984375" lon="34.661715030670166"><time>2026-08-17T20:18:00.000Z</time><extensions/></trkpt><trkpt lat="59.40032958984375" lon="34.661757946014404"><time>2026-08-17T20:18:02.000Z</time><extensions/></trkpt><trkpt lat="59.40037250518799" lon="34.66180086135864"><time>2026-08-17T20:18:05.000Z</time><extensions/></trkpt><trkpt lat="59.40039396286011" lon="34.661865234375"><time>2026-08-17T20:18:07.000Z</time><extensions/></trkpt><trkpt lat="59.40039396286011" lon="34.66192960739136"><time>2026-08-17T20:18:10.000Z</time><extensions/></trkpt><trkpt lat="59.400479793548584" lon="34.66207981109619"><time>2026-08-17T20:18:40.000Z</time><extensions/></trkpt><trkpt lat="59.4005012512207" lon="34.66207981109619"><time>2026-08-17T20:18:52.000Z</time><extensions/></trkpt><trkpt lat="59.4005012512207" lon="34.66214418411255"><time>2026-08-17T20:18:55.000Z</time><extensions/></trkpt><trkpt lat="59.40052270889282" lon="34.662208557128906"><time>2026-08-17T20:18:57.000Z</time><extensions/></trkpt><trkpt lat="59.40054416656494" lon="34.662251472473145"><time>2026-08-17T20:19:00.000Z</time><extensions/></trkpt><trkpt lat="59.40056562423706" lon="34.66229438781738"><time>2026-08-17T20:19:02.000Z</time><extensions/></trkpt><trkpt lat="59.40058708190918" lon="34.66235876083374"><time>2026-08-17T20:19:12.000Z</time><extensions/></trkpt><trkpt lat="59.40062999725342" lon="34.6624231338501"><time>2026-08-17T20:19:17.000Z</time><extensions/></trkpt><trkpt lat="59.40065145492554" lon="34.662487506866455"><time>2026-08-17T20:19:20.000Z</time><extensions/></trkpt><trkpt lat="59.40065145492554" lon="34.662508964538574"><time>2026-08-17T20:19:35.000Z</time><extensions/></trkpt><trkpt lat="59.400694370269775" lon="34.66259479522705"><time>2026-08-17T20:19:40.000Z</time><extensions/></trkpt><trkpt lat="59.400715827941895" lon="34.66265916824341"><time>2026-08-17T20:19:42.000Z</time><extensions/></trkpt><trkpt lat="59.400737285614014" lon="34.66270208358765"><time>2026-08-17T20:19:45.000Z</time><extensions/></trkpt><trkpt lat="59.400737285614014" lon="34.66278791427612"><time>2026-08-17T20:20:10.000Z</time><extensions/></trkpt><trkpt lat="59.40075874328613" lon="34.66285228729248"><time>2026-08-17T20:20:12.000Z</time><extensions/></trkpt><trkpt lat="59.40075874328613" lon="34.66289520263672"><time>2026-08-17T20:20:15.000Z</time><extensions/></trkpt><trkpt lat="59.40078020095825" lon="34.662959575653076"><time>2026-08-17T20:20:20.000Z</time><extensions/></trkpt><trkpt lat="59.40078020095825" lon="34.663023948669434"><time>2026-08-17T20:20:22.000Z</time><extensions/></trkpt><trkpt lat="59.40080165863037" lon="34.66310977935791"><time>2026-08-17T20:20:25.000Z</time><extensions/></trkpt><trkpt lat="59.40080165863037" lon="34.66315269470215"><time>2026-08-17T20:20:27.000Z</time><extensions/></trkpt><trkpt lat="59.40082311630249" lon="34.663217067718506"><time>2026-08-17T20:20:30.000Z</time><extensions/></trkpt><trkpt lat="59.40082311630249" lon="34.66328144073486"><time>2026-08-17T20:20:32.000Z</time><extensions/></trkpt><trkpt lat="59.40078020095825" lon="34.663238525390625"><time>2026-08-17T20:20:37.000Z</time><extensions/></trkpt><trkpt lat="59.40080165863037" lon="34.66334581375122"><time>2026-08-17T20:20:45.000Z</time><extensions/></trkpt><trkpt lat="59.40080165863037" lon="34.66341018676758"><time>2026-08-17T20:20:47.000Z</time><extensions/></trkpt><trkpt lat="59.40080165863037" lon="34.663496017456055"><time>2026-08-17T20:20:50.000Z</time><extensions/></trkpt><trkpt lat="59.40080165863037" lon="34.66356039047241"><time>2026-08-17T20:20:52.000Z</time><extensions/></trkpt><trkpt lat="59.40080165863037" lon="34.66358184814453"><time>2026-08-17T20:20:55.000Z</time><extensions/></trkpt><trkpt lat="59.40080165863037" lon="34.66356039047241"><time>2026-08-17T20:20:57.000Z</time><extensions/></trkpt><trkpt lat="59.40078020095825" lon="34.66362476348877"><time>2026-08-17T20:21:02.000Z</time><extensions/></trkpt><trkpt lat="59.400737285614014" lon="34.663710594177246"><time>2026-08-17T20:21:10.000Z</time><extensions/></trkpt><trkpt lat="59.400715827941895" lon="34.6637749671936"><time>2026-08-17T20:21:12.000Z</time><extensions/></trkpt><trkpt lat="59.400694370269775" lon="34.66381788253784"><time>2026-08-17T20:21:15.000Z</time><extensions/></trkpt><trkpt lat="59.400672912597656" lon="34.66379642486572"><time>2026-08-17T20:21:17.000Z</time><extensions/></trkpt><trkpt lat="59.40065145492554" lon="34.66386079788208"><time>2026-08-17T20:21:25.000Z</time><extensions/></trkpt><trkpt lat="59.4006085395813" lon="34.663968086242676"><time>2026-08-17T20:21:32.000Z</time><extensions/></trkpt><trkpt lat="59.40054416656494" lon="34.66407537460327"><time>2026-08-17T20:21:37.000Z</time><extensions/></trkpt><trkpt lat="59.40054416656494" lon="34.66405391693115"><time>2026-08-17T20:21:40.000Z</time><extensions/></trkpt><trkpt lat="59.40052270889282" lon="34.664011001586914"><time>2026-08-17T20:21:42.000Z</time><extensions/></trkpt><trkpt lat="59.4005012512207" lon="34.66403245925903"><time>2026-08-17T20:21:45.000Z</time><extensions/></trkpt><trkpt lat="59.400479793548584" lon="34.66403245925903"><time>2026-08-17T20:21:47.000Z</time><extensions/></trkpt><trkpt lat="59.400479793548584" lon="34.66405391693115"><time>2026-08-17T20:21:55.000Z</time><extensions/></trkpt><trkpt lat="59.4005012512207" lon="34.66409683227539"><time>2026-08-17T20:21:57.000Z</time><extensions/></trkpt><trkpt lat="59.40054416656494" lon="34.664225578308105"><time>2026-08-17T20:22:00.000Z</time><extensions/></trkpt><trkpt lat="59.40052270889282" lon="34.66428995132446"><time>2026-08-17T20:22:02.000Z</time><extensions/></trkpt><trkpt lat="59.4005012512207" lon="34.66428995132446"><time>2026-08-17T20:22:22.000Z</time><extensions/></trkpt><trkpt lat="59.40054416656494" lon="34.66439723968506"><time>2026-08-17T20:22:25.000Z</time><extensions/></trkpt><trkpt lat="59.40054416656494" lon="34.664504528045654"><time>2026-08-17T20:22:27.000Z</time><extensions/></trkpt><trkpt lat="59.40056562423706" lon="34.66459035873413"><time>2026-08-17T20:22:30.000Z</time><extensions/></trkpt><trkpt lat="59.40058708190918" lon="34.66465473175049"><time>2026-08-17T20:22:32.000Z</time><extensions/></trkpt><trkpt lat="59.40058708190918" lon="34.664719104766846"><time>2026-08-17T20:22:45.000Z</time><extensions/></trkpt><trkpt lat="59.400694370269775" lon="34.66504096984863"><time>2026-08-17T20:23:07.000Z</time><extensions/></trkpt><trkpt lat="59.400715827941895" lon="34.66508388519287"><time>2026-08-17T20:23:10.000Z</time><extensions/></trkpt><trkpt lat="59.40075874328613" lon="34.66514825820923"><time>2026-08-17T20:23:15.000Z</time><extensions/></trkpt><trkpt lat="59.40075874328613" lon="34.665212631225586"><time>2026-08-17T20:23:42.000Z</time><extensions/></trkpt><trkpt lat="59.40080165863037" lon="34.66531991958618"><time>2026-08-17T20:23:47.000Z</time><extensions/></trkpt><trkpt lat="59.40086603164673" lon="34.665470123291016"><time>2026-08-17T20:24:05.000Z</time><extensions/></trkpt><trkpt lat="59.40088748931885" lon="34.66553449630737"><time>2026-08-17T20:24:07.000Z</time><extensions/></trkpt><trkpt lat="59.40088748931885" lon="34.66559886932373"><time>2026-08-17T20:24:10.000Z</time><extensions/></trkpt><trkpt lat="59.40090894699097" lon="34.66564178466797"><time>2026-08-17T20:24:12.000Z</time><extensions/></trkpt><trkpt lat="59.40103769302368" lon="34.666006565093994"><time>2026-08-17T20:24:35.000Z</time><extensions/></trkpt><trkpt lat="59.40103769302368" lon="34.66607093811035"><time>2026-08-17T20:24:37.000Z</time><extensions/></trkpt><trkpt lat="59.4010591506958" lon="34.66615676879883"><time>2026-08-17T20:24:42.000Z</time><extensions/></trkpt><trkpt lat="59.40101623535156" lon="34.66609239578247"><time>2026-08-17T20:24:50.000Z</time><extensions/></trkpt><trkpt lat="59.40103769302368" lon="34.66617822647095"><time>2026-08-17T20:24:55.000Z</time><extensions/></trkpt><trkpt lat="59.4010591506958" lon="34.666242599487305"><time>2026-08-17T20:24:57.000Z</time><extensions/></trkpt><trkpt lat="59.4010591506958" lon="34.66630697250366"><time>2026-08-17T20:25:27.000Z</time><extensions/></trkpt><trkpt lat="59.40108060836792" lon="34.66641426086426"><time>2026-08-17T20:25:37.000Z</time><extensions/></trkpt><trkpt lat="59.40110206604004" lon="34.666478633880615"><time>2026-08-17T20:25:40.000Z</time><extensions/></trkpt><trkpt lat="59.40110206604004" lon="34.66656446456909"><time>2026-08-17T20:25:45.000Z</time><extensions/></trkpt><trkpt lat="59.40112352371216" lon="34.66662883758545"><time>2026-08-17T20:25:47.000Z</time><extensions/></trkpt><trkpt lat="59.40114498138428" lon="34.66669321060181"><time>2026-08-17T20:25:50.000Z</time><extensions/></trkpt><trkpt lat="59.4011664390564" lon="34.666757583618164"><time>2026-08-17T20:25:52.000Z</time><extensions/></trkpt><trkpt lat="59.401187896728516" lon="34.66682195663452"><time>2026-08-17T20:25:55.000Z</time><extensions/></trkpt><trkpt lat="59.40127372741699" lon="34.66714382171631"><time>2026-08-17T20:26:25.000Z</time><extensions/></trkpt><trkpt lat="59.40131664276123" lon="34.66731548309326"><time>2026-08-17T20:26:37.000Z</time><extensions/></trkpt><trkpt lat="59.40133810043335" lon="34.66740131378174"><time>2026-08-17T20:26:40.000Z</time><extensions/></trkpt><trkpt lat="59.40133810043335" lon="34.667465686798096"><time>2026-08-17T20:26:42.000Z</time><extensions/></trkpt><trkpt lat="59.40135955810547" lon="34.667508602142334"><time>2026-08-17T20:26:45.000Z</time><extensions/></trkpt><trkpt lat="59.40138101577759" lon="34.66755151748657"><time>2026-08-17T20:26:47.000Z</time><extensions/></trkpt><trkpt lat="59.40140247344971" lon="34.66759443283081"><time>2026-08-17T20:26:50.000Z</time><extensions/></trkpt><trkpt lat="59.401423931121826" lon="34.66763734817505"><time>2026-08-17T20:26:57.000Z</time><extensions/></trkpt><trkpt lat="59.401445388793945" lon="34.667701721191406"><time>2026-08-17T20:27:00.000Z</time><extensions/></trkpt><trkpt lat="59.401445388793945" lon="34.667766094207764"><time>2026-08-17T20:27:02.000Z</time><extensions/></trkpt><trkpt lat="59.401466846466064" lon="34.667809009552"><time>2026-08-17T20:27:05.000Z</time><extensions/></trkpt><trkpt lat="59.401488304138184" lon="34.66785192489624"><time>2026-08-17T20:27:07.000Z</time><extensions/></trkpt><trkpt lat="59.401466846466064" lon="34.667809009552"><time>2026-08-17T20:27:17.000Z</time><extensions/></trkpt><trkpt lat="59.401466846466064" lon="34.66789484024048"><time>2026-08-17T20:27:20.000Z</time><extensions/></trkpt><trkpt lat="59.401488304138184" lon="34.667959213256836"><time>2026-08-17T20:27:22.000Z</time><extensions/></trkpt><trkpt lat="59.4015097618103" lon="34.66802358627319"><time>2026-08-17T20:27:25.000Z</time><extensions/></trkpt><trkpt lat="59.40153121948242" lon="34.66806650161743"><time>2026-08-17T20:27:27.000Z</time><extensions/></trkpt><trkpt lat="59.40157413482666" lon="34.66815233230591"><time>2026-08-17T20:27:35.000Z</time><extensions/></trkpt><trkpt lat="59.4016170501709" lon="34.66819524765015"><time>2026-08-17T20:27:40.000Z</time><extensions/></trkpt><trkpt lat="59.40165996551514" lon="34.66819524765015"><time>2026-08-17T20:27:42.000Z</time><extensions/></trkpt><trkpt lat="59.40165996551514" lon="34.66832399368286"><time>2026-08-17T20:27:47.000Z</time><extensions/></trkpt><trkpt lat="59.401702880859375" lon="34.6683669090271"><time>2026-08-17T20:27:50.000Z</time><extensions/></trkpt><trkpt lat="59.401724338531494" lon="34.66840982437134"><time>2026-08-17T20:27:52.000Z</time><extensions/></trkpt><trkpt lat="59.40176725387573" lon="34.668452739715576"><time>2026-08-17T20:27:55.000Z</time><extensions/></trkpt><trkpt lat="59.40178871154785" lon="34.668474197387695"><time>2026-08-17T20:27:57.000Z</time><extensions/></trkpt><trkpt lat="59.40181016921997" lon="34.668495655059814"><time>2026-08-17T20:28:10.000Z</time><extensions/></trkpt><trkpt lat="59.40185308456421" lon="34.66853857040405"><time>2026-08-17T20:28:20.000Z</time><extensions/></trkpt><trkpt lat="59.40189599990845" lon="34.66856002807617"><time>2026-08-17T20:28:22.000Z</time><extensions/></trkpt><trkpt lat="59.40202474594116" lon="34.66862440109253"><time>2026-08-17T20:28:50.000Z</time><extensions/></trkpt><trkpt lat="59.40202474594116" lon="34.66858148574829"><time>2026-08-17T20:28:52.000Z</time><extensions/></trkpt><trkpt lat="59.4020676612854" lon="34.66864585876465"><time>2026-08-17T20:29:00.000Z</time><extensions/></trkpt><trkpt lat="59.40208911895752" lon="34.66866731643677"><time>2026-08-17T20:29:02.000Z</time><extensions/></trkpt><trkpt lat="59.40211057662964" lon="34.668710231781006"><time>2026-08-17T20:29:05.000Z</time><extensions/></trkpt><trkpt lat="59.40215349197388" lon="34.66877460479736"><time>2026-08-17T20:29:07.000Z</time><extensions/></trkpt><trkpt lat="59.402174949645996" lon="34.6688175201416"><time>2026-08-17T20:29:10.000Z</time><extensions/></trkpt><trkpt lat="59.402196407318115" lon="34.66886043548584"><time>2026-08-17T20:29:12.000Z</time><extensions/></trkpt><trkpt lat="59.402196407318115" lon="34.668967723846436"><time>2026-08-17T20:29:30.000Z</time><extensions/></trkpt><trkpt lat="59.402217864990234" lon="34.66903209686279"><time>2026-08-17T20:29:32.000Z</time><extensions/></trkpt><trkpt lat="59.40223932266235" lon="34.66907501220703"><time>2026-08-17T20:29:35.000Z</time><extensions/></trkpt><trkpt lat="59.40226078033447" lon="34.66911792755127"><time>2026-08-17T20:29:37.000Z</time><extensions/></trkpt><trkpt lat="59.40230369567871" lon="34.66913938522339"><time>2026-08-17T20:29:40.000Z</time><extensions/></trkpt><trkpt lat="59.40232515335083" lon="34.66918230056763"><time>2026-08-17T20:29:42.000Z</time><extensions/></trkpt><trkpt lat="59.40232515335083" lon="34.669203758239746"><time>2026-08-17T20:29:45.000Z</time><extensions/></trkpt><trkpt lat="59.40230369567871" lon="34.66916084289551"><time>2026-08-17T20:29:52.000Z</time><extensions/></trkpt><trkpt lat="59.40228223800659" lon="34.66911792755127"><time>2026-08-17T20:29:55.000Z</time><extensions/></trkpt><trkpt lat="59.40226078033447" lon="34.66905355453491"><time>2026-08-17T20:29:57.000Z</time><extensions/></trkpt><trkpt lat="59.40226078033447" lon="34.66903209686279"><time>2026-08-17T20:30:00.000Z</time><extensions/></trkpt><trkpt lat="59.40226078033447" lon="34.66903209686279"><time>2026-08-17T20:30:17.000Z</time><extensions/></trkpt><trkpt lat="59.40226078033447" lon="34.66903209686279"><time>2026-08-17T20:30:35.000Z</time><extensions/></trkpt><trkpt lat="59.40228223800659" lon="34.66907501220703"><time>2026-08-17T20:31:05.000Z</time><extensions/></trkpt><trkpt lat="59.40226078033447" lon="34.66905355453491"><time>2026-08-17T20:31:35.000Z</time><extensions/></trkpt><trkpt lat="59.40226078033447" lon="34.66903209686279"><time>2026-08-17T20:32:05.000Z</time><extensions/></trkpt><trkpt lat="59.40228223800659" lon="34.66907501220703"><time>2026-08-17T20:32:32.000Z</time><extensions/></trkpt><trkpt lat="59.40236806869507" lon="34.669203758239746"><time>2026-08-17T20:32:47.000Z</time><extensions/></trkpt><trkpt lat="59.40241098403931" lon="34.6692681312561"><time>2026-08-17T20:32:50.000Z</time><extensions/></trkpt><trkpt lat="59.402432441711426" lon="34.66928958892822"><time>2026-08-17T20:32:52.000Z</time><extensions/></trkpt><trkpt lat="59.402453899383545" lon="34.66931104660034"><time>2026-08-17T20:32:55.000Z</time><extensions/></trkpt><trkpt lat="59.402475357055664" lon="34.66935396194458"><time>2026-08-17T20:33:05.000Z</time><extensions/></trkpt><trkpt lat="59.40249681472778" lon="34.66941833496094"><time>2026-08-17T20:33:07.000Z</time><extensions/></trkpt><trkpt lat="59.40253973007202" lon="34.66943979263306"><time>2026-08-17T20:33:12.000Z</time><extensions/></trkpt><trkpt lat="59.40258264541626" lon="34.669461250305176"><time>2026-08-17T20:33:20.000Z</time><extensions/></trkpt><trkpt lat="59.40260410308838" lon="34.669504165649414"><time>2026-08-17T20:33:22.000Z</time><extensions/></trkpt><trkpt lat="59.4026255607605" lon="34.66956853866577"><time>2026-08-17T20:33:30.000Z</time><extensions/></trkpt><trkpt lat="59.402668476104736" lon="34.66958999633789"><time>2026-08-17T20:33:32.000Z</time><extensions/></trkpt><trkpt lat="59.402689933776855" lon="34.66958999633789"><time>2026-08-17T20:33:35.000Z</time><extensions/></trkpt><trkpt lat="59.402711391448975" lon="34.66956853866577"><time>2026-08-17T20:33:37.000Z</time><extensions/></trkpt><trkpt lat="59.40275430679321" lon="34.66961145401001"><time>2026-08-17T20:33:40.000Z</time><extensions/></trkpt><trkpt lat="59.40281867980957" lon="34.66978311538696"><time>2026-08-17T20:33:57.000Z</time><extensions/></trkpt><trkpt lat="59.40288305282593" lon="34.66984748840332"><time>2026-08-17T20:34:00.000Z</time><extensions/></trkpt><trkpt lat="59.40290451049805" lon="34.66989040374756"><time>2026-08-17T20:34:02.000Z</time><extensions/></trkpt><trkpt lat="59.402947425842285" lon="34.669954776763916"><time>2026-08-17T20:34:05.000Z</time><extensions/></trkpt><trkpt lat="59.40299034118652" lon="34.67001914978027"><time>2026-08-17T20:34:07.000Z</time><extensions/></trkpt><trkpt lat="59.40299034118652" lon="34.67008352279663"><time>2026-08-17T20:34:10.000Z</time><extensions/></trkpt><trkpt lat="59.40305471420288" lon="34.67016935348511"><time>2026-08-17T20:34:25.000Z</time><extensions/></trkpt><trkpt lat="59.403076171875" lon="34.670255184173584"><time>2026-08-17T20:34:27.000Z</time><extensions/></trkpt><trkpt lat="59.40309762954712" lon="34.6702766418457"><time>2026-08-17T20:34:32.000Z</time><extensions/></trkpt><trkpt lat="59.403076171875" lon="34.67040538787842"><time>2026-08-17T20:34:40.000Z</time><extensions/></trkpt><trkpt lat="59.40309762954712" lon="34.670469760894775"><time>2026-08-17T20:34:42.000Z</time><extensions/></trkpt><trkpt lat="59.40309762954712" lon="34.67053413391113"><time>2026-08-17T20:34:45.000Z</time><extensions/></trkpt><trkpt lat="59.403076171875" lon="34.67055559158325"><time>2026-08-17T20:34:47.000Z</time><extensions/></trkpt><trkpt lat="59.40305471420288" lon="34.670512676239014"><time>2026-08-17T20:34:50.000Z</time><extensions/></trkpt><trkpt lat="59.403076171875" lon="34.67059850692749"><time>2026-08-17T20:34:55.000Z</time><extensions/></trkpt><trkpt lat="59.40309762954712" lon="34.67079162597656"><time>2026-08-17T20:35:12.000Z</time><extensions/></trkpt><trkpt lat="59.40309762954712" lon="34.67087745666504"><time>2026-08-17T20:35:15.000Z</time><extensions/></trkpt><trkpt lat="59.40311908721924" lon="34.6709418296814"><time>2026-08-17T20:35:17.000Z</time><extensions/></trkpt><trkpt lat="59.40311908721924" lon="34.671006202697754"><time>2026-08-17T20:35:20.000Z</time><extensions/></trkpt><trkpt lat="59.40309762954712" lon="34.670984745025635"><time>2026-08-17T20:35:37.000Z</time><extensions/></trkpt><trkpt lat="59.40311908721924" lon="34.67109203338623"><time>2026-08-17T20:35:40.000Z</time><extensions/></trkpt><trkpt lat="59.40314054489136" lon="34.67117786407471"><time>2026-08-17T20:35:42.000Z</time><extensions/></trkpt><trkpt lat="59.40314054489136" lon="34.67137098312378"><time>2026-08-17T20:35:47.000Z</time><extensions/></trkpt><trkpt lat="59.40311908721924" lon="34.671456813812256"><time>2026-08-17T20:36:05.000Z</time><extensions/></trkpt><trkpt lat="59.40314054489136" lon="34.67154264450073"><time>2026-08-17T20:36:07.000Z</time><extensions/></trkpt><trkpt lat="59.40316200256348" lon="34.67156410217285"><time>2026-08-17T20:36:10.000Z</time><extensions/></trkpt><trkpt lat="59.403183460235596" lon="34.671692848205566"><time>2026-08-17T20:36:20.000Z</time><extensions/></trkpt><trkpt lat="59.403204917907715" lon="34.671757221221924"><time>2026-08-17T20:36:22.000Z</time><extensions/></trkpt><trkpt lat="59.403226375579834" lon="34.67177867889404"><time>2026-08-17T20:36:25.000Z</time><extensions/></trkpt><trkpt lat="59.403226375579834" lon="34.6718430519104"><time>2026-08-17T20:36:30.000Z</time><extensions/></trkpt><trkpt lat="59.403226375579834" lon="34.67186450958252"><time>2026-08-17T20:36:32.000Z</time><extensions/></trkpt><trkpt lat="59.40326929092407" lon="34.671971797943115"><time>2026-08-17T20:36:52.000Z</time><extensions/></trkpt><trkpt lat="59.40329074859619" lon="34.67205762863159"><time>2026-08-17T20:36:55.000Z</time><extensions/></trkpt><trkpt lat="59.40329074859619" lon="34.67212200164795"><time>2026-08-17T20:36:57.000Z</time><extensions/></trkpt><trkpt lat="59.40333366394043" lon="34.67214345932007"><time>2026-08-17T20:37:00.000Z</time><extensions/></trkpt><trkpt lat="59.40335512161255" lon="34.672207832336426"><time>2026-08-17T20:37:02.000Z</time><extensions/></trkpt><trkpt lat="59.40339803695679" lon="34.6722936630249"><time>2026-08-17T20:37:10.000Z</time><extensions/></trkpt><trkpt lat="59.40350532531738" lon="34.67237949371338"><time>2026-08-17T20:37:22.000Z</time><extensions/></trkpt><trkpt lat="59.4035267829895" lon="34.672443866729736"><time>2026-08-17T20:37:25.000Z</time><extensions/></trkpt><trkpt lat="59.40354824066162" lon="34.672486782073975"><time>2026-08-17T20:37:27.000Z</time><extensions/></trkpt><trkpt lat="59.40361261367798" lon="34.67255115509033"><time>2026-08-17T20:37:35.000Z</time><extensions/></trkpt><trkpt lat="59.40361261367798" lon="34.67257261276245"><time>2026-08-17T20:37:55.000Z</time><extensions/></trkpt><trkpt lat="59.40361261367798" lon="34.67257261276245"><time>2026-08-17T20:38:02.000Z</time><extensions/></trkpt><trkpt lat="59.403698444366455" lon="34.672722816467285"><time>2026-08-17T20:38:10.000Z</time><extensions/></trkpt><trkpt lat="59.403719902038574" lon="34.67276573181152"><time>2026-08-17T20:38:12.000Z</time><extensions/></trkpt><trkpt lat="59.403698444366455" lon="34.67276573181152"><time>2026-08-17T20:38:27.000Z</time><extensions/></trkpt><trkpt lat="59.403698444366455" lon="34.672722816467285"><time>2026-08-17T20:38:32.000Z</time><extensions/></trkpt><trkpt lat="59.403719902038574" lon="34.67278718948364"><time>2026-08-17T20:38:35.000Z</time><extensions/></trkpt><trkpt lat="59.40374135971069" lon="34.67283010482788"><time>2026-08-17T20:38:37.000Z</time><extensions/></trkpt><trkpt lat="59.40378427505493" lon="34.6728515625"><time>2026-08-17T20:38:40.000Z</time><extensions/></trkpt><trkpt lat="59.40380573272705" lon="34.67287302017212"><time>2026-08-17T20:38:42.000Z</time><extensions/></trkpt><trkpt lat="59.40384864807129" lon="34.67291593551636"><time>2026-08-17T20:38:45.000Z</time><extensions/></trkpt><trkpt lat="59.40387010574341" lon="34.67291593551636"><time>2026-08-17T20:38:47.000Z</time><extensions/></trkpt><trkpt lat="59.403934478759766" lon="34.672980308532715"><time>2026-08-17T20:39:02.000Z</time><extensions/></trkpt><trkpt lat="59.403955936431885" lon="34.672980308532715"><time>2026-08-17T20:39:05.000Z</time><extensions/></trkpt><trkpt lat="59.40399885177612" lon="34.672980308532715"><time>2026-08-17T20:39:07.000Z</time><extensions/></trkpt><trkpt lat="59.40402030944824" lon="34.67304468154907"><time>2026-08-17T20:39:10.000Z</time><extensions/></trkpt><trkpt lat="59.40402030944824" lon="34.67308759689331"><time>2026-08-17T20:39:12.000Z</time><extensions/></trkpt><trkpt lat="59.40399885177612" lon="34.67313051223755"><time>2026-08-17T20:39:15.000Z</time><extensions/></trkpt><trkpt lat="59.40404176712036" lon="34.67315196990967"><time>2026-08-17T20:39:17.000Z</time><extensions/></trkpt><trkpt lat="59.40406322479248" lon="34.67317342758179"><time>2026-08-17T20:39:20.000Z</time><extensions/></trkpt><trkpt lat="59.4040846824646" lon="34.673216342926025"><time>2026-08-17T20:39:22.000Z</time><extensions/></trkpt><trkpt lat="59.404191970825195" lon="34.67332363128662"><time>2026-08-17T20:39:30.000Z</time><extensions/></trkpt><trkpt lat="59.404213428497314" lon="34.67338800430298"><time>2026-08-17T20:39:40.000Z</time><extensions/></trkpt><trkpt lat="59.40434217453003" lon="34.673473834991455"><time>2026-08-17T20:39:55.000Z</time><extensions/></trkpt><trkpt lat="59.40436363220215" lon="34.67351675033569"><time>2026-08-17T20:39:57.000Z</time><extensions/></trkpt><trkpt lat="59.40438508987427" lon="34.67355966567993"><time>2026-08-17T20:40:00.000Z</time><extensions/></trkpt><trkpt lat="59.40436363220215" lon="34.67353820800781"><time>2026-08-17T20:40:05.000Z</time><extensions/></trkpt><trkpt lat="59.40436363220215" lon="34.67355966567993"><time>2026-08-17T20:40:07.000Z</time><extensions/></trkpt><trkpt lat="59.40440654754639" lon="34.67360258102417"><time>2026-08-17T20:40:10.000Z</time><extensions/></trkpt><trkpt lat="59.404428005218506" lon="34.67366695404053"><time>2026-08-17T20:40:12.000Z</time><extensions/></trkpt><trkpt lat="59.404449462890625" lon="34.673709869384766"><time>2026-08-17T20:40:15.000Z</time><extensions/></trkpt><trkpt lat="59.40451383590698" lon="34.67381715774536"><time>2026-08-17T20:40:25.000Z</time><extensions/></trkpt><trkpt lat="59.40462112426758" lon="34.67368841171265"><time>2026-08-17T20:40:55.000Z</time><extensions/></trkpt><trkpt lat="59.40457820892334" lon="34.67366695404053"><time>2026-08-17T20:41:02.000Z</time><extensions/></trkpt><trkpt lat="59.40459966659546" lon="34.67358112335205"><time>2026-08-17T20:41:07.000Z</time><extensions/></trkpt><trkpt lat="59.40451383590698" lon="34.67364549636841"><time>2026-08-17T20:41:20.000Z</time><extensions/></trkpt><trkpt lat="59.40451383590698" lon="34.673709869384766"><time>2026-08-17T20:41:22.000Z</time><extensions/></trkpt><trkpt lat="59.4045352935791" lon="34.67377424240112"><time>2026-08-17T20:41:25.000Z</time><extensions/></trkpt><trkpt lat="59.4045352935791" lon="34.67383861541748"><time>2026-08-17T20:41:27.000Z</time><extensions/></trkpt><trkpt lat="59.40455675125122" lon="34.673988819122314"><time>2026-08-17T20:41:32.000Z</time><extensions/></trkpt><trkpt lat="59.40455675125122" lon="34.67405319213867"><time>2026-08-17T20:41:35.000Z</time><extensions/></trkpt><trkpt lat="59.40455675125122" lon="34.67411756515503"><time>2026-08-17T20:41:37.000Z</time><extensions/></trkpt><trkpt lat="59.40455675125122" lon="34.67416048049927"><time>2026-08-17T20:41:42.000Z</time><extensions/></trkpt><trkpt lat="59.40455675125122" lon="34.674224853515625"><time>2026-08-17T20:41:45.000Z</time><extensions/></trkpt><trkpt lat="59.40455675125122" lon="34.6743106842041"><time>2026-08-17T20:41:47.000Z</time><extensions/></trkpt><trkpt lat="59.40457820892334" lon="34.67433214187622"><time>2026-08-17T20:41:50.000Z</time><extensions/></trkpt><trkpt lat="59.40457820892334" lon="34.67439651489258"><time>2026-08-17T20:41:55.000Z</time><extensions/></trkpt><trkpt lat="59.40459966659546" lon="34.674460887908936"><time>2026-08-17T20:41:57.000Z</time><extensions/></trkpt><trkpt lat="59.40462112426758" lon="34.67454671859741"><time>2026-08-17T20:42:05.000Z</time><extensions/></trkpt><trkpt lat="59.40462112426758" lon="34.67458963394165"><time>2026-08-17T20:42:07.000Z</time><extensions/></trkpt><trkpt lat="59.4046425819397" lon="34.67465400695801"><time>2026-08-17T20:42:10.000Z</time><extensions/></trkpt><trkpt lat="59.4046425819397" lon="34.674696922302246"><time>2026-08-17T20:42:12.000Z</time><extensions/></trkpt><trkpt lat="59.404685497283936" lon="34.67480421066284"><time>2026-08-17T20:42:27.000Z</time><extensions/></trkpt><trkpt lat="59.404706954956055" lon="34.6748685836792"><time>2026-08-17T20:42:30.000Z</time><extensions/></trkpt><trkpt lat="59.404728412628174" lon="34.674954414367676"><time>2026-08-17T20:42:32.000Z</time><extensions/></trkpt><trkpt lat="59.404728412628174" lon="34.674997329711914"><time>2026-08-17T20:42:35.000Z</time><extensions/></trkpt><trkpt lat="59.40474987030029" lon="34.67506170272827"><time>2026-08-17T20:42:37.000Z</time><extensions/></trkpt><trkpt lat="59.404728412628174" lon="34.67512607574463"><time>2026-08-17T20:42:42.000Z</time><extensions/></trkpt><trkpt lat="59.404728412628174" lon="34.67516899108887"><time>2026-08-17T20:42:50.000Z</time><extensions/></trkpt><trkpt lat="59.40477132797241" lon="34.675233364105225"><time>2026-08-17T20:42:52.000Z</time><extensions/></trkpt><trkpt lat="59.40477132797241" lon="34.67527627944946"><time>2026-08-17T20:43:05.000Z</time><extensions/></trkpt><trkpt lat="59.40479278564453" lon="34.6754264831543"><time>2026-08-17T20:43:07.000Z</time><extensions/></trkpt><trkpt lat="59.40481424331665" lon="34.67553377151489"><time>2026-08-17T20:43:10.000Z</time><extensions/></trkpt><trkpt lat="59.40490007400513" lon="34.67579126358032"><time>2026-08-17T20:43:30.000Z</time><extensions/></trkpt><trkpt lat="59.40490007400513" lon="34.67581272125244"><time>2026-08-17T20:43:42.000Z</time><extensions/></trkpt><trkpt lat="59.40487861633301" lon="34.6758770942688"><time>2026-08-17T20:44:12.000Z</time><extensions/></trkpt><trkpt lat="59.404921531677246" lon="34.67592000961304"><time>2026-08-17T20:44:15.000Z</time><extensions/></trkpt><trkpt lat="59.404942989349365" lon="34.675962924957275"><time>2026-08-17T20:44:17.000Z</time><extensions/></trkpt><trkpt lat="59.4049859046936" lon="34.676005840301514"><time>2026-08-17T20:44:20.000Z</time><extensions/></trkpt><trkpt lat="59.40500736236572" lon="34.67602729797363"><time>2026-08-17T20:44:22.000Z</time><extensions/></trkpt><trkpt lat="59.40502882003784" lon="34.67602729797363"><time>2026-08-17T20:44:25.000Z</time><extensions/></trkpt><trkpt lat="59.40505027770996" lon="34.67604875564575"><time>2026-08-17T20:44:27.000Z</time><extensions/></trkpt><trkpt lat="59.40515756607056" lon="34.67613458633423"><time>2026-08-17T20:44:40.000Z</time><extensions/></trkpt><trkpt lat="59.405179023742676" lon="34.67615604400635"><time>2026-08-17T20:44:42.000Z</time><extensions/></trkpt><trkpt lat="59.40524339675903" lon="34.67613458633423"><time>2026-08-17T20:44:50.000Z</time><extensions/></trkpt><trkpt lat="59.40526485443115" lon="34.67611312866211"><time>2026-08-17T20:44:52.000Z</time><extensions/></trkpt><trkpt lat="59.40530776977539" lon="34.676198959350586"><time>2026-08-17T20:45:07.000Z</time><extensions/></trkpt><trkpt lat="59.40532922744751" lon="34.67626333236694"><time>2026-08-17T20:45:10.000Z</time><extensions/></trkpt><trkpt lat="59.40537214279175" lon="34.67630624771118"><time>2026-08-17T20:45:12.000Z</time><extensions/></trkpt><trkpt lat="59.40539360046387" lon="34.67630624771118"><time>2026-08-17T20:45:22.000Z</time><extensions/></trkpt><trkpt lat="59.405436515808105" lon="34.67634916305542"><time>2026-08-17T20:45:25.000Z</time><extensions/></trkpt><trkpt lat="59.405479431152344" lon="34.67634916305542"><time>2026-08-17T20:45:27.000Z</time><extensions/></trkpt><trkpt lat="59.40550088882446" lon="34.67634916305542"><time>2026-08-17T20:45:40.000Z</time><extensions/></trkpt><trkpt lat="59.40556526184082" lon="34.67641353607178"><time>2026-08-17T20:45:42.000Z</time><extensions/></trkpt><trkpt lat="59.40560817718506" lon="34.6764349937439"><time>2026-08-17T20:45:45.000Z</time><extensions/></trkpt><trkpt lat="59.4056510925293" lon="34.676456451416016"><time>2026-08-17T20:45:47.000Z</time><extensions/></trkpt><trkpt lat="59.40573692321777" lon="34.676456451416016"><time>2026-08-17T20:45:55.000Z</time><extensions/></trkpt><trkpt lat="59.405715465545654" lon="34.6764349937439"><time>2026-08-17T20:45:57.000Z</time><extensions/></trkpt><trkpt lat="59.40575838088989" lon="34.676499366760254"><time>2026-08-17T20:46:10.000Z</time><extensions/></trkpt><trkpt lat="59.40580129623413" lon="34.67652082443237"><time>2026-08-17T20:46:12.000Z</time><extensions/></trkpt><trkpt lat="59.40584421157837" lon="34.676477909088135"><time>2026-08-17T20:46:15.000Z</time><extensions/></trkpt><trkpt lat="59.40590858459473" lon="34.6764349937439"><time>2026-08-17T20:46:17.000Z</time><extensions/></trkpt><trkpt lat="59.405930042266846" lon="34.67637062072754"><time>2026-08-17T20:46:20.000Z</time><extensions/></trkpt><trkpt lat="59.405972957611084" lon="34.6763277053833"><time>2026-08-17T20:46:22.000Z</time><extensions/></trkpt><trkpt lat="59.4059944152832" lon="34.67630624771118"><time>2026-08-17T20:46:25.000Z</time><extensions/></trkpt><trkpt lat="59.40605878829956" lon="34.676241874694824"><time>2026-08-17T20:46:32.000Z</time><extensions/></trkpt><trkpt lat="59.4061017036438" lon="34.676198959350586"><time>2026-08-17T20:46:35.000Z</time><extensions/></trkpt><trkpt lat="59.40612316131592" lon="34.676198959350586"><time>2026-08-17T20:46:37.000Z</time><extensions/></trkpt><trkpt lat="59.4061017036438" lon="34.676198959350586"><time>2026-08-17T20:46:40.000Z</time><extensions/></trkpt><trkpt lat="59.406166076660156" lon="34.67617750167847"><time>2026-08-17T20:46:47.000Z</time><extensions/></trkpt><trkpt lat="59.406187534332275" lon="34.67613458633423"><time>2026-08-17T20:47:02.000Z</time><extensions/></trkpt><trkpt lat="59.40627336502075" lon="34.67604875564575"><time>2026-08-17T20:47:07.000Z</time><extensions/></trkpt><trkpt lat="59.40633773803711" lon="34.676005840301514"><time>2026-08-17T20:47:10.000Z</time><extensions/></trkpt><trkpt lat="59.40638065338135" lon="34.675984382629395"><time>2026-08-17T20:47:12.000Z</time><extensions/></trkpt><trkpt lat="59.40650939941406" lon="34.67611312866211"><time>2026-08-17T20:47:42.000Z</time><extensions/></trkpt><trkpt lat="59.40650939941406" lon="34.67613458633423"><time>2026-08-17T20:48:12.000Z</time><extensions/></trkpt><trkpt lat="59.40650939941406" lon="34.67611312866211"><time>2026-08-17T20:48:17.000Z</time><extensions/></trkpt><trkpt lat="59.40659523010254" lon="34.67615604400635"><time>2026-08-17T20:48:27.000Z</time><extensions/></trkpt><trkpt lat="59.40663814544678" lon="34.67611312866211"><time>2026-08-17T20:48:30.000Z</time><extensions/></trkpt><trkpt lat="59.406681060791016" lon="34.67609167098999"><time>2026-08-17T20:48:32.000Z</time><extensions/></trkpt><trkpt lat="59.406723976135254" lon="34.67604875564575"><time>2026-08-17T20:48:35.000Z</time><extensions/></trkpt><trkpt lat="59.40676689147949" lon="34.676005840301514"><time>2026-08-17T20:48:37.000Z</time><extensions/></trkpt><trkpt lat="59.40680980682373" lon="34.67602729797363"><time>2026-08-17T20:48:40.000Z</time><extensions/></trkpt><trkpt lat="59.40683126449585" lon="34.676005840301514"><time>2026-08-17T20:48:42.000Z</time><extensions/></trkpt><trkpt lat="59.40685272216797" lon="34.67607021331787"><time>2026-08-17T20:48:45.000Z</time><extensions/></trkpt><trkpt lat="59.40689563751221" lon="34.67609167098999"><time>2026-08-17T20:48:50.000Z</time><extensions/></trkpt><trkpt lat="59.4070029258728" lon="34.676198959350586"><time>2026-08-17T20:49:00.000Z</time><extensions/></trkpt><trkpt lat="59.40706729888916" lon="34.67626333236694"><time>2026-08-17T20:49:12.000Z</time><extensions/></trkpt><trkpt lat="59.407174587249756" lon="34.6763277053833"><time>2026-08-17T20:49:17.000Z</time><extensions/></trkpt><trkpt lat="59.407196044921875" lon="34.67634916305542"><time>2026-08-17T20:49:20.000Z</time><extensions/></trkpt><trkpt lat="59.407217502593994" lon="34.67641353607178"><time>2026-08-17T20:49:22.000Z</time><extensions/></trkpt><trkpt lat="59.40726041793823" lon="34.67652082443237"><time>2026-08-17T20:49:30.000Z</time><extensions/></trkpt><trkpt lat="59.40726041793823" lon="34.67664957046509"><time>2026-08-17T20:49:37.000Z</time><extensions/></trkpt><trkpt lat="59.40728187561035" lon="34.676713943481445"><time>2026-08-17T20:49:40.000Z</time><extensions/></trkpt><trkpt lat="59.40732479095459" lon="34.6767783164978"><time>2026-08-17T20:49:42.000Z</time><extensions/></trkpt><trkpt lat="59.40732479095459" lon="34.67682123184204"><time>2026-08-17T20:49:45.000Z</time><extensions/></trkpt><trkpt lat="59.40734624862671" lon="34.67690706253052"><time>2026-08-17T20:49:55.000Z</time><extensions/></trkpt><trkpt lat="59.40734624862671" lon="34.676971435546875"><time>2026-08-17T20:49:57.000Z</time><extensions/></trkpt><trkpt lat="59.40738916397095" lon="34.67710018157959"><time>2026-08-17T20:50:02.000Z</time><extensions/></trkpt><trkpt lat="59.40738916397095" lon="34.677186012268066"><time>2026-08-17T20:50:10.000Z</time><extensions/></trkpt><trkpt lat="59.407410621643066" lon="34.67727184295654"><time>2026-08-17T20:50:12.000Z</time><extensions/></trkpt><trkpt lat="59.407432079315186" lon="34.67740058898926"><time>2026-08-17T20:50:17.000Z</time><extensions/></trkpt><trkpt lat="59.407432079315186" lon="34.677443504333496"><time>2026-08-17T20:50:25.000Z</time><extensions/></trkpt><trkpt lat="59.407453536987305" lon="34.67752933502197"><time>2026-08-17T20:50:27.000Z</time><extensions/></trkpt><trkpt lat="59.407432079315186" lon="34.67785120010376"><time>2026-08-17T20:50:55.000Z</time><extensions/></trkpt><trkpt lat="59.407432079315186" lon="34.677894115448"><time>2026-08-17T20:50:57.000Z</time><extensions/></trkpt><trkpt lat="59.407410621643066" lon="34.677958488464355"><time>2026-08-17T20:51:00.000Z</time><extensions/></trkpt><trkpt lat="59.407410621643066" lon="34.67806577682495"><time>2026-08-17T20:51:02.000Z</time><extensions/></trkpt><trkpt lat="59.407410621643066" lon="34.67808723449707"><time>2026-08-17T20:51:05.000Z</time><extensions/></trkpt><trkpt lat="59.407432079315186" lon="34.67808723449707"><time>2026-08-17T20:51:07.000Z</time><extensions/></trkpt><trkpt lat="59.407432079315186" lon="34.67810869216919"><time>2026-08-17T20:51:10.000Z</time><extensions/></trkpt><trkpt lat="59.407432079315186" lon="34.67815160751343"><time>2026-08-17T20:51:12.000Z</time><extensions/></trkpt><trkpt lat="59.40738916397095" lon="34.67825889587402"><time>2026-08-17T20:51:15.000Z</time><extensions/></trkpt><trkpt lat="59.40738916397095" lon="34.67836618423462"><time>2026-08-17T20:51:17.000Z</time><extensions/></trkpt><trkpt lat="59.40732479095459" lon="34.67840909957886"><time>2026-08-17T20:51:32.000Z</time><extensions/></trkpt><trkpt lat="59.40728187561035" lon="34.678473472595215"><time>2026-08-17T20:51:35.000Z</time><extensions/></trkpt><trkpt lat="59.40728187561035" lon="34.67853784561157"><time>2026-08-17T20:51:37.000Z</time><extensions/></trkpt><trkpt lat="59.40728187561035" lon="34.67855930328369"><time>2026-08-17T20:51:40.000Z</time><extensions/></trkpt><trkpt lat="59.407217502593994" lon="34.67864513397217"><time>2026-08-17T20:51:50.000Z</time><extensions/></trkpt><trkpt lat="59.407196044921875" lon="34.678709506988525"><time>2026-08-17T20:51:52.000Z</time><extensions/></trkpt><trkpt lat="59.407196044921875" lon="34.678752422332764"><time>2026-08-17T20:51:55.000Z</time><extensions/></trkpt><trkpt lat="59.40708875656128" lon="34.6789026260376"><time>2026-08-17T20:52:25.000Z</time><extensions/></trkpt><trkpt lat="59.40702438354492" lon="34.67909574508667"><time>2026-08-17T20:52:37.000Z</time><extensions/></trkpt><trkpt lat="59.40702438354492" lon="34.67916011810303"><time>2026-08-17T20:52:42.000Z</time><extensions/></trkpt><trkpt lat="59.40702438354492" lon="34.679245948791504"><time>2026-08-17T20:52:45.000Z</time><extensions/></trkpt><trkpt lat="59.40702438354492" lon="34.67931032180786"><time>2026-08-17T20:52:47.000Z</time><extensions/></trkpt><trkpt lat="59.406981468200684" lon="34.67928886413574"><time>2026-08-17T20:52:52.000Z</time><extensions/></trkpt><trkpt lat="59.4070029258728" lon="34.679439067840576"><time>2026-08-17T20:53:00.000Z</time><extensions/></trkpt><trkpt lat="59.4070029258728" lon="34.67952489852905"><time>2026-08-17T20:53:02.000Z</time><extensions/></trkpt><trkpt lat="59.4070029258728" lon="34.67958927154541"><time>2026-08-17T20:53:05.000Z</time><extensions/></trkpt><trkpt lat="59.40704584121704" lon="34.67976093292236"><time>2026-08-17T20:53:27.000Z</time><extensions/></trkpt><trkpt lat="59.40708875656128" lon="34.679932594299316"><time>2026-08-17T20:53:32.000Z</time><extensions/></trkpt><trkpt lat="59.40708875656128" lon="34.68001842498779"><time>2026-08-17T20:53:35.000Z</time><extensions/></trkpt><trkpt lat="59.40706729888916" lon="34.68006134033203"><time>2026-08-17T20:53:37.000Z</time><extensions/></trkpt><trkpt lat="59.40708875656128" lon="34.68014717102051"><time>2026-08-17T20:53:40.000Z</time><extensions/></trkpt><trkpt lat="59.40713167190552" lon="34.680190086364746"><time>2026-08-17T20:53:45.000Z</time><extensions/></trkpt><trkpt lat="59.40715312957764" lon="34.68027591705322"><time>2026-08-17T20:53:47.000Z</time><extensions/></trkpt><trkpt lat="59.40715312957764" lon="34.6803617477417"><time>2026-08-17T20:53:50.000Z</time><extensions/></trkpt><trkpt lat="59.40715312957764" lon="34.68042612075806"><time>2026-08-17T20:53:52.000Z</time><extensions/></trkpt><trkpt lat="59.40715312957764" lon="34.680490493774414"><time>2026-08-17T20:53:55.000Z</time><extensions/></trkpt><trkpt lat="59.40715312957764" lon="34.68076944351196"><time>2026-08-17T20:54:22.000Z</time><extensions/></trkpt><trkpt lat="59.4071102142334" lon="34.6808123588562"><time>2026-08-17T20:54:25.000Z</time><extensions/></trkpt><trkpt lat="59.4071102142334" lon="34.68087673187256"><time>2026-08-17T20:54:27.000Z</time><extensions/></trkpt><trkpt lat="59.40713167190552" lon="34.680941104888916"><time>2026-08-17T20:54:30.000Z</time><extensions/></trkpt><trkpt lat="59.40713167190552" lon="34.68102693557739"><time>2026-08-17T20:54:32.000Z</time><extensions/></trkpt><trkpt lat="59.4071102142334" lon="34.68117713928223"><time>2026-08-17T20:54:40.000Z</time><extensions/></trkpt><trkpt lat="59.40715312957764" lon="34.68117713928223"><time>2026-08-17T20:54:42.000Z</time><extensions/></trkpt><trkpt lat="59.40715312957764" lon="34.681198596954346"><time>2026-08-17T20:54:45.000Z</time><extensions/></trkpt><trkpt lat="59.40715312957764" lon="34.68115568161011"><time>2026-08-17T20:54:50.000Z</time><extensions/></trkpt><trkpt lat="59.407174587249756" lon="34.68128442764282"><time>2026-08-17T20:54:55.000Z</time><extensions/></trkpt><trkpt lat="59.407196044921875" lon="34.68132734298706"><time>2026-08-17T20:54:57.000Z</time><extensions/></trkpt><trkpt lat="59.407217502593994" lon="34.68139171600342"><time>2026-08-17T20:55:00.000Z</time><extensions/></trkpt><trkpt lat="59.40732479095459" lon="34.68156337738037"><time>2026-08-17T20:55:10.000Z</time><extensions/></trkpt><trkpt lat="59.40732479095459" lon="34.68154191970825"><time>2026-08-17T20:55:12.000Z</time><extensions/></trkpt><trkpt lat="59.40734624862671" lon="34.68162775039673"><time>2026-08-17T20:55:20.000Z</time><extensions/></trkpt><trkpt lat="59.40738916397095" lon="34.681692123413086"><time>2026-08-17T20:55:22.000Z</time><extensions/></trkpt><trkpt lat="59.40738916397095" lon="34.681713581085205"><time>2026-08-17T20:55:25.000Z</time><extensions/></trkpt><trkpt lat="59.407432079315186" lon="34.68177795410156"><time>2026-08-17T20:55:30.000Z</time><extensions/></trkpt><trkpt lat="59.407453536987305" lon="34.68184232711792"><time>2026-08-17T20:55:32.000Z</time><extensions/></trkpt><trkpt lat="59.407474994659424" lon="34.68188524246216"><time>2026-08-17T20:55:35.000Z</time><extensions/></trkpt><trkpt lat="59.40753936767578" lon="34.681949615478516"><time>2026-08-17T20:55:42.000Z</time><extensions/></trkpt><trkpt lat="59.40760374069214" lon="34.681992530822754"><time>2026-08-17T20:55:45.000Z</time><extensions/></trkpt><trkpt lat="59.40762519836426" lon="34.68209981918335"><time>2026-08-17T20:55:52.000Z</time><extensions/></trkpt><trkpt lat="59.407689571380615" lon="34.68216419219971"><time>2026-08-17T20:55:55.000Z</time><extensions/></trkpt><trkpt lat="59.40773248672485" lon="34.682185649871826"><time>2026-08-17T20:55:57.000Z</time><extensions/></trkpt><trkpt lat="59.40775394439697" lon="34.682228565216064"><time>2026-08-17T20:56:05.000Z</time><extensions/></trkpt><trkpt lat="59.40779685974121" lon="34.6822714805603"><time>2026-08-17T20:56:07.000Z</time><extensions/></trkpt><trkpt lat="59.40783977508545" lon="34.68233585357666"><time>2026-08-17T20:56:12.000Z</time><extensions/></trkpt><trkpt lat="59.40788269042969" lon="34.682443141937256"><time>2026-08-17T20:56:20.000Z</time><extensions/></trkpt><trkpt lat="59.40790414810181" lon="34.68252897262573"><time>2026-08-17T20:56:22.000Z</time><extensions/></trkpt><trkpt lat="59.407925605773926" lon="34.68259334564209"><time>2026-08-17T20:56:25.000Z</time><extensions/></trkpt><trkpt lat="59.407968521118164" lon="34.68263626098633"><time>2026-08-17T20:56:27.000Z</time><extensions/></trkpt><trkpt lat="59.40803289413452" lon="34.682679176330566"><time>2026-08-17T20:56:35.000Z</time><extensions/></trkpt><trkpt lat="59.40805435180664" lon="34.682722091674805"><time>2026-08-17T20:56:37.000Z</time><extensions/></trkpt><trkpt lat="59.408118724823" lon="34.68291521072388"><time>2026-08-17T20:56:50.000Z</time><extensions/></trkpt><trkpt lat="59.408161640167236" lon="34.68300104141235"><time>2026-08-17T20:56:57.000Z</time><extensions/></trkpt><trkpt lat="59.408183097839355" lon="34.68306541442871"><time>2026-08-17T20:57:00.000Z</time><extensions/></trkpt><trkpt lat="59.408204555511475" lon="34.68304395675659"><time>2026-08-17T20:57:02.000Z</time><extensions/></trkpt><trkpt lat="59.40824747085571" lon="34.68310832977295"><time>2026-08-17T20:57:10.000Z</time><extensions/></trkpt><trkpt lat="59.40826892852783" lon="34.68315124511719"><time>2026-08-17T20:57:12.000Z</time><extensions/></trkpt><trkpt lat="59.40831184387207" lon="34.68325853347778"><time>2026-08-17T20:57:20.000Z</time><extensions/></trkpt><trkpt lat="59.40833330154419" lon="34.68332290649414"><time>2026-08-17T20:57:22.000Z</time><extensions/></trkpt><trkpt lat="59.40839767456055" lon="34.6833872795105"><time>2026-08-17T20:57:32.000Z</time><extensions/></trkpt><trkpt lat="59.408440589904785" lon="34.683451652526855"><time>2026-08-17T20:57:35.000Z</time><extensions/></trkpt><trkpt lat="59.40861225128174" lon="34.683730602264404"><time>2026-08-17T20:57:57.000Z</time><extensions/></trkpt><trkpt lat="59.408676624298096" lon="34.68379497528076"><time>2026-08-17T20:58:02.000Z</time><extensions/></trkpt><trkpt lat="59.40865516662598" lon="34.68390226364136"><time>2026-08-17T20:58:07.000Z</time><extensions/></trkpt><trkpt lat="59.408676624298096" lon="34.68392372131348"><time>2026-08-17T20:58:10.000Z</time><extensions/></trkpt><trkpt lat="59.40874099731445" lon="34.683988094329834"><time>2026-08-17T20:58:17.000Z</time><extensions/></trkpt><trkpt lat="59.40876245498657" lon="34.68407392501831"><time>2026-08-17T20:58:20.000Z</time><extensions/></trkpt><trkpt lat="59.40880537033081" lon="34.684202671051025"><time>2026-08-17T20:58:25.000Z</time><extensions/></trkpt><trkpt lat="59.408955574035645" lon="34.68450307846069"><time>2026-08-17T20:58:47.000Z</time><extensions/></trkpt><trkpt lat="59.40906286239624" lon="34.68476057052612"><time>2026-08-17T20:59:00.000Z</time><extensions/></trkpt><trkpt lat="59.40908432006836" lon="34.68482494354248"><time>2026-08-17T20:59:12.000Z</time><extensions/></trkpt><trkpt lat="59.40910577774048" lon="34.68491077423096"><time>2026-08-17T20:59:15.000Z</time><extensions/></trkpt><trkpt lat="59.40914869308472" lon="34.68503952026367"><time>2026-08-17T20:59:20.000Z</time><extensions/></trkpt><trkpt lat="59.40914869308472" lon="34.68508243560791"><time>2026-08-17T20:59:25.000Z</time><extensions/></trkpt><trkpt lat="59.409170150756836" lon="34.68514680862427"><time>2026-08-17T20:59:27.000Z</time><extensions/></trkpt><trkpt lat="59.409191608428955" lon="34.685232639312744"><time>2026-08-17T20:59:30.000Z</time><extensions/></trkpt><trkpt lat="59.409213066101074" lon="34.6852970123291"><time>2026-08-17T20:59:32.000Z</time><extensions/></trkpt><trkpt lat="59.409191608428955" lon="34.68527555465698"><time>2026-08-17T20:59:45.000Z</time><extensions/></trkpt><trkpt lat="59.40925598144531" lon="34.685447216033936"><time>2026-08-17T20:59:47.000Z</time><extensions/></trkpt><trkpt lat="59.40929889678955" lon="34.68557596206665"><time>2026-08-17T20:59:50.000Z</time><extensions/></trkpt><trkpt lat="59.40929889678955" lon="34.68564033508301"><time>2026-08-17T20:59:52.000Z</time><extensions/></trkpt><trkpt lat="59.40932035446167" lon="34.685704708099365"><time>2026-08-17T20:59:55.000Z</time><extensions/></trkpt><trkpt lat="59.40934181213379" lon="34.6857476234436"><time>2026-08-17T20:59:57.000Z</time><extensions/></trkpt><trkpt lat="59.409449100494385" lon="34.68602657318115"><time>2026-08-17T21:00:12.000Z</time><extensions/></trkpt><trkpt lat="59.409449100494385" lon="34.68606948852539"><time>2026-08-17T21:00:15.000Z</time><extensions/></trkpt><trkpt lat="59.409470558166504" lon="34.68609094619751"><time>2026-08-17T21:00:17.000Z</time><extensions/></trkpt><trkpt lat="59.40949201583862" lon="34.68613386154175"><time>2026-08-17T21:00:20.000Z</time><extensions/></trkpt><trkpt lat="59.40951347351074" lon="34.686219692230225"><time>2026-08-17T21:00:22.000Z</time><extensions/></trkpt><trkpt lat="59.40953493118286" lon="34.68639135360718"><time>2026-08-17T21:00:30.000Z</time><extensions/></trkpt><trkpt lat="59.40953493118286" lon="34.686477184295654"><time>2026-08-17T21:00:32.000Z</time><extensions/></trkpt><trkpt lat="59.4095778465271" lon="34.68664884567261"><time>2026-08-17T21:00:47.000Z</time><extensions/></trkpt><trkpt lat="59.4095778465271" lon="34.68679904937744"><time>2026-08-17T21:00:55.000Z</time><extensions/></trkpt><trkpt lat="59.4095778465271" lon="34.6868634223938"><time>2026-08-17T21:00:57.000Z</time><extensions/></trkpt><trkpt lat="59.4095778465271" lon="34.686927795410156"><time>2026-08-17T21:01:00.000Z</time><extensions/></trkpt><trkpt lat="59.4095778465271" lon="34.68701362609863"><time>2026-08-17T21:01:02.000Z</time><extensions/></trkpt><trkpt lat="59.4095778465271" lon="34.68709945678711"><time>2026-08-17T21:01:05.000Z</time><extensions/></trkpt><trkpt lat="59.4095778465271" lon="34.68714237213135"><time>2026-08-17T21:01:10.000Z</time><extensions/></trkpt><trkpt lat="59.4095778465271" lon="34.687228202819824"><time>2026-08-17T21:01:12.000Z</time><extensions/></trkpt><trkpt lat="59.40955638885498" lon="34.68729257583618"><time>2026-08-17T21:01:20.000Z</time><extensions/></trkpt><trkpt lat="59.40955638885498" lon="34.68735694885254"><time>2026-08-17T21:01:22.000Z</time><extensions/></trkpt><trkpt lat="59.40955638885498" lon="34.6874213218689"><time>2026-08-17T21:01:25.000Z</time><extensions/></trkpt><trkpt lat="59.4095778465271" lon="34.687464237213135"><time>2026-08-17T21:01:27.000Z</time><extensions/></trkpt><trkpt lat="59.4095778465271" lon="34.68752861022949"><time>2026-08-17T21:01:30.000Z</time><extensions/></trkpt><trkpt lat="59.40955638885498" lon="34.68757152557373"><time>2026-08-17T21:01:32.000Z</time><extensions/></trkpt><trkpt lat="59.40955638885498" lon="34.68763589859009"><time>2026-08-17T21:01:35.000Z</time><extensions/></trkpt><trkpt lat="59.40955638885498" lon="34.687678813934326"><time>2026-08-17T21:01:37.000Z</time><extensions/></trkpt><trkpt lat="59.40955638885498" lon="34.68778610229492"><time>2026-08-17T21:01:50.000Z</time><extensions/></trkpt><trkpt lat="59.40955638885498" lon="34.6878719329834"><time>2026-08-17T21:01:52.000Z</time><extensions/></trkpt><trkpt lat="59.40955638885498" lon="34.6878719329834"><time>2026-08-17T21:02:00.000Z</time><extensions/></trkpt><trkpt lat="59.40955638885498" lon="34.687936305999756"><time>2026-08-17T21:02:05.000Z</time><extensions/></trkpt><trkpt lat="59.40955638885498" lon="34.68806505203247"><time>2026-08-17T21:02:07.000Z</time><extensions/></trkpt><trkpt lat="59.4095778465271" lon="34.688236713409424"><time>2026-08-17T21:02:20.000Z</time><extensions/></trkpt><trkpt lat="59.40959930419922" lon="34.6883225440979"><time>2026-08-17T21:02:25.000Z</time><extensions/></trkpt><trkpt lat="59.40959930419922" lon="34.68827962875366"><time>2026-08-17T21:02:27.000Z</time><extensions/></trkpt><trkpt lat="59.40959930419922" lon="34.68840837478638"><time>2026-08-17T21:02:35.000Z</time><extensions/></trkpt><trkpt lat="59.40962076187134" lon="34.68853712081909"><time>2026-08-17T21:02:37.000Z</time><extensions/></trkpt><trkpt lat="59.40959930419922" lon="34.688429832458496"><time>2026-08-17T21:02:45.000Z</time><extensions/></trkpt><trkpt lat="59.40959930419922" lon="34.68840837478638"><time>2026-08-17T21:02:57.000Z</time><extensions/></trkpt><trkpt lat="59.40959930419922" lon="34.68851566314697"><time>2026-08-17T21:03:20.000Z</time><extensions/></trkpt><trkpt lat="59.40962076187134" lon="34.68866586685181"><time>2026-08-17T21:03:30.000Z</time><extensions/></trkpt><trkpt lat="59.40964221954346" lon="34.68883752822876"><time>2026-08-17T21:03:32.000Z</time><extensions/></trkpt><trkpt lat="59.40962076187134" lon="34.688944816589355"><time>2026-08-17T21:03:35.000Z</time><extensions/></trkpt><trkpt lat="59.40964221954346" lon="34.68900918960571"><time>2026-08-17T21:03:37.000Z</time><extensions/></trkpt><trkpt lat="59.40959930419922" lon="34.68907356262207"><time>2026-08-17T21:03:50.000Z</time><extensions/></trkpt><trkpt lat="59.40953493118286" lon="34.689202308654785"><time>2026-08-17T21:03:52.000Z</time><extensions/></trkpt><trkpt lat="59.40936326980591" lon="34.68952417373657"><time>2026-08-17T21:04:15.000Z</time><extensions/></trkpt><trkpt lat="59.40932035446167" lon="34.68961000442505"><time>2026-08-17T21:04:22.000Z</time><extensions/></trkpt><trkpt lat="59.40932035446167" lon="34.689717292785645"><time>2026-08-17T21:04:32.000Z</time><extensions/></trkpt><trkpt lat="59.40929889678955" lon="34.68982458114624"><time>2026-08-17T21:04:35.000Z</time><extensions/></trkpt><trkpt lat="59.40927743911743" lon="34.6898889541626"><time>2026-08-17T21:04:40.000Z</time><extensions/></trkpt><trkpt lat="59.40923452377319" lon="34.689953327178955"><time>2026-08-17T21:04:42.000Z</time><extensions/></trkpt><trkpt lat="59.409213066101074" lon="34.68999624252319"><time>2026-08-17T21:04:45.000Z</time><extensions/></trkpt><trkpt lat="59.409170150756836" lon="34.69001770019531"><time>2026-08-17T21:04:47.000Z</time><extensions/></trkpt><trkpt lat="59.40914869308472" lon="34.69010353088379"><time>2026-08-17T21:04:50.000Z</time><extensions/></trkpt><trkpt lat="59.4091272354126" lon="34.69016790390015"><time>2026-08-17T21:04:52.000Z</time><extensions/></trkpt><trkpt lat="59.40908432006836" lon="34.69025373458862"><time>2026-08-17T21:05:05.000Z</time><extensions/></trkpt><trkpt lat="59.40906286239624" lon="34.69036102294922"><time>2026-08-17T21:05:07.000Z</time><extensions/></trkpt><trkpt lat="59.40906286239624" lon="34.690425395965576"><time>2026-08-17T21:05:10.000Z</time><extensions/></trkpt><trkpt lat="59.40904140472412" lon="34.69059705734253"><time>2026-08-17T21:05:25.000Z</time><extensions/></trkpt><trkpt lat="59.40899848937988" lon="34.69074726104736"><time>2026-08-17T21:05:27.000Z</time><extensions/></trkpt><trkpt lat="59.40899848937988" lon="34.69085454940796"><time>2026-08-17T21:05:30.000Z</time><extensions/></trkpt><trkpt lat="59.409019947052" lon="34.6908974647522"><time>2026-08-17T21:05:32.000Z</time><extensions/></trkpt><trkpt lat="59.40899848937988" lon="34.690940380096436"><time>2026-08-17T21:05:40.000Z</time><extensions/></trkpt><trkpt lat="59.408977031707764" lon="34.69104766845703"><time>2026-08-17T21:05:42.000Z</time><extensions/></trkpt><trkpt lat="59.408955574035645" lon="34.69111204147339"><time>2026-08-17T21:05:45.000Z</time><extensions/></trkpt><trkpt lat="59.408934116363525" lon="34.691176414489746"><time>2026-08-17T21:05:50.000Z</time><extensions/></trkpt><trkpt lat="59.408912658691406" lon="34.691219329833984"><time>2026-08-17T21:05:52.000Z</time><extensions/></trkpt><trkpt lat="59.40889120101929" lon="34.69162702560425"><time>2026-08-17T21:06:12.000Z</time><extensions/></trkpt><trkpt lat="59.40886974334717" lon="34.691970348358154"><time>2026-08-17T21:06:32.000Z</time><extensions/></trkpt><trkpt lat="59.40889120101929" lon="34.69203472137451"><time>2026-08-17T21:06:37.000Z</time><extensions/></trkpt><trkpt lat="59.40889120101929" lon="34.69216346740723"><time>2026-08-17T21:06:40.000Z</time><extensions/></trkpt><trkpt lat="59.408934116363525" lon="34.69227075576782"><time>2026-08-17T21:06:42.000Z</time><extensions/></trkpt><trkpt lat="59.408955574035645" lon="34.69231367111206"><time>2026-08-17T21:06:45.000Z</time><extensions/></trkpt><trkpt lat="59.408977031707764" lon="34.69231367111206"><time>2026-08-17T21:06:47.000Z</time><extensions/></trkpt><trkpt lat="59.40904140472412" lon="34.69239950180054"><time>2026-08-17T21:06:57.000Z</time><extensions/></trkpt><trkpt lat="59.40908432006836" lon="34.692442417144775"><time>2026-08-17T21:07:00.000Z</time><extensions/></trkpt><trkpt lat="59.40910577774048" lon="34.69250679016113"><time>2026-08-17T21:07:02.000Z</time><extensions/></trkpt><trkpt lat="59.40914869308472" lon="34.69254970550537"><time>2026-08-17T21:07:05.000Z</time><extensions/></trkpt><trkpt lat="59.409170150756836" lon="34.69257116317749"><time>2026-08-17T21:07:10.000Z</time><extensions/></trkpt><trkpt lat="59.409191608428955" lon="34.69261407852173"><time>2026-08-17T21:07:12.000Z</time><extensions/></trkpt><trkpt lat="59.40923452377319" lon="34.69259262084961"><time>2026-08-17T21:07:15.000Z</time><extensions/></trkpt><trkpt lat="59.40923452377319" lon="34.69257116317749"><time>2026-08-17T21:07:17.000Z</time><extensions/></trkpt><trkpt lat="59.40927743911743" lon="34.692699909210205"><time>2026-08-17T21:07:25.000Z</time><extensions/></trkpt><trkpt lat="59.40929889678955" lon="34.69276428222656"><time>2026-08-17T21:07:27.000Z</time><extensions/></trkpt><trkpt lat="59.40938472747803" lon="34.69289302825928"><time>2026-08-17T21:07:40.000Z</time><extensions/></trkpt><trkpt lat="59.40940618515015" lon="34.692978858947754"><time>2026-08-17T21:07:42.000Z</time><extensions/></trkpt><trkpt lat="59.409449100494385" lon="34.69304323196411"><time>2026-08-17T21:07:45.000Z</time><extensions/></trkpt><trkpt lat="59.409470558166504" lon="34.69308614730835"><time>2026-08-17T21:07:47.000Z</time><extensions/></trkpt><trkpt lat="59.40953493118286" lon="34.693193435668945"><time>2026-08-17T21:07:52.000Z</time><extensions/></trkpt><trkpt lat="59.40955638885498" lon="34.6932578086853"><time>2026-08-17T21:08:07.000Z</time><extensions/></trkpt><trkpt lat="59.40959930419922" lon="34.69332218170166"><time>2026-08-17T21:08:10.000Z</time><extensions/></trkpt><trkpt lat="59.40964221954346" lon="34.6933650970459"><time>2026-08-17T21:08:12.000Z</time><extensions/></trkpt><trkpt lat="59.409685134887695" lon="34.693429470062256"><time>2026-08-17T21:08:15.000Z</time><extensions/></trkpt><trkpt lat="59.409706592559814" lon="34.693450927734375"><time>2026-08-17T21:08:17.000Z</time><extensions/></trkpt><trkpt lat="59.40974950790405" lon="34.693450927734375"><time>2026-08-17T21:08:20.000Z</time><extensions/></trkpt><trkpt lat="59.40977096557617" lon="34.693472385406494"><time>2026-08-17T21:08:22.000Z</time><extensions/></trkpt><trkpt lat="59.40977096557617" lon="34.69351530075073"><time>2026-08-17T21:08:25.000Z</time><extensions/></trkpt><trkpt lat="59.40981388092041" lon="34.69355821609497"><time>2026-08-17T21:08:27.000Z</time><extensions/></trkpt><trkpt lat="59.40983533859253" lon="34.69353675842285"><time>2026-08-17T21:08:30.000Z</time><extensions/></trkpt><trkpt lat="59.40987825393677" lon="34.69357967376709"><time>2026-08-17T21:08:35.000Z</time><extensions/></trkpt><trkpt lat="59.409921169281006" lon="34.69362258911133"><time>2026-08-17T21:08:37.000Z</time><extensions/></trkpt><trkpt lat="59.409964084625244" lon="34.693708419799805"><time>2026-08-17T21:08:42.000Z</time><extensions/></trkpt><trkpt lat="59.40998554229736" lon="34.693729877471924"><time>2026-08-17T21:08:45.000Z</time><extensions/></trkpt><trkpt lat="59.4100284576416" lon="34.69379425048828"><time>2026-08-17T21:08:47.000Z</time><extensions/></trkpt><trkpt lat="59.4101357460022" lon="34.693965911865234"><time>2026-08-17T21:09:05.000Z</time><extensions/></trkpt><trkpt lat="59.41007137298584" lon="34.69383716583252"><time>2026-08-17T21:09:07.000Z</time><extensions/></trkpt><trkpt lat="59.4100284576416" lon="34.69377279281616"><time>2026-08-17T21:09:10.000Z</time><extensions/></trkpt><trkpt lat="59.41000699996948" lon="34.69375133514404"><time>2026-08-17T21:09:12.000Z</time><extensions/></trkpt><trkpt lat="59.41007137298584" lon="34.6938157081604"><time>2026-08-17T21:09:22.000Z</time><extensions/></trkpt><trkpt lat="59.41007137298584" lon="34.69385862350464"><time>2026-08-17T21:09:25.000Z</time><extensions/></trkpt><trkpt lat="59.41009283065796" lon="34.69390153884888"><time>2026-08-17T21:09:27.000Z</time><extensions/></trkpt><trkpt lat="59.41011428833008" lon="34.693965911865234"><time>2026-08-17T21:09:30.000Z</time><extensions/></trkpt><trkpt lat="59.410200119018555" lon="34.69409465789795"><time>2026-08-17T21:09:37.000Z</time><extensions/></trkpt><trkpt lat="59.41024303436279" lon="34.694201946258545"><time>2026-08-17T21:09:45.000Z</time><extensions/></trkpt><trkpt lat="59.41026449203491" lon="34.69428777694702"><time>2026-08-17T21:09:55.000Z</time><extensions/></trkpt><trkpt lat="59.41028594970703" lon="34.69435214996338"><time>2026-08-17T21:09:57.000Z</time><extensions/></trkpt><trkpt lat="59.41028594970703" lon="34.694437980651855"><time>2026-08-17T21:10:00.000Z</time><extensions/></trkpt><trkpt lat="59.41035032272339" lon="34.69475984573364"><time>2026-08-17T21:10:20.000Z</time><extensions/></trkpt><trkpt lat="59.41037178039551" lon="34.69482421875"><time>2026-08-17T21:10:22.000Z</time><extensions/></trkpt><trkpt lat="59.41037178039551" lon="34.69486713409424"><time>2026-08-17T21:10:25.000Z</time><extensions/></trkpt><trkpt lat="59.41039323806763" lon="34.694931507110596"><time>2026-08-17T21:10:27.000Z</time><extensions/></trkpt><trkpt lat="59.410414695739746" lon="34.69501733779907"><time>2026-08-17T21:10:30.000Z</time><extensions/></trkpt><trkpt lat="59.410436153411865" lon="34.69506025314331"><time>2026-08-17T21:10:32.000Z</time><extensions/></trkpt><trkpt lat="59.41039323806763" lon="34.69501733779907"><time>2026-08-17T21:10:42.000Z</time><extensions/></trkpt><trkpt lat="59.41037178039551" lon="34.694952964782715"><time>2026-08-17T21:10:45.000Z</time><extensions/></trkpt><trkpt lat="59.41035032272339" lon="34.69491004943848"><time>2026-08-17T21:10:47.000Z</time><extensions/></trkpt><trkpt lat="59.41037178039551" lon="34.69491004943848"><time>2026-08-17T21:10:57.000Z</time><extensions/></trkpt><trkpt lat="59.41032886505127" lon="34.69480276107788"><time>2026-08-17T21:11:00.000Z</time><extensions/></trkpt><trkpt lat="59.41032886505127" lon="34.69473838806152"><time>2026-08-17T21:11:02.000Z</time><extensions/></trkpt><trkpt lat="59.41032886505127" lon="34.694695472717285"><time>2026-08-17T21:11:07.000Z</time><extensions/></trkpt><trkpt lat="59.41030740737915" lon="34.69463109970093"><time>2026-08-17T21:11:10.000Z</time><extensions/></trkpt><trkpt lat="59.41028594970703" lon="34.69452381134033"><time>2026-08-17T21:11:12.000Z</time><extensions/></trkpt><trkpt lat="59.41028594970703" lon="34.694459438323975"><time>2026-08-17T21:11:15.000Z</time><extensions/></trkpt><trkpt lat="59.41028594970703" lon="34.69439506530762"><time>2026-08-17T21:11:17.000Z</time><extensions/></trkpt><trkpt lat="59.410221576690674" lon="34.694223403930664"><time>2026-08-17T21:11:27.000Z</time><extensions/></trkpt><trkpt lat="59.410200119018555" lon="34.69415903091431"><time>2026-08-17T21:11:30.000Z</time><extensions/></trkpt><trkpt lat="59.410178661346436" lon="34.69413757324219"><time>2026-08-17T21:11:32.000Z</time><extensions/></trkpt><trkpt lat="59.410178661346436" lon="34.69407320022583"><time>2026-08-17T21:11:35.000Z</time><extensions/></trkpt><trkpt lat="59.410157203674316" lon="34.69403028488159"><time>2026-08-17T21:11:37.000Z</time><extensions/></trkpt><trkpt lat="59.4101357460022" lon="34.693965911865234"><time>2026-08-17T21:11:40.000Z</time><extensions/></trkpt><trkpt lat="59.41011428833008" lon="34.69390153884888"><time>2026-08-17T21:11:42.000Z</time><extensions/></trkpt><trkpt lat="59.41007137298584" lon="34.69385862350464"><time>2026-08-17T21:11:45.000Z</time><extensions/></trkpt><trkpt lat="59.41004991531372" lon="34.69383716583252"><time>2026-08-17T21:11:47.000Z</time><extensions/></trkpt><trkpt lat="59.41000699996948" lon="34.69375133514404"><time>2026-08-17T21:11:52.000Z</time><extensions/></trkpt><trkpt lat="59.40998554229736" lon="34.693729877471924"><time>2026-08-17T21:11:55.000Z</time><extensions/></trkpt><trkpt lat="59.409964084625244" lon="34.693686962127686"><time>2026-08-17T21:12:00.000Z</time><extensions/></trkpt><trkpt lat="59.40987825393677" lon="34.69360113143921"><time>2026-08-17T21:12:05.000Z</time><extensions/></trkpt><trkpt lat="59.40983533859253" lon="34.69353675842285"><time>2026-08-17T21:12:07.000Z</time><extensions/></trkpt><trkpt lat="59.40977096557617" lon="34.693472385406494"><time>2026-08-17T21:12:15.000Z</time><extensions/></trkpt><trkpt lat="59.409685134887695" lon="34.69338655471802"><time>2026-08-17T21:12:25.000Z</time><extensions/></trkpt><trkpt lat="59.40964221954346" lon="34.69332218170166"><time>2026-08-17T21:12:27.000Z</time><extensions/></trkpt><trkpt lat="59.4095778465271" lon="34.6932578086853"><time>2026-08-17T21:12:37.000Z</time><extensions/></trkpt><trkpt lat="59.40955638885498" lon="34.693193435668945"><time>2026-08-17T21:12:40.000Z</time><extensions/></trkpt><trkpt lat="59.40951347351074" lon="34.69315052032471"><time>2026-08-17T21:12:42.000Z</time><extensions/></trkpt><trkpt lat="59.40949201583862" lon="34.69312906265259"><time>2026-08-17T21:12:45.000Z</time><extensions/></trkpt><trkpt lat="59.409449100494385" lon="34.69306468963623"><time>2026-08-17T21:12:47.000Z</time><extensions/></trkpt><trkpt lat="59.409449100494385" lon="34.69300031661987"><time>2026-08-17T21:12:50.000Z</time><extensions/></trkpt><trkpt lat="59.409427642822266" lon="34.69300031661987"><time>2026-08-17T21:12:55.000Z</time><extensions/></trkpt><trkpt lat="59.40940618515015" lon="34.69302177429199"><time>2026-08-17T21:12:57.000Z</time><extensions/></trkpt><trkpt lat="59.40938472747803" lon="34.692957401275635"><time>2026-08-17T21:13:05.000Z</time><extensions/></trkpt><trkpt lat="59.40934181213379" lon="34.6929144859314"><time>2026-08-17T21:13:07.000Z</time><extensions/></trkpt><trkpt lat="59.40934181213379" lon="34.69287157058716"><time>2026-08-17T21:13:10.000Z</time><extensions/></trkpt><trkpt lat="59.40929889678955" lon="34.69276428222656"><time>2026-08-17T21:13:12.000Z</time><extensions/></trkpt><trkpt lat="59.40927743911743" lon="34.692699909210205"><time>2026-08-17T21:13:15.000Z</time><extensions/></trkpt><trkpt lat="59.40923452377319" lon="34.69261407852173"><time>2026-08-17T21:13:25.000Z</time><extensions/></trkpt><trkpt lat="59.409191608428955" lon="34.69257116317749"><time>2026-08-17T21:13:27.000Z</time><extensions/></trkpt><trkpt lat="59.409170150756836" lon="34.69254970550537"><time>2026-08-17T21:13:30.000Z</time><extensions/></trkpt><trkpt lat="59.4091272354126" lon="34.69257116317749"><time>2026-08-17T21:13:32.000Z</time><extensions/></trkpt><trkpt lat="59.40908432006836" lon="34.692463874816895"><time>2026-08-17T21:13:42.000Z</time><extensions/></trkpt><trkpt lat="59.40904140472412" lon="34.69239950180054"><time>2026-08-17T21:13:45.000Z</time><extensions/></trkpt><trkpt lat="59.409019947052" lon="34.6923565864563"><time>2026-08-17T21:13:47.000Z</time><extensions/></trkpt><trkpt lat="59.40904140472412" lon="34.69233512878418"><time>2026-08-17T21:13:50.000Z</time><extensions/></trkpt><trkpt lat="59.40906286239624" lon="34.69227075576782"><time>2026-08-17T21:13:52.000Z</time><extensions/></trkpt><trkpt lat="59.40899848937988" lon="34.69231367111206"><time>2026-08-17T21:13:55.000Z</time><extensions/></trkpt><trkpt lat="59.408934116363525" lon="34.6922492980957"><time>2026-08-17T21:13:57.000Z</time><extensions/></trkpt><trkpt lat="59.408934116363525" lon="34.69214200973511"><time>2026-08-17T21:14:00.000Z</time><extensions/></trkpt><trkpt lat="59.40889120101929" lon="34.691970348358154"><time>2026-08-17T21:14:10.000Z</time><extensions/></trkpt><trkpt lat="59.408912658691406" lon="34.69175577163696"><time>2026-08-17T21:14:25.000Z</time><extensions/></trkpt><trkpt lat="59.40889120101929" lon="34.691691398620605"><time>2026-08-17T21:14:27.000Z</time><extensions/></trkpt><trkpt lat="59.408912658691406" lon="34.69160556793213"><time>2026-08-17T21:14:37.000Z</time><extensions/></trkpt><trkpt lat="59.40884828567505" lon="34.691712856292725"><time>2026-08-17T21:14:40.000Z</time><extensions/></trkpt><trkpt lat="59.40880537033081" lon="34.69182014465332"><time>2026-08-17T21:14:42.000Z</time><extensions/></trkpt><trkpt lat="59.40876245498657" lon="34.691927433013916"><time>2026-08-17T21:14:45.000Z</time><extensions/></trkpt><trkpt lat="59.408676624298096" lon="34.69229221343994"><time>2026-08-17T21:15:05.000Z</time><extensions/></trkpt><trkpt lat="59.40865516662598" lon="34.6923565864563"><time>2026-08-17T21:15:30.000Z</time><extensions/></trkpt><trkpt lat="59.40863370895386" lon="34.692420959472656"><time>2026-08-17T21:15:32.000Z</time><extensions/></trkpt><trkpt lat="59.40859079360962" lon="34.692485332489014"><time>2026-08-17T21:15:35.000Z</time><extensions/></trkpt><trkpt lat="59.40859079360962" lon="34.69254970550537"><time>2026-08-17T21:15:37.000Z</time><extensions/></trkpt><trkpt lat="59.4085693359375" lon="34.69261407852173"><time>2026-08-17T21:15:40.000Z</time><extensions/></trkpt><trkpt lat="59.40854787826538" lon="34.692678451538086"><time>2026-08-17T21:15:42.000Z</time><extensions/></trkpt><trkpt lat="59.40850496292114" lon="34.69306468963623"><time>2026-08-17T21:16:02.000Z</time><extensions/></trkpt><trkpt lat="59.40848350524902" lon="34.69312906265259"><time>2026-08-17T21:16:07.000Z</time><extensions/></trkpt><trkpt lat="59.408462047576904" lon="34.69330072402954"><time>2026-08-17T21:16:17.000Z</time><extensions/></trkpt><trkpt lat="59.408440589904785" lon="34.69340801239014"><time>2026-08-17T21:16:20.000Z</time><extensions/></trkpt><trkpt lat="59.408440589904785" lon="34.693472385406494"><time>2026-08-17T21:16:22.000Z</time><extensions/></trkpt><trkpt lat="59.408419132232666" lon="34.69353675842285"><time>2026-08-17T21:16:25.000Z</time><extensions/></trkpt><trkpt lat="59.408419132232666" lon="34.69360113143921"><time>2026-08-17T21:16:27.000Z</time><extensions/></trkpt><trkpt lat="59.40839767456055" lon="34.693665504455566"><time>2026-08-17T21:16:30.000Z</time><extensions/></trkpt><trkpt lat="59.40837621688843" lon="34.693922996520996"><time>2026-08-17T21:16:42.000Z</time><extensions/></trkpt><trkpt lat="59.40833330154419" lon="34.69409465789795"><time>2026-08-17T21:16:55.000Z</time><extensions/></trkpt><trkpt lat="59.40831184387207" lon="34.694180488586426"><time>2026-08-17T21:16:57.000Z</time><extensions/></trkpt><trkpt lat="59.40824747085571" lon="34.69465255737305"><time>2026-08-17T21:17:22.000Z</time><extensions/></trkpt><trkpt lat="59.408183097839355" lon="34.69503879547119"><time>2026-08-17T21:17:40.000Z</time><extensions/></trkpt><trkpt lat="59.408161640167236" lon="34.695467948913574"><time>2026-08-17T21:18:07.000Z</time><extensions/></trkpt><trkpt lat="59.40814018249512" lon="34.69576835632324"><time>2026-08-17T21:18:22.000Z</time><extensions/></trkpt><trkpt lat="59.408118724823" lon="34.69587564468384"><time>2026-08-17T21:18:30.000Z</time><extensions/></trkpt><trkpt lat="59.40809726715088" lon="34.695940017700195"><time>2026-08-17T21:18:32.000Z</time><extensions/></trkpt><trkpt lat="59.40803289413452" lon="34.69632625579834"><time>2026-08-17T21:18:52.000Z</time><extensions/></trkpt><trkpt lat="59.40803289413452" lon="34.69632625579834"><time>2026-08-17T21:19:02.000Z</time><extensions/></trkpt><trkpt lat="59.40803289413452" lon="34.696412086486816"><time>2026-08-17T21:19:12.000Z</time><extensions/></trkpt><trkpt lat="59.4080114364624" lon="34.69651937484741"><time>2026-08-17T21:19:17.000Z</time><extensions/></trkpt><trkpt lat="59.407947063446045" lon="34.696948528289795"><time>2026-08-17T21:19:37.000Z</time><extensions/></trkpt><trkpt lat="59.40788269042969" lon="34.69707727432251"><time>2026-08-17T21:20:00.000Z</time><extensions/></trkpt><trkpt lat="59.40779685974121" lon="34.697206020355225"><time>2026-08-17T21:20:05.000Z</time><extensions/></trkpt><trkpt lat="59.40775394439697" lon="34.6972918510437"><time>2026-08-17T21:20:10.000Z</time><extensions/></trkpt><trkpt lat="59.40773248672485" lon="34.69735622406006"><time>2026-08-17T21:20:12.000Z</time><extensions/></trkpt><trkpt lat="59.40773248672485" lon="34.69735622406006"><time>2026-08-17T21:20:15.000Z</time><extensions/></trkpt><trkpt lat="59.407711029052734" lon="34.6973991394043"><time>2026-08-17T21:20:17.000Z</time><extensions/></trkpt><trkpt lat="59.40775394439697" lon="34.69733476638794"><time>2026-08-17T21:20:20.000Z</time><extensions/></trkpt><trkpt lat="59.407689571380615" lon="34.69735622406006"><time>2026-08-17T21:20:27.000Z</time><extensions/></trkpt><trkpt lat="59.407668113708496" lon="34.6973991394043"><time>2026-08-17T21:20:30.000Z</time><extensions/></trkpt><trkpt lat="59.40764665603638" lon="34.697420597076416"><time>2026-08-17T21:20:32.000Z</time><extensions/></trkpt><trkpt lat="59.40758228302002" lon="34.69761371612549"><time>2026-08-17T21:20:40.000Z</time><extensions/></trkpt><trkpt lat="59.40753936767578" lon="34.697699546813965"><time>2026-08-17T21:20:50.000Z</time><extensions/></trkpt><trkpt lat="59.407453536987305" lon="34.69804286956787"><time>2026-08-17T21:21:12.000Z</time><extensions/></trkpt><trkpt lat="59.407410621643066" lon="34.69810724258423"><time>2026-08-17T21:21:15.000Z</time><extensions/></trkpt><trkpt lat="59.40734624862671" lon="34.698214530944824"><time>2026-08-17T21:21:27.000Z</time><extensions/></trkpt><trkpt lat="59.40726041793823" lon="34.698429107666016"><time>2026-08-17T21:21:57.000Z</time><extensions/></trkpt><trkpt lat="59.40715312957764" lon="34.69877243041992"><time>2026-08-17T21:22:17.000Z</time><extensions/></trkpt><trkpt lat="59.40708875656128" lon="34.69900846481323"><time>2026-08-17T21:22:27.000Z</time><extensions/></trkpt><trkpt lat="59.40706729888916" lon="34.69907283782959"><time>2026-08-17T21:22:35.000Z</time><extensions/></trkpt><trkpt lat="59.40704584121704" lon="34.699158668518066"><time>2026-08-17T21:22:37.000Z</time><extensions/></trkpt><trkpt lat="59.406981468200684" lon="34.699416160583496"><time>2026-08-17T21:22:52.000Z</time><extensions/></trkpt><trkpt lat="59.406960010528564" lon="34.699437618255615"><time>2026-08-17T21:23:00.000Z</time><extensions/></trkpt><trkpt lat="59.406938552856445" lon="34.69952344894409"><time>2026-08-17T21:23:02.000Z</time><extensions/></trkpt><trkpt lat="59.406917095184326" lon="34.69960927963257"><time>2026-08-17T21:23:15.000Z</time><extensions/></trkpt><trkpt lat="59.40680980682373" lon="34.70003843307495"><time>2026-08-17T21:23:30.000Z</time><extensions/></trkpt><trkpt lat="59.406723976135254" lon="34.700446128845215"><time>2026-08-17T21:24:00.000Z</time><extensions/></trkpt><trkpt lat="59.40663814544678" lon="34.70083236694336"><time>2026-08-17T21:24:20.000Z</time><extensions/></trkpt><trkpt lat="59.40659523010254" lon="34.70111131668091"><time>2026-08-17T21:24:30.000Z</time><extensions/></trkpt><trkpt lat="59.40657377243042" lon="34.701175689697266"><time>2026-08-17T21:24:37.000Z</time><extensions/></trkpt><trkpt lat="59.40653085708618" lon="34.70136880874634"><time>2026-08-17T21:24:55.000Z</time><extensions/></trkpt><trkpt lat="59.406445026397705" lon="34.7017765045166"><time>2026-08-17T21:25:15.000Z</time><extensions/></trkpt><trkpt lat="59.40635919570923" lon="34.70214128494263"><time>2026-08-17T21:25:30.000Z</time><extensions/></trkpt><trkpt lat="59.40635919570923" lon="34.702184200286865"><time>2026-08-17T21:25:32.000Z</time><extensions/></trkpt><trkpt lat="59.40633773803711" lon="34.70224857330322"><time>2026-08-17T21:25:35.000Z</time><extensions/></trkpt><trkpt lat="59.40631628036499" lon="34.70237731933594"><time>2026-08-17T21:26:05.000Z</time><extensions/></trkpt><trkpt lat="59.40627336502075" lon="34.702656269073486"><time>2026-08-17T21:26:15.000Z</time><extensions/></trkpt><trkpt lat="59.406230449676514" lon="34.70287084579468"><time>2026-08-17T21:26:17.000Z</time><extensions/></trkpt><trkpt lat="59.406208992004395" lon="34.70297813415527"><time>2026-08-17T21:26:25.000Z</time><extensions/></trkpt><trkpt lat="59.40625190734863" lon="34.70297813415527"><time>2026-08-17T21:26:27.000Z</time><extensions/></trkpt><trkpt lat="59.406187534332275" lon="34.70308542251587"><time>2026-08-17T21:26:32.000Z</time><extensions/></trkpt><trkpt lat="59.406166076660156" lon="34.703214168548584"><time>2026-08-17T21:26:35.000Z</time><extensions/></trkpt><trkpt lat="59.40614461898804" lon="34.70329999923706"><time>2026-08-17T21:26:37.000Z</time><extensions/></trkpt><trkpt lat="59.406166076660156" lon="34.70338582992554"><time>2026-08-17T21:26:40.000Z</time><extensions/></trkpt><trkpt lat="59.406187534332275" lon="34.703428745269775"><time>2026-08-17T21:27:10.000Z</time><extensions/></trkpt><trkpt lat="59.406166076660156" lon="34.703407287597656"><time>2026-08-17T21:27:25.000Z</time><extensions/></trkpt><trkpt lat="59.406187534332275" lon="34.703450202941895"><time>2026-08-17T21:27:35.000Z</time><extensions/></trkpt><trkpt lat="59.406230449676514" lon="34.703471660614014"><time>2026-08-17T21:27:37.000Z</time><extensions/></trkpt><trkpt lat="59.40625190734863" lon="34.70351457595825"><time>2026-08-17T21:27:47.000Z</time><extensions/></trkpt><trkpt lat="59.406208992004395" lon="34.703471660614014"><time>2026-08-17T21:27:50.000Z</time><extensions/></trkpt><trkpt lat="59.406230449676514" lon="34.703450202941895"><time>2026-08-17T21:28:20.000Z</time><extensions/></trkpt><trkpt lat="59.406187534332275" lon="34.703407287597656"><time>2026-08-17T21:28:50.000Z</time><extensions/></trkpt><trkpt lat="59.406166076660156" lon="34.703407287597656"><time>2026-08-17T21:29:12.000Z</time><extensions/></trkpt><trkpt lat="59.4061017036438" lon="34.70351457595825"><time>2026-08-17T21:29:22.000Z</time><extensions/></trkpt><trkpt lat="59.40608024597168" lon="34.70362186431885"><time>2026-08-17T21:29:25.000Z</time><extensions/></trkpt><trkpt lat="59.40605878829956" lon="34.703686237335205"><time>2026-08-17T21:29:27.000Z</time><extensions/></trkpt><trkpt lat="59.40605878829956" lon="34.703664779663086"><time>2026-08-17T21:29:30.000Z</time><extensions/></trkpt><trkpt lat="59.40601587295532" lon="34.70377206802368"><time>2026-08-17T21:29:40.000Z</time><extensions/></trkpt><trkpt lat="59.4059944152832" lon="34.70385789871216"><time>2026-08-17T21:29:42.000Z</time><extensions/></trkpt><trkpt lat="59.405951499938965" lon="34.7039008140564"><time>2026-08-17T21:29:45.000Z</time><extensions/></trkpt><trkpt lat="59.405930042266846" lon="34.703965187072754"><time>2026-08-17T21:29:47.000Z</time><extensions/></trkpt><trkpt lat="59.405930042266846" lon="34.70398664474487"><time>2026-08-17T21:30:00.000Z</time><extensions/></trkpt><trkpt lat="59.40588712692261" lon="34.70411539077759"><time>2026-08-17T21:30:07.000Z</time><extensions/></trkpt><trkpt lat="59.40586566925049" lon="34.704222679138184"><time>2026-08-17T21:30:10.000Z</time><extensions/></trkpt><trkpt lat="59.40584421157837" lon="34.70430850982666"><time>2026-08-17T21:30:12.000Z</time><extensions/></trkpt><trkpt lat="59.40582275390625" lon="34.70437288284302"><time>2026-08-17T21:30:15.000Z</time><extensions/></trkpt><trkpt lat="59.40577983856201" lon="34.70460891723633"><time>2026-08-17T21:30:32.000Z</time><extensions/></trkpt><trkpt lat="59.40575838088989" lon="34.704694747924805"><time>2026-08-17T21:30:37.000Z</time><extensions/></trkpt><trkpt lat="59.40573692321777" lon="34.70478057861328"><time>2026-08-17T21:30:42.000Z</time><extensions/></trkpt><trkpt lat="59.405694007873535" lon="34.70486640930176"><time>2026-08-17T21:30:45.000Z</time><extensions/></trkpt><trkpt lat="59.405694007873535" lon="34.704909324645996"><time>2026-08-17T21:30:47.000Z</time><extensions/></trkpt><trkpt lat="59.405672550201416" lon="34.70497369766235"><time>2026-08-17T21:30:52.000Z</time><extensions/></trkpt><trkpt lat="59.4056510925293" lon="34.70505952835083"><time>2026-08-17T21:30:55.000Z</time><extensions/></trkpt><trkpt lat="59.4056510925293" lon="34.70514535903931"><time>2026-08-17T21:30:57.000Z</time><extensions/></trkpt><trkpt lat="59.40560817718506" lon="34.7053599357605"><time>2026-08-17T21:31:05.000Z</time><extensions/></trkpt><trkpt lat="59.40558671951294" lon="34.70551013946533"><time>2026-08-17T21:31:10.000Z</time><extensions/></trkpt><trkpt lat="59.40558671951294" lon="34.70559597015381"><time>2026-08-17T21:31:30.000Z</time><extensions/></trkpt><trkpt lat="59.40556526184082" lon="34.70600366592407"><time>2026-08-17T21:31:42.000Z</time><extensions/></trkpt><trkpt lat="59.40552234649658" lon="34.706411361694336"><time>2026-08-17T21:32:05.000Z</time><extensions/></trkpt><trkpt lat="59.40550088882446" lon="34.70675468444824"><time>2026-08-17T21:32:35.000Z</time><extensions/></trkpt><trkpt lat="59.405479431152344" lon="34.70679759979248"><time>2026-08-17T21:32:42.000Z</time><extensions/></trkpt><trkpt lat="59.405436515808105" lon="34.706904888153076"><time>2026-08-17T21:32:47.000Z</time><extensions/></trkpt><trkpt lat="59.405415058135986" lon="34.70699071884155"><time>2026-08-17T21:32:50.000Z</time><extensions/></trkpt><trkpt lat="59.405436515808105" lon="34.706926345825195"><time>2026-08-17T21:32:55.000Z</time><extensions/></trkpt><trkpt lat="59.405479431152344" lon="34.7068190574646"><time>2026-08-17T21:32:57.000Z</time><extensions/></trkpt><trkpt lat="59.405457973480225" lon="34.70686197280884"><time>2026-08-17T21:33:17.000Z</time><extensions/></trkpt><trkpt lat="59.405457973480225" lon="34.70686197280884"><time>2026-08-17T21:33:25.000Z</time><extensions/></trkpt><trkpt lat="59.405479431152344" lon="34.70679759979248"><time>2026-08-17T21:33:27.000Z</time><extensions/></trkpt><trkpt lat="59.405457973480225" lon="34.706904888153076"><time>2026-08-17T21:33:32.000Z</time><extensions/></trkpt><trkpt lat="59.405457973480225" lon="34.70688343048096"><time>2026-08-17T21:33:55.000Z</time><extensions/></trkpt><trkpt lat="59.405436515808105" lon="34.706947803497314"><time>2026-08-17T21:33:57.000Z</time><extensions/></trkpt><trkpt lat="59.405415058135986" lon="34.70701217651367"><time>2026-08-17T21:34:00.000Z</time><extensions/></trkpt><trkpt lat="59.40537214279175" lon="34.70711946487427"><time>2026-08-17T21:34:05.000Z</time><extensions/></trkpt><trkpt lat="59.40528631210327" lon="34.707462787628174"><time>2026-08-17T21:34:22.000Z</time><extensions/></trkpt><trkpt lat="59.40526485443115" lon="34.70750570297241"><time>2026-08-17T21:34:25.000Z</time><extensions/></trkpt><trkpt lat="59.40526485443115" lon="34.70757007598877"><time>2026-08-17T21:34:27.000Z</time><extensions/></trkpt><trkpt lat="59.40526485443115" lon="34.70761299133301"><time>2026-08-17T21:34:30.000Z</time><extensions/></trkpt><trkpt lat="59.40524339675903" lon="34.707677364349365"><time>2026-08-17T21:34:32.000Z</time><extensions/></trkpt><trkpt lat="59.40524339675903" lon="34.70778465270996"><time>2026-08-17T21:34:37.000Z</time><extensions/></trkpt><trkpt lat="59.40524339675903" lon="34.7078275680542"><time>2026-08-17T21:34:40.000Z</time><extensions/></trkpt><trkpt lat="59.40524339675903" lon="34.70787048339844"><time>2026-08-17T21:34:42.000Z</time><extensions/></trkpt><trkpt lat="59.40524339675903" lon="34.7078275680542"><time>2026-08-17T21:34:45.000Z</time><extensions/></trkpt><trkpt lat="59.40524339675903" lon="34.70784902572632"><time>2026-08-17T21:34:50.000Z</time><extensions/></trkpt><trkpt lat="59.405221939086914" lon="34.70787048339844"><time>2026-08-17T21:34:55.000Z</time><extensions/></trkpt><trkpt lat="59.405200481414795" lon="34.70797777175903"><time>2026-08-17T21:34:57.000Z</time><extensions/></trkpt><trkpt lat="59.405200481414795" lon="34.70802068710327"><time>2026-08-17T21:35:00.000Z</time><extensions/></trkpt><trkpt lat="59.405200481414795" lon="34.70808506011963"><time>2026-08-17T21:35:02.000Z</time><extensions/></trkpt><trkpt lat="59.405200481414795" lon="34.7082781791687"><time>2026-08-17T21:35:12.000Z</time><extensions/></trkpt><trkpt lat="59.405200481414795" lon="34.70834255218506"><time>2026-08-17T21:35:15.000Z</time><extensions/></trkpt><trkpt lat="59.405200481414795" lon="34.708406925201416"><time>2026-08-17T21:35:17.000Z</time><extensions/></trkpt><trkpt lat="59.405200481414795" lon="34.708449840545654"><time>2026-08-17T21:35:20.000Z</time><extensions/></trkpt><trkpt lat="59.405179023742676" lon="34.70851421356201"><time>2026-08-17T21:35:22.000Z</time><extensions/></trkpt><trkpt lat="59.405179023742676" lon="34.70857858657837"><time>2026-08-17T21:35:25.000Z</time><extensions/></trkpt><trkpt lat="59.40515756607056" lon="34.70887899398804"><time>2026-08-17T21:35:40.000Z</time><extensions/></trkpt><trkpt lat="59.405179023742676" lon="34.708943367004395"><time>2026-08-17T21:35:42.000Z</time><extensions/></trkpt><trkpt lat="59.405179023742676" lon="34.70898628234863"><time>2026-08-17T21:35:45.000Z</time><extensions/></trkpt><trkpt lat="59.40524339675903" lon="34.70909357070923"><time>2026-08-17T21:35:52.000Z</time><extensions/></trkpt><trkpt lat="59.40526485443115" lon="34.709157943725586"><time>2026-08-17T21:35:55.000Z</time><extensions/></trkpt><trkpt lat="59.40526485443115" lon="34.70922231674194"><time>2026-08-17T21:35:57.000Z</time><extensions/></trkpt><trkpt lat="59.40528631210327" lon="34.7092866897583"><time>2026-08-17T21:36:00.000Z</time><extensions/></trkpt><trkpt lat="59.40530776977539" lon="34.70932960510254"><time>2026-08-17T21:36:02.000Z</time><extensions/></trkpt><trkpt lat="59.40535068511963" lon="34.7093939781189"><time>2026-08-17T21:36:07.000Z</time><extensions/></trkpt><trkpt lat="59.40537214279175" lon="34.70935106277466"><time>2026-08-17T21:36:10.000Z</time><extensions/></trkpt><trkpt lat="59.40539360046387" lon="34.70937252044678"><time>2026-08-17T21:36:12.000Z</time><extensions/></trkpt><trkpt lat="59.405415058135986" lon="34.70935106277466"><time>2026-08-17T21:36:40.000Z</time><extensions/></trkpt><trkpt lat="59.11301136016846" lon="30.48208236694336"><time>2026-08-20T05:37:42.000Z</time><extensions/></trkpt><trkpt lat="59.11298990249634" lon="30.481975078582764"><time>2026-08-20T05:37:45.000Z</time><extensions/></trkpt><trkpt lat="59.1129469871521" lon="30.481953620910645"><time>2026-08-20T05:38:00.000Z</time><extensions/></trkpt><trkpt lat="59.11296844482422" lon="30.481889247894287"><time>2026-08-20T05:38:27.000Z</time><extensions/></trkpt><trkpt lat="59.11296844482422" lon="30.481867790222168"><time>2026-08-20T05:38:42.000Z</time><extensions/></trkpt><trkpt lat="59.11290407180786" lon="30.481889247894287"><time>2026-08-20T05:39:12.000Z</time><extensions/></trkpt><trkpt lat="59.11288261413574" lon="30.48203945159912"><time>2026-08-20T05:39:42.000Z</time><extensions/></trkpt><trkpt lat="59.11286115646362" lon="30.482146739959717"><time>2026-08-20T05:40:12.000Z</time><extensions/></trkpt><trkpt lat="59.11286115646362" lon="30.482125282287598"><time>2026-08-20T05:40:42.000Z</time><extensions/></trkpt><trkpt lat="59.11286115646362" lon="30.482146739959717"><time>2026-08-20T05:41:12.000Z</time><extensions/></trkpt><trkpt lat="59.11286115646362" lon="30.48210382461548"><time>2026-08-20T05:41:42.000Z</time><extensions/></trkpt><trkpt lat="59.11286115646362" lon="30.48210382461548"><time>2026-08-20T05:42:12.000Z</time><extensions/></trkpt><trkpt lat="59.11286115646362" lon="30.48210382461548"><time>2026-08-20T05:42:42.000Z</time><extensions/></trkpt><trkpt lat="59.11286115646362" lon="30.48210382461548"><time>2026-08-20T05:43:12.000Z</time><extensions/></trkpt><trkpt lat="59.11288261413574" lon="30.482125282287598"><time>2026-08-20T05:43:20.000Z</time><extensions/></trkpt><trkpt lat="59.11290407180786" lon="30.482168197631836"><time>2026-08-20T05:43:22.000Z</time><extensions/></trkpt><trkpt lat="59.11292552947998" lon="30.482361316680908"><time>2026-08-20T05:43:52.000Z</time><extensions/></trkpt><trkpt lat="59.1129469871521" lon="30.482425689697266"><time>2026-08-20T05:43:55.000Z</time><extensions/></trkpt><trkpt lat="59.11298990249634" lon="30.48253297805786"><time>2026-08-20T05:44:02.000Z</time><extensions/></trkpt><trkpt lat="59.113032817840576" lon="30.482640266418457"><time>2026-08-20T05:44:15.000Z</time><extensions/></trkpt><trkpt lat="59.113054275512695" lon="30.482683181762695"><time>2026-08-20T05:44:17.000Z</time><extensions/></trkpt><trkpt lat="59.113097190856934" lon="30.482769012451172"><time>2026-08-20T05:44:22.000Z</time><extensions/></trkpt><trkpt lat="59.11318302154541" lon="30.4830265045166"><time>2026-08-20T05:44:37.000Z</time><extensions/></trkpt><trkpt lat="59.11318302154541" lon="30.483176708221436"><time>2026-08-20T05:44:45.000Z</time><extensions/></trkpt><trkpt lat="59.11320447921753" lon="30.483219623565674"><time>2026-08-20T05:44:47.000Z</time><extensions/></trkpt><trkpt lat="59.11320447921753" lon="30.483262538909912"><time>2026-08-20T05:44:50.000Z</time><extensions/></trkpt><trkpt lat="59.11320447921753" lon="30.483391284942627"><time>2026-08-20T05:45:00.000Z</time><extensions/></trkpt><trkpt lat="59.11320447921753" lon="30.483434200286865"><time>2026-08-20T05:45:02.000Z</time><extensions/></trkpt><trkpt lat="59.11322593688965" lon="30.483863353729248"><time>2026-08-20T05:45:20.000Z</time><extensions/></trkpt><trkpt lat="59.11322593688965" lon="30.48382043838501"><time>2026-08-20T05:45:40.000Z</time><extensions/></trkpt><trkpt lat="59.11322593688965" lon="30.48407793045044"><time>2026-08-20T05:45:45.000Z</time><extensions/></trkpt><trkpt lat="59.11324739456177" lon="30.48407793045044"><time>2026-08-20T05:45:47.000Z</time><extensions/></trkpt><trkpt lat="59.11322593688965" lon="30.484013557434082"><time>2026-08-20T05:45:50.000Z</time><extensions/></trkpt><trkpt lat="59.11326885223389" lon="30.484185218811035"><time>2026-08-20T05:45:57.000Z</time><extensions/></trkpt><trkpt lat="59.11326885223389" lon="30.484249591827393"><time>2026-08-20T05:46:00.000Z</time><extensions/></trkpt><trkpt lat="59.11326885223389" lon="30.48435688018799"><time>2026-08-20T05:46:02.000Z</time><extensions/></trkpt><trkpt lat="59.113290309906006" lon="30.484507083892822"><time>2026-08-20T05:46:05.000Z</time><extensions/></trkpt><trkpt lat="59.113290309906006" lon="30.484657287597656"><time>2026-08-20T05:46:07.000Z</time><extensions/></trkpt><trkpt lat="59.113290309906006" lon="30.48480749130249"><time>2026-08-20T05:46:10.000Z</time><extensions/></trkpt><trkpt lat="59.113290309906006" lon="30.484957695007324"><time>2026-08-20T05:46:12.000Z</time><extensions/></trkpt><trkpt lat="59.113290309906006" lon="30.48508644104004"><time>2026-08-20T05:46:25.000Z</time><extensions/></trkpt><trkpt lat="59.113290309906006" lon="30.484893321990967"><time>2026-08-20T05:46:27.000Z</time><extensions/></trkpt><trkpt lat="59.113290309906006" lon="30.484871864318848"><time>2026-08-20T05:46:30.000Z</time><extensions/></trkpt><trkpt lat="59.113311767578125" lon="30.484979152679443"><time>2026-08-20T05:46:32.000Z</time><extensions/></trkpt><trkpt lat="59.113311767578125" lon="30.48506498336792"><time>2026-08-20T05:46:35.000Z</time><extensions/></trkpt><trkpt lat="59.113311767578125" lon="30.485150814056396"><time>2026-08-20T05:46:42.000Z</time><extensions/></trkpt><trkpt lat="59.113333225250244" lon="30.48527956008911"><time>2026-08-20T05:46:45.000Z</time><extensions/></trkpt><trkpt lat="59.113333225250244" lon="30.48534393310547"><time>2026-08-20T05:46:50.000Z</time><extensions/></trkpt><trkpt lat="59.11335468292236" lon="30.485494136810303"><time>2026-08-20T05:46:52.000Z</time><extensions/></trkpt><trkpt lat="59.11335468292236" lon="30.48555850982666"><time>2026-08-20T05:47:00.000Z</time><extensions/></trkpt><trkpt lat="59.11335468292236" lon="30.485708713531494"><time>2026-08-20T05:47:02.000Z</time><extensions/></trkpt><trkpt lat="59.11335468292236" lon="30.48581600189209"><time>2026-08-20T05:47:05.000Z</time><extensions/></trkpt><trkpt lat="59.11337614059448" lon="30.485880374908447"><time>2026-08-20T05:47:10.000Z</time><extensions/></trkpt><trkpt lat="59.11337614059448" lon="30.485987663269043"><time>2026-08-20T05:47:12.000Z</time><extensions/></trkpt><trkpt lat="59.11337614059448" lon="30.485944747924805"><time>2026-08-20T05:47:25.000Z</time><extensions/></trkpt><trkpt lat="59.11337614059448" lon="30.485880374908447"><time>2026-08-20T05:47:27.000Z</time><extensions/></trkpt><trkpt lat="59.11337614059448" lon="30.485987663269043"><time>2026-08-20T05:47:30.000Z</time><extensions/></trkpt><trkpt lat="59.11337614059448" lon="30.486137866973877"><time>2026-08-20T05:47:32.000Z</time><extensions/></trkpt><trkpt lat="59.1133975982666" lon="30.486266613006592"><time>2026-08-20T05:47:35.000Z</time><extensions/></trkpt><trkpt lat="59.1133975982666" lon="30.486395359039307"><time>2026-08-20T05:47:37.000Z</time><extensions/></trkpt><trkpt lat="59.11341905593872" lon="30.48680305480957"><time>2026-08-20T05:48:02.000Z</time><extensions/></trkpt><trkpt lat="59.11341905593872" lon="30.48701763153076"><time>2026-08-20T05:48:15.000Z</time><extensions/></trkpt><trkpt lat="59.11341905593872" lon="30.486996173858643"><time>2026-08-20T05:48:17.000Z</time><extensions/></trkpt><trkpt lat="59.1133975982666" lon="30.487124919891357"><time>2026-08-20T05:48:20.000Z</time><extensions/></trkpt><trkpt lat="59.1133975982666" lon="30.487210750579834"><time>2026-08-20T05:48:22.000Z</time><extensions/></trkpt><trkpt lat="59.11341905593872" lon="30.487146377563477"><time>2026-08-20T05:48:45.000Z</time><extensions/></trkpt><trkpt lat="59.11341905593872" lon="30.48727512359619"><time>2026-08-20T05:48:50.000Z</time><extensions/></trkpt><trkpt lat="59.11344051361084" lon="30.487489700317383"><time>2026-08-20T05:48:55.000Z</time><extensions/></trkpt><trkpt lat="59.11344051361084" lon="30.48757553100586"><time>2026-08-20T05:49:00.000Z</time><extensions/></trkpt><trkpt lat="59.11346197128296" lon="30.487704277038574"><time>2026-08-20T05:49:02.000Z</time><extensions/></trkpt><trkpt lat="59.11346197128296" lon="30.48776865005493"><time>2026-08-20T05:49:10.000Z</time><extensions/></trkpt><trkpt lat="59.11348342895508" lon="30.487897396087646"><time>2026-08-20T05:49:12.000Z</time><extensions/></trkpt><trkpt lat="59.113526344299316" lon="30.488004684448242"><time>2026-08-20T05:49:15.000Z</time><extensions/></trkpt><trkpt lat="59.113526344299316" lon="30.48809051513672"><time>2026-08-20T05:49:27.000Z</time><extensions/></trkpt><trkpt lat="59.113547801971436" lon="30.48830509185791"><time>2026-08-20T05:49:45.000Z</time><extensions/></trkpt><trkpt lat="59.113569259643555" lon="30.488498210906982"><time>2026-08-20T05:49:47.000Z</time><extensions/></trkpt><trkpt lat="59.113547801971436" lon="30.48858404159546"><time>2026-08-20T05:49:50.000Z</time><extensions/></trkpt><trkpt lat="59.113569259643555" lon="30.488691329956055"><time>2026-08-20T05:49:52.000Z</time><extensions/></trkpt><trkpt lat="59.113547801971436" lon="30.488691329956055"><time>2026-08-20T05:49:55.000Z</time><extensions/></trkpt><trkpt lat="59.113526344299316" lon="30.48877716064453"><time>2026-08-20T05:50:10.000Z</time><extensions/></trkpt><trkpt lat="59.113547801971436" lon="30.488884449005127"><time>2026-08-20T05:50:12.000Z</time><extensions/></trkpt><trkpt lat="59.113547801971436" lon="30.488927364349365"><time>2026-08-20T05:50:15.000Z</time><extensions/></trkpt><trkpt lat="59.113569259643555" lon="30.488991737365723"><time>2026-08-20T05:50:17.000Z</time><extensions/></trkpt><trkpt lat="59.113569259643555" lon="30.48909902572632"><time>2026-08-20T05:50:20.000Z</time><extensions/></trkpt><trkpt lat="59.113569259643555" lon="30.489206314086914"><time>2026-08-20T05:50:22.000Z</time><extensions/></trkpt><trkpt lat="59.113547801971436" lon="30.489227771759033"><time>2026-08-20T05:50:25.000Z</time><extensions/></trkpt><trkpt lat="59.113547801971436" lon="30.48929214477539"><time>2026-08-20T05:50:27.000Z</time><extensions/></trkpt><trkpt lat="59.113590717315674" lon="30.489463806152344"><time>2026-08-20T05:50:37.000Z</time><extensions/></trkpt><trkpt lat="59.113590717315674" lon="30.48954963684082"><time>2026-08-20T05:50:40.000Z</time><extensions/></trkpt><trkpt lat="59.113590717315674" lon="30.489614009857178"><time>2026-08-20T05:50:42.000Z</time><extensions/></trkpt><trkpt lat="59.11361217498779" lon="30.489699840545654"><time>2026-08-20T05:50:45.000Z</time><extensions/></trkpt><trkpt lat="59.11361217498779" lon="30.48985004425049"><time>2026-08-20T05:50:50.000Z</time><extensions/></trkpt><trkpt lat="59.113590717315674" lon="30.489935874938965"><time>2026-08-20T05:50:52.000Z</time><extensions/></trkpt><trkpt lat="59.113569259643555" lon="30.489914417266846"><time>2026-08-20T05:50:55.000Z</time><extensions/></trkpt><trkpt lat="59.113526344299316" lon="30.489935874938965"><time>2026-08-20T05:50:57.000Z</time><extensions/></trkpt><trkpt lat="59.1135048866272" lon="30.489957332611084"><time>2026-08-20T05:51:00.000Z</time><extensions/></trkpt><trkpt lat="59.113569259643555" lon="30.489914417266846"><time>2026-08-20T05:51:05.000Z</time><extensions/></trkpt><trkpt lat="59.11361217498779" lon="30.48985004425049"><time>2026-08-20T05:51:07.000Z</time><extensions/></trkpt><trkpt lat="59.11361217498779" lon="30.48985004425049"><time>2026-08-20T05:51:12.000Z</time><extensions/></trkpt><trkpt lat="59.113569259643555" lon="30.489892959594727"><time>2026-08-20T05:51:15.000Z</time><extensions/></trkpt><trkpt lat="59.113547801971436" lon="30.489871501922607"><time>2026-08-20T05:51:17.000Z</time><extensions/></trkpt><trkpt lat="59.113569259643555" lon="30.489892959594727"><time>2026-08-20T05:51:20.000Z</time><extensions/></trkpt><trkpt lat="59.113590717315674" lon="30.489914417266846"><time>2026-08-20T05:51:22.000Z</time><extensions/></trkpt><trkpt lat="59.113547801971436" lon="30.489914417266846"><time>2026-08-20T05:51:25.000Z</time><extensions/></trkpt><trkpt lat="59.1135048866272" lon="30.489957332611084"><time>2026-08-20T05:51:27.000Z</time><extensions/></trkpt><trkpt lat="59.11346197128296" lon="30.49002170562744"><time>2026-08-20T05:51:30.000Z</time><extensions/></trkpt><trkpt lat="59.113569259643555" lon="30.489957332611084"><time>2026-08-20T05:51:35.000Z</time><extensions/></trkpt><trkpt lat="59.11361217498779" lon="30.49006462097168"><time>2026-08-20T05:51:37.000Z</time><extensions/></trkpt><trkpt lat="59.11365509033203" lon="30.490193367004395"><time>2026-08-20T05:51:40.000Z</time><extensions/></trkpt><trkpt lat="59.11363363265991" lon="30.490365028381348"><time>2026-08-20T05:51:47.000Z</time><extensions/></trkpt><trkpt lat="59.11365509033203" lon="30.490429401397705"><time>2026-08-20T05:51:55.000Z</time><extensions/></trkpt><trkpt lat="59.11365509033203" lon="30.49051523208618"><time>2026-08-20T05:51:57.000Z</time><extensions/></trkpt><trkpt lat="59.11367654800415" lon="30.490601062774658"><time>2026-08-20T05:52:00.000Z</time><extensions/></trkpt><trkpt lat="59.11371946334839" lon="30.491008758544922"><time>2026-08-20T05:52:25.000Z</time><extensions/></trkpt><trkpt lat="59.11374092102051" lon="30.491158962249756"><time>2026-08-20T05:52:40.000Z</time><extensions/></trkpt><trkpt lat="59.11374092102051" lon="30.491158962249756"><time>2026-08-20T05:52:42.000Z</time><extensions/></trkpt><trkpt lat="59.11371946334839" lon="30.491223335266113"><time>2026-08-20T05:52:47.000Z</time><extensions/></trkpt><trkpt lat="59.11374092102051" lon="30.491373538970947"><time>2026-08-20T05:52:50.000Z</time><extensions/></trkpt><trkpt lat="59.11376237869263" lon="30.491502285003662"><time>2026-08-20T05:52:52.000Z</time><extensions/></trkpt><trkpt lat="59.11376237869263" lon="30.491631031036377"><time>2026-08-20T05:52:55.000Z</time><extensions/></trkpt><trkpt lat="59.11371946334839" lon="30.491652488708496"><time>2026-08-20T05:52:57.000Z</time><extensions/></trkpt><trkpt lat="59.11367654800415" lon="30.4915452003479"><time>2026-08-20T05:53:02.000Z</time><extensions/></trkpt><trkpt lat="59.11361217498779" lon="30.49158811569214"><time>2026-08-20T05:53:05.000Z</time><extensions/></trkpt><trkpt lat="59.11363363265991" lon="30.491609573364258"><time>2026-08-20T05:53:07.000Z</time><extensions/></trkpt><trkpt lat="59.11365509033203" lon="30.491609573364258"><time>2026-08-20T05:53:10.000Z</time><extensions/></trkpt><trkpt lat="59.11367654800415" lon="30.491631031036377"><time>2026-08-20T05:53:12.000Z</time><extensions/></trkpt><trkpt lat="59.11365509033203" lon="30.491695404052734"><time>2026-08-20T05:53:15.000Z</time><extensions/></trkpt><trkpt lat="59.113590717315674" lon="30.491759777069092"><time>2026-08-20T05:53:17.000Z</time><extensions/></trkpt><trkpt lat="59.113526344299316" lon="30.49178123474121"><time>2026-08-20T05:53:20.000Z</time><extensions/></trkpt><trkpt lat="59.11346197128296" lon="30.49184560775757"><time>2026-08-20T05:53:22.000Z</time><extensions/></trkpt><trkpt lat="59.11344051361084" lon="30.49180269241333"><time>2026-08-20T05:53:27.000Z</time><extensions/></trkpt><trkpt lat="59.11344051361084" lon="30.491695404052734"><time>2026-08-20T05:53:30.000Z</time><extensions/></trkpt><trkpt lat="59.11341905593872" lon="30.491631031036377"><time>2026-08-20T05:53:32.000Z</time><extensions/></trkpt><trkpt lat="59.1133975982666" lon="30.4915452003479"><time>2026-08-20T05:53:35.000Z</time><extensions/></trkpt><trkpt lat="59.11337614059448" lon="30.491480827331543"><time>2026-08-20T05:53:37.000Z</time><extensions/></trkpt><trkpt lat="59.11335468292236" lon="30.491502285003662"><time>2026-08-20T05:53:40.000Z</time><extensions/></trkpt><trkpt lat="59.113311767578125" lon="30.491459369659424"><time>2026-08-20T05:53:42.000Z</time><extensions/></trkpt><trkpt lat="59.11324739456177" lon="30.491437911987305"><time>2026-08-20T05:53:45.000Z</time><extensions/></trkpt><trkpt lat="59.11320447921753" lon="30.49152374267578"><time>2026-08-20T05:53:55.000Z</time><extensions/></trkpt><trkpt lat="59.11318302154541" lon="30.49158811569214"><time>2026-08-20T05:53:57.000Z</time><extensions/></trkpt><trkpt lat="59.11326885223389" lon="30.49158811569214"><time>2026-08-20T05:54:05.000Z</time><extensions/></trkpt><trkpt lat="59.113333225250244" lon="30.491502285003662"><time>2026-08-20T05:54:07.000Z</time><extensions/></trkpt><trkpt lat="59.11341905593872" lon="30.491480827331543"><time>2026-08-20T05:54:10.000Z</time><extensions/></trkpt><trkpt lat="59.11348342895508" lon="30.491502285003662"><time>2026-08-20T05:54:12.000Z</time><extensions/></trkpt><trkpt lat="59.113569259643555" lon="30.49152374267578"><time>2026-08-20T05:54:15.000Z</time><extensions/></trkpt><trkpt lat="59.11365509033203" lon="30.49156665802002"><time>2026-08-20T05:54:17.000Z</time><extensions/></trkpt><trkpt lat="59.11369800567627" lon="30.491673946380615"><time>2026-08-20T05:54:20.000Z</time><extensions/></trkpt><trkpt lat="59.11369800567627" lon="30.49180269241333"><time>2026-08-20T05:54:22.000Z</time><extensions/></trkpt><trkpt lat="59.11371946334839" lon="30.491652488708496"><time>2026-08-20T05:54:40.000Z</time><extensions/></trkpt><trkpt lat="59.11371946334839" lon="30.491609573364258"><time>2026-08-20T05:54:42.000Z</time><extensions/></trkpt><trkpt lat="59.11369800567627" lon="30.491673946380615"><time>2026-08-20T05:54:45.000Z</time><extensions/></trkpt><trkpt lat="59.11365509033203" lon="30.491673946380615"><time>2026-08-20T05:54:47.000Z</time><extensions/></trkpt><trkpt lat="59.11361217498779" lon="30.491759777069092"><time>2026-08-20T05:54:50.000Z</time><extensions/></trkpt><trkpt lat="59.113569259643555" lon="30.49180269241333"><time>2026-08-20T05:54:52.000Z</time><extensions/></trkpt><trkpt lat="59.113547801971436" lon="30.491867065429688"><time>2026-08-20T05:54:55.000Z</time><extensions/></trkpt><trkpt lat="59.113526344299316" lon="30.49184560775757"><time>2026-08-20T05:54:57.000Z</time><extensions/></trkpt><trkpt lat="59.1135048866272" lon="30.49184560775757"><time>2026-08-20T05:55:00.000Z</time><extensions/></trkpt><trkpt lat="59.11346197128296" lon="30.49184560775757"><time>2026-08-20T05:55:02.000Z</time><extensions/></trkpt><trkpt lat="59.11346197128296" lon="30.49182415008545"><time>2026-08-20T05:55:10.000Z</time><extensions/></trkpt><trkpt lat="59.11348342895508" lon="30.491738319396973"><time>2026-08-20T05:55:12.000Z</time><extensions/></trkpt><trkpt lat="59.113569259643555" lon="30.491738319396973"><time>2026-08-20T05:55:17.000Z</time><extensions/></trkpt><trkpt lat="59.11365509033203" lon="30.491673946380615"><time>2026-08-20T05:55:20.000Z</time><extensions/></trkpt><trkpt lat="59.11367654800415" lon="30.491631031036377"><time>2026-08-20T05:55:22.000Z</time><extensions/></trkpt><trkpt lat="59.11367654800415" lon="30.491738319396973"><time>2026-08-20T05:55:35.000Z</time><extensions/></trkpt><trkpt lat="59.11369800567627" lon="30.49184560775757"><time>2026-08-20T05:55:37.000Z</time><extensions/></trkpt><trkpt lat="59.11371946334839" lon="30.49201726913452"><time>2026-08-20T05:55:45.000Z</time><extensions/></trkpt><trkpt lat="59.11374092102051" lon="30.492124557495117"><time>2026-08-20T05:55:47.000Z</time><extensions/></trkpt><trkpt lat="59.11376237869263" lon="30.492146015167236"><time>2026-08-20T05:56:02.000Z</time><extensions/></trkpt><trkpt lat="59.113783836364746" lon="30.492231845855713"><time>2026-08-20T05:56:05.000Z</time><extensions/></trkpt><trkpt lat="59.113783836364746" lon="30.49229621887207"><time>2026-08-20T05:56:07.000Z</time><extensions/></trkpt><trkpt lat="59.113783836364746" lon="30.492360591888428"><time>2026-08-20T05:56:10.000Z</time><extensions/></trkpt><trkpt lat="59.11371946334839" lon="30.492231845855713"><time>2026-08-20T05:56:15.000Z</time><extensions/></trkpt><trkpt lat="59.11369800567627" lon="30.492210388183594"><time>2026-08-20T05:56:32.000Z</time><extensions/></trkpt><trkpt lat="59.11367654800415" lon="30.49208164215088"><time>2026-08-20T05:56:42.000Z</time><extensions/></trkpt><trkpt lat="59.11374092102051" lon="30.492253303527832"><time>2026-08-20T05:56:50.000Z</time><extensions/></trkpt><trkpt lat="59.11374092102051" lon="30.49233913421631"><time>2026-08-20T05:56:52.000Z</time><extensions/></trkpt><trkpt lat="59.11374092102051" lon="30.49233913421631"><time>2026-08-20T05:57:12.000Z</time><extensions/></trkpt><trkpt lat="59.11376237869263" lon="30.49231767654419"><time>2026-08-20T05:57:40.000Z</time><extensions/></trkpt><trkpt lat="59.11376237869263" lon="30.492424964904785"><time>2026-08-20T05:57:45.000Z</time><extensions/></trkpt><trkpt lat="59.113805294036865" lon="30.492489337921143"><time>2026-08-20T05:57:47.000Z</time><extensions/></trkpt><trkpt lat="59.113805294036865" lon="30.492639541625977"><time>2026-08-20T05:58:02.000Z</time><extensions/></trkpt><trkpt lat="59.113826751708984" lon="30.492854118347168"><time>2026-08-20T05:58:07.000Z</time><extensions/></trkpt><trkpt lat="59.113826751708984" lon="30.492982864379883"><time>2026-08-20T05:58:10.000Z</time><extensions/></trkpt><trkpt lat="59.113826751708984" lon="30.49306869506836"><time>2026-08-20T05:58:12.000Z</time><extensions/></trkpt><trkpt lat="59.1138482093811" lon="30.493154525756836"><time>2026-08-20T05:58:15.000Z</time><extensions/></trkpt><trkpt lat="59.11386966705322" lon="30.493175983428955"><time>2026-08-20T05:58:17.000Z</time><extensions/></trkpt><trkpt lat="59.113826751708984" lon="30.49309015274048"><time>2026-08-20T05:58:25.000Z</time><extensions/></trkpt><trkpt lat="59.1138482093811" lon="30.49330472946167"><time>2026-08-20T05:58:32.000Z</time><extensions/></trkpt><trkpt lat="59.1138482093811" lon="30.493454933166504"><time>2026-08-20T05:58:35.000Z</time><extensions/></trkpt><trkpt lat="59.11386966705322" lon="30.4935622215271"><time>2026-08-20T05:58:37.000Z</time><extensions/></trkpt><trkpt lat="59.11386966705322" lon="30.493712425231934"><time>2026-08-20T05:58:47.000Z</time><extensions/></trkpt><trkpt lat="59.11386966705322" lon="30.49381971359253"><time>2026-08-20T05:58:52.000Z</time><extensions/></trkpt><trkpt lat="59.11386966705322" lon="30.493948459625244"><time>2026-08-20T05:58:55.000Z</time><extensions/></trkpt><trkpt lat="59.11386966705322" lon="30.49403429031372"><time>2026-08-20T05:58:57.000Z</time><extensions/></trkpt><trkpt lat="59.11386966705322" lon="30.494120121002197"><time>2026-08-20T05:59:00.000Z</time><extensions/></trkpt><trkpt lat="59.11393404006958" lon="30.494463443756104"><time>2026-08-20T05:59:30.000Z</time><extensions/></trkpt><trkpt lat="59.11393404006958" lon="30.494506359100342"><time>2026-08-20T05:59:32.000Z</time><extensions/></trkpt><trkpt lat="59.11393404006958" lon="30.49454927444458"><time>2026-08-20T05:59:40.000Z</time><extensions/></trkpt><trkpt lat="59.11393404006958" lon="30.494720935821533"><time>2026-08-20T05:59:42.000Z</time><extensions/></trkpt><trkpt lat="59.1139554977417" lon="30.49482822418213"><time>2026-08-20T05:59:45.000Z</time><extensions/></trkpt><trkpt lat="59.11393404006958" lon="30.494914054870605"><time>2026-08-20T05:59:50.000Z</time><extensions/></trkpt><trkpt lat="59.11393404006958" lon="30.49508571624756"><time>2026-08-20T06:00:15.000Z</time><extensions/></trkpt><trkpt lat="59.11393404006958" lon="30.495193004608154"><time>2026-08-20T06:00:17.000Z</time><extensions/></trkpt><trkpt lat="59.11393404006958" lon="30.49527883529663"><time>2026-08-20T06:00:20.000Z</time><extensions/></trkpt><trkpt lat="59.1139554977417" lon="30.495471954345703"><time>2026-08-20T06:00:27.000Z</time><extensions/></trkpt><trkpt lat="59.1139554977417" lon="30.495643615722656"><time>2026-08-20T06:00:42.000Z</time><extensions/></trkpt><trkpt lat="59.11397695541382" lon="30.49577236175537"><time>2026-08-20T06:00:45.000Z</time><extensions/></trkpt><trkpt lat="59.11397695541382" lon="30.495858192443848"><time>2026-08-20T06:00:47.000Z</time><extensions/></trkpt><trkpt lat="59.11399841308594" lon="30.495729446411133"><time>2026-08-20T06:00:55.000Z</time><extensions/></trkpt><trkpt lat="59.11401987075806" lon="30.495600700378418"><time>2026-08-20T06:00:57.000Z</time><extensions/></trkpt><trkpt lat="59.11401987075806" lon="30.495622158050537"><time>2026-08-20T06:01:12.000Z</time><extensions/></trkpt><trkpt lat="59.11399841308594" lon="30.495643615722656"><time>2026-08-20T06:01:42.000Z</time><extensions/></trkpt><trkpt lat="59.11399841308594" lon="30.495643615722656"><time>2026-08-20T06:01:50.000Z</time><extensions/></trkpt><trkpt lat="59.11399841308594" lon="30.495729446411133"><time>2026-08-20T06:01:52.000Z</time><extensions/></trkpt><trkpt lat="59.11401987075806" lon="30.495858192443848"><time>2026-08-20T06:01:55.000Z</time><extensions/></trkpt><trkpt lat="59.11401987075806" lon="30.495965480804443"><time>2026-08-20T06:01:57.000Z</time><extensions/></trkpt><trkpt lat="59.114041328430176" lon="30.496094226837158"><time>2026-08-20T06:02:00.000Z</time><extensions/></trkpt><trkpt lat="59.114041328430176" lon="30.496180057525635"><time>2026-08-20T06:02:02.000Z</time><extensions/></trkpt><trkpt lat="59.114062786102295" lon="30.49626588821411"><time>2026-08-20T06:02:05.000Z</time><extensions/></trkpt><trkpt lat="59.114062786102295" lon="30.496351718902588"><time>2026-08-20T06:02:07.000Z</time><extensions/></trkpt><trkpt lat="59.114041328430176" lon="30.49630880355835"><time>2026-08-20T06:02:12.000Z</time><extensions/></trkpt><trkpt lat="59.114041328430176" lon="30.496180057525635"><time>2026-08-20T06:02:15.000Z</time><extensions/></trkpt><trkpt lat="59.11401987075806" lon="30.496201515197754"><time>2026-08-20T06:02:17.000Z</time><extensions/></trkpt><trkpt lat="59.114041328430176" lon="30.49626588821411"><time>2026-08-20T06:02:20.000Z</time><extensions/></trkpt><trkpt lat="59.114041328430176" lon="30.496394634246826"><time>2026-08-20T06:02:22.000Z</time><extensions/></trkpt><trkpt lat="59.114062786102295" lon="30.496459007263184"><time>2026-08-20T06:02:25.000Z</time><extensions/></trkpt><trkpt lat="59.114062786102295" lon="30.49654483795166"><time>2026-08-20T06:02:27.000Z</time><extensions/></trkpt><trkpt lat="59.114062786102295" lon="30.496630668640137"><time>2026-08-20T06:02:30.000Z</time><extensions/></trkpt><trkpt lat="59.114084243774414" lon="30.496716499328613"><time>2026-08-20T06:02:32.000Z</time><extensions/></trkpt><trkpt lat="59.114062786102295" lon="30.496716499328613"><time>2026-08-20T06:02:37.000Z</time><extensions/></trkpt><trkpt lat="59.114062786102295" lon="30.4965877532959"><time>2026-08-20T06:02:40.000Z</time><extensions/></trkpt><trkpt lat="59.114041328430176" lon="30.496394634246826"><time>2026-08-20T06:02:42.000Z</time><extensions/></trkpt><trkpt lat="59.114062786102295" lon="30.496480464935303"><time>2026-08-20T06:02:45.000Z</time><extensions/></trkpt><trkpt lat="59.114062786102295" lon="30.49654483795166"><time>2026-08-20T06:02:47.000Z</time><extensions/></trkpt><trkpt lat="59.114084243774414" lon="30.496630668640137"><time>2026-08-20T06:02:50.000Z</time><extensions/></trkpt><trkpt lat="59.11410570144653" lon="30.496695041656494"><time>2026-08-20T06:02:52.000Z</time><extensions/></trkpt><trkpt lat="59.114084243774414" lon="30.496845245361328"><time>2026-08-20T06:03:00.000Z</time><extensions/></trkpt><trkpt lat="59.114084243774414" lon="30.496931076049805"><time>2026-08-20T06:03:02.000Z</time><extensions/></trkpt><trkpt lat="59.114084243774414" lon="30.496995449066162"><time>2026-08-20T06:03:05.000Z</time><extensions/></trkpt><trkpt lat="59.114062786102295" lon="30.49705982208252"><time>2026-08-20T06:03:07.000Z</time><extensions/></trkpt><trkpt lat="59.114084243774414" lon="30.497167110443115"><time>2026-08-20T06:03:10.000Z</time><extensions/></trkpt><trkpt lat="59.114062786102295" lon="30.497231483459473"><time>2026-08-20T06:03:12.000Z</time><extensions/></trkpt><trkpt lat="59.114041328430176" lon="30.497231483459473"><time>2026-08-20T06:03:20.000Z</time><extensions/></trkpt><trkpt lat="59.11399841308594" lon="30.497210025787354"><time>2026-08-20T06:03:22.000Z</time><extensions/></trkpt><trkpt lat="59.11401987075806" lon="30.49729585647583"><time>2026-08-20T06:03:30.000Z</time><extensions/></trkpt><trkpt lat="59.114041328430176" lon="30.497424602508545"><time>2026-08-20T06:03:32.000Z</time><extensions/></trkpt><trkpt lat="59.11410570144653" lon="30.497596263885498"><time>2026-08-20T06:03:35.000Z</time><extensions/></trkpt><trkpt lat="59.11414861679077" lon="30.497703552246094"><time>2026-08-20T06:03:37.000Z</time><extensions/></trkpt><trkpt lat="59.11412715911865" lon="30.49781084060669"><time>2026-08-20T06:03:40.000Z</time><extensions/></trkpt><trkpt lat="59.11412715911865" lon="30.497639179229736"><time>2026-08-20T06:03:52.000Z</time><extensions/></trkpt><trkpt lat="59.11410570144653" lon="30.49757480621338"><time>2026-08-20T06:03:55.000Z</time><extensions/></trkpt><trkpt lat="59.11412715911865" lon="30.497703552246094"><time>2026-08-20T06:04:00.000Z</time><extensions/></trkpt><trkpt lat="59.11412715911865" lon="30.49781084060669"><time>2026-08-20T06:04:02.000Z</time><extensions/></trkpt><trkpt lat="59.11417007446289" lon="30.497853755950928"><time>2026-08-20T06:04:05.000Z</time><extensions/></trkpt><trkpt lat="59.11417007446289" lon="30.497982501983643"><time>2026-08-20T06:04:17.000Z</time><extensions/></trkpt><trkpt lat="59.11419153213501" lon="30.49806833267212"><time>2026-08-20T06:04:20.000Z</time><extensions/></trkpt><trkpt lat="59.11419153213501" lon="30.498218536376953"><time>2026-08-20T06:04:40.000Z</time><extensions/></trkpt><trkpt lat="59.11421298980713" lon="30.49830436706543"><time>2026-08-20T06:04:42.000Z</time><extensions/></trkpt><trkpt lat="59.11421298980713" lon="30.498368740081787"><time>2026-08-20T06:04:50.000Z</time><extensions/></trkpt><trkpt lat="59.11421298980713" lon="30.498368740081787"><time>2026-08-20T06:05:00.000Z</time><extensions/></trkpt><trkpt lat="59.11421298980713" lon="30.498454570770264"><time>2026-08-20T06:05:05.000Z</time><extensions/></trkpt><trkpt lat="59.11419153213501" lon="30.49856185913086"><time>2026-08-20T06:05:07.000Z</time><extensions/></trkpt><trkpt lat="59.11417007446289" lon="30.498712062835693"><time>2026-08-20T06:05:10.000Z</time><extensions/></trkpt><trkpt lat="59.11414861679077" lon="30.49879789352417"><time>2026-08-20T06:05:12.000Z</time><extensions/></trkpt><trkpt lat="59.11414861679077" lon="30.49877643585205"><time>2026-08-20T06:05:15.000Z</time><extensions/></trkpt><trkpt lat="59.11412715911865" lon="30.49881935119629"><time>2026-08-20T06:05:17.000Z</time><extensions/></trkpt><trkpt lat="59.11414861679077" lon="30.498883724212646"><time>2026-08-20T06:05:20.000Z</time><extensions/></trkpt><trkpt lat="59.11417007446289" lon="30.498905181884766"><time>2026-08-20T06:05:22.000Z</time><extensions/></trkpt><trkpt lat="59.11417007446289" lon="30.49901247024536"><time>2026-08-20T06:05:32.000Z</time><extensions/></trkpt><trkpt lat="59.11419153213501" lon="30.499098300933838"><time>2026-08-20T06:05:35.000Z</time><extensions/></trkpt><trkpt lat="59.11419153213501" lon="30.499162673950195"><time>2026-08-20T06:05:37.000Z</time><extensions/></trkpt><trkpt lat="59.11419153213501" lon="30.499227046966553"><time>2026-08-20T06:05:40.000Z</time><extensions/></trkpt><trkpt lat="59.11419153213501" lon="30.49931287765503"><time>2026-08-20T06:05:42.000Z</time><extensions/></trkpt><trkpt lat="59.11419153213501" lon="30.49931287765503"><time>2026-08-20T06:05:45.000Z</time><extensions/></trkpt><trkpt lat="59.11419153213501" lon="30.499184131622314"><time>2026-08-20T06:05:47.000Z</time><extensions/></trkpt><trkpt lat="59.11417007446289" lon="30.499141216278076"><time>2026-08-20T06:05:50.000Z</time><extensions/></trkpt><trkpt lat="59.11417007446289" lon="30.499119758605957"><time>2026-08-20T06:05:52.000Z</time><extensions/></trkpt><trkpt lat="59.11419153213501" lon="30.49907684326172"><time>2026-08-20T06:05:55.000Z</time><extensions/></trkpt><trkpt lat="59.11419153213501" lon="30.49907684326172"><time>2026-08-20T06:06:25.000Z</time><extensions/></trkpt><trkpt lat="59.11417007446289" lon="30.499098300933838"><time>2026-08-20T06:06:45.000Z</time><extensions/></trkpt><trkpt lat="59.11417007446289" lon="30.499248504638672"><time>2026-08-20T06:06:50.000Z</time><extensions/></trkpt><trkpt lat="59.11417007446289" lon="30.499355792999268"><time>2026-08-20T06:06:52.000Z</time><extensions/></trkpt><trkpt lat="59.11417007446289" lon="30.499441623687744"><time>2026-08-20T06:06:55.000Z</time><extensions/></trkpt><trkpt lat="59.11419153213501" lon="30.49954891204834"><time>2026-08-20T06:06:57.000Z</time><extensions/></trkpt><trkpt lat="59.11417007446289" lon="30.499634742736816"><time>2026-08-20T06:07:00.000Z</time><extensions/></trkpt><trkpt lat="59.11417007446289" lon="30.499677658081055"><time>2026-08-20T06:07:02.000Z</time><extensions/></trkpt><trkpt lat="59.11417007446289" lon="30.499849319458008"><time>2026-08-20T06:07:07.000Z</time><extensions/></trkpt><trkpt lat="59.11419153213501" lon="30.499978065490723"><time>2026-08-20T06:07:10.000Z</time><extensions/></trkpt><trkpt lat="59.11421298980713" lon="30.50008535385132"><time>2026-08-20T06:07:12.000Z</time><extensions/></trkpt><trkpt lat="59.11421298980713" lon="30.500171184539795"><time>2026-08-20T06:07:15.000Z</time><extensions/></trkpt><trkpt lat="59.11423444747925" lon="30.500235557556152"><time>2026-08-20T06:07:17.000Z</time><extensions/></trkpt><trkpt lat="59.11423444747925" lon="30.500342845916748"><time>2026-08-20T06:07:22.000Z</time><extensions/></trkpt><trkpt lat="59.11423444747925" lon="30.50027847290039"><time>2026-08-20T06:07:27.000Z</time><extensions/></trkpt><trkpt lat="59.11421298980713" lon="30.50025701522827"><time>2026-08-20T06:07:30.000Z</time><extensions/></trkpt><trkpt lat="59.11421298980713" lon="30.500149726867676"><time>2026-08-20T06:07:32.000Z</time><extensions/></trkpt><trkpt lat="59.11421298980713" lon="30.499978065490723"><time>2026-08-20T06:07:35.000Z</time><extensions/></trkpt><trkpt lat="59.11421298980713" lon="30.5000638961792"><time>2026-08-20T06:07:40.000Z</time><extensions/></trkpt><trkpt lat="59.11425590515137" lon="30.500171184539795"><time>2026-08-20T06:07:42.000Z</time><extensions/></trkpt><trkpt lat="59.11425590515137" lon="30.50025701522827"><time>2026-08-20T06:07:45.000Z</time><extensions/></trkpt><trkpt lat="59.11425590515137" lon="30.500364303588867"><time>2026-08-20T06:07:55.000Z</time><extensions/></trkpt><trkpt lat="59.11423444747925" lon="30.500450134277344"><time>2026-08-20T06:07:57.000Z</time><extensions/></trkpt><trkpt lat="59.11423444747925" lon="30.500493049621582"><time>2026-08-20T06:08:00.000Z</time><extensions/></trkpt><trkpt lat="59.114277362823486" lon="30.500643253326416"><time>2026-08-20T06:08:15.000Z</time><extensions/></trkpt><trkpt lat="59.114277362823486" lon="30.500707626342773"><time>2026-08-20T06:08:17.000Z</time><extensions/></trkpt><trkpt lat="59.11425590515137" lon="30.50075054168701"><time>2026-08-20T06:08:20.000Z</time><extensions/></trkpt><trkpt lat="59.11423444747925" lon="30.50081491470337"><time>2026-08-20T06:08:22.000Z</time><extensions/></trkpt><trkpt lat="59.11425590515137" lon="30.500900745391846"><time>2026-08-20T06:08:25.000Z</time><extensions/></trkpt><trkpt lat="59.11425590515137" lon="30.50100803375244"><time>2026-08-20T06:08:27.000Z</time><extensions/></trkpt><trkpt lat="59.11423444747925" lon="30.501093864440918"><time>2026-08-20T06:08:30.000Z</time><extensions/></trkpt><trkpt lat="59.11421298980713" lon="30.501093864440918"><time>2026-08-20T06:08:32.000Z</time><extensions/></trkpt><trkpt lat="59.11423444747925" lon="30.501222610473633"><time>2026-08-20T06:08:37.000Z</time><extensions/></trkpt><trkpt lat="59.11425590515137" lon="30.50128698348999"><time>2026-08-20T06:08:40.000Z</time><extensions/></trkpt><trkpt lat="59.114277362823486" lon="30.50132989883423"><time>2026-08-20T06:08:42.000Z</time><extensions/></trkpt><trkpt lat="59.114277362823486" lon="30.501136779785156"><time>2026-08-20T06:08:50.000Z</time><extensions/></trkpt><trkpt lat="59.114277362823486" lon="30.500986576080322"><time>2026-08-20T06:08:52.000Z</time><extensions/></trkpt><trkpt lat="59.114277362823486" lon="30.500857830047607"><time>2026-08-20T06:08:55.000Z</time><extensions/></trkpt><trkpt lat="59.11425590515137" lon="30.50075054168701"><time>2026-08-20T06:08:57.000Z</time><extensions/></trkpt><trkpt lat="59.11425590515137" lon="30.50075054168701"><time>2026-08-20T06:09:00.000Z</time><extensions/></trkpt><trkpt lat="59.114277362823486" lon="30.50077199935913"><time>2026-08-20T06:09:02.000Z</time><extensions/></trkpt><trkpt lat="59.11417007446289" lon="30.50079345703125"><time>2026-08-20T06:09:20.000Z</time><extensions/></trkpt><trkpt lat="59.11412715911865" lon="30.50079345703125"><time>2026-08-20T06:09:22.000Z</time><extensions/></trkpt><trkpt lat="59.114062786102295" lon="30.50081491470337"><time>2026-08-20T06:09:25.000Z</time><extensions/></trkpt><trkpt lat="59.114041328430176" lon="30.50083637237549"><time>2026-08-20T06:09:27.000Z</time><extensions/></trkpt><trkpt lat="59.11399841308594" lon="30.500900745391846"><time>2026-08-20T06:09:30.000Z</time><extensions/></trkpt><trkpt lat="59.1139554977417" lon="30.500943660736084"><time>2026-08-20T06:09:32.000Z</time><extensions/></trkpt><trkpt lat="59.11391258239746" lon="30.500922203063965"><time>2026-08-20T06:09:35.000Z</time><extensions/></trkpt><trkpt lat="59.11386966705322" lon="30.500943660736084"><time>2026-08-20T06:09:37.000Z</time><extensions/></trkpt><trkpt lat="59.11386966705322" lon="30.501093864440918"><time>2026-08-20T06:09:40.000Z</time><extensions/></trkpt><trkpt lat="59.11389112472534" lon="30.501201152801514"><time>2026-08-20T06:09:42.000Z</time><extensions/></trkpt><trkpt lat="59.11389112472534" lon="30.50128698348999"><time>2026-08-20T06:09:45.000Z</time><extensions/></trkpt><trkpt lat="59.11389112472534" lon="30.50132989883423"><time>2026-08-20T06:09:47.000Z</time><extensions/></trkpt><trkpt lat="59.11391258239746" lon="30.501372814178467"><time>2026-08-20T06:09:50.000Z</time><extensions/></trkpt><trkpt lat="59.11389112472534" lon="30.501415729522705"><time>2026-08-20T06:09:52.000Z</time><extensions/></trkpt><trkpt lat="59.11386966705322" lon="30.50132989883423"><time>2026-08-20T06:09:57.000Z</time><extensions/></trkpt><trkpt lat="59.11386966705322" lon="30.501201152801514"><time>2026-08-20T06:10:00.000Z</time><extensions/></trkpt><trkpt lat="59.11391258239746" lon="30.5010724067688"><time>2026-08-20T06:10:02.000Z</time><extensions/></trkpt><trkpt lat="59.11397695541382" lon="30.500986576080322"><time>2026-08-20T06:10:05.000Z</time><extensions/></trkpt><trkpt lat="59.114041328430176" lon="30.500965118408203"><time>2026-08-20T06:10:07.000Z</time><extensions/></trkpt><trkpt lat="59.11410570144653" lon="30.50100803375244"><time>2026-08-20T06:10:10.000Z</time><extensions/></trkpt><trkpt lat="59.11419153213501" lon="30.500986576080322"><time>2026-08-20T06:10:17.000Z</time><extensions/></trkpt><trkpt lat="59.11423444747925" lon="30.50100803375244"><time>2026-08-20T06:10:20.000Z</time><extensions/></trkpt><trkpt lat="59.114277362823486" lon="30.501115322113037"><time>2026-08-20T06:10:22.000Z</time><extensions/></trkpt><trkpt lat="59.114277362823486" lon="30.501201152801514"><time>2026-08-20T06:10:25.000Z</time><extensions/></trkpt><trkpt lat="59.11425590515137" lon="30.501244068145752"><time>2026-08-20T06:10:27.000Z</time><extensions/></trkpt><trkpt lat="59.11423444747925" lon="30.501179695129395"><time>2026-08-20T06:10:35.000Z</time><extensions/></trkpt><trkpt lat="59.11417007446289" lon="30.501136779785156"><time>2026-08-20T06:10:37.000Z</time><extensions/></trkpt><trkpt lat="59.11412715911865" lon="30.501136779785156"><time>2026-08-20T06:10:40.000Z</time><extensions/></trkpt><trkpt lat="59.11412715911865" lon="30.501179695129395"><time>2026-08-20T06:10:42.000Z</time><extensions/></trkpt><trkpt lat="59.11412715911865" lon="30.501244068145752"><time>2026-08-20T06:10:45.000Z</time><extensions/></trkpt><trkpt lat="59.11412715911865" lon="30.501201152801514"><time>2026-08-20T06:10:47.000Z</time><extensions/></trkpt><trkpt lat="59.11414861679077" lon="30.501158237457275"><time>2026-08-20T06:10:50.000Z</time><extensions/></trkpt><trkpt lat="59.11412715911865" lon="30.501115322113037"><time>2026-08-20T06:10:52.000Z</time><extensions/></trkpt><trkpt lat="59.11412715911865" lon="30.5010724067688"><time>2026-08-20T06:10:57.000Z</time><extensions/></trkpt><trkpt lat="59.11414861679077" lon="30.5010724067688"><time>2026-08-20T06:11:27.000Z</time><extensions/></trkpt><trkpt lat="59.11414861679077" lon="30.5010724067688"><time>2026-08-20T06:11:37.000Z</time><extensions/></trkpt><trkpt lat="59.11414861679077" lon="30.5010724067688"><time>2026-08-20T06:11:45.000Z</time><extensions/></trkpt><trkpt lat="59.11419153213501" lon="30.501158237457275"><time>2026-08-20T06:11:47.000Z</time><extensions/></trkpt><trkpt lat="59.11425590515137" lon="30.501372814178467"><time>2026-08-20T06:11:55.000Z</time><extensions/></trkpt><trkpt lat="59.114277362823486" lon="30.501458644866943"><time>2026-08-20T06:11:57.000Z</time><extensions/></trkpt><trkpt lat="59.114320278167725" lon="30.501394271850586"><time>2026-08-20T06:12:00.000Z</time><extensions/></trkpt><trkpt lat="59.114320278167725" lon="30.501179695129395"><time>2026-08-20T06:12:02.000Z</time><extensions/></trkpt><trkpt lat="59.11425590515137" lon="30.501179695129395"><time>2026-08-20T06:12:05.000Z</time><extensions/></trkpt><trkpt lat="59.11425590515137" lon="30.501244068145752"><time>2026-08-20T06:12:07.000Z</time><extensions/></trkpt><trkpt lat="59.11425590515137" lon="30.50128698348999"><time>2026-08-20T06:12:10.000Z</time><extensions/></trkpt><trkpt lat="59.11421298980713" lon="30.50126552581787"><time>2026-08-20T06:12:20.000Z</time><extensions/></trkpt><trkpt lat="59.114084243774414" lon="30.50132989883423"><time>2026-08-20T06:12:50.000Z</time><extensions/></trkpt><trkpt lat="59.114084243774414" lon="30.501437187194824"><time>2026-08-20T06:12:52.000Z</time><extensions/></trkpt><trkpt lat="59.114062786102295" lon="30.501458644866943"><time>2026-08-20T06:12:55.000Z</time><extensions/></trkpt><trkpt lat="59.11401987075806" lon="30.501458644866943"><time>2026-08-20T06:12:57.000Z</time><extensions/></trkpt><trkpt lat="59.1139554977417" lon="30.501372814178467"><time>2026-08-20T06:13:00.000Z</time><extensions/></trkpt><trkpt lat="59.11391258239746" lon="30.50132989883423"><time>2026-08-20T06:13:02.000Z</time><extensions/></trkpt><trkpt lat="59.1138482093811" lon="30.50128698348999"><time>2026-08-20T06:13:05.000Z</time><extensions/></trkpt><trkpt lat="59.113826751708984" lon="30.501201152801514"><time>2026-08-20T06:13:07.000Z</time><extensions/></trkpt><trkpt lat="59.113826751708984" lon="30.501115322113037"><time>2026-08-20T06:13:10.000Z</time><extensions/></trkpt><trkpt lat="59.11386966705322" lon="30.5010724067688"><time>2026-08-20T06:13:12.000Z</time><extensions/></trkpt><trkpt lat="59.11391258239746" lon="30.50105094909668"><time>2026-08-20T06:13:17.000Z</time><extensions/></trkpt><trkpt lat="59.1139554977417" lon="30.501093864440918"><time>2026-08-20T06:13:25.000Z</time><extensions/></trkpt><trkpt lat="59.11389112472534" lon="30.50102949142456"><time>2026-08-20T06:13:35.000Z</time><extensions/></trkpt><trkpt lat="59.11386966705322" lon="30.500986576080322"><time>2026-08-20T06:13:37.000Z</time><extensions/></trkpt><trkpt lat="59.1138482093811" lon="30.50102949142456"><time>2026-08-20T06:13:40.000Z</time><extensions/></trkpt><trkpt lat="59.113826751708984" lon="30.50102949142456"><time>2026-08-20T06:13:42.000Z</time><extensions/></trkpt><trkpt lat="59.1138482093811" lon="30.501093864440918"><time>2026-08-20T06:13:47.000Z</time><extensions/></trkpt><trkpt lat="59.113805294036865" lon="30.501179695129395"><time>2026-08-20T06:13:50.000Z</time><extensions/></trkpt><trkpt lat="59.11374092102051" lon="30.501179695129395"><time>2026-08-20T06:13:52.000Z</time><extensions/></trkpt><trkpt lat="59.11367654800415" lon="30.501201152801514"><time>2026-08-20T06:13:55.000Z</time><extensions/></trkpt><trkpt lat="59.11371946334839" lon="30.501158237457275"><time>2026-08-20T06:14:02.000Z</time><extensions/></trkpt><trkpt lat="59.11371946334839" lon="30.501244068145752"><time>2026-08-20T06:14:20.000Z</time><extensions/></trkpt><trkpt lat="59.11369800567627" lon="30.50128698348999"><time>2026-08-20T06:14:22.000Z</time><extensions/></trkpt><trkpt lat="59.11367654800415" lon="30.50132989883423"><time>2026-08-20T06:14:25.000Z</time><extensions/></trkpt><trkpt lat="59.11369800567627" lon="30.501437187194824"><time>2026-08-20T06:14:30.000Z</time><extensions/></trkpt><trkpt lat="59.11371946334839" lon="30.501458644866943"><time>2026-08-20T06:14:32.000Z</time><extensions/></trkpt><trkpt lat="59.11365509033203" lon="30.501437187194824"><time>2026-08-20T06:14:37.000Z</time><extensions/></trkpt><trkpt lat="59.11361217498779" lon="30.501437187194824"><time>2026-08-20T06:14:40.000Z</time><extensions/></trkpt><trkpt lat="59.113590717315674" lon="30.501415729522705"><time>2026-08-20T06:14:42.000Z</time><extensions/></trkpt><trkpt lat="59.113547801971436" lon="30.501351356506348"><time>2026-08-20T06:14:45.000Z</time><extensions/></trkpt><trkpt lat="59.113526344299316" lon="30.501394271850586"><time>2026-08-20T06:14:50.000Z</time><extensions/></trkpt><trkpt lat="59.11348342895508" lon="30.501372814178467"><time>2026-08-20T06:14:52.000Z</time><extensions/></trkpt><trkpt lat="59.11346197128296" lon="30.501351356506348"><time>2026-08-20T06:14:55.000Z</time><extensions/></trkpt><trkpt lat="59.11346197128296" lon="30.50130844116211"><time>2026-08-20T06:14:57.000Z</time><extensions/></trkpt><trkpt lat="59.11346197128296" lon="30.50128698348999"><time>2026-08-20T06:15:22.000Z</time><extensions/></trkpt><trkpt lat="59.11348342895508" lon="30.501222610473633"><time>2026-08-20T06:15:25.000Z</time><extensions/></trkpt><trkpt lat="59.113526344299316" lon="30.501201152801514"><time>2026-08-20T06:15:27.000Z</time><extensions/></trkpt><trkpt lat="59.113590717315674" lon="30.501179695129395"><time>2026-08-20T06:15:30.000Z</time><extensions/></trkpt><trkpt lat="59.113569259643555" lon="30.501244068145752"><time>2026-08-20T06:15:35.000Z</time><extensions/></trkpt><trkpt lat="59.113590717315674" lon="30.501351356506348"><time>2026-08-20T06:15:37.000Z</time><extensions/></trkpt><trkpt lat="59.113569259643555" lon="30.501437187194824"><time>2026-08-20T06:15:40.000Z</time><extensions/></trkpt><trkpt lat="59.113569259643555" lon="30.50150156021118"><time>2026-08-20T06:15:42.000Z</time><extensions/></trkpt><trkpt lat="59.113547801971436" lon="30.50150156021118"><time>2026-08-20T06:15:50.000Z</time><extensions/></trkpt><trkpt lat="59.113547801971436" lon="30.50154447555542"><time>2026-08-20T06:15:52.000Z</time><extensions/></trkpt><trkpt lat="59.113526344299316" lon="30.50156593322754"><time>2026-08-20T06:15:55.000Z</time><extensions/></trkpt><trkpt lat="59.1135048866272" lon="30.50156593322754"><time>2026-08-20T06:15:57.000Z</time><extensions/></trkpt><trkpt lat="59.11348342895508" lon="30.501608848571777"><time>2026-08-20T06:16:00.000Z</time><extensions/></trkpt><trkpt lat="59.11346197128296" lon="30.501608848571777"><time>2026-08-20T06:16:02.000Z</time><extensions/></trkpt><trkpt lat="59.11346197128296" lon="30.50154447555542"><time>2026-08-20T06:16:05.000Z</time><extensions/></trkpt><trkpt lat="59.11344051361084" lon="30.50150156021118"><time>2026-08-20T06:16:07.000Z</time><extensions/></trkpt><trkpt lat="59.11344051361084" lon="30.501372814178467"><time>2026-08-20T06:16:10.000Z</time><extensions/></trkpt><trkpt lat="59.11348342895508" lon="30.50128698348999"><time>2026-08-20T06:16:12.000Z</time><extensions/></trkpt><trkpt lat="59.1135048866272" lon="30.501244068145752"><time>2026-08-20T06:16:32.000Z</time><extensions/></trkpt><trkpt lat="59.113526344299316" lon="30.501222610473633"><time>2026-08-20T06:16:52.000Z</time><extensions/></trkpt><trkpt lat="59.113569259643555" lon="30.501244068145752"><time>2026-08-20T06:16:55.000Z</time><extensions/></trkpt><trkpt lat="59.113590717315674" lon="30.50126552581787"><time>2026-08-20T06:17:12.000Z</time><extensions/></trkpt><trkpt lat="59.113590717315674" lon="30.50126552581787"><time>2026-08-20T06:17:42.000Z</time><extensions/></trkpt><trkpt lat="59.113569259643555" lon="30.50126552581787"><time>2026-08-20T06:18:12.000Z</time><extensions/></trkpt><trkpt lat="59.113590717315674" lon="30.50126552581787"><time>2026-08-20T06:18:42.000Z</time><extensions/></trkpt><trkpt lat="59.113547801971436" lon="30.50126552581787"><time>2026-08-20T06:19:12.000Z</time><extensions/></trkpt><trkpt lat="59.113547801971436" lon="30.50126552581787"><time>2026-08-20T06:19:35.000Z</time><extensions/></trkpt><trkpt lat="59.113526344299316" lon="30.50126552581787"><time>2026-08-20T06:19:42.000Z</time><extensions/></trkpt><trkpt lat="59.113569259643555" lon="30.501222610473633"><time>2026-08-20T06:20:00.000Z</time><extensions/></trkpt><trkpt lat="59.11361217498779" lon="30.500965118408203"><time>2026-08-20T06:20:27.000Z</time><extensions/></trkpt><trkpt lat="59.113590717315674" lon="30.500857830047607"><time>2026-08-20T06:20:30.000Z</time><extensions/></trkpt><trkpt lat="59.113569259643555" lon="30.50079345703125"><time>2026-08-20T06:20:32.000Z</time><extensions/></trkpt><trkpt lat="59.113590717315674" lon="30.500707626342773"><time>2026-08-20T06:20:35.000Z</time><extensions/></trkpt><trkpt lat="59.113590717315674" lon="30.500643253326416"><time>2026-08-20T06:20:37.000Z</time><extensions/></trkpt><trkpt lat="59.11361217498779" lon="30.500600337982178"><time>2026-08-20T06:20:52.000Z</time><extensions/></trkpt><trkpt lat="59.113590717315674" lon="30.5005145072937"><time>2026-08-20T06:20:55.000Z</time><extensions/></trkpt><trkpt lat="59.113569259643555" lon="30.50053596496582"><time>2026-08-20T06:20:57.000Z</time><extensions/></trkpt><trkpt lat="59.113547801971436" lon="30.500471591949463"><time>2026-08-20T06:21:00.000Z</time><extensions/></trkpt><trkpt lat="59.113547801971436" lon="30.500385761260986"><time>2026-08-20T06:21:02.000Z</time><extensions/></trkpt><trkpt lat="59.113526344299316" lon="30.50029993057251"><time>2026-08-20T06:21:05.000Z</time><extensions/></trkpt><trkpt lat="59.113526344299316" lon="30.500214099884033"><time>2026-08-20T06:21:07.000Z</time><extensions/></trkpt><trkpt lat="59.113569259643555" lon="30.500128269195557"><time>2026-08-20T06:21:32.000Z</time><extensions/></trkpt><trkpt lat="59.113547801971436" lon="30.50008535385132"><time>2026-08-20T06:21:35.000Z</time><extensions/></trkpt><trkpt lat="59.113526344299316" lon="30.50004243850708"><time>2026-08-20T06:21:37.000Z</time><extensions/></trkpt><trkpt lat="59.11348342895508" lon="30.499978065490723"><time>2026-08-20T06:21:45.000Z</time><extensions/></trkpt><trkpt lat="59.11346197128296" lon="30.499913692474365"><time>2026-08-20T06:21:47.000Z</time><extensions/></trkpt><trkpt lat="59.11346197128296" lon="30.499849319458008"><time>2026-08-20T06:21:50.000Z</time><extensions/></trkpt><trkpt lat="59.11348342895508" lon="30.499720573425293"><time>2026-08-20T06:21:52.000Z</time><extensions/></trkpt><trkpt lat="59.11348342895508" lon="30.499656200408936"><time>2026-08-20T06:21:55.000Z</time><extensions/></trkpt><trkpt lat="59.11348342895508" lon="30.499720573425293"><time>2026-08-20T06:21:57.000Z</time><extensions/></trkpt><trkpt lat="59.11348342895508" lon="30.499699115753174"><time>2026-08-20T06:22:00.000Z</time><extensions/></trkpt><trkpt lat="59.11348342895508" lon="30.499699115753174"><time>2026-08-20T06:22:02.000Z</time><extensions/></trkpt><trkpt lat="59.11348342895508" lon="30.49976348876953"><time>2026-08-20T06:22:05.000Z</time><extensions/></trkpt><trkpt lat="59.11348342895508" lon="30.49978494644165"><time>2026-08-20T06:22:07.000Z</time><extensions/></trkpt><trkpt lat="59.113547801971436" lon="30.499720573425293"><time>2026-08-20T06:22:17.000Z</time><extensions/></trkpt><trkpt lat="59.113547801971436" lon="30.499656200408936"><time>2026-08-20T06:22:20.000Z</time><extensions/></trkpt><trkpt lat="59.113526344299316" lon="30.499613285064697"><time>2026-08-20T06:22:22.000Z</time><extensions/></trkpt><trkpt lat="59.113547801971436" lon="30.49954891204834"><time>2026-08-20T06:22:25.000Z</time><extensions/></trkpt><trkpt lat="59.113547801971436" lon="30.499484539031982"><time>2026-08-20T06:22:27.000Z</time><extensions/></trkpt><trkpt lat="59.113590717315674" lon="30.499463081359863"><time>2026-08-20T06:22:35.000Z</time><extensions/></trkpt><trkpt lat="59.1135048866272" lon="30.499591827392578"><time>2026-08-20T06:22:52.000Z</time><extensions/></trkpt><trkpt lat="59.113526344299316" lon="30.49954891204834"><time>2026-08-20T06:22:55.000Z</time><extensions/></trkpt><trkpt lat="59.11348342895508" lon="30.499484539031982"><time>2026-08-20T06:22:57.000Z</time><extensions/></trkpt><trkpt lat="59.11348342895508" lon="30.499355792999268"><time>2026-08-20T06:23:00.000Z</time><extensions/></trkpt><trkpt lat="59.11348342895508" lon="30.49929141998291"><time>2026-08-20T06:23:02.000Z</time><extensions/></trkpt><trkpt lat="59.11346197128296" lon="30.499227046966553"><time>2026-08-20T06:23:05.000Z</time><extensions/></trkpt><trkpt lat="59.1135048866272" lon="30.499162673950195"><time>2026-08-20T06:23:07.000Z</time><extensions/></trkpt><trkpt lat="59.1135048866272" lon="30.499141216278076"><time>2026-08-20T06:23:10.000Z</time><extensions/></trkpt><trkpt lat="59.113526344299316" lon="30.499205589294434"><time>2026-08-20T06:23:12.000Z</time><extensions/></trkpt><trkpt lat="59.1135048866272" lon="30.49926996231079"><time>2026-08-20T06:23:15.000Z</time><extensions/></trkpt><trkpt lat="59.11348342895508" lon="30.49926996231079"><time>2026-08-20T06:23:17.000Z</time><extensions/></trkpt><trkpt lat="59.11346197128296" lon="30.499184131622314"><time>2026-08-20T06:23:20.000Z</time><extensions/></trkpt><trkpt lat="59.11341905593872" lon="30.499162673950195"><time>2026-08-20T06:23:22.000Z</time><extensions/></trkpt><trkpt lat="59.1133975982666" lon="30.499098300933838"><time>2026-08-20T06:23:25.000Z</time><extensions/></trkpt><trkpt lat="59.1133975982666" lon="30.49901247024536"><time>2026-08-20T06:23:30.000Z</time><extensions/></trkpt><trkpt lat="59.11341905593872" lon="30.498948097229004"><time>2026-08-20T06:23:32.000Z</time><extensions/></trkpt><trkpt lat="59.11346197128296" lon="30.498926639556885"><time>2026-08-20T06:23:35.000Z</time><extensions/></trkpt><trkpt lat="59.11348342895508" lon="30.498905181884766"><time>2026-08-20T06:23:37.000Z</time><extensions/></trkpt><trkpt lat="59.11346197128296" lon="30.498926639556885"><time>2026-08-20T06:23:40.000Z</time><extensions/></trkpt><trkpt lat="59.11341905593872" lon="30.498883724212646"><time>2026-08-20T06:23:55.000Z</time><extensions/></trkpt><trkpt lat="59.1133975982666" lon="30.49879789352417"><time>2026-08-20T06:23:57.000Z</time><extensions/></trkpt><trkpt lat="59.1133975982666" lon="30.498712062835693"><time>2026-08-20T06:24:00.000Z</time><extensions/></trkpt><trkpt lat="59.11341905593872" lon="30.498604774475098"><time>2026-08-20T06:24:20.000Z</time><extensions/></trkpt><trkpt lat="59.11344051361084" lon="30.49856185913086"><time>2026-08-20T06:24:22.000Z</time><extensions/></trkpt><trkpt lat="59.11344051361084" lon="30.498454570770264"><time>2026-08-20T06:24:25.000Z</time><extensions/></trkpt><trkpt lat="59.11341905593872" lon="30.498390197753906"><time>2026-08-20T06:24:27.000Z</time><extensions/></trkpt><trkpt lat="59.1133975982666" lon="30.49832582473755"><time>2026-08-20T06:24:30.000Z</time><extensions/></trkpt><trkpt lat="59.1133975982666" lon="30.498239994049072"><time>2026-08-20T06:24:32.000Z</time><extensions/></trkpt><trkpt lat="59.11337614059448" lon="30.498197078704834"><time>2026-08-20T06:24:35.000Z</time><extensions/></trkpt><trkpt lat="59.1133975982666" lon="30.498197078704834"><time>2026-08-20T06:24:37.000Z</time><extensions/></trkpt><trkpt lat="59.11337614059448" lon="30.498197078704834"><time>2026-08-20T06:24:40.000Z</time><extensions/></trkpt><trkpt lat="59.11337614059448" lon="30.498239994049072"><time>2026-08-20T06:24:42.000Z</time><extensions/></trkpt><trkpt lat="59.113333225250244" lon="30.49826145172119"><time>2026-08-20T06:24:50.000Z</time><extensions/></trkpt><trkpt lat="59.113290309906006" lon="30.49828290939331"><time>2026-08-20T06:24:52.000Z</time><extensions/></trkpt><trkpt lat="59.11324739456177" lon="30.49828290939331"><time>2026-08-20T06:24:55.000Z</time><extensions/></trkpt><trkpt lat="59.11320447921753" lon="30.49826145172119"><time>2026-08-20T06:24:57.000Z</time><extensions/></trkpt><trkpt lat="59.11314010620117" lon="30.498239994049072"><time>2026-08-20T06:25:00.000Z</time><extensions/></trkpt><trkpt lat="59.11316156387329" lon="30.498154163360596"><time>2026-08-20T06:25:02.000Z</time><extensions/></trkpt><trkpt lat="59.11318302154541" lon="30.49808979034424"><time>2026-08-20T06:25:05.000Z</time><extensions/></trkpt><trkpt lat="59.11322593688965" lon="30.498046875"><time>2026-08-20T06:25:07.000Z</time><extensions/></trkpt><trkpt lat="59.11326885223389" lon="30.497982501983643"><time>2026-08-20T06:25:10.000Z</time><extensions/></trkpt><trkpt lat="59.113290309906006" lon="30.49802541732788"><time>2026-08-20T06:25:12.000Z</time><extensions/></trkpt><trkpt lat="59.113311767578125" lon="30.49800395965576"><time>2026-08-20T06:25:15.000Z</time><extensions/></trkpt><trkpt lat="59.113333225250244" lon="30.497961044311523"><time>2026-08-20T06:25:17.000Z</time><extensions/></trkpt><trkpt lat="59.113333225250244" lon="30.497896671295166"><time>2026-08-20T06:25:20.000Z</time><extensions/></trkpt><trkpt lat="59.11335468292236" lon="30.49783229827881"><time>2026-08-20T06:25:22.000Z</time><extensions/></trkpt><trkpt lat="59.11337614059448" lon="30.49778938293457"><time>2026-08-20T06:25:25.000Z</time><extensions/></trkpt><trkpt lat="59.11337614059448" lon="30.497725009918213"><time>2026-08-20T06:25:27.000Z</time><extensions/></trkpt><trkpt lat="59.1133975982666" lon="30.497639179229736"><time>2026-08-20T06:25:30.000Z</time><extensions/></trkpt><trkpt lat="59.1133975982666" lon="30.49757480621338"><time>2026-08-20T06:25:32.000Z</time><extensions/></trkpt><trkpt lat="59.11335468292236" lon="30.497596263885498"><time>2026-08-20T06:25:35.000Z</time><extensions/></trkpt><trkpt lat="59.113333225250244" lon="30.497639179229736"><time>2026-08-20T06:25:37.000Z</time><extensions/></trkpt><trkpt lat="59.113311767578125" lon="30.497660636901855"><time>2026-08-20T06:25:42.000Z</time><extensions/></trkpt><trkpt lat="59.11337614059448" lon="30.497703552246094"><time>2026-08-20T06:26:12.000Z</time><extensions/></trkpt><trkpt lat="59.11341905593872" lon="30.497639179229736"><time>2026-08-20T06:26:15.000Z</time><extensions/></trkpt><trkpt lat="59.11346197128296" lon="30.497617721557617"><time>2026-08-20T06:26:22.000Z</time><extensions/></trkpt><trkpt lat="59.11346197128296" lon="30.497617721557617"><time>2026-08-20T06:26:25.000Z</time><extensions/></trkpt><trkpt lat="59.1135048866272" lon="30.497617721557617"><time>2026-08-20T06:26:40.000Z</time><extensions/></trkpt><trkpt lat="59.113526344299316" lon="30.49757480621338"><time>2026-08-20T06:26:42.000Z</time><extensions/></trkpt><trkpt lat="59.11346197128296" lon="30.497682094573975"><time>2026-08-20T06:26:47.000Z</time><extensions/></trkpt><trkpt lat="59.11348342895508" lon="30.497703552246094"><time>2026-08-20T06:26:50.000Z</time><extensions/></trkpt><trkpt lat="59.1135048866272" lon="30.497725009918213"><time>2026-08-20T06:27:20.000Z</time><extensions/></trkpt><trkpt lat="59.113526344299316" lon="30.497703552246094"><time>2026-08-20T06:27:25.000Z</time><extensions/></trkpt><trkpt lat="59.11348342895508" lon="30.497682094573975"><time>2026-08-20T06:27:47.000Z</time><extensions/></trkpt><trkpt lat="59.11348342895508" lon="30.49757480621338"><time>2026-08-20T06:27:52.000Z</time><extensions/></trkpt><trkpt lat="59.1135048866272" lon="30.49751043319702"><time>2026-08-20T06:27:55.000Z</time><extensions/></trkpt><trkpt lat="59.113526344299316" lon="30.497488975524902"><time>2026-08-20T06:27:57.000Z</time><extensions/></trkpt><trkpt lat="59.113526344299316" lon="30.497488975524902"><time>2026-08-20T06:28:00.000Z</time><extensions/></trkpt><trkpt lat="59.113526344299316" lon="30.497446060180664"><time>2026-08-20T06:28:02.000Z</time><extensions/></trkpt><trkpt lat="59.113526344299316" lon="30.49733877182007"><time>2026-08-20T06:28:05.000Z</time><extensions/></trkpt><trkpt lat="59.1135048866272" lon="30.497403144836426"><time>2026-08-20T06:28:07.000Z</time><extensions/></trkpt><trkpt lat="59.11348342895508" lon="30.497403144836426"><time>2026-08-20T06:28:10.000Z</time><extensions/></trkpt><trkpt lat="59.1135048866272" lon="30.497381687164307"><time>2026-08-20T06:28:12.000Z</time><extensions/></trkpt><trkpt lat="59.113547801971436" lon="30.49733877182007"><time>2026-08-20T06:28:15.000Z</time><extensions/></trkpt><trkpt lat="59.113569259643555" lon="30.49727439880371"><time>2026-08-20T06:28:17.000Z</time><extensions/></trkpt><trkpt lat="59.113569259643555" lon="30.497210025787354"><time>2026-08-20T06:28:20.000Z</time><extensions/></trkpt><trkpt lat="59.113590717315674" lon="30.497124195098877"><time>2026-08-20T06:28:22.000Z</time><extensions/></trkpt><trkpt lat="59.11361217498779" lon="30.497145652770996"><time>2026-08-20T06:28:25.000Z</time><extensions/></trkpt><trkpt lat="59.11363363265991" lon="30.497188568115234"><time>2026-08-20T06:28:27.000Z</time><extensions/></trkpt><trkpt lat="59.11363363265991" lon="30.49727439880371"><time>2026-08-20T06:28:30.000Z</time><extensions/></trkpt><trkpt lat="59.11365509033203" lon="30.497360229492188"><time>2026-08-20T06:28:32.000Z</time><extensions/></trkpt><trkpt lat="59.11361217498779" lon="30.497446060180664"><time>2026-08-20T06:28:35.000Z</time><extensions/></trkpt><trkpt lat="59.113590717315674" lon="30.497446060180664"><time>2026-08-20T06:28:37.000Z</time><extensions/></trkpt><trkpt lat="59.113569259643555" lon="30.497403144836426"><time>2026-08-20T06:28:40.000Z</time><extensions/></trkpt><trkpt lat="59.113569259643555" lon="30.49731731414795"><time>2026-08-20T06:28:42.000Z</time><extensions/></trkpt><trkpt lat="59.113547801971436" lon="30.497231483459473"><time>2026-08-20T06:28:45.000Z</time><extensions/></trkpt><trkpt lat="59.11346197128296" lon="30.497167110443115"><time>2026-08-20T06:28:50.000Z</time><extensions/></trkpt><trkpt lat="59.11341905593872" lon="30.497167110443115"><time>2026-08-20T06:28:52.000Z</time><extensions/></trkpt><trkpt lat="59.11346197128296" lon="30.497167110443115"><time>2026-08-20T06:28:55.000Z</time><extensions/></trkpt><trkpt lat="59.1135048866272" lon="30.497167110443115"><time>2026-08-20T06:28:57.000Z</time><extensions/></trkpt><trkpt lat="59.1135048866272" lon="30.497124195098877"><time>2026-08-20T06:29:00.000Z</time><extensions/></trkpt><trkpt lat="59.113526344299316" lon="30.497102737426758"><time>2026-08-20T06:29:30.000Z</time><extensions/></trkpt><trkpt lat="59.113526344299316" lon="30.497102737426758"><time>2026-08-20T06:29:42.000Z</time><extensions/></trkpt><trkpt lat="59.113526344299316" lon="30.497124195098877"><time>2026-08-20T06:30:05.000Z</time><extensions/></trkpt><trkpt lat="59.1135048866272" lon="30.496909618377686"><time>2026-08-20T06:30:22.000Z</time><extensions/></trkpt><trkpt lat="59.11346197128296" lon="30.496845245361328"><time>2026-08-20T06:30:25.000Z</time><extensions/></trkpt><trkpt lat="59.11346197128296" lon="30.496845245361328"><time>2026-08-20T06:30:27.000Z</time><extensions/></trkpt><trkpt lat="59.11344051361084" lon="30.496866703033447"><time>2026-08-20T06:30:32.000Z</time><extensions/></trkpt><trkpt lat="59.11344051361084" lon="30.49675941467285"><time>2026-08-20T06:30:37.000Z</time><extensions/></trkpt><trkpt lat="59.11341905593872" lon="30.496630668640137"><time>2026-08-20T06:30:40.000Z</time><extensions/></trkpt><trkpt lat="59.11341905593872" lon="30.496609210968018"><time>2026-08-20T06:30:42.000Z</time><extensions/></trkpt><trkpt lat="59.11344051361084" lon="30.496501922607422"><time>2026-08-20T06:30:45.000Z</time><extensions/></trkpt><trkpt lat="59.11346197128296" lon="30.496437549591064"><time>2026-08-20T06:30:47.000Z</time><extensions/></trkpt><trkpt lat="59.11348342895508" lon="30.496459007263184"><time>2026-08-20T06:30:50.000Z</time><extensions/></trkpt><trkpt lat="59.1135048866272" lon="30.49654483795166"><time>2026-08-20T06:30:52.000Z</time><extensions/></trkpt><trkpt lat="59.113526344299316" lon="30.496630668640137"><time>2026-08-20T06:30:55.000Z</time><extensions/></trkpt><trkpt lat="59.113526344299316" lon="30.496695041656494"><time>2026-08-20T06:30:57.000Z</time><extensions/></trkpt><trkpt lat="59.1135048866272" lon="30.496695041656494"><time>2026-08-20T06:31:00.000Z</time><extensions/></trkpt><trkpt lat="59.11346197128296" lon="30.496652126312256"><time>2026-08-20T06:31:02.000Z</time><extensions/></trkpt><trkpt lat="59.11344051361084" lon="30.496630668640137"><time>2026-08-20T06:31:05.000Z</time><extensions/></trkpt><trkpt lat="59.11341905593872" lon="30.49656629562378"><time>2026-08-20T06:31:07.000Z</time><extensions/></trkpt><trkpt lat="59.11341905593872" lon="30.496459007263184"><time>2026-08-20T06:31:10.000Z</time><extensions/></trkpt><trkpt lat="59.11341905593872" lon="30.496351718902588"><time>2026-08-20T06:31:12.000Z</time><extensions/></trkpt><trkpt lat="59.11346197128296" lon="30.49630880355835"><time>2026-08-20T06:31:15.000Z</time><extensions/></trkpt><trkpt lat="59.11346197128296" lon="30.49630880355835"><time>2026-08-20T06:31:17.000Z</time><extensions/></trkpt><trkpt lat="59.11341905593872" lon="30.496222972869873"><time>2026-08-20T06:31:40.000Z</time><extensions/></trkpt><trkpt lat="59.11337614059448" lon="30.496137142181396"><time>2026-08-20T06:31:42.000Z</time><extensions/></trkpt><trkpt lat="59.113333225250244" lon="30.4960298538208"><time>2026-08-20T06:31:45.000Z</time><extensions/></trkpt><trkpt lat="59.113290309906006" lon="30.495986938476562"><time>2026-08-20T06:31:47.000Z</time><extensions/></trkpt><trkpt lat="59.11326885223389" lon="30.495922565460205"><time>2026-08-20T06:31:50.000Z</time><extensions/></trkpt><trkpt lat="59.113290309906006" lon="30.495879650115967"><time>2026-08-20T06:31:52.000Z</time><extensions/></trkpt><trkpt lat="59.113290309906006" lon="30.495858192443848"><time>2026-08-20T06:31:55.000Z</time><extensions/></trkpt><trkpt lat="59.113290309906006" lon="30.495901107788086"><time>2026-08-20T06:31:57.000Z</time><extensions/></trkpt><trkpt lat="59.113311767578125" lon="30.495879650115967"><time>2026-08-20T06:32:00.000Z</time><extensions/></trkpt><trkpt lat="59.113333225250244" lon="30.49579381942749"><time>2026-08-20T06:32:22.000Z</time><extensions/></trkpt><trkpt lat="59.113311767578125" lon="30.495729446411133"><time>2026-08-20T06:32:25.000Z</time><extensions/></trkpt><trkpt lat="59.11326885223389" lon="30.495750904083252"><time>2026-08-20T06:32:30.000Z</time><extensions/></trkpt><trkpt lat="59.11326885223389" lon="30.49583673477173"><time>2026-08-20T06:32:32.000Z</time><extensions/></trkpt><trkpt lat="59.11326885223389" lon="30.495665073394775"><time>2026-08-20T06:32:40.000Z</time><extensions/></trkpt><trkpt lat="59.113290309906006" lon="30.495622158050537"><time>2026-08-20T06:32:42.000Z</time><extensions/></trkpt><trkpt lat="59.113290309906006" lon="30.49553632736206"><time>2026-08-20T06:32:57.000Z</time><extensions/></trkpt><trkpt lat="59.113290309906006" lon="30.495493412017822"><time>2026-08-20T06:33:00.000Z</time><extensions/></trkpt><trkpt lat="59.113333225250244" lon="30.495493412017822"><time>2026-08-20T06:33:02.000Z</time><extensions/></trkpt><trkpt lat="59.11337614059448" lon="30.495493412017822"><time>2026-08-20T06:33:05.000Z</time><extensions/></trkpt><trkpt lat="59.113333225250244" lon="30.495364665985107"><time>2026-08-20T06:33:15.000Z</time><extensions/></trkpt><trkpt lat="59.113290309906006" lon="30.495214462280273"><time>2026-08-20T06:33:22.000Z</time><extensions/></trkpt><trkpt lat="59.11320447921753" lon="30.495128631591797"><time>2026-08-20T06:33:27.000Z</time><extensions/></trkpt><trkpt lat="59.11316156387329" lon="30.49506425857544"><time>2026-08-20T06:33:40.000Z</time><extensions/></trkpt><trkpt lat="59.11314010620117" lon="30.49504280090332"><time>2026-08-20T06:34:02.000Z</time><extensions/></trkpt><trkpt lat="59.11314010620117" lon="30.494956970214844"><time>2026-08-20T06:34:05.000Z</time><extensions/></trkpt><trkpt lat="59.11314010620117" lon="30.494892597198486"><time>2026-08-20T06:34:07.000Z</time><extensions/></trkpt><trkpt lat="59.11318302154541" lon="30.494871139526367"><time>2026-08-20T06:34:10.000Z</time><extensions/></trkpt><trkpt lat="59.11320447921753" lon="30.494892597198486"><time>2026-08-20T06:34:12.000Z</time><extensions/></trkpt><trkpt lat="59.11320447921753" lon="30.494935512542725"><time>2026-08-20T06:34:15.000Z</time><extensions/></trkpt><trkpt lat="59.11318302154541" lon="30.494999885559082"><time>2026-08-20T06:34:17.000Z</time><extensions/></trkpt><trkpt lat="59.11320447921753" lon="30.49504280090332"><time>2026-08-20T06:34:20.000Z</time><extensions/></trkpt><trkpt lat="59.11320447921753" lon="30.4950213432312"><time>2026-08-20T06:34:22.000Z</time><extensions/></trkpt><trkpt lat="59.11320447921753" lon="30.49478530883789"><time>2026-08-20T06:34:35.000Z</time><extensions/></trkpt><trkpt lat="59.11318302154541" lon="30.494720935821533"><time>2026-08-20T06:34:37.000Z</time><extensions/></trkpt><trkpt lat="59.11314010620117" lon="30.494699478149414"><time>2026-08-20T06:34:42.000Z</time><extensions/></trkpt><trkpt lat="59.113075733184814" lon="30.494720935821533"><time>2026-08-20T06:34:45.000Z</time><extensions/></trkpt><trkpt lat="59.113032817840576" lon="30.49476385116577"><time>2026-08-20T06:34:47.000Z</time><extensions/></trkpt><trkpt lat="59.113032817840576" lon="30.49478530883789"><time>2026-08-20T06:34:50.000Z</time><extensions/></trkpt><trkpt lat="59.113054275512695" lon="30.49482822418213"><time>2026-08-20T06:34:52.000Z</time><extensions/></trkpt><trkpt lat="59.11311864852905" lon="30.49478530883789"><time>2026-08-20T06:34:55.000Z</time><extensions/></trkpt><trkpt lat="59.11316156387329" lon="30.494699478149414"><time>2026-08-20T06:34:57.000Z</time><extensions/></trkpt><trkpt lat="59.11318302154541" lon="30.49459218978882"><time>2026-08-20T06:35:00.000Z</time><extensions/></trkpt><trkpt lat="59.113290309906006" lon="30.494441986083984"><time>2026-08-20T06:35:07.000Z</time><extensions/></trkpt><trkpt lat="59.113333225250244" lon="30.494441986083984"><time>2026-08-20T06:35:10.000Z</time><extensions/></trkpt><trkpt lat="59.11335468292236" lon="30.494463443756104"><time>2026-08-20T06:35:12.000Z</time><extensions/></trkpt><trkpt lat="59.11335468292236" lon="30.4945707321167"><time>2026-08-20T06:35:15.000Z</time><extensions/></trkpt><trkpt lat="59.11335468292236" lon="30.494678020477295"><time>2026-08-20T06:35:17.000Z</time><extensions/></trkpt><trkpt lat="59.11337614059448" lon="30.494720935821533"><time>2026-08-20T06:35:20.000Z</time><extensions/></trkpt><trkpt lat="59.11344051361084" lon="30.494699478149414"><time>2026-08-20T06:35:22.000Z</time><extensions/></trkpt><trkpt lat="59.11344051361084" lon="30.494742393493652"><time>2026-08-20T06:35:25.000Z</time><extensions/></trkpt><trkpt lat="59.11344051361084" lon="30.49482822418213"><time>2026-08-20T06:35:27.000Z</time><extensions/></trkpt><trkpt lat="59.11346197128296" lon="30.494914054870605"><time>2026-08-20T06:35:30.000Z</time><extensions/></trkpt><trkpt lat="59.11348342895508" lon="30.494871139526367"><time>2026-08-20T06:35:32.000Z</time><extensions/></trkpt><trkpt lat="59.1135048866272" lon="30.494871139526367"><time>2026-08-20T06:35:35.000Z</time><extensions/></trkpt><trkpt lat="59.113526344299316" lon="30.494849681854248"><time>2026-08-20T06:35:40.000Z</time><extensions/></trkpt><trkpt lat="59.113547801971436" lon="30.494849681854248"><time>2026-08-20T06:35:42.000Z</time><extensions/></trkpt><trkpt lat="59.113526344299316" lon="30.494914054870605"><time>2026-08-20T06:35:45.000Z</time><extensions/></trkpt><trkpt lat="59.113547801971436" lon="30.494871139526367"><time>2026-08-20T06:35:47.000Z</time><extensions/></trkpt><trkpt lat="59.113590717315674" lon="30.494678020477295"><time>2026-08-20T06:36:02.000Z</time><extensions/></trkpt><trkpt lat="59.113590717315674" lon="30.49476385116577"><time>2026-08-20T06:36:07.000Z</time><extensions/></trkpt><trkpt lat="59.113569259643555" lon="30.494656562805176"><time>2026-08-20T06:36:15.000Z</time><extensions/></trkpt><trkpt lat="59.113569259643555" lon="30.49454927444458"><time>2026-08-20T06:36:22.000Z</time><extensions/></trkpt><trkpt lat="59.113590717315674" lon="30.494484901428223"><time>2026-08-20T06:36:25.000Z</time><extensions/></trkpt><trkpt lat="59.113590717315674" lon="30.49452781677246"><time>2026-08-20T06:36:30.000Z</time><extensions/></trkpt><trkpt lat="59.113590717315674" lon="30.49459218978882"><time>2026-08-20T06:36:32.000Z</time><extensions/></trkpt><trkpt lat="59.113590717315674" lon="30.494720935821533"><time>2026-08-20T06:36:35.000Z</time><extensions/></trkpt><trkpt lat="59.113547801971436" lon="30.494742393493652"><time>2026-08-20T06:36:37.000Z</time><extensions/></trkpt><trkpt lat="59.113526344299316" lon="30.494635105133057"><time>2026-08-20T06:36:40.000Z</time><extensions/></trkpt><trkpt lat="59.1135048866272" lon="30.4945707321167"><time>2026-08-20T06:36:42.000Z</time><extensions/></trkpt><trkpt lat="59.11346197128296" lon="30.494463443756104"><time>2026-08-20T06:36:47.000Z</time><extensions/></trkpt><trkpt lat="59.113526344299316" lon="30.494356155395508"><time>2026-08-20T06:36:52.000Z</time><extensions/></trkpt><trkpt lat="59.113547801971436" lon="30.49429178237915"><time>2026-08-20T06:36:55.000Z</time><extensions/></trkpt><trkpt lat="59.113547801971436" lon="30.494205951690674"><time>2026-08-20T06:36:57.000Z</time><extensions/></trkpt><trkpt lat="59.113526344299316" lon="30.494141578674316"><time>2026-08-20T06:37:00.000Z</time><extensions/></trkpt><trkpt lat="59.113526344299316" lon="30.494141578674316"><time>2026-08-20T06:37:05.000Z</time><extensions/></trkpt><trkpt lat="59.113547801971436" lon="30.494227409362793"><time>2026-08-20T06:37:07.000Z</time><extensions/></trkpt><trkpt lat="59.113526344299316" lon="30.49427032470703"><time>2026-08-20T06:37:12.000Z</time><extensions/></trkpt><trkpt lat="59.11348342895508" lon="30.494227409362793"><time>2026-08-20T06:37:22.000Z</time><extensions/></trkpt><trkpt lat="59.11344051361084" lon="30.494120121002197"><time>2026-08-20T06:37:25.000Z</time><extensions/></trkpt><trkpt lat="59.11344051361084" lon="30.494098663330078"><time>2026-08-20T06:37:27.000Z</time><extensions/></trkpt><trkpt lat="59.11341905593872" lon="30.494141578674316"><time>2026-08-20T06:37:30.000Z</time><extensions/></trkpt><trkpt lat="59.11341905593872" lon="30.494227409362793"><time>2026-08-20T06:37:32.000Z</time><extensions/></trkpt><trkpt lat="59.1133975982666" lon="30.494227409362793"><time>2026-08-20T06:37:35.000Z</time><extensions/></trkpt><trkpt lat="59.11335468292236" lon="30.494184494018555"><time>2026-08-20T06:37:37.000Z</time><extensions/></trkpt><trkpt lat="59.11326885223389" lon="30.49407720565796"><time>2026-08-20T06:37:42.000Z</time><extensions/></trkpt><trkpt lat="59.11324739456177" lon="30.4940128326416"><time>2026-08-20T06:37:47.000Z</time><extensions/></trkpt><trkpt lat="59.11324739456177" lon="30.4940128326416"><time>2026-08-20T06:37:50.000Z</time><extensions/></trkpt><trkpt lat="59.11326885223389" lon="30.493969917297363"><time>2026-08-20T06:38:00.000Z</time><extensions/></trkpt><trkpt lat="59.113311767578125" lon="30.493948459625244"><time>2026-08-20T06:38:02.000Z</time><extensions/></trkpt><trkpt lat="59.11335468292236" lon="30.493969917297363"><time>2026-08-20T06:38:05.000Z</time><extensions/></trkpt><trkpt lat="59.1133975982666" lon="30.493884086608887"><time>2026-08-20T06:38:10.000Z</time><extensions/></trkpt><trkpt lat="59.11337614059448" lon="30.49381971359253"><time>2026-08-20T06:38:12.000Z</time><extensions/></trkpt><trkpt lat="59.11337614059448" lon="30.49377679824829"><time>2026-08-20T06:38:15.000Z</time><extensions/></trkpt><trkpt lat="59.1133975982666" lon="30.493690967559814"><time>2026-08-20T06:38:17.000Z</time><extensions/></trkpt><trkpt lat="59.11341905593872" lon="30.493626594543457"><time>2026-08-20T06:38:20.000Z</time><extensions/></trkpt><trkpt lat="59.11341905593872" lon="30.4935622215271"><time>2026-08-20T06:38:22.000Z</time><extensions/></trkpt><trkpt lat="59.11344051361084" lon="30.49354076385498"><time>2026-08-20T06:38:25.000Z</time><extensions/></trkpt><trkpt lat="59.11346197128296" lon="30.4935622215271"><time>2026-08-20T06:38:27.000Z</time><extensions/></trkpt><trkpt lat="59.11344051361084" lon="30.493605136871338"><time>2026-08-20T06:38:30.000Z</time><extensions/></trkpt><trkpt lat="59.11341905593872" lon="30.493648052215576"><time>2026-08-20T06:38:32.000Z</time><extensions/></trkpt><trkpt lat="59.11341905593872" lon="30.493733882904053"><time>2026-08-20T06:38:35.000Z</time><extensions/></trkpt><trkpt lat="59.11341905593872" lon="30.49377679824829"><time>2026-08-20T06:38:37.000Z</time><extensions/></trkpt><trkpt lat="59.11344051361084" lon="30.493755340576172"><time>2026-08-20T06:38:40.000Z</time><extensions/></trkpt><trkpt lat="59.11346197128296" lon="30.493690967559814"><time>2026-08-20T06:38:42.000Z</time><extensions/></trkpt><trkpt lat="59.11348342895508" lon="30.493648052215576"><time>2026-08-20T06:38:45.000Z</time><extensions/></trkpt><trkpt lat="59.11346197128296" lon="30.493690967559814"><time>2026-08-20T06:38:47.000Z</time><extensions/></trkpt><trkpt lat="59.11341905593872" lon="30.493690967559814"><time>2026-08-20T06:38:50.000Z</time><extensions/></trkpt><trkpt lat="59.1133975982666" lon="30.493712425231934"><time>2026-08-20T06:38:52.000Z</time><extensions/></trkpt><trkpt lat="59.1133975982666" lon="30.493669509887695"><time>2026-08-20T06:38:55.000Z</time><extensions/></trkpt><trkpt lat="59.1133975982666" lon="30.49358367919922"><time>2026-08-20T06:39:15.000Z</time><extensions/></trkpt><trkpt lat="59.11341905593872" lon="30.493476390838623"><time>2026-08-20T06:39:17.000Z</time><extensions/></trkpt><trkpt lat="59.1133975982666" lon="30.493390560150146"><time>2026-08-20T06:39:20.000Z</time><extensions/></trkpt><trkpt lat="59.1133975982666" lon="30.49330472946167"><time>2026-08-20T06:39:22.000Z</time><extensions/></trkpt><trkpt lat="59.11341905593872" lon="30.49330472946167"><time>2026-08-20T06:39:25.000Z</time><extensions/></trkpt><trkpt lat="59.11344051361084" lon="30.49332618713379"><time>2026-08-20T06:39:27.000Z</time><extensions/></trkpt><trkpt lat="59.11344051361084" lon="30.493369102478027"><time>2026-08-20T06:39:52.000Z</time><extensions/></trkpt><trkpt lat="59.11346197128296" lon="30.49332618713379"><time>2026-08-20T06:39:55.000Z</time><extensions/></trkpt><trkpt lat="59.11346197128296" lon="30.49330472946167"><time>2026-08-20T06:39:57.000Z</time><extensions/></trkpt><trkpt lat="59.11346197128296" lon="30.49328327178955"><time>2026-08-20T06:40:00.000Z</time><extensions/></trkpt><trkpt lat="59.11341905593872" lon="30.493197441101074"><time>2026-08-20T06:40:05.000Z</time><extensions/></trkpt><trkpt lat="59.11335468292236" lon="30.493240356445312"><time>2026-08-20T06:40:12.000Z</time><extensions/></trkpt><trkpt lat="59.11335468292236" lon="30.49326181411743"><time>2026-08-20T06:40:15.000Z</time><extensions/></trkpt><trkpt lat="59.11335468292236" lon="30.49326181411743"><time>2026-08-20T06:40:20.000Z</time><extensions/></trkpt><trkpt lat="59.113311767578125" lon="30.49326181411743"><time>2026-08-20T06:40:35.000Z</time><extensions/></trkpt><trkpt lat="59.113290309906006" lon="30.493240356445312"><time>2026-08-20T06:40:47.000Z</time><extensions/></trkpt><trkpt lat="59.11324739456177" lon="30.493175983428955"><time>2026-08-20T06:40:50.000Z</time><extensions/></trkpt><trkpt lat="59.11322593688965" lon="30.493133068084717"><time>2026-08-20T06:40:52.000Z</time><extensions/></trkpt><trkpt lat="59.11318302154541" lon="30.493154525756836"><time>2026-08-20T06:40:55.000Z</time><extensions/></trkpt><trkpt lat="59.11314010620117" lon="30.493133068084717"><time>2026-08-20T06:40:57.000Z</time><extensions/></trkpt><trkpt lat="59.11314010620117" lon="30.493175983428955"><time>2026-08-20T06:41:00.000Z</time><extensions/></trkpt><trkpt lat="59.11316156387329" lon="30.493197441101074"><time>2026-08-20T06:41:02.000Z</time><extensions/></trkpt><trkpt lat="59.11322593688965" lon="30.493218898773193"><time>2026-08-20T06:41:05.000Z</time><extensions/></trkpt><trkpt lat="59.11326885223389" lon="30.493218898773193"><time>2026-08-20T06:41:07.000Z</time><extensions/></trkpt><trkpt lat="59.113290309906006" lon="30.493133068084717"><time>2026-08-20T06:41:10.000Z</time><extensions/></trkpt><trkpt lat="59.113333225250244" lon="30.49306869506836"><time>2026-08-20T06:41:12.000Z</time><extensions/></trkpt><trkpt lat="59.11337614059448" lon="30.49302577972412"><time>2026-08-20T06:41:20.000Z</time><extensions/></trkpt><trkpt lat="59.11337614059448" lon="30.492961406707764"><time>2026-08-20T06:41:22.000Z</time><extensions/></trkpt><trkpt lat="59.11337614059448" lon="30.492897033691406"><time>2026-08-20T06:41:25.000Z</time><extensions/></trkpt><trkpt lat="59.1133975982666" lon="30.492875576019287"><time>2026-08-20T06:41:27.000Z</time><extensions/></trkpt><trkpt lat="59.1133975982666" lon="30.492746829986572"><time>2026-08-20T06:41:40.000Z</time><extensions/></trkpt><trkpt lat="59.11344051361084" lon="30.492682456970215"><time>2026-08-20T06:41:42.000Z</time><extensions/></trkpt><trkpt lat="59.11344051361084" lon="30.492639541625977"><time>2026-08-20T06:41:45.000Z</time><extensions/></trkpt><trkpt lat="59.11341905593872" lon="30.49253225326538"><time>2026-08-20T06:41:47.000Z</time><extensions/></trkpt><trkpt lat="59.1133975982666" lon="30.492446422576904"><time>2026-08-20T06:41:50.000Z</time><extensions/></trkpt><trkpt lat="59.11335468292236" lon="30.49251079559326"><time>2026-08-20T06:42:07.000Z</time><extensions/></trkpt><trkpt lat="59.11335468292236" lon="30.49257516860962"><time>2026-08-20T06:42:10.000Z</time><extensions/></trkpt><trkpt lat="59.11335468292236" lon="30.492660999298096"><time>2026-08-20T06:42:12.000Z</time><extensions/></trkpt><trkpt lat="59.11335468292236" lon="30.492725372314453"><time>2026-08-20T06:42:15.000Z</time><extensions/></trkpt><trkpt lat="59.11335468292236" lon="30.492703914642334"><time>2026-08-20T06:42:22.000Z</time><extensions/></trkpt><trkpt lat="59.11344051361084" lon="30.492639541625977"><time>2026-08-20T06:42:25.000Z</time><extensions/></trkpt><trkpt lat="59.1135048866272" lon="30.49257516860962"><time>2026-08-20T06:42:27.000Z</time><extensions/></trkpt><trkpt lat="59.1135048866272" lon="30.492489337921143"><time>2026-08-20T06:42:30.000Z</time><extensions/></trkpt><trkpt lat="59.11344051361084" lon="30.492446422576904"><time>2026-08-20T06:42:32.000Z</time><extensions/></trkpt><trkpt lat="59.11337614059448" lon="30.492403507232666"><time>2026-08-20T06:42:35.000Z</time><extensions/></trkpt><trkpt lat="59.113311767578125" lon="30.49233913421631"><time>2026-08-20T06:42:37.000Z</time><extensions/></trkpt><trkpt lat="59.11326885223389" lon="30.492253303527832"><time>2026-08-20T06:42:40.000Z</time><extensions/></trkpt><trkpt lat="59.113290309906006" lon="30.492188930511475"><time>2026-08-20T06:42:42.000Z</time><extensions/></trkpt><trkpt lat="59.113333225250244" lon="30.492167472839355"><time>2026-08-20T06:42:45.000Z</time><extensions/></trkpt><trkpt lat="59.11337614059448" lon="30.492124557495117"><time>2026-08-20T06:42:47.000Z</time><extensions/></trkpt><trkpt lat="59.1133975982666" lon="30.492103099822998"><time>2026-08-20T06:42:50.000Z</time><extensions/></trkpt><trkpt lat="59.113333225250244" lon="30.492124557495117"><time>2026-08-20T06:42:52.000Z</time><extensions/></trkpt><trkpt lat="59.11335468292236" lon="30.49203872680664"><time>2026-08-20T06:42:55.000Z</time><extensions/></trkpt><trkpt lat="59.11337614059448" lon="30.49203872680664"><time>2026-08-20T06:42:57.000Z</time><extensions/></trkpt><trkpt lat="59.11335468292236" lon="30.49208164215088"><time>2026-08-20T06:43:00.000Z</time><extensions/></trkpt><trkpt lat="59.11335468292236" lon="30.491995811462402"><time>2026-08-20T06:43:10.000Z</time><extensions/></trkpt><trkpt lat="59.11337614059448" lon="30.491952896118164"><time>2026-08-20T06:43:12.000Z</time><extensions/></trkpt><trkpt lat="59.113333225250244" lon="30.491974353790283"><time>2026-08-20T06:43:15.000Z</time><extensions/></trkpt><trkpt lat="59.113290309906006" lon="30.491974353790283"><time>2026-08-20T06:43:17.000Z</time><extensions/></trkpt><trkpt lat="59.11322593688965" lon="30.491995811462402"><time>2026-08-20T06:43:20.000Z</time><extensions/></trkpt><trkpt lat="59.11318302154541" lon="30.491974353790283"><time>2026-08-20T06:43:22.000Z</time><extensions/></trkpt><trkpt lat="59.11320447921753" lon="30.492146015167236"><time>2026-08-20T06:43:27.000Z</time><extensions/></trkpt><trkpt lat="59.11324739456177" lon="30.492210388183594"><time>2026-08-20T06:43:30.000Z</time><extensions/></trkpt><trkpt lat="59.11322593688965" lon="30.49231767654419"><time>2026-08-20T06:43:32.000Z</time><extensions/></trkpt><trkpt lat="59.11318302154541" lon="30.49233913421631"><time>2026-08-20T06:43:37.000Z</time><extensions/></trkpt><trkpt lat="59.11311864852905" lon="30.49233913421631"><time>2026-08-20T06:43:40.000Z</time><extensions/></trkpt><trkpt lat="59.113075733184814" lon="30.49233913421631"><time>2026-08-20T06:43:42.000Z</time><extensions/></trkpt><trkpt lat="59.11301136016846" lon="30.49233913421631"><time>2026-08-20T06:43:55.000Z</time><extensions/></trkpt><trkpt lat="59.113032817840576" lon="30.49229621887207"><time>2026-08-20T06:44:00.000Z</time><extensions/></trkpt><trkpt lat="59.113032817840576" lon="30.492210388183594"><time>2026-08-20T06:44:02.000Z</time><extensions/></trkpt><trkpt lat="59.11301136016846" lon="30.492146015167236"><time>2026-08-20T06:44:05.000Z</time><extensions/></trkpt><trkpt lat="59.11298990249634" lon="30.49206018447876"><time>2026-08-20T06:44:07.000Z</time><extensions/></trkpt><trkpt lat="59.11301136016846" lon="30.491995811462402"><time>2026-08-20T06:44:10.000Z</time><extensions/></trkpt><trkpt lat="59.11298990249634" lon="30.491952896118164"><time>2026-08-20T06:44:12.000Z</time><extensions/></trkpt><trkpt lat="59.11296844482422" lon="30.491867065429688"><time>2026-08-20T06:44:15.000Z</time><extensions/></trkpt><trkpt lat="59.11301136016846" lon="30.491931438446045"><time>2026-08-20T06:44:20.000Z</time><extensions/></trkpt><trkpt lat="59.11296844482422" lon="30.491995811462402"><time>2026-08-20T06:44:22.000Z</time><extensions/></trkpt><trkpt lat="59.11301136016846" lon="30.49203872680664"><time>2026-08-20T06:44:25.000Z</time><extensions/></trkpt><trkpt lat="59.113032817840576" lon="30.492146015167236"><time>2026-08-20T06:44:27.000Z</time><extensions/></trkpt><trkpt lat="59.113032817840576" lon="30.492253303527832"><time>2026-08-20T06:44:30.000Z</time><extensions/></trkpt><trkpt lat="59.11301136016846" lon="30.49227476119995"><time>2026-08-20T06:44:32.000Z</time><extensions/></trkpt><trkpt lat="59.1129469871521" lon="30.49227476119995"><time>2026-08-20T06:44:35.000Z</time><extensions/></trkpt><trkpt lat="59.11288261413574" lon="30.49231767654419"><time>2026-08-20T06:44:37.000Z</time><extensions/></trkpt><trkpt lat="59.112818241119385" lon="30.49229621887207"><time>2026-08-20T06:44:40.000Z</time><extensions/></trkpt><trkpt lat="59.11273241043091" lon="30.49231767654419"><time>2026-08-20T06:44:42.000Z</time><extensions/></trkpt><trkpt lat="59.11271095275879" lon="30.492360591888428"><time>2026-08-20T06:44:45.000Z</time><extensions/></trkpt><trkpt lat="59.11271095275879" lon="30.492446422576904"><time>2026-08-20T06:44:47.000Z</time><extensions/></trkpt><trkpt lat="59.11268949508667" lon="30.492467880249023"><time>2026-08-20T06:44:50.000Z</time><extensions/></trkpt><trkpt lat="59.11264657974243" lon="30.492446422576904"><time>2026-08-20T06:44:52.000Z</time><extensions/></trkpt><trkpt lat="59.11262512207031" lon="30.492446422576904"><time>2026-08-20T06:44:55.000Z</time><extensions/></trkpt><trkpt lat="59.11260366439819" lon="30.492382049560547"><time>2026-08-20T06:44:57.000Z</time><extensions/></trkpt><trkpt lat="59.112560749053955" lon="30.49231767654419"><time>2026-08-20T06:45:00.000Z</time><extensions/></trkpt><trkpt lat="59.1124963760376" lon="30.492253303527832"><time>2026-08-20T06:45:02.000Z</time><extensions/></trkpt><trkpt lat="59.11247491836548" lon="30.492253303527832"><time>2026-08-20T06:45:05.000Z</time><extensions/></trkpt><trkpt lat="59.11247491836548" lon="30.492210388183594"><time>2026-08-20T06:45:07.000Z</time><extensions/></trkpt><trkpt lat="59.11247491836548" lon="30.492146015167236"><time>2026-08-20T06:45:10.000Z</time><extensions/></trkpt><trkpt lat="59.11247491836548" lon="30.492103099822998"><time>2026-08-20T06:45:12.000Z</time><extensions/></trkpt><trkpt lat="59.11247491836548" lon="30.49201726913452"><time>2026-08-20T06:45:17.000Z</time><extensions/></trkpt><trkpt lat="59.11245346069336" lon="30.491888523101807"><time>2026-08-20T06:45:20.000Z</time><extensions/></trkpt><trkpt lat="59.11241054534912" lon="30.49178123474121"><time>2026-08-20T06:45:22.000Z</time><extensions/></trkpt><trkpt lat="59.112303256988525" lon="30.491652488708496"><time>2026-08-20T06:45:25.000Z</time><extensions/></trkpt><trkpt lat="59.112303256988525" lon="30.4915452003479"><time>2026-08-20T06:45:27.000Z</time><extensions/></trkpt><trkpt lat="59.11236763000488" lon="30.491502285003662"><time>2026-08-20T06:45:30.000Z</time><extensions/></trkpt><trkpt lat="59.11241054534912" lon="30.49152374267578"><time>2026-08-20T06:45:32.000Z</time><extensions/></trkpt><trkpt lat="59.112324714660645" lon="30.491480827331543"><time>2026-08-20T06:45:37.000Z</time><extensions/></trkpt><trkpt lat="59.112303256988525" lon="30.49156665802002"><time>2026-08-20T06:45:40.000Z</time><extensions/></trkpt><trkpt lat="59.11223888397217" lon="30.491652488708496"><time>2026-08-20T06:45:42.000Z</time><extensions/></trkpt><trkpt lat="59.11213159561157" lon="30.491716861724854"><time>2026-08-20T06:45:45.000Z</time><extensions/></trkpt><trkpt lat="59.112088680267334" lon="30.49184560775757"><time>2026-08-20T06:45:47.000Z</time><extensions/></trkpt><trkpt lat="59.112088680267334" lon="30.491931438446045"><time>2026-08-20T06:45:50.000Z</time><extensions/></trkpt><trkpt lat="59.11198139190674" lon="30.491952896118164"><time>2026-08-20T06:45:57.000Z</time><extensions/></trkpt><trkpt lat="59.11202430725098" lon="30.49203872680664"><time>2026-08-20T06:46:02.000Z</time><extensions/></trkpt><trkpt lat="59.112088680267334" lon="30.491995811462402"><time>2026-08-20T06:46:05.000Z</time><extensions/></trkpt><trkpt lat="59.11217451095581" lon="30.491931438446045"><time>2026-08-20T06:46:07.000Z</time><extensions/></trkpt><trkpt lat="59.11221742630005" lon="30.491995811462402"><time>2026-08-20T06:46:10.000Z</time><extensions/></trkpt><trkpt lat="59.11226034164429" lon="30.49206018447876"><time>2026-08-20T06:46:12.000Z</time><extensions/></trkpt><trkpt lat="59.112324714660645" lon="30.49206018447876"><time>2026-08-20T06:46:15.000Z</time><extensions/></trkpt><trkpt lat="59.11241054534912" lon="30.49203872680664"><time>2026-08-20T06:46:17.000Z</time><extensions/></trkpt><trkpt lat="59.112539291381836" lon="30.49203872680664"><time>2026-08-20T06:46:20.000Z</time><extensions/></trkpt><trkpt lat="59.11262512207031" lon="30.49206018447876"><time>2026-08-20T06:46:22.000Z</time><extensions/></trkpt><trkpt lat="59.11268949508667" lon="30.492188930511475"><time>2026-08-20T06:46:25.000Z</time><extensions/></trkpt><trkpt lat="59.11271095275879" lon="30.49229621887207"><time>2026-08-20T06:46:27.000Z</time><extensions/></trkpt><trkpt lat="59.11271095275879" lon="30.49233913421631"><time>2026-08-20T06:46:30.000Z</time><extensions/></trkpt><trkpt lat="59.11271095275879" lon="30.49231767654419"><time>2026-08-20T06:46:32.000Z</time><extensions/></trkpt><trkpt lat="59.11268949508667" lon="30.492360591888428"><time>2026-08-20T06:46:40.000Z</time><extensions/></trkpt><trkpt lat="59.11268949508667" lon="30.492424964904785"><time>2026-08-20T06:46:50.000Z</time><extensions/></trkpt><trkpt lat="59.11266803741455" lon="30.492467880249023"><time>2026-08-20T06:46:52.000Z</time><extensions/></trkpt><trkpt lat="59.11264657974243" lon="30.492382049560547"><time>2026-08-20T06:47:12.000Z</time><extensions/></trkpt><trkpt lat="59.11262512207031" lon="30.492424964904785"><time>2026-08-20T06:47:15.000Z</time><extensions/></trkpt><trkpt lat="59.112582206726074" lon="30.492424964904785"><time>2026-08-20T06:47:20.000Z</time><extensions/></trkpt><trkpt lat="59.112582206726074" lon="30.492382049560547"><time>2026-08-20T06:47:22.000Z</time><extensions/></trkpt><trkpt lat="59.112582206726074" lon="30.49231767654419"><time>2026-08-20T06:47:25.000Z</time><extensions/></trkpt><trkpt lat="59.112582206726074" lon="30.492253303527832"><time>2026-08-20T06:47:27.000Z</time><extensions/></trkpt><trkpt lat="59.11260366439819" lon="30.492253303527832"><time>2026-08-20T06:47:30.000Z</time><extensions/></trkpt><trkpt lat="59.11260366439819" lon="30.49229621887207"><time>2026-08-20T06:47:32.000Z</time><extensions/></trkpt><trkpt lat="59.11260366439819" lon="30.492188930511475"><time>2026-08-20T06:47:37.000Z</time><extensions/></trkpt><trkpt lat="59.112560749053955" lon="30.492124557495117"><time>2026-08-20T06:47:40.000Z</time><extensions/></trkpt><trkpt lat="59.112539291381836" lon="30.492124557495117"><time>2026-08-20T06:47:42.000Z</time><extensions/></trkpt><trkpt lat="59.112539291381836" lon="30.492146015167236"><time>2026-08-20T06:47:50.000Z</time><extensions/></trkpt><trkpt lat="59.112560749053955" lon="30.492231845855713"><time>2026-08-20T06:47:52.000Z</time><extensions/></trkpt><trkpt lat="59.112560749053955" lon="30.49231767654419"><time>2026-08-20T06:47:55.000Z</time><extensions/></trkpt><trkpt lat="59.112560749053955" lon="30.49231767654419"><time>2026-08-20T06:48:10.000Z</time><extensions/></trkpt><trkpt lat="59.112539291381836" lon="30.49231767654419"><time>2026-08-20T06:48:37.000Z</time><extensions/></trkpt><trkpt lat="59.11251783370972" lon="30.49229621887207"><time>2026-08-20T06:48:40.000Z</time><extensions/></trkpt><trkpt lat="59.11243200302124" lon="30.49227476119995"><time>2026-08-20T06:48:45.000Z</time><extensions/></trkpt><trkpt lat="59.11241054534912" lon="30.492210388183594"><time>2026-08-20T06:48:47.000Z</time><extensions/></trkpt><trkpt lat="59.112346172332764" lon="30.492188930511475"><time>2026-08-20T06:48:52.000Z</time><extensions/></trkpt><trkpt lat="59.11226034164429" lon="30.492188930511475"><time>2026-08-20T06:48:55.000Z</time><extensions/></trkpt><trkpt lat="59.11221742630005" lon="30.492210388183594"><time>2026-08-20T06:48:57.000Z</time><extensions/></trkpt><trkpt lat="59.11215305328369" lon="30.492210388183594"><time>2026-08-20T06:49:00.000Z</time><extensions/></trkpt><trkpt lat="59.112067222595215" lon="30.492210388183594"><time>2026-08-20T06:49:02.000Z</time><extensions/></trkpt><trkpt lat="59.11198139190674" lon="30.492188930511475"><time>2026-08-20T06:49:05.000Z</time><extensions/></trkpt><trkpt lat="59.11195993423462" lon="30.492103099822998"><time>2026-08-20T06:49:07.000Z</time><extensions/></trkpt><trkpt lat="59.11187410354614" lon="30.49208164215088"><time>2026-08-20T06:49:10.000Z</time><extensions/></trkpt><trkpt lat="59.111809730529785" lon="30.49208164215088"><time>2026-08-20T06:49:12.000Z</time><extensions/></trkpt><trkpt lat="59.11174535751343" lon="30.492124557495117"><time>2026-08-20T06:49:15.000Z</time><extensions/></trkpt><trkpt lat="59.11172389984131" lon="30.492146015167236"><time>2026-08-20T06:49:17.000Z</time><extensions/></trkpt><trkpt lat="59.11174535751343" lon="30.492188930511475"><time>2026-08-20T06:49:20.000Z</time><extensions/></trkpt><trkpt lat="59.11176681518555" lon="30.492231845855713"><time>2026-08-20T06:49:22.000Z</time><extensions/></trkpt><trkpt lat="59.111831188201904" lon="30.492146015167236"><time>2026-08-20T06:49:25.000Z</time><extensions/></trkpt><trkpt lat="59.11189556121826" lon="30.49206018447876"><time>2026-08-20T06:49:27.000Z</time><extensions/></trkpt><trkpt lat="59.11198139190674" lon="30.49201726913452"><time>2026-08-20T06:49:30.000Z</time><extensions/></trkpt><trkpt lat="59.112067222595215" lon="30.491995811462402"><time>2026-08-20T06:49:32.000Z</time><extensions/></trkpt><trkpt lat="59.11215305328369" lon="30.491931438446045"><time>2026-08-20T06:49:35.000Z</time><extensions/></trkpt><trkpt lat="59.11223888397217" lon="30.491974353790283"><time>2026-08-20T06:49:37.000Z</time><extensions/></trkpt><trkpt lat="59.112303256988525" lon="30.49206018447876"><time>2026-08-20T06:49:40.000Z</time><extensions/></trkpt><trkpt lat="59.112324714660645" lon="30.492146015167236"><time>2026-08-20T06:49:42.000Z</time><extensions/></trkpt><trkpt lat="59.11236763000488" lon="30.49227476119995"><time>2026-08-20T06:49:45.000Z</time><extensions/></trkpt><trkpt lat="59.11243200302124" lon="30.49233913421631"><time>2026-08-20T06:49:47.000Z</time><extensions/></trkpt><trkpt lat="59.1124963760376" lon="30.49231767654419"><time>2026-08-20T06:49:50.000Z</time><extensions/></trkpt><trkpt lat="59.112539291381836" lon="30.492467880249023"><time>2026-08-20T06:49:55.000Z</time><extensions/></trkpt><trkpt lat="59.11264657974243" lon="30.49253225326538"><time>2026-08-20T06:50:07.000Z</time><extensions/></trkpt><trkpt lat="59.11268949508667" lon="30.492489337921143"><time>2026-08-20T06:50:10.000Z</time><extensions/></trkpt><trkpt lat="59.11273241043091" lon="30.492618083953857"><time>2026-08-20T06:50:15.000Z</time><extensions/></trkpt><trkpt lat="59.11273241043091" lon="30.492660999298096"><time>2026-08-20T06:50:17.000Z</time><extensions/></trkpt><trkpt lat="59.11266803741455" lon="30.492660999298096"><time>2026-08-20T06:50:20.000Z</time><extensions/></trkpt><trkpt lat="59.11264657974243" lon="30.492725372314453"><time>2026-08-20T06:50:22.000Z</time><extensions/></trkpt><trkpt lat="59.11262512207031" lon="30.49276828765869"><time>2026-08-20T06:50:25.000Z</time><extensions/></trkpt><trkpt lat="59.11262512207031" lon="30.49281120300293"><time>2026-08-20T06:50:27.000Z</time><extensions/></trkpt><trkpt lat="59.11264657974243" lon="30.49283266067505"><time>2026-08-20T06:50:30.000Z</time><extensions/></trkpt><trkpt lat="59.11266803741455" lon="30.49283266067505"><time>2026-08-20T06:50:32.000Z</time><extensions/></trkpt><trkpt lat="59.11264657974243" lon="30.492897033691406"><time>2026-08-20T06:50:35.000Z</time><extensions/></trkpt><trkpt lat="59.11268949508667" lon="30.492961406707764"><time>2026-08-20T06:50:37.000Z</time><extensions/></trkpt><trkpt lat="59.11271095275879" lon="30.493004322052002"><time>2026-08-20T06:50:40.000Z</time><extensions/></trkpt><trkpt lat="59.11273241043091" lon="30.49302577972412"><time>2026-08-20T06:50:42.000Z</time><extensions/></trkpt><trkpt lat="59.11273241043091" lon="30.49306869506836"><time>2026-08-20T06:50:45.000Z</time><extensions/></trkpt><trkpt lat="59.11266803741455" lon="30.493111610412598"><time>2026-08-20T06:50:50.000Z</time><extensions/></trkpt><trkpt lat="59.11260366439819" lon="30.493111610412598"><time>2026-08-20T06:50:52.000Z</time><extensions/></trkpt><trkpt lat="59.11260366439819" lon="30.493111610412598"><time>2026-08-20T06:50:55.000Z</time><extensions/></trkpt><trkpt lat="59.112582206726074" lon="30.493175983428955"><time>2026-08-20T06:50:57.000Z</time><extensions/></trkpt><trkpt lat="59.11264657974243" lon="30.49328327178955"><time>2026-08-20T06:51:20.000Z</time><extensions/></trkpt><trkpt lat="59.11266803741455" lon="30.493347644805908"><time>2026-08-20T06:51:22.000Z</time><extensions/></trkpt><trkpt lat="59.11260366439819" lon="30.493454933166504"><time>2026-08-20T06:51:25.000Z</time><extensions/></trkpt><trkpt lat="59.112560749053955" lon="30.49354076385498"><time>2026-08-20T06:51:47.000Z</time><extensions/></trkpt><trkpt lat="59.112539291381836" lon="30.493648052215576"><time>2026-08-20T06:51:50.000Z</time><extensions/></trkpt><trkpt lat="59.112560749053955" lon="30.493733882904053"><time>2026-08-20T06:51:52.000Z</time><extensions/></trkpt><trkpt lat="59.112560749053955" lon="30.49381971359253"><time>2026-08-20T06:51:55.000Z</time><extensions/></trkpt><trkpt lat="59.112539291381836" lon="30.49381971359253"><time>2026-08-20T06:51:57.000Z</time><extensions/></trkpt><trkpt lat="59.112560749053955" lon="30.49379825592041"><time>2026-08-20T06:52:00.000Z</time><extensions/></trkpt><trkpt lat="59.112560749053955" lon="30.49379825592041"><time>2026-08-20T06:52:10.000Z</time><extensions/></trkpt><trkpt lat="59.11260366439819" lon="30.49381971359253"><time>2026-08-20T06:52:12.000Z</time><extensions/></trkpt><trkpt lat="59.11264657974243" lon="30.49384117126465"><time>2026-08-20T06:52:15.000Z</time><extensions/></trkpt><trkpt lat="59.11266803741455" lon="30.493862628936768"><time>2026-08-20T06:52:17.000Z</time><extensions/></trkpt><trkpt lat="59.11271095275879" lon="30.493969917297363"><time>2026-08-20T06:52:22.000Z</time><extensions/></trkpt><trkpt lat="59.11271095275879" lon="30.49407720565796"><time>2026-08-20T06:52:25.000Z</time><extensions/></trkpt><trkpt lat="59.11271095275879" lon="30.49403429031372"><time>2026-08-20T06:52:30.000Z</time><extensions/></trkpt><trkpt lat="59.11266803741455" lon="30.49403429031372"><time>2026-08-20T06:52:32.000Z</time><extensions/></trkpt><trkpt lat="59.11264657974243" lon="30.494098663330078"><time>2026-08-20T06:52:35.000Z</time><extensions/></trkpt><trkpt lat="59.11264657974243" lon="30.494184494018555"><time>2026-08-20T06:52:37.000Z</time><extensions/></trkpt><trkpt lat="59.11266803741455" lon="30.494205951690674"><time>2026-08-20T06:52:40.000Z</time><extensions/></trkpt><trkpt lat="59.11268949508667" lon="30.494184494018555"><time>2026-08-20T06:52:42.000Z</time><extensions/></trkpt><trkpt lat="59.11264657974243" lon="30.49427032470703"><time>2026-08-20T06:52:52.000Z</time><extensions/></trkpt><trkpt lat="59.11268949508667" lon="30.494205951690674"><time>2026-08-20T06:53:07.000Z</time><extensions/></trkpt><trkpt lat="59.11275386810303" lon="30.494248867034912"><time>2026-08-20T06:53:10.000Z</time><extensions/></trkpt><trkpt lat="59.11275386810303" lon="30.49433469772339"><time>2026-08-20T06:53:12.000Z</time><extensions/></trkpt><trkpt lat="59.11277532577515" lon="30.494399070739746"><time>2026-08-20T06:53:15.000Z</time><extensions/></trkpt><trkpt lat="59.11277532577515" lon="30.494506359100342"><time>2026-08-20T06:53:17.000Z</time><extensions/></trkpt><trkpt lat="59.11275386810303" lon="30.4945707321167"><time>2026-08-20T06:53:20.000Z</time><extensions/></trkpt><trkpt lat="59.11271095275879" lon="30.494699478149414"><time>2026-08-20T06:53:35.000Z</time><extensions/></trkpt><trkpt lat="59.11271095275879" lon="30.494742393493652"><time>2026-08-20T06:53:37.000Z</time><extensions/></trkpt><trkpt lat="59.11277532577515" lon="30.494656562805176"><time>2026-08-20T06:53:50.000Z</time><extensions/></trkpt><trkpt lat="59.112796783447266" lon="30.494656562805176"><time>2026-08-20T06:53:52.000Z</time><extensions/></trkpt><trkpt lat="59.112839698791504" lon="30.494699478149414"><time>2026-08-20T06:53:55.000Z</time><extensions/></trkpt><trkpt lat="59.11288261413574" lon="30.494678020477295"><time>2026-08-20T06:53:57.000Z</time><extensions/></trkpt><trkpt lat="59.11292552947998" lon="30.494678020477295"><time>2026-08-20T06:54:00.000Z</time><extensions/></trkpt><trkpt lat="59.11286115646362" lon="30.494699478149414"><time>2026-08-20T06:54:10.000Z</time><extensions/></trkpt><trkpt lat="59.112839698791504" lon="30.49476385116577"><time>2026-08-20T06:54:12.000Z</time><extensions/></trkpt><trkpt lat="59.11277532577515" lon="30.494849681854248"><time>2026-08-20T06:54:17.000Z</time><extensions/></trkpt><trkpt lat="59.11277532577515" lon="30.494935512542725"><time>2026-08-20T06:54:20.000Z</time><extensions/></trkpt><trkpt lat="59.11277532577515" lon="30.494999885559082"><time>2026-08-20T06:54:22.000Z</time><extensions/></trkpt><trkpt lat="59.112796783447266" lon="30.495150089263916"><time>2026-08-20T06:54:35.000Z</time><extensions/></trkpt><trkpt lat="59.112796783447266" lon="30.495171546936035"><time>2026-08-20T06:54:37.000Z</time><extensions/></trkpt><trkpt lat="59.112796783447266" lon="30.495193004608154"><time>2026-08-20T06:54:40.000Z</time><extensions/></trkpt><trkpt lat="59.11288261413574" lon="30.49534320831299"><time>2026-08-20T06:54:50.000Z</time><extensions/></trkpt><trkpt lat="59.11290407180786" lon="30.495386123657227"><time>2026-08-20T06:54:52.000Z</time><extensions/></trkpt><trkpt lat="59.1129469871521" lon="30.495429039001465"><time>2026-08-20T06:54:55.000Z</time><extensions/></trkpt><trkpt lat="59.11296844482422" lon="30.495471954345703"><time>2026-08-20T06:54:57.000Z</time><extensions/></trkpt><trkpt lat="59.11298990249634" lon="30.495471954345703"><time>2026-08-20T06:55:00.000Z</time><extensions/></trkpt><trkpt lat="59.11301136016846" lon="30.495493412017822"><time>2026-08-20T06:55:02.000Z</time><extensions/></trkpt><trkpt lat="59.113032817840576" lon="30.49553632736206"><time>2026-08-20T06:55:05.000Z</time><extensions/></trkpt><trkpt lat="59.113054275512695" lon="30.4955792427063"><time>2026-08-20T06:55:07.000Z</time><extensions/></trkpt><trkpt lat="59.113097190856934" lon="30.495600700378418"><time>2026-08-20T06:55:10.000Z</time><extensions/></trkpt><trkpt lat="59.11311864852905" lon="30.495622158050537"><time>2026-08-20T06:55:12.000Z</time><extensions/></trkpt><trkpt lat="59.11316156387329" lon="30.495643615722656"><time>2026-08-20T06:55:15.000Z</time><extensions/></trkpt><trkpt lat="59.11320447921753" lon="30.495622158050537"><time>2026-08-20T06:55:17.000Z</time><extensions/></trkpt><trkpt lat="59.11322593688965" lon="30.4955792427063"><time>2026-08-20T06:55:20.000Z</time><extensions/></trkpt><trkpt lat="59.11318302154541" lon="30.49555778503418"><time>2026-08-20T06:55:22.000Z</time><extensions/></trkpt><trkpt lat="59.11314010620117" lon="30.49553632736206"><time>2026-08-20T06:55:25.000Z</time><extensions/></trkpt><trkpt lat="59.11301136016846" lon="30.495364665985107"><time>2026-08-20T06:55:32.000Z</time><extensions/></trkpt><trkpt lat="59.11298990249634" lon="30.49527883529663"><time>2026-08-20T06:55:35.000Z</time><extensions/></trkpt><trkpt lat="59.11292552947998" lon="30.49534320831299"><time>2026-08-20T06:55:40.000Z</time><extensions/></trkpt><trkpt lat="59.11292552947998" lon="30.495450496673584"><time>2026-08-20T06:55:42.000Z</time><extensions/></trkpt><trkpt lat="59.11286115646362" lon="30.49551486968994"><time>2026-08-20T06:55:45.000Z</time><extensions/></trkpt><trkpt lat="59.112818241119385" lon="30.49555778503418"><time>2026-08-20T06:55:47.000Z</time><extensions/></trkpt><trkpt lat="59.112796783447266" lon="30.4955792427063"><time>2026-08-20T06:55:50.000Z</time><extensions/></trkpt><trkpt lat="59.11275386810303" lon="30.49555778503418"><time>2026-08-20T06:55:52.000Z</time><extensions/></trkpt><trkpt lat="59.11268949508667" lon="30.495493412017822"><time>2026-08-20T06:55:55.000Z</time><extensions/></trkpt><trkpt lat="59.11264657974243" lon="30.495450496673584"><time>2026-08-20T06:55:57.000Z</time><extensions/></trkpt><trkpt lat="59.11260366439819" lon="30.495386123657227"><time>2026-08-20T06:56:00.000Z</time><extensions/></trkpt><trkpt lat="59.112539291381836" lon="30.49534320831299"><time>2026-08-20T06:56:02.000Z</time><extensions/></trkpt><trkpt lat="59.112560749053955" lon="30.49534320831299"><time>2026-08-20T06:56:10.000Z</time><extensions/></trkpt><trkpt lat="59.11262512207031" lon="30.495407581329346"><time>2026-08-20T06:56:12.000Z</time><extensions/></trkpt><trkpt lat="59.11266803741455" lon="30.49551486968994"><time>2026-08-20T06:56:15.000Z</time><extensions/></trkpt><trkpt lat="59.11271095275879" lon="30.495665073394775"><time>2026-08-20T06:56:22.000Z</time><extensions/></trkpt><trkpt lat="59.11271095275879" lon="30.49577236175537"><time>2026-08-20T06:56:25.000Z</time><extensions/></trkpt><trkpt lat="59.11268949508667" lon="30.495879650115967"><time>2026-08-20T06:56:27.000Z</time><extensions/></trkpt><trkpt lat="59.11268949508667" lon="30.495965480804443"><time>2026-08-20T06:56:30.000Z</time><extensions/></trkpt><trkpt lat="59.11266803741455" lon="30.49605131149292"><time>2026-08-20T06:56:32.000Z</time><extensions/></trkpt><trkpt lat="59.11260366439819" lon="30.49600839614868"><time>2026-08-20T06:56:35.000Z</time><extensions/></trkpt><trkpt lat="59.112582206726074" lon="30.495965480804443"><time>2026-08-20T06:56:37.000Z</time><extensions/></trkpt><trkpt lat="59.112560749053955" lon="30.495922565460205"><time>2026-08-20T06:56:40.000Z</time><extensions/></trkpt><trkpt lat="59.112582206726074" lon="30.495901107788086"><time>2026-08-20T06:56:42.000Z</time><extensions/></trkpt><trkpt lat="59.11260366439819" lon="30.495922565460205"><time>2026-08-20T06:56:45.000Z</time><extensions/></trkpt><trkpt lat="59.11260366439819" lon="30.495986938476562"><time>2026-08-20T06:56:47.000Z</time><extensions/></trkpt><trkpt lat="59.11264657974243" lon="30.4960298538208"><time>2026-08-20T06:56:50.000Z</time><extensions/></trkpt><trkpt lat="59.11264657974243" lon="30.49607276916504"><time>2026-08-20T06:56:52.000Z</time><extensions/></trkpt><trkpt lat="59.11262512207031" lon="30.496115684509277"><time>2026-08-20T06:56:55.000Z</time><extensions/></trkpt><trkpt lat="59.11260366439819" lon="30.496094226837158"><time>2026-08-20T06:56:57.000Z</time><extensions/></trkpt><trkpt lat="59.11264657974243" lon="30.49605131149292"><time>2026-08-20T06:57:15.000Z</time><extensions/></trkpt><trkpt lat="59.11264657974243" lon="30.49605131149292"><time>2026-08-20T06:57:30.000Z</time><extensions/></trkpt><trkpt lat="59.11277532577515" lon="30.49607276916504"><time>2026-08-20T06:57:52.000Z</time><extensions/></trkpt><trkpt lat="59.11273241043091" lon="30.496137142181396"><time>2026-08-20T06:58:10.000Z</time><extensions/></trkpt><trkpt lat="59.11271095275879" lon="30.496222972869873"><time>2026-08-20T06:58:12.000Z</time><extensions/></trkpt><trkpt lat="59.11268949508667" lon="30.49628734588623"><time>2026-08-20T06:58:15.000Z</time><extensions/></trkpt><trkpt lat="59.11268949508667" lon="30.496373176574707"><time>2026-08-20T06:58:17.000Z</time><extensions/></trkpt><trkpt lat="59.11268949508667" lon="30.496416091918945"><time>2026-08-20T06:58:20.000Z</time><extensions/></trkpt><trkpt lat="59.11264657974243" lon="30.496480464935303"><time>2026-08-20T06:58:22.000Z</time><extensions/></trkpt><trkpt lat="59.11262512207031" lon="30.49654483795166"><time>2026-08-20T06:58:25.000Z</time><extensions/></trkpt><trkpt lat="59.11260366439819" lon="30.49654483795166"><time>2026-08-20T06:58:27.000Z</time><extensions/></trkpt><trkpt lat="59.11264657974243" lon="30.49654483795166"><time>2026-08-20T06:58:35.000Z</time><extensions/></trkpt><trkpt lat="59.11271095275879" lon="30.496437549591064"><time>2026-08-20T06:58:37.000Z</time><extensions/></trkpt><trkpt lat="59.11273241043091" lon="30.496480464935303"><time>2026-08-20T06:58:40.000Z</time><extensions/></trkpt><trkpt lat="59.11275386810303" lon="30.496501922607422"><time>2026-08-20T06:58:42.000Z</time><extensions/></trkpt><trkpt lat="59.11275386810303" lon="30.4965877532959"><time>2026-08-20T06:58:45.000Z</time><extensions/></trkpt><trkpt lat="59.11275386810303" lon="30.496652126312256"><time>2026-08-20T06:58:47.000Z</time><extensions/></trkpt><trkpt lat="59.112796783447266" lon="30.49678087234497"><time>2026-08-20T06:58:52.000Z</time><extensions/></trkpt><trkpt lat="59.112818241119385" lon="30.49675941467285"><time>2026-08-20T06:58:55.000Z</time><extensions/></trkpt><trkpt lat="59.112818241119385" lon="30.496737957000732"><time>2026-08-20T06:58:57.000Z</time><extensions/></trkpt><trkpt lat="59.112818241119385" lon="30.496737957000732"><time>2026-08-20T06:59:00.000Z</time><extensions/></trkpt><trkpt lat="59.112839698791504" lon="30.49675941467285"><time>2026-08-20T06:59:02.000Z</time><extensions/></trkpt><trkpt lat="59.11286115646362" lon="30.49682378768921"><time>2026-08-20T06:59:30.000Z</time><extensions/></trkpt><trkpt lat="59.11288261413574" lon="30.496888160705566"><time>2026-08-20T06:59:32.000Z</time><extensions/></trkpt><trkpt lat="59.11296844482422" lon="30.496888160705566"><time>2026-08-20T06:59:35.000Z</time><extensions/></trkpt><trkpt lat="59.11298990249634" lon="30.496909618377686"><time>2026-08-20T06:59:37.000Z</time><extensions/></trkpt><trkpt lat="59.113032817840576" lon="30.496973991394043"><time>2026-08-20T06:59:40.000Z</time><extensions/></trkpt><trkpt lat="59.113032817840576" lon="30.4970383644104"><time>2026-08-20T06:59:42.000Z</time><extensions/></trkpt><trkpt lat="59.113054275512695" lon="30.497145652770996"><time>2026-08-20T06:59:45.000Z</time><extensions/></trkpt><trkpt lat="59.113032817840576" lon="30.497145652770996"><time>2026-08-20T06:59:47.000Z</time><extensions/></trkpt><trkpt lat="59.113032817840576" lon="30.497145652770996"><time>2026-08-20T06:59:50.000Z</time><extensions/></trkpt><trkpt lat="59.113032817840576" lon="30.497188568115234"><time>2026-08-20T06:59:52.000Z</time><extensions/></trkpt><trkpt lat="59.11298990249634" lon="30.49729585647583"><time>2026-08-20T06:59:55.000Z</time><extensions/></trkpt><trkpt lat="59.11296844482422" lon="30.497403144836426"><time>2026-08-20T06:59:57.000Z</time><extensions/></trkpt><trkpt lat="59.1129469871521" lon="30.49751043319702"><time>2026-08-20T07:00:00.000Z</time><extensions/></trkpt><trkpt lat="59.11292552947998" lon="30.49757480621338"><time>2026-08-20T07:00:02.000Z</time><extensions/></trkpt><trkpt lat="59.11288261413574" lon="30.497596263885498"><time>2026-08-20T07:00:05.000Z</time><extensions/></trkpt><trkpt lat="59.112796783447266" lon="30.497617721557617"><time>2026-08-20T07:00:07.000Z</time><extensions/></trkpt><trkpt lat="59.11273241043091" lon="30.497617721557617"><time>2026-08-20T07:00:10.000Z</time><extensions/></trkpt><trkpt lat="59.11275386810303" lon="30.49757480621338"><time>2026-08-20T07:00:30.000Z</time><extensions/></trkpt><trkpt lat="59.112796783447266" lon="30.497596263885498"><time>2026-08-20T07:00:32.000Z</time><extensions/></trkpt><trkpt lat="59.112839698791504" lon="30.497703552246094"><time>2026-08-20T07:00:40.000Z</time><extensions/></trkpt><trkpt lat="59.112818241119385" lon="30.49781084060669"><time>2026-08-20T07:00:42.000Z</time><extensions/></trkpt><trkpt lat="59.11286115646362" lon="30.497746467590332"><time>2026-08-20T07:00:50.000Z</time><extensions/></trkpt><trkpt lat="59.11286115646362" lon="30.497660636901855"><time>2026-08-20T07:00:52.000Z</time><extensions/></trkpt><trkpt lat="59.11286115646362" lon="30.497703552246094"><time>2026-08-20T07:01:07.000Z</time><extensions/></trkpt><trkpt lat="59.11290407180786" lon="30.497639179229736"><time>2026-08-20T07:01:25.000Z</time><extensions/></trkpt><trkpt lat="59.11286115646362" lon="30.497660636901855"><time>2026-08-20T07:01:55.000Z</time><extensions/></trkpt><trkpt lat="59.11288261413574" lon="30.497660636901855"><time>2026-08-20T07:02:22.000Z</time><extensions/></trkpt><trkpt lat="59.11288261413574" lon="30.497682094573975"><time>2026-08-20T07:02:52.000Z</time><extensions/></trkpt><trkpt lat="59.11288261413574" lon="30.497682094573975"><time>2026-08-20T07:03:00.000Z</time><extensions/></trkpt><trkpt lat="59.11288261413574" lon="30.497682094573975"><time>2026-08-20T07:03:10.000Z</time><extensions/></trkpt><trkpt lat="59.11290407180786" lon="30.49776792526245"><time>2026-08-20T07:03:12.000Z</time><extensions/></trkpt><trkpt lat="59.11290407180786" lon="30.497875213623047"><time>2026-08-20T07:03:20.000Z</time><extensions/></trkpt><trkpt lat="59.11292552947998" lon="30.497875213623047"><time>2026-08-20T07:03:30.000Z</time><extensions/></trkpt><trkpt lat="59.11292552947998" lon="30.49783229827881"><time>2026-08-20T07:03:32.000Z</time><extensions/></trkpt><trkpt lat="59.1129469871521" lon="30.49781084060669"><time>2026-08-20T07:03:35.000Z</time><extensions/></trkpt><trkpt lat="59.1129469871521" lon="30.49776792526245"><time>2026-08-20T07:03:37.000Z</time><extensions/></trkpt><trkpt lat="59.11288261413574" lon="30.49781084060669"><time>2026-08-20T07:04:07.000Z</time><extensions/></trkpt><trkpt lat="59.11288261413574" lon="30.49781084060669"><time>2026-08-20T07:04:37.000Z</time><extensions/></trkpt><trkpt lat="59.11290407180786" lon="30.49781084060669"><time>2026-08-20T07:05:07.000Z</time><extensions/></trkpt><trkpt lat="59.11286115646362" lon="30.497853755950928"><time>2026-08-20T07:05:37.000Z</time><extensions/></trkpt><trkpt lat="59.11286115646362" lon="30.497853755950928"><time>2026-08-20T07:06:07.000Z</time><extensions/></trkpt><trkpt lat="59.11286115646362" lon="30.497853755950928"><time>2026-08-20T07:06:37.000Z</time><extensions/></trkpt><trkpt lat="59.11288261413574" lon="30.497875213623047"><time>2026-08-20T07:06:55.000Z</time><extensions/></trkpt><trkpt lat="59.11301136016846" lon="30.497875213623047"><time>2026-08-20T07:07:22.000Z</time><extensions/></trkpt><trkpt lat="59.113097190856934" lon="30.497853755950928"><time>2026-08-20T07:07:27.000Z</time><extensions/></trkpt><trkpt lat="59.113097190856934" lon="30.497853755950928"><time>2026-08-20T07:07:32.000Z</time><extensions/></trkpt><trkpt lat="59.113054275512695" lon="30.497875213623047"><time>2026-08-20T07:07:35.000Z</time><extensions/></trkpt><trkpt lat="59.113032817840576" lon="30.497918128967285"><time>2026-08-20T07:07:37.000Z</time><extensions/></trkpt><trkpt lat="59.11298990249634" lon="30.497961044311523"><time>2026-08-20T07:07:40.000Z</time><extensions/></trkpt><trkpt lat="59.1129469871521" lon="30.49802541732788"><time>2026-08-20T07:07:42.000Z</time><extensions/></trkpt><trkpt lat="59.1129469871521" lon="30.49806833267212"><time>2026-08-20T07:07:45.000Z</time><extensions/></trkpt><trkpt lat="59.11296844482422" lon="30.49808979034424"><time>2026-08-20T07:07:47.000Z</time><extensions/></trkpt><trkpt lat="59.1129469871521" lon="30.498175621032715"><time>2026-08-20T07:07:50.000Z</time><extensions/></trkpt><trkpt lat="59.11296844482422" lon="30.49826145172119"><time>2026-08-20T07:07:52.000Z</time><extensions/></trkpt><trkpt lat="59.11290407180786" lon="30.49832582473755"><time>2026-08-20T07:08:15.000Z</time><extensions/></trkpt><trkpt lat="59.112796783447266" lon="30.498433113098145"><time>2026-08-20T07:08:20.000Z</time><extensions/></trkpt><trkpt lat="59.11275386810303" lon="30.49854040145874"><time>2026-08-20T07:08:22.000Z</time><extensions/></trkpt><trkpt lat="59.11273241043091" lon="30.498604774475098"><time>2026-08-20T07:08:25.000Z</time><extensions/></trkpt><trkpt lat="59.11273241043091" lon="30.498647689819336"><time>2026-08-20T07:08:27.000Z</time><extensions/></trkpt><trkpt lat="59.11271095275879" lon="30.498690605163574"><time>2026-08-20T07:08:30.000Z</time><extensions/></trkpt><trkpt lat="59.11268949508667" lon="30.49877643585205"><time>2026-08-20T07:08:32.000Z</time><extensions/></trkpt><trkpt lat="59.11275386810303" lon="30.49879789352417"><time>2026-08-20T07:08:37.000Z</time><extensions/></trkpt><trkpt lat="59.112839698791504" lon="30.49879789352417"><time>2026-08-20T07:08:40.000Z</time><extensions/></trkpt><trkpt lat="59.11288261413574" lon="30.49877643585205"><time>2026-08-20T07:08:42.000Z</time><extensions/></trkpt><trkpt lat="59.11290407180786" lon="30.498712062835693"><time>2026-08-20T07:08:45.000Z</time><extensions/></trkpt><trkpt lat="59.11290407180786" lon="30.498669147491455"><time>2026-08-20T07:08:47.000Z</time><extensions/></trkpt><trkpt lat="59.11286115646362" lon="30.498669147491455"><time>2026-08-20T07:08:50.000Z</time><extensions/></trkpt><trkpt lat="59.112818241119385" lon="30.498690605163574"><time>2026-08-20T07:08:52.000Z</time><extensions/></trkpt><trkpt lat="59.112839698791504" lon="30.498626232147217"><time>2026-08-20T07:08:55.000Z</time><extensions/></trkpt><trkpt lat="59.112839698791504" lon="30.498712062835693"><time>2026-08-20T07:09:00.000Z</time><extensions/></trkpt><trkpt lat="59.112818241119385" lon="30.49875497817993"><time>2026-08-20T07:09:02.000Z</time><extensions/></trkpt><trkpt lat="59.11277532577515" lon="30.498647689819336"><time>2026-08-20T07:09:07.000Z</time><extensions/></trkpt><trkpt lat="59.11266803741455" lon="30.498690605163574"><time>2026-08-20T07:09:20.000Z</time><extensions/></trkpt><trkpt lat="59.11273241043091" lon="30.498712062835693"><time>2026-08-20T07:09:27.000Z</time><extensions/></trkpt><trkpt lat="59.11277532577515" lon="30.49879789352417"><time>2026-08-20T07:09:30.000Z</time><extensions/></trkpt><trkpt lat="59.112796783447266" lon="30.498905181884766"><time>2026-08-20T07:09:32.000Z</time><extensions/></trkpt><trkpt lat="59.112839698791504" lon="30.498926639556885"><time>2026-08-20T07:09:35.000Z</time><extensions/></trkpt><trkpt lat="59.112839698791504" lon="30.498969554901123"><time>2026-08-20T07:09:37.000Z</time><extensions/></trkpt><trkpt lat="59.11286115646362" lon="30.4990553855896"><time>2026-08-20T07:09:40.000Z</time><extensions/></trkpt><trkpt lat="59.112839698791504" lon="30.499119758605957"><time>2026-08-20T07:09:42.000Z</time><extensions/></trkpt><trkpt lat="59.112839698791504" lon="30.499184131622314"><time>2026-08-20T07:09:45.000Z</time><extensions/></trkpt><trkpt lat="59.11288261413574" lon="30.499184131622314"><time>2026-08-20T07:09:47.000Z</time><extensions/></trkpt><trkpt lat="59.11292552947998" lon="30.499205589294434"><time>2026-08-20T07:09:50.000Z</time><extensions/></trkpt><trkpt lat="59.1129469871521" lon="30.499141216278076"><time>2026-08-20T07:09:52.000Z</time><extensions/></trkpt><trkpt lat="59.113032817840576" lon="30.499205589294434"><time>2026-08-20T07:09:57.000Z</time><extensions/></trkpt><trkpt lat="59.113075733184814" lon="30.499184131622314"><time>2026-08-20T07:10:00.000Z</time><extensions/></trkpt><trkpt lat="59.113075733184814" lon="30.49926996231079"><time>2026-08-20T07:10:05.000Z</time><extensions/></trkpt><trkpt lat="59.113032817840576" lon="30.49931287765503"><time>2026-08-20T07:10:10.000Z</time><extensions/></trkpt><trkpt lat="59.11298990249634" lon="30.49929141998291"><time>2026-08-20T07:10:12.000Z</time><extensions/></trkpt><trkpt lat="59.1129469871521" lon="30.499355792999268"><time>2026-08-20T07:10:15.000Z</time><extensions/></trkpt><trkpt lat="59.11288261413574" lon="30.499398708343506"><time>2026-08-20T07:10:17.000Z</time><extensions/></trkpt><trkpt lat="59.112818241119385" lon="30.499355792999268"><time>2026-08-20T07:10:20.000Z</time><extensions/></trkpt><trkpt lat="59.112839698791504" lon="30.49933433532715"><time>2026-08-20T07:10:22.000Z</time><extensions/></trkpt><trkpt lat="59.112839698791504" lon="30.499484539031982"><time>2026-08-20T07:10:27.000Z</time><extensions/></trkpt><trkpt lat="59.112839698791504" lon="30.49957036972046"><time>2026-08-20T07:10:30.000Z</time><extensions/></trkpt><trkpt lat="59.112818241119385" lon="30.499656200408936"><time>2026-08-20T07:10:32.000Z</time><extensions/></trkpt><trkpt lat="59.11277532577515" lon="30.499677658081055"><time>2026-08-20T07:10:35.000Z</time><extensions/></trkpt><trkpt lat="59.11275386810303" lon="30.499613285064697"><time>2026-08-20T07:10:37.000Z</time><extensions/></trkpt><trkpt lat="59.11273241043091" lon="30.49954891204834"><time>2026-08-20T07:10:40.000Z</time><extensions/></trkpt><trkpt lat="59.11271095275879" lon="30.499484539031982"><time>2026-08-20T07:10:42.000Z</time><extensions/></trkpt><trkpt lat="59.11268949508667" lon="30.499441623687744"><time>2026-08-20T07:10:50.000Z</time><extensions/></trkpt><trkpt lat="59.11266803741455" lon="30.4995059967041"><time>2026-08-20T07:10:52.000Z</time><extensions/></trkpt><trkpt lat="59.11271095275879" lon="30.499591827392578"><time>2026-08-20T07:10:55.000Z</time><extensions/></trkpt><trkpt lat="59.11277532577515" lon="30.499699115753174"><time>2026-08-20T07:10:57.000Z</time><extensions/></trkpt><trkpt lat="59.11286115646362" lon="30.499677658081055"><time>2026-08-20T07:11:00.000Z</time><extensions/></trkpt><trkpt lat="59.11286115646362" lon="30.499591827392578"><time>2026-08-20T07:11:02.000Z</time><extensions/></trkpt><trkpt lat="59.11286115646362" lon="30.499591827392578"><time>2026-08-20T07:11:15.000Z</time><extensions/></trkpt><trkpt lat="59.11290407180786" lon="30.499634742736816"><time>2026-08-20T07:11:45.000Z</time><extensions/></trkpt><trkpt lat="59.11292552947998" lon="30.499720573425293"><time>2026-08-20T07:11:50.000Z</time><extensions/></trkpt><trkpt lat="59.1129469871521" lon="30.49978494644165"><time>2026-08-20T07:11:52.000Z</time><extensions/></trkpt><trkpt lat="59.11296844482422" lon="30.49980640411377"><time>2026-08-20T07:11:55.000Z</time><extensions/></trkpt><trkpt lat="59.11298990249634" lon="30.499849319458008"><time>2026-08-20T07:11:57.000Z</time><extensions/></trkpt><trkpt lat="59.113032817840576" lon="30.499913692474365"><time>2026-08-20T07:12:00.000Z</time><extensions/></trkpt><trkpt lat="59.113054275512695" lon="30.499913692474365"><time>2026-08-20T07:12:02.000Z</time><extensions/></trkpt><trkpt lat="59.113054275512695" lon="30.499849319458008"><time>2026-08-20T07:12:05.000Z</time><extensions/></trkpt><trkpt lat="59.113032817840576" lon="30.49982786178589"><time>2026-08-20T07:12:07.000Z</time><extensions/></trkpt><trkpt lat="59.11301136016846" lon="30.499892234802246"><time>2026-08-20T07:12:10.000Z</time><extensions/></trkpt><trkpt lat="59.11301136016846" lon="30.499913692474365"><time>2026-08-20T07:12:12.000Z</time><extensions/></trkpt><trkpt lat="59.11298990249634" lon="30.500128269195557"><time>2026-08-20T07:12:20.000Z</time><extensions/></trkpt><trkpt lat="59.11296844482422" lon="30.50008535385132"><time>2026-08-20T07:12:22.000Z</time><extensions/></trkpt><trkpt lat="59.1129469871521" lon="30.50002098083496"><time>2026-08-20T07:12:25.000Z</time><extensions/></trkpt><trkpt lat="59.11290407180786" lon="30.499999523162842"><time>2026-08-20T07:12:27.000Z</time><extensions/></trkpt><trkpt lat="59.11290407180786" lon="30.50004243850708"><time>2026-08-20T07:12:30.000Z</time><extensions/></trkpt><trkpt lat="59.11290407180786" lon="30.50008535385132"><time>2026-08-20T07:12:32.000Z</time><extensions/></trkpt><trkpt lat="59.11292552947998" lon="30.500128269195557"><time>2026-08-20T07:12:35.000Z</time><extensions/></trkpt><trkpt lat="59.11296844482422" lon="30.500149726867676"><time>2026-08-20T07:12:37.000Z</time><extensions/></trkpt><trkpt lat="59.1129469871521" lon="30.500235557556152"><time>2026-08-20T07:12:42.000Z</time><extensions/></trkpt><trkpt lat="59.1129469871521" lon="30.50027847290039"><time>2026-08-20T07:12:45.000Z</time><extensions/></trkpt><trkpt lat="59.11298990249634" lon="30.50032138824463"><time>2026-08-20T07:12:47.000Z</time><extensions/></trkpt><trkpt lat="59.11298990249634" lon="30.500342845916748"><time>2026-08-20T07:12:50.000Z</time><extensions/></trkpt><trkpt lat="59.113054275512695" lon="30.500407218933105"><time>2026-08-20T07:13:02.000Z</time><extensions/></trkpt><trkpt lat="59.113075733184814" lon="30.500493049621582"><time>2026-08-20T07:13:05.000Z</time><extensions/></trkpt><trkpt lat="59.113032817840576" lon="30.50055742263794"><time>2026-08-20T07:13:07.000Z</time><extensions/></trkpt><trkpt lat="59.113032817840576" lon="30.500643253326416"><time>2026-08-20T07:13:10.000Z</time><extensions/></trkpt><trkpt lat="59.11298990249634" lon="30.500686168670654"><time>2026-08-20T07:13:12.000Z</time><extensions/></trkpt><trkpt lat="59.11296844482422" lon="30.500707626342773"><time>2026-08-20T07:13:15.000Z</time><extensions/></trkpt><trkpt lat="59.1129469871521" lon="30.50075054168701"><time>2026-08-20T07:13:17.000Z</time><extensions/></trkpt><trkpt lat="59.11292552947998" lon="30.50081491470337"><time>2026-08-20T07:13:20.000Z</time><extensions/></trkpt><trkpt lat="59.11290407180786" lon="30.500879287719727"><time>2026-08-20T07:13:22.000Z</time><extensions/></trkpt><trkpt lat="59.112839698791504" lon="30.500879287719727"><time>2026-08-20T07:13:25.000Z</time><extensions/></trkpt><trkpt lat="59.112796783447266" lon="30.500879287719727"><time>2026-08-20T07:13:27.000Z</time><extensions/></trkpt><trkpt lat="59.112582206726074" lon="30.500965118408203"><time>2026-08-20T07:13:35.000Z</time><extensions/></trkpt><trkpt lat="59.112539291381836" lon="30.50105094909668"><time>2026-08-20T07:13:37.000Z</time><extensions/></trkpt><trkpt lat="59.11251783370972" lon="30.501179695129395"><time>2026-08-20T07:13:40.000Z</time><extensions/></trkpt><trkpt lat="59.112539291381836" lon="30.50126552581787"><time>2026-08-20T07:13:42.000Z</time><extensions/></trkpt><trkpt lat="59.11247491836548" lon="30.501351356506348"><time>2026-08-20T07:13:45.000Z</time><extensions/></trkpt><trkpt lat="59.11241054534912" lon="30.501372814178467"><time>2026-08-20T07:13:47.000Z</time><extensions/></trkpt><trkpt lat="59.11236763000488" lon="30.50132989883423"><time>2026-08-20T07:13:52.000Z</time><extensions/></trkpt><trkpt lat="59.11241054534912" lon="30.501222610473633"><time>2026-08-20T07:13:55.000Z</time><extensions/></trkpt><trkpt lat="59.1124963760376" lon="30.501136779785156"><time>2026-08-20T07:13:57.000Z</time><extensions/></trkpt><trkpt lat="59.112560749053955" lon="30.50105094909668"><time>2026-08-20T07:14:00.000Z</time><extensions/></trkpt><trkpt lat="59.11264657974243" lon="30.50100803375244"><time>2026-08-20T07:14:02.000Z</time><extensions/></trkpt><trkpt lat="59.11275386810303" lon="30.500986576080322"><time>2026-08-20T07:14:05.000Z</time><extensions/></trkpt><trkpt lat="59.112818241119385" lon="30.500922203063965"><time>2026-08-20T07:14:07.000Z</time><extensions/></trkpt><trkpt lat="59.11286115646362" lon="30.500965118408203"><time>2026-08-20T07:14:12.000Z</time><extensions/></trkpt><trkpt lat="59.112839698791504" lon="30.500965118408203"><time>2026-08-20T07:14:15.000Z</time><extensions/></trkpt><trkpt lat="59.112818241119385" lon="30.50102949142456"><time>2026-08-20T07:14:17.000Z</time><extensions/></trkpt><trkpt lat="59.112818241119385" lon="30.501136779785156"><time>2026-08-20T07:14:20.000Z</time><extensions/></trkpt><trkpt lat="59.11277532577515" lon="30.501179695129395"><time>2026-08-20T07:14:22.000Z</time><extensions/></trkpt><trkpt lat="59.11277532577515" lon="30.501244068145752"><time>2026-08-20T07:14:25.000Z</time><extensions/></trkpt><trkpt lat="59.11275386810303" lon="30.50130844116211"><time>2026-08-20T07:14:27.000Z</time><extensions/></trkpt><trkpt lat="59.11271095275879" lon="30.50130844116211"><time>2026-08-20T07:14:30.000Z</time><extensions/></trkpt><trkpt lat="59.11266803741455" lon="30.50132989883423"><time>2026-08-20T07:14:32.000Z</time><extensions/></trkpt><trkpt lat="59.11271095275879" lon="30.50128698348999"><time>2026-08-20T07:14:40.000Z</time><extensions/></trkpt><trkpt lat="59.112796783447266" lon="30.501244068145752"><time>2026-08-20T07:14:47.000Z</time><extensions/></trkpt><trkpt lat="59.112839698791504" lon="30.501222610473633"><time>2026-08-20T07:14:50.000Z</time><extensions/></trkpt><trkpt lat="59.11290407180786" lon="30.501201152801514"><time>2026-08-20T07:14:52.000Z</time><extensions/></trkpt><trkpt lat="59.1129469871521" lon="30.501244068145752"><time>2026-08-20T07:14:55.000Z</time><extensions/></trkpt><trkpt lat="59.11296844482422" lon="30.50128698348999"><time>2026-08-20T07:14:57.000Z</time><extensions/></trkpt><trkpt lat="59.11298990249634" lon="30.50126552581787"><time>2026-08-20T07:15:00.000Z</time><extensions/></trkpt><trkpt lat="59.11292552947998" lon="30.50126552581787"><time>2026-08-20T07:15:10.000Z</time><extensions/></trkpt><trkpt lat="59.11290407180786" lon="30.50132989883423"><time>2026-08-20T07:15:12.000Z</time><extensions/></trkpt><trkpt lat="59.11288261413574" lon="30.501372814178467"><time>2026-08-20T07:15:15.000Z</time><extensions/></trkpt><trkpt lat="59.11286115646362" lon="30.501480102539062"><time>2026-08-20T07:15:30.000Z</time><extensions/></trkpt><trkpt lat="59.112839698791504" lon="30.501587390899658"><time>2026-08-20T07:15:35.000Z</time><extensions/></trkpt><trkpt lat="59.112796783447266" lon="30.50154447555542"><time>2026-08-20T07:15:37.000Z</time><extensions/></trkpt><trkpt lat="59.11277532577515" lon="30.5015230178833"><time>2026-08-20T07:15:40.000Z</time><extensions/></trkpt><trkpt lat="59.11273241043091" lon="30.501480102539062"><time>2026-08-20T07:15:42.000Z</time><extensions/></trkpt><trkpt lat="59.11271095275879" lon="30.501437187194824"><time>2026-08-20T07:15:45.000Z</time><extensions/></trkpt><trkpt lat="59.11266803741455" lon="30.501437187194824"><time>2026-08-20T07:15:47.000Z</time><extensions/></trkpt><trkpt lat="59.11260366439819" lon="30.501458644866943"><time>2026-08-20T07:15:55.000Z</time><extensions/></trkpt><trkpt lat="59.112560749053955" lon="30.501480102539062"><time>2026-08-20T07:15:57.000Z</time><extensions/></trkpt><trkpt lat="59.112539291381836" lon="30.50150156021118"><time>2026-08-20T07:16:00.000Z</time><extensions/></trkpt><trkpt lat="59.11251783370972" lon="30.50156593322754"><time>2026-08-20T07:16:02.000Z</time><extensions/></trkpt><trkpt lat="59.112539291381836" lon="30.501608848571777"><time>2026-08-20T07:16:05.000Z</time><extensions/></trkpt><trkpt lat="59.112539291381836" lon="30.501651763916016"><time>2026-08-20T07:16:07.000Z</time><extensions/></trkpt><trkpt lat="59.1124963760376" lon="30.501673221588135"><time>2026-08-20T07:16:10.000Z</time><extensions/></trkpt><trkpt lat="59.11247491836548" lon="30.501630306243896"><time>2026-08-20T07:16:12.000Z</time><extensions/></trkpt><trkpt lat="59.1124963760376" lon="30.501716136932373"><time>2026-08-20T07:16:22.000Z</time><extensions/></trkpt><trkpt lat="59.11247491836548" lon="30.50180196762085"><time>2026-08-20T07:16:25.000Z</time><extensions/></trkpt><trkpt lat="59.11245346069336" lon="30.50180196762085"><time>2026-08-20T07:16:27.000Z</time><extensions/></trkpt><trkpt lat="59.11245346069336" lon="30.50178050994873"><time>2026-08-20T07:16:30.000Z</time><extensions/></trkpt><trkpt lat="59.11245346069336" lon="30.501716136932373"><time>2026-08-20T07:16:32.000Z</time><extensions/></trkpt><trkpt lat="59.11241054534912" lon="30.501480102539062"><time>2026-08-20T07:16:40.000Z</time><extensions/></trkpt><trkpt lat="59.112346172332764" lon="30.50150156021118"><time>2026-08-20T07:16:42.000Z</time><extensions/></trkpt><trkpt lat="59.112281799316406" lon="30.50150156021118"><time>2026-08-20T07:16:45.000Z</time><extensions/></trkpt><trkpt lat="59.11223888397217" lon="30.5015230178833"><time>2026-08-20T07:16:47.000Z</time><extensions/></trkpt><trkpt lat="59.11219596862793" lon="30.5015230178833"><time>2026-08-20T07:16:52.000Z</time><extensions/></trkpt><trkpt lat="59.11223888397217" lon="30.501480102539062"><time>2026-08-20T07:16:57.000Z</time><extensions/></trkpt><trkpt lat="59.112303256988525" lon="30.501480102539062"><time>2026-08-20T07:17:07.000Z</time><extensions/></trkpt><trkpt lat="59.112324714660645" lon="30.501437187194824"><time>2026-08-20T07:17:10.000Z</time><extensions/></trkpt><trkpt lat="59.112346172332764" lon="30.501437187194824"><time>2026-08-20T07:17:20.000Z</time><extensions/></trkpt><trkpt lat="59.112346172332764" lon="30.501458644866943"><time>2026-08-20T07:17:45.000Z</time><extensions/></trkpt><trkpt lat="59.112346172332764" lon="30.501437187194824"><time>2026-08-20T07:18:07.000Z</time><extensions/></trkpt><trkpt lat="59.112303256988525" lon="30.501372814178467"><time>2026-08-20T07:18:10.000Z</time><extensions/></trkpt><trkpt lat="59.112281799316406" lon="30.501351356506348"><time>2026-08-20T07:18:12.000Z</time><extensions/></trkpt><trkpt lat="59.11226034164429" lon="30.50128698348999"><time>2026-08-20T07:18:15.000Z</time><extensions/></trkpt><trkpt lat="59.11226034164429" lon="30.501244068145752"><time>2026-08-20T07:18:17.000Z</time><extensions/></trkpt><trkpt lat="59.11226034164429" lon="30.501093864440918"><time>2026-08-20T07:18:35.000Z</time><extensions/></trkpt><trkpt lat="59.11226034164429" lon="30.500943660736084"><time>2026-08-20T07:18:47.000Z</time><extensions/></trkpt><trkpt lat="59.112281799316406" lon="30.50055742263794"><time>2026-08-20T07:19:12.000Z</time><extensions/></trkpt><trkpt lat="59.112346172332764" lon="30.50053596496582"><time>2026-08-20T07:19:17.000Z</time><extensions/></trkpt><trkpt lat="59.112346172332764" lon="30.50055742263794"><time>2026-08-20T07:19:20.000Z</time><extensions/></trkpt><trkpt lat="59.112346172332764" lon="30.5005145072937"><time>2026-08-20T07:19:22.000Z</time><extensions/></trkpt><trkpt lat="59.11226034164429" lon="30.5005145072937"><time>2026-08-20T07:19:52.000Z</time><extensions/></trkpt><trkpt lat="59.11226034164429" lon="30.5005145072937"><time>2026-08-20T07:20:05.000Z</time><extensions/></trkpt><trkpt lat="59.112324714660645" lon="30.5005145072937"><time>2026-08-20T07:20:35.000Z</time><extensions/></trkpt><trkpt lat="59.112303256988525" lon="30.5005145072937"><time>2026-08-20T07:21:05.000Z</time><extensions/></trkpt><trkpt lat="59.112303256988525" lon="30.5005145072937"><time>2026-08-20T07:21:35.000Z</time><extensions/></trkpt><trkpt lat="59.112303256988525" lon="30.5005145072937"><time>2026-08-20T07:22:05.000Z</time><extensions/></trkpt><trkpt lat="59.112324714660645" lon="30.50025701522827"><time>2026-08-20T07:22:35.000Z</time><extensions/></trkpt><trkpt lat="59.112324714660645" lon="30.500235557556152"><time>2026-08-20T07:22:42.000Z</time><extensions/></trkpt><trkpt lat="59.112346172332764" lon="30.500214099884033"><time>2026-08-20T07:23:12.000Z</time><extensions/></trkpt><trkpt lat="59.112389087677" lon="30.499892234802246"><time>2026-08-20T07:23:37.000Z</time><extensions/></trkpt><trkpt lat="59.112346172332764" lon="30.499849319458008"><time>2026-08-20T07:23:40.000Z</time><extensions/></trkpt><trkpt lat="59.112324714660645" lon="30.499849319458008"><time>2026-08-20T07:23:42.000Z</time><extensions/></trkpt><trkpt lat="59.112324714660645" lon="30.499849319458008"><time>2026-08-20T07:23:45.000Z</time><extensions/></trkpt><trkpt lat="59.112303256988525" lon="30.499870777130127"><time>2026-08-20T07:23:47.000Z</time><extensions/></trkpt><trkpt lat="59.112346172332764" lon="30.49976348876953"><time>2026-08-20T07:24:00.000Z</time><extensions/></trkpt><trkpt lat="59.112346172332764" lon="30.499677658081055"><time>2026-08-20T07:24:05.000Z</time><extensions/></trkpt><trkpt lat="59.11236763000488" lon="30.499634742736816"><time>2026-08-20T07:24:07.000Z</time><extensions/></trkpt><trkpt lat="59.11243200302124" lon="30.499441623687744"><time>2026-08-20T07:24:15.000Z</time><extensions/></trkpt><trkpt lat="59.11241054534912" lon="30.499355792999268"><time>2026-08-20T07:24:17.000Z</time><extensions/></trkpt><trkpt lat="59.11241054534912" lon="30.49931287765503"><time>2026-08-20T07:24:20.000Z</time><extensions/></trkpt><trkpt lat="59.11243200302124" lon="30.499355792999268"><time>2026-08-20T07:24:25.000Z</time><extensions/></trkpt><trkpt lat="59.11243200302124" lon="30.499355792999268"><time>2026-08-20T07:24:27.000Z</time><extensions/></trkpt><trkpt lat="59.112389087677" lon="30.49933433532715"><time>2026-08-20T07:24:30.000Z</time><extensions/></trkpt><trkpt lat="59.112346172332764" lon="30.49929141998291"><time>2026-08-20T07:24:32.000Z</time><extensions/></trkpt><trkpt lat="59.112324714660645" lon="30.49926996231079"><time>2026-08-20T07:24:35.000Z</time><extensions/></trkpt><trkpt lat="59.112303256988525" lon="30.499205589294434"><time>2026-08-20T07:24:37.000Z</time><extensions/></trkpt><trkpt lat="59.112303256988525" lon="30.499141216278076"><time>2026-08-20T07:24:40.000Z</time><extensions/></trkpt><trkpt lat="59.112281799316406" lon="30.499141216278076"><time>2026-08-20T07:24:42.000Z</time><extensions/></trkpt><trkpt lat="59.112281799316406" lon="30.49901247024536"><time>2026-08-20T07:24:52.000Z</time><extensions/></trkpt><trkpt lat="59.112303256988525" lon="30.498926639556885"><time>2026-08-20T07:24:55.000Z</time><extensions/></trkpt><trkpt lat="59.11236763000488" lon="30.49881935119629"><time>2026-08-20T07:25:00.000Z</time><extensions/></trkpt><trkpt lat="59.112389087677" lon="30.49877643585205"><time>2026-08-20T07:25:02.000Z</time><extensions/></trkpt><trkpt lat="59.112389087677" lon="30.498712062835693"><time>2026-08-20T07:25:05.000Z</time><extensions/></trkpt><trkpt lat="59.11236763000488" lon="30.498669147491455"><time>2026-08-20T07:25:07.000Z</time><extensions/></trkpt><trkpt lat="59.112346172332764" lon="30.49856185913086"><time>2026-08-20T07:25:10.000Z</time><extensions/></trkpt><trkpt lat="59.112346172332764" lon="30.498476028442383"><time>2026-08-20T07:25:12.000Z</time><extensions/></trkpt><trkpt lat="59.112303256988525" lon="30.498390197753906"><time>2026-08-20T07:25:30.000Z</time><extensions/></trkpt><trkpt lat="59.112324714660645" lon="30.498347282409668"><time>2026-08-20T07:25:32.000Z</time><extensions/></trkpt><trkpt lat="59.112346172332764" lon="30.49826145172119"><time>2026-08-20T07:25:35.000Z</time><extensions/></trkpt><trkpt lat="59.112346172332764" lon="30.49832582473755"><time>2026-08-20T07:25:47.000Z</time><extensions/></trkpt><trkpt lat="59.11236763000488" lon="30.498368740081787"><time>2026-08-20T07:25:50.000Z</time><extensions/></trkpt><trkpt lat="59.112346172332764" lon="30.498476028442383"><time>2026-08-20T07:25:52.000Z</time><extensions/></trkpt><trkpt lat="59.112346172332764" lon="30.498626232147217"><time>2026-08-20T07:25:55.000Z</time><extensions/></trkpt><trkpt lat="59.112281799316406" lon="30.498669147491455"><time>2026-08-20T07:25:57.000Z</time><extensions/></trkpt><trkpt lat="59.11223888397217" lon="30.498604774475098"><time>2026-08-20T07:26:00.000Z</time><extensions/></trkpt><trkpt lat="59.11221742630005" lon="30.49856185913086"><time>2026-08-20T07:26:02.000Z</time><extensions/></trkpt><trkpt lat="59.11219596862793" lon="30.49854040145874"><time>2026-08-20T07:26:07.000Z</time><extensions/></trkpt><trkpt lat="59.11226034164429" lon="30.498368740081787"><time>2026-08-20T07:26:37.000Z</time><extensions/></trkpt><trkpt lat="59.11215305328369" lon="30.49826145172119"><time>2026-08-20T07:26:57.000Z</time><extensions/></trkpt><trkpt lat="59.11211013793945" lon="30.498239994049072"><time>2026-08-20T07:27:07.000Z</time><extensions/></trkpt><trkpt lat="59.112045764923096" lon="30.49826145172119"><time>2026-08-20T07:27:15.000Z</time><extensions/></trkpt><trkpt lat="59.11202430725098" lon="30.49826145172119"><time>2026-08-20T07:27:17.000Z</time><extensions/></trkpt><trkpt lat="59.11200284957886" lon="30.498197078704834"><time>2026-08-20T07:27:20.000Z</time><extensions/></trkpt><trkpt lat="59.112045764923096" lon="30.498132705688477"><time>2026-08-20T07:27:22.000Z</time><extensions/></trkpt><trkpt lat="59.112088680267334" lon="30.498046875"><time>2026-08-20T07:27:25.000Z</time><extensions/></trkpt><trkpt lat="59.11211013793945" lon="30.497982501983643"><time>2026-08-20T07:27:27.000Z</time><extensions/></trkpt><trkpt lat="59.11217451095581" lon="30.497939586639404"><time>2026-08-20T07:27:30.000Z</time><extensions/></trkpt><trkpt lat="59.11219596862793" lon="30.497875213623047"><time>2026-08-20T07:27:32.000Z</time><extensions/></trkpt><trkpt lat="59.11217451095581" lon="30.497918128967285"><time>2026-08-20T07:27:55.000Z</time><extensions/></trkpt><trkpt lat="59.11221742630005" lon="30.497896671295166"><time>2026-08-20T07:28:25.000Z</time><extensions/></trkpt><trkpt lat="59.11213159561157" lon="30.49776792526245"><time>2026-08-20T07:28:40.000Z</time><extensions/></trkpt><trkpt lat="59.112088680267334" lon="30.49783229827881"><time>2026-08-20T07:28:45.000Z</time><extensions/></trkpt><trkpt lat="59.112088680267334" lon="30.497896671295166"><time>2026-08-20T07:28:47.000Z</time><extensions/></trkpt><trkpt lat="59.112067222595215" lon="30.497961044311523"><time>2026-08-20T07:28:50.000Z</time><extensions/></trkpt><trkpt lat="59.112067222595215" lon="30.49802541732788"><time>2026-08-20T07:28:52.000Z</time><extensions/></trkpt><trkpt lat="59.11202430725098" lon="30.49808979034424"><time>2026-08-20T07:28:55.000Z</time><extensions/></trkpt><trkpt lat="59.11198139190674" lon="30.49806833267212"><time>2026-08-20T07:28:57.000Z</time><extensions/></trkpt><trkpt lat="59.111831188201904" lon="30.49778938293457"><time>2026-08-20T07:29:25.000Z</time><extensions/></trkpt><trkpt lat="59.111788272857666" lon="30.497746467590332"><time>2026-08-20T07:29:27.000Z</time><extensions/></trkpt><trkpt lat="59.111809730529785" lon="30.497682094573975"><time>2026-08-20T07:29:30.000Z</time><extensions/></trkpt><trkpt lat="59.11185264587402" lon="30.497596263885498"><time>2026-08-20T07:29:32.000Z</time><extensions/></trkpt><trkpt lat="59.11189556121826" lon="30.49751043319702"><time>2026-08-20T07:29:35.000Z</time><extensions/></trkpt><trkpt lat="59.11198139190674" lon="30.497467517852783"><time>2026-08-20T07:29:37.000Z</time><extensions/></trkpt><trkpt lat="59.11202430725098" lon="30.49729585647583"><time>2026-08-20T07:29:40.000Z</time><extensions/></trkpt><trkpt lat="59.112088680267334" lon="30.497188568115234"><time>2026-08-20T07:29:42.000Z</time><extensions/></trkpt><trkpt lat="59.11217451095581" lon="30.497145652770996"><time>2026-08-20T07:29:50.000Z</time><extensions/></trkpt><trkpt lat="59.11219596862793" lon="30.497188568115234"><time>2026-08-20T07:29:52.000Z</time><extensions/></trkpt><trkpt lat="59.11213159561157" lon="30.497252941131592"><time>2026-08-20T07:29:55.000Z</time><extensions/></trkpt><trkpt lat="59.112067222595215" lon="30.49727439880371"><time>2026-08-20T07:29:57.000Z</time><extensions/></trkpt><trkpt lat="59.11202430725098" lon="30.497360229492188"><time>2026-08-20T07:30:00.000Z</time><extensions/></trkpt><trkpt lat="59.11202430725098" lon="30.497381687164307"><time>2026-08-20T07:30:02.000Z</time><extensions/></trkpt><trkpt lat="59.112045764923096" lon="30.497488975524902"><time>2026-08-20T07:30:05.000Z</time><extensions/></trkpt><trkpt lat="59.112067222595215" lon="30.497617721557617"><time>2026-08-20T07:30:07.000Z</time><extensions/></trkpt><trkpt lat="59.112067222595215" lon="30.497746467590332"><time>2026-08-20T07:30:10.000Z</time><extensions/></trkpt><trkpt lat="59.11200284957886" lon="30.49778938293457"><time>2026-08-20T07:30:12.000Z</time><extensions/></trkpt><trkpt lat="59.11191701889038" lon="30.49776792526245"><time>2026-08-20T07:30:15.000Z</time><extensions/></trkpt><trkpt lat="59.11187410354614" lon="30.497660636901855"><time>2026-08-20T07:30:17.000Z</time><extensions/></trkpt><trkpt lat="59.11189556121826" lon="30.497488975524902"><time>2026-08-20T07:30:27.000Z</time><extensions/></trkpt><trkpt lat="59.11195993423462" lon="30.49733877182007"><time>2026-08-20T07:30:30.000Z</time><extensions/></trkpt><trkpt lat="59.11200284957886" lon="30.497231483459473"><time>2026-08-20T07:30:32.000Z</time><extensions/></trkpt><trkpt lat="59.112067222595215" lon="30.497124195098877"><time>2026-08-20T07:30:35.000Z</time><extensions/></trkpt><trkpt lat="59.11211013793945" lon="30.49701690673828"><time>2026-08-20T07:30:37.000Z</time><extensions/></trkpt><trkpt lat="59.11213159561157" lon="30.497124195098877"><time>2026-08-20T07:30:42.000Z</time><extensions/></trkpt><trkpt lat="59.11215305328369" lon="30.49727439880371"><time>2026-08-20T07:30:50.000Z</time><extensions/></trkpt><trkpt lat="59.11217451095581" lon="30.497360229492188"><time>2026-08-20T07:30:52.000Z</time><extensions/></trkpt><trkpt lat="59.11223888397217" lon="30.49733877182007"><time>2026-08-20T07:30:55.000Z</time><extensions/></trkpt><trkpt lat="59.112281799316406" lon="30.49733877182007"><time>2026-08-20T07:30:57.000Z</time><extensions/></trkpt><trkpt lat="59.11226034164429" lon="30.497381687164307"><time>2026-08-20T07:31:00.000Z</time><extensions/></trkpt><trkpt lat="59.11221742630005" lon="30.497403144836426"><time>2026-08-20T07:31:02.000Z</time><extensions/></trkpt><trkpt lat="59.11217451095581" lon="30.497403144836426"><time>2026-08-20T07:31:05.000Z</time><extensions/></trkpt><trkpt lat="59.11215305328369" lon="30.497424602508545"><time>2026-08-20T07:31:07.000Z</time><extensions/></trkpt><trkpt lat="59.11217451095581" lon="30.49753189086914"><time>2026-08-20T07:31:10.000Z</time><extensions/></trkpt><trkpt lat="59.11221742630005" lon="30.497617721557617"><time>2026-08-20T07:31:25.000Z</time><extensions/></trkpt><trkpt lat="59.11217451095581" lon="30.497467517852783"><time>2026-08-20T07:31:32.000Z</time><extensions/></trkpt><trkpt lat="59.11215305328369" lon="30.497446060180664"><time>2026-08-20T07:31:35.000Z</time><extensions/></trkpt><trkpt lat="59.11211013793945" lon="30.497381687164307"><time>2026-08-20T07:31:37.000Z</time><extensions/></trkpt><trkpt lat="59.11211013793945" lon="30.49733877182007"><time>2026-08-20T07:31:40.000Z</time><extensions/></trkpt><trkpt lat="59.112088680267334" lon="30.49729585647583"><time>2026-08-20T07:31:42.000Z</time><extensions/></trkpt><trkpt lat="59.112088680267334" lon="30.497231483459473"><time>2026-08-20T07:31:45.000Z</time><extensions/></trkpt><trkpt lat="59.112088680267334" lon="30.497167110443115"><time>2026-08-20T07:31:47.000Z</time><extensions/></trkpt><trkpt lat="59.112088680267334" lon="30.49701690673828"><time>2026-08-20T07:31:57.000Z</time><extensions/></trkpt><trkpt lat="59.112045764923096" lon="30.496888160705566"><time>2026-08-20T07:32:05.000Z</time><extensions/></trkpt><trkpt lat="59.11200284957886" lon="30.496888160705566"><time>2026-08-20T07:32:07.000Z</time><extensions/></trkpt><trkpt lat="59.1119384765625" lon="30.496931076049805"><time>2026-08-20T07:32:10.000Z</time><extensions/></trkpt><trkpt lat="59.11191701889038" lon="30.496973991394043"><time>2026-08-20T07:32:12.000Z</time><extensions/></trkpt><trkpt lat="59.11185264587402" lon="30.49701690673828"><time>2026-08-20T07:32:15.000Z</time><extensions/></trkpt><trkpt lat="59.111831188201904" lon="30.49708127975464"><time>2026-08-20T07:32:17.000Z</time><extensions/></trkpt><trkpt lat="59.111788272857666" lon="30.497188568115234"><time>2026-08-20T07:32:20.000Z</time><extensions/></trkpt><trkpt lat="59.11176681518555" lon="30.497252941131592"><time>2026-08-20T07:32:22.000Z</time><extensions/></trkpt><trkpt lat="59.11172389984131" lon="30.49731731414795"><time>2026-08-20T07:32:25.000Z</time><extensions/></trkpt><trkpt lat="59.11172389984131" lon="30.497424602508545"><time>2026-08-20T07:32:27.000Z</time><extensions/></trkpt><trkpt lat="59.11176681518555" lon="30.497467517852783"><time>2026-08-20T07:32:30.000Z</time><extensions/></trkpt><trkpt lat="59.11185264587402" lon="30.497488975524902"><time>2026-08-20T07:32:32.000Z</time><extensions/></trkpt><trkpt lat="59.11191701889038" lon="30.497446060180664"><time>2026-08-20T07:32:35.000Z</time><extensions/></trkpt><trkpt lat="59.11200284957886" lon="30.497360229492188"><time>2026-08-20T07:32:37.000Z</time><extensions/></trkpt><trkpt lat="59.112045764923096" lon="30.49727439880371"><time>2026-08-20T07:32:40.000Z</time><extensions/></trkpt><trkpt lat="59.11211013793945" lon="30.497210025787354"><time>2026-08-20T07:32:42.000Z</time><extensions/></trkpt><trkpt lat="59.11213159561157" lon="30.49705982208252"><time>2026-08-20T07:33:07.000Z</time><extensions/></trkpt><trkpt lat="59.11211013793945" lon="30.496973991394043"><time>2026-08-20T07:33:10.000Z</time><extensions/></trkpt><trkpt lat="59.11211013793945" lon="30.496888160705566"><time>2026-08-20T07:33:12.000Z</time><extensions/></trkpt><trkpt lat="59.11213159561157" lon="30.496845245361328"><time>2026-08-20T07:33:15.000Z</time><extensions/></trkpt><trkpt lat="59.11215305328369" lon="30.496652126312256"><time>2026-08-20T07:33:30.000Z</time><extensions/></trkpt><trkpt lat="59.11213159561157" lon="30.496609210968018"><time>2026-08-20T07:33:32.000Z</time><extensions/></trkpt><trkpt lat="59.112088680267334" lon="30.4965877532959"><time>2026-08-20T07:33:35.000Z</time><extensions/></trkpt><trkpt lat="59.112067222595215" lon="30.49656629562378"><time>2026-08-20T07:33:37.000Z</time><extensions/></trkpt><trkpt lat="59.112045764923096" lon="30.496480464935303"><time>2026-08-20T07:33:40.000Z</time><extensions/></trkpt><trkpt lat="59.112045764923096" lon="30.496394634246826"><time>2026-08-20T07:33:42.000Z</time><extensions/></trkpt><trkpt lat="59.11200284957886" lon="30.49630880355835"><time>2026-08-20T07:33:47.000Z</time><extensions/></trkpt><trkpt lat="59.11187410354614" lon="30.49628734588623"><time>2026-08-20T07:34:02.000Z</time><extensions/></trkpt><trkpt lat="59.11185264587402" lon="30.496222972869873"><time>2026-08-20T07:34:05.000Z</time><extensions/></trkpt><trkpt lat="59.111809730529785" lon="30.496137142181396"><time>2026-08-20T07:34:07.000Z</time><extensions/></trkpt><trkpt lat="59.11185264587402" lon="30.496137142181396"><time>2026-08-20T07:34:10.000Z</time><extensions/></trkpt><trkpt lat="59.11187410354614" lon="30.496115684509277"><time>2026-08-20T07:34:12.000Z</time><extensions/></trkpt><trkpt lat="59.11191701889038" lon="30.49605131149292"><time>2026-08-20T07:34:15.000Z</time><extensions/></trkpt><trkpt lat="59.11195993423462" lon="30.49605131149292"><time>2026-08-20T07:34:17.000Z</time><extensions/></trkpt><trkpt lat="59.11202430725098" lon="30.49605131149292"><time>2026-08-20T07:34:20.000Z</time><extensions/></trkpt><trkpt lat="59.112045764923096" lon="30.49600839614868"><time>2026-08-20T07:34:22.000Z</time><extensions/></trkpt><trkpt lat="59.112045764923096" lon="30.495944023132324"><time>2026-08-20T07:34:25.000Z</time><extensions/></trkpt><trkpt lat="59.11211013793945" lon="30.49583673477173"><time>2026-08-20T07:34:35.000Z</time><extensions/></trkpt><trkpt lat="59.11213159561157" lon="30.49577236175537"><time>2026-08-20T07:34:37.000Z</time><extensions/></trkpt><trkpt lat="59.112088680267334" lon="30.495750904083252"><time>2026-08-20T07:34:40.000Z</time><extensions/></trkpt><trkpt lat="59.112067222595215" lon="30.495707988739014"><time>2026-08-20T07:34:42.000Z</time><extensions/></trkpt><trkpt lat="59.11202430725098" lon="30.495665073394775"><time>2026-08-20T07:34:45.000Z</time><extensions/></trkpt><trkpt lat="59.112045764923096" lon="30.495600700378418"><time>2026-08-20T07:34:47.000Z</time><extensions/></trkpt><trkpt lat="59.11202430725098" lon="30.49555778503418"><time>2026-08-20T07:34:50.000Z</time><extensions/></trkpt><trkpt lat="59.11200284957886" lon="30.4955792427063"><time>2026-08-20T07:34:52.000Z</time><extensions/></trkpt><trkpt lat="59.11195993423462" lon="30.495622158050537"><time>2026-08-20T07:34:55.000Z</time><extensions/></trkpt><trkpt lat="59.1119384765625" lon="30.495665073394775"><time>2026-08-20T07:34:57.000Z</time><extensions/></trkpt><trkpt lat="59.111831188201904" lon="30.495707988739014"><time>2026-08-20T07:35:10.000Z</time><extensions/></trkpt><trkpt lat="59.111788272857666" lon="30.495665073394775"><time>2026-08-20T07:35:12.000Z</time><extensions/></trkpt><trkpt lat="59.11176681518555" lon="30.495686531066895"><time>2026-08-20T07:35:15.000Z</time><extensions/></trkpt><trkpt lat="59.111788272857666" lon="30.495729446411133"><time>2026-08-20T07:35:17.000Z</time><extensions/></trkpt><trkpt lat="59.111831188201904" lon="30.495729446411133"><time>2026-08-20T07:35:20.000Z</time><extensions/></trkpt><trkpt lat="59.11189556121826" lon="30.495707988739014"><time>2026-08-20T07:35:22.000Z</time><extensions/></trkpt><trkpt lat="59.11195993423462" lon="30.495600700378418"><time>2026-08-20T07:35:25.000Z</time><extensions/></trkpt><trkpt lat="59.11198139190674" lon="30.495493412017822"><time>2026-08-20T07:35:27.000Z</time><extensions/></trkpt><trkpt lat="59.11198139190674" lon="30.495429039001465"><time>2026-08-20T07:35:30.000Z</time><extensions/></trkpt><trkpt lat="59.11198139190674" lon="30.495386123657227"><time>2026-08-20T07:35:52.000Z</time><extensions/></trkpt><trkpt lat="59.11200284957886" lon="30.49534320831299"><time>2026-08-20T07:35:55.000Z</time><extensions/></trkpt><trkpt lat="59.112045764923096" lon="30.49527883529663"><time>2026-08-20T07:35:57.000Z</time><extensions/></trkpt><trkpt lat="59.11202430725098" lon="30.495193004608154"><time>2026-08-20T07:36:00.000Z</time><extensions/></trkpt><trkpt lat="59.11200284957886" lon="30.495150089263916"><time>2026-08-20T07:36:02.000Z</time><extensions/></trkpt><trkpt lat="59.11195993423462" lon="30.495107173919678"><time>2026-08-20T07:36:05.000Z</time><extensions/></trkpt><trkpt lat="59.11191701889038" lon="30.49508571624756"><time>2026-08-20T07:36:07.000Z</time><extensions/></trkpt><trkpt lat="59.11189556121826" lon="30.49508571624756"><time>2026-08-20T07:36:10.000Z</time><extensions/></trkpt><trkpt lat="59.11189556121826" lon="30.49506425857544"><time>2026-08-20T07:36:12.000Z</time><extensions/></trkpt><trkpt lat="59.11195993423462" lon="30.495193004608154"><time>2026-08-20T07:36:17.000Z</time><extensions/></trkpt><trkpt lat="59.11198139190674" lon="30.495235919952393"><time>2026-08-20T07:36:20.000Z</time><extensions/></trkpt><trkpt lat="59.11202430725098" lon="30.495128631591797"><time>2026-08-20T07:36:25.000Z</time><extensions/></trkpt><trkpt lat="59.112045764923096" lon="30.49506425857544"><time>2026-08-20T07:36:27.000Z</time><extensions/></trkpt><trkpt lat="59.112045764923096" lon="30.494999885559082"><time>2026-08-20T07:36:30.000Z</time><extensions/></trkpt><trkpt lat="59.11202430725098" lon="30.494978427886963"><time>2026-08-20T07:36:32.000Z</time><extensions/></trkpt><trkpt lat="59.11198139190674" lon="30.494935512542725"><time>2026-08-20T07:36:35.000Z</time><extensions/></trkpt><trkpt lat="59.11195993423462" lon="30.494914054870605"><time>2026-08-20T07:36:37.000Z</time><extensions/></trkpt><trkpt lat="59.11191701889038" lon="30.494871139526367"><time>2026-08-20T07:36:40.000Z</time><extensions/></trkpt><trkpt lat="59.11191701889038" lon="30.49480676651001"><time>2026-08-20T07:36:42.000Z</time><extensions/></trkpt><trkpt lat="59.11191701889038" lon="30.49476385116577"><time>2026-08-20T07:36:45.000Z</time><extensions/></trkpt><trkpt lat="59.11189556121826" lon="30.49480676651001"><time>2026-08-20T07:36:47.000Z</time><extensions/></trkpt><trkpt lat="59.11185264587402" lon="30.494699478149414"><time>2026-08-20T07:37:05.000Z</time><extensions/></trkpt><trkpt lat="59.11189556121826" lon="30.494678020477295"><time>2026-08-20T07:37:07.000Z</time><extensions/></trkpt><trkpt lat="59.11198139190674" lon="30.494635105133057"><time>2026-08-20T07:37:15.000Z</time><extensions/></trkpt><trkpt lat="59.11195993423462" lon="30.49454927444458"><time>2026-08-20T07:37:17.000Z</time><extensions/></trkpt><trkpt lat="59.1119384765625" lon="30.494441986083984"><time>2026-08-20T07:37:20.000Z</time><extensions/></trkpt><trkpt lat="59.11191701889038" lon="30.494356155395508"><time>2026-08-20T07:37:22.000Z</time><extensions/></trkpt><trkpt lat="59.1119384765625" lon="30.49427032470703"><time>2026-08-20T07:37:25.000Z</time><extensions/></trkpt><trkpt lat="59.11189556121826" lon="30.494205951690674"><time>2026-08-20T07:37:27.000Z</time><extensions/></trkpt><trkpt lat="59.11187410354614" lon="30.49427032470703"><time>2026-08-20T07:37:35.000Z</time><extensions/></trkpt><trkpt lat="59.11189556121826" lon="30.49431324005127"><time>2026-08-20T07:37:37.000Z</time><extensions/></trkpt><trkpt lat="59.1119384765625" lon="30.49433469772339"><time>2026-08-20T07:37:40.000Z</time><extensions/></trkpt><trkpt lat="59.1119384765625" lon="30.494377613067627"><time>2026-08-20T07:37:42.000Z</time><extensions/></trkpt><trkpt lat="59.11189556121826" lon="30.49433469772339"><time>2026-08-20T07:37:50.000Z</time><extensions/></trkpt><trkpt lat="59.11185264587402" lon="30.494205951690674"><time>2026-08-20T07:37:55.000Z</time><extensions/></trkpt><trkpt lat="59.111831188201904" lon="30.494227409362793"><time>2026-08-20T07:38:22.000Z</time><extensions/></trkpt><trkpt lat="59.11185264587402" lon="30.494184494018555"><time>2026-08-20T07:38:52.000Z</time><extensions/></trkpt><trkpt lat="59.11185264587402" lon="30.494184494018555"><time>2026-08-20T07:39:22.000Z</time><extensions/></trkpt><trkpt lat="59.11187410354614" lon="30.494141578674316"><time>2026-08-20T07:39:32.000Z</time><extensions/></trkpt><trkpt lat="59.11191701889038" lon="30.49403429031372"><time>2026-08-20T07:39:37.000Z</time><extensions/></trkpt><trkpt lat="59.1119384765625" lon="30.4940128326416"><time>2026-08-20T07:39:40.000Z</time><extensions/></trkpt><trkpt lat="59.11189556121826" lon="30.493969917297363"><time>2026-08-20T07:39:45.000Z</time><extensions/></trkpt><trkpt lat="59.11187410354614" lon="30.493905544281006"><time>2026-08-20T07:39:47.000Z</time><extensions/></trkpt><trkpt lat="59.11185264587402" lon="30.493884086608887"><time>2026-08-20T07:39:50.000Z</time><extensions/></trkpt><trkpt lat="59.111809730529785" lon="30.493884086608887"><time>2026-08-20T07:39:52.000Z</time><extensions/></trkpt><trkpt lat="59.111809730529785" lon="30.493927001953125"><time>2026-08-20T07:39:57.000Z</time><extensions/></trkpt><trkpt lat="59.11176681518555" lon="30.49381971359253"><time>2026-08-20T07:40:05.000Z</time><extensions/></trkpt><trkpt lat="59.11172389984131" lon="30.493755340576172"><time>2026-08-20T07:40:12.000Z</time><extensions/></trkpt><trkpt lat="59.11176681518555" lon="30.493626594543457"><time>2026-08-20T07:40:15.000Z</time><extensions/></trkpt><trkpt lat="59.111809730529785" lon="30.493605136871338"><time>2026-08-20T07:40:17.000Z</time><extensions/></trkpt><trkpt lat="59.11185264587402" lon="30.493648052215576"><time>2026-08-20T07:40:20.000Z</time><extensions/></trkpt><trkpt lat="59.11185264587402" lon="30.493669509887695"><time>2026-08-20T07:40:22.000Z</time><extensions/></trkpt><trkpt lat="59.11187410354614" lon="30.49379825592041"><time>2026-08-20T07:40:25.000Z</time><extensions/></trkpt><trkpt lat="59.11189556121826" lon="30.493862628936768"><time>2026-08-20T07:40:27.000Z</time><extensions/></trkpt><trkpt lat="59.11191701889038" lon="30.49384117126465"><time>2026-08-20T07:40:30.000Z</time><extensions/></trkpt><trkpt lat="59.1119384765625" lon="30.49379825592041"><time>2026-08-20T07:40:32.000Z</time><extensions/></trkpt><trkpt lat="59.11191701889038" lon="30.49381971359253"><time>2026-08-20T07:40:35.000Z</time><extensions/></trkpt><trkpt lat="59.11187410354614" lon="30.49379825592041"><time>2026-08-20T07:40:37.000Z</time><extensions/></trkpt><trkpt lat="59.11185264587402" lon="30.493712425231934"><time>2026-08-20T07:40:40.000Z</time><extensions/></trkpt><trkpt lat="59.111809730529785" lon="30.493712425231934"><time>2026-08-20T07:40:42.000Z</time><extensions/></trkpt><trkpt lat="59.111788272857666" lon="30.493712425231934"><time>2026-08-20T07:40:45.000Z</time><extensions/></trkpt><trkpt lat="59.11172389984131" lon="30.493755340576172"><time>2026-08-20T07:40:50.000Z</time><extensions/></trkpt><trkpt lat="59.11174535751343" lon="30.49377679824829"><time>2026-08-20T07:40:52.000Z</time><extensions/></trkpt><trkpt lat="59.11170244216919" lon="30.493648052215576"><time>2026-08-20T07:40:57.000Z</time><extensions/></trkpt><trkpt lat="59.11163806915283" lon="30.493497848510742"><time>2026-08-20T07:41:00.000Z</time><extensions/></trkpt><trkpt lat="59.11161661148071" lon="30.493433475494385"><time>2026-08-20T07:41:02.000Z</time><extensions/></trkpt><trkpt lat="59.11161661148071" lon="30.493347644805908"><time>2026-08-20T07:41:05.000Z</time><extensions/></trkpt><trkpt lat="59.11165952682495" lon="30.49326181411743"><time>2026-08-20T07:41:07.000Z</time><extensions/></trkpt><trkpt lat="59.11172389984131" lon="30.493240356445312"><time>2026-08-20T07:41:10.000Z</time><extensions/></trkpt><trkpt lat="59.111788272857666" lon="30.493218898773193"><time>2026-08-20T07:41:12.000Z</time><extensions/></trkpt><trkpt lat="59.111788272857666" lon="30.49332618713379"><time>2026-08-20T07:41:15.000Z</time><extensions/></trkpt><trkpt lat="59.111809730529785" lon="30.493412017822266"><time>2026-08-20T07:41:17.000Z</time><extensions/></trkpt><trkpt lat="59.111809730529785" lon="30.493347644805908"><time>2026-08-20T07:41:25.000Z</time><extensions/></trkpt><trkpt lat="59.111831188201904" lon="30.49326181411743"><time>2026-08-20T07:41:30.000Z</time><extensions/></trkpt><trkpt lat="59.11185264587402" lon="30.493197441101074"><time>2026-08-20T07:41:32.000Z</time><extensions/></trkpt><trkpt lat="59.111831188201904" lon="30.493218898773193"><time>2026-08-20T07:41:35.000Z</time><extensions/></trkpt><trkpt lat="59.1119384765625" lon="30.493197441101074"><time>2026-08-20T07:41:55.000Z</time><extensions/></trkpt><trkpt lat="59.11198139190674" lon="30.493133068084717"><time>2026-08-20T07:41:57.000Z</time><extensions/></trkpt><trkpt lat="59.11198139190674" lon="30.49302577972412"><time>2026-08-20T07:42:00.000Z</time><extensions/></trkpt><trkpt lat="59.11195993423462" lon="30.492961406707764"><time>2026-08-20T07:42:02.000Z</time><extensions/></trkpt><trkpt lat="59.11191701889038" lon="30.49306869506836"><time>2026-08-20T07:42:07.000Z</time><extensions/></trkpt><trkpt lat="59.11191701889038" lon="30.493111610412598"><time>2026-08-20T07:42:10.000Z</time><extensions/></trkpt><trkpt lat="59.11198139190674" lon="30.493133068084717"><time>2026-08-20T07:42:27.000Z</time><extensions/></trkpt><trkpt lat="59.11200284957886" lon="30.493154525756836"><time>2026-08-20T07:42:30.000Z</time><extensions/></trkpt><trkpt lat="59.11202430725098" lon="30.493133068084717"><time>2026-08-20T07:42:32.000Z</time><extensions/></trkpt><trkpt lat="59.112067222595215" lon="30.493111610412598"><time>2026-08-20T07:42:35.000Z</time><extensions/></trkpt><trkpt lat="59.11211013793945" lon="30.49306869506836"><time>2026-08-20T07:42:37.000Z</time><extensions/></trkpt><trkpt lat="59.11211013793945" lon="30.493004322052002"><time>2026-08-20T07:42:42.000Z</time><extensions/></trkpt><trkpt lat="59.11211013793945" lon="30.492939949035645"><time>2026-08-20T07:42:45.000Z</time><extensions/></trkpt><trkpt lat="59.11211013793945" lon="30.492875576019287"><time>2026-08-20T07:42:47.000Z</time><extensions/></trkpt><trkpt lat="59.11211013793945" lon="30.49276828765869"><time>2026-08-20T07:42:50.000Z</time><extensions/></trkpt><trkpt lat="59.112088680267334" lon="30.492660999298096"><time>2026-08-20T07:42:52.000Z</time><extensions/></trkpt><trkpt lat="59.11202430725098" lon="30.492660999298096"><time>2026-08-20T07:42:55.000Z</time><extensions/></trkpt><trkpt lat="59.11200284957886" lon="30.492746829986572"><time>2026-08-20T07:42:57.000Z</time><extensions/></trkpt><trkpt lat="59.11200284957886" lon="30.492854118347168"><time>2026-08-20T07:43:00.000Z</time><extensions/></trkpt><trkpt lat="59.11200284957886" lon="30.492982864379883"><time>2026-08-20T07:43:02.000Z</time><extensions/></trkpt><trkpt lat="59.11198139190674" lon="30.492961406707764"><time>2026-08-20T07:43:05.000Z</time><extensions/></trkpt><trkpt lat="59.11195993423462" lon="30.492918491363525"><time>2026-08-20T07:43:07.000Z</time><extensions/></trkpt><trkpt lat="59.11189556121826" lon="30.492854118347168"><time>2026-08-20T07:43:10.000Z</time><extensions/></trkpt><trkpt lat="59.11187410354614" lon="30.492746829986572"><time>2026-08-20T07:43:12.000Z</time><extensions/></trkpt><trkpt lat="59.111831188201904" lon="30.492682456970215"><time>2026-08-20T07:43:15.000Z</time><extensions/></trkpt><trkpt lat="59.111809730529785" lon="30.492639541625977"><time>2026-08-20T07:43:17.000Z</time><extensions/></trkpt><trkpt lat="59.11174535751343" lon="30.49257516860962"><time>2026-08-20T07:43:25.000Z</time><extensions/></trkpt><trkpt lat="59.11174535751343" lon="30.49253225326538"><time>2026-08-20T07:43:27.000Z</time><extensions/></trkpt><trkpt lat="59.111788272857666" lon="30.49251079559326"><time>2026-08-20T07:43:30.000Z</time><extensions/></trkpt><trkpt lat="59.111809730529785" lon="30.492467880249023"><time>2026-08-20T07:43:32.000Z</time><extensions/></trkpt><trkpt lat="59.11185264587402" lon="30.492467880249023"><time>2026-08-20T07:43:35.000Z</time><extensions/></trkpt><trkpt lat="59.11187410354614" lon="30.49251079559326"><time>2026-08-20T07:43:37.000Z</time><extensions/></trkpt><trkpt lat="59.11189556121826" lon="30.49251079559326"><time>2026-08-20T07:43:40.000Z</time><extensions/></trkpt><trkpt lat="59.11189556121826" lon="30.492618083953857"><time>2026-08-20T07:44:10.000Z</time><extensions/></trkpt><trkpt lat="59.11189556121826" lon="30.492639541625977"><time>2026-08-20T07:44:30.000Z</time><extensions/></trkpt><trkpt lat="59.11187410354614" lon="30.492660999298096"><time>2026-08-20T07:45:00.000Z</time><extensions/></trkpt><trkpt lat="59.11189556121826" lon="30.492660999298096"><time>2026-08-20T07:45:05.000Z</time><extensions/></trkpt><trkpt lat="59.11191701889038" lon="30.492618083953857"><time>2026-08-20T07:45:07.000Z</time><extensions/></trkpt><trkpt lat="59.1119384765625" lon="30.4925537109375"><time>2026-08-20T07:45:10.000Z</time><extensions/></trkpt><trkpt lat="59.11191701889038" lon="30.49251079559326"><time>2026-08-20T07:45:12.000Z</time><extensions/></trkpt><trkpt lat="59.11195993423462" lon="30.49233913421631"><time>2026-08-20T07:45:22.000Z</time><extensions/></trkpt><trkpt lat="59.11198139190674" lon="30.49229621887207"><time>2026-08-20T07:45:35.000Z</time><extensions/></trkpt><trkpt lat="59.11198139190674" lon="30.49227476119995"><time>2026-08-20T07:45:37.000Z</time><extensions/></trkpt><trkpt lat="59.11200284957886" lon="30.49233913421631"><time>2026-08-20T07:45:40.000Z</time><extensions/></trkpt><trkpt lat="59.11202430725098" lon="30.492403507232666"><time>2026-08-20T07:45:42.000Z</time><extensions/></trkpt><trkpt lat="59.11202430725098" lon="30.492489337921143"><time>2026-08-20T07:45:45.000Z</time><extensions/></trkpt><trkpt lat="59.11198139190674" lon="30.49251079559326"><time>2026-08-20T07:45:47.000Z</time><extensions/></trkpt><trkpt lat="59.11195993423462" lon="30.492467880249023"><time>2026-08-20T07:45:50.000Z</time><extensions/></trkpt><trkpt lat="59.1119384765625" lon="30.492403507232666"><time>2026-08-20T07:45:52.000Z</time><extensions/></trkpt><trkpt lat="59.1119384765625" lon="30.49233913421631"><time>2026-08-20T07:45:55.000Z</time><extensions/></trkpt><trkpt lat="59.11191701889038" lon="30.49233913421631"><time>2026-08-20T07:45:57.000Z</time><extensions/></trkpt><trkpt lat="59.11187410354614" lon="30.492403507232666"><time>2026-08-20T07:46:02.000Z</time><extensions/></trkpt><trkpt lat="59.11185264587402" lon="30.4925537109375"><time>2026-08-20T07:46:20.000Z</time><extensions/></trkpt><trkpt lat="59.11185264587402" lon="30.49251079559326"><time>2026-08-20T07:46:25.000Z</time><extensions/></trkpt><trkpt lat="59.111809730529785" lon="30.492467880249023"><time>2026-08-20T07:46:27.000Z</time><extensions/></trkpt><trkpt lat="59.11176681518555" lon="30.49231767654419"><time>2026-08-20T07:46:35.000Z</time><extensions/></trkpt><trkpt lat="59.11174535751343" lon="30.49229621887207"><time>2026-08-20T07:46:37.000Z</time><extensions/></trkpt><trkpt lat="59.11172389984131" lon="30.492446422576904"><time>2026-08-20T07:46:47.000Z</time><extensions/></trkpt><trkpt lat="59.11174535751343" lon="30.4925537109375"><time>2026-08-20T07:46:50.000Z</time><extensions/></trkpt><trkpt lat="59.11176681518555" lon="30.49259662628174"><time>2026-08-20T07:46:52.000Z</time><extensions/></trkpt><trkpt lat="59.111788272857666" lon="30.49257516860962"><time>2026-08-20T07:46:55.000Z</time><extensions/></trkpt><trkpt lat="59.111831188201904" lon="30.49259662628174"><time>2026-08-20T07:46:57.000Z</time><extensions/></trkpt><trkpt lat="59.11185264587402" lon="30.49257516860962"><time>2026-08-20T07:47:00.000Z</time><extensions/></trkpt><trkpt lat="59.11185264587402" lon="30.49253225326538"><time>2026-08-20T07:47:02.000Z</time><extensions/></trkpt><trkpt lat="59.11189556121826" lon="30.492382049560547"><time>2026-08-20T07:47:07.000Z</time><extensions/></trkpt><trkpt lat="59.11195993423462" lon="30.49229621887207"><time>2026-08-20T07:47:10.000Z</time><extensions/></trkpt><trkpt lat="59.11202430725098" lon="30.49227476119995"><time>2026-08-20T07:47:20.000Z</time><extensions/></trkpt><trkpt lat="59.112088680267334" lon="30.49227476119995"><time>2026-08-20T07:47:27.000Z</time><extensions/></trkpt><trkpt lat="59.11215305328369" lon="30.492446422576904"><time>2026-08-20T07:47:37.000Z</time><extensions/></trkpt><trkpt lat="59.11217451095581" lon="30.49251079559326"><time>2026-08-20T07:47:40.000Z</time><extensions/></trkpt><trkpt lat="59.11215305328369" lon="30.49257516860962"><time>2026-08-20T07:47:42.000Z</time><extensions/></trkpt><trkpt lat="59.11211013793945" lon="30.492618083953857"><time>2026-08-20T07:47:45.000Z</time><extensions/></trkpt><trkpt lat="59.112067222595215" lon="30.4925537109375"><time>2026-08-20T07:47:47.000Z</time><extensions/></trkpt><trkpt lat="59.11198139190674" lon="30.49257516860962"><time>2026-08-20T07:47:50.000Z</time><extensions/></trkpt><trkpt lat="59.11191701889038" lon="30.49257516860962"><time>2026-08-20T07:47:52.000Z</time><extensions/></trkpt><trkpt lat="59.11187410354614" lon="30.492618083953857"><time>2026-08-20T07:47:55.000Z</time><extensions/></trkpt><trkpt lat="59.11176681518555" lon="30.492703914642334"><time>2026-08-20T07:48:12.000Z</time><extensions/></trkpt><trkpt lat="59.11174535751343" lon="30.49278974533081"><time>2026-08-20T07:48:20.000Z</time><extensions/></trkpt><trkpt lat="59.11172389984131" lon="30.49283266067505"><time>2026-08-20T07:48:22.000Z</time><extensions/></trkpt><trkpt lat="59.11168098449707" lon="30.49283266067505"><time>2026-08-20T07:48:25.000Z</time><extensions/></trkpt><trkpt lat="59.11163806915283" lon="30.49283266067505"><time>2026-08-20T07:48:27.000Z</time><extensions/></trkpt><trkpt lat="59.111595153808594" lon="30.49278974533081"><time>2026-08-20T07:48:30.000Z</time><extensions/></trkpt><trkpt lat="59.111552238464355" lon="30.492746829986572"><time>2026-08-20T07:48:32.000Z</time><extensions/></trkpt><trkpt lat="59.111337661743164" lon="30.49259662628174"><time>2026-08-20T07:48:42.000Z</time><extensions/></trkpt><trkpt lat="59.11116600036621" lon="30.49251079559326"><time>2026-08-20T07:48:47.000Z</time><extensions/></trkpt><trkpt lat="59.111080169677734" lon="30.49251079559326"><time>2026-08-20T07:48:50.000Z</time><extensions/></trkpt><trkpt lat="59.111037254333496" lon="30.4925537109375"><time>2026-08-20T07:48:52.000Z</time><extensions/></trkpt><trkpt lat="59.11101579666138" lon="30.4925537109375"><time>2026-08-20T07:48:55.000Z</time><extensions/></trkpt><trkpt lat="59.11114454269409" lon="30.492446422576904"><time>2026-08-20T07:49:00.000Z</time><extensions/></trkpt><trkpt lat="59.11125183105469" lon="30.492403507232666"><time>2026-08-20T07:49:02.000Z</time><extensions/></trkpt><trkpt lat="59.11135911941528" lon="30.49233913421631"><time>2026-08-20T07:49:05.000Z</time><extensions/></trkpt><trkpt lat="59.11146640777588" lon="30.49231767654419"><time>2026-08-20T07:49:07.000Z</time><extensions/></trkpt><trkpt lat="59.111552238464355" lon="30.49229621887207"><time>2026-08-20T07:49:10.000Z</time><extensions/></trkpt><trkpt lat="59.11163806915283" lon="30.49229621887207"><time>2026-08-20T07:49:12.000Z</time><extensions/></trkpt><trkpt lat="59.11163806915283" lon="30.492360591888428"><time>2026-08-20T07:49:15.000Z</time><extensions/></trkpt><trkpt lat="59.11163806915283" lon="30.492467880249023"><time>2026-08-20T07:49:17.000Z</time><extensions/></trkpt><trkpt lat="59.11163806915283" lon="30.49259662628174"><time>2026-08-20T07:49:20.000Z</time><extensions/></trkpt><trkpt lat="59.11163806915283" lon="30.492703914642334"><time>2026-08-20T07:49:22.000Z</time><extensions/></trkpt><trkpt lat="59.11163806915283" lon="30.49281120300293"><time>2026-08-20T07:49:27.000Z</time><extensions/></trkpt><trkpt lat="59.111552238464355" lon="30.492982864379883"><time>2026-08-20T07:49:37.000Z</time><extensions/></trkpt><trkpt lat="59.111530780792236" lon="30.49306869506836"><time>2026-08-20T07:49:40.000Z</time><extensions/></trkpt><trkpt lat="59.11150932312012" lon="30.493133068084717"><time>2026-08-20T07:49:42.000Z</time><extensions/></trkpt><trkpt lat="59.11150932312012" lon="30.493133068084717"><time>2026-08-20T07:49:45.000Z</time><extensions/></trkpt><trkpt lat="59.111487865448" lon="30.49309015274048"><time>2026-08-20T07:49:47.000Z</time><extensions/></trkpt><trkpt lat="59.11150932312012" lon="30.49309015274048"><time>2026-08-20T07:49:50.000Z</time><extensions/></trkpt><trkpt lat="59.111530780792236" lon="30.493111610412598"><time>2026-08-20T07:49:52.000Z</time><extensions/></trkpt><trkpt lat="59.111530780792236" lon="30.49306869506836"><time>2026-08-20T07:49:55.000Z</time><extensions/></trkpt><trkpt lat="59.111530780792236" lon="30.493004322052002"><time>2026-08-20T07:49:57.000Z</time><extensions/></trkpt><trkpt lat="59.11150932312012" lon="30.492982864379883"><time>2026-08-20T07:50:00.000Z</time><extensions/></trkpt><trkpt lat="59.11144495010376" lon="30.492939949035645"><time>2026-08-20T07:50:02.000Z</time><extensions/></trkpt><trkpt lat="59.11135911941528" lon="30.492982864379883"><time>2026-08-20T07:50:10.000Z</time><extensions/></trkpt><trkpt lat="59.111316204071045" lon="30.493004322052002"><time>2026-08-20T07:50:12.000Z</time><extensions/></trkpt><trkpt lat="59.11125183105469" lon="30.49302577972412"><time>2026-08-20T07:50:15.000Z</time><extensions/></trkpt><trkpt lat="59.11118745803833" lon="30.49304723739624"><time>2026-08-20T07:50:17.000Z</time><extensions/></trkpt><trkpt lat="59.11110162734985" lon="30.493004322052002"><time>2026-08-20T07:50:22.000Z</time><extensions/></trkpt><trkpt lat="59.111080169677734" lon="30.492961406707764"><time>2026-08-20T07:50:25.000Z</time><extensions/></trkpt><trkpt lat="59.11097288131714" lon="30.49283266067505"><time>2026-08-20T07:50:40.000Z</time><extensions/></trkpt><trkpt lat="59.11095142364502" lon="30.49276828765869"><time>2026-08-20T07:50:42.000Z</time><extensions/></trkpt><trkpt lat="59.11090850830078" lon="30.492725372314453"><time>2026-08-20T07:50:45.000Z</time><extensions/></trkpt><trkpt lat="59.11088705062866" lon="30.492682456970215"><time>2026-08-20T07:50:47.000Z</time><extensions/></trkpt><trkpt lat="59.11095142364502" lon="30.492660999298096"><time>2026-08-20T07:50:50.000Z</time><extensions/></trkpt><trkpt lat="59.111080169677734" lon="30.492618083953857"><time>2026-08-20T07:50:52.000Z</time><extensions/></trkpt><trkpt lat="59.11118745803833" lon="30.4925537109375"><time>2026-08-20T07:50:55.000Z</time><extensions/></trkpt><trkpt lat="59.111294746398926" lon="30.492489337921143"><time>2026-08-20T07:50:57.000Z</time><extensions/></trkpt><trkpt lat="59.11142349243164" lon="30.49251079559326"><time>2026-08-20T07:51:05.000Z</time><extensions/></trkpt><trkpt lat="59.11140203475952" lon="30.4925537109375"><time>2026-08-20T07:51:07.000Z</time><extensions/></trkpt><trkpt lat="59.11135911941528" lon="30.492618083953857"><time>2026-08-20T07:51:10.000Z</time><extensions/></trkpt><trkpt lat="59.111294746398926" lon="30.49276828765869"><time>2026-08-20T07:51:32.000Z</time><extensions/></trkpt><trkpt lat="59.11127328872681" lon="30.49281120300293"><time>2026-08-20T07:51:42.000Z</time><extensions/></trkpt><trkpt lat="59.11120891571045" lon="30.492897033691406"><time>2026-08-20T07:51:47.000Z</time><extensions/></trkpt><trkpt lat="59.11116600036621" lon="30.492982864379883"><time>2026-08-20T07:51:50.000Z</time><extensions/></trkpt><trkpt lat="59.111058712005615" lon="30.49304723739624"><time>2026-08-20T07:51:55.000Z</time><extensions/></trkpt><trkpt lat="59.1109299659729" lon="30.493004322052002"><time>2026-08-20T07:52:00.000Z</time><extensions/></trkpt><trkpt lat="59.110844135284424" lon="30.492897033691406"><time>2026-08-20T07:52:10.000Z</time><extensions/></trkpt><trkpt lat="59.110801219940186" lon="30.49283266067505"><time>2026-08-20T07:52:12.000Z</time><extensions/></trkpt><trkpt lat="59.110801219940186" lon="30.49281120300293"><time>2026-08-20T07:52:15.000Z</time><extensions/></trkpt><trkpt lat="59.110822677612305" lon="30.492875576019287"><time>2026-08-20T07:52:17.000Z</time><extensions/></trkpt><trkpt lat="59.11088705062866" lon="30.492982864379883"><time>2026-08-20T07:52:20.000Z</time><extensions/></trkpt><trkpt lat="59.11090850830078" lon="30.49306869506836"><time>2026-08-20T07:52:22.000Z</time><extensions/></trkpt><trkpt lat="59.11095142364502" lon="30.49309015274048"><time>2026-08-20T07:52:25.000Z</time><extensions/></trkpt><trkpt lat="59.11095142364502" lon="30.493111610412598"><time>2026-08-20T07:52:27.000Z</time><extensions/></trkpt><trkpt lat="59.11099433898926" lon="30.493154525756836"><time>2026-08-20T07:52:30.000Z</time><extensions/></trkpt><trkpt lat="59.111080169677734" lon="30.493197441101074"><time>2026-08-20T07:52:32.000Z</time><extensions/></trkpt><trkpt lat="59.11112308502197" lon="30.493240356445312"><time>2026-08-20T07:52:35.000Z</time><extensions/></trkpt><trkpt lat="59.11112308502197" lon="30.49330472946167"><time>2026-08-20T07:52:37.000Z</time><extensions/></trkpt><trkpt lat="59.11112308502197" lon="30.493690967559814"><time>2026-08-20T07:53:00.000Z</time><extensions/></trkpt><trkpt lat="59.11112308502197" lon="30.493733882904053"><time>2026-08-20T07:53:02.000Z</time><extensions/></trkpt><trkpt lat="59.111080169677734" lon="30.49379825592041"><time>2026-08-20T07:53:05.000Z</time><extensions/></trkpt><trkpt lat="59.11110162734985" lon="30.493948459625244"><time>2026-08-20T07:53:10.000Z</time><extensions/></trkpt><trkpt lat="59.111058712005615" lon="30.4940128326416"><time>2026-08-20T07:53:12.000Z</time><extensions/></trkpt><trkpt lat="59.111058712005615" lon="30.493991374969482"><time>2026-08-20T07:53:15.000Z</time><extensions/></trkpt><trkpt lat="59.111037254333496" lon="30.49403429031372"><time>2026-08-20T07:53:20.000Z</time><extensions/></trkpt><trkpt lat="59.111058712005615" lon="30.49407720565796"><time>2026-08-20T07:53:22.000Z</time><extensions/></trkpt><trkpt lat="59.111080169677734" lon="30.494163036346436"><time>2026-08-20T07:53:25.000Z</time><extensions/></trkpt><trkpt lat="59.11112308502197" lon="30.494205951690674"><time>2026-08-20T07:53:27.000Z</time><extensions/></trkpt><trkpt lat="59.11112308502197" lon="30.49431324005127"><time>2026-08-20T07:53:30.000Z</time><extensions/></trkpt><trkpt lat="59.11112308502197" lon="30.494377613067627"><time>2026-08-20T07:53:35.000Z</time><extensions/></trkpt><trkpt lat="59.11116600036621" lon="30.494463443756104"><time>2026-08-20T07:53:37.000Z</time><extensions/></trkpt><trkpt lat="59.11120891571045" lon="30.494463443756104"><time>2026-08-20T07:53:40.000Z</time><extensions/></trkpt><trkpt lat="59.11125183105469" lon="30.494377613067627"><time>2026-08-20T07:53:42.000Z</time><extensions/></trkpt><trkpt lat="59.111294746398926" lon="30.49429178237915"><time>2026-08-20T07:53:45.000Z</time><extensions/></trkpt><trkpt lat="59.11127328872681" lon="30.494184494018555"><time>2026-08-20T07:53:47.000Z</time><extensions/></trkpt><trkpt lat="59.111294746398926" lon="30.494098663330078"><time>2026-08-20T07:53:50.000Z</time><extensions/></trkpt><trkpt lat="59.111294746398926" lon="30.494141578674316"><time>2026-08-20T07:53:55.000Z</time><extensions/></trkpt><trkpt lat="59.111316204071045" lon="30.494184494018555"><time>2026-08-20T07:53:57.000Z</time><extensions/></trkpt><trkpt lat="59.111316204071045" lon="30.49427032470703"><time>2026-08-20T07:54:00.000Z</time><extensions/></trkpt><trkpt lat="59.111337661743164" lon="30.494377613067627"><time>2026-08-20T07:54:02.000Z</time><extensions/></trkpt><trkpt lat="59.1113805770874" lon="30.494441986083984"><time>2026-08-20T07:54:05.000Z</time><extensions/></trkpt><trkpt lat="59.11140203475952" lon="30.494506359100342"><time>2026-08-20T07:54:07.000Z</time><extensions/></trkpt><trkpt lat="59.1113805770874" lon="30.49452781677246"><time>2026-08-20T07:54:10.000Z</time><extensions/></trkpt><trkpt lat="59.11135911941528" lon="30.49454927444458"><time>2026-08-20T07:54:12.000Z</time><extensions/></trkpt><trkpt lat="59.11135911941528" lon="30.494635105133057"><time>2026-08-20T07:54:15.000Z</time><extensions/></trkpt><trkpt lat="59.111316204071045" lon="30.494678020477295"><time>2026-08-20T07:54:17.000Z</time><extensions/></trkpt><trkpt lat="59.111294746398926" lon="30.49478530883789"><time>2026-08-20T07:54:27.000Z</time><extensions/></trkpt><trkpt lat="59.111316204071045" lon="30.494849681854248"><time>2026-08-20T07:54:30.000Z</time><extensions/></trkpt><trkpt lat="59.111316204071045" lon="30.494978427886963"><time>2026-08-20T07:54:35.000Z</time><extensions/></trkpt><trkpt lat="59.111337661743164" lon="30.49504280090332"><time>2026-08-20T07:54:37.000Z</time><extensions/></trkpt><trkpt lat="59.111487865448" lon="30.495193004608154"><time>2026-08-20T07:54:47.000Z</time><extensions/></trkpt><trkpt lat="59.111530780792236" lon="30.495214462280273"><time>2026-08-20T07:54:50.000Z</time><extensions/></trkpt><trkpt lat="59.111595153808594" lon="30.49530029296875"><time>2026-08-20T07:54:52.000Z</time><extensions/></trkpt><trkpt lat="59.11163806915283" lon="30.495407581329346"><time>2026-08-20T07:54:55.000Z</time><extensions/></trkpt><trkpt lat="59.11165952682495" lon="30.49551486968994"><time>2026-08-20T07:54:57.000Z</time><extensions/></trkpt><trkpt lat="59.111573696136475" lon="30.495471954345703"><time>2026-08-20T07:55:00.000Z</time><extensions/></trkpt><trkpt lat="59.11150932312012" lon="30.495429039001465"><time>2026-08-20T07:55:02.000Z</time><extensions/></trkpt><trkpt lat="59.11142349243164" lon="30.495386123657227"><time>2026-08-20T07:55:05.000Z</time><extensions/></trkpt><trkpt lat="59.1113805770874" lon="30.49525737762451"><time>2026-08-20T07:55:07.000Z</time><extensions/></trkpt><trkpt lat="59.1113805770874" lon="30.495107173919678"><time>2026-08-20T07:55:10.000Z</time><extensions/></trkpt><trkpt lat="59.11135911941528" lon="30.494935512542725"><time>2026-08-20T07:55:12.000Z</time><extensions/></trkpt><trkpt lat="59.1113805770874" lon="30.494978427886963"><time>2026-08-20T07:55:20.000Z</time><extensions/></trkpt><trkpt lat="59.11140203475952" lon="30.49504280090332"><time>2026-08-20T07:55:22.000Z</time><extensions/></trkpt><trkpt lat="59.11146640777588" lon="30.495107173919678"><time>2026-08-20T07:55:25.000Z</time><extensions/></trkpt><trkpt lat="59.11150932312012" lon="30.495150089263916"><time>2026-08-20T07:55:27.000Z</time><extensions/></trkpt><trkpt lat="59.111573696136475" lon="30.495214462280273"><time>2026-08-20T07:55:30.000Z</time><extensions/></trkpt><trkpt lat="59.11174535751343" lon="30.495429039001465"><time>2026-08-20T07:55:42.000Z</time><extensions/></trkpt><trkpt lat="59.111788272857666" lon="30.495622158050537"><time>2026-08-20T07:55:52.000Z</time><extensions/></trkpt><trkpt lat="59.11174535751343" lon="30.495600700378418"><time>2026-08-20T07:55:55.000Z</time><extensions/></trkpt><trkpt lat="59.11165952682495" lon="30.4955792427063"><time>2026-08-20T07:55:57.000Z</time><extensions/></trkpt><trkpt lat="59.111595153808594" lon="30.49555778503418"><time>2026-08-20T07:56:00.000Z</time><extensions/></trkpt><trkpt lat="59.111530780792236" lon="30.495471954345703"><time>2026-08-20T07:56:02.000Z</time><extensions/></trkpt><trkpt lat="59.111487865448" lon="30.49555778503418"><time>2026-08-20T07:56:10.000Z</time><extensions/></trkpt><trkpt lat="59.11146640777588" lon="30.495622158050537"><time>2026-08-20T07:56:12.000Z</time><extensions/></trkpt><trkpt lat="59.111487865448" lon="30.495665073394775"><time>2026-08-20T07:56:15.000Z</time><extensions/></trkpt><trkpt lat="59.111530780792236" lon="30.495643615722656"><time>2026-08-20T07:56:17.000Z</time><extensions/></trkpt><trkpt lat="59.111552238464355" lon="30.495707988739014"><time>2026-08-20T07:56:25.000Z</time><extensions/></trkpt><trkpt lat="59.111530780792236" lon="30.49577236175537"><time>2026-08-20T07:56:27.000Z</time><extensions/></trkpt><trkpt lat="59.111530780792236" lon="30.49583673477173"><time>2026-08-20T07:56:30.000Z</time><extensions/></trkpt><trkpt lat="59.111487865448" lon="30.495965480804443"><time>2026-08-20T07:56:50.000Z</time><extensions/></trkpt><trkpt lat="59.11146640777588" lon="30.4960298538208"><time>2026-08-20T07:56:52.000Z</time><extensions/></trkpt><trkpt lat="59.11144495010376" lon="30.495944023132324"><time>2026-08-20T07:56:57.000Z</time><extensions/></trkpt><trkpt lat="59.11144495010376" lon="30.495965480804443"><time>2026-08-20T07:57:00.000Z</time><extensions/></trkpt><trkpt lat="59.111487865448" lon="30.496094226837158"><time>2026-08-20T07:57:05.000Z</time><extensions/></trkpt><trkpt lat="59.11150932312012" lon="30.496158599853516"><time>2026-08-20T07:57:07.000Z</time><extensions/></trkpt><trkpt lat="59.111530780792236" lon="30.496158599853516"><time>2026-08-20T07:57:10.000Z</time><extensions/></trkpt><trkpt lat="59.111530780792236" lon="30.49607276916504"><time>2026-08-20T07:57:12.000Z</time><extensions/></trkpt><trkpt lat="59.111530780792236" lon="30.496115684509277"><time>2026-08-20T07:57:32.000Z</time><extensions/></trkpt><trkpt lat="59.111530780792236" lon="30.49626588821411"><time>2026-08-20T07:57:45.000Z</time><extensions/></trkpt><trkpt lat="59.111487865448" lon="30.49628734588623"><time>2026-08-20T07:57:47.000Z</time><extensions/></trkpt><trkpt lat="59.11146640777588" lon="30.49626588821411"><time>2026-08-20T07:57:50.000Z</time><extensions/></trkpt><trkpt lat="59.11144495010376" lon="30.49628734588623"><time>2026-08-20T07:57:52.000Z</time><extensions/></trkpt><trkpt lat="59.11142349243164" lon="30.49633026123047"><time>2026-08-20T07:57:55.000Z</time><extensions/></trkpt><trkpt lat="59.11140203475952" lon="30.49630880355835"><time>2026-08-20T07:57:57.000Z</time><extensions/></trkpt><trkpt lat="59.11142349243164" lon="30.496244430541992"><time>2026-08-20T07:58:02.000Z</time><extensions/></trkpt><trkpt lat="59.111487865448" lon="30.49626588821411"><time>2026-08-20T07:58:05.000Z</time><extensions/></trkpt><trkpt lat="59.111552238464355" lon="30.496244430541992"><time>2026-08-20T07:58:07.000Z</time><extensions/></trkpt><trkpt lat="59.111573696136475" lon="30.496222972869873"><time>2026-08-20T07:58:10.000Z</time><extensions/></trkpt><trkpt lat="59.111595153808594" lon="30.496222972869873"><time>2026-08-20T07:58:35.000Z</time><extensions/></trkpt><trkpt lat="59.111573696136475" lon="30.496244430541992"><time>2026-08-20T07:59:05.000Z</time><extensions/></trkpt><trkpt lat="59.111595153808594" lon="30.49628734588623"><time>2026-08-20T07:59:35.000Z</time><extensions/></trkpt><trkpt lat="59.11163806915283" lon="30.496351718902588"><time>2026-08-20T07:59:40.000Z</time><extensions/></trkpt><trkpt lat="59.11161661148071" lon="30.49633026123047"><time>2026-08-20T07:59:42.000Z</time><extensions/></trkpt><trkpt lat="59.11165952682495" lon="30.496437549591064"><time>2026-08-20T07:59:55.000Z</time><extensions/></trkpt><trkpt lat="59.11168098449707" lon="30.496501922607422"><time>2026-08-20T07:59:57.000Z</time><extensions/></trkpt><trkpt lat="59.11170244216919" lon="30.4965877532959"><time>2026-08-20T08:00:00.000Z</time><extensions/></trkpt><trkpt lat="59.11172389984131" lon="30.496609210968018"><time>2026-08-20T08:00:02.000Z</time><extensions/></trkpt><trkpt lat="59.11174535751343" lon="30.496673583984375"><time>2026-08-20T08:00:05.000Z</time><extensions/></trkpt><trkpt lat="59.11174535751343" lon="30.496716499328613"><time>2026-08-20T08:00:07.000Z</time><extensions/></trkpt><trkpt lat="59.111809730529785" lon="30.496737957000732"><time>2026-08-20T08:00:12.000Z</time><extensions/></trkpt><trkpt lat="59.11185264587402" lon="30.49678087234497"><time>2026-08-20T08:00:15.000Z</time><extensions/></trkpt><trkpt lat="59.11185264587402" lon="30.49680233001709"><time>2026-08-20T08:00:22.000Z</time><extensions/></trkpt><trkpt lat="59.111831188201904" lon="30.496845245361328"><time>2026-08-20T08:00:25.000Z</time><extensions/></trkpt><trkpt lat="59.111809730529785" lon="30.496888160705566"><time>2026-08-20T08:00:27.000Z</time><extensions/></trkpt><trkpt lat="59.111788272857666" lon="30.496888160705566"><time>2026-08-20T08:00:30.000Z</time><extensions/></trkpt><trkpt lat="59.111788272857666" lon="30.496845245361328"><time>2026-08-20T08:00:32.000Z</time><extensions/></trkpt><trkpt lat="59.111788272857666" lon="30.49680233001709"><time>2026-08-20T08:00:35.000Z</time><extensions/></trkpt><trkpt lat="59.111788272857666" lon="30.496737957000732"><time>2026-08-20T08:00:37.000Z</time><extensions/></trkpt><trkpt lat="59.11172389984131" lon="30.496931076049805"><time>2026-08-20T08:00:57.000Z</time><extensions/></trkpt><trkpt lat="59.11172389984131" lon="30.496931076049805"><time>2026-08-20T08:01:10.000Z</time><extensions/></trkpt><trkpt lat="59.11176681518555" lon="30.496952533721924"><time>2026-08-20T08:01:20.000Z</time><extensions/></trkpt><trkpt lat="59.111809730529785" lon="30.49705982208252"><time>2026-08-20T08:01:27.000Z</time><extensions/></trkpt><trkpt lat="59.111831188201904" lon="30.497145652770996"><time>2026-08-20T08:01:42.000Z</time><extensions/></trkpt><trkpt lat="59.111809730529785" lon="30.49708127975464"><time>2026-08-20T08:01:45.000Z</time><extensions/></trkpt><trkpt lat="59.111809730529785" lon="30.496973991394043"><time>2026-08-20T08:01:47.000Z</time><extensions/></trkpt><trkpt lat="59.111788272857666" lon="30.496909618377686"><time>2026-08-20T08:01:50.000Z</time><extensions/></trkpt><trkpt lat="59.11176681518555" lon="30.496888160705566"><time>2026-08-20T08:01:52.000Z</time><extensions/></trkpt><trkpt lat="59.11174535751343" lon="30.496866703033447"><time>2026-08-20T08:01:57.000Z</time><extensions/></trkpt><trkpt lat="59.11172389984131" lon="30.496952533721924"><time>2026-08-20T08:02:10.000Z</time><extensions/></trkpt><trkpt lat="59.11172389984131" lon="30.496995449066162"><time>2026-08-20T08:02:20.000Z</time><extensions/></trkpt><trkpt lat="59.11172389984131" lon="30.49705982208252"><time>2026-08-20T08:02:22.000Z</time><extensions/></trkpt><trkpt lat="59.11170244216919" lon="30.497167110443115"><time>2026-08-20T08:02:47.000Z</time><extensions/></trkpt><trkpt lat="59.11170244216919" lon="30.497252941131592"><time>2026-08-20T08:02:50.000Z</time><extensions/></trkpt><trkpt lat="59.11172389984131" lon="30.497381687164307"><time>2026-08-20T08:02:55.000Z</time><extensions/></trkpt><trkpt lat="59.11172389984131" lon="30.497467517852783"><time>2026-08-20T08:02:57.000Z</time><extensions/></trkpt><trkpt lat="59.11170244216919" lon="30.497467517852783"><time>2026-08-20T08:03:00.000Z</time><extensions/></trkpt><trkpt lat="59.11170244216919" lon="30.497446060180664"><time>2026-08-20T08:03:02.000Z</time><extensions/></trkpt><trkpt lat="59.11165952682495" lon="30.49751043319702"><time>2026-08-20T08:03:05.000Z</time><extensions/></trkpt><trkpt lat="59.11163806915283" lon="30.49753189086914"><time>2026-08-20T08:03:07.000Z</time><extensions/></trkpt><trkpt lat="59.111595153808594" lon="30.49751043319702"><time>2026-08-20T08:03:10.000Z</time><extensions/></trkpt><trkpt lat="59.111595153808594" lon="30.497424602508545"><time>2026-08-20T08:03:12.000Z</time><extensions/></trkpt><trkpt lat="59.111595153808594" lon="30.497381687164307"><time>2026-08-20T08:03:17.000Z</time><extensions/></trkpt><trkpt lat="59.111552238464355" lon="30.497360229492188"><time>2026-08-20T08:03:25.000Z</time><extensions/></trkpt><trkpt lat="59.111487865448" lon="30.49731731414795"><time>2026-08-20T08:03:32.000Z</time><extensions/></trkpt><trkpt lat="59.11146640777588" lon="30.49727439880371"><time>2026-08-20T08:03:35.000Z</time><extensions/></trkpt><trkpt lat="59.11142349243164" lon="30.497210025787354"><time>2026-08-20T08:03:37.000Z</time><extensions/></trkpt><trkpt lat="59.11135911941528" lon="30.49708127975464"><time>2026-08-20T08:03:40.000Z</time><extensions/></trkpt><trkpt lat="59.111337661743164" lon="30.497102737426758"><time>2026-08-20T08:03:42.000Z</time><extensions/></trkpt><trkpt lat="59.11140203475952" lon="30.497167110443115"><time>2026-08-20T08:03:50.000Z</time><extensions/></trkpt><trkpt lat="59.11142349243164" lon="30.497231483459473"><time>2026-08-20T08:03:52.000Z</time><extensions/></trkpt><trkpt lat="59.111487865448" lon="30.497231483459473"><time>2026-08-20T08:03:55.000Z</time><extensions/></trkpt><trkpt lat="59.111530780792236" lon="30.49729585647583"><time>2026-08-20T08:03:57.000Z</time><extensions/></trkpt><trkpt lat="59.111530780792236" lon="30.497403144836426"><time>2026-08-20T08:04:00.000Z</time><extensions/></trkpt><trkpt lat="59.111530780792236" lon="30.49751043319702"><time>2026-08-20T08:04:02.000Z</time><extensions/></trkpt><trkpt lat="59.111552238464355" lon="30.497596263885498"><time>2026-08-20T08:04:05.000Z</time><extensions/></trkpt><trkpt lat="59.11161661148071" lon="30.49776792526245"><time>2026-08-20T08:04:15.000Z</time><extensions/></trkpt><trkpt lat="59.11161661148071" lon="30.49778938293457"><time>2026-08-20T08:04:17.000Z</time><extensions/></trkpt><trkpt lat="59.11168098449707" lon="30.497939586639404"><time>2026-08-20T08:04:37.000Z</time><extensions/></trkpt><trkpt lat="59.11163806915283" lon="30.497896671295166"><time>2026-08-20T08:04:50.000Z</time><extensions/></trkpt><trkpt lat="59.11161661148071" lon="30.49783229827881"><time>2026-08-20T08:04:52.000Z</time><extensions/></trkpt><trkpt lat="59.111573696136475" lon="30.49781084060669"><time>2026-08-20T08:04:55.000Z</time><extensions/></trkpt><trkpt lat="59.111552238464355" lon="30.49778938293457"><time>2026-08-20T08:04:57.000Z</time><extensions/></trkpt><trkpt lat="59.111487865448" lon="30.49778938293457"><time>2026-08-20T08:05:00.000Z</time><extensions/></trkpt><trkpt lat="59.111487865448" lon="30.49783229827881"><time>2026-08-20T08:05:10.000Z</time><extensions/></trkpt><trkpt lat="59.11146640777588" lon="30.497853755950928"><time>2026-08-20T08:05:12.000Z</time><extensions/></trkpt><trkpt lat="59.11142349243164" lon="30.497918128967285"><time>2026-08-20T08:05:15.000Z</time><extensions/></trkpt><trkpt lat="59.11142349243164" lon="30.497982501983643"><time>2026-08-20T08:05:17.000Z</time><extensions/></trkpt><trkpt lat="59.11140203475952" lon="30.497982501983643"><time>2026-08-20T08:05:20.000Z</time><extensions/></trkpt><trkpt lat="59.11135911941528" lon="30.49800395965576"><time>2026-08-20T08:05:22.000Z</time><extensions/></trkpt><trkpt lat="59.111337661743164" lon="30.498046875"><time>2026-08-20T08:05:25.000Z</time><extensions/></trkpt><trkpt lat="59.11125183105469" lon="30.498132705688477"><time>2026-08-20T08:05:32.000Z</time><extensions/></trkpt><trkpt lat="59.11123037338257" lon="30.498175621032715"><time>2026-08-20T08:05:35.000Z</time><extensions/></trkpt><trkpt lat="59.11123037338257" lon="30.498154163360596"><time>2026-08-20T08:05:57.000Z</time><extensions/></trkpt><trkpt lat="59.11120891571045" lon="30.49808979034424"><time>2026-08-20T08:06:00.000Z</time><extensions/></trkpt><trkpt lat="59.11120891571045" lon="30.497982501983643"><time>2026-08-20T08:06:02.000Z</time><extensions/></trkpt><trkpt lat="59.11120891571045" lon="30.497853755950928"><time>2026-08-20T08:06:05.000Z</time><extensions/></trkpt><trkpt lat="59.11123037338257" lon="30.497875213623047"><time>2026-08-20T08:06:07.000Z</time><extensions/></trkpt><trkpt lat="59.11125183105469" lon="30.497939586639404"><time>2026-08-20T08:06:10.000Z</time><extensions/></trkpt><trkpt lat="59.11127328872681" lon="30.497982501983643"><time>2026-08-20T08:06:12.000Z</time><extensions/></trkpt><trkpt lat="59.111337661743164" lon="30.498175621032715"><time>2026-08-20T08:06:22.000Z</time><extensions/></trkpt><trkpt lat="59.111294746398926" lon="30.498239994049072"><time>2026-08-20T08:06:25.000Z</time><extensions/></trkpt><trkpt lat="59.11125183105469" lon="30.49828290939331"><time>2026-08-20T08:06:27.000Z</time><extensions/></trkpt><trkpt lat="59.11120891571045" lon="30.49830436706543"><time>2026-08-20T08:06:30.000Z</time><extensions/></trkpt><trkpt lat="59.11120891571045" lon="30.49826145172119"><time>2026-08-20T08:06:35.000Z</time><extensions/></trkpt><trkpt lat="59.11120891571045" lon="30.498132705688477"><time>2026-08-20T08:06:45.000Z</time><extensions/></trkpt><trkpt lat="59.11120891571045" lon="30.498154163360596"><time>2026-08-20T08:06:52.000Z</time><extensions/></trkpt><trkpt lat="59.11125183105469" lon="30.498239994049072"><time>2026-08-20T08:07:02.000Z</time><extensions/></trkpt><trkpt lat="59.111294746398926" lon="30.49830436706543"><time>2026-08-20T08:07:05.000Z</time><extensions/></trkpt><trkpt lat="59.111337661743164" lon="30.498347282409668"><time>2026-08-20T08:07:07.000Z</time><extensions/></trkpt><trkpt lat="59.11140203475952" lon="30.498347282409668"><time>2026-08-20T08:07:12.000Z</time><extensions/></trkpt><trkpt lat="59.11142349243164" lon="30.49832582473755"><time>2026-08-20T08:07:15.000Z</time><extensions/></trkpt><trkpt lat="59.111487865448" lon="30.49830436706543"><time>2026-08-20T08:07:20.000Z</time><extensions/></trkpt><trkpt lat="59.111530780792236" lon="30.49828290939331"><time>2026-08-20T08:07:22.000Z</time><extensions/></trkpt><trkpt lat="59.11150932312012" lon="30.49832582473755"><time>2026-08-20T08:07:25.000Z</time><extensions/></trkpt><trkpt lat="59.111487865448" lon="30.498368740081787"><time>2026-08-20T08:07:27.000Z</time><extensions/></trkpt><trkpt lat="59.111487865448" lon="30.498454570770264"><time>2026-08-20T08:07:30.000Z</time><extensions/></trkpt><trkpt lat="59.111487865448" lon="30.498497486114502"><time>2026-08-20T08:07:32.000Z</time><extensions/></trkpt><trkpt lat="59.11150932312012" lon="30.49858331680298"><time>2026-08-20T08:07:35.000Z</time><extensions/></trkpt><trkpt lat="59.111530780792236" lon="30.498669147491455"><time>2026-08-20T08:07:37.000Z</time><extensions/></trkpt><trkpt lat="59.111530780792236" lon="30.498948097229004"><time>2026-08-20T08:08:02.000Z</time><extensions/></trkpt><trkpt lat="59.111552238464355" lon="30.498926639556885"><time>2026-08-20T08:08:05.000Z</time><extensions/></trkpt><trkpt lat="59.111573696136475" lon="30.498862266540527"><time>2026-08-20T08:08:07.000Z</time><extensions/></trkpt><trkpt lat="59.111595153808594" lon="30.498840808868408"><time>2026-08-20T08:08:10.000Z</time><extensions/></trkpt><trkpt lat="59.11161661148071" lon="30.49881935119629"><time>2026-08-20T08:08:12.000Z</time><extensions/></trkpt><trkpt lat="59.11172389984131" lon="30.498926639556885"><time>2026-08-20T08:08:25.000Z</time><extensions/></trkpt><trkpt lat="59.11172389984131" lon="30.498991012573242"><time>2026-08-20T08:08:27.000Z</time><extensions/></trkpt><trkpt lat="59.11172389984131" lon="30.499141216278076"><time>2026-08-20T08:08:30.000Z</time><extensions/></trkpt><trkpt lat="59.11170244216919" lon="30.499184131622314"><time>2026-08-20T08:08:32.000Z</time><extensions/></trkpt><trkpt lat="59.11168098449707" lon="30.499184131622314"><time>2026-08-20T08:08:35.000Z</time><extensions/></trkpt><trkpt lat="59.11165952682495" lon="30.499162673950195"><time>2026-08-20T08:08:37.000Z</time><extensions/></trkpt><trkpt lat="59.11170244216919" lon="30.499119758605957"><time>2026-08-20T08:08:50.000Z</time><extensions/></trkpt><trkpt lat="59.11176681518555" lon="30.499463081359863"><time>2026-08-20T08:09:05.000Z</time><extensions/></trkpt><trkpt lat="59.11172389984131" lon="30.49954891204834"><time>2026-08-20T08:09:07.000Z</time><extensions/></trkpt><trkpt lat="59.11170244216919" lon="30.49957036972046"><time>2026-08-20T08:09:10.000Z</time><extensions/></trkpt><trkpt lat="59.11165952682495" lon="30.49954891204834"><time>2026-08-20T08:09:12.000Z</time><extensions/></trkpt><trkpt lat="59.11161661148071" lon="30.4995059967041"><time>2026-08-20T08:09:15.000Z</time><extensions/></trkpt><trkpt lat="59.111595153808594" lon="30.49954891204834"><time>2026-08-20T08:09:17.000Z</time><extensions/></trkpt><trkpt lat="59.111595153808594" lon="30.499634742736816"><time>2026-08-20T08:09:20.000Z</time><extensions/></trkpt><trkpt lat="59.111552238464355" lon="30.499720573425293"><time>2026-08-20T08:09:25.000Z</time><extensions/></trkpt><trkpt lat="59.111552238464355" lon="30.49976348876953"><time>2026-08-20T08:09:27.000Z</time><extensions/></trkpt><trkpt lat="59.11146640777588" lon="30.49976348876953"><time>2026-08-20T08:09:40.000Z</time><extensions/></trkpt><trkpt lat="59.11144495010376" lon="30.499720573425293"><time>2026-08-20T08:09:42.000Z</time><extensions/></trkpt><trkpt lat="59.11146640777588" lon="30.499656200408936"><time>2026-08-20T08:09:45.000Z</time><extensions/></trkpt><trkpt lat="59.111530780792236" lon="30.499699115753174"><time>2026-08-20T08:09:47.000Z</time><extensions/></trkpt><trkpt lat="59.111573696136475" lon="30.499699115753174"><time>2026-08-20T08:09:50.000Z</time><extensions/></trkpt><trkpt lat="59.11161661148071" lon="30.49976348876953"><time>2026-08-20T08:09:52.000Z</time><extensions/></trkpt><trkpt lat="59.11163806915283" lon="30.49976348876953"><time>2026-08-20T08:10:12.000Z</time><extensions/></trkpt><trkpt lat="59.11163806915283" lon="30.49976348876953"><time>2026-08-20T08:10:42.000Z</time><extensions/></trkpt><trkpt lat="59.11163806915283" lon="30.49982786178589"><time>2026-08-20T08:10:47.000Z</time><extensions/></trkpt><trkpt lat="59.11165952682495" lon="30.499913692474365"><time>2026-08-20T08:10:50.000Z</time><extensions/></trkpt><trkpt lat="59.11165952682495" lon="30.499999523162842"><time>2026-08-20T08:10:52.000Z</time><extensions/></trkpt><trkpt lat="59.11165952682495" lon="30.5000638961792"><time>2026-08-20T08:10:55.000Z</time><extensions/></trkpt><trkpt lat="59.11168098449707" lon="30.50032138824463"><time>2026-08-20T08:11:10.000Z</time><extensions/></trkpt><trkpt lat="59.11163806915283" lon="30.500385761260986"><time>2026-08-20T08:11:12.000Z</time><extensions/></trkpt><trkpt lat="59.11163806915283" lon="30.500450134277344"><time>2026-08-20T08:11:15.000Z</time><extensions/></trkpt><trkpt lat="59.11161661148071" lon="30.5005145072937"><time>2026-08-20T08:11:17.000Z</time><extensions/></trkpt><trkpt lat="59.111573696136475" lon="30.50053596496582"><time>2026-08-20T08:11:20.000Z</time><extensions/></trkpt><trkpt lat="59.111552238464355" lon="30.5005145072937"><time>2026-08-20T08:11:22.000Z</time><extensions/></trkpt><trkpt lat="59.111530780792236" lon="30.500493049621582"><time>2026-08-20T08:11:25.000Z</time><extensions/></trkpt><trkpt lat="59.11150932312012" lon="30.500428676605225"><time>2026-08-20T08:11:27.000Z</time><extensions/></trkpt><trkpt lat="59.111487865448" lon="30.500364303588867"><time>2026-08-20T08:11:30.000Z</time><extensions/></trkpt><trkpt lat="59.11150932312012" lon="30.50032138824463"><time>2026-08-20T08:11:32.000Z</time><extensions/></trkpt><trkpt lat="59.111530780792236" lon="30.50032138824463"><time>2026-08-20T08:11:35.000Z</time><extensions/></trkpt><trkpt lat="59.111552238464355" lon="30.500342845916748"><time>2026-08-20T08:11:37.000Z</time><extensions/></trkpt><trkpt lat="59.111595153808594" lon="30.500364303588867"><time>2026-08-20T08:11:40.000Z</time><extensions/></trkpt><trkpt lat="59.111573696136475" lon="30.500450134277344"><time>2026-08-20T08:11:42.000Z</time><extensions/></trkpt><trkpt lat="59.11161661148071" lon="30.500493049621582"><time>2026-08-20T08:11:45.000Z</time><extensions/></trkpt><trkpt lat="59.11163806915283" lon="30.50053596496582"><time>2026-08-20T08:11:47.000Z</time><extensions/></trkpt><trkpt lat="59.11165952682495" lon="30.50055742263794"><time>2026-08-20T08:11:50.000Z</time><extensions/></trkpt><trkpt lat="59.11174535751343" lon="30.500707626342773"><time>2026-08-20T08:12:00.000Z</time><extensions/></trkpt><trkpt lat="59.11172389984131" lon="30.50075054168701"><time>2026-08-20T08:12:02.000Z</time><extensions/></trkpt><trkpt lat="59.11174535751343" lon="30.50081491470337"><time>2026-08-20T08:12:05.000Z</time><extensions/></trkpt><trkpt lat="59.11174535751343" lon="30.500857830047607"><time>2026-08-20T08:12:07.000Z</time><extensions/></trkpt><trkpt lat="59.11170244216919" lon="30.500900745391846"><time>2026-08-20T08:12:10.000Z</time><extensions/></trkpt><trkpt lat="59.11168098449707" lon="30.500922203063965"><time>2026-08-20T08:12:12.000Z</time><extensions/></trkpt><trkpt lat="59.11168098449707" lon="30.500986576080322"><time>2026-08-20T08:12:15.000Z</time><extensions/></trkpt><trkpt lat="59.11165952682495" lon="30.501222610473633"><time>2026-08-20T08:12:35.000Z</time><extensions/></trkpt><trkpt lat="59.11168098449707" lon="30.50126552581787"><time>2026-08-20T08:12:37.000Z</time><extensions/></trkpt><trkpt lat="59.11172389984131" lon="30.501372814178467"><time>2026-08-20T08:12:42.000Z</time><extensions/></trkpt><trkpt lat="59.11174535751343" lon="30.5015230178833"><time>2026-08-20T08:13:00.000Z</time><extensions/></trkpt><trkpt lat="59.111788272857666" lon="30.50154447555542"><time>2026-08-20T08:13:02.000Z</time><extensions/></trkpt><trkpt lat="59.111831188201904" lon="30.501608848571777"><time>2026-08-20T08:13:07.000Z</time><extensions/></trkpt><trkpt lat="59.111809730529785" lon="30.501651763916016"><time>2026-08-20T08:13:10.000Z</time><extensions/></trkpt><trkpt lat="59.11174535751343" lon="30.501866340637207"><time>2026-08-20T08:13:32.000Z</time><extensions/></trkpt><trkpt lat="59.11170244216919" lon="30.501930713653564"><time>2026-08-20T08:13:35.000Z</time><extensions/></trkpt><trkpt lat="59.11165952682495" lon="30.501930713653564"><time>2026-08-20T08:13:37.000Z</time><extensions/></trkpt><trkpt lat="59.11163806915283" lon="30.501887798309326"><time>2026-08-20T08:13:40.000Z</time><extensions/></trkpt><trkpt lat="59.11161661148071" lon="30.50180196762085"><time>2026-08-20T08:13:42.000Z</time><extensions/></trkpt><trkpt lat="59.111595153808594" lon="30.50175905227661"><time>2026-08-20T08:13:45.000Z</time><extensions/></trkpt><trkpt lat="59.111530780792236" lon="30.50175905227661"><time>2026-08-20T08:13:50.000Z</time><extensions/></trkpt><trkpt lat="59.11150932312012" lon="30.50175905227661"><time>2026-08-20T08:13:52.000Z</time><extensions/></trkpt><trkpt lat="59.11146640777588" lon="30.501737594604492"><time>2026-08-20T08:13:55.000Z</time><extensions/></trkpt><trkpt lat="59.11142349243164" lon="30.501737594604492"><time>2026-08-20T08:13:57.000Z</time><extensions/></trkpt><trkpt lat="59.11140203475952" lon="30.501737594604492"><time>2026-08-20T08:14:00.000Z</time><extensions/></trkpt><trkpt lat="59.11140203475952" lon="30.501716136932373"><time>2026-08-20T08:14:02.000Z</time><extensions/></trkpt><trkpt lat="59.111337661743164" lon="30.50150156021118"><time>2026-08-20T08:14:15.000Z</time><extensions/></trkpt><trkpt lat="59.111337661743164" lon="30.501415729522705"><time>2026-08-20T08:14:17.000Z</time><extensions/></trkpt><trkpt lat="59.111294746398926" lon="30.501372814178467"><time>2026-08-20T08:14:22.000Z</time><extensions/></trkpt><trkpt lat="59.11123037338257" lon="30.501394271850586"><time>2026-08-20T08:14:25.000Z</time><extensions/></trkpt><trkpt lat="59.11120891571045" lon="30.501458644866943"><time>2026-08-20T08:14:27.000Z</time><extensions/></trkpt><trkpt lat="59.11123037338257" lon="30.5015230178833"><time>2026-08-20T08:14:30.000Z</time><extensions/></trkpt><trkpt lat="59.11125183105469" lon="30.50154447555542"><time>2026-08-20T08:14:32.000Z</time><extensions/></trkpt><trkpt lat="59.11125183105469" lon="30.501608848571777"><time>2026-08-20T08:14:35.000Z</time><extensions/></trkpt><trkpt lat="59.11123037338257" lon="30.501673221588135"><time>2026-08-20T08:14:37.000Z</time><extensions/></trkpt><trkpt lat="59.11123037338257" lon="30.50175905227661"><time>2026-08-20T08:14:40.000Z</time><extensions/></trkpt><trkpt lat="59.11120891571045" lon="30.50182342529297"><time>2026-08-20T08:14:45.000Z</time><extensions/></trkpt><trkpt lat="59.11116600036621" lon="30.501887798309326"><time>2026-08-20T08:14:47.000Z</time><extensions/></trkpt><trkpt lat="59.11110162734985" lon="30.501930713653564"><time>2026-08-20T08:14:50.000Z</time><extensions/></trkpt><trkpt lat="59.111058712005615" lon="30.501930713653564"><time>2026-08-20T08:14:52.000Z</time><extensions/></trkpt><trkpt lat="59.111080169677734" lon="30.50205945968628"><time>2026-08-20T08:14:57.000Z</time><extensions/></trkpt><trkpt lat="59.111080169677734" lon="30.5020809173584"><time>2026-08-20T08:15:00.000Z</time><extensions/></trkpt><trkpt lat="59.111058712005615" lon="30.50205945968628"><time>2026-08-20T08:15:02.000Z</time><extensions/></trkpt><trkpt lat="59.111058712005615" lon="30.501995086669922"><time>2026-08-20T08:15:07.000Z</time><extensions/></trkpt><trkpt lat="59.111037254333496" lon="30.501930713653564"><time>2026-08-20T08:15:10.000Z</time><extensions/></trkpt><trkpt lat="59.111058712005615" lon="30.501866340637207"><time>2026-08-20T08:15:12.000Z</time><extensions/></trkpt><trkpt lat="59.111037254333496" lon="30.50175905227661"><time>2026-08-20T08:15:15.000Z</time><extensions/></trkpt><trkpt lat="59.111080169677734" lon="30.50175905227661"><time>2026-08-20T08:15:20.000Z</time><extensions/></trkpt><trkpt lat="59.11112308502197" lon="30.501694679260254"><time>2026-08-20T08:15:22.000Z</time><extensions/></trkpt><trkpt lat="59.11114454269409" lon="30.501694679260254"><time>2026-08-20T08:15:42.000Z</time><extensions/></trkpt><trkpt lat="59.11114454269409" lon="30.501630306243896"><time>2026-08-20T08:16:05.000Z</time><extensions/></trkpt><trkpt lat="59.11112308502197" lon="30.50156593322754"><time>2026-08-20T08:16:15.000Z</time><extensions/></trkpt><trkpt lat="59.11112308502197" lon="30.50156593322754"><time>2026-08-20T08:16:45.000Z</time><extensions/></trkpt><trkpt lat="59.11112308502197" lon="30.501480102539062"><time>2026-08-20T08:16:50.000Z</time><extensions/></trkpt><trkpt lat="59.11110162734985" lon="30.501394271850586"><time>2026-08-20T08:16:52.000Z</time><extensions/></trkpt><trkpt lat="59.11112308502197" lon="30.501351356506348"><time>2026-08-20T08:16:55.000Z</time><extensions/></trkpt><trkpt lat="59.11114454269409" lon="30.50130844116211"><time>2026-08-20T08:16:57.000Z</time><extensions/></trkpt><trkpt lat="59.11110162734985" lon="30.501136779785156"><time>2026-08-20T08:17:07.000Z</time><extensions/></trkpt><trkpt lat="59.111058712005615" lon="30.50102949142456"><time>2026-08-20T08:17:15.000Z</time><extensions/></trkpt><trkpt lat="59.11110162734985" lon="30.500943660736084"><time>2026-08-20T08:17:20.000Z</time><extensions/></trkpt><trkpt lat="59.111080169677734" lon="30.500900745391846"><time>2026-08-20T08:17:22.000Z</time><extensions/></trkpt><trkpt lat="59.11110162734985" lon="30.50083637237549"><time>2026-08-20T08:17:25.000Z</time><extensions/></trkpt><trkpt lat="59.11112308502197" lon="30.50081491470337"><time>2026-08-20T08:17:27.000Z</time><extensions/></trkpt><trkpt lat="59.111058712005615" lon="30.500600337982178"><time>2026-08-20T08:17:40.000Z</time><extensions/></trkpt><trkpt lat="59.111037254333496" lon="30.500428676605225"><time>2026-08-20T08:17:45.000Z</time><extensions/></trkpt><trkpt lat="59.11099433898926" lon="30.500428676605225"><time>2026-08-20T08:17:52.000Z</time><extensions/></trkpt><trkpt lat="59.11101579666138" lon="30.5005145072937"><time>2026-08-20T08:18:05.000Z</time><extensions/></trkpt><trkpt lat="59.11099433898926" lon="30.500471591949463"><time>2026-08-20T08:18:07.000Z</time><extensions/></trkpt><trkpt lat="59.11099433898926" lon="30.500407218933105"><time>2026-08-20T08:18:10.000Z</time><extensions/></trkpt><trkpt lat="59.11095142364502" lon="30.50032138824463"><time>2026-08-20T08:18:15.000Z</time><extensions/></trkpt><trkpt lat="59.11088705062866" lon="30.500342845916748"><time>2026-08-20T08:18:27.000Z</time><extensions/></trkpt><trkpt lat="59.110844135284424" lon="30.50029993057251"><time>2026-08-20T08:18:30.000Z</time><extensions/></trkpt><trkpt lat="59.110822677612305" lon="30.50025701522827"><time>2026-08-20T08:18:32.000Z</time><extensions/></trkpt><trkpt lat="59.110801219940186" lon="30.500192642211914"><time>2026-08-20T08:18:35.000Z</time><extensions/></trkpt><trkpt lat="59.110844135284424" lon="30.500171184539795"><time>2026-08-20T08:18:37.000Z</time><extensions/></trkpt><trkpt lat="59.11086559295654" lon="30.500106811523438"><time>2026-08-20T08:18:40.000Z</time><extensions/></trkpt><trkpt lat="59.11088705062866" lon="30.5000638961792"><time>2026-08-20T08:18:42.000Z</time><extensions/></trkpt><trkpt lat="59.11090850830078" lon="30.499999523162842"><time>2026-08-20T08:18:45.000Z</time><extensions/></trkpt><trkpt lat="59.11088705062866" lon="30.499956607818604"><time>2026-08-20T08:18:47.000Z</time><extensions/></trkpt><trkpt lat="59.11088705062866" lon="30.499870777130127"><time>2026-08-20T08:18:50.000Z</time><extensions/></trkpt><trkpt lat="59.110844135284424" lon="30.499935150146484"><time>2026-08-20T08:18:57.000Z</time><extensions/></trkpt><trkpt lat="59.110822677612305" lon="30.499999523162842"><time>2026-08-20T08:19:00.000Z</time><extensions/></trkpt><trkpt lat="59.110801219940186" lon="30.50002098083496"><time>2026-08-20T08:19:02.000Z</time><extensions/></trkpt><trkpt lat="59.110801219940186" lon="30.499978065490723"><time>2026-08-20T08:19:05.000Z</time><extensions/></trkpt><trkpt lat="59.11088705062866" lon="30.499935150146484"><time>2026-08-20T08:19:12.000Z</time><extensions/></trkpt><trkpt lat="59.11088705062866" lon="30.49982786178589"><time>2026-08-20T08:19:15.000Z</time><extensions/></trkpt><trkpt lat="59.11086559295654" lon="30.49978494644165"><time>2026-08-20T08:19:17.000Z</time><extensions/></trkpt><trkpt lat="59.110844135284424" lon="30.499742031097412"><time>2026-08-20T08:19:20.000Z</time><extensions/></trkpt><trkpt lat="59.110844135284424" lon="30.499420166015625"><time>2026-08-20T08:19:32.000Z</time><extensions/></trkpt><trkpt lat="59.11086559295654" lon="30.499377250671387"><time>2026-08-20T08:19:35.000Z</time><extensions/></trkpt><trkpt lat="59.11088705062866" lon="30.499398708343506"><time>2026-08-20T08:19:37.000Z</time><extensions/></trkpt><trkpt lat="59.11090850830078" lon="30.49931287765503"><time>2026-08-20T08:19:40.000Z</time><extensions/></trkpt><trkpt lat="59.1109299659729" lon="30.49926996231079"><time>2026-08-20T08:19:42.000Z</time><extensions/></trkpt><trkpt lat="59.11086559295654" lon="30.499141216278076"><time>2026-08-20T08:19:57.000Z</time><extensions/></trkpt><trkpt lat="59.110822677612305" lon="30.49903392791748"><time>2026-08-20T08:20:15.000Z</time><extensions/></trkpt><trkpt lat="59.11086559295654" lon="30.498969554901123"><time>2026-08-20T08:20:17.000Z</time><extensions/></trkpt><trkpt lat="59.11090850830078" lon="30.498926639556885"><time>2026-08-20T08:20:20.000Z</time><extensions/></trkpt><trkpt lat="59.1109299659729" lon="30.498862266540527"><time>2026-08-20T08:20:22.000Z</time><extensions/></trkpt><trkpt lat="59.11095142364502" lon="30.49877643585205"><time>2026-08-20T08:20:25.000Z</time><extensions/></trkpt><trkpt lat="59.11097288131714" lon="30.498712062835693"><time>2026-08-20T08:20:27.000Z</time><extensions/></trkpt><trkpt lat="59.11097288131714" lon="30.498647689819336"><time>2026-08-20T08:20:30.000Z</time><extensions/></trkpt><trkpt lat="59.11101579666138" lon="30.498626232147217"><time>2026-08-20T08:20:32.000Z</time><extensions/></trkpt><trkpt lat="59.11101579666138" lon="30.49856185913086"><time>2026-08-20T08:21:02.000Z</time><extensions/></trkpt><trkpt lat="59.11099433898926" lon="30.498347282409668"><time>2026-08-20T08:21:17.000Z</time><extensions/></trkpt><trkpt lat="59.11095142364502" lon="30.498218536376953"><time>2026-08-20T08:21:27.000Z</time><extensions/></trkpt><trkpt lat="59.11099433898926" lon="30.498132705688477"><time>2026-08-20T08:21:57.000Z</time><extensions/></trkpt><trkpt lat="59.11099433898926" lon="30.498132705688477"><time>2026-08-20T08:22:02.000Z</time><extensions/></trkpt><trkpt lat="59.11099433898926" lon="30.498132705688477"><time>2026-08-20T08:22:17.000Z</time><extensions/></trkpt><trkpt lat="59.11099433898926" lon="30.49808979034424"><time>2026-08-20T08:22:20.000Z</time><extensions/></trkpt><trkpt lat="59.11101579666138" lon="30.49800395965576"><time>2026-08-20T08:22:22.000Z</time><extensions/></trkpt><trkpt lat="59.11099433898926" lon="30.49800395965576"><time>2026-08-20T08:22:27.000Z</time><extensions/></trkpt><trkpt lat="59.11097288131714" lon="30.497982501983643"><time>2026-08-20T08:22:57.000Z</time><extensions/></trkpt><trkpt lat="59.11097288131714" lon="30.497982501983643"><time>2026-08-20T08:23:07.000Z</time><extensions/></trkpt><trkpt lat="59.11099433898926" lon="30.497939586639404"><time>2026-08-20T08:23:25.000Z</time><extensions/></trkpt><trkpt lat="59.11101579666138" lon="30.497875213623047"><time>2026-08-20T08:23:27.000Z</time><extensions/></trkpt><trkpt lat="59.111037254333496" lon="30.497746467590332"><time>2026-08-20T08:23:30.000Z</time><extensions/></trkpt><trkpt lat="59.111037254333496" lon="30.497660636901855"><time>2026-08-20T08:23:32.000Z</time><extensions/></trkpt><trkpt lat="59.11099433898926" lon="30.497596263885498"><time>2026-08-20T08:23:35.000Z</time><extensions/></trkpt><trkpt lat="59.11099433898926" lon="30.49755334854126"><time>2026-08-20T08:23:37.000Z</time><extensions/></trkpt><trkpt lat="59.11099433898926" lon="30.497596263885498"><time>2026-08-20T08:23:40.000Z</time><extensions/></trkpt><trkpt lat="59.11095142364502" lon="30.49753189086914"><time>2026-08-20T08:23:45.000Z</time><extensions/></trkpt><trkpt lat="59.11088705062866" lon="30.49733877182007"><time>2026-08-20T08:23:55.000Z</time><extensions/></trkpt><trkpt lat="59.110844135284424" lon="30.49733877182007"><time>2026-08-20T08:24:00.000Z</time><extensions/></trkpt><trkpt lat="59.110844135284424" lon="30.497403144836426"><time>2026-08-20T08:24:02.000Z</time><extensions/></trkpt><trkpt lat="59.110844135284424" lon="30.497424602508545"><time>2026-08-20T08:24:05.000Z</time><extensions/></trkpt><trkpt lat="59.11086559295654" lon="30.497467517852783"><time>2026-08-20T08:24:07.000Z</time><extensions/></trkpt><trkpt lat="59.11086559295654" lon="30.49751043319702"><time>2026-08-20T08:24:10.000Z</time><extensions/></trkpt><trkpt lat="59.110844135284424" lon="30.49755334854126"><time>2026-08-20T08:24:12.000Z</time><extensions/></trkpt><trkpt lat="59.110844135284424" lon="30.497660636901855"><time>2026-08-20T08:24:15.000Z</time><extensions/></trkpt><trkpt lat="59.11086559295654" lon="30.497703552246094"><time>2026-08-20T08:24:17.000Z</time><extensions/></trkpt><trkpt lat="59.11088705062866" lon="30.497746467590332"><time>2026-08-20T08:24:20.000Z</time><extensions/></trkpt><trkpt lat="59.1109299659729" lon="30.49776792526245"><time>2026-08-20T08:24:22.000Z</time><extensions/></trkpt><trkpt lat="59.11095142364502" lon="30.49776792526245"><time>2026-08-20T08:24:25.000Z</time><extensions/></trkpt><trkpt lat="59.11097288131714" lon="30.497746467590332"><time>2026-08-20T08:24:27.000Z</time><extensions/></trkpt><trkpt lat="59.11097288131714" lon="30.497746467590332"><time>2026-08-20T08:24:30.000Z</time><extensions/></trkpt><trkpt lat="59.11101579666138" lon="30.497725009918213"><time>2026-08-20T08:24:32.000Z</time><extensions/></trkpt><trkpt lat="59.111037254333496" lon="30.497853755950928"><time>2026-08-20T08:24:50.000Z</time><extensions/></trkpt><trkpt lat="59.111058712005615" lon="30.497875213623047"><time>2026-08-20T08:25:20.000Z</time><extensions/></trkpt><trkpt lat="59.111058712005615" lon="30.497918128967285"><time>2026-08-20T08:25:25.000Z</time><extensions/></trkpt><trkpt lat="59.111080169677734" lon="30.497896671295166"><time>2026-08-20T08:25:35.000Z</time><extensions/></trkpt><trkpt lat="59.11112308502197" lon="30.497703552246094"><time>2026-08-20T08:26:00.000Z</time><extensions/></trkpt><trkpt lat="59.111080169677734" lon="30.497703552246094"><time>2026-08-20T08:26:02.000Z</time><extensions/></trkpt><trkpt lat="59.111058712005615" lon="30.497725009918213"><time>2026-08-20T08:26:05.000Z</time><extensions/></trkpt><trkpt lat="59.11101579666138" lon="30.49783229827881"><time>2026-08-20T08:26:17.000Z</time><extensions/></trkpt><trkpt lat="59.11101579666138" lon="30.49783229827881"><time>2026-08-20T08:26:32.000Z</time><extensions/></trkpt><trkpt lat="59.11101579666138" lon="30.49783229827881"><time>2026-08-20T08:27:02.000Z</time><extensions/></trkpt><trkpt lat="59.11101579666138" lon="30.49783229827881"><time>2026-08-20T08:27:17.000Z</time><extensions/></trkpt><trkpt lat="59.111037254333496" lon="30.49783229827881"><time>2026-08-20T08:27:47.000Z</time><extensions/></trkpt><trkpt lat="59.111037254333496" lon="30.49783229827881"><time>2026-08-20T08:28:17.000Z</time><extensions/></trkpt><trkpt lat="59.11101579666138" lon="30.497853755950928"><time>2026-08-20T08:28:47.000Z</time><extensions/></trkpt><trkpt lat="59.111080169677734" lon="30.497853755950928"><time>2026-08-20T08:29:17.000Z</time><extensions/></trkpt><trkpt lat="59.11116600036621" lon="30.497896671295166"><time>2026-08-20T08:29:22.000Z</time><extensions/></trkpt><trkpt lat="59.11118745803833" lon="30.497918128967285"><time>2026-08-20T08:29:25.000Z</time><extensions/></trkpt><trkpt lat="59.11116600036621" lon="30.498046875"><time>2026-08-20T08:29:40.000Z</time><extensions/></trkpt><trkpt lat="59.11112308502197" lon="30.49800395965576"><time>2026-08-20T08:29:42.000Z</time><extensions/></trkpt><trkpt lat="59.111058712005615" lon="30.497896671295166"><time>2026-08-20T08:29:45.000Z</time><extensions/></trkpt><trkpt lat="59.111058712005615" lon="30.49778938293457"><time>2026-08-20T08:29:47.000Z</time><extensions/></trkpt><trkpt lat="59.111058712005615" lon="30.497639179229736"><time>2026-08-20T08:29:50.000Z</time><extensions/></trkpt><trkpt lat="59.111080169677734" lon="30.49731731414795"><time>2026-08-20T08:30:00.000Z</time><extensions/></trkpt><trkpt lat="59.111080169677734" lon="30.49731731414795"><time>2026-08-20T08:30:05.000Z</time><extensions/></trkpt><trkpt lat="59.111037254333496" lon="30.49731731414795"><time>2026-08-20T08:30:07.000Z</time><extensions/></trkpt><trkpt lat="59.11097288131714" lon="30.497252941131592"><time>2026-08-20T08:30:10.000Z</time><extensions/></trkpt><trkpt lat="59.1109299659729" lon="30.497210025787354"><time>2026-08-20T08:30:15.000Z</time><extensions/></trkpt><trkpt lat="59.11090850830078" lon="30.497188568115234"><time>2026-08-20T08:30:32.000Z</time><extensions/></trkpt><trkpt lat="59.11090850830078" lon="30.49705982208252"><time>2026-08-20T08:30:42.000Z</time><extensions/></trkpt><trkpt lat="59.11090850830078" lon="30.496995449066162"><time>2026-08-20T08:30:45.000Z</time><extensions/></trkpt><trkpt lat="59.11090850830078" lon="30.496909618377686"><time>2026-08-20T08:30:47.000Z</time><extensions/></trkpt><trkpt lat="59.11090850830078" lon="30.49680233001709"><time>2026-08-20T08:30:50.000Z</time><extensions/></trkpt><trkpt lat="59.11088705062866" lon="30.496609210968018"><time>2026-08-20T08:31:02.000Z</time><extensions/></trkpt><trkpt lat="59.11088705062866" lon="30.496673583984375"><time>2026-08-20T08:31:05.000Z</time><extensions/></trkpt><trkpt lat="59.11088705062866" lon="30.496737957000732"><time>2026-08-20T08:31:07.000Z</time><extensions/></trkpt><trkpt lat="59.11086559295654" lon="30.496737957000732"><time>2026-08-20T08:31:10.000Z</time><extensions/></trkpt><trkpt lat="59.110844135284424" lon="30.496673583984375"><time>2026-08-20T08:31:20.000Z</time><extensions/></trkpt><trkpt lat="59.110844135284424" lon="30.4965877532959"><time>2026-08-20T08:31:25.000Z</time><extensions/></trkpt><trkpt lat="59.11086559295654" lon="30.49652338027954"><time>2026-08-20T08:31:27.000Z</time><extensions/></trkpt><trkpt lat="59.11088705062866" lon="30.496480464935303"><time>2026-08-20T08:31:30.000Z</time><extensions/></trkpt><trkpt lat="59.1109299659729" lon="30.496437549591064"><time>2026-08-20T08:31:32.000Z</time><extensions/></trkpt><trkpt lat="59.11097288131714" lon="30.49626588821411"><time>2026-08-20T08:31:52.000Z</time><extensions/></trkpt><trkpt lat="59.11099433898926" lon="30.49626588821411"><time>2026-08-20T08:31:55.000Z</time><extensions/></trkpt><trkpt lat="59.111037254333496" lon="30.49628734588623"><time>2026-08-20T08:31:57.000Z</time><extensions/></trkpt><trkpt lat="59.111058712005615" lon="30.49630880355835"><time>2026-08-20T08:32:00.000Z</time><extensions/></trkpt><trkpt lat="59.11120891571045" lon="30.49633026123047"><time>2026-08-20T08:32:10.000Z</time><extensions/></trkpt><trkpt lat="59.11123037338257" lon="30.49630880355835"><time>2026-08-20T08:32:12.000Z</time><extensions/></trkpt><trkpt lat="59.11125183105469" lon="30.496244430541992"><time>2026-08-20T08:32:15.000Z</time><extensions/></trkpt><trkpt lat="59.11127328872681" lon="30.496180057525635"><time>2026-08-20T08:32:17.000Z</time><extensions/></trkpt><trkpt lat="59.11125183105469" lon="30.4960298538208"><time>2026-08-20T08:32:20.000Z</time><extensions/></trkpt><trkpt lat="59.11123037338257" lon="30.495901107788086"><time>2026-08-20T08:32:22.000Z</time><extensions/></trkpt><trkpt lat="59.11118745803833" lon="30.495922565460205"><time>2026-08-20T08:32:25.000Z</time><extensions/></trkpt><trkpt lat="59.11118745803833" lon="30.49600839614868"><time>2026-08-20T08:32:27.000Z</time><extensions/></trkpt><trkpt lat="59.11116600036621" lon="30.49607276916504"><time>2026-08-20T08:32:30.000Z</time><extensions/></trkpt><trkpt lat="59.11112308502197" lon="30.496115684509277"><time>2026-08-20T08:32:32.000Z</time><extensions/></trkpt><trkpt lat="59.11099433898926" lon="30.496201515197754"><time>2026-08-20T08:32:40.000Z</time><extensions/></trkpt><trkpt lat="59.11095142364502" lon="30.496158599853516"><time>2026-08-20T08:32:42.000Z</time><extensions/></trkpt><trkpt lat="59.11090850830078" lon="30.49605131149292"><time>2026-08-20T08:32:45.000Z</time><extensions/></trkpt><trkpt lat="59.11088705062866" lon="30.495944023132324"><time>2026-08-20T08:32:47.000Z</time><extensions/></trkpt><trkpt lat="59.11086559295654" lon="30.49581527709961"><time>2026-08-20T08:32:50.000Z</time><extensions/></trkpt><trkpt lat="59.110822677612305" lon="30.495750904083252"><time>2026-08-20T08:32:52.000Z</time><extensions/></trkpt><trkpt lat="59.110822677612305" lon="30.495643615722656"><time>2026-08-20T08:32:55.000Z</time><extensions/></trkpt><trkpt lat="59.110801219940186" lon="30.4955792427063"><time>2026-08-20T08:32:57.000Z</time><extensions/></trkpt><trkpt lat="59.110801219940186" lon="30.495493412017822"><time>2026-08-20T08:33:00.000Z</time><extensions/></trkpt><trkpt lat="59.110801219940186" lon="30.495429039001465"><time>2026-08-20T08:33:02.000Z</time><extensions/></trkpt><trkpt lat="59.110822677612305" lon="30.49534320831299"><time>2026-08-20T08:33:05.000Z</time><extensions/></trkpt><trkpt lat="59.110822677612305" lon="30.49525737762451"><time>2026-08-20T08:33:07.000Z</time><extensions/></trkpt><trkpt lat="59.110801219940186" lon="30.495128631591797"><time>2026-08-20T08:33:12.000Z</time><extensions/></trkpt><trkpt lat="59.110779762268066" lon="30.49530029296875"><time>2026-08-20T08:33:22.000Z</time><extensions/></trkpt><trkpt lat="59.110822677612305" lon="30.49508571624756"><time>2026-08-20T08:33:45.000Z</time><extensions/></trkpt><trkpt lat="59.110822677612305" lon="30.49504280090332"><time>2026-08-20T08:33:47.000Z</time><extensions/></trkpt><trkpt lat="59.110822677612305" lon="30.494956970214844"><time>2026-08-20T08:33:50.000Z</time><extensions/></trkpt><trkpt lat="59.110844135284424" lon="30.494914054870605"><time>2026-08-20T08:33:52.000Z</time><extensions/></trkpt><trkpt lat="59.11086559295654" lon="30.494871139526367"><time>2026-08-20T08:33:55.000Z</time><extensions/></trkpt><trkpt lat="59.11088705062866" lon="30.49482822418213"><time>2026-08-20T08:33:57.000Z</time><extensions/></trkpt><trkpt lat="59.11088705062866" lon="30.49478530883789"><time>2026-08-20T08:34:07.000Z</time><extensions/></trkpt><trkpt lat="59.11090850830078" lon="30.494699478149414"><time>2026-08-20T08:34:10.000Z</time><extensions/></trkpt><trkpt lat="59.1109299659729" lon="30.494656562805176"><time>2026-08-20T08:34:12.000Z</time><extensions/></trkpt><trkpt lat="59.11099433898926" lon="30.494613647460938"><time>2026-08-20T08:34:15.000Z</time><extensions/></trkpt><trkpt lat="59.11101579666138" lon="30.494635105133057"><time>2026-08-20T08:34:17.000Z</time><extensions/></trkpt><trkpt lat="59.111058712005615" lon="30.494613647460938"><time>2026-08-20T08:34:25.000Z</time><extensions/></trkpt><trkpt lat="59.111080169677734" lon="30.49454927444458"><time>2026-08-20T08:34:27.000Z</time><extensions/></trkpt><trkpt lat="59.11114454269409" lon="30.494484901428223"><time>2026-08-20T08:34:32.000Z</time><extensions/></trkpt><trkpt lat="59.11116600036621" lon="30.49452781677246"><time>2026-08-20T08:34:35.000Z</time><extensions/></trkpt><trkpt lat="59.11114454269409" lon="30.4945707321167"><time>2026-08-20T08:34:37.000Z</time><extensions/></trkpt><trkpt lat="59.11118745803833" lon="30.494635105133057"><time>2026-08-20T08:34:40.000Z</time><extensions/></trkpt><trkpt lat="59.111080169677734" lon="30.494678020477295"><time>2026-08-20T08:34:50.000Z</time><extensions/></trkpt><trkpt lat="59.111058712005615" lon="30.4945707321167"><time>2026-08-20T08:34:52.000Z</time><extensions/></trkpt><trkpt lat="59.11099433898926" lon="30.494484901428223"><time>2026-08-20T08:34:55.000Z</time><extensions/></trkpt><trkpt lat="59.11097288131714" lon="30.49454927444458"><time>2026-08-20T08:34:57.000Z</time><extensions/></trkpt><trkpt lat="59.11095142364502" lon="30.49459218978882"><time>2026-08-20T08:35:00.000Z</time><extensions/></trkpt><trkpt lat="59.11090850830078" lon="30.494656562805176"><time>2026-08-20T08:35:02.000Z</time><extensions/></trkpt><trkpt lat="59.11086559295654" lon="30.494720935821533"><time>2026-08-20T08:35:05.000Z</time><extensions/></trkpt><trkpt lat="59.110779762268066" lon="30.49478530883789"><time>2026-08-20T08:35:30.000Z</time><extensions/></trkpt><trkpt lat="59.11075830459595" lon="30.494699478149414"><time>2026-08-20T08:35:42.000Z</time><extensions/></trkpt><trkpt lat="59.11069393157959" lon="30.494420528411865"><time>2026-08-20T08:35:47.000Z</time><extensions/></trkpt><trkpt lat="59.11067247390747" lon="30.494227409362793"><time>2026-08-20T08:35:50.000Z</time><extensions/></trkpt><trkpt lat="59.11065101623535" lon="30.494098663330078"><time>2026-08-20T08:35:52.000Z</time><extensions/></trkpt><trkpt lat="59.11060810089111" lon="30.493991374969482"><time>2026-08-20T08:35:55.000Z</time><extensions/></trkpt><trkpt lat="59.11062955856323" lon="30.493905544281006"><time>2026-08-20T08:35:57.000Z</time><extensions/></trkpt><trkpt lat="59.11060810089111" lon="30.49381971359253"><time>2026-08-20T08:36:00.000Z</time><extensions/></trkpt><trkpt lat="59.11060810089111" lon="30.493712425231934"><time>2026-08-20T08:36:02.000Z</time><extensions/></trkpt><trkpt lat="59.110586643218994" lon="30.49358367919922"><time>2026-08-20T08:36:05.000Z</time><extensions/></trkpt><trkpt lat="59.110565185546875" lon="30.493497848510742"><time>2026-08-20T08:36:07.000Z</time><extensions/></trkpt><trkpt lat="59.11052227020264" lon="30.493369102478027"><time>2026-08-20T08:36:10.000Z</time><extensions/></trkpt><trkpt lat="59.11052227020264" lon="30.493240356445312"><time>2026-08-20T08:36:12.000Z</time><extensions/></trkpt><trkpt lat="59.11052227020264" lon="30.493133068084717"><time>2026-08-20T08:36:15.000Z</time><extensions/></trkpt><trkpt lat="59.11050081253052" lon="30.492982864379883"><time>2026-08-20T08:36:17.000Z</time><extensions/></trkpt><trkpt lat="59.11043643951416" lon="30.492854118347168"><time>2026-08-20T08:36:20.000Z</time><extensions/></trkpt><trkpt lat="59.1103720664978" lon="30.49281120300293"><time>2026-08-20T08:36:22.000Z</time><extensions/></trkpt><trkpt lat="59.110329151153564" lon="30.492875576019287"><time>2026-08-20T08:36:25.000Z</time><extensions/></trkpt><trkpt lat="59.110286235809326" lon="30.492961406707764"><time>2026-08-20T08:36:27.000Z</time><extensions/></trkpt><trkpt lat="59.11026477813721" lon="30.49306869506836"><time>2026-08-20T08:36:30.000Z</time><extensions/></trkpt><trkpt lat="59.11022186279297" lon="30.49306869506836"><time>2026-08-20T08:36:32.000Z</time><extensions/></trkpt><trkpt lat="59.11017894744873" lon="30.49304723739624"><time>2026-08-20T08:36:35.000Z</time><extensions/></trkpt><trkpt lat="59.110093116760254" lon="30.49309015274048"><time>2026-08-20T08:36:37.000Z</time><extensions/></trkpt><trkpt lat="59.110050201416016" lon="30.493154525756836"><time>2026-08-20T08:36:40.000Z</time><extensions/></trkpt><trkpt lat="59.110071659088135" lon="30.49326181411743"><time>2026-08-20T08:36:42.000Z</time><extensions/></trkpt><trkpt lat="59.110093116760254" lon="30.493347644805908"><time>2026-08-20T08:36:45.000Z</time><extensions/></trkpt><trkpt lat="59.11015748977661" lon="30.493369102478027"><time>2026-08-20T08:36:47.000Z</time><extensions/></trkpt><trkpt lat="59.11022186279297" lon="30.493476390838623"><time>2026-08-20T08:36:50.000Z</time><extensions/></trkpt><trkpt lat="59.110307693481445" lon="30.49354076385498"><time>2026-08-20T08:36:52.000Z</time><extensions/></trkpt><trkpt lat="59.1103720664978" lon="30.493626594543457"><time>2026-08-20T08:36:55.000Z</time><extensions/></trkpt><trkpt lat="59.11041498184204" lon="30.493712425231934"><time>2026-08-20T08:36:57.000Z</time><extensions/></trkpt><trkpt lat="59.1104793548584" lon="30.493862628936768"><time>2026-08-20T08:37:00.000Z</time><extensions/></trkpt><trkpt lat="59.1104793548584" lon="30.4940128326416"><time>2026-08-20T08:37:02.000Z</time><extensions/></trkpt><trkpt lat="59.11050081253052" lon="30.494227409362793"><time>2026-08-20T08:37:05.000Z</time><extensions/></trkpt><trkpt lat="59.110543727874756" lon="30.494399070739746"><time>2026-08-20T08:37:07.000Z</time><extensions/></trkpt><trkpt lat="59.11062955856323" lon="30.494506359100342"><time>2026-08-20T08:37:10.000Z</time><extensions/></trkpt><trkpt lat="59.11069393157959" lon="30.49459218978882"><time>2026-08-20T08:37:12.000Z</time><extensions/></trkpt><trkpt lat="59.11069393157959" lon="30.494699478149414"><time>2026-08-20T08:37:15.000Z</time><extensions/></trkpt><trkpt lat="59.11075830459595" lon="30.49480676651001"><time>2026-08-20T08:37:25.000Z</time><extensions/></trkpt><trkpt lat="59.110801219940186" lon="30.49478530883789"><time>2026-08-20T08:37:27.000Z</time><extensions/></trkpt><trkpt lat="59.110844135284424" lon="30.494699478149414"><time>2026-08-20T08:37:30.000Z</time><extensions/></trkpt><trkpt lat="59.110822677612305" lon="30.494656562805176"><time>2026-08-20T08:37:32.000Z</time><extensions/></trkpt><trkpt lat="59.110801219940186" lon="30.494742393493652"><time>2026-08-20T08:37:35.000Z</time><extensions/></trkpt><trkpt lat="59.110779762268066" lon="30.49478530883789"><time>2026-08-20T08:37:37.000Z</time><extensions/></trkpt><trkpt lat="59.110779762268066" lon="30.494699478149414"><time>2026-08-20T08:37:40.000Z</time><extensions/></trkpt><trkpt lat="59.11073684692383" lon="30.494656562805176"><time>2026-08-20T08:37:42.000Z</time><extensions/></trkpt><trkpt lat="59.11073684692383" lon="30.4945707321167"><time>2026-08-20T08:37:45.000Z</time><extensions/></trkpt><trkpt lat="59.11071538925171" lon="30.494484901428223"><time>2026-08-20T08:37:47.000Z</time><extensions/></trkpt><trkpt lat="59.11075830459595" lon="30.494399070739746"><time>2026-08-20T08:37:52.000Z</time><extensions/></trkpt><trkpt lat="59.110801219940186" lon="30.49427032470703"><time>2026-08-20T08:37:55.000Z</time><extensions/></trkpt><trkpt lat="59.110779762268066" lon="30.494141578674316"><time>2026-08-20T08:37:57.000Z</time><extensions/></trkpt><trkpt lat="59.110779762268066" lon="30.4940128326416"><time>2026-08-20T08:38:00.000Z</time><extensions/></trkpt><trkpt lat="59.110779762268066" lon="30.493884086608887"><time>2026-08-20T08:38:02.000Z</time><extensions/></trkpt><trkpt lat="59.11075830459595" lon="30.49379825592041"><time>2026-08-20T08:38:05.000Z</time><extensions/></trkpt><trkpt lat="59.11071538925171" lon="30.493690967559814"><time>2026-08-20T08:38:07.000Z</time><extensions/></trkpt><trkpt lat="59.11067247390747" lon="30.493433475494385"><time>2026-08-20T08:38:20.000Z</time><extensions/></trkpt><trkpt lat="59.11069393157959" lon="30.493369102478027"><time>2026-08-20T08:38:22.000Z</time><extensions/></trkpt><trkpt lat="59.11067247390747" lon="30.49328327178955"><time>2026-08-20T08:38:25.000Z</time><extensions/></trkpt><trkpt lat="59.11069393157959" lon="30.493218898773193"><time>2026-08-20T08:38:27.000Z</time><extensions/></trkpt><trkpt lat="59.11060810089111" lon="30.493175983428955"><time>2026-08-20T08:38:50.000Z</time><extensions/></trkpt><trkpt lat="59.11052227020264" lon="30.493133068084717"><time>2026-08-20T08:39:00.000Z</time><extensions/></trkpt><trkpt lat="59.1104793548584" lon="30.493133068084717"><time>2026-08-20T08:39:02.000Z</time><extensions/></trkpt><trkpt lat="59.11043643951416" lon="30.493111610412598"><time>2026-08-20T08:39:05.000Z</time><extensions/></trkpt><trkpt lat="59.11041498184204" lon="30.49304723739624"><time>2026-08-20T08:39:10.000Z</time><extensions/></trkpt><trkpt lat="59.1103720664978" lon="30.493004322052002"><time>2026-08-20T08:39:12.000Z</time><extensions/></trkpt><trkpt lat="59.11026477813721" lon="30.492875576019287"><time>2026-08-20T08:39:35.000Z</time><extensions/></trkpt><trkpt lat="59.11026477813721" lon="30.492897033691406"><time>2026-08-20T08:39:42.000Z</time><extensions/></trkpt><trkpt lat="59.11026477813721" lon="30.492982864379883"><time>2026-08-20T08:39:45.000Z</time><extensions/></trkpt><trkpt lat="59.110286235809326" lon="30.49306869506836"><time>2026-08-20T08:39:47.000Z</time><extensions/></trkpt><trkpt lat="59.11024332046509" lon="30.49304723739624"><time>2026-08-20T08:39:50.000Z</time><extensions/></trkpt><trkpt lat="59.11017894744873" lon="30.49302577972412"><time>2026-08-20T08:39:52.000Z</time><extensions/></trkpt><trkpt lat="59.11011457443237" lon="30.492982864379883"><time>2026-08-20T08:39:55.000Z</time><extensions/></trkpt><trkpt lat="59.110050201416016" lon="30.492982864379883"><time>2026-08-20T08:39:57.000Z</time><extensions/></trkpt><trkpt lat="59.10998582839966" lon="30.49302577972412"><time>2026-08-20T08:40:00.000Z</time><extensions/></trkpt><trkpt lat="59.10994291305542" lon="30.49309015274048"><time>2026-08-20T08:40:10.000Z</time><extensions/></trkpt><trkpt lat="59.10989999771118" lon="30.49306869506836"><time>2026-08-20T08:40:12.000Z</time><extensions/></trkpt><trkpt lat="59.10989999771118" lon="30.492939949035645"><time>2026-08-20T08:40:22.000Z</time><extensions/></trkpt><trkpt lat="59.109835624694824" lon="30.49283266067505"><time>2026-08-20T08:40:30.000Z</time><extensions/></trkpt><trkpt lat="59.10987854003906" lon="30.49281120300293"><time>2026-08-20T08:40:32.000Z</time><extensions/></trkpt><trkpt lat="59.1099214553833" lon="30.49276828765869"><time>2026-08-20T08:40:35.000Z</time><extensions/></trkpt><trkpt lat="59.10996437072754" lon="30.49276828765869"><time>2026-08-20T08:40:37.000Z</time><extensions/></trkpt><trkpt lat="59.10998582839966" lon="30.49281120300293"><time>2026-08-20T08:40:40.000Z</time><extensions/></trkpt><trkpt lat="59.1100287437439" lon="30.492854118347168"><time>2026-08-20T08:40:42.000Z</time><extensions/></trkpt><trkpt lat="59.110071659088135" lon="30.49309015274048"><time>2026-08-20T08:40:55.000Z</time><extensions/></trkpt><trkpt lat="59.110071659088135" lon="30.493154525756836"><time>2026-08-20T08:40:57.000Z</time><extensions/></trkpt><trkpt lat="59.1100287437439" lon="30.49328327178955"><time>2026-08-20T08:41:27.000Z</time><extensions/></trkpt><trkpt lat="59.11000728607178" lon="30.493240356445312"><time>2026-08-20T08:41:30.000Z</time><extensions/></trkpt><trkpt lat="59.10998582839966" lon="30.493347644805908"><time>2026-08-20T08:41:47.000Z</time><extensions/></trkpt><trkpt lat="59.10998582839966" lon="30.493412017822266"><time>2026-08-20T08:41:50.000Z</time><extensions/></trkpt><trkpt lat="59.110050201416016" lon="30.493412017822266"><time>2026-08-20T08:41:55.000Z</time><extensions/></trkpt><trkpt lat="59.110071659088135" lon="30.493369102478027"><time>2026-08-20T08:41:57.000Z</time><extensions/></trkpt><trkpt lat="59.110093116760254" lon="30.49351930618286"><time>2026-08-20T08:42:27.000Z</time><extensions/></trkpt><trkpt lat="59.11013603210449" lon="30.49351930618286"><time>2026-08-20T08:42:30.000Z</time><extensions/></trkpt><trkpt lat="59.11015748977661" lon="30.493476390838623"><time>2026-08-20T08:42:32.000Z</time><extensions/></trkpt><trkpt lat="59.11020040512085" lon="30.493497848510742"><time>2026-08-20T08:42:35.000Z</time><extensions/></trkpt><trkpt lat="59.11020040512085" lon="30.49351930618286"><time>2026-08-20T08:42:37.000Z</time><extensions/></trkpt><trkpt lat="59.11015748977661" lon="30.493605136871338"><time>2026-08-20T08:42:42.000Z</time><extensions/></trkpt><trkpt lat="59.110071659088135" lon="30.49377679824829"><time>2026-08-20T08:42:50.000Z</time><extensions/></trkpt><trkpt lat="59.110050201416016" lon="30.493884086608887"><time>2026-08-20T08:42:57.000Z</time><extensions/></trkpt><trkpt lat="59.1100287437439" lon="30.493862628936768"><time>2026-08-20T08:43:00.000Z</time><extensions/></trkpt><trkpt lat="59.11000728607178" lon="30.493862628936768"><time>2026-08-20T08:43:02.000Z</time><extensions/></trkpt><trkpt lat="59.10996437072754" lon="30.493884086608887"><time>2026-08-20T08:43:05.000Z</time><extensions/></trkpt><trkpt lat="59.10998582839966" lon="30.493948459625244"><time>2026-08-20T08:43:07.000Z</time><extensions/></trkpt><trkpt lat="59.10994291305542" lon="30.49405574798584"><time>2026-08-20T08:43:17.000Z</time><extensions/></trkpt><trkpt lat="59.1099214553833" lon="30.494120121002197"><time>2026-08-20T08:43:20.000Z</time><extensions/></trkpt><trkpt lat="59.10987854003906" lon="30.494163036346436"><time>2026-08-20T08:43:22.000Z</time><extensions/></trkpt><trkpt lat="59.1099214553833" lon="30.494098663330078"><time>2026-08-20T08:43:27.000Z</time><extensions/></trkpt><trkpt lat="59.10996437072754" lon="30.49403429031372"><time>2026-08-20T08:43:30.000Z</time><extensions/></trkpt><trkpt lat="59.11000728607178" lon="30.49403429031372"><time>2026-08-20T08:43:32.000Z</time><extensions/></trkpt><trkpt lat="59.110050201416016" lon="30.494141578674316"><time>2026-08-20T08:43:52.000Z</time><extensions/></trkpt><trkpt lat="59.11000728607178" lon="30.494356155395508"><time>2026-08-20T08:44:22.000Z</time><extensions/></trkpt><trkpt lat="59.10998582839966" lon="30.494441986083984"><time>2026-08-20T08:44:47.000Z</time><extensions/></trkpt><trkpt lat="59.10998582839966" lon="30.49452781677246"><time>2026-08-20T08:44:50.000Z</time><extensions/></trkpt><trkpt lat="59.10998582839966" lon="30.49459218978882"><time>2026-08-20T08:44:52.000Z</time><extensions/></trkpt><trkpt lat="59.10996437072754" lon="30.494656562805176"><time>2026-08-20T08:44:55.000Z</time><extensions/></trkpt><trkpt lat="59.10994291305542" lon="30.494699478149414"><time>2026-08-20T08:44:57.000Z</time><extensions/></trkpt><trkpt lat="59.10989999771118" lon="30.49476385116577"><time>2026-08-20T08:45:00.000Z</time><extensions/></trkpt><trkpt lat="59.10985708236694" lon="30.49459218978882"><time>2026-08-20T08:45:15.000Z</time><extensions/></trkpt><trkpt lat="59.10989999771118" lon="30.4945707321167"><time>2026-08-20T08:45:17.000Z</time><extensions/></trkpt><trkpt lat="59.10994291305542" lon="30.494613647460938"><time>2026-08-20T08:45:20.000Z</time><extensions/></trkpt><trkpt lat="59.10998582839966" lon="30.494699478149414"><time>2026-08-20T08:45:22.000Z</time><extensions/></trkpt><trkpt lat="59.11000728607178" lon="30.49480676651001"><time>2026-08-20T08:45:25.000Z</time><extensions/></trkpt><trkpt lat="59.11000728607178" lon="30.494849681854248"><time>2026-08-20T08:45:27.000Z</time><extensions/></trkpt><trkpt lat="59.1100287437439" lon="30.494956970214844"><time>2026-08-20T08:45:32.000Z</time><extensions/></trkpt><trkpt lat="59.110050201416016" lon="30.494999885559082"><time>2026-08-20T08:45:35.000Z</time><extensions/></trkpt><trkpt lat="59.11011457443237" lon="30.49530029296875"><time>2026-08-20T08:46:02.000Z</time><extensions/></trkpt><trkpt lat="59.11013603210449" lon="30.495386123657227"><time>2026-08-20T08:46:32.000Z</time><extensions/></trkpt><trkpt lat="59.11013603210449" lon="30.495386123657227"><time>2026-08-20T08:46:42.000Z</time><extensions/></trkpt><trkpt lat="59.11011457443237" lon="30.495364665985107"><time>2026-08-20T08:47:12.000Z</time><extensions/></trkpt><trkpt lat="59.11013603210449" lon="30.495407581329346"><time>2026-08-20T08:47:35.000Z</time><extensions/></trkpt><trkpt lat="59.11017894744873" lon="30.495450496673584"><time>2026-08-20T08:47:37.000Z</time><extensions/></trkpt><trkpt lat="59.11024332046509" lon="30.49555778503418"><time>2026-08-20T08:47:45.000Z</time><extensions/></trkpt><trkpt lat="59.11024332046509" lon="30.495622158050537"><time>2026-08-20T08:47:47.000Z</time><extensions/></trkpt><trkpt lat="59.11024332046509" lon="30.495729446411133"><time>2026-08-20T08:47:50.000Z</time><extensions/></trkpt><trkpt lat="59.11022186279297" lon="30.495750904083252"><time>2026-08-20T08:47:52.000Z</time><extensions/></trkpt><trkpt lat="59.11020040512085" lon="30.495750904083252"><time>2026-08-20T08:47:55.000Z</time><extensions/></trkpt><trkpt lat="59.11022186279297" lon="30.49581527709961"><time>2026-08-20T08:48:05.000Z</time><extensions/></trkpt><trkpt lat="59.11024332046509" lon="30.495879650115967"><time>2026-08-20T08:48:10.000Z</time><extensions/></trkpt><trkpt lat="59.11026477813721" lon="30.495922565460205"><time>2026-08-20T08:48:12.000Z</time><extensions/></trkpt><trkpt lat="59.11026477813721" lon="30.49600839614868"><time>2026-08-20T08:48:15.000Z</time><extensions/></trkpt><trkpt lat="59.11024332046509" lon="30.49607276916504"><time>2026-08-20T08:48:17.000Z</time><extensions/></trkpt><trkpt lat="59.11020040512085" lon="30.49607276916504"><time>2026-08-20T08:48:20.000Z</time><extensions/></trkpt><trkpt lat="59.11017894744873" lon="30.496094226837158"><time>2026-08-20T08:48:22.000Z</time><extensions/></trkpt><trkpt lat="59.11015748977661" lon="30.496115684509277"><time>2026-08-20T08:48:25.000Z</time><extensions/></trkpt><trkpt lat="59.11015748977661" lon="30.495965480804443"><time>2026-08-20T08:48:52.000Z</time><extensions/></trkpt><trkpt lat="59.11017894744873" lon="30.49600839614868"><time>2026-08-20T08:48:55.000Z</time><extensions/></trkpt><trkpt lat="59.11020040512085" lon="30.49605131149292"><time>2026-08-20T08:48:57.000Z</time><extensions/></trkpt><trkpt lat="59.11022186279297" lon="30.496137142181396"><time>2026-08-20T08:49:02.000Z</time><extensions/></trkpt><trkpt lat="59.11022186279297" lon="30.496180057525635"><time>2026-08-20T08:49:05.000Z</time><extensions/></trkpt><trkpt lat="59.11020040512085" lon="30.496222972869873"><time>2026-08-20T08:49:35.000Z</time><extensions/></trkpt><trkpt lat="59.11015748977661" lon="30.496351718902588"><time>2026-08-20T08:49:55.000Z</time><extensions/></trkpt><trkpt lat="59.11013603210449" lon="30.496351718902588"><time>2026-08-20T08:50:02.000Z</time><extensions/></trkpt><trkpt lat="59.11011457443237" lon="30.49654483795166"><time>2026-08-20T08:50:15.000Z</time><extensions/></trkpt><trkpt lat="59.110093116760254" lon="30.496609210968018"><time>2026-08-20T08:50:30.000Z</time><extensions/></trkpt><trkpt lat="59.11011457443237" lon="30.49652338027954"><time>2026-08-20T08:50:45.000Z</time><extensions/></trkpt><trkpt lat="59.11011457443237" lon="30.49654483795166"><time>2026-08-20T08:51:15.000Z</time><extensions/></trkpt><trkpt lat="59.11015748977661" lon="30.496652126312256"><time>2026-08-20T08:51:45.000Z</time><extensions/></trkpt><trkpt lat="59.11015748977661" lon="30.496695041656494"><time>2026-08-20T08:52:00.000Z</time><extensions/></trkpt><trkpt lat="59.11015748977661" lon="30.496845245361328"><time>2026-08-20T08:52:05.000Z</time><extensions/></trkpt><trkpt lat="59.11013603210449" lon="30.496931076049805"><time>2026-08-20T08:52:07.000Z</time><extensions/></trkpt><trkpt lat="59.11013603210449" lon="30.496952533721924"><time>2026-08-20T08:52:10.000Z</time><extensions/></trkpt><trkpt lat="59.11026477813721" lon="30.497145652770996"><time>2026-08-20T08:52:40.000Z</time><extensions/></trkpt><trkpt lat="59.1103720664978" lon="30.497360229492188"><time>2026-08-20T08:52:52.000Z</time><extensions/></trkpt><trkpt lat="59.1103720664978" lon="30.497446060180664"><time>2026-08-20T08:52:55.000Z</time><extensions/></trkpt><trkpt lat="59.1103720664978" lon="30.49751043319702"><time>2026-08-20T08:52:57.000Z</time><extensions/></trkpt><trkpt lat="59.110329151153564" lon="30.49755334854126"><time>2026-08-20T08:53:00.000Z</time><extensions/></trkpt><trkpt lat="59.110307693481445" lon="30.49755334854126"><time>2026-08-20T08:53:02.000Z</time><extensions/></trkpt><trkpt lat="59.11026477813721" lon="30.49753189086914"><time>2026-08-20T08:53:05.000Z</time><extensions/></trkpt><trkpt lat="59.11024332046509" lon="30.49755334854126"><time>2026-08-20T08:53:07.000Z</time><extensions/></trkpt><trkpt lat="59.11020040512085" lon="30.497381687164307"><time>2026-08-20T08:53:30.000Z</time><extensions/></trkpt><trkpt lat="59.11022186279297" lon="30.497360229492188"><time>2026-08-20T08:53:32.000Z</time><extensions/></trkpt><trkpt lat="59.110307693481445" lon="30.497360229492188"><time>2026-08-20T08:53:40.000Z</time><extensions/></trkpt><trkpt lat="59.11043643951416" lon="30.497446060180664"><time>2026-08-20T08:53:55.000Z</time><extensions/></trkpt><trkpt lat="59.11052227020264" lon="30.49757480621338"><time>2026-08-20T08:54:25.000Z</time><extensions/></trkpt><trkpt lat="59.11050081253052" lon="30.497682094573975"><time>2026-08-20T08:54:50.000Z</time><extensions/></trkpt><trkpt lat="59.11052227020264" lon="30.497746467590332"><time>2026-08-20T08:54:52.000Z</time><extensions/></trkpt><trkpt lat="59.11052227020264" lon="30.497961044311523"><time>2026-08-20T08:55:22.000Z</time><extensions/></trkpt><trkpt lat="59.11050081253052" lon="30.497939586639404"><time>2026-08-20T08:55:32.000Z</time><extensions/></trkpt><trkpt lat="59.1104793548584" lon="30.49800395965576"><time>2026-08-20T08:55:35.000Z</time><extensions/></trkpt><trkpt lat="59.11043643951416" lon="30.49802541732788"><time>2026-08-20T08:55:37.000Z</time><extensions/></trkpt><trkpt lat="59.11041498184204" lon="30.49806833267212"><time>2026-08-20T08:55:40.000Z</time><extensions/></trkpt><trkpt lat="59.11039352416992" lon="30.498111248016357"><time>2026-08-20T08:55:42.000Z</time><extensions/></trkpt><trkpt lat="59.11039352416992" lon="30.498111248016357"><time>2026-08-20T08:55:45.000Z</time><extensions/></trkpt><trkpt lat="59.11041498184204" lon="30.498111248016357"><time>2026-08-20T08:55:47.000Z</time><extensions/></trkpt><trkpt lat="59.11043643951416" lon="30.498111248016357"><time>2026-08-20T08:55:50.000Z</time><extensions/></trkpt><trkpt lat="59.1104793548584" lon="30.49808979034424"><time>2026-08-20T08:55:52.000Z</time><extensions/></trkpt><trkpt lat="59.110543727874756" lon="30.49826145172119"><time>2026-08-20T08:56:22.000Z</time><extensions/></trkpt><trkpt lat="59.110565185546875" lon="30.49826145172119"><time>2026-08-20T08:56:47.000Z</time><extensions/></trkpt><trkpt lat="59.110586643218994" lon="30.49830436706543"><time>2026-08-20T08:56:52.000Z</time><extensions/></trkpt><trkpt lat="59.11062955856323" lon="30.498433113098145"><time>2026-08-20T08:57:10.000Z</time><extensions/></trkpt><trkpt lat="59.11065101623535" lon="30.498433113098145"><time>2026-08-20T08:57:17.000Z</time><extensions/></trkpt><trkpt lat="59.11062955856323" lon="30.498433113098145"><time>2026-08-20T08:57:20.000Z</time><extensions/></trkpt><trkpt lat="59.110586643218994" lon="30.498347282409668"><time>2026-08-20T08:57:22.000Z</time><extensions/></trkpt><trkpt lat="59.110565185546875" lon="30.49830436706543"><time>2026-08-20T08:57:25.000Z</time><extensions/></trkpt><trkpt lat="59.110543727874756" lon="30.49828290939331"><time>2026-08-20T08:57:27.000Z</time><extensions/></trkpt><trkpt lat="59.11052227020264" lon="30.49832582473755"><time>2026-08-20T08:57:30.000Z</time><extensions/></trkpt><trkpt lat="59.11050081253052" lon="30.498390197753906"><time>2026-08-20T08:57:32.000Z</time><extensions/></trkpt><trkpt lat="59.11041498184204" lon="30.49858331680298"><time>2026-08-20T08:57:40.000Z</time><extensions/></trkpt><trkpt lat="59.11041498184204" lon="30.498669147491455"><time>2026-08-20T08:57:42.000Z</time><extensions/></trkpt><trkpt lat="59.11041498184204" lon="30.498647689819336"><time>2026-08-20T08:57:45.000Z</time><extensions/></trkpt><trkpt lat="59.11043643951416" lon="30.498690605163574"><time>2026-08-20T08:57:47.000Z</time><extensions/></trkpt><trkpt lat="59.1104793548584" lon="30.498712062835693"><time>2026-08-20T08:57:50.000Z</time><extensions/></trkpt><trkpt lat="59.1104793548584" lon="30.49877643585205"><time>2026-08-20T08:57:52.000Z</time><extensions/></trkpt><trkpt lat="59.110543727874756" lon="30.498840808868408"><time>2026-08-20T08:57:55.000Z</time><extensions/></trkpt><trkpt lat="59.110565185546875" lon="30.498905181884766"><time>2026-08-20T08:57:57.000Z</time><extensions/></trkpt><trkpt lat="59.11060810089111" lon="30.499162673950195"><time>2026-08-20T08:58:25.000Z</time><extensions/></trkpt><trkpt lat="59.11062955856323" lon="30.49926996231079"><time>2026-08-20T08:58:27.000Z</time><extensions/></trkpt><trkpt lat="59.110586643218994" lon="30.499355792999268"><time>2026-08-20T08:58:30.000Z</time><extensions/></trkpt><trkpt lat="59.110565185546875" lon="30.49931287765503"><time>2026-08-20T08:58:32.000Z</time><extensions/></trkpt><trkpt lat="59.110565185546875" lon="30.499420166015625"><time>2026-08-20T08:58:40.000Z</time><extensions/></trkpt><trkpt lat="59.110565185546875" lon="30.499484539031982"><time>2026-08-20T08:58:42.000Z</time><extensions/></trkpt><trkpt lat="59.110543727874756" lon="30.49952745437622"><time>2026-08-20T08:58:45.000Z</time><extensions/></trkpt><trkpt lat="59.110543727874756" lon="30.49954891204834"><time>2026-08-20T08:58:47.000Z</time><extensions/></trkpt><trkpt lat="59.11052227020264" lon="30.49957036972046"><time>2026-08-20T08:58:55.000Z</time><extensions/></trkpt><trkpt lat="59.11050081253052" lon="30.49952745437622"><time>2026-08-20T08:58:57.000Z</time><extensions/></trkpt><trkpt lat="59.11052227020264" lon="30.4995059967041"><time>2026-08-20T08:59:00.000Z</time><extensions/></trkpt><trkpt lat="59.11052227020264" lon="30.499484539031982"><time>2026-08-20T08:59:02.000Z</time><extensions/></trkpt><trkpt lat="59.110543727874756" lon="30.499656200408936"><time>2026-08-20T08:59:07.000Z</time><extensions/></trkpt><trkpt lat="59.110543727874756" lon="30.49978494644165"><time>2026-08-20T08:59:17.000Z</time><extensions/></trkpt><trkpt lat="59.11052227020264" lon="30.49982786178589"><time>2026-08-20T08:59:20.000Z</time><extensions/></trkpt><trkpt lat="59.110543727874756" lon="30.49978494644165"><time>2026-08-20T08:59:25.000Z</time><extensions/></trkpt><trkpt lat="59.110565185546875" lon="30.499699115753174"><time>2026-08-20T08:59:37.000Z</time><extensions/></trkpt><trkpt lat="59.11060810089111" lon="30.499699115753174"><time>2026-08-20T08:59:40.000Z</time><extensions/></trkpt><trkpt lat="59.11060810089111" lon="30.499742031097412"><time>2026-08-20T08:59:42.000Z</time><extensions/></trkpt><trkpt lat="59.11060810089111" lon="30.49980640411377"><time>2026-08-20T08:59:45.000Z</time><extensions/></trkpt><trkpt lat="59.110586643218994" lon="30.499870777130127"><time>2026-08-20T08:59:47.000Z</time><extensions/></trkpt><trkpt lat="59.110565185546875" lon="30.499870777130127"><time>2026-08-20T08:59:50.000Z</time><extensions/></trkpt><trkpt lat="59.11052227020264" lon="30.499870777130127"><time>2026-08-20T08:59:52.000Z</time><extensions/></trkpt><trkpt lat="59.110543727874756" lon="30.499849319458008"><time>2026-08-20T08:59:55.000Z</time><extensions/></trkpt><trkpt lat="59.11050081253052" lon="30.499892234802246"><time>2026-08-20T09:00:00.000Z</time><extensions/></trkpt><trkpt lat="59.11045789718628" lon="30.499978065490723"><time>2026-08-20T09:00:10.000Z</time><extensions/></trkpt><trkpt lat="59.11041498184204" lon="30.5000638961792"><time>2026-08-20T09:00:15.000Z</time><extensions/></trkpt><trkpt lat="59.1103720664978" lon="30.50008535385132"><time>2026-08-20T09:00:17.000Z</time><extensions/></trkpt><trkpt lat="59.110350608825684" lon="30.500171184539795"><time>2026-08-20T09:00:20.000Z</time><extensions/></trkpt><trkpt lat="59.11026477813721" lon="30.50027847290039"><time>2026-08-20T09:00:32.000Z</time><extensions/></trkpt><trkpt lat="59.11022186279297" lon="30.50027847290039"><time>2026-08-20T09:00:35.000Z</time><extensions/></trkpt><trkpt lat="59.11015748977661" lon="30.500214099884033"><time>2026-08-20T09:00:37.000Z</time><extensions/></trkpt><trkpt lat="59.110093116760254" lon="30.500214099884033"><time>2026-08-20T09:00:40.000Z</time><extensions/></trkpt><trkpt lat="59.110093116760254" lon="30.500149726867676"><time>2026-08-20T09:00:42.000Z</time><extensions/></trkpt><trkpt lat="59.110071659088135" lon="30.50002098083496"><time>2026-08-20T09:00:45.000Z</time><extensions/></trkpt><trkpt lat="59.11011457443237" lon="30.499999523162842"><time>2026-08-20T09:00:50.000Z</time><extensions/></trkpt><trkpt lat="59.11013603210449" lon="30.499956607818604"><time>2026-08-20T09:00:52.000Z</time><extensions/></trkpt><trkpt lat="59.11020040512085" lon="30.499892234802246"><time>2026-08-20T09:00:55.000Z</time><extensions/></trkpt><trkpt lat="59.11024332046509" lon="30.499913692474365"><time>2026-08-20T09:00:57.000Z</time><extensions/></trkpt><trkpt lat="59.110286235809326" lon="30.499999523162842"><time>2026-08-20T09:01:00.000Z</time><extensions/></trkpt><trkpt lat="59.110329151153564" lon="30.50008535385132"><time>2026-08-20T09:01:02.000Z</time><extensions/></trkpt><trkpt lat="59.110350608825684" lon="30.500171184539795"><time>2026-08-20T09:01:05.000Z</time><extensions/></trkpt><trkpt lat="59.110329151153564" lon="30.50025701522827"><time>2026-08-20T09:01:07.000Z</time><extensions/></trkpt><trkpt lat="59.110307693481445" lon="30.500364303588867"><time>2026-08-20T09:01:10.000Z</time><extensions/></trkpt><trkpt lat="59.110329151153564" lon="30.500450134277344"><time>2026-08-20T09:01:12.000Z</time><extensions/></trkpt><trkpt lat="59.110307693481445" lon="30.50057888031006"><time>2026-08-20T09:01:15.000Z</time><extensions/></trkpt><trkpt lat="59.110350608825684" lon="30.500643253326416"><time>2026-08-20T09:01:17.000Z</time><extensions/></trkpt><trkpt lat="59.11039352416992" lon="30.50075054168701"><time>2026-08-20T09:01:20.000Z</time><extensions/></trkpt><trkpt lat="59.11041498184204" lon="30.50079345703125"><time>2026-08-20T09:01:22.000Z</time><extensions/></trkpt><trkpt lat="59.11043643951416" lon="30.500900745391846"><time>2026-08-20T09:01:25.000Z</time><extensions/></trkpt><trkpt lat="59.11045789718628" lon="30.500986576080322"><time>2026-08-20T09:01:27.000Z</time><extensions/></trkpt><trkpt lat="59.11041498184204" lon="30.50105094909668"><time>2026-08-20T09:01:30.000Z</time><extensions/></trkpt><trkpt lat="59.1103720664978" lon="30.501136779785156"><time>2026-08-20T09:01:32.000Z</time><extensions/></trkpt><trkpt lat="59.110329151153564" lon="30.501222610473633"><time>2026-08-20T09:01:35.000Z</time><extensions/></trkpt><trkpt lat="59.110286235809326" lon="30.501201152801514"><time>2026-08-20T09:01:37.000Z</time><extensions/></trkpt><trkpt lat="59.11024332046509" lon="30.501222610473633"><time>2026-08-20T09:01:40.000Z</time><extensions/></trkpt><trkpt lat="59.11026477813721" lon="30.50130844116211"><time>2026-08-20T09:01:45.000Z</time><extensions/></trkpt><trkpt lat="59.110286235809326" lon="30.50128698348999"><time>2026-08-20T09:01:47.000Z</time><extensions/></trkpt><trkpt lat="59.110286235809326" lon="30.501201152801514"><time>2026-08-20T09:01:50.000Z</time><extensions/></trkpt><trkpt lat="59.11026477813721" lon="30.5010724067688"><time>2026-08-20T09:01:52.000Z</time><extensions/></trkpt><trkpt lat="59.11024332046509" lon="30.500986576080322"><time>2026-08-20T09:01:55.000Z</time><extensions/></trkpt><trkpt lat="59.11026477813721" lon="30.500857830047607"><time>2026-08-20T09:01:57.000Z</time><extensions/></trkpt><trkpt lat="59.110286235809326" lon="30.50075054168701"><time>2026-08-20T09:02:00.000Z</time><extensions/></trkpt><trkpt lat="59.110329151153564" lon="30.50079345703125"><time>2026-08-20T09:02:02.000Z</time><extensions/></trkpt><trkpt lat="59.110329151153564" lon="30.50083637237549"><time>2026-08-20T09:02:05.000Z</time><extensions/></trkpt><trkpt lat="59.110307693481445" lon="30.500879287719727"><time>2026-08-20T09:02:07.000Z</time><extensions/></trkpt><trkpt lat="59.110307693481445" lon="30.500965118408203"><time>2026-08-20T09:02:10.000Z</time><extensions/></trkpt><trkpt lat="59.110329151153564" lon="30.500986576080322"><time>2026-08-20T09:02:12.000Z</time><extensions/></trkpt><trkpt lat="59.110329151153564" lon="30.50105094909668"><time>2026-08-20T09:02:15.000Z</time><extensions/></trkpt><trkpt lat="59.110350608825684" lon="30.501136779785156"><time>2026-08-20T09:02:17.000Z</time><extensions/></trkpt><trkpt lat="59.11039352416992" lon="30.501222610473633"><time>2026-08-20T09:02:20.000Z</time><extensions/></trkpt><trkpt lat="59.11041498184204" lon="30.50128698348999"><time>2026-08-20T09:02:22.000Z</time><extensions/></trkpt><trkpt lat="59.11043643951416" lon="30.501415729522705"><time>2026-08-20T09:02:25.000Z</time><extensions/></trkpt><trkpt lat="59.11043643951416" lon="30.50150156021118"><time>2026-08-20T09:02:27.000Z</time><extensions/></trkpt><trkpt lat="59.11050081253052" lon="30.501458644866943"><time>2026-08-20T09:02:32.000Z</time><extensions/></trkpt><trkpt lat="59.11050081253052" lon="30.501587390899658"><time>2026-08-20T09:02:37.000Z</time><extensions/></trkpt><trkpt lat="59.11050081253052" lon="30.501673221588135"><time>2026-08-20T09:02:40.000Z</time><extensions/></trkpt><trkpt lat="59.11052227020264" lon="30.501737594604492"><time>2026-08-20T09:02:42.000Z</time><extensions/></trkpt><trkpt lat="59.11050081253052" lon="30.50175905227661"><time>2026-08-20T09:02:45.000Z</time><extensions/></trkpt><trkpt lat="59.1104793548584" lon="30.50180196762085"><time>2026-08-20T09:02:47.000Z</time><extensions/></trkpt><trkpt lat="59.11045789718628" lon="30.50178050994873"><time>2026-08-20T09:02:52.000Z</time><extensions/></trkpt><trkpt lat="59.11041498184204" lon="30.501737594604492"><time>2026-08-20T09:02:55.000Z</time><extensions/></trkpt><trkpt lat="59.1103720664978" lon="30.501673221588135"><time>2026-08-20T09:02:57.000Z</time><extensions/></trkpt><trkpt lat="59.110329151153564" lon="30.501608848571777"><time>2026-08-20T09:03:00.000Z</time><extensions/></trkpt><trkpt lat="59.110329151153564" lon="30.5015230178833"><time>2026-08-20T09:03:02.000Z</time><extensions/></trkpt><trkpt lat="59.110329151153564" lon="30.501480102539062"><time>2026-08-20T09:03:05.000Z</time><extensions/></trkpt><trkpt lat="59.110350608825684" lon="30.501480102539062"><time>2026-08-20T09:03:10.000Z</time><extensions/></trkpt><trkpt lat="59.11039352416992" lon="30.50150156021118"><time>2026-08-20T09:03:12.000Z</time><extensions/></trkpt><trkpt lat="59.11043643951416" lon="30.50154447555542"><time>2026-08-20T09:03:15.000Z</time><extensions/></trkpt><trkpt lat="59.1104793548584" lon="30.50156593322754"><time>2026-08-20T09:03:17.000Z</time><extensions/></trkpt><trkpt lat="59.11052227020264" lon="30.5015230178833"><time>2026-08-20T09:03:20.000Z</time><extensions/></trkpt><trkpt lat="59.11060810089111" lon="30.50154447555542"><time>2026-08-20T09:03:35.000Z</time><extensions/></trkpt><trkpt lat="59.11067247390747" lon="30.501608848571777"><time>2026-08-20T09:03:37.000Z</time><extensions/></trkpt><trkpt lat="59.11071538925171" lon="30.501673221588135"><time>2026-08-20T09:03:40.000Z</time><extensions/></trkpt><trkpt lat="59.11071538925171" lon="30.501737594604492"><time>2026-08-20T09:03:42.000Z</time><extensions/></trkpt><trkpt lat="59.11071538925171" lon="30.50178050994873"><time>2026-08-20T09:03:45.000Z</time><extensions/></trkpt><trkpt lat="59.11067247390747" lon="30.50180196762085"><time>2026-08-20T09:03:47.000Z</time><extensions/></trkpt><trkpt lat="59.11062955856323" lon="30.50178050994873"><time>2026-08-20T09:03:50.000Z</time><extensions/></trkpt><trkpt lat="59.110586643218994" lon="30.50180196762085"><time>2026-08-20T09:03:52.000Z</time><extensions/></trkpt><trkpt lat="59.110565185546875" lon="30.50182342529297"><time>2026-08-20T09:03:55.000Z</time><extensions/></trkpt><trkpt lat="59.110543727874756" lon="30.501930713653564"><time>2026-08-20T09:04:00.000Z</time><extensions/></trkpt><trkpt lat="59.11045789718628" lon="30.501952171325684"><time>2026-08-20T09:04:07.000Z</time><extensions/></trkpt><trkpt lat="59.11041498184204" lon="30.501973628997803"><time>2026-08-20T09:04:10.000Z</time><extensions/></trkpt><trkpt lat="59.11045789718628" lon="30.501973628997803"><time>2026-08-20T09:04:35.000Z</time><extensions/></trkpt><trkpt lat="59.11050081253052" lon="30.501973628997803"><time>2026-08-20T09:04:37.000Z</time><extensions/></trkpt><trkpt lat="59.1104793548584" lon="30.50203800201416"><time>2026-08-20T09:04:45.000Z</time><extensions/></trkpt><trkpt lat="59.11045789718628" lon="30.5020809173584"><time>2026-08-20T09:05:00.000Z</time><extensions/></trkpt><trkpt lat="59.1104793548584" lon="30.50203800201416"><time>2026-08-20T09:05:02.000Z</time><extensions/></trkpt><trkpt lat="59.1104793548584" lon="30.501973628997803"><time>2026-08-20T09:05:32.000Z</time><extensions/></trkpt><trkpt lat="59.1104793548584" lon="30.501973628997803"><time>2026-08-20T09:06:02.000Z</time><extensions/></trkpt><trkpt lat="59.1104793548584" lon="30.50201654434204"><time>2026-08-20T09:06:32.000Z</time><extensions/></trkpt><trkpt lat="59.1104793548584" lon="30.50201654434204"><time>2026-08-20T09:07:02.000Z</time><extensions/></trkpt><trkpt lat="59.11052227020264" lon="30.502231121063232"><time>2026-08-20T09:07:32.000Z</time><extensions/></trkpt><trkpt lat="59.11045789718628" lon="30.50231695175171"><time>2026-08-20T09:07:40.000Z</time><extensions/></trkpt><trkpt lat="59.11050081253052" lon="30.50229549407959"><time>2026-08-20T09:07:47.000Z</time><extensions/></trkpt><trkpt lat="59.110543727874756" lon="30.502209663391113"><time>2026-08-20T09:07:50.000Z</time><extensions/></trkpt><trkpt lat="59.110543727874756" lon="30.502123832702637"><time>2026-08-20T09:07:52.000Z</time><extensions/></trkpt><trkpt lat="59.11052227020264" lon="30.5020809173584"><time>2026-08-20T09:07:55.000Z</time><extensions/></trkpt><trkpt lat="59.11050081253052" lon="30.50203800201416"><time>2026-08-20T09:07:57.000Z</time><extensions/></trkpt><trkpt lat="59.11045789718628" lon="30.5020809173584"><time>2026-08-20T09:08:22.000Z</time><extensions/></trkpt><trkpt lat="59.11043643951416" lon="30.502145290374756"><time>2026-08-20T09:08:25.000Z</time><extensions/></trkpt><trkpt lat="59.11041498184204" lon="30.50229549407959"><time>2026-08-20T09:08:30.000Z</time><extensions/></trkpt><trkpt lat="59.11043643951416" lon="30.502359867095947"><time>2026-08-20T09:08:32.000Z</time><extensions/></trkpt><trkpt lat="59.11045789718628" lon="30.502402782440186"><time>2026-08-20T09:08:35.000Z</time><extensions/></trkpt><trkpt lat="59.11045789718628" lon="30.502445697784424"><time>2026-08-20T09:08:37.000Z</time><extensions/></trkpt><trkpt lat="59.11045789718628" lon="30.502467155456543"><time>2026-08-20T09:08:40.000Z</time><extensions/></trkpt><trkpt lat="59.11050081253052" lon="30.502424240112305"><time>2026-08-20T09:09:02.000Z</time><extensions/></trkpt><trkpt lat="59.1104793548584" lon="30.50231695175171"><time>2026-08-20T09:09:05.000Z</time><extensions/></trkpt><trkpt lat="59.1104793548584" lon="30.502209663391113"><time>2026-08-20T09:09:07.000Z</time><extensions/></trkpt><trkpt lat="59.11045789718628" lon="30.502123832702637"><time>2026-08-20T09:09:10.000Z</time><extensions/></trkpt><trkpt lat="59.11041498184204" lon="30.5020809173584"><time>2026-08-20T09:09:12.000Z</time><extensions/></trkpt><trkpt lat="59.11041498184204" lon="30.50203800201416"><time>2026-08-20T09:09:20.000Z</time><extensions/></trkpt><trkpt lat="59.11045789718628" lon="30.50201654434204"><time>2026-08-20T09:09:22.000Z</time><extensions/></trkpt><trkpt lat="59.110543727874756" lon="30.501952171325684"><time>2026-08-20T09:09:52.000Z</time><extensions/></trkpt><trkpt lat="59.110565185546875" lon="30.501909255981445"><time>2026-08-20T09:10:22.000Z</time><extensions/></trkpt><trkpt lat="59.110565185546875" lon="30.501909255981445"><time>2026-08-20T09:10:52.000Z</time><extensions/></trkpt><trkpt lat="59.110565185546875" lon="30.501909255981445"><time>2026-08-20T09:11:22.000Z</time><extensions/></trkpt><trkpt lat="59.110565185546875" lon="30.501973628997803"><time>2026-08-20T09:11:35.000Z</time><extensions/></trkpt><trkpt lat="59.11060810089111" lon="30.50205945968628"><time>2026-08-20T09:11:40.000Z</time><extensions/></trkpt><trkpt lat="59.11062955856323" lon="30.502102375030518"><time>2026-08-20T09:11:42.000Z</time><extensions/></trkpt><trkpt lat="59.11069393157959" lon="30.50203800201416"><time>2026-08-20T09:12:02.000Z</time><extensions/></trkpt><trkpt lat="59.11071538925171" lon="30.501909255981445"><time>2026-08-20T09:12:22.000Z</time><extensions/></trkpt><trkpt lat="59.11075830459595" lon="30.50182342529297"><time>2026-08-20T09:12:35.000Z</time><extensions/></trkpt><trkpt lat="59.110801219940186" lon="30.50178050994873"><time>2026-08-20T09:12:37.000Z</time><extensions/></trkpt><trkpt lat="59.110822677612305" lon="30.501716136932373"><time>2026-08-20T09:12:40.000Z</time><extensions/></trkpt><trkpt lat="59.110844135284424" lon="30.501651763916016"><time>2026-08-20T09:12:42.000Z</time><extensions/></trkpt><trkpt lat="59.11088705062866" lon="30.501608848571777"><time>2026-08-20T09:12:45.000Z</time><extensions/></trkpt><trkpt lat="59.1109299659729" lon="30.501694679260254"><time>2026-08-20T09:12:52.000Z</time><extensions/></trkpt><trkpt lat="59.11097288131714" lon="30.50175905227661"><time>2026-08-20T09:12:55.000Z</time><extensions/></trkpt><trkpt lat="59.11097288131714" lon="30.50182342529297"><time>2026-08-20T09:12:57.000Z</time><extensions/></trkpt><trkpt lat="59.11101579666138" lon="30.501866340637207"><time>2026-08-20T09:13:02.000Z</time><extensions/></trkpt><trkpt lat="59.111058712005615" lon="30.501887798309326"><time>2026-08-20T09:13:12.000Z</time><extensions/></trkpt><trkpt lat="59.11110162734985" lon="30.501844882965088"><time>2026-08-20T09:13:15.000Z</time><extensions/></trkpt><trkpt lat="59.11112308502197" lon="30.50182342529297"><time>2026-08-20T09:13:17.000Z</time><extensions/></trkpt><trkpt lat="59.11112308502197" lon="30.50178050994873"><time>2026-08-20T09:13:20.000Z</time><extensions/></trkpt><trkpt lat="59.111294746398926" lon="30.501737594604492"><time>2026-08-20T09:13:50.000Z</time><extensions/></trkpt><trkpt lat="59.111487865448" lon="30.501716136932373"><time>2026-08-20T09:14:20.000Z</time><extensions/></trkpt><trkpt lat="59.111530780792236" lon="30.501716136932373"><time>2026-08-20T09:14:25.000Z</time><extensions/></trkpt><trkpt lat="59.111573696136475" lon="30.501716136932373"><time>2026-08-20T09:14:27.000Z</time><extensions/></trkpt><trkpt lat="59.11161661148071" lon="30.501694679260254"><time>2026-08-20T09:14:35.000Z</time><extensions/></trkpt><trkpt lat="59.11165952682495" lon="30.501651763916016"><time>2026-08-20T09:14:37.000Z</time><extensions/></trkpt><trkpt lat="59.11170244216919" lon="30.501630306243896"><time>2026-08-20T09:14:40.000Z</time><extensions/></trkpt><trkpt lat="59.11170244216919" lon="30.50156593322754"><time>2026-08-20T09:14:42.000Z</time><extensions/></trkpt><trkpt lat="59.11170244216919" lon="30.50154447555542"><time>2026-08-20T09:14:45.000Z</time><extensions/></trkpt><trkpt lat="59.11172389984131" lon="30.501608848571777"><time>2026-08-20T09:14:47.000Z</time><extensions/></trkpt><trkpt lat="59.11176681518555" lon="30.501630306243896"><time>2026-08-20T09:14:57.000Z</time><extensions/></trkpt><trkpt lat="59.111809730529785" lon="30.501608848571777"><time>2026-08-20T09:15:00.000Z</time><extensions/></trkpt><trkpt lat="59.111831188201904" lon="30.501587390899658"><time>2026-08-20T09:15:02.000Z</time><extensions/></trkpt><trkpt lat="59.11189556121826" lon="30.50154447555542"><time>2026-08-20T09:15:12.000Z</time><extensions/></trkpt><trkpt lat="59.112067222595215" lon="30.501458644866943"><time>2026-08-20T09:15:30.000Z</time><extensions/></trkpt><trkpt lat="59.11219596862793" lon="30.501458644866943"><time>2026-08-20T09:16:00.000Z</time><extensions/></trkpt><trkpt lat="59.11221742630005" lon="30.50150156021118"><time>2026-08-20T09:16:30.000Z</time><extensions/></trkpt><trkpt lat="59.11223888397217" lon="30.501480102539062"><time>2026-08-20T09:16:32.000Z</time><extensions/></trkpt><trkpt lat="59.112281799316406" lon="30.501480102539062"><time>2026-08-20T09:16:35.000Z</time><extensions/></trkpt><trkpt lat="59.11223888397217" lon="30.501480102539062"><time>2026-08-20T09:16:40.000Z</time><extensions/></trkpt><trkpt lat="59.11219596862793" lon="30.501480102539062"><time>2026-08-20T09:16:42.000Z</time><extensions/></trkpt><trkpt lat="59.11219596862793" lon="30.501480102539062"><time>2026-08-20T09:16:52.000Z</time><extensions/></trkpt><trkpt lat="59.11236763000488" lon="30.501480102539062"><time>2026-08-20T09:17:15.000Z</time><extensions/></trkpt><trkpt lat="59.11241054534912" lon="30.501480102539062"><time>2026-08-20T09:17:17.000Z</time><extensions/></trkpt><trkpt lat="59.11247491836548" lon="30.501480102539062"><time>2026-08-20T09:17:20.000Z</time><extensions/></trkpt><trkpt lat="59.1124963760376" lon="30.501480102539062"><time>2026-08-20T09:17:22.000Z</time><extensions/></trkpt><trkpt lat="59.112560749053955" lon="30.501458644866943"><time>2026-08-20T09:17:27.000Z</time><extensions/></trkpt><trkpt lat="59.112560749053955" lon="30.50150156021118"><time>2026-08-20T09:17:30.000Z</time><extensions/></trkpt><trkpt lat="59.112582206726074" lon="30.50154447555542"><time>2026-08-20T09:17:32.000Z</time><extensions/></trkpt><trkpt lat="59.11262512207031" lon="30.5015230178833"><time>2026-08-20T09:17:35.000Z</time><extensions/></trkpt><trkpt lat="59.11264657974243" lon="30.50150156021118"><time>2026-08-20T09:17:37.000Z</time><extensions/></trkpt><trkpt lat="59.11266803741455" lon="30.501458644866943"><time>2026-08-20T09:17:40.000Z</time><extensions/></trkpt><trkpt lat="59.112796783447266" lon="30.501394271850586"><time>2026-08-20T09:18:10.000Z</time><extensions/></trkpt><trkpt lat="59.11288261413574" lon="30.501351356506348"><time>2026-08-20T09:18:25.000Z</time><extensions/></trkpt><trkpt lat="59.11292552947998" lon="30.50132989883423"><time>2026-08-20T09:18:27.000Z</time><extensions/></trkpt><trkpt lat="59.11318302154541" lon="30.501222610473633"><time>2026-08-20T09:19:05.000Z</time><extensions/></trkpt><trkpt lat="59.11324739456177" lon="30.501244068145752"><time>2026-08-20T09:19:07.000Z</time><extensions/></trkpt><trkpt lat="59.11344051361084" lon="30.501372814178467"><time>2026-08-20T09:19:37.000Z</time><extensions/></trkpt><trkpt lat="59.11348342895508" lon="30.50132989883423"><time>2026-08-20T09:19:50.000Z</time><extensions/></trkpt><trkpt lat="59.1135048866272" lon="30.501244068145752"><time>2026-08-20T09:19:55.000Z</time><extensions/></trkpt><trkpt lat="59.113526344299316" lon="30.501244068145752"><time>2026-08-20T09:19:57.000Z</time><extensions/></trkpt><trkpt lat="59.11361217498779" lon="30.501222610473633"><time>2026-08-20T09:20:10.000Z</time><extensions/></trkpt><trkpt lat="59.11371946334839" lon="30.501201152801514"><time>2026-08-20T09:20:20.000Z</time><extensions/></trkpt><trkpt lat="59.11376237869263" lon="30.501179695129395"><time>2026-08-20T09:20:27.000Z</time><extensions/></trkpt><trkpt lat="59.113783836364746" lon="30.501115322113037"><time>2026-08-20T09:20:30.000Z</time><extensions/></trkpt><trkpt lat="59.113805294036865" lon="30.501093864440918"><time>2026-08-20T09:20:32.000Z</time><extensions/></trkpt><trkpt lat="59.113826751708984" lon="30.5010724067688"><time>2026-08-20T09:20:35.000Z</time><extensions/></trkpt><trkpt lat="59.1138482093811" lon="30.501179695129395"><time>2026-08-20T09:20:42.000Z</time><extensions/></trkpt><trkpt lat="59.11389112472534" lon="30.501179695129395"><time>2026-08-20T09:20:45.000Z</time><extensions/></trkpt><trkpt lat="59.11393404006958" lon="30.501158237457275"><time>2026-08-20T09:20:47.000Z</time><extensions/></trkpt><trkpt lat="59.114041328430176" lon="30.50126552581787"><time>2026-08-20T09:21:12.000Z</time><extensions/></trkpt><trkpt lat="59.114084243774414" lon="30.501351356506348"><time>2026-08-20T09:21:17.000Z</time><extensions/></trkpt><trkpt lat="59.11410570144653" lon="30.501394271850586"><time>2026-08-20T09:21:20.000Z</time><extensions/></trkpt><trkpt lat="59.11412715911865" lon="30.501437187194824"><time>2026-08-20T09:21:22.000Z</time><extensions/></trkpt><trkpt lat="59.11412715911865" lon="30.50150156021118"><time>2026-08-20T09:21:25.000Z</time><extensions/></trkpt><trkpt lat="59.11414861679077" lon="30.50150156021118"><time>2026-08-20T09:21:27.000Z</time><extensions/></trkpt><trkpt lat="59.11419153213501" lon="30.501480102539062"><time>2026-08-20T09:21:30.000Z</time><extensions/></trkpt><trkpt lat="59.11423444747925" lon="30.501351356506348"><time>2026-08-20T09:21:37.000Z</time><extensions/></trkpt><trkpt lat="59.11421298980713" lon="30.50126552581787"><time>2026-08-20T09:21:40.000Z</time><extensions/></trkpt><trkpt lat="59.11421298980713" lon="30.501201152801514"><time>2026-08-20T09:21:42.000Z</time><extensions/></trkpt><trkpt lat="59.11423444747925" lon="30.501093864440918"><time>2026-08-20T09:21:52.000Z</time><extensions/></trkpt><trkpt lat="59.11425590515137" lon="30.50102949142456"><time>2026-08-20T09:21:55.000Z</time><extensions/></trkpt><trkpt lat="59.114320278167725" lon="30.5010724067688"><time>2026-08-20T09:22:10.000Z</time><extensions/></trkpt><trkpt lat="59.114277362823486" lon="30.50100803375244"><time>2026-08-20T09:22:12.000Z</time><extensions/></trkpt><trkpt lat="59.114277362823486" lon="30.500922203063965"><time>2026-08-20T09:22:15.000Z</time><extensions/></trkpt><trkpt lat="59.114277362823486" lon="30.500857830047607"><time>2026-08-20T09:22:17.000Z</time><extensions/></trkpt><trkpt lat="59.11425590515137" lon="30.50079345703125"><time>2026-08-20T09:22:20.000Z</time><extensions/></trkpt><trkpt lat="59.11425590515137" lon="30.50055742263794"><time>2026-08-20T09:22:50.000Z</time><extensions/></trkpt><trkpt lat="59.11423444747925" lon="30.50055742263794"><time>2026-08-20T09:23:00.000Z</time><extensions/></trkpt><trkpt lat="59.11423444747925" lon="30.500493049621582"><time>2026-08-20T09:23:02.000Z</time><extensions/></trkpt><trkpt lat="59.11425590515137" lon="30.500385761260986"><time>2026-08-20T09:23:07.000Z</time><extensions/></trkpt><trkpt lat="59.114277362823486" lon="30.50029993057251"><time>2026-08-20T09:23:10.000Z</time><extensions/></trkpt><trkpt lat="59.114277362823486" lon="30.50032138824463"><time>2026-08-20T09:23:12.000Z</time><extensions/></trkpt><trkpt lat="59.114320278167725" lon="30.50032138824463"><time>2026-08-20T09:23:15.000Z</time><extensions/></trkpt><trkpt lat="59.114341735839844" lon="30.500364303588867"><time>2026-08-20T09:23:17.000Z</time><extensions/></trkpt><trkpt lat="59.11438465118408" lon="30.500385761260986"><time>2026-08-20T09:23:20.000Z</time><extensions/></trkpt><trkpt lat="59.11444902420044" lon="30.500342845916748"><time>2026-08-20T09:23:22.000Z</time><extensions/></trkpt><trkpt lat="59.11447048187256" lon="30.50032138824463"><time>2026-08-20T09:23:25.000Z</time><extensions/></trkpt><trkpt lat="59.11449193954468" lon="30.50029993057251"><time>2026-08-20T09:23:27.000Z</time><extensions/></trkpt><trkpt lat="59.114577770233154" lon="30.500171184539795"><time>2026-08-20T09:23:32.000Z</time><extensions/></trkpt><trkpt lat="59.114577770233154" lon="30.5000638961792"><time>2026-08-20T09:23:35.000Z</time><extensions/></trkpt><trkpt lat="59.114577770233154" lon="30.499999523162842"><time>2026-08-20T09:23:37.000Z</time><extensions/></trkpt><trkpt lat="59.114556312561035" lon="30.49980640411377"><time>2026-08-20T09:23:42.000Z</time><extensions/></trkpt><trkpt lat="59.114534854888916" lon="30.499742031097412"><time>2026-08-20T09:23:45.000Z</time><extensions/></trkpt><trkpt lat="59.114534854888916" lon="30.49976348876953"><time>2026-08-20T09:23:47.000Z</time><extensions/></trkpt><trkpt lat="59.1145133972168" lon="30.49982786178589"><time>2026-08-20T09:23:50.000Z</time><extensions/></trkpt><trkpt lat="59.1144061088562" lon="30.499913692474365"><time>2026-08-20T09:23:55.000Z</time><extensions/></trkpt><trkpt lat="59.11438465118408" lon="30.5000638961792"><time>2026-08-20T09:24:05.000Z</time><extensions/></trkpt><trkpt lat="59.11425590515137" lon="30.499978065490723"><time>2026-08-20T09:24:22.000Z</time><extensions/></trkpt><trkpt lat="59.11421298980713" lon="30.499849319458008"><time>2026-08-20T09:24:30.000Z</time><extensions/></trkpt><trkpt lat="59.11421298980713" lon="30.49978494644165"><time>2026-08-20T09:24:32.000Z</time><extensions/></trkpt><trkpt lat="59.11419153213501" lon="30.499699115753174"><time>2026-08-20T09:24:35.000Z</time><extensions/></trkpt><trkpt lat="59.11417007446289" lon="30.499742031097412"><time>2026-08-20T09:24:37.000Z</time><extensions/></trkpt><trkpt lat="59.11417007446289" lon="30.49976348876953"><time>2026-08-20T09:24:40.000Z</time><extensions/></trkpt><trkpt lat="59.11414861679077" lon="30.49976348876953"><time>2026-08-20T09:24:42.000Z</time><extensions/></trkpt><trkpt lat="59.11412715911865" lon="30.499699115753174"><time>2026-08-20T09:24:45.000Z</time><extensions/></trkpt><trkpt lat="59.11417007446289" lon="30.499634742736816"><time>2026-08-20T09:24:50.000Z</time><extensions/></trkpt><trkpt lat="59.11419153213501" lon="30.499613285064697"><time>2026-08-20T09:25:10.000Z</time><extensions/></trkpt><trkpt lat="59.11417007446289" lon="30.49954891204834"><time>2026-08-20T09:25:12.000Z</time><extensions/></trkpt><trkpt lat="59.11417007446289" lon="30.499441623687744"><time>2026-08-20T09:25:15.000Z</time><extensions/></trkpt><trkpt lat="59.11414861679077" lon="30.499398708343506"><time>2026-08-20T09:25:17.000Z</time><extensions/></trkpt><trkpt lat="59.11417007446289" lon="30.499484539031982"><time>2026-08-20T09:25:20.000Z</time><extensions/></trkpt><trkpt lat="59.11419153213501" lon="30.49954891204834"><time>2026-08-20T09:25:22.000Z</time><extensions/></trkpt><trkpt lat="59.11412715911865" lon="30.499591827392578"><time>2026-08-20T09:25:47.000Z</time><extensions/></trkpt><trkpt lat="59.11417007446289" lon="30.4995059967041"><time>2026-08-20T09:26:17.000Z</time><extensions/></trkpt><trkpt lat="59.11414861679077" lon="30.499398708343506"><time>2026-08-20T09:26:22.000Z</time><extensions/></trkpt><trkpt lat="59.11414861679077" lon="30.49931287765503"><time>2026-08-20T09:26:25.000Z</time><extensions/></trkpt><trkpt lat="59.11412715911865" lon="30.49926996231079"><time>2026-08-20T09:26:27.000Z</time><extensions/></trkpt><trkpt lat="59.11414861679077" lon="30.499205589294434"><time>2026-08-20T09:26:30.000Z</time><extensions/></trkpt><trkpt lat="59.11414861679077" lon="30.499141216278076"><time>2026-08-20T09:26:32.000Z</time><extensions/></trkpt><trkpt lat="59.11414861679077" lon="30.499098300933838"><time>2026-08-20T09:26:35.000Z</time><extensions/></trkpt><trkpt lat="59.11410570144653" lon="30.49881935119629"><time>2026-08-20T09:27:05.000Z</time><extensions/></trkpt><trkpt lat="59.114062786102295" lon="30.49881935119629"><time>2026-08-20T09:27:07.000Z</time><extensions/></trkpt><trkpt lat="59.114041328430176" lon="30.498840808868408"><time>2026-08-20T09:27:10.000Z</time><extensions/></trkpt><trkpt lat="59.114062786102295" lon="30.498840808868408"><time>2026-08-20T09:27:12.000Z</time><extensions/></trkpt><trkpt lat="59.11410570144653" lon="30.49879789352417"><time>2026-08-20T09:27:15.000Z</time><extensions/></trkpt><trkpt lat="59.11410570144653" lon="30.49875497817993"><time>2026-08-20T09:27:17.000Z</time><extensions/></trkpt><trkpt lat="59.11414861679077" lon="30.498690605163574"><time>2026-08-20T09:27:20.000Z</time><extensions/></trkpt><trkpt lat="59.11414861679077" lon="30.498604774475098"><time>2026-08-20T09:27:22.000Z</time><extensions/></trkpt><trkpt lat="59.11414861679077" lon="30.49851894378662"><time>2026-08-20T09:27:25.000Z</time><extensions/></trkpt><trkpt lat="59.11414861679077" lon="30.498454570770264"><time>2026-08-20T09:27:27.000Z</time><extensions/></trkpt><trkpt lat="59.11412715911865" lon="30.498390197753906"><time>2026-08-20T09:27:30.000Z</time><extensions/></trkpt><trkpt lat="59.114084243774414" lon="30.498218536376953"><time>2026-08-20T09:27:35.000Z</time><extensions/></trkpt><trkpt lat="59.114084243774414" lon="30.498132705688477"><time>2026-08-20T09:27:37.000Z</time><extensions/></trkpt><trkpt lat="59.114084243774414" lon="30.498154163360596"><time>2026-08-20T09:27:50.000Z</time><extensions/></trkpt><trkpt lat="59.114084243774414" lon="30.498239994049072"><time>2026-08-20T09:27:52.000Z</time><extensions/></trkpt><trkpt lat="59.114084243774414" lon="30.49830436706543"><time>2026-08-20T09:27:55.000Z</time><extensions/></trkpt><trkpt lat="59.114062786102295" lon="30.49828290939331"><time>2026-08-20T09:27:57.000Z</time><extensions/></trkpt><trkpt lat="59.114041328430176" lon="30.49830436706543"><time>2026-08-20T09:28:00.000Z</time><extensions/></trkpt><trkpt lat="59.11401987075806" lon="30.49830436706543"><time>2026-08-20T09:28:02.000Z</time><extensions/></trkpt><trkpt lat="59.11391258239746" lon="30.49828290939331"><time>2026-08-20T09:28:15.000Z</time><extensions/></trkpt><trkpt lat="59.1138482093811" lon="30.49828290939331"><time>2026-08-20T09:28:20.000Z</time><extensions/></trkpt><trkpt lat="59.113805294036865" lon="30.49828290939331"><time>2026-08-20T09:28:22.000Z</time><extensions/></trkpt><trkpt lat="59.11376237869263" lon="30.49830436706543"><time>2026-08-20T09:28:25.000Z</time><extensions/></trkpt><trkpt lat="59.11369800567627" lon="30.498347282409668"><time>2026-08-20T09:28:27.000Z</time><extensions/></trkpt><trkpt lat="59.11363363265991" lon="30.498433113098145"><time>2026-08-20T09:28:30.000Z</time><extensions/></trkpt><trkpt lat="59.11365509033203" lon="30.498390197753906"><time>2026-08-20T09:28:35.000Z</time><extensions/></trkpt><trkpt lat="59.11367654800415" lon="30.498368740081787"><time>2026-08-20T09:28:37.000Z</time><extensions/></trkpt><trkpt lat="59.11371946334839" lon="30.498390197753906"><time>2026-08-20T09:28:40.000Z</time><extensions/></trkpt><trkpt lat="59.11376237869263" lon="30.498390197753906"><time>2026-08-20T09:28:42.000Z</time><extensions/></trkpt><trkpt lat="59.113805294036865" lon="30.49832582473755"><time>2026-08-20T09:28:45.000Z</time><extensions/></trkpt><trkpt lat="59.1138482093811" lon="30.498347282409668"><time>2026-08-20T09:28:47.000Z</time><extensions/></trkpt><trkpt lat="59.11389112472534" lon="30.498390197753906"><time>2026-08-20T09:28:50.000Z</time><extensions/></trkpt><trkpt lat="59.11391258239746" lon="30.49830436706543"><time>2026-08-20T09:28:57.000Z</time><extensions/></trkpt><trkpt lat="59.11391258239746" lon="30.498197078704834"><time>2026-08-20T09:29:00.000Z</time><extensions/></trkpt><trkpt lat="59.11389112472534" lon="30.498132705688477"><time>2026-08-20T09:29:02.000Z</time><extensions/></trkpt><trkpt lat="59.1138482093811" lon="30.49808979034424"><time>2026-08-20T09:29:05.000Z</time><extensions/></trkpt><trkpt lat="59.1138482093811" lon="30.49800395965576"><time>2026-08-20T09:29:15.000Z</time><extensions/></trkpt><trkpt lat="59.11389112472534" lon="30.497682094573975"><time>2026-08-20T09:29:30.000Z</time><extensions/></trkpt><trkpt lat="59.11391258239746" lon="30.497617721557617"><time>2026-08-20T09:29:32.000Z</time><extensions/></trkpt><trkpt lat="59.1139554977417" lon="30.49755334854126"><time>2026-08-20T09:29:35.000Z</time><extensions/></trkpt><trkpt lat="59.11397695541382" lon="30.49755334854126"><time>2026-08-20T09:29:37.000Z</time><extensions/></trkpt><trkpt lat="59.11401987075806" lon="30.49733877182007"><time>2026-08-20T09:29:47.000Z</time><extensions/></trkpt><trkpt lat="59.11399841308594" lon="30.497424602508545"><time>2026-08-20T09:29:55.000Z</time><extensions/></trkpt><trkpt lat="59.11399841308594" lon="30.497467517852783"><time>2026-08-20T09:29:57.000Z</time><extensions/></trkpt><trkpt lat="59.11397695541382" lon="30.497488975524902"><time>2026-08-20T09:30:27.000Z</time><extensions/></trkpt><trkpt lat="59.11393404006958" lon="30.49731731414795"><time>2026-08-20T09:30:32.000Z</time><extensions/></trkpt><trkpt lat="59.11393404006958" lon="30.497210025787354"><time>2026-08-20T09:30:35.000Z</time><extensions/></trkpt><trkpt lat="59.1139554977417" lon="30.49705982208252"><time>2026-08-20T09:30:40.000Z</time><extensions/></trkpt><trkpt lat="59.11397695541382" lon="30.49701690673828"><time>2026-08-20T09:30:42.000Z</time><extensions/></trkpt><trkpt lat="59.11393404006958" lon="30.497167110443115"><time>2026-08-20T09:31:12.000Z</time><extensions/></trkpt><trkpt lat="59.11397695541382" lon="30.497145652770996"><time>2026-08-20T09:31:17.000Z</time><extensions/></trkpt><trkpt lat="59.11399841308594" lon="30.497167110443115"><time>2026-08-20T09:31:20.000Z</time><extensions/></trkpt><trkpt lat="59.11401987075806" lon="30.497102737426758"><time>2026-08-20T09:31:22.000Z</time><extensions/></trkpt><trkpt lat="59.11401987075806" lon="30.4970383644104"><time>2026-08-20T09:31:25.000Z</time><extensions/></trkpt><trkpt lat="59.11401987075806" lon="30.496952533721924"><time>2026-08-20T09:31:27.000Z</time><extensions/></trkpt><trkpt lat="59.11401987075806" lon="30.49678087234497"><time>2026-08-20T09:31:35.000Z</time><extensions/></trkpt><trkpt lat="59.114041328430176" lon="30.496673583984375"><time>2026-08-20T09:31:37.000Z</time><extensions/></trkpt><trkpt lat="59.114041328430176" lon="30.49654483795166"><time>2026-08-20T09:31:40.000Z</time><extensions/></trkpt><trkpt lat="59.114041328430176" lon="30.496459007263184"><time>2026-08-20T09:31:42.000Z</time><extensions/></trkpt><trkpt lat="59.114041328430176" lon="30.496437549591064"><time>2026-08-20T09:32:10.000Z</time><extensions/></trkpt><trkpt lat="59.11401987075806" lon="30.496351718902588"><time>2026-08-20T09:32:22.000Z</time><extensions/></trkpt><trkpt lat="59.11399841308594" lon="30.49607276916504"><time>2026-08-20T09:32:35.000Z</time><extensions/></trkpt><trkpt lat="59.11399841308594" lon="30.49600839614868"><time>2026-08-20T09:32:37.000Z</time><extensions/></trkpt><trkpt lat="59.1139554977417" lon="30.495643615722656"><time>2026-08-20T09:32:55.000Z</time><extensions/></trkpt><trkpt lat="59.1139554977417" lon="30.495450496673584"><time>2026-08-20T09:33:12.000Z</time><extensions/></trkpt><trkpt lat="59.11393404006958" lon="30.494999885559082"><time>2026-08-20T09:33:45.000Z</time><extensions/></trkpt><trkpt lat="59.11393404006958" lon="30.494914054870605"><time>2026-08-20T09:33:47.000Z</time><extensions/></trkpt><trkpt lat="59.11397695541382" lon="30.494914054870605"><time>2026-08-20T09:33:50.000Z</time><extensions/></trkpt><trkpt lat="59.11393404006958" lon="30.494656562805176"><time>2026-08-20T09:34:10.000Z</time><extensions/></trkpt><trkpt lat="59.11389112472534" lon="30.49459218978882"><time>2026-08-20T09:34:15.000Z</time><extensions/></trkpt><trkpt lat="59.11393404006958" lon="30.4945707321167"><time>2026-08-20T09:34:20.000Z</time><extensions/></trkpt><trkpt lat="59.11397695541382" lon="30.494678020477295"><time>2026-08-20T09:34:22.000Z</time><extensions/></trkpt><trkpt lat="59.11401987075806" lon="30.494742393493652"><time>2026-08-20T09:34:25.000Z</time><extensions/></trkpt><trkpt lat="59.114062786102295" lon="30.494720935821533"><time>2026-08-20T09:34:30.000Z</time><extensions/></trkpt><trkpt lat="59.11412715911865" lon="30.494720935821533"><time>2026-08-20T09:34:32.000Z</time><extensions/></trkpt><trkpt lat="59.11412715911865" lon="30.49459218978882"><time>2026-08-20T09:34:52.000Z</time><extensions/></trkpt><trkpt lat="59.114062786102295" lon="30.49459218978882"><time>2026-08-20T09:34:55.000Z</time><extensions/></trkpt><trkpt lat="59.11401987075806" lon="30.49454927444458"><time>2026-08-20T09:34:57.000Z</time><extensions/></trkpt><trkpt lat="59.114041328430176" lon="30.494441986083984"><time>2026-08-20T09:35:02.000Z</time><extensions/></trkpt><trkpt lat="59.114041328430176" lon="30.494356155395508"><time>2026-08-20T09:35:05.000Z</time><extensions/></trkpt><trkpt lat="59.11399841308594" lon="30.49429178237915"><time>2026-08-20T09:35:07.000Z</time><extensions/></trkpt><trkpt lat="59.11397695541382" lon="30.49431324005127"><time>2026-08-20T09:35:10.000Z</time><extensions/></trkpt><trkpt lat="59.1139554977417" lon="30.49427032470703"><time>2026-08-20T09:35:12.000Z</time><extensions/></trkpt><trkpt lat="59.11393404006958" lon="30.494184494018555"><time>2026-08-20T09:35:15.000Z</time><extensions/></trkpt><trkpt lat="59.11391258239746" lon="30.494120121002197"><time>2026-08-20T09:35:22.000Z</time><extensions/></trkpt><trkpt lat="59.11386966705322" lon="30.494098663330078"><time>2026-08-20T09:35:27.000Z</time><extensions/></trkpt><trkpt lat="59.1138482093811" lon="30.49403429031372"><time>2026-08-20T09:35:30.000Z</time><extensions/></trkpt><trkpt lat="59.113826751708984" lon="30.493969917297363"><time>2026-08-20T09:35:32.000Z</time><extensions/></trkpt><trkpt lat="59.1138482093811" lon="30.493927001953125"><time>2026-08-20T09:35:35.000Z</time><extensions/></trkpt><trkpt lat="59.1138482093811" lon="30.493862628936768"><time>2026-08-20T09:35:37.000Z</time><extensions/></trkpt><trkpt lat="59.11386966705322" lon="30.49379825592041"><time>2026-08-20T09:35:40.000Z</time><extensions/></trkpt><trkpt lat="59.11389112472534" lon="30.49377679824829"><time>2026-08-20T09:35:42.000Z</time><extensions/></trkpt><trkpt lat="59.11391258239746" lon="30.493733882904053"><time>2026-08-20T09:35:45.000Z</time><extensions/></trkpt><trkpt lat="59.11393404006958" lon="30.493690967559814"><time>2026-08-20T09:35:47.000Z</time><extensions/></trkpt><trkpt lat="59.11391258239746" lon="30.493605136871338"><time>2026-08-20T09:35:50.000Z</time><extensions/></trkpt><trkpt lat="59.11393404006958" lon="30.4935622215271"><time>2026-08-20T09:35:52.000Z</time><extensions/></trkpt><trkpt lat="59.1139554977417" lon="30.49354076385498"><time>2026-08-20T09:35:55.000Z</time><extensions/></trkpt><trkpt lat="59.1139554977417" lon="30.49332618713379"><time>2026-08-20T09:36:05.000Z</time><extensions/></trkpt><trkpt lat="59.11393404006958" lon="30.493218898773193"><time>2026-08-20T09:36:07.000Z</time><extensions/></trkpt><trkpt lat="59.11391258239746" lon="30.49302577972412"><time>2026-08-20T09:36:12.000Z</time><extensions/></trkpt><trkpt lat="59.11386966705322" lon="30.493133068084717"><time>2026-08-20T09:36:20.000Z</time><extensions/></trkpt><trkpt lat="59.11386966705322" lon="30.493218898773193"><time>2026-08-20T09:36:22.000Z</time><extensions/></trkpt><trkpt lat="59.11386966705322" lon="30.49328327178955"><time>2026-08-20T09:36:25.000Z</time><extensions/></trkpt><trkpt lat="59.11389112472534" lon="30.49330472946167"><time>2026-08-20T09:36:32.000Z</time><extensions/></trkpt><trkpt lat="59.11391258239746" lon="30.493454933166504"><time>2026-08-20T09:36:42.000Z</time><extensions/></trkpt><trkpt lat="59.11389112472534" lon="30.493433475494385"><time>2026-08-20T09:36:45.000Z</time><extensions/></trkpt><trkpt lat="59.11386966705322" lon="30.49332618713379"><time>2026-08-20T09:36:47.000Z</time><extensions/></trkpt><trkpt lat="59.1138482093811" lon="30.493175983428955"><time>2026-08-20T09:36:50.000Z</time><extensions/></trkpt><trkpt lat="59.113826751708984" lon="30.49304723739624"><time>2026-08-20T09:36:52.000Z</time><extensions/></trkpt><trkpt lat="59.113805294036865" lon="30.492939949035645"><time>2026-08-20T09:36:55.000Z</time><extensions/></trkpt><trkpt lat="59.113805294036865" lon="30.492897033691406"><time>2026-08-20T09:36:57.000Z</time><extensions/></trkpt><trkpt lat="59.11376237869263" lon="30.49281120300293"><time>2026-08-20T09:37:02.000Z</time><extensions/></trkpt><trkpt lat="59.11374092102051" lon="30.49283266067505"><time>2026-08-20T09:37:05.000Z</time><extensions/></trkpt><trkpt lat="59.11369800567627" lon="30.492875576019287"><time>2026-08-20T09:37:07.000Z</time><extensions/></trkpt><trkpt lat="59.11369800567627" lon="30.49283266067505"><time>2026-08-20T09:37:10.000Z</time><extensions/></trkpt><trkpt lat="59.11365509033203" lon="30.492746829986572"><time>2026-08-20T09:37:12.000Z</time><extensions/></trkpt><trkpt lat="59.11361217498779" lon="30.492682456970215"><time>2026-08-20T09:37:15.000Z</time><extensions/></trkpt><trkpt lat="59.11361217498779" lon="30.49259662628174"><time>2026-08-20T09:37:17.000Z</time><extensions/></trkpt><trkpt lat="59.11363363265991" lon="30.4925537109375"><time>2026-08-20T09:37:20.000Z</time><extensions/></trkpt><trkpt lat="59.11361217498779" lon="30.492489337921143"><time>2026-08-20T09:37:25.000Z</time><extensions/></trkpt><trkpt lat="59.11361217498779" lon="30.49253225326538"><time>2026-08-20T09:37:27.000Z</time><extensions/></trkpt><trkpt lat="59.11361217498779" lon="30.49259662628174"><time>2026-08-20T09:37:30.000Z</time><extensions/></trkpt><trkpt lat="59.11361217498779" lon="30.492660999298096"><time>2026-08-20T09:37:32.000Z</time><extensions/></trkpt><trkpt lat="59.113590717315674" lon="30.492725372314453"><time>2026-08-20T09:37:35.000Z</time><extensions/></trkpt><trkpt lat="59.113590717315674" lon="30.492682456970215"><time>2026-08-20T09:37:37.000Z</time><extensions/></trkpt><trkpt lat="59.113547801971436" lon="30.492660999298096"><time>2026-08-20T09:37:40.000Z</time><extensions/></trkpt><trkpt lat="59.1135048866272" lon="30.492618083953857"><time>2026-08-20T09:37:42.000Z</time><extensions/></trkpt><trkpt lat="59.113526344299316" lon="30.4925537109375"><time>2026-08-20T09:37:45.000Z</time><extensions/></trkpt><trkpt lat="59.113526344299316" lon="30.492489337921143"><time>2026-08-20T09:37:47.000Z</time><extensions/></trkpt><trkpt lat="59.11348342895508" lon="30.492489337921143"><time>2026-08-20T09:37:50.000Z</time><extensions/></trkpt><trkpt lat="59.11344051361084" lon="30.492424964904785"><time>2026-08-20T09:37:55.000Z</time><extensions/></trkpt><trkpt lat="59.11346197128296" lon="30.492446422576904"><time>2026-08-20T09:37:57.000Z</time><extensions/></trkpt><trkpt lat="59.1135048866272" lon="30.492424964904785"><time>2026-08-20T09:38:00.000Z</time><extensions/></trkpt><trkpt lat="59.113547801971436" lon="30.492424964904785"><time>2026-08-20T09:38:02.000Z</time><extensions/></trkpt><trkpt lat="59.11361217498779" lon="30.492467880249023"><time>2026-08-20T09:38:05.000Z</time><extensions/></trkpt><trkpt lat="59.11376237869263" lon="30.492489337921143"><time>2026-08-20T09:38:12.000Z</time><extensions/></trkpt><trkpt lat="59.113783836364746" lon="30.49253225326538"><time>2026-08-20T09:38:15.000Z</time><extensions/></trkpt><trkpt lat="59.113783836364746" lon="30.49259662628174"><time>2026-08-20T09:38:17.000Z</time><extensions/></trkpt><trkpt lat="59.113783836364746" lon="30.4925537109375"><time>2026-08-20T09:38:20.000Z</time><extensions/></trkpt><trkpt lat="59.113783836364746" lon="30.492424964904785"><time>2026-08-20T09:38:22.000Z</time><extensions/></trkpt><trkpt lat="59.113783836364746" lon="30.492382049560547"><time>2026-08-20T09:38:25.000Z</time><extensions/></trkpt><trkpt lat="59.113805294036865" lon="30.492403507232666"><time>2026-08-20T09:38:27.000Z</time><extensions/></trkpt><trkpt lat="59.113826751708984" lon="30.49233913421631"><time>2026-08-20T09:38:30.000Z</time><extensions/></trkpt><trkpt lat="59.113826751708984" lon="30.49229621887207"><time>2026-08-20T09:38:32.000Z</time><extensions/></trkpt><trkpt lat="59.113826751708984" lon="30.492210388183594"><time>2026-08-20T09:38:35.000Z</time><extensions/></trkpt><trkpt lat="59.113826751708984" lon="30.49206018447876"><time>2026-08-20T09:38:42.000Z</time><extensions/></trkpt><trkpt lat="59.113805294036865" lon="30.491995811462402"><time>2026-08-20T09:38:45.000Z</time><extensions/></trkpt><trkpt lat="59.113783836364746" lon="30.491952896118164"><time>2026-08-20T09:38:47.000Z</time><extensions/></trkpt><trkpt lat="59.11376237869263" lon="30.491952896118164"><time>2026-08-20T09:38:50.000Z</time><extensions/></trkpt><trkpt lat="59.11374092102051" lon="30.491995811462402"><time>2026-08-20T09:38:52.000Z</time><extensions/></trkpt><trkpt lat="59.11374092102051" lon="30.49206018447876"><time>2026-08-20T09:38:55.000Z</time><extensions/></trkpt><trkpt lat="59.11374092102051" lon="30.492146015167236"><time>2026-08-20T09:38:57.000Z</time><extensions/></trkpt><trkpt lat="59.11376237869263" lon="30.492188930511475"><time>2026-08-20T09:39:00.000Z</time><extensions/></trkpt><trkpt lat="59.11376237869263" lon="30.492188930511475"><time>2026-08-20T09:39:07.000Z</time><extensions/></trkpt><trkpt lat="59.11376237869263" lon="30.492124557495117"><time>2026-08-20T09:39:10.000Z</time><extensions/></trkpt><trkpt lat="59.11374092102051" lon="30.49201726913452"><time>2026-08-20T09:39:12.000Z</time><extensions/></trkpt><trkpt lat="59.11374092102051" lon="30.491931438446045"><time>2026-08-20T09:39:15.000Z</time><extensions/></trkpt><trkpt lat="59.11374092102051" lon="30.49184560775757"><time>2026-08-20T09:39:17.000Z</time><extensions/></trkpt><trkpt lat="59.11374092102051" lon="30.49182415008545"><time>2026-08-20T09:39:37.000Z</time><extensions/></trkpt><trkpt lat="59.11371946334839" lon="30.491459369659424"><time>2026-08-20T09:39:50.000Z</time><extensions/></trkpt><trkpt lat="59.11371946334839" lon="30.491394996643066"><time>2026-08-20T09:39:52.000Z</time><extensions/></trkpt><trkpt lat="59.11369800567627" lon="30.49133062362671"><time>2026-08-20T09:39:55.000Z</time><extensions/></trkpt><trkpt lat="59.11367654800415" lon="30.491394996643066"><time>2026-08-20T09:40:07.000Z</time><extensions/></trkpt><trkpt lat="59.11365509033203" lon="30.491437911987305"><time>2026-08-20T09:40:10.000Z</time><extensions/></trkpt><trkpt lat="59.11361217498779" lon="30.491502285003662"><time>2026-08-20T09:40:15.000Z</time><extensions/></trkpt><trkpt lat="59.11363363265991" lon="30.49152374267578"><time>2026-08-20T09:40:17.000Z</time><extensions/></trkpt><trkpt lat="59.11365509033203" lon="30.49152374267578"><time>2026-08-20T09:40:20.000Z</time><extensions/></trkpt><trkpt lat="59.11367654800415" lon="30.491480827331543"><time>2026-08-20T09:40:22.000Z</time><extensions/></trkpt><trkpt lat="59.11367654800415" lon="30.491416454315186"><time>2026-08-20T09:40:25.000Z</time><extensions/></trkpt><trkpt lat="59.11367654800415" lon="30.49133062362671"><time>2026-08-20T09:40:27.000Z</time><extensions/></trkpt><trkpt lat="59.11367654800415" lon="30.49128770828247"><time>2026-08-20T09:40:30.000Z</time><extensions/></trkpt><trkpt lat="59.11367654800415" lon="30.49105167388916"><time>2026-08-20T09:40:42.000Z</time><extensions/></trkpt><trkpt lat="59.11365509033203" lon="30.490965843200684"><time>2026-08-20T09:40:45.000Z</time><extensions/></trkpt><trkpt lat="59.11363363265991" lon="30.4905366897583"><time>2026-08-20T09:41:00.000Z</time><extensions/></trkpt><trkpt lat="59.11361217498779" lon="30.490429401397705"><time>2026-08-20T09:41:05.000Z</time><extensions/></trkpt><trkpt lat="59.11361217498779" lon="30.490450859069824"><time>2026-08-20T09:41:07.000Z</time><extensions/></trkpt><trkpt lat="59.11365509033203" lon="30.49051523208618"><time>2026-08-20T09:41:17.000Z</time><extensions/></trkpt><trkpt lat="59.11365509033203" lon="30.49055814743042"><time>2026-08-20T09:41:20.000Z</time><extensions/></trkpt><trkpt lat="59.11365509033203" lon="30.49051523208618"><time>2026-08-20T09:41:30.000Z</time><extensions/></trkpt><trkpt lat="59.11363363265991" lon="30.490472316741943"><time>2026-08-20T09:41:35.000Z</time><extensions/></trkpt><trkpt lat="59.11363363265991" lon="30.49006462097168"><time>2026-08-20T09:41:52.000Z</time><extensions/></trkpt><trkpt lat="59.11361217498779" lon="30.48985004425049"><time>2026-08-20T09:42:00.000Z</time><extensions/></trkpt><trkpt lat="59.113569259643555" lon="30.48980712890625"><time>2026-08-20T09:42:02.000Z</time><extensions/></trkpt><trkpt lat="59.113590717315674" lon="30.489721298217773"><time>2026-08-20T09:42:05.000Z</time><extensions/></trkpt><trkpt lat="59.11361217498779" lon="30.489678382873535"><time>2026-08-20T09:42:07.000Z</time><extensions/></trkpt><trkpt lat="59.11361217498779" lon="30.489699840545654"><time>2026-08-20T09:42:12.000Z</time><extensions/></trkpt><trkpt lat="59.11361217498779" lon="30.48978567123413"><time>2026-08-20T09:42:15.000Z</time><extensions/></trkpt><trkpt lat="59.11361217498779" lon="30.48976421356201"><time>2026-08-20T09:42:22.000Z</time><extensions/></trkpt><trkpt lat="59.113569259643555" lon="30.48976421356201"><time>2026-08-20T09:42:25.000Z</time><extensions/></trkpt><trkpt lat="59.113547801971436" lon="30.48980712890625"><time>2026-08-20T09:42:27.000Z</time><extensions/></trkpt><trkpt lat="59.113526344299316" lon="30.489721298217773"><time>2026-08-20T09:42:52.000Z</time><extensions/></trkpt><trkpt lat="59.113526344299316" lon="30.489635467529297"><time>2026-08-20T09:42:55.000Z</time><extensions/></trkpt><trkpt lat="59.113547801971436" lon="30.48957109451294"><time>2026-08-20T09:42:57.000Z</time><extensions/></trkpt><trkpt lat="59.113569259643555" lon="30.489506721496582"><time>2026-08-20T09:43:00.000Z</time><extensions/></trkpt><trkpt lat="59.113569259643555" lon="30.489442348480225"><time>2026-08-20T09:43:02.000Z</time><extensions/></trkpt><trkpt lat="59.113547801971436" lon="30.489377975463867"><time>2026-08-20T09:43:05.000Z</time><extensions/></trkpt><trkpt lat="59.113526344299316" lon="30.48929214477539"><time>2026-08-20T09:43:07.000Z</time><extensions/></trkpt><trkpt lat="59.11348342895508" lon="30.489227771759033"><time>2026-08-20T09:43:10.000Z</time><extensions/></trkpt><trkpt lat="59.11344051361084" lon="30.489163398742676"><time>2026-08-20T09:43:12.000Z</time><extensions/></trkpt><trkpt lat="59.11341905593872" lon="30.48905611038208"><time>2026-08-20T09:43:15.000Z</time><extensions/></trkpt><trkpt lat="59.11341905593872" lon="30.488927364349365"><time>2026-08-20T09:43:17.000Z</time><extensions/></trkpt><trkpt lat="59.11337614059448" lon="30.48884153366089"><time>2026-08-20T09:43:20.000Z</time><extensions/></trkpt><trkpt lat="59.11337614059448" lon="30.488712787628174"><time>2026-08-20T09:43:22.000Z</time><extensions/></trkpt><trkpt lat="59.113333225250244" lon="30.48856258392334"><time>2026-08-20T09:43:25.000Z</time><extensions/></trkpt><trkpt lat="59.113290309906006" lon="30.488455295562744"><time>2026-08-20T09:43:27.000Z</time><extensions/></trkpt><trkpt lat="59.11324739456177" lon="30.488390922546387"><time>2026-08-20T09:43:30.000Z</time><extensions/></trkpt><trkpt lat="59.11320447921753" lon="30.488390922546387"><time>2026-08-20T09:43:32.000Z</time><extensions/></trkpt><trkpt lat="59.11314010620117" lon="30.48832654953003"><time>2026-08-20T09:44:02.000Z</time><extensions/></trkpt><trkpt lat="59.11314010620117" lon="30.48830509185791"><time>2026-08-20T09:44:30.000Z</time><extensions/></trkpt><trkpt lat="59.11314010620117" lon="30.48830509185791"><time>2026-08-20T09:45:00.000Z</time><extensions/></trkpt><trkpt lat="59.11311864852905" lon="30.48828363418579"><time>2026-08-20T09:45:30.000Z</time><extensions/></trkpt><trkpt lat="59.113097190856934" lon="30.48828363418579"><time>2026-08-20T09:46:00.000Z</time><extensions/></trkpt><trkpt lat="59.113075733184814" lon="30.48828363418579"><time>2026-08-20T09:46:30.000Z</time><extensions/></trkpt><trkpt lat="59.113054275512695" lon="30.48830509185791"><time>2026-08-20T09:47:00.000Z</time><extensions/></trkpt><trkpt lat="59.113075733184814" lon="30.48828363418579"><time>2026-08-20T09:47:30.000Z</time><extensions/></trkpt><trkpt lat="59.113075733184814" lon="30.48828363418579"><time>2026-08-20T09:48:00.000Z</time><extensions/></trkpt><trkpt lat="59.113075733184814" lon="30.48830509185791"><time>2026-08-20T09:48:30.000Z</time><extensions/></trkpt><trkpt lat="59.113075733184814" lon="30.48828363418579"><time>2026-08-20T09:49:00.000Z</time><extensions/></trkpt><trkpt lat="59.113054275512695" lon="30.48828363418579"><time>2026-08-20T09:49:30.000Z</time><extensions/></trkpt><trkpt lat="59.11318302154541" lon="30.488240718841553"><time>2026-08-20T09:49:52.000Z</time><extensions/></trkpt><trkpt lat="59.11322593688965" lon="30.488240718841553"><time>2026-08-20T09:49:57.000Z</time><extensions/></trkpt><trkpt lat="59.1133975982666" lon="30.48809051513672"><time>2026-08-20T09:50:27.000Z</time><extensions/></trkpt><trkpt lat="59.11337614059448" lon="30.488004684448242"><time>2026-08-20T09:50:32.000Z</time><extensions/></trkpt><trkpt lat="59.11337614059448" lon="30.487961769104004"><time>2026-08-20T09:50:35.000Z</time><extensions/></trkpt><trkpt lat="59.1133975982666" lon="30.487961769104004"><time>2026-08-20T09:50:37.000Z</time><extensions/></trkpt><trkpt lat="59.11341905593872" lon="30.488004684448242"><time>2026-08-20T09:50:40.000Z</time><extensions/></trkpt><trkpt lat="59.11346197128296" lon="30.48804759979248"><time>2026-08-20T09:50:42.000Z</time><extensions/></trkpt><trkpt lat="59.1135048866272" lon="30.48804759979248"><time>2026-08-20T09:50:50.000Z</time><extensions/></trkpt><trkpt lat="59.1135048866272" lon="30.488176345825195"><time>2026-08-20T09:50:57.000Z</time><extensions/></trkpt><trkpt lat="59.1135048866272" lon="30.488219261169434"><time>2026-08-20T09:51:00.000Z</time><extensions/></trkpt><trkpt lat="59.113526344299316" lon="30.488219261169434"><time>2026-08-20T09:51:10.000Z</time><extensions/></trkpt><trkpt lat="59.1135048866272" lon="30.488197803497314"><time>2026-08-20T09:51:15.000Z</time><extensions/></trkpt><trkpt lat="59.11346197128296" lon="30.488133430480957"><time>2026-08-20T09:51:17.000Z</time><extensions/></trkpt><trkpt lat="59.11344051361084" lon="30.48804759979248"><time>2026-08-20T09:51:20.000Z</time><extensions/></trkpt><trkpt lat="59.11341905593872" lon="30.48802614212036"><time>2026-08-20T09:51:22.000Z</time><extensions/></trkpt><trkpt lat="59.11344051361084" lon="30.487854480743408"><time>2026-08-20T09:51:37.000Z</time><extensions/></trkpt><trkpt lat="59.11348342895508" lon="30.48783302307129"><time>2026-08-20T09:51:40.000Z</time><extensions/></trkpt><trkpt lat="59.1135048866272" lon="30.48779010772705"><time>2026-08-20T09:51:42.000Z</time><extensions/></trkpt><trkpt lat="59.11348342895508" lon="30.487704277038574"><time>2026-08-20T09:51:45.000Z</time><extensions/></trkpt><trkpt lat="59.11348342895508" lon="30.487725734710693"><time>2026-08-20T09:51:47.000Z</time><extensions/></trkpt><trkpt lat="59.11346197128296" lon="30.487639904022217"><time>2026-08-20T09:51:52.000Z</time><extensions/></trkpt><trkpt lat="59.11344051361084" lon="30.487511157989502"><time>2026-08-20T09:51:55.000Z</time><extensions/></trkpt><trkpt lat="59.11344051361084" lon="30.487446784973145"><time>2026-08-20T09:51:57.000Z</time><extensions/></trkpt><trkpt lat="59.11344051361084" lon="30.487360954284668"><time>2026-08-20T09:52:07.000Z</time><extensions/></trkpt><trkpt lat="59.11341905593872" lon="30.487232208251953"><time>2026-08-20T09:52:10.000Z</time><extensions/></trkpt><trkpt lat="59.11341905593872" lon="30.487210750579834"><time>2026-08-20T09:52:12.000Z</time><extensions/></trkpt><trkpt lat="59.11341905593872" lon="30.487253665924072"><time>2026-08-20T09:52:15.000Z</time><extensions/></trkpt><trkpt lat="59.11335468292236" lon="30.487253665924072"><time>2026-08-20T09:52:20.000Z</time><extensions/></trkpt><trkpt lat="59.113333225250244" lon="30.487232208251953"><time>2026-08-20T09:52:22.000Z</time><extensions/></trkpt><trkpt lat="59.113311767578125" lon="30.487232208251953"><time>2026-08-20T09:52:25.000Z</time><extensions/></trkpt><trkpt lat="59.113333225250244" lon="30.487167835235596"><time>2026-08-20T09:52:55.000Z</time><extensions/></trkpt><trkpt lat="59.113333225250244" lon="30.487167835235596"><time>2026-08-20T09:52:57.000Z</time><extensions/></trkpt><trkpt lat="59.113333225250244" lon="30.487146377563477"><time>2026-08-20T09:53:07.000Z</time><extensions/></trkpt><trkpt lat="59.11335468292236" lon="30.486867427825928"><time>2026-08-20T09:53:25.000Z</time><extensions/></trkpt><trkpt lat="59.113311767578125" lon="30.486481189727783"><time>2026-08-20T09:53:47.000Z</time><extensions/></trkpt><trkpt lat="59.113311767578125" lon="30.486373901367188"><time>2026-08-20T09:53:55.000Z</time><extensions/></trkpt><trkpt lat="59.113290309906006" lon="30.485987663269043"><time>2026-08-20T09:54:20.000Z</time><extensions/></trkpt><trkpt lat="59.11324739456177" lon="30.485708713531494"><time>2026-08-20T09:54:50.000Z</time><extensions/></trkpt><trkpt lat="59.11326885223389" lon="30.485708713531494"><time>2026-08-20T09:55:05.000Z</time><extensions/></trkpt><trkpt lat="59.11326885223389" lon="30.485665798187256"><time>2026-08-20T09:55:22.000Z</time><extensions/></trkpt><trkpt lat="59.11322593688965" lon="30.485365390777588"><time>2026-08-20T09:55:45.000Z</time><extensions/></trkpt><trkpt lat="59.11320447921753" lon="30.484914779663086"><time>2026-08-20T09:56:12.000Z</time><extensions/></trkpt><trkpt lat="59.113075733184814" lon="30.484614372253418"><time>2026-08-20T09:56:32.000Z</time><extensions/></trkpt><trkpt lat="59.113032817840576" lon="30.484185218811035"><time>2026-08-20T09:56:55.000Z</time><extensions/></trkpt><trkpt lat="59.11301136016846" lon="30.48382043838501"><time>2026-08-20T09:57:25.000Z</time><extensions/></trkpt><trkpt lat="59.11296844482422" lon="30.483434200286865"><time>2026-08-20T09:57:45.000Z</time><extensions/></trkpt><trkpt lat="59.11292552947998" lon="30.48328399658203"><time>2026-08-20T09:57:52.000Z</time><extensions/></trkpt><trkpt lat="59.11296844482422" lon="30.48285484313965"><time>2026-08-20T09:58:07.000Z</time><extensions/></trkpt><trkpt lat="59.11296844482422" lon="30.48279047012329"><time>2026-08-20T09:58:10.000Z</time><extensions/></trkpt><trkpt lat="59.11292552947998" lon="30.48253297805786"><time>2026-08-20T09:58:25.000Z</time><extensions/></trkpt><trkpt lat="59.11292552947998" lon="30.482468605041504"><time>2026-08-20T09:58:27.000Z</time><extensions/></trkpt><trkpt lat="59.11290407180786" lon="30.482404232025146"><time>2026-08-20T09:58:30.000Z</time><extensions/></trkpt><trkpt lat="59.11290407180786" lon="30.48233985900879"><time>2026-08-20T09:58:32.000Z</time><extensions/></trkpt><trkpt lat="59.11292552947998" lon="30.48227548599243"><time>2026-08-20T09:58:35.000Z</time><extensions/></trkpt><trkpt lat="59.11290407180786" lon="30.482232570648193"><time>2026-08-20T09:58:37.000Z</time><extensions/></trkpt><trkpt lat="59.11292552947998" lon="30.482168197631836"><time>2026-08-20T09:58:40.000Z</time><extensions/></trkpt><trkpt lat="59.11290407180786" lon="30.482125282287598"><time>2026-08-20T09:59:10.000Z</time><extensions/></trkpt></trkseg></trk></gpx>